<?xml version="1.0" encoding="UTF-8" standalone="no" ?>
<gpx xmlns="http://www.topografix.com/GPX/1/1" xmlns:xsi="http://www.w3.org/2001/XMLSchema-instance" xsi:schemaLocation="http://www.topografix.com/GPX/1/1 http://www.topografix.com/GPX/1/1/gpx.xsd" version="1.1" creator="VisuGPX - https://www.visugpx.com">
  <metadata>
    <name>Canal des 2 Mers - J3</name>
    <desc><![CDATA[Départ de Carcassonne et arrivé à Gardouch par le canal du Midi

Même physionomie que la veille. Une nette amélioration à partir de l'écluse de Bram avec un chemin plus large et plus roulant qui soulage les bras et le moral. Encore de beaux points de vues jusqu'à Castelnaudary. Pause repas au Ptit Moka, salade généreuse et cassoulet authentique pour les fans....
Des portions très paisible et reposante le long du canal du midi jusqu'un peu avant Villefranche de Lauragais.
Le chemin devient piste cyclable goudronnée à partir de Villefranche mais longe l'autoroute jusqu'à Gardouch, fini la quiétude !
Halte à la chambre d'hôte "La Masquière". Piscine pour se détendre. Repas au restaurant "l'Estanquet", très bon rapport qualité/prix et bonne ambiance au rendez-vous. Pensez à réserver.]]></desc>
  </metadata>
  <trk>
    <name><![CDATA[2017-08-07-01_Canal2Mers_Jour3]]></name>
    <trkseg>
      <trkpt lat="43.21564" lon="2.35563">
        <ele>101.511017</ele>
        <time>2017-08-07T06:47:09Z</time>
      </trkpt>
      <trkpt lat="43.21564" lon="2.35563">
        <ele>101.510201</ele>
        <time>2017-08-07T06:47:10Z</time>
      </trkpt>
      <trkpt lat="43.21566" lon="2.35577">
        <ele>100.599998</ele>
        <time>2017-08-07T06:47:32Z</time>
      </trkpt>
      <trkpt lat="43.21566" lon="2.35591">
        <ele>99.599998</ele>
        <time>2017-08-07T06:47:37Z</time>
      </trkpt>
      <trkpt lat="43.21564" lon="2.35605">
        <ele>98.800003</ele>
        <time>2017-08-07T06:47:42Z</time>
      </trkpt>
      <trkpt lat="43.21555" lon="2.35607">
        <ele>99.300003</ele>
        <time>2017-08-07T06:47:47Z</time>
      </trkpt>
      <trkpt lat="43.21545" lon="2.35604">
        <ele>100</ele>
        <time>2017-08-07T06:47:52Z</time>
      </trkpt>
      <trkpt lat="43.21534" lon="2.35605">
        <ele>101.199997</ele>
        <time>2017-08-07T06:47:56Z</time>
      </trkpt>
      <trkpt lat="43.21523" lon="2.35605">
        <ele>102.900002</ele>
        <time>2017-08-07T06:48:00Z</time>
      </trkpt>
      <trkpt lat="43.21511" lon="2.35606">
        <ele>104.300003</ele>
        <time>2017-08-07T06:48:04Z</time>
      </trkpt>
      <trkpt lat="43.215" lon="2.35605">
        <ele>104.400002</ele>
        <time>2017-08-07T06:48:08Z</time>
      </trkpt>
      <trkpt lat="43.21488" lon="2.35607">
        <ele>104.699997</ele>
        <time>2017-08-07T06:48:12Z</time>
      </trkpt>
      <trkpt lat="43.21483" lon="2.35595">
        <ele>104.300003</ele>
        <time>2017-08-07T06:48:17Z</time>
      </trkpt>
      <trkpt lat="43.21484" lon="2.35582">
        <ele>104.199997</ele>
        <time>2017-08-07T06:48:20Z</time>
      </trkpt>
      <trkpt lat="43.21484" lon="2.35568">
        <ele>104</ele>
        <time>2017-08-07T06:48:23Z</time>
      </trkpt>
      <trkpt lat="43.21484" lon="2.35556">
        <ele>103.199997</ele>
        <time>2017-08-07T06:48:26Z</time>
      </trkpt>
      <trkpt lat="43.21484" lon="2.35542">
        <ele>102.400002</ele>
        <time>2017-08-07T06:48:29Z</time>
      </trkpt>
      <trkpt lat="43.21485" lon="2.35527">
        <ele>102.599998</ele>
        <time>2017-08-07T06:48:32Z</time>
      </trkpt>
      <trkpt lat="43.21484" lon="2.35515">
        <ele>103</ele>
        <time>2017-08-07T06:48:35Z</time>
      </trkpt>
      <trkpt lat="43.21485" lon="2.35501">
        <ele>104.199997</ele>
        <time>2017-08-07T06:48:39Z</time>
      </trkpt>
      <trkpt lat="43.21485" lon="2.35488">
        <ele>105.5</ele>
        <time>2017-08-07T06:48:43Z</time>
      </trkpt>
      <trkpt lat="43.2148" lon="2.35475">
        <ele>105.400002</ele>
        <time>2017-08-07T06:49:31Z</time>
      </trkpt>
      <trkpt lat="43.21472" lon="2.3547">
        <ele>104.199997</ele>
        <time>2017-08-07T06:49:35Z</time>
      </trkpt>
      <trkpt lat="43.21462" lon="2.35464">
        <ele>102.800003</ele>
        <time>2017-08-07T06:49:39Z</time>
      </trkpt>
      <trkpt lat="43.21452" lon="2.35468">
        <ele>102.800003</ele>
        <time>2017-08-07T06:49:42Z</time>
      </trkpt>
      <trkpt lat="43.21441" lon="2.35475">
        <ele>103.599998</ele>
        <time>2017-08-07T06:49:45Z</time>
      </trkpt>
      <trkpt lat="43.21431" lon="2.35482">
        <ele>104.099998</ele>
        <time>2017-08-07T06:49:48Z</time>
      </trkpt>
      <trkpt lat="43.21422" lon="2.35486">
        <ele>105.599998</ele>
        <time>2017-08-07T06:49:51Z</time>
      </trkpt>
      <trkpt lat="43.21413" lon="2.3549">
        <ele>107.599998</ele>
        <time>2017-08-07T06:49:54Z</time>
      </trkpt>
      <trkpt lat="43.21404" lon="2.35496">
        <ele>109.300003</ele>
        <time>2017-08-07T06:49:57Z</time>
      </trkpt>
      <trkpt lat="43.21393" lon="2.35498">
        <ele>109.900002</ele>
        <time>2017-08-07T06:50:00Z</time>
      </trkpt>
      <trkpt lat="43.21383" lon="2.35504">
        <ele>110.099998</ele>
        <time>2017-08-07T06:50:04Z</time>
      </trkpt>
      <trkpt lat="43.21373" lon="2.35508">
        <ele>110.199997</ele>
        <time>2017-08-07T06:50:07Z</time>
      </trkpt>
      <trkpt lat="43.21365" lon="2.35514">
        <ele>109.699997</ele>
        <time>2017-08-07T06:50:10Z</time>
      </trkpt>
      <trkpt lat="43.21355" lon="2.35518">
        <ele>109.199997</ele>
        <time>2017-08-07T06:50:13Z</time>
      </trkpt>
      <trkpt lat="43.21344" lon="2.35522">
        <ele>108.699997</ele>
        <time>2017-08-07T06:50:17Z</time>
      </trkpt>
      <trkpt lat="43.21334" lon="2.35527">
        <ele>108.300003</ele>
        <time>2017-08-07T06:50:21Z</time>
      </trkpt>
      <trkpt lat="43.21325" lon="2.35534">
        <ele>107.800003</ele>
        <time>2017-08-07T06:50:24Z</time>
      </trkpt>
      <trkpt lat="43.21315" lon="2.35538">
        <ele>107.199997</ele>
        <time>2017-08-07T06:50:27Z</time>
      </trkpt>
      <trkpt lat="43.21306" lon="2.35542">
        <ele>106.5</ele>
        <time>2017-08-07T06:50:30Z</time>
      </trkpt>
      <trkpt lat="43.21295" lon="2.35543">
        <ele>106.099998</ele>
        <time>2017-08-07T06:50:33Z</time>
      </trkpt>
      <trkpt lat="43.21285" lon="2.35544">
        <ele>104.900002</ele>
        <time>2017-08-07T06:50:36Z</time>
      </trkpt>
      <trkpt lat="43.21275" lon="2.35546">
        <ele>103.300003</ele>
        <time>2017-08-07T06:50:39Z</time>
      </trkpt>
      <trkpt lat="43.21269" lon="2.35536">
        <ele>103.5</ele>
        <time>2017-08-07T06:50:52Z</time>
      </trkpt>
      <trkpt lat="43.2127" lon="2.3552">
        <ele>106.199997</ele>
        <time>2017-08-07T06:50:56Z</time>
      </trkpt>
      <trkpt lat="43.21267" lon="2.35508">
        <ele>107.400002</ele>
        <time>2017-08-07T06:51:08Z</time>
      </trkpt>
      <trkpt lat="43.21265" lon="2.35494">
        <ele>107.300003</ele>
        <time>2017-08-07T06:56:30Z</time>
      </trkpt>
      <trkpt lat="43.21267" lon="2.35481">
        <ele>107.400002</ele>
        <time>2017-08-07T06:56:34Z</time>
      </trkpt>
      <trkpt lat="43.21268" lon="2.35465">
        <ele>107.099998</ele>
        <time>2017-08-07T06:56:38Z</time>
      </trkpt>
      <trkpt lat="43.21268" lon="2.35452">
        <ele>106.699997</ele>
        <time>2017-08-07T06:56:41Z</time>
      </trkpt>
      <trkpt lat="43.21268" lon="2.3544">
        <ele>105.900002</ele>
        <time>2017-08-07T06:56:49Z</time>
      </trkpt>
      <trkpt lat="43.2127" lon="2.35426">
        <ele>105.699997</ele>
        <time>2017-08-07T06:56:55Z</time>
      </trkpt>
      <trkpt lat="43.21271" lon="2.35414">
        <ele>106.300003</ele>
        <time>2017-08-07T06:57:01Z</time>
      </trkpt>
      <trkpt lat="43.21272" lon="2.354">
        <ele>106.400002</ele>
        <time>2017-08-07T06:57:04Z</time>
      </trkpt>
      <trkpt lat="43.21272" lon="2.35387">
        <ele>107.099998</ele>
        <time>2017-08-07T06:57:07Z</time>
      </trkpt>
      <trkpt lat="43.21272" lon="2.35372">
        <ele>107.699997</ele>
        <time>2017-08-07T06:57:10Z</time>
      </trkpt>
      <trkpt lat="43.21271" lon="2.35356">
        <ele>106.900002</ele>
        <time>2017-08-07T06:57:14Z</time>
      </trkpt>
      <trkpt lat="43.21271" lon="2.35343">
        <ele>106.400002</ele>
        <time>2017-08-07T06:57:21Z</time>
      </trkpt>
      <trkpt lat="43.21272" lon="2.35328">
        <ele>106.199997</ele>
        <time>2017-08-07T06:57:27Z</time>
      </trkpt>
      <trkpt lat="43.21272" lon="2.35314">
        <ele>105.900002</ele>
        <time>2017-08-07T06:57:30Z</time>
      </trkpt>
      <trkpt lat="43.21272" lon="2.35298">
        <ele>105.699997</ele>
        <time>2017-08-07T06:57:33Z</time>
      </trkpt>
      <trkpt lat="43.21273" lon="2.35286">
        <ele>105.900002</ele>
        <time>2017-08-07T06:57:36Z</time>
      </trkpt>
      <trkpt lat="43.21273" lon="2.35268">
        <ele>106.699997</ele>
        <time>2017-08-07T06:57:39Z</time>
      </trkpt>
      <trkpt lat="43.21273" lon="2.35255">
        <ele>107.800003</ele>
        <time>2017-08-07T06:57:42Z</time>
      </trkpt>
      <trkpt lat="43.21272" lon="2.35239">
        <ele>109.099998</ele>
        <time>2017-08-07T06:57:45Z</time>
      </trkpt>
      <trkpt lat="43.21273" lon="2.35225">
        <ele>109.5</ele>
        <time>2017-08-07T06:57:50Z</time>
      </trkpt>
      <trkpt lat="43.21271" lon="2.35208">
        <ele>109</ele>
        <time>2017-08-07T06:57:54Z</time>
      </trkpt>
      <trkpt lat="43.21271" lon="2.35193">
        <ele>108.400002</ele>
        <time>2017-08-07T06:57:57Z</time>
      </trkpt>
      <trkpt lat="43.2127" lon="2.35181">
        <ele>107.800003</ele>
        <time>2017-08-07T06:58:00Z</time>
      </trkpt>
      <trkpt lat="43.21271" lon="2.35166">
        <ele>108</ele>
        <time>2017-08-07T06:58:03Z</time>
      </trkpt>
      <trkpt lat="43.2127" lon="2.3515">
        <ele>108.300003</ele>
        <time>2017-08-07T06:58:06Z</time>
      </trkpt>
      <trkpt lat="43.21267" lon="2.35138">
        <ele>108.5</ele>
        <time>2017-08-07T06:58:09Z</time>
      </trkpt>
      <trkpt lat="43.21279" lon="2.35131">
        <ele>108.5</ele>
        <time>2017-08-07T06:58:14Z</time>
      </trkpt>
      <trkpt lat="43.2129" lon="2.35129">
        <ele>108.199997</ele>
        <time>2017-08-07T06:58:17Z</time>
      </trkpt>
      <trkpt lat="43.21301" lon="2.35128">
        <ele>109</ele>
        <time>2017-08-07T06:58:20Z</time>
      </trkpt>
      <trkpt lat="43.21312" lon="2.35128">
        <ele>110.199997</ele>
        <time>2017-08-07T06:58:23Z</time>
      </trkpt>
      <trkpt lat="43.21322" lon="2.35127">
        <ele>110.900002</ele>
        <time>2017-08-07T06:58:26Z</time>
      </trkpt>
      <trkpt lat="43.21332" lon="2.35127">
        <ele>110.599998</ele>
        <time>2017-08-07T06:58:29Z</time>
      </trkpt>
      <trkpt lat="43.21342" lon="2.35126">
        <ele>110.199997</ele>
        <time>2017-08-07T06:58:32Z</time>
      </trkpt>
      <trkpt lat="43.21351" lon="2.35125">
        <ele>109.800003</ele>
        <time>2017-08-07T06:58:37Z</time>
      </trkpt>
      <trkpt lat="43.21361" lon="2.35125">
        <ele>109</ele>
        <time>2017-08-07T06:58:40Z</time>
      </trkpt>
      <trkpt lat="43.21371" lon="2.35123">
        <ele>108.599998</ele>
        <time>2017-08-07T06:58:43Z</time>
      </trkpt>
      <trkpt lat="43.21381" lon="2.35122">
        <ele>107.900002</ele>
        <time>2017-08-07T06:58:46Z</time>
      </trkpt>
      <trkpt lat="43.21393" lon="2.35118">
        <ele>107.5</ele>
        <time>2017-08-07T06:58:49Z</time>
      </trkpt>
      <trkpt lat="43.21405" lon="2.35115">
        <ele>107.300003</ele>
        <time>2017-08-07T06:58:52Z</time>
      </trkpt>
      <trkpt lat="43.21415" lon="2.35115">
        <ele>108.199997</ele>
        <time>2017-08-07T06:58:56Z</time>
      </trkpt>
      <trkpt lat="43.2142" lon="2.35099">
        <ele>109.900002</ele>
        <time>2017-08-07T06:59:01Z</time>
      </trkpt>
      <trkpt lat="43.21421" lon="2.35085">
        <ele>111.199997</ele>
        <time>2017-08-07T06:59:04Z</time>
      </trkpt>
      <trkpt lat="43.21423" lon="2.35069">
        <ele>112.599998</ele>
        <time>2017-08-07T06:59:08Z</time>
      </trkpt>
      <trkpt lat="43.21424" lon="2.35055">
        <ele>112.5</ele>
        <time>2017-08-07T06:59:11Z</time>
      </trkpt>
      <trkpt lat="43.21425" lon="2.35043">
        <ele>112.300003</ele>
        <time>2017-08-07T06:59:14Z</time>
      </trkpt>
      <trkpt lat="43.21421" lon="2.3503">
        <ele>112.199997</ele>
        <time>2017-08-07T06:59:19Z</time>
      </trkpt>
      <trkpt lat="43.21421" lon="2.35015">
        <ele>112</ele>
        <time>2017-08-07T06:59:23Z</time>
      </trkpt>
      <trkpt lat="43.21422" lon="2.35002">
        <ele>112.800003</ele>
        <time>2017-08-07T06:59:26Z</time>
      </trkpt>
      <trkpt lat="43.21422" lon="2.34989">
        <ele>113.699997</ele>
        <time>2017-08-07T06:59:29Z</time>
      </trkpt>
      <trkpt lat="43.21424" lon="2.34976">
        <ele>115.300003</ele>
        <time>2017-08-07T06:59:32Z</time>
      </trkpt>
      <trkpt lat="43.21422" lon="2.34961">
        <ele>117.5</ele>
        <time>2017-08-07T06:59:36Z</time>
      </trkpt>
      <trkpt lat="43.21424" lon="2.34947">
        <ele>119</ele>
        <time>2017-08-07T06:59:40Z</time>
      </trkpt>
      <trkpt lat="43.21425" lon="2.34934">
        <ele>120.400002</ele>
        <time>2017-08-07T06:59:45Z</time>
      </trkpt>
      <trkpt lat="43.21424" lon="2.3492">
        <ele>120.800003</ele>
        <time>2017-08-07T06:59:50Z</time>
      </trkpt>
      <trkpt lat="43.21423" lon="2.34906">
        <ele>121</ele>
        <time>2017-08-07T06:59:54Z</time>
      </trkpt>
      <trkpt lat="43.21423" lon="2.34893">
        <ele>120.5</ele>
        <time>2017-08-07T06:59:58Z</time>
      </trkpt>
      <trkpt lat="43.21421" lon="2.34881">
        <ele>119.699997</ele>
        <time>2017-08-07T07:00:02Z</time>
      </trkpt>
      <trkpt lat="43.21417" lon="2.34869">
        <ele>119.199997</ele>
        <time>2017-08-07T07:00:05Z</time>
      </trkpt>
      <trkpt lat="43.2142" lon="2.34855">
        <ele>118.300003</ele>
        <time>2017-08-07T07:00:09Z</time>
      </trkpt>
      <trkpt lat="43.21417" lon="2.34843">
        <ele>118.099998</ele>
        <time>2017-08-07T07:00:13Z</time>
      </trkpt>
      <trkpt lat="43.21419" lon="2.3483">
        <ele>118.400002</ele>
        <time>2017-08-07T07:00:17Z</time>
      </trkpt>
      <trkpt lat="43.2142" lon="2.34817">
        <ele>118.599998</ele>
        <time>2017-08-07T07:00:21Z</time>
      </trkpt>
      <trkpt lat="43.21421" lon="2.34802">
        <ele>117.199997</ele>
        <time>2017-08-07T07:00:25Z</time>
      </trkpt>
      <trkpt lat="43.21422" lon="2.34789">
        <ele>116.099998</ele>
        <time>2017-08-07T07:00:29Z</time>
      </trkpt>
      <trkpt lat="43.21422" lon="2.34777">
        <ele>116.599998</ele>
        <time>2017-08-07T07:00:33Z</time>
      </trkpt>
      <trkpt lat="43.21422" lon="2.34758">
        <ele>117.099998</ele>
        <time>2017-08-07T07:00:39Z</time>
      </trkpt>
      <trkpt lat="43.2143" lon="2.34749">
        <ele>116.099998</ele>
        <time>2017-08-07T07:00:48Z</time>
      </trkpt>
      <trkpt lat="43.21441" lon="2.34757">
        <ele>115</ele>
        <time>2017-08-07T07:00:53Z</time>
      </trkpt>
      <trkpt lat="43.21448" lon="2.34764">
        <ele>114.5</ele>
        <time>2017-08-07T07:00:56Z</time>
      </trkpt>
      <trkpt lat="43.21457" lon="2.34768">
        <ele>113.300003</ele>
        <time>2017-08-07T07:00:59Z</time>
      </trkpt>
      <trkpt lat="43.21466" lon="2.34772">
        <ele>112.400002</ele>
        <time>2017-08-07T07:01:02Z</time>
      </trkpt>
      <trkpt lat="43.21477" lon="2.34782">
        <ele>111.300003</ele>
        <time>2017-08-07T07:01:06Z</time>
      </trkpt>
      <trkpt lat="43.21487" lon="2.34787">
        <ele>110.300003</ele>
        <time>2017-08-07T07:01:09Z</time>
      </trkpt>
      <trkpt lat="43.21499" lon="2.34793">
        <ele>110.900002</ele>
        <time>2017-08-07T07:01:14Z</time>
      </trkpt>
      <trkpt lat="43.2151" lon="2.34797">
        <ele>111.800003</ele>
        <time>2017-08-07T07:01:18Z</time>
      </trkpt>
      <trkpt lat="43.21518" lon="2.34792">
        <ele>112.199997</ele>
        <time>2017-08-07T07:01:25Z</time>
      </trkpt>
      <trkpt lat="43.21527" lon="2.34798">
        <ele>112.900002</ele>
        <time>2017-08-07T07:01:38Z</time>
      </trkpt>
      <trkpt lat="43.21538" lon="2.34806">
        <ele>114.099998</ele>
        <time>2017-08-07T07:01:42Z</time>
      </trkpt>
      <trkpt lat="43.21547" lon="2.34813">
        <ele>115</ele>
        <time>2017-08-07T07:01:45Z</time>
      </trkpt>
      <trkpt lat="43.21558" lon="2.34819">
        <ele>115.300003</ele>
        <time>2017-08-07T07:01:48Z</time>
      </trkpt>
      <trkpt lat="43.21568" lon="2.34825">
        <ele>115.199997</ele>
        <time>2017-08-07T07:01:51Z</time>
      </trkpt>
      <trkpt lat="43.21574" lon="2.34837">
        <ele>115.199997</ele>
        <time>2017-08-07T07:01:55Z</time>
      </trkpt>
      <trkpt lat="43.21579" lon="2.34825">
        <ele>114.699997</ele>
        <time>2017-08-07T07:02:09Z</time>
      </trkpt>
      <trkpt lat="43.21589" lon="2.34826">
        <ele>114.099998</ele>
        <time>2017-08-07T07:02:14Z</time>
      </trkpt>
      <trkpt lat="43.21597" lon="2.34832">
        <ele>113.300003</ele>
        <time>2017-08-07T07:02:17Z</time>
      </trkpt>
      <trkpt lat="43.21606" lon="2.34838">
        <ele>112.199997</ele>
        <time>2017-08-07T07:02:20Z</time>
      </trkpt>
      <trkpt lat="43.21615" lon="2.34844">
        <ele>111.400002</ele>
        <time>2017-08-07T07:02:23Z</time>
      </trkpt>
      <trkpt lat="43.21624" lon="2.3485">
        <ele>110.800003</ele>
        <time>2017-08-07T07:02:27Z</time>
      </trkpt>
      <trkpt lat="43.21635" lon="2.34858">
        <ele>110.199997</ele>
        <time>2017-08-07T07:02:31Z</time>
      </trkpt>
      <trkpt lat="43.21644" lon="2.3486">
        <ele>110.199997</ele>
        <time>2017-08-07T07:02:34Z</time>
      </trkpt>
      <trkpt lat="43.21655" lon="2.34856">
        <ele>110.800003</ele>
        <time>2017-08-07T07:02:38Z</time>
      </trkpt>
      <trkpt lat="43.21663" lon="2.34846">
        <ele>112</ele>
        <time>2017-08-07T07:02:44Z</time>
      </trkpt>
      <trkpt lat="43.21667" lon="2.34834">
        <ele>112.199997</ele>
        <time>2017-08-07T07:02:49Z</time>
      </trkpt>
      <trkpt lat="43.21671" lon="2.34822">
        <ele>112.599998</ele>
        <time>2017-08-07T07:02:57Z</time>
      </trkpt>
      <trkpt lat="43.21662" lon="2.34826">
        <ele>111.400002</ele>
        <time>2017-08-07T07:03:42Z</time>
      </trkpt>
      <trkpt lat="43.21656" lon="2.34839">
        <ele>111.099998</ele>
        <time>2017-08-07T07:03:47Z</time>
      </trkpt>
      <trkpt lat="43.21645" lon="2.34841">
        <ele>110.800003</ele>
        <time>2017-08-07T07:03:50Z</time>
      </trkpt>
      <trkpt lat="43.21636" lon="2.34834">
        <ele>110.599998</ele>
        <time>2017-08-07T07:03:53Z</time>
      </trkpt>
      <trkpt lat="43.21627" lon="2.34828">
        <ele>110.300003</ele>
        <time>2017-08-07T07:03:57Z</time>
      </trkpt>
      <trkpt lat="43.21618" lon="2.34826">
        <ele>111</ele>
        <time>2017-08-07T07:04:01Z</time>
      </trkpt>
      <trkpt lat="43.21609" lon="2.34822">
        <ele>112</ele>
        <time>2017-08-07T07:04:04Z</time>
      </trkpt>
      <trkpt lat="43.21601" lon="2.34815">
        <ele>113.400002</ele>
        <time>2017-08-07T07:04:07Z</time>
      </trkpt>
      <trkpt lat="43.21592" lon="2.34808">
        <ele>113.800003</ele>
        <time>2017-08-07T07:04:10Z</time>
      </trkpt>
      <trkpt lat="43.21584" lon="2.34802">
        <ele>113.099998</ele>
        <time>2017-08-07T07:04:13Z</time>
      </trkpt>
      <trkpt lat="43.21576" lon="2.34795">
        <ele>111.599998</ele>
        <time>2017-08-07T07:04:16Z</time>
      </trkpt>
      <trkpt lat="43.21567" lon="2.3479">
        <ele>110.300003</ele>
        <time>2017-08-07T07:04:19Z</time>
      </trkpt>
      <trkpt lat="43.21559" lon="2.34784">
        <ele>110.900002</ele>
        <time>2017-08-07T07:04:22Z</time>
      </trkpt>
      <trkpt lat="43.2155" lon="2.34778">
        <ele>111.900002</ele>
        <time>2017-08-07T07:04:25Z</time>
      </trkpt>
      <trkpt lat="43.21541" lon="2.34773">
        <ele>112.900002</ele>
        <time>2017-08-07T07:04:28Z</time>
      </trkpt>
      <trkpt lat="43.21531" lon="2.34767">
        <ele>112</ele>
        <time>2017-08-07T07:04:32Z</time>
      </trkpt>
      <trkpt lat="43.2152" lon="2.34764">
        <ele>110.800003</ele>
        <time>2017-08-07T07:04:35Z</time>
      </trkpt>
      <trkpt lat="43.2151" lon="2.34756">
        <ele>110.099998</ele>
        <time>2017-08-07T07:04:39Z</time>
      </trkpt>
      <trkpt lat="43.215" lon="2.34749">
        <ele>110.199997</ele>
        <time>2017-08-07T07:04:43Z</time>
      </trkpt>
      <trkpt lat="43.21491" lon="2.34743">
        <ele>110.199997</ele>
        <time>2017-08-07T07:04:47Z</time>
      </trkpt>
      <trkpt lat="43.21482" lon="2.34739">
        <ele>110.199997</ele>
        <time>2017-08-07T07:04:51Z</time>
      </trkpt>
      <trkpt lat="43.21474" lon="2.34733">
        <ele>110.099998</ele>
        <time>2017-08-07T07:04:54Z</time>
      </trkpt>
      <trkpt lat="43.21467" lon="2.34723">
        <ele>110.099998</ele>
        <time>2017-08-07T07:04:57Z</time>
      </trkpt>
      <trkpt lat="43.21459" lon="2.34712">
        <ele>110</ele>
        <time>2017-08-07T07:05:01Z</time>
      </trkpt>
      <trkpt lat="43.21453" lon="2.34698">
        <ele>111.099998</ele>
        <time>2017-08-07T07:05:05Z</time>
      </trkpt>
      <trkpt lat="43.21446" lon="2.34689">
        <ele>111.900002</ele>
        <time>2017-08-07T07:05:08Z</time>
      </trkpt>
      <trkpt lat="43.2144" lon="2.34679">
        <ele>112</ele>
        <time>2017-08-07T07:05:11Z</time>
      </trkpt>
      <trkpt lat="43.21435" lon="2.34667">
        <ele>111.300003</ele>
        <time>2017-08-07T07:05:14Z</time>
      </trkpt>
      <trkpt lat="43.21431" lon="2.34656">
        <ele>110.400002</ele>
        <time>2017-08-07T07:05:17Z</time>
      </trkpt>
      <trkpt lat="43.21427" lon="2.34644">
        <ele>110.099998</ele>
        <time>2017-08-07T07:05:20Z</time>
      </trkpt>
      <trkpt lat="43.21423" lon="2.3463">
        <ele>110.099998</ele>
        <time>2017-08-07T07:05:23Z</time>
      </trkpt>
      <trkpt lat="43.21421" lon="2.34617">
        <ele>110.199997</ele>
        <time>2017-08-07T07:05:26Z</time>
      </trkpt>
      <trkpt lat="43.21419" lon="2.34602">
        <ele>111</ele>
        <time>2017-08-07T07:05:30Z</time>
      </trkpt>
      <trkpt lat="43.21418" lon="2.34589">
        <ele>111.5</ele>
        <time>2017-08-07T07:05:33Z</time>
      </trkpt>
      <trkpt lat="43.21415" lon="2.34574">
        <ele>112</ele>
        <time>2017-08-07T07:05:37Z</time>
      </trkpt>
      <trkpt lat="43.21416" lon="2.34561">
        <ele>112.099998</ele>
        <time>2017-08-07T07:05:52Z</time>
      </trkpt>
      <trkpt lat="43.21416" lon="2.34547">
        <ele>112</ele>
        <time>2017-08-07T07:05:57Z</time>
      </trkpt>
      <trkpt lat="43.21416" lon="2.34534">
        <ele>111.699997</ele>
        <time>2017-08-07T07:06:00Z</time>
      </trkpt>
      <trkpt lat="43.21417" lon="2.34519">
        <ele>110.800003</ele>
        <time>2017-08-07T07:06:04Z</time>
      </trkpt>
      <trkpt lat="43.21426" lon="2.34514">
        <ele>110.199997</ele>
        <time>2017-08-07T07:06:35Z</time>
      </trkpt>
      <trkpt lat="43.21438" lon="2.34514">
        <ele>110.5</ele>
        <time>2017-08-07T07:06:39Z</time>
      </trkpt>
      <trkpt lat="43.21448" lon="2.34515">
        <ele>111.300003</ele>
        <time>2017-08-07T07:06:43Z</time>
      </trkpt>
      <trkpt lat="43.21454" lon="2.34504">
        <ele>111.400002</ele>
        <time>2017-08-07T07:06:55Z</time>
      </trkpt>
      <trkpt lat="43.21455" lon="2.34489">
        <ele>110.900002</ele>
        <time>2017-08-07T07:07:00Z</time>
      </trkpt>
      <trkpt lat="43.21456" lon="2.34476">
        <ele>110.099998</ele>
        <time>2017-08-07T07:07:09Z</time>
      </trkpt>
      <trkpt lat="43.21457" lon="2.34459">
        <ele>109.099998</ele>
        <time>2017-08-07T07:07:14Z</time>
      </trkpt>
      <trkpt lat="43.21457" lon="2.34445">
        <ele>108.900002</ele>
        <time>2017-08-07T07:07:17Z</time>
      </trkpt>
      <trkpt lat="43.21457" lon="2.34429">
        <ele>108.800003</ele>
        <time>2017-08-07T07:07:20Z</time>
      </trkpt>
      <trkpt lat="43.21457" lon="2.34412">
        <ele>108.300003</ele>
        <time>2017-08-07T07:07:23Z</time>
      </trkpt>
      <trkpt lat="43.21458" lon="2.34399">
        <ele>108</ele>
        <time>2017-08-07T07:07:25Z</time>
      </trkpt>
      <trkpt lat="43.21457" lon="2.34385">
        <ele>107.900002</ele>
        <time>2017-08-07T07:07:27Z</time>
      </trkpt>
      <trkpt lat="43.21459" lon="2.34366">
        <ele>108.300003</ele>
        <time>2017-08-07T07:07:30Z</time>
      </trkpt>
      <trkpt lat="43.21459" lon="2.34354">
        <ele>108.699997</ele>
        <time>2017-08-07T07:07:32Z</time>
      </trkpt>
      <trkpt lat="43.21459" lon="2.34341">
        <ele>109</ele>
        <time>2017-08-07T07:07:34Z</time>
      </trkpt>
      <trkpt lat="43.21459" lon="2.34325">
        <ele>109</ele>
        <time>2017-08-07T07:07:36Z</time>
      </trkpt>
      <trkpt lat="43.2146" lon="2.3431">
        <ele>109</ele>
        <time>2017-08-07T07:07:38Z</time>
      </trkpt>
      <trkpt lat="43.2146" lon="2.34294">
        <ele>109</ele>
        <time>2017-08-07T07:07:40Z</time>
      </trkpt>
      <trkpt lat="43.2146" lon="2.34278">
        <ele>108.599998</ele>
        <time>2017-08-07T07:07:42Z</time>
      </trkpt>
      <trkpt lat="43.2146" lon="2.34261">
        <ele>108</ele>
        <time>2017-08-07T07:07:44Z</time>
      </trkpt>
      <trkpt lat="43.21461" lon="2.34244">
        <ele>107.400002</ele>
        <time>2017-08-07T07:07:46Z</time>
      </trkpt>
      <trkpt lat="43.21462" lon="2.34225">
        <ele>106.699997</ele>
        <time>2017-08-07T07:07:48Z</time>
      </trkpt>
      <trkpt lat="43.21464" lon="2.3421">
        <ele>106.099998</ele>
        <time>2017-08-07T07:07:50Z</time>
      </trkpt>
      <trkpt lat="43.21466" lon="2.34194">
        <ele>105.199997</ele>
        <time>2017-08-07T07:07:52Z</time>
      </trkpt>
      <trkpt lat="43.2147" lon="2.34176">
        <ele>104.5</ele>
        <time>2017-08-07T07:07:54Z</time>
      </trkpt>
      <trkpt lat="43.21475" lon="2.34161">
        <ele>104.099998</ele>
        <time>2017-08-07T07:07:56Z</time>
      </trkpt>
      <trkpt lat="43.21479" lon="2.34148">
        <ele>104</ele>
        <time>2017-08-07T07:07:58Z</time>
      </trkpt>
      <trkpt lat="43.21483" lon="2.34135">
        <ele>104.099998</ele>
        <time>2017-08-07T07:08:00Z</time>
      </trkpt>
      <trkpt lat="43.21487" lon="2.34122">
        <ele>103.900002</ele>
        <time>2017-08-07T07:08:02Z</time>
      </trkpt>
      <trkpt lat="43.21493" lon="2.34106">
        <ele>103.099998</ele>
        <time>2017-08-07T07:08:05Z</time>
      </trkpt>
      <trkpt lat="43.21498" lon="2.34095">
        <ele>102.5</ele>
        <time>2017-08-07T07:08:07Z</time>
      </trkpt>
      <trkpt lat="43.21504" lon="2.34084">
        <ele>101.900002</ele>
        <time>2017-08-07T07:08:09Z</time>
      </trkpt>
      <trkpt lat="43.21508" lon="2.34072">
        <ele>100.900002</ele>
        <time>2017-08-07T07:08:11Z</time>
      </trkpt>
      <trkpt lat="43.21511" lon="2.34059">
        <ele>100.300003</ele>
        <time>2017-08-07T07:08:13Z</time>
      </trkpt>
      <trkpt lat="43.21517" lon="2.34043">
        <ele>100.400002</ele>
        <time>2017-08-07T07:08:16Z</time>
      </trkpt>
      <trkpt lat="43.21522" lon="2.34029">
        <ele>100.5</ele>
        <time>2017-08-07T07:08:18Z</time>
      </trkpt>
      <trkpt lat="43.21526" lon="2.34016">
        <ele>100.699997</ele>
        <time>2017-08-07T07:08:20Z</time>
      </trkpt>
      <trkpt lat="43.21529" lon="2.34003">
        <ele>100.800003</ele>
        <time>2017-08-07T07:08:22Z</time>
      </trkpt>
      <trkpt lat="43.21533" lon="2.3399">
        <ele>100.900002</ele>
        <time>2017-08-07T07:08:24Z</time>
      </trkpt>
      <trkpt lat="43.21538" lon="2.33976">
        <ele>100.599998</ele>
        <time>2017-08-07T07:08:26Z</time>
      </trkpt>
      <trkpt lat="43.21543" lon="2.33965">
        <ele>99.900002</ele>
        <time>2017-08-07T07:08:28Z</time>
      </trkpt>
      <trkpt lat="43.21548" lon="2.33953">
        <ele>99.599998</ele>
        <time>2017-08-07T07:08:30Z</time>
      </trkpt>
      <trkpt lat="43.21552" lon="2.33942">
        <ele>99.900002</ele>
        <time>2017-08-07T07:08:32Z</time>
      </trkpt>
      <trkpt lat="43.21556" lon="2.33929">
        <ele>100.400002</ele>
        <time>2017-08-07T07:08:34Z</time>
      </trkpt>
      <trkpt lat="43.21559" lon="2.33917">
        <ele>100.599998</ele>
        <time>2017-08-07T07:08:36Z</time>
      </trkpt>
      <trkpt lat="43.21562" lon="2.33905">
        <ele>100.699997</ele>
        <time>2017-08-07T07:08:38Z</time>
      </trkpt>
      <trkpt lat="43.21568" lon="2.33887">
        <ele>100.099998</ele>
        <time>2017-08-07T07:08:41Z</time>
      </trkpt>
      <trkpt lat="43.21573" lon="2.33875">
        <ele>99.400002</ele>
        <time>2017-08-07T07:08:43Z</time>
      </trkpt>
      <trkpt lat="43.21577" lon="2.33862">
        <ele>98.800003</ele>
        <time>2017-08-07T07:08:45Z</time>
      </trkpt>
      <trkpt lat="43.21582" lon="2.33845">
        <ele>98.099998</ele>
        <time>2017-08-07T07:08:48Z</time>
      </trkpt>
      <trkpt lat="43.21586" lon="2.33833">
        <ele>98</ele>
        <time>2017-08-07T07:08:50Z</time>
      </trkpt>
      <trkpt lat="43.2159" lon="2.33821">
        <ele>97.800003</ele>
        <time>2017-08-07T07:08:52Z</time>
      </trkpt>
      <trkpt lat="43.21593" lon="2.33808">
        <ele>98.400002</ele>
        <time>2017-08-07T07:08:54Z</time>
      </trkpt>
      <trkpt lat="43.21596" lon="2.33796">
        <ele>99.400002</ele>
        <time>2017-08-07T07:08:56Z</time>
      </trkpt>
      <trkpt lat="43.216" lon="2.33779">
        <ele>101.5</ele>
        <time>2017-08-07T07:08:59Z</time>
      </trkpt>
      <trkpt lat="43.21604" lon="2.33766">
        <ele>103.400002</ele>
        <time>2017-08-07T07:09:01Z</time>
      </trkpt>
      <trkpt lat="43.21609" lon="2.33751">
        <ele>105.400002</ele>
        <time>2017-08-07T07:09:04Z</time>
      </trkpt>
      <trkpt lat="43.21612" lon="2.33735">
        <ele>107</ele>
        <time>2017-08-07T07:09:07Z</time>
      </trkpt>
      <trkpt lat="43.2161" lon="2.33723">
        <ele>106.800003</ele>
        <time>2017-08-07T07:09:10Z</time>
      </trkpt>
      <trkpt lat="43.21614" lon="2.33709">
        <ele>107.599998</ele>
        <time>2017-08-07T07:09:13Z</time>
      </trkpt>
      <trkpt lat="43.21619" lon="2.33694">
        <ele>107.5</ele>
        <time>2017-08-07T07:09:17Z</time>
      </trkpt>
      <trkpt lat="43.21624" lon="2.33682">
        <ele>107.699997</ele>
        <time>2017-08-07T07:09:19Z</time>
      </trkpt>
      <trkpt lat="43.21629" lon="2.33671">
        <ele>107.900002</ele>
        <time>2017-08-07T07:09:22Z</time>
      </trkpt>
      <trkpt lat="43.21634" lon="2.33656">
        <ele>108</ele>
        <time>2017-08-07T07:09:26Z</time>
      </trkpt>
      <trkpt lat="43.21637" lon="2.33641">
        <ele>107.300003</ele>
        <time>2017-08-07T07:09:30Z</time>
      </trkpt>
      <trkpt lat="43.21641" lon="2.33627">
        <ele>107.199997</ele>
        <time>2017-08-07T07:09:33Z</time>
      </trkpt>
      <trkpt lat="43.21646" lon="2.33612">
        <ele>108.099998</ele>
        <time>2017-08-07T07:09:36Z</time>
      </trkpt>
      <trkpt lat="43.2165" lon="2.336">
        <ele>109.699997</ele>
        <time>2017-08-07T07:09:39Z</time>
      </trkpt>
      <trkpt lat="43.21654" lon="2.33585">
        <ele>109.5</ele>
        <time>2017-08-07T07:09:43Z</time>
      </trkpt>
      <trkpt lat="43.21659" lon="2.3357">
        <ele>108.099998</ele>
        <time>2017-08-07T07:09:46Z</time>
      </trkpt>
      <trkpt lat="43.21661" lon="2.33558">
        <ele>106.699997</ele>
        <time>2017-08-07T07:09:48Z</time>
      </trkpt>
      <trkpt lat="43.21665" lon="2.33544">
        <ele>104.900002</ele>
        <time>2017-08-07T07:09:51Z</time>
      </trkpt>
      <trkpt lat="43.2167" lon="2.33533">
        <ele>105.099998</ele>
        <time>2017-08-07T07:09:54Z</time>
      </trkpt>
      <trkpt lat="43.21677" lon="2.33526">
        <ele>106.199997</ele>
        <time>2017-08-07T07:10:44Z</time>
      </trkpt>
      <trkpt lat="43.21683" lon="2.33514">
        <ele>107.099998</ele>
        <time>2017-08-07T07:10:48Z</time>
      </trkpt>
      <trkpt lat="43.21687" lon="2.33501">
        <ele>108.099998</ele>
        <time>2017-08-07T07:10:51Z</time>
      </trkpt>
      <trkpt lat="43.2169" lon="2.33488">
        <ele>109.400002</ele>
        <time>2017-08-07T07:10:54Z</time>
      </trkpt>
      <trkpt lat="43.21693" lon="2.33474">
        <ele>110.400002</ele>
        <time>2017-08-07T07:10:57Z</time>
      </trkpt>
      <trkpt lat="43.21698" lon="2.3346">
        <ele>111.5</ele>
        <time>2017-08-07T07:11:01Z</time>
      </trkpt>
      <trkpt lat="43.21701" lon="2.33445">
        <ele>111.599998</ele>
        <time>2017-08-07T07:11:04Z</time>
      </trkpt>
      <trkpt lat="43.21705" lon="2.33431">
        <ele>111.5</ele>
        <time>2017-08-07T07:11:07Z</time>
      </trkpt>
      <trkpt lat="43.21711" lon="2.33419">
        <ele>110.5</ele>
        <time>2017-08-07T07:11:10Z</time>
      </trkpt>
      <trkpt lat="43.21717" lon="2.33407">
        <ele>110.199997</ele>
        <time>2017-08-07T07:11:13Z</time>
      </trkpt>
      <trkpt lat="43.21721" lon="2.33392">
        <ele>109.099998</ele>
        <time>2017-08-07T07:11:16Z</time>
      </trkpt>
      <trkpt lat="43.21723" lon="2.33375">
        <ele>106.900002</ele>
        <time>2017-08-07T07:11:19Z</time>
      </trkpt>
      <trkpt lat="43.21729" lon="2.3336">
        <ele>107</ele>
        <time>2017-08-07T07:11:22Z</time>
      </trkpt>
      <trkpt lat="43.21734" lon="2.33346">
        <ele>107.199997</ele>
        <time>2017-08-07T07:11:25Z</time>
      </trkpt>
      <trkpt lat="43.2174" lon="2.33332">
        <ele>107.400002</ele>
        <time>2017-08-07T07:11:28Z</time>
      </trkpt>
      <trkpt lat="43.21743" lon="2.33318">
        <ele>106.800003</ele>
        <time>2017-08-07T07:11:31Z</time>
      </trkpt>
      <trkpt lat="43.21747" lon="2.33302">
        <ele>106.900002</ele>
        <time>2017-08-07T07:11:34Z</time>
      </trkpt>
      <trkpt lat="43.21753" lon="2.33288">
        <ele>107.5</ele>
        <time>2017-08-07T07:11:37Z</time>
      </trkpt>
      <trkpt lat="43.2176" lon="2.33275">
        <ele>108.599998</ele>
        <time>2017-08-07T07:11:40Z</time>
      </trkpt>
      <trkpt lat="43.21763" lon="2.33262">
        <ele>108.599998</ele>
        <time>2017-08-07T07:11:43Z</time>
      </trkpt>
      <trkpt lat="43.21768" lon="2.33249">
        <ele>108.699997</ele>
        <time>2017-08-07T07:11:46Z</time>
      </trkpt>
      <trkpt lat="43.21772" lon="2.33233">
        <ele>108.599998</ele>
        <time>2017-08-07T07:11:49Z</time>
      </trkpt>
      <trkpt lat="43.21776" lon="2.3322">
        <ele>108.5</ele>
        <time>2017-08-07T07:11:52Z</time>
      </trkpt>
      <trkpt lat="43.21783" lon="2.3321">
        <ele>108.900002</ele>
        <time>2017-08-07T07:11:55Z</time>
      </trkpt>
      <trkpt lat="43.21786" lon="2.33195">
        <ele>107.099998</ele>
        <time>2017-08-07T07:11:58Z</time>
      </trkpt>
      <trkpt lat="43.2179" lon="2.3318">
        <ele>105.199997</ele>
        <time>2017-08-07T07:12:01Z</time>
      </trkpt>
      <trkpt lat="43.21795" lon="2.33169">
        <ele>103.800003</ele>
        <time>2017-08-07T07:12:03Z</time>
      </trkpt>
      <trkpt lat="43.21801" lon="2.33156">
        <ele>102.599998</ele>
        <time>2017-08-07T07:12:07Z</time>
      </trkpt>
      <trkpt lat="43.21808" lon="2.33146">
        <ele>102.099998</ele>
        <time>2017-08-07T07:12:10Z</time>
      </trkpt>
      <trkpt lat="43.21816" lon="2.33134">
        <ele>101.800003</ele>
        <time>2017-08-07T07:12:13Z</time>
      </trkpt>
      <trkpt lat="43.21823" lon="2.33123">
        <ele>101.400002</ele>
        <time>2017-08-07T07:12:16Z</time>
      </trkpt>
      <trkpt lat="43.21831" lon="2.33111">
        <ele>101.599998</ele>
        <time>2017-08-07T07:12:19Z</time>
      </trkpt>
      <trkpt lat="43.21839" lon="2.331">
        <ele>102</ele>
        <time>2017-08-07T07:12:22Z</time>
      </trkpt>
      <trkpt lat="43.21847" lon="2.33088">
        <ele>102.300003</ele>
        <time>2017-08-07T07:12:25Z</time>
      </trkpt>
      <trkpt lat="43.21855" lon="2.33078">
        <ele>103.099998</ele>
        <time>2017-08-07T07:12:28Z</time>
      </trkpt>
      <trkpt lat="43.21864" lon="2.33071">
        <ele>104.5</ele>
        <time>2017-08-07T07:12:31Z</time>
      </trkpt>
      <trkpt lat="43.21872" lon="2.33062">
        <ele>105.599998</ele>
        <time>2017-08-07T07:12:34Z</time>
      </trkpt>
      <trkpt lat="43.21881" lon="2.33055">
        <ele>106.300003</ele>
        <time>2017-08-07T07:12:37Z</time>
      </trkpt>
      <trkpt lat="43.21887" lon="2.33045">
        <ele>106.5</ele>
        <time>2017-08-07T07:12:40Z</time>
      </trkpt>
      <trkpt lat="43.21895" lon="2.33037">
        <ele>107.099998</ele>
        <time>2017-08-07T07:12:43Z</time>
      </trkpt>
      <trkpt lat="43.21907" lon="2.3303">
        <ele>108.099998</ele>
        <time>2017-08-07T07:12:46Z</time>
      </trkpt>
      <trkpt lat="43.21918" lon="2.33023">
        <ele>108.099998</ele>
        <time>2017-08-07T07:12:49Z</time>
      </trkpt>
      <trkpt lat="43.21927" lon="2.33013">
        <ele>107.699997</ele>
        <time>2017-08-07T07:12:52Z</time>
      </trkpt>
      <trkpt lat="43.21937" lon="2.33007">
        <ele>107.5</ele>
        <time>2017-08-07T07:12:55Z</time>
      </trkpt>
      <trkpt lat="43.21947" lon="2.32999">
        <ele>107.300003</ele>
        <time>2017-08-07T07:12:58Z</time>
      </trkpt>
      <trkpt lat="43.21956" lon="2.32989">
        <ele>107.099998</ele>
        <time>2017-08-07T07:13:01Z</time>
      </trkpt>
      <trkpt lat="43.21968" lon="2.32981">
        <ele>109</ele>
        <time>2017-08-07T07:13:04Z</time>
      </trkpt>
      <trkpt lat="43.21977" lon="2.32971">
        <ele>111.800003</ele>
        <time>2017-08-07T07:13:07Z</time>
      </trkpt>
      <trkpt lat="43.21988" lon="2.32959">
        <ele>115.699997</ele>
        <time>2017-08-07T07:13:10Z</time>
      </trkpt>
      <trkpt lat="43.21996" lon="2.32953">
        <ele>118.300003</ele>
        <time>2017-08-07T07:13:12Z</time>
      </trkpt>
      <trkpt lat="43.22005" lon="2.32944">
        <ele>122</ele>
        <time>2017-08-07T07:13:15Z</time>
      </trkpt>
      <trkpt lat="43.22012" lon="2.32935">
        <ele>126</ele>
        <time>2017-08-07T07:13:18Z</time>
      </trkpt>
      <trkpt lat="43.2202" lon="2.32926">
        <ele>127.599998</ele>
        <time>2017-08-07T07:13:21Z</time>
      </trkpt>
      <trkpt lat="43.22027" lon="2.32918">
        <ele>128.100006</ele>
        <time>2017-08-07T07:13:24Z</time>
      </trkpt>
      <trkpt lat="43.22036" lon="2.32909">
        <ele>129.300003</ele>
        <time>2017-08-07T07:13:27Z</time>
      </trkpt>
      <trkpt lat="43.22045" lon="2.32898">
        <ele>129.800003</ele>
        <time>2017-08-07T07:13:30Z</time>
      </trkpt>
      <trkpt lat="43.22051" lon="2.3289">
        <ele>127.199997</ele>
        <time>2017-08-07T07:13:33Z</time>
      </trkpt>
      <trkpt lat="43.2206" lon="2.32876">
        <ele>124.199997</ele>
        <time>2017-08-07T07:13:36Z</time>
      </trkpt>
      <trkpt lat="43.22068" lon="2.32865">
        <ele>121</ele>
        <time>2017-08-07T07:13:40Z</time>
      </trkpt>
      <trkpt lat="43.22076" lon="2.32855">
        <ele>119.199997</ele>
        <time>2017-08-07T07:13:43Z</time>
      </trkpt>
      <trkpt lat="43.22086" lon="2.32846">
        <ele>118.5</ele>
        <time>2017-08-07T07:13:47Z</time>
      </trkpt>
      <trkpt lat="43.22092" lon="2.32837">
        <ele>117.400002</ele>
        <time>2017-08-07T07:13:50Z</time>
      </trkpt>
      <trkpt lat="43.22099" lon="2.32827">
        <ele>116</ele>
        <time>2017-08-07T07:13:54Z</time>
      </trkpt>
      <trkpt lat="43.22105" lon="2.32814">
        <ele>113.699997</ele>
        <time>2017-08-07T07:13:58Z</time>
      </trkpt>
      <trkpt lat="43.22113" lon="2.32801">
        <ele>111.5</ele>
        <time>2017-08-07T07:14:02Z</time>
      </trkpt>
      <trkpt lat="43.22119" lon="2.32792">
        <ele>110.099998</ele>
        <time>2017-08-07T07:14:05Z</time>
      </trkpt>
      <trkpt lat="43.22126" lon="2.3278">
        <ele>107.900002</ele>
        <time>2017-08-07T07:14:09Z</time>
      </trkpt>
      <trkpt lat="43.22133" lon="2.3277">
        <ele>105.199997</ele>
        <time>2017-08-07T07:14:13Z</time>
      </trkpt>
      <trkpt lat="43.22139" lon="2.32761">
        <ele>103.400002</ele>
        <time>2017-08-07T07:14:16Z</time>
      </trkpt>
      <trkpt lat="43.22147" lon="2.32751">
        <ele>102.400002</ele>
        <time>2017-08-07T07:14:20Z</time>
      </trkpt>
      <trkpt lat="43.22154" lon="2.32741">
        <ele>102.099998</ele>
        <time>2017-08-07T07:14:23Z</time>
      </trkpt>
      <trkpt lat="43.22163" lon="2.32733">
        <ele>102.599998</ele>
        <time>2017-08-07T07:14:27Z</time>
      </trkpt>
      <trkpt lat="43.22171" lon="2.32724">
        <ele>102.800003</ele>
        <time>2017-08-07T07:14:31Z</time>
      </trkpt>
      <trkpt lat="43.22179" lon="2.32712">
        <ele>103</ele>
        <time>2017-08-07T07:14:35Z</time>
      </trkpt>
      <trkpt lat="43.22187" lon="2.327">
        <ele>103.599998</ele>
        <time>2017-08-07T07:14:39Z</time>
      </trkpt>
      <trkpt lat="43.22195" lon="2.3269">
        <ele>104</ele>
        <time>2017-08-07T07:14:43Z</time>
      </trkpt>
      <trkpt lat="43.22202" lon="2.32681">
        <ele>104</ele>
        <time>2017-08-07T07:14:47Z</time>
      </trkpt>
      <trkpt lat="43.22209" lon="2.32671">
        <ele>103.699997</ele>
        <time>2017-08-07T07:14:50Z</time>
      </trkpt>
      <trkpt lat="43.22217" lon="2.32659">
        <ele>103.599998</ele>
        <time>2017-08-07T07:14:54Z</time>
      </trkpt>
      <trkpt lat="43.22224" lon="2.3265">
        <ele>103.300003</ele>
        <time>2017-08-07T07:14:57Z</time>
      </trkpt>
      <trkpt lat="43.22233" lon="2.32638">
        <ele>102.699997</ele>
        <time>2017-08-07T07:15:01Z</time>
      </trkpt>
      <trkpt lat="43.22238" lon="2.32627">
        <ele>102.300003</ele>
        <time>2017-08-07T07:15:05Z</time>
      </trkpt>
      <trkpt lat="43.22246" lon="2.32617">
        <ele>101.699997</ele>
        <time>2017-08-07T07:15:08Z</time>
      </trkpt>
      <trkpt lat="43.22254" lon="2.32608">
        <ele>101.400002</ele>
        <time>2017-08-07T07:15:12Z</time>
      </trkpt>
      <trkpt lat="43.22262" lon="2.32598">
        <ele>101.599998</ele>
        <time>2017-08-07T07:15:15Z</time>
      </trkpt>
      <trkpt lat="43.22269" lon="2.32591">
        <ele>101.599998</ele>
        <time>2017-08-07T07:15:18Z</time>
      </trkpt>
      <trkpt lat="43.22277" lon="2.32583">
        <ele>101</ele>
        <time>2017-08-07T07:15:22Z</time>
      </trkpt>
      <trkpt lat="43.22285" lon="2.32572">
        <ele>100</ele>
        <time>2017-08-07T07:15:25Z</time>
      </trkpt>
      <trkpt lat="43.22295" lon="2.32565">
        <ele>100</ele>
        <time>2017-08-07T07:15:29Z</time>
      </trkpt>
      <trkpt lat="43.22304" lon="2.32556">
        <ele>100.400002</ele>
        <time>2017-08-07T07:15:33Z</time>
      </trkpt>
      <trkpt lat="43.22312" lon="2.32547">
        <ele>100.400002</ele>
        <time>2017-08-07T07:15:37Z</time>
      </trkpt>
      <trkpt lat="43.22322" lon="2.32542">
        <ele>101.699997</ele>
        <time>2017-08-07T07:15:41Z</time>
      </trkpt>
      <trkpt lat="43.22332" lon="2.32535">
        <ele>103.599998</ele>
        <time>2017-08-07T07:15:45Z</time>
      </trkpt>
      <trkpt lat="43.22342" lon="2.32532">
        <ele>105.699997</ele>
        <time>2017-08-07T07:15:49Z</time>
      </trkpt>
      <trkpt lat="43.2235" lon="2.32527">
        <ele>107.099998</ele>
        <time>2017-08-07T07:15:52Z</time>
      </trkpt>
      <trkpt lat="43.22361" lon="2.32523">
        <ele>107.699997</ele>
        <time>2017-08-07T07:15:56Z</time>
      </trkpt>
      <trkpt lat="43.22372" lon="2.32519">
        <ele>108.300003</ele>
        <time>2017-08-07T07:16:00Z</time>
      </trkpt>
      <trkpt lat="43.22383" lon="2.32516">
        <ele>107.599998</ele>
        <time>2017-08-07T07:16:04Z</time>
      </trkpt>
      <trkpt lat="43.22393" lon="2.32512">
        <ele>106.099998</ele>
        <time>2017-08-07T07:16:08Z</time>
      </trkpt>
      <trkpt lat="43.22403" lon="2.32511">
        <ele>105.099998</ele>
        <time>2017-08-07T07:16:11Z</time>
      </trkpt>
      <trkpt lat="43.22414" lon="2.32511">
        <ele>105.800003</ele>
        <time>2017-08-07T07:16:15Z</time>
      </trkpt>
      <trkpt lat="43.22425" lon="2.32511">
        <ele>106.800003</ele>
        <time>2017-08-07T07:16:19Z</time>
      </trkpt>
      <trkpt lat="43.22437" lon="2.3251">
        <ele>108</ele>
        <time>2017-08-07T07:16:23Z</time>
      </trkpt>
      <trkpt lat="43.22448" lon="2.3251">
        <ele>109.5</ele>
        <time>2017-08-07T07:16:26Z</time>
      </trkpt>
      <trkpt lat="43.22459" lon="2.3251">
        <ele>111.099998</ele>
        <time>2017-08-07T07:16:30Z</time>
      </trkpt>
      <trkpt lat="43.2247" lon="2.32509">
        <ele>110.5</ele>
        <time>2017-08-07T07:16:33Z</time>
      </trkpt>
      <trkpt lat="43.22479" lon="2.32508">
        <ele>110.199997</ele>
        <time>2017-08-07T07:16:36Z</time>
      </trkpt>
      <trkpt lat="43.2249" lon="2.32505">
        <ele>109.800003</ele>
        <time>2017-08-07T07:16:39Z</time>
      </trkpt>
      <trkpt lat="43.22499" lon="2.32504">
        <ele>109</ele>
        <time>2017-08-07T07:16:42Z</time>
      </trkpt>
      <trkpt lat="43.22511" lon="2.325">
        <ele>107.900002</ele>
        <time>2017-08-07T07:16:46Z</time>
      </trkpt>
      <trkpt lat="43.22522" lon="2.32495">
        <ele>106.900002</ele>
        <time>2017-08-07T07:16:49Z</time>
      </trkpt>
      <trkpt lat="43.22532" lon="2.32491">
        <ele>106</ele>
        <time>2017-08-07T07:16:52Z</time>
      </trkpt>
      <trkpt lat="43.22544" lon="2.32485">
        <ele>105.099998</ele>
        <time>2017-08-07T07:16:56Z</time>
      </trkpt>
      <trkpt lat="43.22553" lon="2.32481">
        <ele>105</ele>
        <time>2017-08-07T07:16:59Z</time>
      </trkpt>
      <trkpt lat="43.22563" lon="2.32474">
        <ele>104.800003</ele>
        <time>2017-08-07T07:17:02Z</time>
      </trkpt>
      <trkpt lat="43.22574" lon="2.32468">
        <ele>104.300003</ele>
        <time>2017-08-07T07:17:05Z</time>
      </trkpt>
      <trkpt lat="43.22584" lon="2.32463">
        <ele>103.900002</ele>
        <time>2017-08-07T07:17:08Z</time>
      </trkpt>
      <trkpt lat="43.22594" lon="2.32453">
        <ele>103.199997</ele>
        <time>2017-08-07T07:17:11Z</time>
      </trkpt>
      <trkpt lat="43.22603" lon="2.32444">
        <ele>103.300003</ele>
        <time>2017-08-07T07:17:14Z</time>
      </trkpt>
      <trkpt lat="43.22613" lon="2.32435">
        <ele>103.599998</ele>
        <time>2017-08-07T07:17:17Z</time>
      </trkpt>
      <trkpt lat="43.22622" lon="2.32428">
        <ele>103.900002</ele>
        <time>2017-08-07T07:17:20Z</time>
      </trkpt>
      <trkpt lat="43.22631" lon="2.32419">
        <ele>104.400002</ele>
        <time>2017-08-07T07:17:23Z</time>
      </trkpt>
      <trkpt lat="43.22641" lon="2.3241">
        <ele>105.099998</ele>
        <time>2017-08-07T07:17:26Z</time>
      </trkpt>
      <trkpt lat="43.2265" lon="2.324">
        <ele>105.699997</ele>
        <time>2017-08-07T07:17:29Z</time>
      </trkpt>
      <trkpt lat="43.22657" lon="2.3239">
        <ele>105.800003</ele>
        <time>2017-08-07T07:17:32Z</time>
      </trkpt>
      <trkpt lat="43.22663" lon="2.32377">
        <ele>105.800003</ele>
        <time>2017-08-07T07:17:35Z</time>
      </trkpt>
      <trkpt lat="43.22671" lon="2.32364">
        <ele>106.199997</ele>
        <time>2017-08-07T07:17:38Z</time>
      </trkpt>
      <trkpt lat="43.22679" lon="2.32352">
        <ele>106.800003</ele>
        <time>2017-08-07T07:17:41Z</time>
      </trkpt>
      <trkpt lat="43.22686" lon="2.32338">
        <ele>106.900002</ele>
        <time>2017-08-07T07:17:44Z</time>
      </trkpt>
      <trkpt lat="43.22689" lon="2.32325">
        <ele>106.800003</ele>
        <time>2017-08-07T07:17:47Z</time>
      </trkpt>
      <trkpt lat="43.22693" lon="2.32313">
        <ele>106.599998</ele>
        <time>2017-08-07T07:17:50Z</time>
      </trkpt>
      <trkpt lat="43.22698" lon="2.32302">
        <ele>106.400002</ele>
        <time>2017-08-07T07:17:53Z</time>
      </trkpt>
      <trkpt lat="43.22697" lon="2.3229">
        <ele>106.400002</ele>
        <time>2017-08-07T07:17:55Z</time>
      </trkpt>
      <trkpt lat="43.22702" lon="2.32278">
        <ele>106.599998</ele>
        <time>2017-08-07T07:17:58Z</time>
      </trkpt>
      <trkpt lat="43.22708" lon="2.32265">
        <ele>106.900002</ele>
        <time>2017-08-07T07:18:02Z</time>
      </trkpt>
      <trkpt lat="43.22715" lon="2.32252">
        <ele>106.5</ele>
        <time>2017-08-07T07:18:06Z</time>
      </trkpt>
      <trkpt lat="43.22716" lon="2.3224">
        <ele>106.099998</ele>
        <time>2017-08-07T07:18:09Z</time>
      </trkpt>
      <trkpt lat="43.2272" lon="2.32227">
        <ele>106</ele>
        <time>2017-08-07T07:18:12Z</time>
      </trkpt>
      <trkpt lat="43.22724" lon="2.32211">
        <ele>106</ele>
        <time>2017-08-07T07:18:15Z</time>
      </trkpt>
      <trkpt lat="43.22728" lon="2.32197">
        <ele>105.900002</ele>
        <time>2017-08-07T07:18:18Z</time>
      </trkpt>
      <trkpt lat="43.22729" lon="2.32185">
        <ele>105.800003</ele>
        <time>2017-08-07T07:18:22Z</time>
      </trkpt>
      <trkpt lat="43.22731" lon="2.32172">
        <ele>105.5</ele>
        <time>2017-08-07T07:18:25Z</time>
      </trkpt>
      <trkpt lat="43.22732" lon="2.32157">
        <ele>104.900002</ele>
        <time>2017-08-07T07:18:28Z</time>
      </trkpt>
      <trkpt lat="43.22733" lon="2.3214">
        <ele>104.800003</ele>
        <time>2017-08-07T07:18:32Z</time>
      </trkpt>
      <trkpt lat="43.22735" lon="2.32125">
        <ele>104.900002</ele>
        <time>2017-08-07T07:18:35Z</time>
      </trkpt>
      <trkpt lat="43.22735" lon="2.32111">
        <ele>104.900002</ele>
        <time>2017-08-07T07:18:37Z</time>
      </trkpt>
      <trkpt lat="43.22735" lon="2.32097">
        <ele>104.900002</ele>
        <time>2017-08-07T07:18:39Z</time>
      </trkpt>
      <trkpt lat="43.22735" lon="2.32081">
        <ele>105.400002</ele>
        <time>2017-08-07T07:18:42Z</time>
      </trkpt>
      <trkpt lat="43.22734" lon="2.32068">
        <ele>105.900002</ele>
        <time>2017-08-07T07:18:44Z</time>
      </trkpt>
      <trkpt lat="43.22733" lon="2.32052">
        <ele>106.900002</ele>
        <time>2017-08-07T07:18:48Z</time>
      </trkpt>
      <trkpt lat="43.22733" lon="2.32037">
        <ele>107.900002</ele>
        <time>2017-08-07T07:18:51Z</time>
      </trkpt>
      <trkpt lat="43.22731" lon="2.32022">
        <ele>108.5</ele>
        <time>2017-08-07T07:18:54Z</time>
      </trkpt>
      <trkpt lat="43.2273" lon="2.32006">
        <ele>109.5</ele>
        <time>2017-08-07T07:18:57Z</time>
      </trkpt>
      <trkpt lat="43.2273" lon="2.31991">
        <ele>110.900002</ele>
        <time>2017-08-07T07:19:00Z</time>
      </trkpt>
      <trkpt lat="43.22729" lon="2.31972">
        <ele>112.800003</ele>
        <time>2017-08-07T07:19:03Z</time>
      </trkpt>
      <trkpt lat="43.22728" lon="2.31956">
        <ele>114.400002</ele>
        <time>2017-08-07T07:19:06Z</time>
      </trkpt>
      <trkpt lat="43.22727" lon="2.3194">
        <ele>114.199997</ele>
        <time>2017-08-07T07:19:09Z</time>
      </trkpt>
      <trkpt lat="43.22726" lon="2.31924">
        <ele>113.599998</ele>
        <time>2017-08-07T07:19:12Z</time>
      </trkpt>
      <trkpt lat="43.22726" lon="2.31912">
        <ele>112.5</ele>
        <time>2017-08-07T07:19:14Z</time>
      </trkpt>
      <trkpt lat="43.22724" lon="2.31897">
        <ele>111.300003</ele>
        <time>2017-08-07T07:19:17Z</time>
      </trkpt>
      <trkpt lat="43.22722" lon="2.31881">
        <ele>110.199997</ele>
        <time>2017-08-07T07:19:20Z</time>
      </trkpt>
      <trkpt lat="43.22722" lon="2.31865">
        <ele>108</ele>
        <time>2017-08-07T07:19:23Z</time>
      </trkpt>
      <trkpt lat="43.2272" lon="2.31851">
        <ele>105.599998</ele>
        <time>2017-08-07T07:19:26Z</time>
      </trkpt>
      <trkpt lat="43.22722" lon="2.31835">
        <ele>103.400002</ele>
        <time>2017-08-07T07:19:29Z</time>
      </trkpt>
      <trkpt lat="43.2272" lon="2.31819">
        <ele>101.599998</ele>
        <time>2017-08-07T07:19:32Z</time>
      </trkpt>
      <trkpt lat="43.2272" lon="2.31803">
        <ele>100.599998</ele>
        <time>2017-08-07T07:19:35Z</time>
      </trkpt>
      <trkpt lat="43.22718" lon="2.31789">
        <ele>99.699997</ele>
        <time>2017-08-07T07:19:38Z</time>
      </trkpt>
      <trkpt lat="43.22718" lon="2.31776">
        <ele>98.699997</ele>
        <time>2017-08-07T07:19:40Z</time>
      </trkpt>
      <trkpt lat="43.22716" lon="2.31759">
        <ele>97.599998</ele>
        <time>2017-08-07T07:19:43Z</time>
      </trkpt>
      <trkpt lat="43.2271" lon="2.31744">
        <ele>97.5</ele>
        <time>2017-08-07T07:19:46Z</time>
      </trkpt>
      <trkpt lat="43.22705" lon="2.31728">
        <ele>98.300003</ele>
        <time>2017-08-07T07:19:49Z</time>
      </trkpt>
      <trkpt lat="43.22697" lon="2.31718">
        <ele>99.199997</ele>
        <time>2017-08-07T07:19:52Z</time>
      </trkpt>
      <trkpt lat="43.22687" lon="2.3171">
        <ele>100.199997</ele>
        <time>2017-08-07T07:19:55Z</time>
      </trkpt>
      <trkpt lat="43.22678" lon="2.31703">
        <ele>101</ele>
        <time>2017-08-07T07:19:58Z</time>
      </trkpt>
      <trkpt lat="43.22667" lon="2.31697">
        <ele>102.800003</ele>
        <time>2017-08-07T07:20:01Z</time>
      </trkpt>
      <trkpt lat="43.22657" lon="2.31692">
        <ele>104.800003</ele>
        <time>2017-08-07T07:20:04Z</time>
      </trkpt>
      <trkpt lat="43.22645" lon="2.31687">
        <ele>106.400002</ele>
        <time>2017-08-07T07:20:07Z</time>
      </trkpt>
      <trkpt lat="43.22635" lon="2.31679">
        <ele>107.199997</ele>
        <time>2017-08-07T07:20:10Z</time>
      </trkpt>
      <trkpt lat="43.22626" lon="2.31667">
        <ele>107.900002</ele>
        <time>2017-08-07T07:20:13Z</time>
      </trkpt>
      <trkpt lat="43.2262" lon="2.31652">
        <ele>107.800003</ele>
        <time>2017-08-07T07:20:16Z</time>
      </trkpt>
      <trkpt lat="43.22616" lon="2.31638">
        <ele>107.5</ele>
        <time>2017-08-07T07:20:19Z</time>
      </trkpt>
      <trkpt lat="43.22613" lon="2.31626">
        <ele>107.199997</ele>
        <time>2017-08-07T07:20:21Z</time>
      </trkpt>
      <trkpt lat="43.2261" lon="2.31611">
        <ele>106.800003</ele>
        <time>2017-08-07T07:20:24Z</time>
      </trkpt>
      <trkpt lat="43.22611" lon="2.31596">
        <ele>106.5</ele>
        <time>2017-08-07T07:20:27Z</time>
      </trkpt>
      <trkpt lat="43.22611" lon="2.31582">
        <ele>106.5</ele>
        <time>2017-08-07T07:20:30Z</time>
      </trkpt>
      <trkpt lat="43.22611" lon="2.31569">
        <ele>106.5</ele>
        <time>2017-08-07T07:20:33Z</time>
      </trkpt>
      <trkpt lat="43.22611" lon="2.31556">
        <ele>106.5</ele>
        <time>2017-08-07T07:20:35Z</time>
      </trkpt>
      <trkpt lat="43.22611" lon="2.31537">
        <ele>106.400002</ele>
        <time>2017-08-07T07:20:38Z</time>
      </trkpt>
      <trkpt lat="43.22611" lon="2.31523">
        <ele>105.900002</ele>
        <time>2017-08-07T07:20:41Z</time>
      </trkpt>
      <trkpt lat="43.22612" lon="2.31506">
        <ele>105.5</ele>
        <time>2017-08-07T07:20:44Z</time>
      </trkpt>
      <trkpt lat="43.22613" lon="2.31489">
        <ele>105.199997</ele>
        <time>2017-08-07T07:20:47Z</time>
      </trkpt>
      <trkpt lat="43.22614" lon="2.31473">
        <ele>105.199997</ele>
        <time>2017-08-07T07:20:50Z</time>
      </trkpt>
      <trkpt lat="43.22614" lon="2.31459">
        <ele>105.199997</ele>
        <time>2017-08-07T07:20:52Z</time>
      </trkpt>
      <trkpt lat="43.22615" lon="2.31443">
        <ele>105</ele>
        <time>2017-08-07T07:20:55Z</time>
      </trkpt>
      <trkpt lat="43.22616" lon="2.31428">
        <ele>104.800003</ele>
        <time>2017-08-07T07:20:58Z</time>
      </trkpt>
      <trkpt lat="43.22617" lon="2.31414">
        <ele>105.599998</ele>
        <time>2017-08-07T07:21:01Z</time>
      </trkpt>
      <trkpt lat="43.22617" lon="2.314">
        <ele>106.400002</ele>
        <time>2017-08-07T07:21:04Z</time>
      </trkpt>
      <trkpt lat="43.22616" lon="2.31382">
        <ele>106.599998</ele>
        <time>2017-08-07T07:21:07Z</time>
      </trkpt>
      <trkpt lat="43.22616" lon="2.31368">
        <ele>106.900002</ele>
        <time>2017-08-07T07:21:10Z</time>
      </trkpt>
      <trkpt lat="43.22617" lon="2.31352">
        <ele>107.5</ele>
        <time>2017-08-07T07:21:13Z</time>
      </trkpt>
      <trkpt lat="43.22621" lon="2.31337">
        <ele>107.599998</ele>
        <time>2017-08-07T07:21:16Z</time>
      </trkpt>
      <trkpt lat="43.22625" lon="2.31323">
        <ele>107.199997</ele>
        <time>2017-08-07T07:21:19Z</time>
      </trkpt>
      <trkpt lat="43.22631" lon="2.31308">
        <ele>107.300003</ele>
        <time>2017-08-07T07:21:22Z</time>
      </trkpt>
      <trkpt lat="43.22636" lon="2.31294">
        <ele>107.400002</ele>
        <time>2017-08-07T07:21:25Z</time>
      </trkpt>
      <trkpt lat="43.22643" lon="2.3128">
        <ele>107.400002</ele>
        <time>2017-08-07T07:21:28Z</time>
      </trkpt>
      <trkpt lat="43.22649" lon="2.31267">
        <ele>107.099998</ele>
        <time>2017-08-07T07:21:31Z</time>
      </trkpt>
      <trkpt lat="43.22654" lon="2.31255">
        <ele>107</ele>
        <time>2017-08-07T07:21:34Z</time>
      </trkpt>
      <trkpt lat="43.2266" lon="2.31241">
        <ele>107</ele>
        <time>2017-08-07T07:21:37Z</time>
      </trkpt>
      <trkpt lat="43.22666" lon="2.31228">
        <ele>107</ele>
        <time>2017-08-07T07:21:40Z</time>
      </trkpt>
      <trkpt lat="43.22669" lon="2.31214">
        <ele>107</ele>
        <time>2017-08-07T07:21:43Z</time>
      </trkpt>
      <trkpt lat="43.22673" lon="2.31202">
        <ele>107</ele>
        <time>2017-08-07T07:21:46Z</time>
      </trkpt>
      <trkpt lat="43.22677" lon="2.31187">
        <ele>107</ele>
        <time>2017-08-07T07:21:49Z</time>
      </trkpt>
      <trkpt lat="43.2268" lon="2.31174">
        <ele>107</ele>
        <time>2017-08-07T07:21:52Z</time>
      </trkpt>
      <trkpt lat="43.22683" lon="2.3116">
        <ele>107</ele>
        <time>2017-08-07T07:21:55Z</time>
      </trkpt>
      <trkpt lat="43.22684" lon="2.31146">
        <ele>107</ele>
        <time>2017-08-07T07:21:58Z</time>
      </trkpt>
      <trkpt lat="43.22685" lon="2.31132">
        <ele>106.900002</ele>
        <time>2017-08-07T07:22:01Z</time>
      </trkpt>
      <trkpt lat="43.22686" lon="2.31119">
        <ele>106.800003</ele>
        <time>2017-08-07T07:22:04Z</time>
      </trkpt>
      <trkpt lat="43.22685" lon="2.31106">
        <ele>106.800003</ele>
        <time>2017-08-07T07:22:07Z</time>
      </trkpt>
      <trkpt lat="43.22683" lon="2.31091">
        <ele>107.099998</ele>
        <time>2017-08-07T07:22:10Z</time>
      </trkpt>
      <trkpt lat="43.22683" lon="2.31076">
        <ele>107.599998</ele>
        <time>2017-08-07T07:22:13Z</time>
      </trkpt>
      <trkpt lat="43.22682" lon="2.31063">
        <ele>107.900002</ele>
        <time>2017-08-07T07:22:16Z</time>
      </trkpt>
      <trkpt lat="43.22681" lon="2.31047">
        <ele>108</ele>
        <time>2017-08-07T07:22:20Z</time>
      </trkpt>
      <trkpt lat="43.22678" lon="2.31032">
        <ele>108</ele>
        <time>2017-08-07T07:22:23Z</time>
      </trkpt>
      <trkpt lat="43.22678" lon="2.31016">
        <ele>108</ele>
        <time>2017-08-07T07:22:26Z</time>
      </trkpt>
      <trkpt lat="43.22676" lon="2.31001">
        <ele>108.099998</ele>
        <time>2017-08-07T07:22:29Z</time>
      </trkpt>
      <trkpt lat="43.22673" lon="2.30985">
        <ele>108.300003</ele>
        <time>2017-08-07T07:22:32Z</time>
      </trkpt>
      <trkpt lat="43.22671" lon="2.30972">
        <ele>109.199997</ele>
        <time>2017-08-07T07:22:35Z</time>
      </trkpt>
      <trkpt lat="43.22668" lon="2.30958">
        <ele>110.300003</ele>
        <time>2017-08-07T07:22:38Z</time>
      </trkpt>
      <trkpt lat="43.22666" lon="2.30944">
        <ele>110.5</ele>
        <time>2017-08-07T07:22:41Z</time>
      </trkpt>
      <trkpt lat="43.22664" lon="2.3093">
        <ele>110.599998</ele>
        <time>2017-08-07T07:22:44Z</time>
      </trkpt>
      <trkpt lat="43.22663" lon="2.30917">
        <ele>111.199997</ele>
        <time>2017-08-07T07:22:47Z</time>
      </trkpt>
      <trkpt lat="43.22662" lon="2.30902">
        <ele>112</ele>
        <time>2017-08-07T07:22:50Z</time>
      </trkpt>
      <trkpt lat="43.22661" lon="2.30886">
        <ele>112.599998</ele>
        <time>2017-08-07T07:22:53Z</time>
      </trkpt>
      <trkpt lat="43.22663" lon="2.3087">
        <ele>113</ele>
        <time>2017-08-07T07:22:56Z</time>
      </trkpt>
      <trkpt lat="43.22667" lon="2.30855">
        <ele>113.300003</ele>
        <time>2017-08-07T07:22:59Z</time>
      </trkpt>
      <trkpt lat="43.2267" lon="2.30843">
        <ele>113.599998</ele>
        <time>2017-08-07T07:23:02Z</time>
      </trkpt>
      <trkpt lat="43.22676" lon="2.30831">
        <ele>114.099998</ele>
        <time>2017-08-07T07:23:05Z</time>
      </trkpt>
      <trkpt lat="43.22681" lon="2.3082">
        <ele>114.900002</ele>
        <time>2017-08-07T07:23:08Z</time>
      </trkpt>
      <trkpt lat="43.22688" lon="2.30809">
        <ele>115.699997</ele>
        <time>2017-08-07T07:23:11Z</time>
      </trkpt>
      <trkpt lat="43.22693" lon="2.30798">
        <ele>116.5</ele>
        <time>2017-08-07T07:23:14Z</time>
      </trkpt>
      <trkpt lat="43.22701" lon="2.30788">
        <ele>117</ele>
        <time>2017-08-07T07:23:17Z</time>
      </trkpt>
      <trkpt lat="43.22708" lon="2.30775">
        <ele>117.5</ele>
        <time>2017-08-07T07:23:20Z</time>
      </trkpt>
      <trkpt lat="43.22714" lon="2.30763">
        <ele>118.300003</ele>
        <time>2017-08-07T07:23:23Z</time>
      </trkpt>
      <trkpt lat="43.22718" lon="2.3075">
        <ele>119.099998</ele>
        <time>2017-08-07T07:23:26Z</time>
      </trkpt>
      <trkpt lat="43.22725" lon="2.30739">
        <ele>119.400002</ele>
        <time>2017-08-07T07:23:29Z</time>
      </trkpt>
      <trkpt lat="43.22731" lon="2.30724">
        <ele>119.400002</ele>
        <time>2017-08-07T07:23:32Z</time>
      </trkpt>
      <trkpt lat="43.22736" lon="2.30711">
        <ele>119.800003</ele>
        <time>2017-08-07T07:23:35Z</time>
      </trkpt>
      <trkpt lat="43.22742" lon="2.30699">
        <ele>119.300003</ele>
        <time>2017-08-07T07:23:38Z</time>
      </trkpt>
      <trkpt lat="43.22749" lon="2.30686">
        <ele>118.300003</ele>
        <time>2017-08-07T07:23:41Z</time>
      </trkpt>
      <trkpt lat="43.22755" lon="2.30674">
        <ele>117.5</ele>
        <time>2017-08-07T07:23:44Z</time>
      </trkpt>
      <trkpt lat="43.22761" lon="2.30659">
        <ele>118</ele>
        <time>2017-08-07T07:23:47Z</time>
      </trkpt>
      <trkpt lat="43.22764" lon="2.30647">
        <ele>118.800003</ele>
        <time>2017-08-07T07:23:50Z</time>
      </trkpt>
      <trkpt lat="43.2277" lon="2.30632">
        <ele>117.800003</ele>
        <time>2017-08-07T07:23:53Z</time>
      </trkpt>
      <trkpt lat="43.22776" lon="2.30616">
        <ele>116.199997</ele>
        <time>2017-08-07T07:23:56Z</time>
      </trkpt>
      <trkpt lat="43.2278" lon="2.30601">
        <ele>114.099998</ele>
        <time>2017-08-07T07:23:59Z</time>
      </trkpt>
      <trkpt lat="43.22784" lon="2.30588">
        <ele>113.400002</ele>
        <time>2017-08-07T07:24:02Z</time>
      </trkpt>
      <trkpt lat="43.2279" lon="2.30574">
        <ele>113.599998</ele>
        <time>2017-08-07T07:24:05Z</time>
      </trkpt>
      <trkpt lat="43.22794" lon="2.30561">
        <ele>114.199997</ele>
        <time>2017-08-07T07:24:08Z</time>
      </trkpt>
      <trkpt lat="43.22798" lon="2.30547">
        <ele>114.599998</ele>
        <time>2017-08-07T07:24:11Z</time>
      </trkpt>
      <trkpt lat="43.22804" lon="2.30531">
        <ele>114.599998</ele>
        <time>2017-08-07T07:24:14Z</time>
      </trkpt>
      <trkpt lat="43.2281" lon="2.30518">
        <ele>114.400002</ele>
        <time>2017-08-07T07:24:17Z</time>
      </trkpt>
      <trkpt lat="43.22815" lon="2.30503">
        <ele>113.699997</ele>
        <time>2017-08-07T07:24:20Z</time>
      </trkpt>
      <trkpt lat="43.22821" lon="2.30489">
        <ele>113.199997</ele>
        <time>2017-08-07T07:24:23Z</time>
      </trkpt>
      <trkpt lat="43.22826" lon="2.30476">
        <ele>113.400002</ele>
        <time>2017-08-07T07:24:26Z</time>
      </trkpt>
      <trkpt lat="43.22829" lon="2.30464">
        <ele>113.599998</ele>
        <time>2017-08-07T07:24:29Z</time>
      </trkpt>
      <trkpt lat="43.22835" lon="2.30449">
        <ele>113.5</ele>
        <time>2017-08-07T07:24:32Z</time>
      </trkpt>
      <trkpt lat="43.22841" lon="2.30437">
        <ele>113.199997</ele>
        <time>2017-08-07T07:24:35Z</time>
      </trkpt>
      <trkpt lat="43.22846" lon="2.30423">
        <ele>113.300003</ele>
        <time>2017-08-07T07:24:38Z</time>
      </trkpt>
      <trkpt lat="43.22851" lon="2.30407">
        <ele>113.599998</ele>
        <time>2017-08-07T07:24:41Z</time>
      </trkpt>
      <trkpt lat="43.22856" lon="2.30393">
        <ele>113.099998</ele>
        <time>2017-08-07T07:24:44Z</time>
      </trkpt>
      <trkpt lat="43.22858" lon="2.30379">
        <ele>112.5</ele>
        <time>2017-08-07T07:24:47Z</time>
      </trkpt>
      <trkpt lat="43.22863" lon="2.30365">
        <ele>111.599998</ele>
        <time>2017-08-07T07:24:50Z</time>
      </trkpt>
      <trkpt lat="43.22868" lon="2.30351">
        <ele>111.099998</ele>
        <time>2017-08-07T07:24:53Z</time>
      </trkpt>
      <trkpt lat="43.22873" lon="2.30337">
        <ele>110.900002</ele>
        <time>2017-08-07T07:24:56Z</time>
      </trkpt>
      <trkpt lat="43.22877" lon="2.30323">
        <ele>110.900002</ele>
        <time>2017-08-07T07:24:59Z</time>
      </trkpt>
      <trkpt lat="43.22883" lon="2.30307">
        <ele>110.800003</ele>
        <time>2017-08-07T07:25:02Z</time>
      </trkpt>
      <trkpt lat="43.22887" lon="2.30294">
        <ele>110.900002</ele>
        <time>2017-08-07T07:25:05Z</time>
      </trkpt>
      <trkpt lat="43.22893" lon="2.3028">
        <ele>111.199997</ele>
        <time>2017-08-07T07:25:08Z</time>
      </trkpt>
      <trkpt lat="43.22899" lon="2.30265">
        <ele>111.800003</ele>
        <time>2017-08-07T07:25:11Z</time>
      </trkpt>
      <trkpt lat="43.22905" lon="2.30252">
        <ele>112.300003</ele>
        <time>2017-08-07T07:25:14Z</time>
      </trkpt>
      <trkpt lat="43.22911" lon="2.30239">
        <ele>112.599998</ele>
        <time>2017-08-07T07:25:17Z</time>
      </trkpt>
      <trkpt lat="43.22916" lon="2.30226">
        <ele>112.599998</ele>
        <time>2017-08-07T07:25:20Z</time>
      </trkpt>
      <trkpt lat="43.22917" lon="2.30212">
        <ele>112.5</ele>
        <time>2017-08-07T07:25:22Z</time>
      </trkpt>
      <trkpt lat="43.22924" lon="2.302">
        <ele>111.800003</ele>
        <time>2017-08-07T07:25:25Z</time>
      </trkpt>
      <trkpt lat="43.22929" lon="2.30187">
        <ele>111.800003</ele>
        <time>2017-08-07T07:25:28Z</time>
      </trkpt>
      <trkpt lat="43.22935" lon="2.30173">
        <ele>111.199997</ele>
        <time>2017-08-07T07:25:31Z</time>
      </trkpt>
      <trkpt lat="43.22939" lon="2.30162">
        <ele>110.400002</ele>
        <time>2017-08-07T07:25:34Z</time>
      </trkpt>
      <trkpt lat="43.22943" lon="2.30151">
        <ele>110</ele>
        <time>2017-08-07T07:25:37Z</time>
      </trkpt>
      <trkpt lat="43.22942" lon="2.30138">
        <ele>109.900002</ele>
        <time>2017-08-07T07:25:41Z</time>
      </trkpt>
      <trkpt lat="43.22947" lon="2.30126">
        <ele>110.199997</ele>
        <time>2017-08-07T07:25:44Z</time>
      </trkpt>
      <trkpt lat="43.22952" lon="2.30111">
        <ele>109.900002</ele>
        <time>2017-08-07T07:25:48Z</time>
      </trkpt>
      <trkpt lat="43.22955" lon="2.30098">
        <ele>109.199997</ele>
        <time>2017-08-07T07:25:52Z</time>
      </trkpt>
      <trkpt lat="43.22961" lon="2.30085">
        <ele>109.099998</ele>
        <time>2017-08-07T07:25:57Z</time>
      </trkpt>
      <trkpt lat="43.22965" lon="2.30074">
        <ele>109.5</ele>
        <time>2017-08-07T07:26:01Z</time>
      </trkpt>
      <trkpt lat="43.2297" lon="2.30062">
        <ele>109.800003</ele>
        <time>2017-08-07T07:26:05Z</time>
      </trkpt>
      <trkpt lat="43.22976" lon="2.30052">
        <ele>110.099998</ele>
        <time>2017-08-07T07:26:09Z</time>
      </trkpt>
      <trkpt lat="43.22981" lon="2.30038">
        <ele>110</ele>
        <time>2017-08-07T07:26:14Z</time>
      </trkpt>
      <trkpt lat="43.22988" lon="2.30025">
        <ele>110.099998</ele>
        <time>2017-08-07T07:26:18Z</time>
      </trkpt>
      <trkpt lat="43.22992" lon="2.30009">
        <ele>110.5</ele>
        <time>2017-08-07T07:26:22Z</time>
      </trkpt>
      <trkpt lat="43.22996" lon="2.29997">
        <ele>110.699997</ele>
        <time>2017-08-07T07:26:25Z</time>
      </trkpt>
      <trkpt lat="43.22998" lon="2.29984">
        <ele>110.5</ele>
        <time>2017-08-07T07:26:28Z</time>
      </trkpt>
      <trkpt lat="43.23003" lon="2.29972">
        <ele>109.400002</ele>
        <time>2017-08-07T07:26:32Z</time>
      </trkpt>
      <trkpt lat="43.23005" lon="2.29957">
        <ele>108.400002</ele>
        <time>2017-08-07T07:26:35Z</time>
      </trkpt>
      <trkpt lat="43.23009" lon="2.29944">
        <ele>107.800003</ele>
        <time>2017-08-07T07:26:38Z</time>
      </trkpt>
      <trkpt lat="43.23014" lon="2.2993">
        <ele>107.099998</ele>
        <time>2017-08-07T07:26:41Z</time>
      </trkpt>
      <trkpt lat="43.23018" lon="2.29917">
        <ele>106.800003</ele>
        <time>2017-08-07T07:26:44Z</time>
      </trkpt>
      <trkpt lat="43.23024" lon="2.29903">
        <ele>106.699997</ele>
        <time>2017-08-07T07:26:48Z</time>
      </trkpt>
      <trkpt lat="43.23029" lon="2.29891">
        <ele>107.199997</ele>
        <time>2017-08-07T07:26:51Z</time>
      </trkpt>
      <trkpt lat="43.23032" lon="2.29876">
        <ele>107.300003</ele>
        <time>2017-08-07T07:26:54Z</time>
      </trkpt>
      <trkpt lat="43.23037" lon="2.29863">
        <ele>107.099998</ele>
        <time>2017-08-07T07:26:57Z</time>
      </trkpt>
      <trkpt lat="43.23043" lon="2.2985">
        <ele>107.099998</ele>
        <time>2017-08-07T07:27:00Z</time>
      </trkpt>
      <trkpt lat="43.23046" lon="2.29835">
        <ele>107.800003</ele>
        <time>2017-08-07T07:27:03Z</time>
      </trkpt>
      <trkpt lat="43.2305" lon="2.2982">
        <ele>108.300003</ele>
        <time>2017-08-07T07:27:06Z</time>
      </trkpt>
      <trkpt lat="43.23056" lon="2.29806">
        <ele>108.699997</ele>
        <time>2017-08-07T07:27:09Z</time>
      </trkpt>
      <trkpt lat="43.23061" lon="2.2979">
        <ele>108.599998</ele>
        <time>2017-08-07T07:27:12Z</time>
      </trkpt>
      <trkpt lat="43.23064" lon="2.29775">
        <ele>108</ele>
        <time>2017-08-07T07:27:15Z</time>
      </trkpt>
      <trkpt lat="43.23069" lon="2.29761">
        <ele>107.900002</ele>
        <time>2017-08-07T07:27:18Z</time>
      </trkpt>
      <trkpt lat="43.23074" lon="2.29747">
        <ele>108.099998</ele>
        <time>2017-08-07T07:27:21Z</time>
      </trkpt>
      <trkpt lat="43.23078" lon="2.29734">
        <ele>107.800003</ele>
        <time>2017-08-07T07:27:24Z</time>
      </trkpt>
      <trkpt lat="43.23083" lon="2.29718">
        <ele>106.800003</ele>
        <time>2017-08-07T07:27:27Z</time>
      </trkpt>
      <trkpt lat="43.23088" lon="2.29704">
        <ele>106.400002</ele>
        <time>2017-08-07T07:27:30Z</time>
      </trkpt>
      <trkpt lat="43.23093" lon="2.29688">
        <ele>107.199997</ele>
        <time>2017-08-07T07:27:33Z</time>
      </trkpt>
      <trkpt lat="43.23099" lon="2.29672">
        <ele>108.300003</ele>
        <time>2017-08-07T07:27:36Z</time>
      </trkpt>
      <trkpt lat="43.23103" lon="2.29655">
        <ele>109.099998</ele>
        <time>2017-08-07T07:27:39Z</time>
      </trkpt>
      <trkpt lat="43.2311" lon="2.29641">
        <ele>109.599998</ele>
        <time>2017-08-07T07:27:42Z</time>
      </trkpt>
      <trkpt lat="43.23115" lon="2.29625">
        <ele>110</ele>
        <time>2017-08-07T07:27:45Z</time>
      </trkpt>
      <trkpt lat="43.23122" lon="2.29609">
        <ele>110</ele>
        <time>2017-08-07T07:27:48Z</time>
      </trkpt>
      <trkpt lat="43.23128" lon="2.29594">
        <ele>110.300003</ele>
        <time>2017-08-07T07:27:51Z</time>
      </trkpt>
      <trkpt lat="43.23134" lon="2.2958">
        <ele>111</ele>
        <time>2017-08-07T07:27:54Z</time>
      </trkpt>
      <trkpt lat="43.23141" lon="2.29568">
        <ele>111.5</ele>
        <time>2017-08-07T07:27:57Z</time>
      </trkpt>
      <trkpt lat="43.23147" lon="2.29551">
        <ele>111.800003</ele>
        <time>2017-08-07T07:28:00Z</time>
      </trkpt>
      <trkpt lat="43.23152" lon="2.29539">
        <ele>112</ele>
        <time>2017-08-07T07:28:03Z</time>
      </trkpt>
      <trkpt lat="43.23159" lon="2.29529">
        <ele>112.599998</ele>
        <time>2017-08-07T07:28:05Z</time>
      </trkpt>
      <trkpt lat="43.23167" lon="2.29516">
        <ele>113.400002</ele>
        <time>2017-08-07T07:28:08Z</time>
      </trkpt>
      <trkpt lat="43.23175" lon="2.29504">
        <ele>114.300003</ele>
        <time>2017-08-07T07:28:11Z</time>
      </trkpt>
      <trkpt lat="43.23183" lon="2.29494">
        <ele>115.199997</ele>
        <time>2017-08-07T07:28:14Z</time>
      </trkpt>
      <trkpt lat="43.23191" lon="2.29484">
        <ele>114.900002</ele>
        <time>2017-08-07T07:28:17Z</time>
      </trkpt>
      <trkpt lat="43.23199" lon="2.29473">
        <ele>113.800003</ele>
        <time>2017-08-07T07:28:20Z</time>
      </trkpt>
      <trkpt lat="43.23204" lon="2.29462">
        <ele>113.199997</ele>
        <time>2017-08-07T07:28:23Z</time>
      </trkpt>
      <trkpt lat="43.23213" lon="2.29451">
        <ele>112.699997</ele>
        <time>2017-08-07T07:28:26Z</time>
      </trkpt>
      <trkpt lat="43.23224" lon="2.2944">
        <ele>111.599998</ele>
        <time>2017-08-07T07:28:29Z</time>
      </trkpt>
      <trkpt lat="43.23233" lon="2.2943">
        <ele>110.5</ele>
        <time>2017-08-07T07:28:32Z</time>
      </trkpt>
      <trkpt lat="43.23243" lon="2.29423">
        <ele>109.699997</ele>
        <time>2017-08-07T07:28:35Z</time>
      </trkpt>
      <trkpt lat="43.23249" lon="2.29414">
        <ele>109.400002</ele>
        <time>2017-08-07T07:28:37Z</time>
      </trkpt>
      <trkpt lat="43.23257" lon="2.29401">
        <ele>109.099998</ele>
        <time>2017-08-07T07:28:40Z</time>
      </trkpt>
      <trkpt lat="43.23267" lon="2.29391">
        <ele>109.599998</ele>
        <time>2017-08-07T07:28:43Z</time>
      </trkpt>
      <trkpt lat="43.23274" lon="2.29383">
        <ele>110.400002</ele>
        <time>2017-08-07T07:28:45Z</time>
      </trkpt>
      <trkpt lat="43.23283" lon="2.29371">
        <ele>111.099998</ele>
        <time>2017-08-07T07:28:48Z</time>
      </trkpt>
      <trkpt lat="43.23293" lon="2.2936">
        <ele>111</ele>
        <time>2017-08-07T07:28:51Z</time>
      </trkpt>
      <trkpt lat="43.23299" lon="2.2935">
        <ele>111</ele>
        <time>2017-08-07T07:28:53Z</time>
      </trkpt>
      <trkpt lat="43.23306" lon="2.29342">
        <ele>111.300003</ele>
        <time>2017-08-07T07:28:55Z</time>
      </trkpt>
      <trkpt lat="43.23316" lon="2.29331">
        <ele>111.800003</ele>
        <time>2017-08-07T07:28:58Z</time>
      </trkpt>
      <trkpt lat="43.23324" lon="2.2932">
        <ele>112.099998</ele>
        <time>2017-08-07T07:29:01Z</time>
      </trkpt>
      <trkpt lat="43.23333" lon="2.29309">
        <ele>111.400002</ele>
        <time>2017-08-07T07:29:04Z</time>
      </trkpt>
      <trkpt lat="43.23342" lon="2.29298">
        <ele>111</ele>
        <time>2017-08-07T07:29:07Z</time>
      </trkpt>
      <trkpt lat="43.23349" lon="2.29289">
        <ele>110.900002</ele>
        <time>2017-08-07T07:29:09Z</time>
      </trkpt>
      <trkpt lat="43.23359" lon="2.29278">
        <ele>110.300003</ele>
        <time>2017-08-07T07:29:12Z</time>
      </trkpt>
      <trkpt lat="43.23368" lon="2.29268">
        <ele>110</ele>
        <time>2017-08-07T07:29:15Z</time>
      </trkpt>
      <trkpt lat="43.23378" lon="2.29257">
        <ele>109.900002</ele>
        <time>2017-08-07T07:29:18Z</time>
      </trkpt>
      <trkpt lat="43.23387" lon="2.29246">
        <ele>109.300003</ele>
        <time>2017-08-07T07:29:21Z</time>
      </trkpt>
      <trkpt lat="43.23396" lon="2.29234">
        <ele>108.5</ele>
        <time>2017-08-07T07:29:24Z</time>
      </trkpt>
      <trkpt lat="43.23405" lon="2.29225">
        <ele>107.800003</ele>
        <time>2017-08-07T07:29:27Z</time>
      </trkpt>
      <trkpt lat="43.23415" lon="2.29218">
        <ele>108.199997</ele>
        <time>2017-08-07T07:29:31Z</time>
      </trkpt>
      <trkpt lat="43.23424" lon="2.29214">
        <ele>108.699997</ele>
        <time>2017-08-07T07:29:35Z</time>
      </trkpt>
      <trkpt lat="43.23432" lon="2.29207">
        <ele>109</ele>
        <time>2017-08-07T07:29:39Z</time>
      </trkpt>
      <trkpt lat="43.23438" lon="2.29197">
        <ele>109.300003</ele>
        <time>2017-08-07T07:29:45Z</time>
      </trkpt>
      <trkpt lat="43.23447" lon="2.29188">
        <ele>109.5</ele>
        <time>2017-08-07T07:29:50Z</time>
      </trkpt>
      <trkpt lat="43.23455" lon="2.29177">
        <ele>109.699997</ele>
        <time>2017-08-07T07:29:54Z</time>
      </trkpt>
      <trkpt lat="43.23464" lon="2.29167">
        <ele>109.800003</ele>
        <time>2017-08-07T07:29:58Z</time>
      </trkpt>
      <trkpt lat="43.23471" lon="2.29159">
        <ele>110</ele>
        <time>2017-08-07T07:30:01Z</time>
      </trkpt>
      <trkpt lat="43.23479" lon="2.29149">
        <ele>110.5</ele>
        <time>2017-08-07T07:30:04Z</time>
      </trkpt>
      <trkpt lat="43.23487" lon="2.29139">
        <ele>111.400002</ele>
        <time>2017-08-07T07:30:07Z</time>
      </trkpt>
      <trkpt lat="43.23494" lon="2.29128">
        <ele>112.099998</ele>
        <time>2017-08-07T07:30:10Z</time>
      </trkpt>
      <trkpt lat="43.23503" lon="2.29118">
        <ele>113</ele>
        <time>2017-08-07T07:30:14Z</time>
      </trkpt>
      <trkpt lat="43.23514" lon="2.29107">
        <ele>114.099998</ele>
        <time>2017-08-07T07:30:17Z</time>
      </trkpt>
      <trkpt lat="43.23521" lon="2.291">
        <ele>114.800003</ele>
        <time>2017-08-07T07:30:19Z</time>
      </trkpt>
      <trkpt lat="43.23529" lon="2.29092">
        <ele>115</ele>
        <time>2017-08-07T07:30:21Z</time>
      </trkpt>
      <trkpt lat="43.23536" lon="2.29083">
        <ele>115</ele>
        <time>2017-08-07T07:30:23Z</time>
      </trkpt>
      <trkpt lat="43.23543" lon="2.29075">
        <ele>115</ele>
        <time>2017-08-07T07:30:25Z</time>
      </trkpt>
      <trkpt lat="43.23552" lon="2.29064">
        <ele>114.900002</ele>
        <time>2017-08-07T07:30:28Z</time>
      </trkpt>
      <trkpt lat="43.23562" lon="2.29051">
        <ele>114.599998</ele>
        <time>2017-08-07T07:30:31Z</time>
      </trkpt>
      <trkpt lat="43.23572" lon="2.29038">
        <ele>114</ele>
        <time>2017-08-07T07:30:34Z</time>
      </trkpt>
      <trkpt lat="43.23578" lon="2.2903">
        <ele>114</ele>
        <time>2017-08-07T07:30:36Z</time>
      </trkpt>
      <trkpt lat="43.23587" lon="2.29021">
        <ele>114</ele>
        <time>2017-08-07T07:30:38Z</time>
      </trkpt>
      <trkpt lat="43.23595" lon="2.29012">
        <ele>114</ele>
        <time>2017-08-07T07:30:40Z</time>
      </trkpt>
      <trkpt lat="43.23602" lon="2.29002">
        <ele>114</ele>
        <time>2017-08-07T07:30:42Z</time>
      </trkpt>
      <trkpt lat="43.2361" lon="2.28994">
        <ele>114</ele>
        <time>2017-08-07T07:30:44Z</time>
      </trkpt>
      <trkpt lat="43.2362" lon="2.28981">
        <ele>113.900002</ele>
        <time>2017-08-07T07:30:47Z</time>
      </trkpt>
      <trkpt lat="43.23628" lon="2.2897">
        <ele>113.5</ele>
        <time>2017-08-07T07:30:49Z</time>
      </trkpt>
      <trkpt lat="43.23635" lon="2.28961">
        <ele>113.099998</ele>
        <time>2017-08-07T07:30:51Z</time>
      </trkpt>
      <trkpt lat="43.23645" lon="2.28949">
        <ele>112.699997</ele>
        <time>2017-08-07T07:30:54Z</time>
      </trkpt>
      <trkpt lat="43.23653" lon="2.28937">
        <ele>112.300003</ele>
        <time>2017-08-07T07:30:57Z</time>
      </trkpt>
      <trkpt lat="43.23663" lon="2.28926">
        <ele>112.300003</ele>
        <time>2017-08-07T07:31:00Z</time>
      </trkpt>
      <trkpt lat="43.23674" lon="2.28915">
        <ele>112.599998</ele>
        <time>2017-08-07T07:31:03Z</time>
      </trkpt>
      <trkpt lat="43.23685" lon="2.28904">
        <ele>113.099998</ele>
        <time>2017-08-07T07:31:06Z</time>
      </trkpt>
      <trkpt lat="43.23695" lon="2.28893">
        <ele>112.699997</ele>
        <time>2017-08-07T07:31:09Z</time>
      </trkpt>
      <trkpt lat="43.23704" lon="2.28882">
        <ele>111.800003</ele>
        <time>2017-08-07T07:31:12Z</time>
      </trkpt>
      <trkpt lat="43.23715" lon="2.28871">
        <ele>111.099998</ele>
        <time>2017-08-07T07:31:15Z</time>
      </trkpt>
      <trkpt lat="43.23723" lon="2.28862">
        <ele>110.900002</ele>
        <time>2017-08-07T07:31:18Z</time>
      </trkpt>
      <trkpt lat="43.23731" lon="2.28852">
        <ele>110.400002</ele>
        <time>2017-08-07T07:31:21Z</time>
      </trkpt>
      <trkpt lat="43.23737" lon="2.2884">
        <ele>110.300003</ele>
        <time>2017-08-07T07:31:25Z</time>
      </trkpt>
      <trkpt lat="43.23742" lon="2.28827">
        <ele>111.199997</ele>
        <time>2017-08-07T07:31:30Z</time>
      </trkpt>
      <trkpt lat="43.23751" lon="2.28817">
        <ele>112</ele>
        <time>2017-08-07T07:31:34Z</time>
      </trkpt>
      <trkpt lat="43.23759" lon="2.28808">
        <ele>112.599998</ele>
        <time>2017-08-07T07:31:37Z</time>
      </trkpt>
      <trkpt lat="43.23765" lon="2.28799">
        <ele>113.099998</ele>
        <time>2017-08-07T07:31:40Z</time>
      </trkpt>
      <trkpt lat="43.23772" lon="2.28789">
        <ele>113.800003</ele>
        <time>2017-08-07T07:31:43Z</time>
      </trkpt>
      <trkpt lat="43.23782" lon="2.28778">
        <ele>114.599998</ele>
        <time>2017-08-07T07:31:47Z</time>
      </trkpt>
      <trkpt lat="43.2379" lon="2.28767">
        <ele>114.900002</ele>
        <time>2017-08-07T07:31:50Z</time>
      </trkpt>
      <trkpt lat="43.23798" lon="2.28756">
        <ele>115.099998</ele>
        <time>2017-08-07T07:31:53Z</time>
      </trkpt>
      <trkpt lat="43.23805" lon="2.28746">
        <ele>115.099998</ele>
        <time>2017-08-07T07:31:56Z</time>
      </trkpt>
      <trkpt lat="43.23812" lon="2.28737">
        <ele>114.800003</ele>
        <time>2017-08-07T07:31:59Z</time>
      </trkpt>
      <trkpt lat="43.23819" lon="2.28725">
        <ele>114.599998</ele>
        <time>2017-08-07T07:32:02Z</time>
      </trkpt>
      <trkpt lat="43.23827" lon="2.28716">
        <ele>114.800003</ele>
        <time>2017-08-07T07:32:05Z</time>
      </trkpt>
      <trkpt lat="43.23836" lon="2.28705">
        <ele>115.099998</ele>
        <time>2017-08-07T07:32:08Z</time>
      </trkpt>
      <trkpt lat="43.23843" lon="2.28694">
        <ele>115.599998</ele>
        <time>2017-08-07T07:32:11Z</time>
      </trkpt>
      <trkpt lat="43.23851" lon="2.28684">
        <ele>116.099998</ele>
        <time>2017-08-07T07:32:14Z</time>
      </trkpt>
      <trkpt lat="43.23859" lon="2.28673">
        <ele>116.199997</ele>
        <time>2017-08-07T07:32:17Z</time>
      </trkpt>
      <trkpt lat="43.23868" lon="2.28664">
        <ele>116.5</ele>
        <time>2017-08-07T07:32:20Z</time>
      </trkpt>
      <trkpt lat="43.23876" lon="2.28655">
        <ele>117</ele>
        <time>2017-08-07T07:32:23Z</time>
      </trkpt>
      <trkpt lat="43.23881" lon="2.28644">
        <ele>117.199997</ele>
        <time>2017-08-07T07:32:27Z</time>
      </trkpt>
      <trkpt lat="43.23889" lon="2.28635">
        <ele>117.5</ele>
        <time>2017-08-07T07:32:31Z</time>
      </trkpt>
      <trkpt lat="43.23897" lon="2.28628">
        <ele>117.800003</ele>
        <time>2017-08-07T07:32:35Z</time>
      </trkpt>
      <trkpt lat="43.23904" lon="2.28616">
        <ele>118.5</ele>
        <time>2017-08-07T07:32:39Z</time>
      </trkpt>
      <trkpt lat="43.23912" lon="2.28607">
        <ele>118.800003</ele>
        <time>2017-08-07T07:32:43Z</time>
      </trkpt>
      <trkpt lat="43.23919" lon="2.28598">
        <ele>118.800003</ele>
        <time>2017-08-07T07:32:47Z</time>
      </trkpt>
      <trkpt lat="43.23926" lon="2.28589">
        <ele>119</ele>
        <time>2017-08-07T07:32:52Z</time>
      </trkpt>
      <trkpt lat="43.23932" lon="2.28579">
        <ele>120</ele>
        <time>2017-08-07T07:32:57Z</time>
      </trkpt>
      <trkpt lat="43.23938" lon="2.28568">
        <ele>121.300003</ele>
        <time>2017-08-07T07:33:02Z</time>
      </trkpt>
      <trkpt lat="43.23946" lon="2.28558">
        <ele>121.900002</ele>
        <time>2017-08-07T07:33:08Z</time>
      </trkpt>
      <trkpt lat="43.23954" lon="2.28548">
        <ele>121.599998</ele>
        <time>2017-08-07T07:33:14Z</time>
      </trkpt>
      <trkpt lat="43.23961" lon="2.2854">
        <ele>121</ele>
        <time>2017-08-07T07:33:18Z</time>
      </trkpt>
      <trkpt lat="43.23969" lon="2.2853">
        <ele>121</ele>
        <time>2017-08-07T07:33:22Z</time>
      </trkpt>
      <trkpt lat="43.23977" lon="2.28523">
        <ele>121.699997</ele>
        <time>2017-08-07T07:33:25Z</time>
      </trkpt>
      <trkpt lat="43.23985" lon="2.28514">
        <ele>122.599998</ele>
        <time>2017-08-07T07:33:29Z</time>
      </trkpt>
      <trkpt lat="43.23992" lon="2.28504">
        <ele>121.400002</ele>
        <time>2017-08-07T07:33:32Z</time>
      </trkpt>
      <trkpt lat="43.23998" lon="2.28492">
        <ele>119.900002</ele>
        <time>2017-08-07T07:33:35Z</time>
      </trkpt>
      <trkpt lat="43.24007" lon="2.28483">
        <ele>120</ele>
        <time>2017-08-07T07:33:38Z</time>
      </trkpt>
      <trkpt lat="43.24016" lon="2.2847">
        <ele>119.5</ele>
        <time>2017-08-07T07:33:41Z</time>
      </trkpt>
      <trkpt lat="43.24023" lon="2.28461">
        <ele>119.300003</ele>
        <time>2017-08-07T07:33:44Z</time>
      </trkpt>
      <trkpt lat="43.24031" lon="2.28452">
        <ele>119.599998</ele>
        <time>2017-08-07T07:33:47Z</time>
      </trkpt>
      <trkpt lat="43.2404" lon="2.2844">
        <ele>118.400002</ele>
        <time>2017-08-07T07:33:50Z</time>
      </trkpt>
      <trkpt lat="43.24049" lon="2.28429">
        <ele>117.199997</ele>
        <time>2017-08-07T07:33:53Z</time>
      </trkpt>
      <trkpt lat="43.24057" lon="2.28418">
        <ele>117.099998</ele>
        <time>2017-08-07T07:33:56Z</time>
      </trkpt>
      <trkpt lat="43.24063" lon="2.28407">
        <ele>116.199997</ele>
        <time>2017-08-07T07:33:59Z</time>
      </trkpt>
      <trkpt lat="43.2407" lon="2.28394">
        <ele>115.699997</ele>
        <time>2017-08-07T07:34:02Z</time>
      </trkpt>
      <trkpt lat="43.24076" lon="2.2838">
        <ele>116.300003</ele>
        <time>2017-08-07T07:34:05Z</time>
      </trkpt>
      <trkpt lat="43.24084" lon="2.28367">
        <ele>117.400002</ele>
        <time>2017-08-07T07:34:08Z</time>
      </trkpt>
      <trkpt lat="43.2409" lon="2.28354">
        <ele>118.599998</ele>
        <time>2017-08-07T07:34:11Z</time>
      </trkpt>
      <trkpt lat="43.24096" lon="2.28341">
        <ele>118.900002</ele>
        <time>2017-08-07T07:34:14Z</time>
      </trkpt>
      <trkpt lat="43.24103" lon="2.28327">
        <ele>117.400002</ele>
        <time>2017-08-07T07:34:17Z</time>
      </trkpt>
      <trkpt lat="43.24109" lon="2.28313">
        <ele>116.400002</ele>
        <time>2017-08-07T07:34:20Z</time>
      </trkpt>
      <trkpt lat="43.24116" lon="2.28299">
        <ele>116.199997</ele>
        <time>2017-08-07T07:34:23Z</time>
      </trkpt>
      <trkpt lat="43.24121" lon="2.28285">
        <ele>115.800003</ele>
        <time>2017-08-07T07:34:26Z</time>
      </trkpt>
      <trkpt lat="43.24127" lon="2.28272">
        <ele>115.400002</ele>
        <time>2017-08-07T07:34:29Z</time>
      </trkpt>
      <trkpt lat="43.24133" lon="2.28258">
        <ele>115.099998</ele>
        <time>2017-08-07T07:34:32Z</time>
      </trkpt>
      <trkpt lat="43.24139" lon="2.28245">
        <ele>115.199997</ele>
        <time>2017-08-07T07:34:35Z</time>
      </trkpt>
      <trkpt lat="43.24146" lon="2.2823">
        <ele>115.300003</ele>
        <time>2017-08-07T07:34:38Z</time>
      </trkpt>
      <trkpt lat="43.24151" lon="2.28217">
        <ele>115.300003</ele>
        <time>2017-08-07T07:34:41Z</time>
      </trkpt>
      <trkpt lat="43.24159" lon="2.28204">
        <ele>115.5</ele>
        <time>2017-08-07T07:34:44Z</time>
      </trkpt>
      <trkpt lat="43.24166" lon="2.2819">
        <ele>116</ele>
        <time>2017-08-07T07:34:47Z</time>
      </trkpt>
      <trkpt lat="43.24171" lon="2.28175">
        <ele>116.199997</ele>
        <time>2017-08-07T07:34:50Z</time>
      </trkpt>
      <trkpt lat="43.24177" lon="2.28159">
        <ele>116.099998</ele>
        <time>2017-08-07T07:34:53Z</time>
      </trkpt>
      <trkpt lat="43.24183" lon="2.28146">
        <ele>116.199997</ele>
        <time>2017-08-07T07:34:56Z</time>
      </trkpt>
      <trkpt lat="43.24188" lon="2.28132">
        <ele>116.599998</ele>
        <time>2017-08-07T07:34:59Z</time>
      </trkpt>
      <trkpt lat="43.24194" lon="2.2812">
        <ele>116.599998</ele>
        <time>2017-08-07T07:35:02Z</time>
      </trkpt>
      <trkpt lat="43.24199" lon="2.28109">
        <ele>116.199997</ele>
        <time>2017-08-07T07:35:05Z</time>
      </trkpt>
      <trkpt lat="43.24206" lon="2.28099">
        <ele>116</ele>
        <time>2017-08-07T07:35:08Z</time>
      </trkpt>
      <trkpt lat="43.24212" lon="2.28088">
        <ele>115.800003</ele>
        <time>2017-08-07T07:35:11Z</time>
      </trkpt>
      <trkpt lat="43.24219" lon="2.28079">
        <ele>115.699997</ele>
        <time>2017-08-07T07:35:14Z</time>
      </trkpt>
      <trkpt lat="43.24227" lon="2.28065">
        <ele>115.400002</ele>
        <time>2017-08-07T07:35:17Z</time>
      </trkpt>
      <trkpt lat="43.24236" lon="2.28053">
        <ele>115.400002</ele>
        <time>2017-08-07T07:35:20Z</time>
      </trkpt>
      <trkpt lat="43.24243" lon="2.28043">
        <ele>115.300003</ele>
        <time>2017-08-07T07:35:23Z</time>
      </trkpt>
      <trkpt lat="43.24251" lon="2.28033">
        <ele>115.400002</ele>
        <time>2017-08-07T07:35:26Z</time>
      </trkpt>
      <trkpt lat="43.24259" lon="2.28024">
        <ele>115.599998</ele>
        <time>2017-08-07T07:35:29Z</time>
      </trkpt>
      <trkpt lat="43.24266" lon="2.2801">
        <ele>116.099998</ele>
        <time>2017-08-07T07:35:33Z</time>
      </trkpt>
      <trkpt lat="43.24272" lon="2.27998">
        <ele>116.099998</ele>
        <time>2017-08-07T07:35:36Z</time>
      </trkpt>
      <trkpt lat="43.24278" lon="2.27984">
        <ele>116</ele>
        <time>2017-08-07T07:35:40Z</time>
      </trkpt>
      <trkpt lat="43.24283" lon="2.27971">
        <ele>116</ele>
        <time>2017-08-07T07:35:43Z</time>
      </trkpt>
      <trkpt lat="43.24288" lon="2.27956">
        <ele>116.099998</ele>
        <time>2017-08-07T07:35:46Z</time>
      </trkpt>
      <trkpt lat="43.24293" lon="2.27943">
        <ele>116.5</ele>
        <time>2017-08-07T07:35:49Z</time>
      </trkpt>
      <trkpt lat="43.243" lon="2.2793">
        <ele>116.699997</ele>
        <time>2017-08-07T07:35:52Z</time>
      </trkpt>
      <trkpt lat="43.24304" lon="2.27916">
        <ele>116.400002</ele>
        <time>2017-08-07T07:35:55Z</time>
      </trkpt>
      <trkpt lat="43.24309" lon="2.27903">
        <ele>115.800003</ele>
        <time>2017-08-07T07:35:58Z</time>
      </trkpt>
      <trkpt lat="43.24314" lon="2.27889">
        <ele>115.199997</ele>
        <time>2017-08-07T07:36:01Z</time>
      </trkpt>
      <trkpt lat="43.24319" lon="2.27875">
        <ele>115</ele>
        <time>2017-08-07T07:36:04Z</time>
      </trkpt>
      <trkpt lat="43.24323" lon="2.27861">
        <ele>115.300003</ele>
        <time>2017-08-07T07:36:07Z</time>
      </trkpt>
      <trkpt lat="43.24327" lon="2.27849">
        <ele>115.5</ele>
        <time>2017-08-07T07:36:10Z</time>
      </trkpt>
      <trkpt lat="43.24332" lon="2.27834">
        <ele>115.699997</ele>
        <time>2017-08-07T07:36:13Z</time>
      </trkpt>
      <trkpt lat="43.24338" lon="2.27819">
        <ele>115.699997</ele>
        <time>2017-08-07T07:36:16Z</time>
      </trkpt>
      <trkpt lat="43.24344" lon="2.27805">
        <ele>115.900002</ele>
        <time>2017-08-07T07:36:19Z</time>
      </trkpt>
      <trkpt lat="43.24348" lon="2.27792">
        <ele>116</ele>
        <time>2017-08-07T07:36:22Z</time>
      </trkpt>
      <trkpt lat="43.24352" lon="2.27779">
        <ele>115.900002</ele>
        <time>2017-08-07T07:36:25Z</time>
      </trkpt>
      <trkpt lat="43.24357" lon="2.27767">
        <ele>115.699997</ele>
        <time>2017-08-07T07:36:28Z</time>
      </trkpt>
      <trkpt lat="43.24362" lon="2.27754">
        <ele>115.699997</ele>
        <time>2017-08-07T07:36:31Z</time>
      </trkpt>
      <trkpt lat="43.24367" lon="2.27741">
        <ele>115.800003</ele>
        <time>2017-08-07T07:36:34Z</time>
      </trkpt>
      <trkpt lat="43.24373" lon="2.27727">
        <ele>116</ele>
        <time>2017-08-07T07:36:37Z</time>
      </trkpt>
      <trkpt lat="43.24378" lon="2.27712">
        <ele>116.199997</ele>
        <time>2017-08-07T07:36:40Z</time>
      </trkpt>
      <trkpt lat="43.24383" lon="2.27697">
        <ele>116.800003</ele>
        <time>2017-08-07T07:36:43Z</time>
      </trkpt>
      <trkpt lat="43.24387" lon="2.27683">
        <ele>117.300003</ele>
        <time>2017-08-07T07:36:46Z</time>
      </trkpt>
      <trkpt lat="43.24389" lon="2.2767">
        <ele>117.5</ele>
        <time>2017-08-07T07:36:49Z</time>
      </trkpt>
      <trkpt lat="43.24393" lon="2.27658">
        <ele>117.400002</ele>
        <time>2017-08-07T07:36:52Z</time>
      </trkpt>
      <trkpt lat="43.24399" lon="2.27645">
        <ele>116.900002</ele>
        <time>2017-08-07T07:36:55Z</time>
      </trkpt>
      <trkpt lat="43.24404" lon="2.27633">
        <ele>116.400002</ele>
        <time>2017-08-07T07:36:58Z</time>
      </trkpt>
      <trkpt lat="43.24409" lon="2.27618">
        <ele>116.199997</ele>
        <time>2017-08-07T07:37:01Z</time>
      </trkpt>
      <trkpt lat="43.24412" lon="2.27606">
        <ele>116.300003</ele>
        <time>2017-08-07T07:37:03Z</time>
      </trkpt>
      <trkpt lat="43.24419" lon="2.27594">
        <ele>116.599998</ele>
        <time>2017-08-07T07:37:06Z</time>
      </trkpt>
      <trkpt lat="43.24423" lon="2.27579">
        <ele>116.900002</ele>
        <time>2017-08-07T07:37:09Z</time>
      </trkpt>
      <trkpt lat="43.24427" lon="2.27566">
        <ele>117</ele>
        <time>2017-08-07T07:37:12Z</time>
      </trkpt>
      <trkpt lat="43.24428" lon="2.27553">
        <ele>117</ele>
        <time>2017-08-07T07:37:15Z</time>
      </trkpt>
      <trkpt lat="43.2443" lon="2.2754">
        <ele>117.099998</ele>
        <time>2017-08-07T07:37:18Z</time>
      </trkpt>
      <trkpt lat="43.2443" lon="2.27527">
        <ele>117.5</ele>
        <time>2017-08-07T07:37:21Z</time>
      </trkpt>
      <trkpt lat="43.24432" lon="2.27508">
        <ele>117.800003</ele>
        <time>2017-08-07T07:37:24Z</time>
      </trkpt>
      <trkpt lat="43.24433" lon="2.27492">
        <ele>117.300003</ele>
        <time>2017-08-07T07:37:27Z</time>
      </trkpt>
      <trkpt lat="43.24434" lon="2.27476">
        <ele>117</ele>
        <time>2017-08-07T07:37:30Z</time>
      </trkpt>
      <trkpt lat="43.24435" lon="2.27462">
        <ele>117</ele>
        <time>2017-08-07T07:37:33Z</time>
      </trkpt>
      <trkpt lat="43.24436" lon="2.2745">
        <ele>117</ele>
        <time>2017-08-07T07:37:36Z</time>
      </trkpt>
      <trkpt lat="43.24438" lon="2.27428">
        <ele>116.900002</ele>
        <time>2017-08-07T07:37:39Z</time>
      </trkpt>
      <trkpt lat="43.24437" lon="2.27415">
        <ele>116.400002</ele>
        <time>2017-08-07T07:37:42Z</time>
      </trkpt>
      <trkpt lat="43.24437" lon="2.274">
        <ele>115.800003</ele>
        <time>2017-08-07T07:37:45Z</time>
      </trkpt>
      <trkpt lat="43.24436" lon="2.27385">
        <ele>115.699997</ele>
        <time>2017-08-07T07:37:49Z</time>
      </trkpt>
      <trkpt lat="43.24439" lon="2.27369">
        <ele>115.300003</ele>
        <time>2017-08-07T07:37:53Z</time>
      </trkpt>
      <trkpt lat="43.24438" lon="2.27356">
        <ele>115.300003</ele>
        <time>2017-08-07T07:37:55Z</time>
      </trkpt>
      <trkpt lat="43.24438" lon="2.27341">
        <ele>115.099998</ele>
        <time>2017-08-07T07:37:58Z</time>
      </trkpt>
      <trkpt lat="43.24436" lon="2.27327">
        <ele>115</ele>
        <time>2017-08-07T07:38:01Z</time>
      </trkpt>
      <trkpt lat="43.24439" lon="2.27316">
        <ele>114.900002</ele>
        <time>2017-08-07T07:38:04Z</time>
      </trkpt>
      <trkpt lat="43.24441" lon="2.27299">
        <ele>115.5</ele>
        <time>2017-08-07T07:38:07Z</time>
      </trkpt>
      <trkpt lat="43.24442" lon="2.27285">
        <ele>116.199997</ele>
        <time>2017-08-07T07:38:10Z</time>
      </trkpt>
      <trkpt lat="43.24443" lon="2.27268">
        <ele>116.800003</ele>
        <time>2017-08-07T07:38:13Z</time>
      </trkpt>
      <trkpt lat="43.24445" lon="2.27253">
        <ele>117.300003</ele>
        <time>2017-08-07T07:38:16Z</time>
      </trkpt>
      <trkpt lat="43.24447" lon="2.2724">
        <ele>117.800003</ele>
        <time>2017-08-07T07:38:19Z</time>
      </trkpt>
      <trkpt lat="43.24451" lon="2.27228">
        <ele>118</ele>
        <time>2017-08-07T07:38:22Z</time>
      </trkpt>
      <trkpt lat="43.24453" lon="2.27211">
        <ele>118</ele>
        <time>2017-08-07T07:38:26Z</time>
      </trkpt>
      <trkpt lat="43.24454" lon="2.27196">
        <ele>118.300003</ele>
        <time>2017-08-07T07:38:29Z</time>
      </trkpt>
      <trkpt lat="43.24458" lon="2.27183">
        <ele>118.800003</ele>
        <time>2017-08-07T07:38:31Z</time>
      </trkpt>
      <trkpt lat="43.24462" lon="2.2717">
        <ele>118.800003</ele>
        <time>2017-08-07T07:38:34Z</time>
      </trkpt>
      <trkpt lat="43.24465" lon="2.27158">
        <ele>118.900002</ele>
        <time>2017-08-07T07:38:37Z</time>
      </trkpt>
      <trkpt lat="43.24468" lon="2.27145">
        <ele>119.5</ele>
        <time>2017-08-07T07:38:40Z</time>
      </trkpt>
      <trkpt lat="43.24472" lon="2.27131">
        <ele>119.599998</ele>
        <time>2017-08-07T07:38:43Z</time>
      </trkpt>
      <trkpt lat="43.24477" lon="2.27116">
        <ele>119</ele>
        <time>2017-08-07T07:38:47Z</time>
      </trkpt>
      <trkpt lat="43.24479" lon="2.27104">
        <ele>118.199997</ele>
        <time>2017-08-07T07:38:50Z</time>
      </trkpt>
      <trkpt lat="43.24483" lon="2.27091">
        <ele>117.199997</ele>
        <time>2017-08-07T07:38:53Z</time>
      </trkpt>
      <trkpt lat="43.24489" lon="2.27076">
        <ele>116.199997</ele>
        <time>2017-08-07T07:38:57Z</time>
      </trkpt>
      <trkpt lat="43.24492" lon="2.27064">
        <ele>115.800003</ele>
        <time>2017-08-07T07:39:01Z</time>
      </trkpt>
      <trkpt lat="43.24492" lon="2.27045">
        <ele>115.900002</ele>
        <time>2017-08-07T07:39:04Z</time>
      </trkpt>
      <trkpt lat="43.24493" lon="2.27032">
        <ele>116.400002</ele>
        <time>2017-08-07T07:39:07Z</time>
      </trkpt>
      <trkpt lat="43.24493" lon="2.27016">
        <ele>117.099998</ele>
        <time>2017-08-07T07:39:10Z</time>
      </trkpt>
      <trkpt lat="43.24491" lon="2.27003">
        <ele>117</ele>
        <time>2017-08-07T07:39:14Z</time>
      </trkpt>
      <trkpt lat="43.24487" lon="2.26989">
        <ele>116.900002</ele>
        <time>2017-08-07T07:39:17Z</time>
      </trkpt>
      <trkpt lat="43.24486" lon="2.26976">
        <ele>116.699997</ele>
        <time>2017-08-07T07:39:19Z</time>
      </trkpt>
      <trkpt lat="43.24484" lon="2.26961">
        <ele>116.199997</ele>
        <time>2017-08-07T07:39:22Z</time>
      </trkpt>
      <trkpt lat="43.24481" lon="2.26947">
        <ele>115.5</ele>
        <time>2017-08-07T07:39:25Z</time>
      </trkpt>
      <trkpt lat="43.24476" lon="2.26932">
        <ele>114.900002</ele>
        <time>2017-08-07T07:39:28Z</time>
      </trkpt>
      <trkpt lat="43.24473" lon="2.26917">
        <ele>115.099998</ele>
        <time>2017-08-07T07:39:31Z</time>
      </trkpt>
      <trkpt lat="43.24472" lon="2.26903">
        <ele>115.5</ele>
        <time>2017-08-07T07:39:34Z</time>
      </trkpt>
      <trkpt lat="43.24473" lon="2.26886">
        <ele>116.199997</ele>
        <time>2017-08-07T07:39:37Z</time>
      </trkpt>
      <trkpt lat="43.24472" lon="2.26868">
        <ele>117.199997</ele>
        <time>2017-08-07T07:39:40Z</time>
      </trkpt>
      <trkpt lat="43.24473" lon="2.26854">
        <ele>117.699997</ele>
        <time>2017-08-07T07:39:42Z</time>
      </trkpt>
      <trkpt lat="43.24472" lon="2.26837">
        <ele>118</ele>
        <time>2017-08-07T07:39:45Z</time>
      </trkpt>
      <trkpt lat="43.24473" lon="2.26823">
        <ele>118</ele>
        <time>2017-08-07T07:39:48Z</time>
      </trkpt>
      <trkpt lat="43.24472" lon="2.26809">
        <ele>118.199997</ele>
        <time>2017-08-07T07:39:51Z</time>
      </trkpt>
      <trkpt lat="43.24473" lon="2.26795">
        <ele>118.400002</ele>
        <time>2017-08-07T07:39:53Z</time>
      </trkpt>
      <trkpt lat="43.24475" lon="2.26782">
        <ele>118.300003</ele>
        <time>2017-08-07T07:39:56Z</time>
      </trkpt>
      <trkpt lat="43.24476" lon="2.26767">
        <ele>117.800003</ele>
        <time>2017-08-07T07:39:59Z</time>
      </trkpt>
      <trkpt lat="43.24479" lon="2.26752">
        <ele>117.5</ele>
        <time>2017-08-07T07:40:02Z</time>
      </trkpt>
      <trkpt lat="43.24486" lon="2.26744">
        <ele>117.300003</ele>
        <time>2017-08-07T07:40:05Z</time>
      </trkpt>
      <trkpt lat="43.2449" lon="2.2673">
        <ele>116.400002</ele>
        <time>2017-08-07T07:40:09Z</time>
      </trkpt>
      <trkpt lat="43.24493" lon="2.26716">
        <ele>115.099998</ele>
        <time>2017-08-07T07:40:13Z</time>
      </trkpt>
      <trkpt lat="43.24496" lon="2.26704">
        <ele>114.099998</ele>
        <time>2017-08-07T07:41:36Z</time>
      </trkpt>
      <trkpt lat="43.24498" lon="2.26692">
        <ele>113.5</ele>
        <time>2017-08-07T07:41:44Z</time>
      </trkpt>
      <trkpt lat="43.24497" lon="2.26677">
        <ele>112.800003</ele>
        <time>2017-08-07T07:41:48Z</time>
      </trkpt>
      <trkpt lat="43.245" lon="2.26664">
        <ele>112.699997</ele>
        <time>2017-08-07T07:41:52Z</time>
      </trkpt>
      <trkpt lat="43.24501" lon="2.26649">
        <ele>112.5</ele>
        <time>2017-08-07T07:41:55Z</time>
      </trkpt>
      <trkpt lat="43.24502" lon="2.26634">
        <ele>112</ele>
        <time>2017-08-07T07:41:59Z</time>
      </trkpt>
      <trkpt lat="43.24503" lon="2.2662">
        <ele>111.300003</ele>
        <time>2017-08-07T07:42:02Z</time>
      </trkpt>
      <trkpt lat="43.24499" lon="2.26608">
        <ele>110.300003</ele>
        <time>2017-08-07T07:42:05Z</time>
      </trkpt>
      <trkpt lat="43.24498" lon="2.26595">
        <ele>109.400002</ele>
        <time>2017-08-07T07:42:08Z</time>
      </trkpt>
      <trkpt lat="43.24491" lon="2.26581">
        <ele>108.599998</ele>
        <time>2017-08-07T07:42:12Z</time>
      </trkpt>
      <trkpt lat="43.24483" lon="2.2657">
        <ele>108.099998</ele>
        <time>2017-08-07T07:42:15Z</time>
      </trkpt>
      <trkpt lat="43.24472" lon="2.26563">
        <ele>107.900002</ele>
        <time>2017-08-07T07:42:18Z</time>
      </trkpt>
      <trkpt lat="43.24462" lon="2.26561">
        <ele>107.599998</ele>
        <time>2017-08-07T07:42:21Z</time>
      </trkpt>
      <trkpt lat="43.24453" lon="2.26564">
        <ele>107.5</ele>
        <time>2017-08-07T07:42:23Z</time>
      </trkpt>
      <trkpt lat="43.24443" lon="2.26565">
        <ele>107.300003</ele>
        <time>2017-08-07T07:42:26Z</time>
      </trkpt>
      <trkpt lat="43.24435" lon="2.26574">
        <ele>107.699997</ele>
        <time>2017-08-07T07:42:30Z</time>
      </trkpt>
      <trkpt lat="43.24431" lon="2.26585">
        <ele>109.199997</ele>
        <time>2017-08-07T07:42:34Z</time>
      </trkpt>
      <trkpt lat="43.24423" lon="2.26594">
        <ele>110.400002</ele>
        <time>2017-08-07T07:42:37Z</time>
      </trkpt>
      <trkpt lat="43.24415" lon="2.26599">
        <ele>111.099998</ele>
        <time>2017-08-07T07:42:39Z</time>
      </trkpt>
      <trkpt lat="43.24403" lon="2.26608">
        <ele>112.099998</ele>
        <time>2017-08-07T07:42:42Z</time>
      </trkpt>
      <trkpt lat="43.24394" lon="2.26615">
        <ele>112</ele>
        <time>2017-08-07T07:42:44Z</time>
      </trkpt>
      <trkpt lat="43.24384" lon="2.26623">
        <ele>111.800003</ele>
        <time>2017-08-07T07:42:46Z</time>
      </trkpt>
      <trkpt lat="43.24375" lon="2.26631">
        <ele>111.800003</ele>
        <time>2017-08-07T07:42:48Z</time>
      </trkpt>
      <trkpt lat="43.24366" lon="2.26639">
        <ele>113.099998</ele>
        <time>2017-08-07T07:42:52Z</time>
      </trkpt>
      <trkpt lat="43.24358" lon="2.26644">
        <ele>113.599998</ele>
        <time>2017-08-07T07:42:54Z</time>
      </trkpt>
      <trkpt lat="43.24349" lon="2.26651">
        <ele>114</ele>
        <time>2017-08-07T07:42:56Z</time>
      </trkpt>
      <trkpt lat="43.24338" lon="2.26658">
        <ele>113.900002</ele>
        <time>2017-08-07T07:42:59Z</time>
      </trkpt>
      <trkpt lat="43.24327" lon="2.26661">
        <ele>113.099998</ele>
        <time>2017-08-07T07:43:02Z</time>
      </trkpt>
      <trkpt lat="43.24316" lon="2.26654">
        <ele>112.900002</ele>
        <time>2017-08-07T07:43:06Z</time>
      </trkpt>
      <trkpt lat="43.24308" lon="2.26646">
        <ele>115.300003</ele>
        <time>2017-08-07T07:43:09Z</time>
      </trkpt>
      <trkpt lat="43.24299" lon="2.26636">
        <ele>118.300003</ele>
        <time>2017-08-07T07:43:12Z</time>
      </trkpt>
      <trkpt lat="43.24292" lon="2.26627">
        <ele>120.599998</ele>
        <time>2017-08-07T07:43:15Z</time>
      </trkpt>
      <trkpt lat="43.24285" lon="2.26615">
        <ele>121.699997</ele>
        <time>2017-08-07T07:43:18Z</time>
      </trkpt>
      <trkpt lat="43.24279" lon="2.26603">
        <ele>122.599998</ele>
        <time>2017-08-07T07:43:22Z</time>
      </trkpt>
      <trkpt lat="43.24275" lon="2.26591">
        <ele>123.199997</ele>
        <time>2017-08-07T07:43:25Z</time>
      </trkpt>
      <trkpt lat="43.2427" lon="2.26574">
        <ele>123.400002</ele>
        <time>2017-08-07T07:43:29Z</time>
      </trkpt>
      <trkpt lat="43.24265" lon="2.2656">
        <ele>123.699997</ele>
        <time>2017-08-07T07:43:32Z</time>
      </trkpt>
      <trkpt lat="43.24265" lon="2.26545">
        <ele>123.900002</ele>
        <time>2017-08-07T07:43:35Z</time>
      </trkpt>
      <trkpt lat="43.24263" lon="2.26529">
        <ele>123.300003</ele>
        <time>2017-08-07T07:43:38Z</time>
      </trkpt>
      <trkpt lat="43.24261" lon="2.26516">
        <ele>122.599998</ele>
        <time>2017-08-07T07:43:40Z</time>
      </trkpt>
      <trkpt lat="43.24258" lon="2.26504">
        <ele>122</ele>
        <time>2017-08-07T07:43:42Z</time>
      </trkpt>
      <trkpt lat="43.24256" lon="2.26491">
        <ele>121.199997</ele>
        <time>2017-08-07T07:43:45Z</time>
      </trkpt>
      <trkpt lat="43.24254" lon="2.26477">
        <ele>119.800003</ele>
        <time>2017-08-07T07:43:48Z</time>
      </trkpt>
      <trkpt lat="43.24249" lon="2.26466">
        <ele>118.5</ele>
        <time>2017-08-07T07:43:50Z</time>
      </trkpt>
      <trkpt lat="43.24245" lon="2.26452">
        <ele>116.599998</ele>
        <time>2017-08-07T07:43:52Z</time>
      </trkpt>
      <trkpt lat="43.24242" lon="2.26439">
        <ele>114.800003</ele>
        <time>2017-08-07T07:43:55Z</time>
      </trkpt>
      <trkpt lat="43.24239" lon="2.26427">
        <ele>113.099998</ele>
        <time>2017-08-07T07:43:58Z</time>
      </trkpt>
      <trkpt lat="43.24237" lon="2.26409">
        <ele>112.400002</ele>
        <time>2017-08-07T07:44:01Z</time>
      </trkpt>
      <trkpt lat="43.24229" lon="2.26399">
        <ele>111.5</ele>
        <time>2017-08-07T07:44:05Z</time>
      </trkpt>
      <trkpt lat="43.24228" lon="2.26386">
        <ele>111.400002</ele>
        <time>2017-08-07T07:44:13Z</time>
      </trkpt>
      <trkpt lat="43.24225" lon="2.26373">
        <ele>111.199997</ele>
        <time>2017-08-07T07:44:17Z</time>
      </trkpt>
      <trkpt lat="43.24221" lon="2.2636">
        <ele>111.300003</ele>
        <time>2017-08-07T07:44:21Z</time>
      </trkpt>
      <trkpt lat="43.24217" lon="2.26345">
        <ele>111.800003</ele>
        <time>2017-08-07T07:44:25Z</time>
      </trkpt>
      <trkpt lat="43.24213" lon="2.26333">
        <ele>113.099998</ele>
        <time>2017-08-07T07:44:30Z</time>
      </trkpt>
      <trkpt lat="43.24208" lon="2.26317">
        <ele>114.900002</ele>
        <time>2017-08-07T07:44:36Z</time>
      </trkpt>
      <trkpt lat="43.24204" lon="2.26306">
        <ele>115.199997</ele>
        <time>2017-08-07T07:44:40Z</time>
      </trkpt>
      <trkpt lat="43.24198" lon="2.26291">
        <ele>116.300003</ele>
        <time>2017-08-07T07:44:43Z</time>
      </trkpt>
      <trkpt lat="43.24195" lon="2.26276">
        <ele>117.300003</ele>
        <time>2017-08-07T07:44:47Z</time>
      </trkpt>
      <trkpt lat="43.24192" lon="2.26263">
        <ele>117.900002</ele>
        <time>2017-08-07T07:44:50Z</time>
      </trkpt>
      <trkpt lat="43.24189" lon="2.26248">
        <ele>119.099998</ele>
        <time>2017-08-07T07:44:53Z</time>
      </trkpt>
      <trkpt lat="43.24183" lon="2.26232">
        <ele>119.5</ele>
        <time>2017-08-07T07:44:56Z</time>
      </trkpt>
      <trkpt lat="43.2418" lon="2.26219">
        <ele>119.5</ele>
        <time>2017-08-07T07:44:59Z</time>
      </trkpt>
      <trkpt lat="43.24178" lon="2.26203">
        <ele>119.599998</ele>
        <time>2017-08-07T07:45:02Z</time>
      </trkpt>
      <trkpt lat="43.24178" lon="2.26189">
        <ele>119.599998</ele>
        <time>2017-08-07T07:45:05Z</time>
      </trkpt>
      <trkpt lat="43.24175" lon="2.26177">
        <ele>119.199997</ele>
        <time>2017-08-07T07:45:07Z</time>
      </trkpt>
      <trkpt lat="43.24177" lon="2.26163">
        <ele>118.900002</ele>
        <time>2017-08-07T07:45:10Z</time>
      </trkpt>
      <trkpt lat="43.24181" lon="2.26147">
        <ele>118.699997</ele>
        <time>2017-08-07T07:45:14Z</time>
      </trkpt>
      <trkpt lat="43.24184" lon="2.26134">
        <ele>118.199997</ele>
        <time>2017-08-07T07:45:17Z</time>
      </trkpt>
      <trkpt lat="43.24191" lon="2.26118">
        <ele>118.099998</ele>
        <time>2017-08-07T07:45:20Z</time>
      </trkpt>
      <trkpt lat="43.24196" lon="2.26108">
        <ele>118.300003</ele>
        <time>2017-08-07T07:45:22Z</time>
      </trkpt>
      <trkpt lat="43.242" lon="2.26095">
        <ele>118.099998</ele>
        <time>2017-08-07T07:45:25Z</time>
      </trkpt>
      <trkpt lat="43.24204" lon="2.26081">
        <ele>117.900002</ele>
        <time>2017-08-07T07:45:28Z</time>
      </trkpt>
      <trkpt lat="43.24208" lon="2.26068">
        <ele>117.800003</ele>
        <time>2017-08-07T07:45:31Z</time>
      </trkpt>
      <trkpt lat="43.24214" lon="2.26053">
        <ele>117.199997</ele>
        <time>2017-08-07T07:45:34Z</time>
      </trkpt>
      <trkpt lat="43.2422" lon="2.26038">
        <ele>116.699997</ele>
        <time>2017-08-07T07:45:37Z</time>
      </trkpt>
      <trkpt lat="43.24226" lon="2.26024">
        <ele>116.800003</ele>
        <time>2017-08-07T07:45:40Z</time>
      </trkpt>
      <trkpt lat="43.24232" lon="2.26008">
        <ele>117.199997</ele>
        <time>2017-08-07T07:45:43Z</time>
      </trkpt>
      <trkpt lat="43.24239" lon="2.25993">
        <ele>117.400002</ele>
        <time>2017-08-07T07:45:46Z</time>
      </trkpt>
      <trkpt lat="43.24245" lon="2.25979">
        <ele>117.300003</ele>
        <time>2017-08-07T07:45:49Z</time>
      </trkpt>
      <trkpt lat="43.24248" lon="2.25965">
        <ele>116.800003</ele>
        <time>2017-08-07T07:45:52Z</time>
      </trkpt>
      <trkpt lat="43.24252" lon="2.25951">
        <ele>116.300003</ele>
        <time>2017-08-07T07:45:54Z</time>
      </trkpt>
      <trkpt lat="43.24255" lon="2.25936">
        <ele>115.699997</ele>
        <time>2017-08-07T07:45:57Z</time>
      </trkpt>
      <trkpt lat="43.24259" lon="2.25919">
        <ele>115.5</ele>
        <time>2017-08-07T07:46:00Z</time>
      </trkpt>
      <trkpt lat="43.24262" lon="2.25904">
        <ele>115.900002</ele>
        <time>2017-08-07T07:46:03Z</time>
      </trkpt>
      <trkpt lat="43.24265" lon="2.2589">
        <ele>114.400002</ele>
        <time>2017-08-07T07:46:06Z</time>
      </trkpt>
      <trkpt lat="43.24269" lon="2.25876">
        <ele>112.800003</ele>
        <time>2017-08-07T07:46:09Z</time>
      </trkpt>
      <trkpt lat="43.24273" lon="2.25861">
        <ele>112.300003</ele>
        <time>2017-08-07T07:46:12Z</time>
      </trkpt>
      <trkpt lat="43.24277" lon="2.25846">
        <ele>112</ele>
        <time>2017-08-07T07:46:15Z</time>
      </trkpt>
      <trkpt lat="43.24281" lon="2.25832">
        <ele>112.199997</ele>
        <time>2017-08-07T07:46:18Z</time>
      </trkpt>
      <trkpt lat="43.24283" lon="2.25816">
        <ele>112.5</ele>
        <time>2017-08-07T07:46:21Z</time>
      </trkpt>
      <trkpt lat="43.2429" lon="2.25801">
        <ele>113</ele>
        <time>2017-08-07T07:46:24Z</time>
      </trkpt>
      <trkpt lat="43.24294" lon="2.25786">
        <ele>113.400002</ele>
        <time>2017-08-07T07:46:27Z</time>
      </trkpt>
      <trkpt lat="43.24297" lon="2.25769">
        <ele>114.599998</ele>
        <time>2017-08-07T07:46:30Z</time>
      </trkpt>
      <trkpt lat="43.24299" lon="2.25755">
        <ele>115</ele>
        <time>2017-08-07T07:46:32Z</time>
      </trkpt>
      <trkpt lat="43.24303" lon="2.25741">
        <ele>115.800003</ele>
        <time>2017-08-07T07:46:35Z</time>
      </trkpt>
      <trkpt lat="43.24304" lon="2.25726">
        <ele>116.199997</ele>
        <time>2017-08-07T07:46:38Z</time>
      </trkpt>
      <trkpt lat="43.24304" lon="2.25708">
        <ele>115.900002</ele>
        <time>2017-08-07T07:46:41Z</time>
      </trkpt>
      <trkpt lat="43.24305" lon="2.25693">
        <ele>116.099998</ele>
        <time>2017-08-07T07:46:44Z</time>
      </trkpt>
      <trkpt lat="43.24304" lon="2.25674">
        <ele>116</ele>
        <time>2017-08-07T07:46:47Z</time>
      </trkpt>
      <trkpt lat="43.24306" lon="2.25663">
        <ele>116</ele>
        <time>2017-08-07T07:46:49Z</time>
      </trkpt>
      <trkpt lat="43.24307" lon="2.25648">
        <ele>115.699997</ele>
        <time>2017-08-07T07:46:52Z</time>
      </trkpt>
      <trkpt lat="43.24308" lon="2.25633">
        <ele>115.300003</ele>
        <time>2017-08-07T07:46:55Z</time>
      </trkpt>
      <trkpt lat="43.24306" lon="2.25615">
        <ele>114.300003</ele>
        <time>2017-08-07T07:46:58Z</time>
      </trkpt>
      <trkpt lat="43.24306" lon="2.25601">
        <ele>113.699997</ele>
        <time>2017-08-07T07:47:01Z</time>
      </trkpt>
      <trkpt lat="43.24306" lon="2.25585">
        <ele>113</ele>
        <time>2017-08-07T07:47:04Z</time>
      </trkpt>
      <trkpt lat="43.24305" lon="2.2557">
        <ele>112.099998</ele>
        <time>2017-08-07T07:47:06Z</time>
      </trkpt>
      <trkpt lat="43.24306" lon="2.25555">
        <ele>112.199997</ele>
        <time>2017-08-07T07:47:09Z</time>
      </trkpt>
      <trkpt lat="43.24303" lon="2.2554">
        <ele>112.199997</ele>
        <time>2017-08-07T07:47:12Z</time>
      </trkpt>
      <trkpt lat="43.24303" lon="2.25525">
        <ele>111.400002</ele>
        <time>2017-08-07T07:47:15Z</time>
      </trkpt>
      <trkpt lat="43.243" lon="2.2551">
        <ele>110.5</ele>
        <time>2017-08-07T07:47:18Z</time>
      </trkpt>
      <trkpt lat="43.24296" lon="2.25492">
        <ele>110</ele>
        <time>2017-08-07T07:47:21Z</time>
      </trkpt>
      <trkpt lat="43.24293" lon="2.2548">
        <ele>110.300003</ele>
        <time>2017-08-07T07:47:23Z</time>
      </trkpt>
      <trkpt lat="43.24285" lon="2.25467">
        <ele>111.099998</ele>
        <time>2017-08-07T07:47:26Z</time>
      </trkpt>
      <trkpt lat="43.24279" lon="2.25454">
        <ele>111.800003</ele>
        <time>2017-08-07T07:47:29Z</time>
      </trkpt>
      <trkpt lat="43.2427" lon="2.25441">
        <ele>112.800003</ele>
        <time>2017-08-07T07:47:32Z</time>
      </trkpt>
      <trkpt lat="43.24262" lon="2.25429">
        <ele>113.900002</ele>
        <time>2017-08-07T07:47:35Z</time>
      </trkpt>
      <trkpt lat="43.24256" lon="2.25419">
        <ele>114</ele>
        <time>2017-08-07T07:47:37Z</time>
      </trkpt>
      <trkpt lat="43.24247" lon="2.25404">
        <ele>114</ele>
        <time>2017-08-07T07:47:40Z</time>
      </trkpt>
      <trkpt lat="43.24243" lon="2.2539">
        <ele>113.800003</ele>
        <time>2017-08-07T07:47:43Z</time>
      </trkpt>
      <trkpt lat="43.24243" lon="2.25375">
        <ele>114.199997</ele>
        <time>2017-08-07T07:47:46Z</time>
      </trkpt>
      <trkpt lat="43.24246" lon="2.25363">
        <ele>114.800003</ele>
        <time>2017-08-07T07:47:49Z</time>
      </trkpt>
      <trkpt lat="43.24248" lon="2.25347">
        <ele>115.099998</ele>
        <time>2017-08-07T07:47:53Z</time>
      </trkpt>
      <trkpt lat="43.24246" lon="2.25333">
        <ele>114.800003</ele>
        <time>2017-08-07T07:47:56Z</time>
      </trkpt>
      <trkpt lat="43.24249" lon="2.25319">
        <ele>114.900002</ele>
        <time>2017-08-07T07:47:59Z</time>
      </trkpt>
      <trkpt lat="43.24251" lon="2.25306">
        <ele>114.599998</ele>
        <time>2017-08-07T07:48:02Z</time>
      </trkpt>
      <trkpt lat="43.24252" lon="2.25289">
        <ele>113.900002</ele>
        <time>2017-08-07T07:48:05Z</time>
      </trkpt>
      <trkpt lat="43.24254" lon="2.25274">
        <ele>113</ele>
        <time>2017-08-07T07:48:08Z</time>
      </trkpt>
      <trkpt lat="43.24256" lon="2.25259">
        <ele>112.300003</ele>
        <time>2017-08-07T07:48:11Z</time>
      </trkpt>
      <trkpt lat="43.24256" lon="2.25246">
        <ele>112.699997</ele>
        <time>2017-08-07T07:48:14Z</time>
      </trkpt>
      <trkpt lat="43.24254" lon="2.25231">
        <ele>113.800003</ele>
        <time>2017-08-07T07:48:17Z</time>
      </trkpt>
      <trkpt lat="43.2425" lon="2.25218">
        <ele>116</ele>
        <time>2017-08-07T07:48:20Z</time>
      </trkpt>
      <trkpt lat="43.24245" lon="2.25206">
        <ele>118.099998</ele>
        <time>2017-08-07T07:48:24Z</time>
      </trkpt>
      <trkpt lat="43.24236" lon="2.25203">
        <ele>119.300003</ele>
        <time>2017-08-07T07:51:33Z</time>
      </trkpt>
      <trkpt lat="43.24227" lon="2.25198">
        <ele>119.5</ele>
        <time>2017-08-07T07:51:38Z</time>
      </trkpt>
      <trkpt lat="43.24215" lon="2.25196">
        <ele>119.199997</ele>
        <time>2017-08-07T07:51:42Z</time>
      </trkpt>
      <trkpt lat="43.24202" lon="2.25196">
        <ele>118.800003</ele>
        <time>2017-08-07T07:51:46Z</time>
      </trkpt>
      <trkpt lat="43.24189" lon="2.25199">
        <ele>118.800003</ele>
        <time>2017-08-07T07:51:49Z</time>
      </trkpt>
      <trkpt lat="43.24178" lon="2.25207">
        <ele>119.599998</ele>
        <time>2017-08-07T07:51:52Z</time>
      </trkpt>
      <trkpt lat="43.24169" lon="2.25217">
        <ele>119.800003</ele>
        <time>2017-08-07T07:51:55Z</time>
      </trkpt>
      <trkpt lat="43.24162" lon="2.25228">
        <ele>119.599998</ele>
        <time>2017-08-07T07:51:58Z</time>
      </trkpt>
      <trkpt lat="43.24154" lon="2.2524">
        <ele>119.099998</ele>
        <time>2017-08-07T07:52:01Z</time>
      </trkpt>
      <trkpt lat="43.24152" lon="2.25255">
        <ele>118.199997</ele>
        <time>2017-08-07T07:52:05Z</time>
      </trkpt>
      <trkpt lat="43.24149" lon="2.25267">
        <ele>117.599998</ele>
        <time>2017-08-07T07:52:08Z</time>
      </trkpt>
      <trkpt lat="43.24143" lon="2.25281">
        <ele>116.699997</ele>
        <time>2017-08-07T07:52:11Z</time>
      </trkpt>
      <trkpt lat="43.24139" lon="2.25292">
        <ele>116.099998</ele>
        <time>2017-08-07T07:52:13Z</time>
      </trkpt>
      <trkpt lat="43.24135" lon="2.25303">
        <ele>115.800003</ele>
        <time>2017-08-07T07:52:15Z</time>
      </trkpt>
      <trkpt lat="43.24132" lon="2.25315">
        <ele>115.5</ele>
        <time>2017-08-07T07:52:17Z</time>
      </trkpt>
      <trkpt lat="43.24126" lon="2.25326">
        <ele>114.900002</ele>
        <time>2017-08-07T07:52:38Z</time>
      </trkpt>
      <trkpt lat="43.24123" lon="2.25338">
        <ele>114.199997</ele>
        <time>2017-08-07T07:52:42Z</time>
      </trkpt>
      <trkpt lat="43.24119" lon="2.25351">
        <ele>113.800003</ele>
        <time>2017-08-07T07:52:45Z</time>
      </trkpt>
      <trkpt lat="43.24114" lon="2.25363">
        <ele>114.300003</ele>
        <time>2017-08-07T07:52:48Z</time>
      </trkpt>
      <trkpt lat="43.24105" lon="2.25376">
        <ele>114.599998</ele>
        <time>2017-08-07T07:52:51Z</time>
      </trkpt>
      <trkpt lat="43.24096" lon="2.25382">
        <ele>114.800003</ele>
        <time>2017-08-07T07:52:54Z</time>
      </trkpt>
      <trkpt lat="43.24083" lon="2.25385">
        <ele>115.199997</ele>
        <time>2017-08-07T07:52:57Z</time>
      </trkpt>
      <trkpt lat="43.24072" lon="2.25384">
        <ele>115.300003</ele>
        <time>2017-08-07T07:53:00Z</time>
      </trkpt>
      <trkpt lat="43.2406" lon="2.25382">
        <ele>114.699997</ele>
        <time>2017-08-07T07:53:03Z</time>
      </trkpt>
      <trkpt lat="43.2405" lon="2.25375">
        <ele>114.300003</ele>
        <time>2017-08-07T07:53:06Z</time>
      </trkpt>
      <trkpt lat="43.24039" lon="2.2537">
        <ele>114.300003</ele>
        <time>2017-08-07T07:53:09Z</time>
      </trkpt>
      <trkpt lat="43.24027" lon="2.25364">
        <ele>115.199997</ele>
        <time>2017-08-07T07:53:12Z</time>
      </trkpt>
      <trkpt lat="43.24017" lon="2.25353">
        <ele>116.900002</ele>
        <time>2017-08-07T07:53:15Z</time>
      </trkpt>
      <trkpt lat="43.24008" lon="2.25344">
        <ele>117.800003</ele>
        <time>2017-08-07T07:53:18Z</time>
      </trkpt>
      <trkpt lat="43.23999" lon="2.25332">
        <ele>118</ele>
        <time>2017-08-07T07:53:21Z</time>
      </trkpt>
      <trkpt lat="43.23995" lon="2.25318">
        <ele>118.5</ele>
        <time>2017-08-07T07:53:24Z</time>
      </trkpt>
      <trkpt lat="43.2399" lon="2.25306">
        <ele>118.599998</ele>
        <time>2017-08-07T07:53:27Z</time>
      </trkpt>
      <trkpt lat="43.23986" lon="2.25291">
        <ele>119</ele>
        <time>2017-08-07T07:53:30Z</time>
      </trkpt>
      <trkpt lat="43.23981" lon="2.25274">
        <ele>119.699997</ele>
        <time>2017-08-07T07:53:33Z</time>
      </trkpt>
      <trkpt lat="43.2398" lon="2.25258">
        <ele>119.900002</ele>
        <time>2017-08-07T07:53:36Z</time>
      </trkpt>
      <trkpt lat="43.23982" lon="2.25245">
        <ele>118.800003</ele>
        <time>2017-08-07T07:53:39Z</time>
      </trkpt>
      <trkpt lat="43.23984" lon="2.2523">
        <ele>117.699997</ele>
        <time>2017-08-07T07:53:42Z</time>
      </trkpt>
      <trkpt lat="43.23985" lon="2.25215">
        <ele>116.599998</ele>
        <time>2017-08-07T07:53:45Z</time>
      </trkpt>
      <trkpt lat="43.23986" lon="2.25198">
        <ele>115.699997</ele>
        <time>2017-08-07T07:53:48Z</time>
      </trkpt>
      <trkpt lat="43.23989" lon="2.25181">
        <ele>115.699997</ele>
        <time>2017-08-07T07:53:51Z</time>
      </trkpt>
      <trkpt lat="43.23989" lon="2.25169">
        <ele>117.199997</ele>
        <time>2017-08-07T07:53:53Z</time>
      </trkpt>
      <trkpt lat="43.23984" lon="2.25155">
        <ele>118.300003</ele>
        <time>2017-08-07T07:53:56Z</time>
      </trkpt>
      <trkpt lat="43.2398" lon="2.25142">
        <ele>118.099998</ele>
        <time>2017-08-07T07:53:58Z</time>
      </trkpt>
      <trkpt lat="43.23976" lon="2.2513">
        <ele>117.300003</ele>
        <time>2017-08-07T07:54:01Z</time>
      </trkpt>
      <trkpt lat="43.23966" lon="2.25122">
        <ele>115.599998</ele>
        <time>2017-08-07T07:54:04Z</time>
      </trkpt>
      <trkpt lat="43.23957" lon="2.2511">
        <ele>115.199997</ele>
        <time>2017-08-07T07:54:07Z</time>
      </trkpt>
      <trkpt lat="43.23948" lon="2.25102">
        <ele>116.400002</ele>
        <time>2017-08-07T07:54:10Z</time>
      </trkpt>
      <trkpt lat="43.23938" lon="2.25095">
        <ele>116.5</ele>
        <time>2017-08-07T07:54:13Z</time>
      </trkpt>
      <trkpt lat="43.23928" lon="2.25092">
        <ele>116.400002</ele>
        <time>2017-08-07T07:54:16Z</time>
      </trkpt>
      <trkpt lat="43.23918" lon="2.25092">
        <ele>116.300003</ele>
        <time>2017-08-07T07:54:18Z</time>
      </trkpt>
      <trkpt lat="43.23907" lon="2.25091">
        <ele>116.099998</ele>
        <time>2017-08-07T07:54:21Z</time>
      </trkpt>
      <trkpt lat="43.23896" lon="2.25093">
        <ele>115.900002</ele>
        <time>2017-08-07T07:54:24Z</time>
      </trkpt>
      <trkpt lat="43.23886" lon="2.25098">
        <ele>115.800003</ele>
        <time>2017-08-07T07:54:27Z</time>
      </trkpt>
      <trkpt lat="43.23876" lon="2.251">
        <ele>115.599998</ele>
        <time>2017-08-07T07:54:30Z</time>
      </trkpt>
      <trkpt lat="43.23865" lon="2.25103">
        <ele>115</ele>
        <time>2017-08-07T07:54:33Z</time>
      </trkpt>
      <trkpt lat="43.23854" lon="2.25108">
        <ele>113.900002</ele>
        <time>2017-08-07T07:54:36Z</time>
      </trkpt>
      <trkpt lat="43.23845" lon="2.2511">
        <ele>112.800003</ele>
        <time>2017-08-07T07:54:38Z</time>
      </trkpt>
      <trkpt lat="43.23835" lon="2.25118">
        <ele>112.800003</ele>
        <time>2017-08-07T07:54:41Z</time>
      </trkpt>
      <trkpt lat="43.23825" lon="2.25123">
        <ele>112.900002</ele>
        <time>2017-08-07T07:54:44Z</time>
      </trkpt>
      <trkpt lat="43.23815" lon="2.25131">
        <ele>113.900002</ele>
        <time>2017-08-07T07:54:47Z</time>
      </trkpt>
      <trkpt lat="43.23806" lon="2.25141">
        <ele>115.199997</ele>
        <time>2017-08-07T07:54:50Z</time>
      </trkpt>
      <trkpt lat="43.23798" lon="2.25148">
        <ele>115.800003</ele>
        <time>2017-08-07T07:54:52Z</time>
      </trkpt>
      <trkpt lat="43.23788" lon="2.25155">
        <ele>116.199997</ele>
        <time>2017-08-07T07:54:55Z</time>
      </trkpt>
      <trkpt lat="43.23777" lon="2.25165">
        <ele>117.099998</ele>
        <time>2017-08-07T07:54:58Z</time>
      </trkpt>
      <trkpt lat="43.23768" lon="2.25174">
        <ele>117.699997</ele>
        <time>2017-08-07T07:55:01Z</time>
      </trkpt>
      <trkpt lat="43.23754" lon="2.25181">
        <ele>116.800003</ele>
        <time>2017-08-07T07:55:04Z</time>
      </trkpt>
      <trkpt lat="43.23747" lon="2.25189">
        <ele>116.599998</ele>
        <time>2017-08-07T07:55:06Z</time>
      </trkpt>
      <trkpt lat="43.23739" lon="2.252">
        <ele>117.599998</ele>
        <time>2017-08-07T07:55:09Z</time>
      </trkpt>
      <trkpt lat="43.23731" lon="2.2521">
        <ele>118.099998</ele>
        <time>2017-08-07T07:55:12Z</time>
      </trkpt>
      <trkpt lat="43.23721" lon="2.25221">
        <ele>118.099998</ele>
        <time>2017-08-07T07:55:15Z</time>
      </trkpt>
      <trkpt lat="43.23713" lon="2.25225">
        <ele>117.900002</ele>
        <time>2017-08-07T07:55:17Z</time>
      </trkpt>
      <trkpt lat="43.23701" lon="2.25233">
        <ele>118.900002</ele>
        <time>2017-08-07T07:55:20Z</time>
      </trkpt>
      <trkpt lat="43.23692" lon="2.25238">
        <ele>119.5</ele>
        <time>2017-08-07T07:55:23Z</time>
      </trkpt>
      <trkpt lat="43.23682" lon="2.25243">
        <ele>119.400002</ele>
        <time>2017-08-07T07:55:26Z</time>
      </trkpt>
      <trkpt lat="43.23673" lon="2.25247">
        <ele>118.099998</ele>
        <time>2017-08-07T07:55:29Z</time>
      </trkpt>
      <trkpt lat="43.23664" lon="2.25253">
        <ele>116.599998</ele>
        <time>2017-08-07T07:55:32Z</time>
      </trkpt>
      <trkpt lat="43.23656" lon="2.2526">
        <ele>115.900002</ele>
        <time>2017-08-07T07:55:36Z</time>
      </trkpt>
      <trkpt lat="43.23646" lon="2.25257">
        <ele>114.699997</ele>
        <time>2017-08-07T07:55:54Z</time>
      </trkpt>
      <trkpt lat="43.2364" lon="2.25266">
        <ele>116.099998</ele>
        <time>2017-08-07T07:55:59Z</time>
      </trkpt>
      <trkpt lat="43.23631" lon="2.25271">
        <ele>117.199997</ele>
        <time>2017-08-07T07:56:22Z</time>
      </trkpt>
      <trkpt lat="43.2362" lon="2.25269">
        <ele>116.300003</ele>
        <time>2017-08-07T07:56:26Z</time>
      </trkpt>
      <trkpt lat="43.23608" lon="2.25268">
        <ele>115.599998</ele>
        <time>2017-08-07T07:56:30Z</time>
      </trkpt>
      <trkpt lat="43.23599" lon="2.2527">
        <ele>115.300003</ele>
        <time>2017-08-07T07:56:33Z</time>
      </trkpt>
      <trkpt lat="43.23589" lon="2.25267">
        <ele>116.599998</ele>
        <time>2017-08-07T07:56:36Z</time>
      </trkpt>
      <trkpt lat="43.23576" lon="2.25265">
        <ele>119.199997</ele>
        <time>2017-08-07T07:56:39Z</time>
      </trkpt>
      <trkpt lat="43.23566" lon="2.25264">
        <ele>120.699997</ele>
        <time>2017-08-07T07:56:41Z</time>
      </trkpt>
      <trkpt lat="43.23557" lon="2.2526">
        <ele>120.599998</ele>
        <time>2017-08-07T07:56:43Z</time>
      </trkpt>
      <trkpt lat="43.23546" lon="2.25253">
        <ele>120.199997</ele>
        <time>2017-08-07T07:56:46Z</time>
      </trkpt>
      <trkpt lat="43.23539" lon="2.25245">
        <ele>119.800003</ele>
        <time>2017-08-07T07:56:48Z</time>
      </trkpt>
      <trkpt lat="43.23533" lon="2.25232">
        <ele>119.099998</ele>
        <time>2017-08-07T07:56:51Z</time>
      </trkpt>
      <trkpt lat="43.23531" lon="2.25217">
        <ele>118.699997</ele>
        <time>2017-08-07T07:56:54Z</time>
      </trkpt>
      <trkpt lat="43.23531" lon="2.252">
        <ele>118.400002</ele>
        <time>2017-08-07T07:56:57Z</time>
      </trkpt>
      <trkpt lat="43.23529" lon="2.25184">
        <ele>118.099998</ele>
        <time>2017-08-07T07:56:59Z</time>
      </trkpt>
      <trkpt lat="43.23529" lon="2.2517">
        <ele>118.099998</ele>
        <time>2017-08-07T07:57:01Z</time>
      </trkpt>
      <trkpt lat="43.23531" lon="2.25153">
        <ele>118</ele>
        <time>2017-08-07T07:57:04Z</time>
      </trkpt>
      <trkpt lat="43.23534" lon="2.25137">
        <ele>118.5</ele>
        <time>2017-08-07T07:57:07Z</time>
      </trkpt>
      <trkpt lat="43.23537" lon="2.25122">
        <ele>119.099998</ele>
        <time>2017-08-07T07:57:10Z</time>
      </trkpt>
      <trkpt lat="43.23541" lon="2.25109">
        <ele>119.5</ele>
        <time>2017-08-07T07:57:13Z</time>
      </trkpt>
      <trkpt lat="43.23544" lon="2.25097">
        <ele>119.900002</ele>
        <time>2017-08-07T07:57:15Z</time>
      </trkpt>
      <trkpt lat="43.23547" lon="2.25084">
        <ele>119.900002</ele>
        <time>2017-08-07T07:57:17Z</time>
      </trkpt>
      <trkpt lat="43.2355" lon="2.25072">
        <ele>119.800003</ele>
        <time>2017-08-07T07:57:19Z</time>
      </trkpt>
      <trkpt lat="43.23553" lon="2.25056">
        <ele>119.099998</ele>
        <time>2017-08-07T07:57:22Z</time>
      </trkpt>
      <trkpt lat="43.23555" lon="2.25044">
        <ele>118.599998</ele>
        <time>2017-08-07T07:57:24Z</time>
      </trkpt>
      <trkpt lat="43.23557" lon="2.25029">
        <ele>119.099998</ele>
        <time>2017-08-07T07:57:27Z</time>
      </trkpt>
      <trkpt lat="43.23558" lon="2.25012">
        <ele>119.900002</ele>
        <time>2017-08-07T07:57:30Z</time>
      </trkpt>
      <trkpt lat="43.23559" lon="2.25">
        <ele>119.900002</ele>
        <time>2017-08-07T07:57:32Z</time>
      </trkpt>
      <trkpt lat="43.23559" lon="2.24982">
        <ele>119.800003</ele>
        <time>2017-08-07T07:57:35Z</time>
      </trkpt>
      <trkpt lat="43.23558" lon="2.24966">
        <ele>119.400002</ele>
        <time>2017-08-07T07:57:38Z</time>
      </trkpt>
      <trkpt lat="43.23557" lon="2.24953">
        <ele>119</ele>
        <time>2017-08-07T07:57:40Z</time>
      </trkpt>
      <trkpt lat="43.23557" lon="2.24936">
        <ele>118.400002</ele>
        <time>2017-08-07T07:57:43Z</time>
      </trkpt>
      <trkpt lat="43.23556" lon="2.24919">
        <ele>117.5</ele>
        <time>2017-08-07T07:57:46Z</time>
      </trkpt>
      <trkpt lat="43.23555" lon="2.24901">
        <ele>116.5</ele>
        <time>2017-08-07T07:57:49Z</time>
      </trkpt>
      <trkpt lat="43.23553" lon="2.24888">
        <ele>115.900002</ele>
        <time>2017-08-07T07:57:52Z</time>
      </trkpt>
      <trkpt lat="43.23552" lon="2.24871">
        <ele>115.400002</ele>
        <time>2017-08-07T07:57:55Z</time>
      </trkpt>
      <trkpt lat="43.2355" lon="2.24853">
        <ele>115.300003</ele>
        <time>2017-08-07T07:57:58Z</time>
      </trkpt>
      <trkpt lat="43.23547" lon="2.24839">
        <ele>115.699997</ele>
        <time>2017-08-07T07:58:01Z</time>
      </trkpt>
      <trkpt lat="43.23548" lon="2.24825">
        <ele>116.699997</ele>
        <time>2017-08-07T07:58:03Z</time>
      </trkpt>
      <trkpt lat="43.23545" lon="2.24808">
        <ele>117.400002</ele>
        <time>2017-08-07T07:58:06Z</time>
      </trkpt>
      <trkpt lat="43.23545" lon="2.2479">
        <ele>117.900002</ele>
        <time>2017-08-07T07:58:09Z</time>
      </trkpt>
      <trkpt lat="43.23543" lon="2.24777">
        <ele>118.300003</ele>
        <time>2017-08-07T07:58:11Z</time>
      </trkpt>
      <trkpt lat="43.23539" lon="2.24762">
        <ele>118.699997</ele>
        <time>2017-08-07T07:58:14Z</time>
      </trkpt>
      <trkpt lat="43.23536" lon="2.24746">
        <ele>118.300003</ele>
        <time>2017-08-07T07:58:17Z</time>
      </trkpt>
      <trkpt lat="43.23535" lon="2.24733">
        <ele>118</ele>
        <time>2017-08-07T07:58:19Z</time>
      </trkpt>
      <trkpt lat="43.23531" lon="2.24717">
        <ele>118</ele>
        <time>2017-08-07T07:58:22Z</time>
      </trkpt>
      <trkpt lat="43.23529" lon="2.247">
        <ele>118.400002</ele>
        <time>2017-08-07T07:58:25Z</time>
      </trkpt>
      <trkpt lat="43.23525" lon="2.24684">
        <ele>119.099998</ele>
        <time>2017-08-07T07:58:28Z</time>
      </trkpt>
      <trkpt lat="43.23522" lon="2.24668">
        <ele>119.900002</ele>
        <time>2017-08-07T07:58:31Z</time>
      </trkpt>
      <trkpt lat="43.23518" lon="2.24652">
        <ele>120.699997</ele>
        <time>2017-08-07T07:58:34Z</time>
      </trkpt>
      <trkpt lat="43.23515" lon="2.2464">
        <ele>120.5</ele>
        <time>2017-08-07T07:58:36Z</time>
      </trkpt>
      <trkpt lat="43.2351" lon="2.24623">
        <ele>119.699997</ele>
        <time>2017-08-07T07:58:39Z</time>
      </trkpt>
      <trkpt lat="43.23505" lon="2.24607">
        <ele>119.099998</ele>
        <time>2017-08-07T07:58:42Z</time>
      </trkpt>
      <trkpt lat="43.23501" lon="2.24592">
        <ele>118.699997</ele>
        <time>2017-08-07T07:58:45Z</time>
      </trkpt>
      <trkpt lat="43.23496" lon="2.24578">
        <ele>118.400002</ele>
        <time>2017-08-07T07:58:48Z</time>
      </trkpt>
      <trkpt lat="43.23492" lon="2.24566">
        <ele>117.900002</ele>
        <time>2017-08-07T07:58:51Z</time>
      </trkpt>
      <trkpt lat="43.23487" lon="2.24555">
        <ele>117.099998</ele>
        <time>2017-08-07T07:58:55Z</time>
      </trkpt>
      <trkpt lat="43.23483" lon="2.24543">
        <ele>116.699997</ele>
        <time>2017-08-07T07:59:00Z</time>
      </trkpt>
      <trkpt lat="43.23478" lon="2.24533">
        <ele>115.800003</ele>
        <time>2017-08-07T07:59:06Z</time>
      </trkpt>
      <trkpt lat="43.23475" lon="2.2452">
        <ele>115.5</ele>
        <time>2017-08-07T07:59:11Z</time>
      </trkpt>
      <trkpt lat="43.23471" lon="2.24509">
        <ele>114.800003</ele>
        <time>2017-08-07T07:59:14Z</time>
      </trkpt>
      <trkpt lat="43.23468" lon="2.24497">
        <ele>114</ele>
        <time>2017-08-07T07:59:17Z</time>
      </trkpt>
      <trkpt lat="43.23462" lon="2.24485">
        <ele>112.800003</ele>
        <time>2017-08-07T07:59:20Z</time>
      </trkpt>
      <trkpt lat="43.23457" lon="2.24472">
        <ele>112.400002</ele>
        <time>2017-08-07T07:59:23Z</time>
      </trkpt>
      <trkpt lat="43.23451" lon="2.24457">
        <ele>112.800003</ele>
        <time>2017-08-07T07:59:26Z</time>
      </trkpt>
      <trkpt lat="43.23446" lon="2.24444">
        <ele>114.099998</ele>
        <time>2017-08-07T07:59:29Z</time>
      </trkpt>
      <trkpt lat="43.2344" lon="2.24433">
        <ele>115.800003</ele>
        <time>2017-08-07T07:59:32Z</time>
      </trkpt>
      <trkpt lat="43.23431" lon="2.24424">
        <ele>118.099998</ele>
        <time>2017-08-07T07:59:35Z</time>
      </trkpt>
      <trkpt lat="43.23423" lon="2.24415">
        <ele>121.699997</ele>
        <time>2017-08-07T07:59:38Z</time>
      </trkpt>
      <trkpt lat="43.23415" lon="2.24406">
        <ele>125.400002</ele>
        <time>2017-08-07T07:59:41Z</time>
      </trkpt>
      <trkpt lat="43.23407" lon="2.244">
        <ele>127.599998</ele>
        <time>2017-08-07T07:59:43Z</time>
      </trkpt>
      <trkpt lat="43.23398" lon="2.24394">
        <ele>127.900002</ele>
        <time>2017-08-07T07:59:45Z</time>
      </trkpt>
      <trkpt lat="43.23388" lon="2.24388">
        <ele>127</ele>
        <time>2017-08-07T07:59:48Z</time>
      </trkpt>
      <trkpt lat="43.23379" lon="2.24384">
        <ele>126.400002</ele>
        <time>2017-08-07T07:59:50Z</time>
      </trkpt>
      <trkpt lat="43.23368" lon="2.24377">
        <ele>124.199997</ele>
        <time>2017-08-07T07:59:53Z</time>
      </trkpt>
      <trkpt lat="43.23357" lon="2.24376">
        <ele>121.599998</ele>
        <time>2017-08-07T07:59:56Z</time>
      </trkpt>
      <trkpt lat="43.23344" lon="2.24377">
        <ele>119.699997</ele>
        <time>2017-08-07T07:59:59Z</time>
      </trkpt>
      <trkpt lat="43.23333" lon="2.24379">
        <ele>120.300003</ele>
        <time>2017-08-07T08:00:02Z</time>
      </trkpt>
      <trkpt lat="43.23324" lon="2.24382">
        <ele>121.199997</ele>
        <time>2017-08-07T08:00:04Z</time>
      </trkpt>
      <trkpt lat="43.23314" lon="2.24386">
        <ele>121.900002</ele>
        <time>2017-08-07T08:00:07Z</time>
      </trkpt>
      <trkpt lat="43.23305" lon="2.24389">
        <ele>121.599998</ele>
        <time>2017-08-07T08:00:11Z</time>
      </trkpt>
      <trkpt lat="43.23292" lon="2.24395">
        <ele>121.599998</ele>
        <time>2017-08-07T08:00:14Z</time>
      </trkpt>
      <trkpt lat="43.23282" lon="2.24399">
        <ele>123.900002</ele>
        <time>2017-08-07T08:00:16Z</time>
      </trkpt>
      <trkpt lat="43.23272" lon="2.24402">
        <ele>127</ele>
        <time>2017-08-07T08:00:19Z</time>
      </trkpt>
      <trkpt lat="43.23261" lon="2.24404">
        <ele>129</ele>
        <time>2017-08-07T08:00:23Z</time>
      </trkpt>
      <trkpt lat="43.2325" lon="2.24407">
        <ele>129.100006</ele>
        <time>2017-08-07T08:00:25Z</time>
      </trkpt>
      <trkpt lat="43.23239" lon="2.24412">
        <ele>130</ele>
        <time>2017-08-07T08:00:27Z</time>
      </trkpt>
      <trkpt lat="43.23227" lon="2.24417">
        <ele>130.899994</ele>
        <time>2017-08-07T08:00:30Z</time>
      </trkpt>
      <trkpt lat="43.23215" lon="2.24421">
        <ele>131.199997</ele>
        <time>2017-08-07T08:00:33Z</time>
      </trkpt>
      <trkpt lat="43.23202" lon="2.24425">
        <ele>131</ele>
        <time>2017-08-07T08:00:36Z</time>
      </trkpt>
      <trkpt lat="43.23191" lon="2.24426">
        <ele>129.699997</ele>
        <time>2017-08-07T08:00:38Z</time>
      </trkpt>
      <trkpt lat="43.23179" lon="2.2443">
        <ele>128.5</ele>
        <time>2017-08-07T08:00:41Z</time>
      </trkpt>
      <trkpt lat="43.23167" lon="2.24435">
        <ele>126.099998</ele>
        <time>2017-08-07T08:00:44Z</time>
      </trkpt>
      <trkpt lat="43.23157" lon="2.24439">
        <ele>124</ele>
        <time>2017-08-07T08:00:48Z</time>
      </trkpt>
      <trkpt lat="43.23144" lon="2.24443">
        <ele>123.099998</ele>
        <time>2017-08-07T08:00:51Z</time>
      </trkpt>
      <trkpt lat="43.23135" lon="2.2445">
        <ele>123.800003</ele>
        <time>2017-08-07T08:00:54Z</time>
      </trkpt>
      <trkpt lat="43.23124" lon="2.24454">
        <ele>123.199997</ele>
        <time>2017-08-07T08:00:56Z</time>
      </trkpt>
      <trkpt lat="43.23115" lon="2.2446">
        <ele>123.099998</ele>
        <time>2017-08-07T08:00:58Z</time>
      </trkpt>
      <trkpt lat="43.23106" lon="2.24467">
        <ele>123</ele>
        <time>2017-08-07T08:01:00Z</time>
      </trkpt>
      <trkpt lat="43.23098" lon="2.24474">
        <ele>122.800003</ele>
        <time>2017-08-07T08:01:02Z</time>
      </trkpt>
      <trkpt lat="43.23086" lon="2.24482">
        <ele>123.5</ele>
        <time>2017-08-07T08:01:05Z</time>
      </trkpt>
      <trkpt lat="43.23077" lon="2.24489">
        <ele>124</ele>
        <time>2017-08-07T08:01:07Z</time>
      </trkpt>
      <trkpt lat="43.23068" lon="2.24496">
        <ele>124.199997</ele>
        <time>2017-08-07T08:01:10Z</time>
      </trkpt>
      <trkpt lat="43.23057" lon="2.24504">
        <ele>123.800003</ele>
        <time>2017-08-07T08:01:13Z</time>
      </trkpt>
      <trkpt lat="43.23049" lon="2.2451">
        <ele>123.800003</ele>
        <time>2017-08-07T08:01:15Z</time>
      </trkpt>
      <trkpt lat="43.23041" lon="2.24517">
        <ele>124.099998</ele>
        <time>2017-08-07T08:01:17Z</time>
      </trkpt>
      <trkpt lat="43.23032" lon="2.24524">
        <ele>123.800003</ele>
        <time>2017-08-07T08:01:19Z</time>
      </trkpt>
      <trkpt lat="43.23023" lon="2.24531">
        <ele>123.599998</ele>
        <time>2017-08-07T08:01:21Z</time>
      </trkpt>
      <trkpt lat="43.23013" lon="2.24536">
        <ele>123.300003</ele>
        <time>2017-08-07T08:01:24Z</time>
      </trkpt>
      <trkpt lat="43.23001" lon="2.24542">
        <ele>121.900002</ele>
        <time>2017-08-07T08:01:27Z</time>
      </trkpt>
      <trkpt lat="43.22992" lon="2.24542">
        <ele>120.300003</ele>
        <time>2017-08-07T08:01:30Z</time>
      </trkpt>
      <trkpt lat="43.22981" lon="2.24544">
        <ele>118.800003</ele>
        <time>2017-08-07T08:01:32Z</time>
      </trkpt>
      <trkpt lat="43.22971" lon="2.24548">
        <ele>117.5</ele>
        <time>2017-08-07T08:01:34Z</time>
      </trkpt>
      <trkpt lat="43.22958" lon="2.24547">
        <ele>114.900002</ele>
        <time>2017-08-07T08:01:37Z</time>
      </trkpt>
      <trkpt lat="43.22946" lon="2.24542">
        <ele>118</ele>
        <time>2017-08-07T08:01:40Z</time>
      </trkpt>
      <trkpt lat="43.22938" lon="2.24534">
        <ele>121.099998</ele>
        <time>2017-08-07T08:01:43Z</time>
      </trkpt>
      <trkpt lat="43.22929" lon="2.24521">
        <ele>123.599998</ele>
        <time>2017-08-07T08:01:46Z</time>
      </trkpt>
      <trkpt lat="43.22923" lon="2.24505">
        <ele>124.099998</ele>
        <time>2017-08-07T08:01:49Z</time>
      </trkpt>
      <trkpt lat="43.22919" lon="2.24488">
        <ele>124.699997</ele>
        <time>2017-08-07T08:01:52Z</time>
      </trkpt>
      <trkpt lat="43.2292" lon="2.24471">
        <ele>125.099998</ele>
        <time>2017-08-07T08:01:55Z</time>
      </trkpt>
      <trkpt lat="43.22924" lon="2.24455">
        <ele>125.099998</ele>
        <time>2017-08-07T08:01:58Z</time>
      </trkpt>
      <trkpt lat="43.22925" lon="2.24443">
        <ele>124.599998</ele>
        <time>2017-08-07T08:02:00Z</time>
      </trkpt>
      <trkpt lat="43.22929" lon="2.24427">
        <ele>123.900002</ele>
        <time>2017-08-07T08:02:03Z</time>
      </trkpt>
      <trkpt lat="43.22933" lon="2.2441">
        <ele>123.199997</ele>
        <time>2017-08-07T08:02:06Z</time>
      </trkpt>
      <trkpt lat="43.22934" lon="2.24397">
        <ele>122.800003</ele>
        <time>2017-08-07T08:02:08Z</time>
      </trkpt>
      <trkpt lat="43.22936" lon="2.24381">
        <ele>122.599998</ele>
        <time>2017-08-07T08:02:11Z</time>
      </trkpt>
      <trkpt lat="43.22939" lon="2.24366">
        <ele>121.800003</ele>
        <time>2017-08-07T08:02:14Z</time>
      </trkpt>
      <trkpt lat="43.2294" lon="2.24348">
        <ele>120.5</ele>
        <time>2017-08-07T08:02:17Z</time>
      </trkpt>
      <trkpt lat="43.22941" lon="2.2433">
        <ele>119.699997</ele>
        <time>2017-08-07T08:02:20Z</time>
      </trkpt>
      <trkpt lat="43.22942" lon="2.24312">
        <ele>119.199997</ele>
        <time>2017-08-07T08:02:23Z</time>
      </trkpt>
      <trkpt lat="43.22942" lon="2.243">
        <ele>119.400002</ele>
        <time>2017-08-07T08:02:25Z</time>
      </trkpt>
      <trkpt lat="43.22941" lon="2.24284">
        <ele>119.599998</ele>
        <time>2017-08-07T08:02:28Z</time>
      </trkpt>
      <trkpt lat="43.22939" lon="2.24271">
        <ele>119.699997</ele>
        <time>2017-08-07T08:02:30Z</time>
      </trkpt>
      <trkpt lat="43.22938" lon="2.24259">
        <ele>119.699997</ele>
        <time>2017-08-07T08:02:32Z</time>
      </trkpt>
      <trkpt lat="43.22935" lon="2.24241">
        <ele>119.800003</ele>
        <time>2017-08-07T08:02:35Z</time>
      </trkpt>
      <trkpt lat="43.22933" lon="2.24226">
        <ele>120.199997</ele>
        <time>2017-08-07T08:02:38Z</time>
      </trkpt>
      <trkpt lat="43.22931" lon="2.24208">
        <ele>120.900002</ele>
        <time>2017-08-07T08:02:41Z</time>
      </trkpt>
      <trkpt lat="43.22929" lon="2.24191">
        <ele>120.800003</ele>
        <time>2017-08-07T08:02:44Z</time>
      </trkpt>
      <trkpt lat="43.22926" lon="2.24174">
        <ele>121</ele>
        <time>2017-08-07T08:02:47Z</time>
      </trkpt>
      <trkpt lat="43.22923" lon="2.24156">
        <ele>122.099998</ele>
        <time>2017-08-07T08:02:50Z</time>
      </trkpt>
      <trkpt lat="43.22921" lon="2.24139">
        <ele>122.5</ele>
        <time>2017-08-07T08:02:53Z</time>
      </trkpt>
      <trkpt lat="43.22919" lon="2.24122">
        <ele>122.699997</ele>
        <time>2017-08-07T08:02:56Z</time>
      </trkpt>
      <trkpt lat="43.22918" lon="2.24104">
        <ele>123.199997</ele>
        <time>2017-08-07T08:02:59Z</time>
      </trkpt>
      <trkpt lat="43.22917" lon="2.24092">
        <ele>123.699997</ele>
        <time>2017-08-07T08:03:01Z</time>
      </trkpt>
      <trkpt lat="43.22917" lon="2.24076">
        <ele>124.599998</ele>
        <time>2017-08-07T08:03:04Z</time>
      </trkpt>
      <trkpt lat="43.22918" lon="2.24062">
        <ele>125.199997</ele>
        <time>2017-08-07T08:03:07Z</time>
      </trkpt>
      <trkpt lat="43.22919" lon="2.24044">
        <ele>125.599998</ele>
        <time>2017-08-07T08:03:10Z</time>
      </trkpt>
      <trkpt lat="43.22922" lon="2.24028">
        <ele>125.599998</ele>
        <time>2017-08-07T08:03:13Z</time>
      </trkpt>
      <trkpt lat="43.22924" lon="2.24015">
        <ele>125.400002</ele>
        <time>2017-08-07T08:03:16Z</time>
      </trkpt>
      <trkpt lat="43.22926" lon="2.24002">
        <ele>124.800003</ele>
        <time>2017-08-07T08:03:19Z</time>
      </trkpt>
      <trkpt lat="43.2293" lon="2.23986">
        <ele>124.099998</ele>
        <time>2017-08-07T08:03:22Z</time>
      </trkpt>
      <trkpt lat="43.22935" lon="2.23971">
        <ele>123.599998</ele>
        <time>2017-08-07T08:03:25Z</time>
      </trkpt>
      <trkpt lat="43.2294" lon="2.23957">
        <ele>123.199997</ele>
        <time>2017-08-07T08:03:28Z</time>
      </trkpt>
      <trkpt lat="43.22946" lon="2.23945">
        <ele>123.300003</ele>
        <time>2017-08-07T08:03:31Z</time>
      </trkpt>
      <trkpt lat="43.22951" lon="2.23931">
        <ele>123</ele>
        <time>2017-08-07T08:03:34Z</time>
      </trkpt>
      <trkpt lat="43.22957" lon="2.23921">
        <ele>122.900002</ele>
        <time>2017-08-07T08:03:36Z</time>
      </trkpt>
      <trkpt lat="43.22964" lon="2.23907">
        <ele>122.400002</ele>
        <time>2017-08-07T08:03:39Z</time>
      </trkpt>
      <trkpt lat="43.22969" lon="2.23896">
        <ele>122.599998</ele>
        <time>2017-08-07T08:03:41Z</time>
      </trkpt>
      <trkpt lat="43.22975" lon="2.23881">
        <ele>123.400002</ele>
        <time>2017-08-07T08:03:44Z</time>
      </trkpt>
      <trkpt lat="43.22982" lon="2.23867">
        <ele>124.199997</ele>
        <time>2017-08-07T08:03:47Z</time>
      </trkpt>
      <trkpt lat="43.22989" lon="2.23852">
        <ele>124.599998</ele>
        <time>2017-08-07T08:03:50Z</time>
      </trkpt>
      <trkpt lat="43.22996" lon="2.23838">
        <ele>124.300003</ele>
        <time>2017-08-07T08:03:53Z</time>
      </trkpt>
      <trkpt lat="43.23004" lon="2.23825">
        <ele>123.800003</ele>
        <time>2017-08-07T08:03:56Z</time>
      </trkpt>
      <trkpt lat="43.23011" lon="2.23811">
        <ele>123</ele>
        <time>2017-08-07T08:03:59Z</time>
      </trkpt>
      <trkpt lat="43.23019" lon="2.23798">
        <ele>122.5</ele>
        <time>2017-08-07T08:04:02Z</time>
      </trkpt>
      <trkpt lat="43.23026" lon="2.23785">
        <ele>122.400002</ele>
        <time>2017-08-07T08:04:05Z</time>
      </trkpt>
      <trkpt lat="43.23034" lon="2.23772">
        <ele>123.099998</ele>
        <time>2017-08-07T08:04:08Z</time>
      </trkpt>
      <trkpt lat="43.23041" lon="2.23757">
        <ele>123.900002</ele>
        <time>2017-08-07T08:04:11Z</time>
      </trkpt>
      <trkpt lat="43.23048" lon="2.23745">
        <ele>123.400002</ele>
        <time>2017-08-07T08:04:14Z</time>
      </trkpt>
      <trkpt lat="43.23054" lon="2.2373">
        <ele>123.099998</ele>
        <time>2017-08-07T08:04:17Z</time>
      </trkpt>
      <trkpt lat="43.2306" lon="2.2372">
        <ele>123.699997</ele>
        <time>2017-08-07T08:04:19Z</time>
      </trkpt>
      <trkpt lat="43.23065" lon="2.23709">
        <ele>124.099998</ele>
        <time>2017-08-07T08:04:21Z</time>
      </trkpt>
      <trkpt lat="43.23071" lon="2.23698">
        <ele>124.400002</ele>
        <time>2017-08-07T08:04:23Z</time>
      </trkpt>
      <trkpt lat="43.23076" lon="2.23687">
        <ele>124</ele>
        <time>2017-08-07T08:04:25Z</time>
      </trkpt>
      <trkpt lat="43.23082" lon="2.23677">
        <ele>123.599998</ele>
        <time>2017-08-07T08:04:27Z</time>
      </trkpt>
      <trkpt lat="43.2309" lon="2.23662">
        <ele>122.300003</ele>
        <time>2017-08-07T08:04:30Z</time>
      </trkpt>
      <trkpt lat="43.23097" lon="2.23647">
        <ele>121</ele>
        <time>2017-08-07T08:04:33Z</time>
      </trkpt>
      <trkpt lat="43.23104" lon="2.23632">
        <ele>121.300003</ele>
        <time>2017-08-07T08:04:36Z</time>
      </trkpt>
      <trkpt lat="43.23109" lon="2.23622">
        <ele>121</ele>
        <time>2017-08-07T08:04:38Z</time>
      </trkpt>
      <trkpt lat="43.23114" lon="2.23611">
        <ele>120.199997</ele>
        <time>2017-08-07T08:04:40Z</time>
      </trkpt>
      <trkpt lat="43.23122" lon="2.23597">
        <ele>120.099998</ele>
        <time>2017-08-07T08:04:43Z</time>
      </trkpt>
      <trkpt lat="43.23128" lon="2.23584">
        <ele>120.400002</ele>
        <time>2017-08-07T08:04:46Z</time>
      </trkpt>
      <trkpt lat="43.23133" lon="2.23571">
        <ele>120.5</ele>
        <time>2017-08-07T08:04:50Z</time>
      </trkpt>
      <trkpt lat="43.23139" lon="2.23559">
        <ele>121.400002</ele>
        <time>2017-08-07T08:04:53Z</time>
      </trkpt>
      <trkpt lat="43.23147" lon="2.23546">
        <ele>123</ele>
        <time>2017-08-07T08:04:56Z</time>
      </trkpt>
      <trkpt lat="43.23153" lon="2.23532">
        <ele>123.900002</ele>
        <time>2017-08-07T08:04:59Z</time>
      </trkpt>
      <trkpt lat="43.2316" lon="2.23518">
        <ele>123.5</ele>
        <time>2017-08-07T08:05:02Z</time>
      </trkpt>
      <trkpt lat="43.23166" lon="2.23504">
        <ele>123.699997</ele>
        <time>2017-08-07T08:05:05Z</time>
      </trkpt>
      <trkpt lat="43.23171" lon="2.23492">
        <ele>123.699997</ele>
        <time>2017-08-07T08:05:08Z</time>
      </trkpt>
      <trkpt lat="43.23179" lon="2.23479">
        <ele>124.099998</ele>
        <time>2017-08-07T08:05:11Z</time>
      </trkpt>
      <trkpt lat="43.23187" lon="2.23466">
        <ele>124.699997</ele>
        <time>2017-08-07T08:05:14Z</time>
      </trkpt>
      <trkpt lat="43.23197" lon="2.23456">
        <ele>125.599998</ele>
        <time>2017-08-07T08:05:17Z</time>
      </trkpt>
      <trkpt lat="43.23203" lon="2.23448">
        <ele>126.300003</ele>
        <time>2017-08-07T08:05:19Z</time>
      </trkpt>
      <trkpt lat="43.23211" lon="2.23435">
        <ele>127.5</ele>
        <time>2017-08-07T08:05:22Z</time>
      </trkpt>
      <trkpt lat="43.23218" lon="2.23426">
        <ele>127.800003</ele>
        <time>2017-08-07T08:05:24Z</time>
      </trkpt>
      <trkpt lat="43.23228" lon="2.23414">
        <ele>127.800003</ele>
        <time>2017-08-07T08:05:27Z</time>
      </trkpt>
      <trkpt lat="43.23239" lon="2.23403">
        <ele>128.199997</ele>
        <time>2017-08-07T08:05:30Z</time>
      </trkpt>
      <trkpt lat="43.23248" lon="2.23394">
        <ele>127.900002</ele>
        <time>2017-08-07T08:05:33Z</time>
      </trkpt>
      <trkpt lat="43.23257" lon="2.23386">
        <ele>128.100006</ele>
        <time>2017-08-07T08:05:36Z</time>
      </trkpt>
      <trkpt lat="43.23268" lon="2.23379">
        <ele>128.5</ele>
        <time>2017-08-07T08:05:39Z</time>
      </trkpt>
      <trkpt lat="43.23279" lon="2.23373">
        <ele>127.699997</ele>
        <time>2017-08-07T08:05:42Z</time>
      </trkpt>
      <trkpt lat="43.23288" lon="2.23368">
        <ele>126.699997</ele>
        <time>2017-08-07T08:05:45Z</time>
      </trkpt>
      <trkpt lat="43.23299" lon="2.23359">
        <ele>125.599998</ele>
        <time>2017-08-07T08:05:48Z</time>
      </trkpt>
      <trkpt lat="43.2331" lon="2.2335">
        <ele>124.800003</ele>
        <time>2017-08-07T08:05:51Z</time>
      </trkpt>
      <trkpt lat="43.23318" lon="2.2334">
        <ele>124.199997</ele>
        <time>2017-08-07T08:05:54Z</time>
      </trkpt>
      <trkpt lat="43.23326" lon="2.23328">
        <ele>123.199997</ele>
        <time>2017-08-07T08:05:57Z</time>
      </trkpt>
      <trkpt lat="43.23335" lon="2.23315">
        <ele>122.800003</ele>
        <time>2017-08-07T08:06:00Z</time>
      </trkpt>
      <trkpt lat="43.23341" lon="2.23301">
        <ele>124.599998</ele>
        <time>2017-08-07T08:06:03Z</time>
      </trkpt>
      <trkpt lat="43.23346" lon="2.23287">
        <ele>126.400002</ele>
        <time>2017-08-07T08:06:06Z</time>
      </trkpt>
      <trkpt lat="43.2335" lon="2.23272">
        <ele>125.599998</ele>
        <time>2017-08-07T08:06:09Z</time>
      </trkpt>
      <trkpt lat="43.23355" lon="2.23256">
        <ele>124.599998</ele>
        <time>2017-08-07T08:06:12Z</time>
      </trkpt>
      <trkpt lat="43.23358" lon="2.23242">
        <ele>124.199997</ele>
        <time>2017-08-07T08:06:15Z</time>
      </trkpt>
      <trkpt lat="43.23362" lon="2.23225">
        <ele>123.5</ele>
        <time>2017-08-07T08:06:18Z</time>
      </trkpt>
      <trkpt lat="43.23365" lon="2.23209">
        <ele>122.699997</ele>
        <time>2017-08-07T08:06:21Z</time>
      </trkpt>
      <trkpt lat="43.23367" lon="2.23194">
        <ele>121.5</ele>
        <time>2017-08-07T08:06:24Z</time>
      </trkpt>
      <trkpt lat="43.23368" lon="2.2318">
        <ele>120.300003</ele>
        <time>2017-08-07T08:06:27Z</time>
      </trkpt>
      <trkpt lat="43.23369" lon="2.23165">
        <ele>119.199997</ele>
        <time>2017-08-07T08:06:31Z</time>
      </trkpt>
      <trkpt lat="43.23369" lon="2.23152">
        <ele>118.199997</ele>
        <time>2017-08-07T08:06:35Z</time>
      </trkpt>
      <trkpt lat="43.23368" lon="2.23137">
        <ele>116.900002</ele>
        <time>2017-08-07T08:06:40Z</time>
      </trkpt>
      <trkpt lat="43.23367" lon="2.23124">
        <ele>115.5</ele>
        <time>2017-08-07T08:06:44Z</time>
      </trkpt>
      <trkpt lat="43.23365" lon="2.23111">
        <ele>113.800003</ele>
        <time>2017-08-07T08:06:48Z</time>
      </trkpt>
      <trkpt lat="43.23361" lon="2.23099">
        <ele>112.199997</ele>
        <time>2017-08-07T08:06:52Z</time>
      </trkpt>
      <trkpt lat="43.23356" lon="2.23085">
        <ele>111.400002</ele>
        <time>2017-08-07T08:06:56Z</time>
      </trkpt>
      <trkpt lat="43.2335" lon="2.23075">
        <ele>111.099998</ele>
        <time>2017-08-07T08:06:59Z</time>
      </trkpt>
      <trkpt lat="43.23344" lon="2.23064">
        <ele>111.5</ele>
        <time>2017-08-07T08:07:02Z</time>
      </trkpt>
      <trkpt lat="43.23338" lon="2.23054">
        <ele>112.699997</ele>
        <time>2017-08-07T08:07:05Z</time>
      </trkpt>
      <trkpt lat="43.23332" lon="2.23043">
        <ele>114</ele>
        <time>2017-08-07T08:07:08Z</time>
      </trkpt>
      <trkpt lat="43.23327" lon="2.23033">
        <ele>115.199997</ele>
        <time>2017-08-07T08:07:11Z</time>
      </trkpt>
      <trkpt lat="43.23319" lon="2.23022">
        <ele>116.400002</ele>
        <time>2017-08-07T08:07:15Z</time>
      </trkpt>
      <trkpt lat="43.23312" lon="2.23009">
        <ele>117.699997</ele>
        <time>2017-08-07T08:07:19Z</time>
      </trkpt>
      <trkpt lat="43.23304" lon="2.22999">
        <ele>118.599998</ele>
        <time>2017-08-07T08:07:23Z</time>
      </trkpt>
      <trkpt lat="43.23297" lon="2.22991">
        <ele>119.400002</ele>
        <time>2017-08-07T08:07:27Z</time>
      </trkpt>
      <trkpt lat="43.23289" lon="2.22983">
        <ele>120.400002</ele>
        <time>2017-08-07T08:07:30Z</time>
      </trkpt>
      <trkpt lat="43.23281" lon="2.22971">
        <ele>122</ele>
        <time>2017-08-07T08:07:33Z</time>
      </trkpt>
      <trkpt lat="43.23274" lon="2.22962">
        <ele>122.800003</ele>
        <time>2017-08-07T08:07:35Z</time>
      </trkpt>
      <trkpt lat="43.23268" lon="2.22951">
        <ele>123.300003</ele>
        <time>2017-08-07T08:07:37Z</time>
      </trkpt>
      <trkpt lat="43.23261" lon="2.2294">
        <ele>124.199997</ele>
        <time>2017-08-07T08:07:39Z</time>
      </trkpt>
      <trkpt lat="43.23257" lon="2.22927">
        <ele>125.5</ele>
        <time>2017-08-07T08:07:41Z</time>
      </trkpt>
      <trkpt lat="43.2326" lon="2.22914">
        <ele>127.400002</ele>
        <time>2017-08-07T08:07:43Z</time>
      </trkpt>
      <trkpt lat="43.23263" lon="2.22899">
        <ele>129.199997</ele>
        <time>2017-08-07T08:07:46Z</time>
      </trkpt>
      <trkpt lat="43.23266" lon="2.22882">
        <ele>128.899994</ele>
        <time>2017-08-07T08:07:49Z</time>
      </trkpt>
      <trkpt lat="43.2327" lon="2.22868">
        <ele>128</ele>
        <time>2017-08-07T08:07:53Z</time>
      </trkpt>
      <trkpt lat="43.23276" lon="2.22854">
        <ele>127.5</ele>
        <time>2017-08-07T08:07:56Z</time>
      </trkpt>
      <trkpt lat="43.23283" lon="2.22842">
        <ele>128.300003</ele>
        <time>2017-08-07T08:07:59Z</time>
      </trkpt>
      <trkpt lat="43.23289" lon="2.22825">
        <ele>128.199997</ele>
        <time>2017-08-07T08:08:02Z</time>
      </trkpt>
      <trkpt lat="43.23296" lon="2.22811">
        <ele>126.900002</ele>
        <time>2017-08-07T08:08:05Z</time>
      </trkpt>
      <trkpt lat="43.23303" lon="2.228">
        <ele>124.599998</ele>
        <time>2017-08-07T08:08:08Z</time>
      </trkpt>
      <trkpt lat="43.23312" lon="2.22789">
        <ele>122.800003</ele>
        <time>2017-08-07T08:08:11Z</time>
      </trkpt>
      <trkpt lat="43.23318" lon="2.22777">
        <ele>120.800003</ele>
        <time>2017-08-07T08:08:14Z</time>
      </trkpt>
      <trkpt lat="43.23328" lon="2.22766">
        <ele>120.300003</ele>
        <time>2017-08-07T08:08:17Z</time>
      </trkpt>
      <trkpt lat="43.23332" lon="2.22755">
        <ele>119.599998</ele>
        <time>2017-08-07T08:08:20Z</time>
      </trkpt>
      <trkpt lat="43.2334" lon="2.22744">
        <ele>119.699997</ele>
        <time>2017-08-07T08:08:24Z</time>
      </trkpt>
      <trkpt lat="43.23349" lon="2.22741">
        <ele>121</ele>
        <time>2017-08-07T08:08:35Z</time>
      </trkpt>
      <trkpt lat="43.23355" lon="2.22729">
        <ele>122</ele>
        <time>2017-08-07T08:09:05Z</time>
      </trkpt>
      <trkpt lat="43.23362" lon="2.22713">
        <ele>123.199997</ele>
        <time>2017-08-07T08:09:09Z</time>
      </trkpt>
      <trkpt lat="43.23371" lon="2.22702">
        <ele>124.099998</ele>
        <time>2017-08-07T08:09:12Z</time>
      </trkpt>
      <trkpt lat="43.23379" lon="2.22691">
        <ele>124.800003</ele>
        <time>2017-08-07T08:09:15Z</time>
      </trkpt>
      <trkpt lat="43.23385" lon="2.22678">
        <ele>125.300003</ele>
        <time>2017-08-07T08:09:18Z</time>
      </trkpt>
      <trkpt lat="43.23393" lon="2.22666">
        <ele>126.099998</ele>
        <time>2017-08-07T08:09:21Z</time>
      </trkpt>
      <trkpt lat="43.23397" lon="2.22653">
        <ele>126.099998</ele>
        <time>2017-08-07T08:09:24Z</time>
      </trkpt>
      <trkpt lat="43.23404" lon="2.22643">
        <ele>126.5</ele>
        <time>2017-08-07T08:09:26Z</time>
      </trkpt>
      <trkpt lat="43.23411" lon="2.22634">
        <ele>126.900002</ele>
        <time>2017-08-07T08:09:28Z</time>
      </trkpt>
      <trkpt lat="43.23421" lon="2.2262">
        <ele>128</ele>
        <time>2017-08-07T08:09:31Z</time>
      </trkpt>
      <trkpt lat="43.23428" lon="2.2261">
        <ele>128.600006</ele>
        <time>2017-08-07T08:09:33Z</time>
      </trkpt>
      <trkpt lat="43.23436" lon="2.22596">
        <ele>128.5</ele>
        <time>2017-08-07T08:09:37Z</time>
      </trkpt>
      <trkpt lat="43.23445" lon="2.22586">
        <ele>128.399994</ele>
        <time>2017-08-07T08:09:40Z</time>
      </trkpt>
      <trkpt lat="43.23452" lon="2.22577">
        <ele>128.199997</ele>
        <time>2017-08-07T08:09:43Z</time>
      </trkpt>
      <trkpt lat="43.23462" lon="2.22568">
        <ele>128.5</ele>
        <time>2017-08-07T08:09:46Z</time>
      </trkpt>
      <trkpt lat="43.23471" lon="2.22556">
        <ele>128.600006</ele>
        <time>2017-08-07T08:09:49Z</time>
      </trkpt>
      <trkpt lat="43.23482" lon="2.22547">
        <ele>129.199997</ele>
        <time>2017-08-07T08:09:52Z</time>
      </trkpt>
      <trkpt lat="43.23492" lon="2.22537">
        <ele>129.5</ele>
        <time>2017-08-07T08:09:55Z</time>
      </trkpt>
      <trkpt lat="43.23498" lon="2.22527">
        <ele>129.899994</ele>
        <time>2017-08-07T08:09:58Z</time>
      </trkpt>
      <trkpt lat="43.23505" lon="2.2252">
        <ele>130.699997</ele>
        <time>2017-08-07T08:10:00Z</time>
      </trkpt>
      <trkpt lat="43.23516" lon="2.22511">
        <ele>131.800003</ele>
        <time>2017-08-07T08:10:03Z</time>
      </trkpt>
      <trkpt lat="43.23526" lon="2.225">
        <ele>131.699997</ele>
        <time>2017-08-07T08:10:07Z</time>
      </trkpt>
      <trkpt lat="43.23532" lon="2.22489">
        <ele>131</ele>
        <time>2017-08-07T08:10:10Z</time>
      </trkpt>
      <trkpt lat="43.23542" lon="2.22479">
        <ele>129.300003</ele>
        <time>2017-08-07T08:10:13Z</time>
      </trkpt>
      <trkpt lat="43.23553" lon="2.22471">
        <ele>129.399994</ele>
        <time>2017-08-07T08:10:15Z</time>
      </trkpt>
      <trkpt lat="43.23561" lon="2.2246">
        <ele>130.199997</ele>
        <time>2017-08-07T08:10:18Z</time>
      </trkpt>
      <trkpt lat="43.2357" lon="2.2245">
        <ele>131.100006</ele>
        <time>2017-08-07T08:10:21Z</time>
      </trkpt>
      <trkpt lat="43.23579" lon="2.22441">
        <ele>130.5</ele>
        <time>2017-08-07T08:10:24Z</time>
      </trkpt>
      <trkpt lat="43.23591" lon="2.22431">
        <ele>130.600006</ele>
        <time>2017-08-07T08:10:27Z</time>
      </trkpt>
      <trkpt lat="43.236" lon="2.2242">
        <ele>130.5</ele>
        <time>2017-08-07T08:10:30Z</time>
      </trkpt>
      <trkpt lat="43.23609" lon="2.22412">
        <ele>129.800003</ele>
        <time>2017-08-07T08:10:33Z</time>
      </trkpt>
      <trkpt lat="43.23619" lon="2.22403">
        <ele>128.800003</ele>
        <time>2017-08-07T08:10:36Z</time>
      </trkpt>
      <trkpt lat="43.23629" lon="2.22396">
        <ele>128.5</ele>
        <time>2017-08-07T08:10:39Z</time>
      </trkpt>
      <trkpt lat="43.23639" lon="2.22391">
        <ele>129.199997</ele>
        <time>2017-08-07T08:10:42Z</time>
      </trkpt>
      <trkpt lat="43.2365" lon="2.22385">
        <ele>130.100006</ele>
        <time>2017-08-07T08:10:45Z</time>
      </trkpt>
      <trkpt lat="43.23658" lon="2.22378">
        <ele>130.199997</ele>
        <time>2017-08-07T08:10:49Z</time>
      </trkpt>
      <trkpt lat="43.23667" lon="2.22372">
        <ele>130.300003</ele>
        <time>2017-08-07T08:10:51Z</time>
      </trkpt>
      <trkpt lat="43.23677" lon="2.22363">
        <ele>129.899994</ele>
        <time>2017-08-07T08:10:54Z</time>
      </trkpt>
      <trkpt lat="43.23688" lon="2.22354">
        <ele>129.300003</ele>
        <time>2017-08-07T08:10:57Z</time>
      </trkpt>
      <trkpt lat="43.23698" lon="2.22344">
        <ele>128.5</ele>
        <time>2017-08-07T08:11:00Z</time>
      </trkpt>
      <trkpt lat="43.23708" lon="2.22331">
        <ele>127.599998</ele>
        <time>2017-08-07T08:11:03Z</time>
      </trkpt>
      <trkpt lat="43.23716" lon="2.22324">
        <ele>127.199997</ele>
        <time>2017-08-07T08:11:05Z</time>
      </trkpt>
      <trkpt lat="43.23725" lon="2.22315">
        <ele>126.800003</ele>
        <time>2017-08-07T08:11:08Z</time>
      </trkpt>
      <trkpt lat="43.23735" lon="2.22308">
        <ele>127.099998</ele>
        <time>2017-08-07T08:11:10Z</time>
      </trkpt>
      <trkpt lat="43.23742" lon="2.22295">
        <ele>126.800003</ele>
        <time>2017-08-07T08:11:13Z</time>
      </trkpt>
      <trkpt lat="43.23747" lon="2.22278">
        <ele>126.099998</ele>
        <time>2017-08-07T08:11:16Z</time>
      </trkpt>
      <trkpt lat="43.23754" lon="2.22265">
        <ele>125.699997</ele>
        <time>2017-08-07T08:11:18Z</time>
      </trkpt>
      <trkpt lat="43.2376" lon="2.22254">
        <ele>125.699997</ele>
        <time>2017-08-07T08:11:20Z</time>
      </trkpt>
      <trkpt lat="43.23761" lon="2.22242">
        <ele>125</ele>
        <time>2017-08-07T08:11:24Z</time>
      </trkpt>
      <trkpt lat="43.23766" lon="2.22232">
        <ele>124.699997</ele>
        <time>2017-08-07T08:11:26Z</time>
      </trkpt>
      <trkpt lat="43.23772" lon="2.22221">
        <ele>123.800003</ele>
        <time>2017-08-07T08:11:28Z</time>
      </trkpt>
      <trkpt lat="43.23779" lon="2.22211">
        <ele>123</ele>
        <time>2017-08-07T08:11:30Z</time>
      </trkpt>
      <trkpt lat="43.23786" lon="2.22198">
        <ele>122.300003</ele>
        <time>2017-08-07T08:11:32Z</time>
      </trkpt>
      <trkpt lat="43.23789" lon="2.22183">
        <ele>121.099998</ele>
        <time>2017-08-07T08:11:35Z</time>
      </trkpt>
      <trkpt lat="43.23793" lon="2.22171">
        <ele>120.5</ele>
        <time>2017-08-07T08:11:37Z</time>
      </trkpt>
      <trkpt lat="43.23795" lon="2.22157">
        <ele>119.800003</ele>
        <time>2017-08-07T08:11:39Z</time>
      </trkpt>
      <trkpt lat="43.23796" lon="2.22141">
        <ele>119.099998</ele>
        <time>2017-08-07T08:11:42Z</time>
      </trkpt>
      <trkpt lat="43.23797" lon="2.22127">
        <ele>118.5</ele>
        <time>2017-08-07T08:11:45Z</time>
      </trkpt>
      <trkpt lat="43.23799" lon="2.22112">
        <ele>119.300003</ele>
        <time>2017-08-07T08:11:48Z</time>
      </trkpt>
      <trkpt lat="43.23802" lon="2.22099">
        <ele>120.199997</ele>
        <time>2017-08-07T08:11:50Z</time>
      </trkpt>
      <trkpt lat="43.238" lon="2.22085">
        <ele>119.400002</ele>
        <time>2017-08-07T08:11:53Z</time>
      </trkpt>
      <trkpt lat="43.23796" lon="2.22072">
        <ele>117.5</ele>
        <time>2017-08-07T08:11:55Z</time>
      </trkpt>
      <trkpt lat="43.23792" lon="2.2205">
        <ele>115</ele>
        <time>2017-08-07T08:11:58Z</time>
      </trkpt>
      <trkpt lat="43.23788" lon="2.22035">
        <ele>113</ele>
        <time>2017-08-07T08:12:01Z</time>
      </trkpt>
      <trkpt lat="43.23784" lon="2.22019">
        <ele>111.199997</ele>
        <time>2017-08-07T08:12:04Z</time>
      </trkpt>
      <trkpt lat="43.23779" lon="2.22003">
        <ele>109.699997</ele>
        <time>2017-08-07T08:12:07Z</time>
      </trkpt>
      <trkpt lat="43.23774" lon="2.21992">
        <ele>109.5</ele>
        <time>2017-08-07T08:12:09Z</time>
      </trkpt>
      <trkpt lat="43.23769" lon="2.21977">
        <ele>110.199997</ele>
        <time>2017-08-07T08:12:12Z</time>
      </trkpt>
      <trkpt lat="43.23762" lon="2.21963">
        <ele>112</ele>
        <time>2017-08-07T08:12:15Z</time>
      </trkpt>
      <trkpt lat="43.23756" lon="2.2195">
        <ele>115</ele>
        <time>2017-08-07T08:12:18Z</time>
      </trkpt>
      <trkpt lat="43.23748" lon="2.21942">
        <ele>118.5</ele>
        <time>2017-08-07T08:12:21Z</time>
      </trkpt>
      <trkpt lat="43.23738" lon="2.21934">
        <ele>122.800003</ele>
        <time>2017-08-07T08:12:24Z</time>
      </trkpt>
      <trkpt lat="43.23726" lon="2.21929">
        <ele>124.400002</ele>
        <time>2017-08-07T08:12:27Z</time>
      </trkpt>
      <trkpt lat="43.23715" lon="2.21925">
        <ele>124.900002</ele>
        <time>2017-08-07T08:12:30Z</time>
      </trkpt>
      <trkpt lat="43.23702" lon="2.21923">
        <ele>125.199997</ele>
        <time>2017-08-07T08:12:33Z</time>
      </trkpt>
      <trkpt lat="43.2369" lon="2.21921">
        <ele>124.5</ele>
        <time>2017-08-07T08:12:36Z</time>
      </trkpt>
      <trkpt lat="43.23678" lon="2.2192">
        <ele>123.900002</ele>
        <time>2017-08-07T08:12:39Z</time>
      </trkpt>
      <trkpt lat="43.23665" lon="2.21918">
        <ele>123.099998</ele>
        <time>2017-08-07T08:12:42Z</time>
      </trkpt>
      <trkpt lat="43.23653" lon="2.21912">
        <ele>123.199997</ele>
        <time>2017-08-07T08:12:45Z</time>
      </trkpt>
      <trkpt lat="43.23642" lon="2.21906">
        <ele>123.900002</ele>
        <time>2017-08-07T08:12:48Z</time>
      </trkpt>
      <trkpt lat="43.23634" lon="2.21895">
        <ele>126.199997</ele>
        <time>2017-08-07T08:12:51Z</time>
      </trkpt>
      <trkpt lat="43.23631" lon="2.21878">
        <ele>130.600006</ele>
        <time>2017-08-07T08:12:54Z</time>
      </trkpt>
      <trkpt lat="43.23632" lon="2.21864">
        <ele>131.399994</ele>
        <time>2017-08-07T08:12:57Z</time>
      </trkpt>
      <trkpt lat="43.23638" lon="2.21847">
        <ele>130.5</ele>
        <time>2017-08-07T08:13:00Z</time>
      </trkpt>
      <trkpt lat="43.23644" lon="2.21832">
        <ele>128.899994</ele>
        <time>2017-08-07T08:13:03Z</time>
      </trkpt>
      <trkpt lat="43.2365" lon="2.21817">
        <ele>127.099998</ele>
        <time>2017-08-07T08:13:06Z</time>
      </trkpt>
      <trkpt lat="43.23653" lon="2.218">
        <ele>125.800003</ele>
        <time>2017-08-07T08:13:09Z</time>
      </trkpt>
      <trkpt lat="43.23659" lon="2.21785">
        <ele>124.300003</ele>
        <time>2017-08-07T08:13:12Z</time>
      </trkpt>
      <trkpt lat="43.23665" lon="2.2177">
        <ele>123</ele>
        <time>2017-08-07T08:13:15Z</time>
      </trkpt>
      <trkpt lat="43.2367" lon="2.21753">
        <ele>121.800003</ele>
        <time>2017-08-07T08:13:18Z</time>
      </trkpt>
      <trkpt lat="43.23675" lon="2.21739">
        <ele>120.5</ele>
        <time>2017-08-07T08:13:21Z</time>
      </trkpt>
      <trkpt lat="43.23681" lon="2.21725">
        <ele>120</ele>
        <time>2017-08-07T08:13:24Z</time>
      </trkpt>
      <trkpt lat="43.23686" lon="2.2171">
        <ele>119.699997</ele>
        <time>2017-08-07T08:13:27Z</time>
      </trkpt>
      <trkpt lat="43.23688" lon="2.21694">
        <ele>119</ele>
        <time>2017-08-07T08:13:30Z</time>
      </trkpt>
      <trkpt lat="43.23691" lon="2.21677">
        <ele>117.800003</ele>
        <time>2017-08-07T08:13:33Z</time>
      </trkpt>
      <trkpt lat="43.2369" lon="2.21661">
        <ele>114.699997</ele>
        <time>2017-08-07T08:13:36Z</time>
      </trkpt>
      <trkpt lat="43.23686" lon="2.21645">
        <ele>112.599998</ele>
        <time>2017-08-07T08:13:39Z</time>
      </trkpt>
      <trkpt lat="43.2368" lon="2.21629">
        <ele>113</ele>
        <time>2017-08-07T08:13:42Z</time>
      </trkpt>
      <trkpt lat="43.23674" lon="2.21616">
        <ele>114.199997</ele>
        <time>2017-08-07T08:13:45Z</time>
      </trkpt>
      <trkpt lat="43.23666" lon="2.21606">
        <ele>115.400002</ele>
        <time>2017-08-07T08:13:48Z</time>
      </trkpt>
      <trkpt lat="43.23654" lon="2.21601">
        <ele>117.599998</ele>
        <time>2017-08-07T08:13:51Z</time>
      </trkpt>
      <trkpt lat="43.23642" lon="2.21599">
        <ele>121.800003</ele>
        <time>2017-08-07T08:13:54Z</time>
      </trkpt>
      <trkpt lat="43.23629" lon="2.216">
        <ele>126.599998</ele>
        <time>2017-08-07T08:13:57Z</time>
      </trkpt>
      <trkpt lat="43.23617" lon="2.21601">
        <ele>129.100006</ele>
        <time>2017-08-07T08:14:00Z</time>
      </trkpt>
      <trkpt lat="43.23606" lon="2.21602">
        <ele>129.600006</ele>
        <time>2017-08-07T08:14:03Z</time>
      </trkpt>
      <trkpt lat="43.23595" lon="2.21604">
        <ele>129.800003</ele>
        <time>2017-08-07T08:14:06Z</time>
      </trkpt>
      <trkpt lat="43.23581" lon="2.21605">
        <ele>127.800003</ele>
        <time>2017-08-07T08:14:09Z</time>
      </trkpt>
      <trkpt lat="43.23569" lon="2.21603">
        <ele>125.599998</ele>
        <time>2017-08-07T08:14:12Z</time>
      </trkpt>
      <trkpt lat="43.23556" lon="2.21597">
        <ele>124.099998</ele>
        <time>2017-08-07T08:14:15Z</time>
      </trkpt>
      <trkpt lat="43.23547" lon="2.21594">
        <ele>123.400002</ele>
        <time>2017-08-07T08:14:17Z</time>
      </trkpt>
      <trkpt lat="43.23536" lon="2.21585">
        <ele>123.099998</ele>
        <time>2017-08-07T08:14:20Z</time>
      </trkpt>
      <trkpt lat="43.23528" lon="2.21573">
        <ele>123.699997</ele>
        <time>2017-08-07T08:14:23Z</time>
      </trkpt>
      <trkpt lat="43.23522" lon="2.2156">
        <ele>124.400002</ele>
        <time>2017-08-07T08:14:25Z</time>
      </trkpt>
      <trkpt lat="43.2352" lon="2.21543">
        <ele>125.800003</ele>
        <time>2017-08-07T08:14:28Z</time>
      </trkpt>
      <trkpt lat="43.23518" lon="2.2153">
        <ele>126.300003</ele>
        <time>2017-08-07T08:14:30Z</time>
      </trkpt>
      <trkpt lat="43.23517" lon="2.21514">
        <ele>126.800003</ele>
        <time>2017-08-07T08:14:33Z</time>
      </trkpt>
      <trkpt lat="43.2352" lon="2.21499">
        <ele>129.699997</ele>
        <time>2017-08-07T08:14:37Z</time>
      </trkpt>
      <trkpt lat="43.23522" lon="2.21482">
        <ele>133.399994</ele>
        <time>2017-08-07T08:14:40Z</time>
      </trkpt>
      <trkpt lat="43.23524" lon="2.21468">
        <ele>137.399994</ele>
        <time>2017-08-07T08:14:42Z</time>
      </trkpt>
      <trkpt lat="43.23528" lon="2.21453">
        <ele>141.800003</ele>
        <time>2017-08-07T08:14:45Z</time>
      </trkpt>
      <trkpt lat="43.2353" lon="2.2144">
        <ele>144.300003</ele>
        <time>2017-08-07T08:14:48Z</time>
      </trkpt>
      <trkpt lat="43.23538" lon="2.21426">
        <ele>147.800003</ele>
        <time>2017-08-07T08:14:52Z</time>
      </trkpt>
      <trkpt lat="43.23547" lon="2.21411">
        <ele>149.399994</ele>
        <time>2017-08-07T08:14:55Z</time>
      </trkpt>
      <trkpt lat="43.23553" lon="2.214">
        <ele>148.699997</ele>
        <time>2017-08-07T08:14:58Z</time>
      </trkpt>
      <trkpt lat="43.2356" lon="2.2139">
        <ele>147.199997</ele>
        <time>2017-08-07T08:15:01Z</time>
      </trkpt>
      <trkpt lat="43.23568" lon="2.21381">
        <ele>146.300003</ele>
        <time>2017-08-07T08:15:08Z</time>
      </trkpt>
      <trkpt lat="43.23576" lon="2.21372">
        <ele>145.399994</ele>
        <time>2017-08-07T08:15:13Z</time>
      </trkpt>
      <trkpt lat="43.23585" lon="2.21367">
        <ele>144.399994</ele>
        <time>2017-08-07T08:15:16Z</time>
      </trkpt>
      <trkpt lat="43.23592" lon="2.21359">
        <ele>143</ele>
        <time>2017-08-07T08:15:19Z</time>
      </trkpt>
      <trkpt lat="43.23602" lon="2.21349">
        <ele>140.699997</ele>
        <time>2017-08-07T08:15:22Z</time>
      </trkpt>
      <trkpt lat="43.23611" lon="2.2134">
        <ele>137.800003</ele>
        <time>2017-08-07T08:15:25Z</time>
      </trkpt>
      <trkpt lat="43.23618" lon="2.21333">
        <ele>135.800003</ele>
        <time>2017-08-07T08:15:28Z</time>
      </trkpt>
      <trkpt lat="43.23624" lon="2.21322">
        <ele>134.399994</ele>
        <time>2017-08-07T08:15:31Z</time>
      </trkpt>
      <trkpt lat="43.2363" lon="2.2131">
        <ele>134.399994</ele>
        <time>2017-08-07T08:15:34Z</time>
      </trkpt>
      <trkpt lat="43.23641" lon="2.21304">
        <ele>135.600006</ele>
        <time>2017-08-07T08:15:37Z</time>
      </trkpt>
      <trkpt lat="43.2365" lon="2.21299">
        <ele>136.800003</ele>
        <time>2017-08-07T08:15:40Z</time>
      </trkpt>
      <trkpt lat="43.23659" lon="2.2129">
        <ele>138.100006</ele>
        <time>2017-08-07T08:15:43Z</time>
      </trkpt>
      <trkpt lat="43.23667" lon="2.2128">
        <ele>139.300003</ele>
        <time>2017-08-07T08:15:46Z</time>
      </trkpt>
      <trkpt lat="43.23676" lon="2.21269">
        <ele>140.800003</ele>
        <time>2017-08-07T08:15:49Z</time>
      </trkpt>
      <trkpt lat="43.23683" lon="2.21253">
        <ele>140.5</ele>
        <time>2017-08-07T08:15:52Z</time>
      </trkpt>
      <trkpt lat="43.23685" lon="2.2124">
        <ele>138.800003</ele>
        <time>2017-08-07T08:15:55Z</time>
      </trkpt>
      <trkpt lat="43.23689" lon="2.21226">
        <ele>136.5</ele>
        <time>2017-08-07T08:15:58Z</time>
      </trkpt>
      <trkpt lat="43.23692" lon="2.21211">
        <ele>133.5</ele>
        <time>2017-08-07T08:16:01Z</time>
      </trkpt>
      <trkpt lat="43.23699" lon="2.21196">
        <ele>133.100006</ele>
        <time>2017-08-07T08:16:04Z</time>
      </trkpt>
      <trkpt lat="43.23703" lon="2.21182">
        <ele>133.199997</ele>
        <time>2017-08-07T08:16:07Z</time>
      </trkpt>
      <trkpt lat="43.23706" lon="2.21166">
        <ele>134.300003</ele>
        <time>2017-08-07T08:16:11Z</time>
      </trkpt>
      <trkpt lat="43.23709" lon="2.21152">
        <ele>134.800003</ele>
        <time>2017-08-07T08:16:14Z</time>
      </trkpt>
      <trkpt lat="43.23712" lon="2.21139">
        <ele>133.300003</ele>
        <time>2017-08-07T08:16:17Z</time>
      </trkpt>
      <trkpt lat="43.23716" lon="2.21126">
        <ele>131.899994</ele>
        <time>2017-08-07T08:16:20Z</time>
      </trkpt>
      <trkpt lat="43.23719" lon="2.2111">
        <ele>131.300003</ele>
        <time>2017-08-07T08:16:23Z</time>
      </trkpt>
      <trkpt lat="43.23722" lon="2.21094">
        <ele>130.899994</ele>
        <time>2017-08-07T08:16:26Z</time>
      </trkpt>
      <trkpt lat="43.23726" lon="2.21082">
        <ele>130.699997</ele>
        <time>2017-08-07T08:16:28Z</time>
      </trkpt>
      <trkpt lat="43.23729" lon="2.21068">
        <ele>130.399994</ele>
        <time>2017-08-07T08:16:31Z</time>
      </trkpt>
      <trkpt lat="43.23732" lon="2.21053">
        <ele>130.100006</ele>
        <time>2017-08-07T08:16:34Z</time>
      </trkpt>
      <trkpt lat="43.23736" lon="2.21039">
        <ele>130.199997</ele>
        <time>2017-08-07T08:16:37Z</time>
      </trkpt>
      <trkpt lat="43.23739" lon="2.21023">
        <ele>132.399994</ele>
        <time>2017-08-07T08:16:40Z</time>
      </trkpt>
      <trkpt lat="43.23742" lon="2.21009">
        <ele>133.699997</ele>
        <time>2017-08-07T08:16:43Z</time>
      </trkpt>
      <trkpt lat="43.23745" lon="2.20994">
        <ele>132.899994</ele>
        <time>2017-08-07T08:16:46Z</time>
      </trkpt>
      <trkpt lat="43.23749" lon="2.20979">
        <ele>132</ele>
        <time>2017-08-07T08:16:49Z</time>
      </trkpt>
      <trkpt lat="43.23754" lon="2.20964">
        <ele>130.699997</ele>
        <time>2017-08-07T08:16:52Z</time>
      </trkpt>
      <trkpt lat="43.23759" lon="2.20948">
        <ele>129.699997</ele>
        <time>2017-08-07T08:16:55Z</time>
      </trkpt>
      <trkpt lat="43.23762" lon="2.20933">
        <ele>129.699997</ele>
        <time>2017-08-07T08:16:58Z</time>
      </trkpt>
      <trkpt lat="43.23766" lon="2.2092">
        <ele>129.699997</ele>
        <time>2017-08-07T08:17:01Z</time>
      </trkpt>
      <trkpt lat="43.23772" lon="2.20905">
        <ele>129.399994</ele>
        <time>2017-08-07T08:17:04Z</time>
      </trkpt>
      <trkpt lat="43.23776" lon="2.2089">
        <ele>128</ele>
        <time>2017-08-07T08:17:07Z</time>
      </trkpt>
      <trkpt lat="43.23781" lon="2.20876">
        <ele>126.300003</ele>
        <time>2017-08-07T08:17:10Z</time>
      </trkpt>
      <trkpt lat="43.23787" lon="2.20859">
        <ele>123.900002</ele>
        <time>2017-08-07T08:17:13Z</time>
      </trkpt>
      <trkpt lat="43.23793" lon="2.20843">
        <ele>121.599998</ele>
        <time>2017-08-07T08:17:16Z</time>
      </trkpt>
      <trkpt lat="43.23797" lon="2.20828">
        <ele>118.699997</ele>
        <time>2017-08-07T08:17:19Z</time>
      </trkpt>
      <trkpt lat="43.238" lon="2.20812">
        <ele>116.900002</ele>
        <time>2017-08-07T08:17:22Z</time>
      </trkpt>
      <trkpt lat="43.238" lon="2.20794">
        <ele>115.699997</ele>
        <time>2017-08-07T08:17:25Z</time>
      </trkpt>
      <trkpt lat="43.23799" lon="2.20777">
        <ele>114.099998</ele>
        <time>2017-08-07T08:17:28Z</time>
      </trkpt>
      <trkpt lat="43.23797" lon="2.20761">
        <ele>112.699997</ele>
        <time>2017-08-07T08:17:31Z</time>
      </trkpt>
      <trkpt lat="43.23791" lon="2.20745">
        <ele>111.900002</ele>
        <time>2017-08-07T08:17:34Z</time>
      </trkpt>
      <trkpt lat="43.23782" lon="2.20732">
        <ele>113.5</ele>
        <time>2017-08-07T08:17:37Z</time>
      </trkpt>
      <trkpt lat="43.23772" lon="2.20723">
        <ele>116.099998</ele>
        <time>2017-08-07T08:17:40Z</time>
      </trkpt>
      <trkpt lat="43.2376" lon="2.20717">
        <ele>118.5</ele>
        <time>2017-08-07T08:17:43Z</time>
      </trkpt>
      <trkpt lat="43.23748" lon="2.20713">
        <ele>119.5</ele>
        <time>2017-08-07T08:17:46Z</time>
      </trkpt>
      <trkpt lat="43.23735" lon="2.20709">
        <ele>120.199997</ele>
        <time>2017-08-07T08:17:49Z</time>
      </trkpt>
      <trkpt lat="43.23723" lon="2.20706">
        <ele>122.199997</ele>
        <time>2017-08-07T08:17:52Z</time>
      </trkpt>
      <trkpt lat="43.23709" lon="2.20703">
        <ele>124.599998</ele>
        <time>2017-08-07T08:17:55Z</time>
      </trkpt>
      <trkpt lat="43.237" lon="2.20702">
        <ele>125.900002</ele>
        <time>2017-08-07T08:17:57Z</time>
      </trkpt>
      <trkpt lat="43.23688" lon="2.20697">
        <ele>126.699997</ele>
        <time>2017-08-07T08:18:00Z</time>
      </trkpt>
      <trkpt lat="43.23676" lon="2.20692">
        <ele>126.5</ele>
        <time>2017-08-07T08:18:03Z</time>
      </trkpt>
      <trkpt lat="43.23664" lon="2.2069">
        <ele>125.800003</ele>
        <time>2017-08-07T08:18:06Z</time>
      </trkpt>
      <trkpt lat="43.23653" lon="2.20686">
        <ele>124.699997</ele>
        <time>2017-08-07T08:18:09Z</time>
      </trkpt>
      <trkpt lat="43.23644" lon="2.20684">
        <ele>124.800003</ele>
        <time>2017-08-07T08:18:11Z</time>
      </trkpt>
      <trkpt lat="43.23632" lon="2.2068">
        <ele>125.199997</ele>
        <time>2017-08-07T08:18:14Z</time>
      </trkpt>
      <trkpt lat="43.2362" lon="2.20675">
        <ele>125.400002</ele>
        <time>2017-08-07T08:18:17Z</time>
      </trkpt>
      <trkpt lat="43.23608" lon="2.20672">
        <ele>125.400002</ele>
        <time>2017-08-07T08:18:20Z</time>
      </trkpt>
      <trkpt lat="43.23598" lon="2.20669">
        <ele>125.400002</ele>
        <time>2017-08-07T08:18:22Z</time>
      </trkpt>
      <trkpt lat="43.23588" lon="2.20665">
        <ele>124.900002</ele>
        <time>2017-08-07T08:18:25Z</time>
      </trkpt>
      <trkpt lat="43.23579" lon="2.20663">
        <ele>124.199997</ele>
        <time>2017-08-07T08:18:29Z</time>
      </trkpt>
      <trkpt lat="43.2357" lon="2.20658">
        <ele>122.699997</ele>
        <time>2017-08-07T08:19:57Z</time>
      </trkpt>
      <trkpt lat="43.2356" lon="2.20657">
        <ele>123.599998</ele>
        <time>2017-08-07T08:20:01Z</time>
      </trkpt>
      <trkpt lat="43.2355" lon="2.2066">
        <ele>125.599998</ele>
        <time>2017-08-07T08:20:05Z</time>
      </trkpt>
      <trkpt lat="43.23538" lon="2.20661">
        <ele>126.900002</ele>
        <time>2017-08-07T08:20:09Z</time>
      </trkpt>
      <trkpt lat="43.23527" lon="2.20665">
        <ele>127.400002</ele>
        <time>2017-08-07T08:20:11Z</time>
      </trkpt>
      <trkpt lat="43.23516" lon="2.20668">
        <ele>127.699997</ele>
        <time>2017-08-07T08:20:13Z</time>
      </trkpt>
      <trkpt lat="43.23505" lon="2.20672">
        <ele>128.899994</ele>
        <time>2017-08-07T08:20:16Z</time>
      </trkpt>
      <trkpt lat="43.23495" lon="2.20675">
        <ele>130.199997</ele>
        <time>2017-08-07T08:20:18Z</time>
      </trkpt>
      <trkpt lat="43.23485" lon="2.20678">
        <ele>131.300003</ele>
        <time>2017-08-07T08:20:20Z</time>
      </trkpt>
      <trkpt lat="43.23476" lon="2.2068">
        <ele>131.300003</ele>
        <time>2017-08-07T08:20:22Z</time>
      </trkpt>
      <trkpt lat="43.23464" lon="2.20683">
        <ele>131</ele>
        <time>2017-08-07T08:20:25Z</time>
      </trkpt>
      <trkpt lat="43.23451" lon="2.20685">
        <ele>129.199997</ele>
        <time>2017-08-07T08:20:28Z</time>
      </trkpt>
      <trkpt lat="43.23439" lon="2.20683">
        <ele>125.699997</ele>
        <time>2017-08-07T08:20:31Z</time>
      </trkpt>
      <trkpt lat="43.23427" lon="2.2068">
        <ele>123</ele>
        <time>2017-08-07T08:20:34Z</time>
      </trkpt>
      <trkpt lat="43.23415" lon="2.20672">
        <ele>122.900002</ele>
        <time>2017-08-07T08:20:37Z</time>
      </trkpt>
      <trkpt lat="43.23405" lon="2.20661">
        <ele>123.900002</ele>
        <time>2017-08-07T08:20:40Z</time>
      </trkpt>
      <trkpt lat="43.23398" lon="2.20647">
        <ele>124.599998</ele>
        <time>2017-08-07T08:20:43Z</time>
      </trkpt>
      <trkpt lat="43.2339" lon="2.20633">
        <ele>124.599998</ele>
        <time>2017-08-07T08:20:46Z</time>
      </trkpt>
      <trkpt lat="43.23383" lon="2.20619">
        <ele>125.5</ele>
        <time>2017-08-07T08:20:49Z</time>
      </trkpt>
      <trkpt lat="43.23376" lon="2.20611">
        <ele>126.199997</ele>
        <time>2017-08-07T08:20:51Z</time>
      </trkpt>
      <trkpt lat="43.23371" lon="2.206">
        <ele>126.699997</ele>
        <time>2017-08-07T08:20:53Z</time>
      </trkpt>
      <trkpt lat="43.23364" lon="2.20586">
        <ele>127.199997</ele>
        <time>2017-08-07T08:20:56Z</time>
      </trkpt>
      <trkpt lat="43.23359" lon="2.20571">
        <ele>128.300003</ele>
        <time>2017-08-07T08:20:59Z</time>
      </trkpt>
      <trkpt lat="43.23353" lon="2.20555">
        <ele>129.399994</ele>
        <time>2017-08-07T08:21:02Z</time>
      </trkpt>
      <trkpt lat="43.23345" lon="2.20541">
        <ele>130.600006</ele>
        <time>2017-08-07T08:21:05Z</time>
      </trkpt>
      <trkpt lat="43.23337" lon="2.20527">
        <ele>129.100006</ele>
        <time>2017-08-07T08:21:08Z</time>
      </trkpt>
      <trkpt lat="43.23332" lon="2.20517">
        <ele>127.599998</ele>
        <time>2017-08-07T08:21:10Z</time>
      </trkpt>
      <trkpt lat="43.23326" lon="2.20506">
        <ele>126.099998</ele>
        <time>2017-08-07T08:21:12Z</time>
      </trkpt>
      <trkpt lat="43.23318" lon="2.20493">
        <ele>123.400002</ele>
        <time>2017-08-07T08:21:15Z</time>
      </trkpt>
      <trkpt lat="43.23313" lon="2.20479">
        <ele>121.400002</ele>
        <time>2017-08-07T08:21:18Z</time>
      </trkpt>
      <trkpt lat="43.23311" lon="2.20465">
        <ele>120.699997</ele>
        <time>2017-08-07T08:21:21Z</time>
      </trkpt>
      <trkpt lat="43.23306" lon="2.20452">
        <ele>120.300003</ele>
        <time>2017-08-07T08:21:25Z</time>
      </trkpt>
      <trkpt lat="43.23303" lon="2.20437">
        <ele>121.300003</ele>
        <time>2017-08-07T08:21:30Z</time>
      </trkpt>
      <trkpt lat="43.23297" lon="2.20426">
        <ele>120.5</ele>
        <time>2017-08-07T08:21:34Z</time>
      </trkpt>
      <trkpt lat="43.23296" lon="2.20413">
        <ele>120.5</ele>
        <time>2017-08-07T08:21:37Z</time>
      </trkpt>
      <trkpt lat="43.23295" lon="2.204">
        <ele>120.800003</ele>
        <time>2017-08-07T08:21:40Z</time>
      </trkpt>
      <trkpt lat="43.23291" lon="2.20387">
        <ele>120.599998</ele>
        <time>2017-08-07T08:21:43Z</time>
      </trkpt>
      <trkpt lat="43.23297" lon="2.20373">
        <ele>121.800003</ele>
        <time>2017-08-07T08:21:46Z</time>
      </trkpt>
      <trkpt lat="43.23298" lon="2.2036">
        <ele>122.599998</ele>
        <time>2017-08-07T08:21:49Z</time>
      </trkpt>
      <trkpt lat="43.23303" lon="2.20344">
        <ele>123.900002</ele>
        <time>2017-08-07T08:21:52Z</time>
      </trkpt>
      <trkpt lat="43.23304" lon="2.20331">
        <ele>124.199997</ele>
        <time>2017-08-07T08:21:54Z</time>
      </trkpt>
      <trkpt lat="43.23306" lon="2.20318">
        <ele>124.5</ele>
        <time>2017-08-07T08:21:57Z</time>
      </trkpt>
      <trkpt lat="43.23312" lon="2.20305">
        <ele>125.400002</ele>
        <time>2017-08-07T08:22:00Z</time>
      </trkpt>
      <trkpt lat="43.23314" lon="2.20291">
        <ele>125.400002</ele>
        <time>2017-08-07T08:22:03Z</time>
      </trkpt>
      <trkpt lat="43.23314" lon="2.20275">
        <ele>125.900002</ele>
        <time>2017-08-07T08:22:05Z</time>
      </trkpt>
      <trkpt lat="43.23315" lon="2.20261">
        <ele>126.800003</ele>
        <time>2017-08-07T08:22:07Z</time>
      </trkpt>
      <trkpt lat="43.2332" lon="2.20247">
        <ele>129.100006</ele>
        <time>2017-08-07T08:22:10Z</time>
      </trkpt>
      <trkpt lat="43.23321" lon="2.20234">
        <ele>130.899994</ele>
        <time>2017-08-07T08:22:12Z</time>
      </trkpt>
      <trkpt lat="43.23322" lon="2.20221">
        <ele>132</ele>
        <time>2017-08-07T08:22:14Z</time>
      </trkpt>
      <trkpt lat="43.23323" lon="2.20206">
        <ele>132.899994</ele>
        <time>2017-08-07T08:22:17Z</time>
      </trkpt>
      <trkpt lat="43.23327" lon="2.20189">
        <ele>132.5</ele>
        <time>2017-08-07T08:22:20Z</time>
      </trkpt>
      <trkpt lat="43.23328" lon="2.20176">
        <ele>132.100006</ele>
        <time>2017-08-07T08:22:22Z</time>
      </trkpt>
      <trkpt lat="43.2333" lon="2.20163">
        <ele>132.100006</ele>
        <time>2017-08-07T08:22:24Z</time>
      </trkpt>
      <trkpt lat="43.23332" lon="2.20147">
        <ele>132.699997</ele>
        <time>2017-08-07T08:22:27Z</time>
      </trkpt>
      <trkpt lat="43.23333" lon="2.20129">
        <ele>134.699997</ele>
        <time>2017-08-07T08:22:30Z</time>
      </trkpt>
      <trkpt lat="43.23337" lon="2.20113">
        <ele>136.199997</ele>
        <time>2017-08-07T08:22:34Z</time>
      </trkpt>
      <trkpt lat="43.23342" lon="2.20102">
        <ele>137.199997</ele>
        <time>2017-08-07T08:22:36Z</time>
      </trkpt>
      <trkpt lat="43.23341" lon="2.20085">
        <ele>136.600006</ele>
        <time>2017-08-07T08:22:38Z</time>
      </trkpt>
      <trkpt lat="43.23349" lon="2.20072">
        <ele>137.100006</ele>
        <time>2017-08-07T08:22:40Z</time>
      </trkpt>
      <trkpt lat="43.23354" lon="2.20061">
        <ele>136.699997</ele>
        <time>2017-08-07T08:22:42Z</time>
      </trkpt>
      <trkpt lat="43.23364" lon="2.20045">
        <ele>135.699997</ele>
        <time>2017-08-07T08:22:45Z</time>
      </trkpt>
      <trkpt lat="43.2337" lon="2.20033">
        <ele>135.100006</ele>
        <time>2017-08-07T08:22:48Z</time>
      </trkpt>
      <trkpt lat="43.23376" lon="2.20022">
        <ele>134.5</ele>
        <time>2017-08-07T08:22:51Z</time>
      </trkpt>
      <trkpt lat="43.23372" lon="2.20007">
        <ele>133.199997</ele>
        <time>2017-08-07T08:22:53Z</time>
      </trkpt>
      <trkpt lat="43.23377" lon="2.19994">
        <ele>131.199997</ele>
        <time>2017-08-07T08:22:56Z</time>
      </trkpt>
      <trkpt lat="43.23379" lon="2.19977">
        <ele>128.399994</ele>
        <time>2017-08-07T08:22:59Z</time>
      </trkpt>
      <trkpt lat="43.23384" lon="2.19964">
        <ele>126.400002</ele>
        <time>2017-08-07T08:23:03Z</time>
      </trkpt>
      <trkpt lat="43.23388" lon="2.19951">
        <ele>125.5</ele>
        <time>2017-08-07T08:23:07Z</time>
      </trkpt>
      <trkpt lat="43.23394" lon="2.1994">
        <ele>125.5</ele>
        <time>2017-08-07T08:23:10Z</time>
      </trkpt>
      <trkpt lat="43.23402" lon="2.19929">
        <ele>125.800003</ele>
        <time>2017-08-07T08:23:13Z</time>
      </trkpt>
      <trkpt lat="43.23411" lon="2.19915">
        <ele>126.400002</ele>
        <time>2017-08-07T08:23:16Z</time>
      </trkpt>
      <trkpt lat="43.23415" lon="2.19904">
        <ele>126.800003</ele>
        <time>2017-08-07T08:23:19Z</time>
      </trkpt>
      <trkpt lat="43.23421" lon="2.19888">
        <ele>127.900002</ele>
        <time>2017-08-07T08:23:22Z</time>
      </trkpt>
      <trkpt lat="43.23428" lon="2.19871">
        <ele>129.399994</ele>
        <time>2017-08-07T08:23:25Z</time>
      </trkpt>
      <trkpt lat="43.23432" lon="2.19859">
        <ele>130.199997</ele>
        <time>2017-08-07T08:23:27Z</time>
      </trkpt>
      <trkpt lat="43.23438" lon="2.19843">
        <ele>131.300003</ele>
        <time>2017-08-07T08:23:30Z</time>
      </trkpt>
      <trkpt lat="43.23443" lon="2.19825">
        <ele>132.399994</ele>
        <time>2017-08-07T08:23:33Z</time>
      </trkpt>
      <trkpt lat="43.23447" lon="2.19812">
        <ele>133.199997</ele>
        <time>2017-08-07T08:23:35Z</time>
      </trkpt>
      <trkpt lat="43.23452" lon="2.19801">
        <ele>133.699997</ele>
        <time>2017-08-07T08:23:37Z</time>
      </trkpt>
      <trkpt lat="43.23457" lon="2.19789">
        <ele>134.300003</ele>
        <time>2017-08-07T08:23:39Z</time>
      </trkpt>
      <trkpt lat="43.23461" lon="2.19774">
        <ele>134</ele>
        <time>2017-08-07T08:23:42Z</time>
      </trkpt>
      <trkpt lat="43.23464" lon="2.19759">
        <ele>133.100006</ele>
        <time>2017-08-07T08:23:45Z</time>
      </trkpt>
      <trkpt lat="43.23465" lon="2.19743">
        <ele>132</ele>
        <time>2017-08-07T08:23:47Z</time>
      </trkpt>
      <trkpt lat="43.23466" lon="2.1973">
        <ele>130.399994</ele>
        <time>2017-08-07T08:23:50Z</time>
      </trkpt>
      <trkpt lat="43.23473" lon="2.19717">
        <ele>129</ele>
        <time>2017-08-07T08:23:53Z</time>
      </trkpt>
      <trkpt lat="43.23476" lon="2.19697">
        <ele>127.5</ele>
        <time>2017-08-07T08:23:56Z</time>
      </trkpt>
      <trkpt lat="43.23482" lon="2.19687">
        <ele>127.599998</ele>
        <time>2017-08-07T08:23:58Z</time>
      </trkpt>
      <trkpt lat="43.23488" lon="2.19673">
        <ele>127.400002</ele>
        <time>2017-08-07T08:24:00Z</time>
      </trkpt>
      <trkpt lat="43.23488" lon="2.19659">
        <ele>126.199997</ele>
        <time>2017-08-07T08:24:03Z</time>
      </trkpt>
      <trkpt lat="43.23495" lon="2.1965">
        <ele>126.5</ele>
        <time>2017-08-07T08:24:05Z</time>
      </trkpt>
      <trkpt lat="43.23496" lon="2.19637">
        <ele>126.400002</ele>
        <time>2017-08-07T08:24:07Z</time>
      </trkpt>
      <trkpt lat="43.23499" lon="2.19624">
        <ele>126.400002</ele>
        <time>2017-08-07T08:24:10Z</time>
      </trkpt>
      <trkpt lat="43.23505" lon="2.19611">
        <ele>126.800003</ele>
        <time>2017-08-07T08:24:12Z</time>
      </trkpt>
      <trkpt lat="43.23508" lon="2.19596">
        <ele>126.900002</ele>
        <time>2017-08-07T08:24:14Z</time>
      </trkpt>
      <trkpt lat="43.23512" lon="2.19581">
        <ele>127.400002</ele>
        <time>2017-08-07T08:24:17Z</time>
      </trkpt>
      <trkpt lat="43.23515" lon="2.19564">
        <ele>127.900002</ele>
        <time>2017-08-07T08:24:20Z</time>
      </trkpt>
      <trkpt lat="43.23517" lon="2.1955">
        <ele>127.699997</ele>
        <time>2017-08-07T08:24:24Z</time>
      </trkpt>
      <trkpt lat="43.23517" lon="2.19531">
        <ele>127.400002</ele>
        <time>2017-08-07T08:24:27Z</time>
      </trkpt>
      <trkpt lat="43.23519" lon="2.19517">
        <ele>127.699997</ele>
        <time>2017-08-07T08:24:30Z</time>
      </trkpt>
      <trkpt lat="43.23518" lon="2.19502">
        <ele>127.599998</ele>
        <time>2017-08-07T08:24:32Z</time>
      </trkpt>
      <trkpt lat="43.2352" lon="2.19488">
        <ele>128.100006</ele>
        <time>2017-08-07T08:24:34Z</time>
      </trkpt>
      <trkpt lat="43.23521" lon="2.19471">
        <ele>128.399994</ele>
        <time>2017-08-07T08:24:37Z</time>
      </trkpt>
      <trkpt lat="43.23521" lon="2.19455">
        <ele>128.399994</ele>
        <time>2017-08-07T08:24:40Z</time>
      </trkpt>
      <trkpt lat="43.23521" lon="2.19439">
        <ele>128.100006</ele>
        <time>2017-08-07T08:24:43Z</time>
      </trkpt>
      <trkpt lat="43.23523" lon="2.19426">
        <ele>128.100006</ele>
        <time>2017-08-07T08:24:45Z</time>
      </trkpt>
      <trkpt lat="43.23524" lon="2.19409">
        <ele>128</ele>
        <time>2017-08-07T08:24:47Z</time>
      </trkpt>
      <trkpt lat="43.23522" lon="2.19392">
        <ele>128</ele>
        <time>2017-08-07T08:24:50Z</time>
      </trkpt>
      <trkpt lat="43.23523" lon="2.19376">
        <ele>128.800003</ele>
        <time>2017-08-07T08:24:53Z</time>
      </trkpt>
      <trkpt lat="43.23518" lon="2.19361">
        <ele>129.300003</ele>
        <time>2017-08-07T08:24:56Z</time>
      </trkpt>
      <trkpt lat="43.23515" lon="2.19341">
        <ele>130.300003</ele>
        <time>2017-08-07T08:24:59Z</time>
      </trkpt>
      <trkpt lat="43.2351" lon="2.19329">
        <ele>130.5</ele>
        <time>2017-08-07T08:25:01Z</time>
      </trkpt>
      <trkpt lat="43.23504" lon="2.19317">
        <ele>130.300003</ele>
        <time>2017-08-07T08:25:04Z</time>
      </trkpt>
      <trkpt lat="43.23502" lon="2.19302">
        <ele>131</ele>
        <time>2017-08-07T08:25:07Z</time>
      </trkpt>
      <trkpt lat="43.23499" lon="2.1929">
        <ele>131.399994</ele>
        <time>2017-08-07T08:25:09Z</time>
      </trkpt>
      <trkpt lat="43.23501" lon="2.19277">
        <ele>131.5</ele>
        <time>2017-08-07T08:25:11Z</time>
      </trkpt>
      <trkpt lat="43.23498" lon="2.19263">
        <ele>131.399994</ele>
        <time>2017-08-07T08:25:14Z</time>
      </trkpt>
      <trkpt lat="43.23496" lon="2.1925">
        <ele>130.699997</ele>
        <time>2017-08-07T08:25:17Z</time>
      </trkpt>
      <trkpt lat="43.23495" lon="2.19234">
        <ele>130.100006</ele>
        <time>2017-08-07T08:25:20Z</time>
      </trkpt>
      <trkpt lat="43.23492" lon="2.19219">
        <ele>130.699997</ele>
        <time>2017-08-07T08:25:23Z</time>
      </trkpt>
      <trkpt lat="43.23492" lon="2.19204">
        <ele>131.300003</ele>
        <time>2017-08-07T08:25:26Z</time>
      </trkpt>
      <trkpt lat="43.23497" lon="2.19192">
        <ele>131.899994</ele>
        <time>2017-08-07T08:25:28Z</time>
      </trkpt>
      <trkpt lat="43.23496" lon="2.19177">
        <ele>132.399994</ele>
        <time>2017-08-07T08:25:31Z</time>
      </trkpt>
      <trkpt lat="43.23498" lon="2.19161">
        <ele>132.5</ele>
        <time>2017-08-07T08:25:34Z</time>
      </trkpt>
      <trkpt lat="43.23499" lon="2.19146">
        <ele>132.699997</ele>
        <time>2017-08-07T08:25:36Z</time>
      </trkpt>
      <trkpt lat="43.23502" lon="2.19131">
        <ele>133.199997</ele>
        <time>2017-08-07T08:25:38Z</time>
      </trkpt>
      <trkpt lat="43.23505" lon="2.19117">
        <ele>134.100006</ele>
        <time>2017-08-07T08:25:40Z</time>
      </trkpt>
      <trkpt lat="43.23507" lon="2.19103">
        <ele>135.100006</ele>
        <time>2017-08-07T08:25:42Z</time>
      </trkpt>
      <trkpt lat="43.23511" lon="2.19085">
        <ele>136.399994</ele>
        <time>2017-08-07T08:25:45Z</time>
      </trkpt>
      <trkpt lat="43.23515" lon="2.19073">
        <ele>137.5</ele>
        <time>2017-08-07T08:25:47Z</time>
      </trkpt>
      <trkpt lat="43.23518" lon="2.1906">
        <ele>136.5</ele>
        <time>2017-08-07T08:25:49Z</time>
      </trkpt>
      <trkpt lat="43.23521" lon="2.19048">
        <ele>134.699997</ele>
        <time>2017-08-07T08:25:51Z</time>
      </trkpt>
      <trkpt lat="43.23526" lon="2.19031">
        <ele>132.600006</ele>
        <time>2017-08-07T08:25:54Z</time>
      </trkpt>
      <trkpt lat="43.23531" lon="2.19021">
        <ele>131.399994</ele>
        <time>2017-08-07T08:25:56Z</time>
      </trkpt>
      <trkpt lat="43.23535" lon="2.19002">
        <ele>129.899994</ele>
        <time>2017-08-07T08:25:59Z</time>
      </trkpt>
      <trkpt lat="43.23541" lon="2.18987">
        <ele>129.100006</ele>
        <time>2017-08-07T08:26:02Z</time>
      </trkpt>
      <trkpt lat="43.23547" lon="2.1897">
        <ele>127.800003</ele>
        <time>2017-08-07T08:26:05Z</time>
      </trkpt>
      <trkpt lat="43.23553" lon="2.18957">
        <ele>126.599998</ele>
        <time>2017-08-07T08:26:08Z</time>
      </trkpt>
      <trkpt lat="43.23561" lon="2.18946">
        <ele>125.099998</ele>
        <time>2017-08-07T08:26:11Z</time>
      </trkpt>
      <trkpt lat="43.23564" lon="2.18932">
        <ele>123.599998</ele>
        <time>2017-08-07T08:26:14Z</time>
      </trkpt>
      <trkpt lat="43.23566" lon="2.1892">
        <ele>122.699997</ele>
        <time>2017-08-07T08:26:17Z</time>
      </trkpt>
      <trkpt lat="43.23568" lon="2.18908">
        <ele>122.199997</ele>
        <time>2017-08-07T08:26:19Z</time>
      </trkpt>
      <trkpt lat="43.23569" lon="2.18894">
        <ele>121.699997</ele>
        <time>2017-08-07T08:26:22Z</time>
      </trkpt>
      <trkpt lat="43.23571" lon="2.18881">
        <ele>121.199997</ele>
        <time>2017-08-07T08:26:24Z</time>
      </trkpt>
      <trkpt lat="43.23573" lon="2.18865">
        <ele>120.699997</ele>
        <time>2017-08-07T08:26:27Z</time>
      </trkpt>
      <trkpt lat="43.23574" lon="2.1885">
        <ele>120.599998</ele>
        <time>2017-08-07T08:26:30Z</time>
      </trkpt>
      <trkpt lat="43.23572" lon="2.18837">
        <ele>120.5</ele>
        <time>2017-08-07T08:26:32Z</time>
      </trkpt>
      <trkpt lat="43.23573" lon="2.18823">
        <ele>120</ele>
        <time>2017-08-07T08:26:35Z</time>
      </trkpt>
      <trkpt lat="43.23573" lon="2.18806">
        <ele>119.900002</ele>
        <time>2017-08-07T08:26:38Z</time>
      </trkpt>
      <trkpt lat="43.23569" lon="2.18787">
        <ele>120.099998</ele>
        <time>2017-08-07T08:26:41Z</time>
      </trkpt>
      <trkpt lat="43.23567" lon="2.1877">
        <ele>120.400002</ele>
        <time>2017-08-07T08:26:44Z</time>
      </trkpt>
      <trkpt lat="43.23566" lon="2.18753">
        <ele>121</ele>
        <time>2017-08-07T08:26:47Z</time>
      </trkpt>
      <trkpt lat="43.23562" lon="2.18736">
        <ele>121.5</ele>
        <time>2017-08-07T08:26:50Z</time>
      </trkpt>
      <trkpt lat="43.23559" lon="2.1872">
        <ele>122.099998</ele>
        <time>2017-08-07T08:26:53Z</time>
      </trkpt>
      <trkpt lat="43.23555" lon="2.18704">
        <ele>122.599998</ele>
        <time>2017-08-07T08:26:56Z</time>
      </trkpt>
      <trkpt lat="43.23551" lon="2.18689">
        <ele>123.099998</ele>
        <time>2017-08-07T08:26:59Z</time>
      </trkpt>
      <trkpt lat="43.23546" lon="2.18674">
        <ele>123.400002</ele>
        <time>2017-08-07T08:27:02Z</time>
      </trkpt>
      <trkpt lat="43.23544" lon="2.1866">
        <ele>123.5</ele>
        <time>2017-08-07T08:27:04Z</time>
      </trkpt>
      <trkpt lat="43.23536" lon="2.18647">
        <ele>124</ele>
        <time>2017-08-07T08:27:07Z</time>
      </trkpt>
      <trkpt lat="43.2353" lon="2.18631">
        <ele>123.699997</ele>
        <time>2017-08-07T08:27:10Z</time>
      </trkpt>
      <trkpt lat="43.23524" lon="2.18619">
        <ele>123.5</ele>
        <time>2017-08-07T08:27:13Z</time>
      </trkpt>
      <trkpt lat="43.23516" lon="2.18605">
        <ele>123.900002</ele>
        <time>2017-08-07T08:27:16Z</time>
      </trkpt>
      <trkpt lat="43.23509" lon="2.18592">
        <ele>124.199997</ele>
        <time>2017-08-07T08:27:19Z</time>
      </trkpt>
      <trkpt lat="43.23503" lon="2.18576">
        <ele>125</ele>
        <time>2017-08-07T08:27:22Z</time>
      </trkpt>
      <trkpt lat="43.23496" lon="2.18563">
        <ele>126.599998</ele>
        <time>2017-08-07T08:27:25Z</time>
      </trkpt>
      <trkpt lat="43.23491" lon="2.18552">
        <ele>128.800003</ele>
        <time>2017-08-07T08:27:27Z</time>
      </trkpt>
      <trkpt lat="43.23486" lon="2.18538">
        <ele>132.600006</ele>
        <time>2017-08-07T08:27:30Z</time>
      </trkpt>
      <trkpt lat="43.23478" lon="2.18526">
        <ele>135.199997</ele>
        <time>2017-08-07T08:27:33Z</time>
      </trkpt>
      <trkpt lat="43.23472" lon="2.18512">
        <ele>137.100006</ele>
        <time>2017-08-07T08:27:36Z</time>
      </trkpt>
      <trkpt lat="43.23466" lon="2.18496">
        <ele>139.5</ele>
        <time>2017-08-07T08:27:39Z</time>
      </trkpt>
      <trkpt lat="43.23462" lon="2.18482">
        <ele>142.600006</ele>
        <time>2017-08-07T08:27:42Z</time>
      </trkpt>
      <trkpt lat="43.23461" lon="2.18466">
        <ele>143.600006</ele>
        <time>2017-08-07T08:27:45Z</time>
      </trkpt>
      <trkpt lat="43.23462" lon="2.18454">
        <ele>144.199997</ele>
        <time>2017-08-07T08:27:47Z</time>
      </trkpt>
      <trkpt lat="43.23466" lon="2.18438">
        <ele>145.199997</ele>
        <time>2017-08-07T08:27:50Z</time>
      </trkpt>
      <trkpt lat="43.23468" lon="2.1842">
        <ele>146.300003</ele>
        <time>2017-08-07T08:27:53Z</time>
      </trkpt>
      <trkpt lat="43.23471" lon="2.18403">
        <ele>147.699997</ele>
        <time>2017-08-07T08:27:56Z</time>
      </trkpt>
      <trkpt lat="43.23475" lon="2.18386">
        <ele>146.899994</ele>
        <time>2017-08-07T08:27:59Z</time>
      </trkpt>
      <trkpt lat="43.2348" lon="2.1837">
        <ele>146.199997</ele>
        <time>2017-08-07T08:28:02Z</time>
      </trkpt>
      <trkpt lat="43.23485" lon="2.18354">
        <ele>146.100006</ele>
        <time>2017-08-07T08:28:05Z</time>
      </trkpt>
      <trkpt lat="43.23489" lon="2.18339">
        <ele>145.899994</ele>
        <time>2017-08-07T08:28:08Z</time>
      </trkpt>
      <trkpt lat="43.23493" lon="2.18326">
        <ele>145.300003</ele>
        <time>2017-08-07T08:28:11Z</time>
      </trkpt>
      <trkpt lat="43.23498" lon="2.18315">
        <ele>144.199997</ele>
        <time>2017-08-07T08:28:15Z</time>
      </trkpt>
      <trkpt lat="43.235" lon="2.18298">
        <ele>142.699997</ele>
        <time>2017-08-07T08:28:33Z</time>
      </trkpt>
      <trkpt lat="43.23504" lon="2.18286">
        <ele>141.399994</ele>
        <time>2017-08-07T08:28:36Z</time>
      </trkpt>
      <trkpt lat="43.23508" lon="2.18273">
        <ele>139.100006</ele>
        <time>2017-08-07T08:28:39Z</time>
      </trkpt>
      <trkpt lat="43.23511" lon="2.18258">
        <ele>136.899994</ele>
        <time>2017-08-07T08:28:42Z</time>
      </trkpt>
      <trkpt lat="43.23514" lon="2.18244">
        <ele>137.300003</ele>
        <time>2017-08-07T08:28:45Z</time>
      </trkpt>
      <trkpt lat="43.23516" lon="2.18228">
        <ele>138</ele>
        <time>2017-08-07T08:28:48Z</time>
      </trkpt>
      <trkpt lat="43.23519" lon="2.18215">
        <ele>138.600006</ele>
        <time>2017-08-07T08:28:51Z</time>
      </trkpt>
      <trkpt lat="43.23519" lon="2.182">
        <ele>138.5</ele>
        <time>2017-08-07T08:28:54Z</time>
      </trkpt>
      <trkpt lat="43.23522" lon="2.18185">
        <ele>136.600006</ele>
        <time>2017-08-07T08:28:57Z</time>
      </trkpt>
      <trkpt lat="43.23523" lon="2.18169">
        <ele>135</ele>
        <time>2017-08-07T08:29:01Z</time>
      </trkpt>
      <trkpt lat="43.23528" lon="2.18152">
        <ele>133.600006</ele>
        <time>2017-08-07T08:29:04Z</time>
      </trkpt>
      <trkpt lat="43.23533" lon="2.18138">
        <ele>132.399994</ele>
        <time>2017-08-07T08:29:06Z</time>
      </trkpt>
      <trkpt lat="43.23537" lon="2.18123">
        <ele>131.300003</ele>
        <time>2017-08-07T08:29:09Z</time>
      </trkpt>
      <trkpt lat="43.23541" lon="2.18108">
        <ele>130</ele>
        <time>2017-08-07T08:29:12Z</time>
      </trkpt>
      <trkpt lat="43.23542" lon="2.18094">
        <ele>128.899994</ele>
        <time>2017-08-07T08:29:15Z</time>
      </trkpt>
      <trkpt lat="43.23545" lon="2.18078">
        <ele>127.900002</ele>
        <time>2017-08-07T08:29:18Z</time>
      </trkpt>
      <trkpt lat="43.23549" lon="2.18065">
        <ele>127.300003</ele>
        <time>2017-08-07T08:29:21Z</time>
      </trkpt>
      <trkpt lat="43.23554" lon="2.18052">
        <ele>127</ele>
        <time>2017-08-07T08:29:24Z</time>
      </trkpt>
      <trkpt lat="43.23558" lon="2.1804">
        <ele>126.800003</ele>
        <time>2017-08-07T08:29:28Z</time>
      </trkpt>
      <trkpt lat="43.2356" lon="2.18026">
        <ele>127.300003</ele>
        <time>2017-08-07T08:29:32Z</time>
      </trkpt>
      <trkpt lat="43.23563" lon="2.18013">
        <ele>128</ele>
        <time>2017-08-07T08:29:36Z</time>
      </trkpt>
      <trkpt lat="43.23565" lon="2.17999">
        <ele>128.699997</ele>
        <time>2017-08-07T08:29:39Z</time>
      </trkpt>
      <trkpt lat="43.23569" lon="2.17987">
        <ele>129.699997</ele>
        <time>2017-08-07T08:29:42Z</time>
      </trkpt>
      <trkpt lat="43.23574" lon="2.17974">
        <ele>130.5</ele>
        <time>2017-08-07T08:29:46Z</time>
      </trkpt>
      <trkpt lat="43.23577" lon="2.17961">
        <ele>131.399994</ele>
        <time>2017-08-07T08:29:50Z</time>
      </trkpt>
      <trkpt lat="43.2358" lon="2.17948">
        <ele>132</ele>
        <time>2017-08-07T08:29:55Z</time>
      </trkpt>
      <trkpt lat="43.23574" lon="2.17938">
        <ele>132.600006</ele>
        <time>2017-08-07T08:37:10Z</time>
      </trkpt>
      <trkpt lat="43.2358" lon="2.17928">
        <ele>132.699997</ele>
        <time>2017-08-07T08:39:46Z</time>
      </trkpt>
      <trkpt lat="43.23585" lon="2.17916">
        <ele>132.600006</ele>
        <time>2017-08-07T08:40:28Z</time>
      </trkpt>
      <trkpt lat="43.23587" lon="2.17903">
        <ele>132.699997</ele>
        <time>2017-08-07T08:40:32Z</time>
      </trkpt>
      <trkpt lat="43.2359" lon="2.17889">
        <ele>132.5</ele>
        <time>2017-08-07T08:40:36Z</time>
      </trkpt>
      <trkpt lat="43.23593" lon="2.17874">
        <ele>132.300003</ele>
        <time>2017-08-07T08:40:41Z</time>
      </trkpt>
      <trkpt lat="43.23596" lon="2.17859">
        <ele>132.100006</ele>
        <time>2017-08-07T08:40:45Z</time>
      </trkpt>
      <trkpt lat="43.23599" lon="2.17846">
        <ele>131.899994</ele>
        <time>2017-08-07T08:40:48Z</time>
      </trkpt>
      <trkpt lat="43.23602" lon="2.17831">
        <ele>131.300003</ele>
        <time>2017-08-07T08:40:51Z</time>
      </trkpt>
      <trkpt lat="43.23605" lon="2.17817">
        <ele>130.699997</ele>
        <time>2017-08-07T08:40:54Z</time>
      </trkpt>
      <trkpt lat="43.23607" lon="2.17802">
        <ele>130.5</ele>
        <time>2017-08-07T08:40:57Z</time>
      </trkpt>
      <trkpt lat="43.2361" lon="2.17787">
        <ele>130.199997</ele>
        <time>2017-08-07T08:41:00Z</time>
      </trkpt>
      <trkpt lat="43.23612" lon="2.17772">
        <ele>129.199997</ele>
        <time>2017-08-07T08:41:03Z</time>
      </trkpt>
      <trkpt lat="43.23616" lon="2.17758">
        <ele>128.100006</ele>
        <time>2017-08-07T08:41:06Z</time>
      </trkpt>
      <trkpt lat="43.23619" lon="2.17744">
        <ele>126.599998</ele>
        <time>2017-08-07T08:41:09Z</time>
      </trkpt>
      <trkpt lat="43.23624" lon="2.17728">
        <ele>124.800003</ele>
        <time>2017-08-07T08:41:12Z</time>
      </trkpt>
      <trkpt lat="43.23628" lon="2.17715">
        <ele>124</ele>
        <time>2017-08-07T08:41:15Z</time>
      </trkpt>
      <trkpt lat="43.23635" lon="2.17702">
        <ele>124.199997</ele>
        <time>2017-08-07T08:41:18Z</time>
      </trkpt>
      <trkpt lat="43.23641" lon="2.17688">
        <ele>124.800003</ele>
        <time>2017-08-07T08:41:21Z</time>
      </trkpt>
      <trkpt lat="43.23647" lon="2.17674">
        <ele>125.099998</ele>
        <time>2017-08-07T08:41:24Z</time>
      </trkpt>
      <trkpt lat="43.23652" lon="2.17661">
        <ele>125.199997</ele>
        <time>2017-08-07T08:41:27Z</time>
      </trkpt>
      <trkpt lat="43.23658" lon="2.17647">
        <ele>125.199997</ele>
        <time>2017-08-07T08:41:30Z</time>
      </trkpt>
      <trkpt lat="43.23665" lon="2.17635">
        <ele>125.699997</ele>
        <time>2017-08-07T08:41:33Z</time>
      </trkpt>
      <trkpt lat="43.2367" lon="2.17621">
        <ele>126.199997</ele>
        <time>2017-08-07T08:41:36Z</time>
      </trkpt>
      <trkpt lat="43.23678" lon="2.17611">
        <ele>127.099998</ele>
        <time>2017-08-07T08:41:39Z</time>
      </trkpt>
      <trkpt lat="43.23683" lon="2.176">
        <ele>127.800003</ele>
        <time>2017-08-07T08:41:41Z</time>
      </trkpt>
      <trkpt lat="43.23688" lon="2.1759">
        <ele>127.599998</ele>
        <time>2017-08-07T08:41:43Z</time>
      </trkpt>
      <trkpt lat="43.23693" lon="2.17577">
        <ele>127.199997</ele>
        <time>2017-08-07T08:41:46Z</time>
      </trkpt>
      <trkpt lat="43.23697" lon="2.17564">
        <ele>126.900002</ele>
        <time>2017-08-07T08:41:49Z</time>
      </trkpt>
      <trkpt lat="43.23705" lon="2.17551">
        <ele>126.800003</ele>
        <time>2017-08-07T08:41:52Z</time>
      </trkpt>
      <trkpt lat="43.23713" lon="2.17538">
        <ele>126.900002</ele>
        <time>2017-08-07T08:41:55Z</time>
      </trkpt>
      <trkpt lat="43.23721" lon="2.17525">
        <ele>126.300003</ele>
        <time>2017-08-07T08:41:58Z</time>
      </trkpt>
      <trkpt lat="43.23727" lon="2.17509">
        <ele>125.900002</ele>
        <time>2017-08-07T08:42:01Z</time>
      </trkpt>
      <trkpt lat="43.23733" lon="2.17494">
        <ele>126.400002</ele>
        <time>2017-08-07T08:42:04Z</time>
      </trkpt>
      <trkpt lat="43.23739" lon="2.17477">
        <ele>127.900002</ele>
        <time>2017-08-07T08:42:07Z</time>
      </trkpt>
      <trkpt lat="43.23746" lon="2.17464">
        <ele>129.699997</ele>
        <time>2017-08-07T08:42:10Z</time>
      </trkpt>
      <trkpt lat="43.23752" lon="2.17449">
        <ele>131</ele>
        <time>2017-08-07T08:42:13Z</time>
      </trkpt>
      <trkpt lat="43.23756" lon="2.17435">
        <ele>131.899994</ele>
        <time>2017-08-07T08:42:16Z</time>
      </trkpt>
      <trkpt lat="43.23758" lon="2.1742">
        <ele>132.800003</ele>
        <time>2017-08-07T08:42:19Z</time>
      </trkpt>
      <trkpt lat="43.23761" lon="2.17405">
        <ele>133.800003</ele>
        <time>2017-08-07T08:42:22Z</time>
      </trkpt>
      <trkpt lat="43.23763" lon="2.17389">
        <ele>134</ele>
        <time>2017-08-07T08:42:25Z</time>
      </trkpt>
      <trkpt lat="43.23765" lon="2.17372">
        <ele>133.800003</ele>
        <time>2017-08-07T08:42:28Z</time>
      </trkpt>
      <trkpt lat="43.23766" lon="2.17354">
        <ele>132.5</ele>
        <time>2017-08-07T08:42:31Z</time>
      </trkpt>
      <trkpt lat="43.23768" lon="2.17337">
        <ele>130.899994</ele>
        <time>2017-08-07T08:42:34Z</time>
      </trkpt>
      <trkpt lat="43.23769" lon="2.1732">
        <ele>129.600006</ele>
        <time>2017-08-07T08:42:37Z</time>
      </trkpt>
      <trkpt lat="43.2377" lon="2.17304">
        <ele>128.600006</ele>
        <time>2017-08-07T08:42:40Z</time>
      </trkpt>
      <trkpt lat="43.23771" lon="2.17289">
        <ele>127.800003</ele>
        <time>2017-08-07T08:42:43Z</time>
      </trkpt>
      <trkpt lat="43.23771" lon="2.17275">
        <ele>127.900002</ele>
        <time>2017-08-07T08:42:46Z</time>
      </trkpt>
      <trkpt lat="43.23773" lon="2.17261">
        <ele>128</ele>
        <time>2017-08-07T08:42:49Z</time>
      </trkpt>
      <trkpt lat="43.23773" lon="2.17246">
        <ele>128</ele>
        <time>2017-08-07T08:42:52Z</time>
      </trkpt>
      <trkpt lat="43.23774" lon="2.1723">
        <ele>128.199997</ele>
        <time>2017-08-07T08:42:55Z</time>
      </trkpt>
      <trkpt lat="43.23775" lon="2.17215">
        <ele>128.899994</ele>
        <time>2017-08-07T08:42:58Z</time>
      </trkpt>
      <trkpt lat="43.23775" lon="2.172">
        <ele>129.300003</ele>
        <time>2017-08-07T08:43:01Z</time>
      </trkpt>
      <trkpt lat="43.23774" lon="2.17184">
        <ele>129.699997</ele>
        <time>2017-08-07T08:43:04Z</time>
      </trkpt>
      <trkpt lat="43.23775" lon="2.17169">
        <ele>130</ele>
        <time>2017-08-07T08:43:07Z</time>
      </trkpt>
      <trkpt lat="43.23776" lon="2.17156">
        <ele>130.199997</ele>
        <time>2017-08-07T08:43:09Z</time>
      </trkpt>
      <trkpt lat="43.23776" lon="2.17144">
        <ele>130.899994</ele>
        <time>2017-08-07T08:43:11Z</time>
      </trkpt>
      <trkpt lat="43.23778" lon="2.17129">
        <ele>132.5</ele>
        <time>2017-08-07T08:43:14Z</time>
      </trkpt>
      <trkpt lat="43.23775" lon="2.17117">
        <ele>132.5</ele>
        <time>2017-08-07T08:43:17Z</time>
      </trkpt>
      <trkpt lat="43.23777" lon="2.17102">
        <ele>132.5</ele>
        <time>2017-08-07T08:43:20Z</time>
      </trkpt>
      <trkpt lat="43.2378" lon="2.17089">
        <ele>132.899994</ele>
        <time>2017-08-07T08:43:21Z</time>
      </trkpt>
      <trkpt lat="43.23783" lon="2.17074">
        <ele>133.800003</ele>
        <time>2017-08-07T08:43:25Z</time>
      </trkpt>
      <trkpt lat="43.23786" lon="2.1706">
        <ele>134.300003</ele>
        <time>2017-08-07T08:43:28Z</time>
      </trkpt>
      <trkpt lat="43.2379" lon="2.17047">
        <ele>134.699997</ele>
        <time>2017-08-07T08:43:30Z</time>
      </trkpt>
      <trkpt lat="43.23797" lon="2.17029">
        <ele>135.300003</ele>
        <time>2017-08-07T08:43:33Z</time>
      </trkpt>
      <trkpt lat="43.23803" lon="2.17012">
        <ele>135.600006</ele>
        <time>2017-08-07T08:43:36Z</time>
      </trkpt>
      <trkpt lat="43.23808" lon="2.16996">
        <ele>134.699997</ele>
        <time>2017-08-07T08:43:39Z</time>
      </trkpt>
      <trkpt lat="43.23813" lon="2.16985">
        <ele>134.300003</ele>
        <time>2017-08-07T08:43:41Z</time>
      </trkpt>
      <trkpt lat="43.23817" lon="2.16973">
        <ele>133.899994</ele>
        <time>2017-08-07T08:43:44Z</time>
      </trkpt>
      <trkpt lat="43.23824" lon="2.16961">
        <ele>133.600006</ele>
        <time>2017-08-07T08:43:47Z</time>
      </trkpt>
      <trkpt lat="43.23832" lon="2.16948">
        <ele>133.199997</ele>
        <time>2017-08-07T08:43:50Z</time>
      </trkpt>
      <trkpt lat="43.2384" lon="2.16936">
        <ele>132.899994</ele>
        <time>2017-08-07T08:43:53Z</time>
      </trkpt>
      <trkpt lat="43.23848" lon="2.16925">
        <ele>132.5</ele>
        <time>2017-08-07T08:43:56Z</time>
      </trkpt>
      <trkpt lat="43.23857" lon="2.16914">
        <ele>131.899994</ele>
        <time>2017-08-07T08:43:59Z</time>
      </trkpt>
      <trkpt lat="43.23869" lon="2.16907">
        <ele>131.899994</ele>
        <time>2017-08-07T08:44:02Z</time>
      </trkpt>
      <trkpt lat="43.23877" lon="2.16897">
        <ele>131.600006</ele>
        <time>2017-08-07T08:44:05Z</time>
      </trkpt>
      <trkpt lat="43.23882" lon="2.16885">
        <ele>130.899994</ele>
        <time>2017-08-07T08:44:07Z</time>
      </trkpt>
      <trkpt lat="43.23889" lon="2.16873">
        <ele>129.899994</ele>
        <time>2017-08-07T08:44:10Z</time>
      </trkpt>
      <trkpt lat="43.23898" lon="2.1686">
        <ele>128.5</ele>
        <time>2017-08-07T08:44:13Z</time>
      </trkpt>
      <trkpt lat="43.23906" lon="2.16847">
        <ele>127.099998</ele>
        <time>2017-08-07T08:44:16Z</time>
      </trkpt>
      <trkpt lat="43.23914" lon="2.16838">
        <ele>125.5</ele>
        <time>2017-08-07T08:44:20Z</time>
      </trkpt>
      <trkpt lat="43.23922" lon="2.16829">
        <ele>124.199997</ele>
        <time>2017-08-07T08:44:24Z</time>
      </trkpt>
      <trkpt lat="43.23932" lon="2.16824">
        <ele>123.599998</ele>
        <time>2017-08-07T08:44:29Z</time>
      </trkpt>
      <trkpt lat="43.23937" lon="2.16834">
        <ele>125</ele>
        <time>2017-08-07T08:44:36Z</time>
      </trkpt>
      <trkpt lat="43.23938" lon="2.16849">
        <ele>126.099998</ele>
        <time>2017-08-07T08:44:43Z</time>
      </trkpt>
      <trkpt lat="43.23939" lon="2.16862">
        <ele>126.900002</ele>
        <time>2017-08-07T08:44:47Z</time>
      </trkpt>
      <trkpt lat="43.23939" lon="2.16875">
        <ele>127.699997</ele>
        <time>2017-08-07T08:44:50Z</time>
      </trkpt>
      <trkpt lat="43.23941" lon="2.16888">
        <ele>128.100006</ele>
        <time>2017-08-07T08:44:53Z</time>
      </trkpt>
      <trkpt lat="43.23949" lon="2.16882">
        <ele>126.599998</ele>
        <time>2017-08-07T08:45:00Z</time>
      </trkpt>
      <trkpt lat="43.23949" lon="2.16866">
        <ele>126.300003</ele>
        <time>2017-08-07T08:45:03Z</time>
      </trkpt>
      <trkpt lat="43.23951" lon="2.16853">
        <ele>126.099998</ele>
        <time>2017-08-07T08:45:05Z</time>
      </trkpt>
      <trkpt lat="43.23951" lon="2.1684">
        <ele>126</ele>
        <time>2017-08-07T08:45:07Z</time>
      </trkpt>
      <trkpt lat="43.23951" lon="2.16823">
        <ele>126</ele>
        <time>2017-08-07T08:45:10Z</time>
      </trkpt>
      <trkpt lat="43.23952" lon="2.16806">
        <ele>125.699997</ele>
        <time>2017-08-07T08:45:13Z</time>
      </trkpt>
      <trkpt lat="43.23954" lon="2.16793">
        <ele>125.599998</ele>
        <time>2017-08-07T08:45:16Z</time>
      </trkpt>
      <trkpt lat="43.23957" lon="2.16781">
        <ele>125.800003</ele>
        <time>2017-08-07T08:45:20Z</time>
      </trkpt>
      <trkpt lat="43.23961" lon="2.16769">
        <ele>126.400002</ele>
        <time>2017-08-07T08:45:24Z</time>
      </trkpt>
      <trkpt lat="43.23967" lon="2.16756">
        <ele>127.199997</ele>
        <time>2017-08-07T08:45:28Z</time>
      </trkpt>
      <trkpt lat="43.23973" lon="2.16745">
        <ele>127.699997</ele>
        <time>2017-08-07T08:45:31Z</time>
      </trkpt>
      <trkpt lat="43.23978" lon="2.16734">
        <ele>128</ele>
        <time>2017-08-07T08:45:34Z</time>
      </trkpt>
      <trkpt lat="43.23984" lon="2.16721">
        <ele>128.600006</ele>
        <time>2017-08-07T08:45:37Z</time>
      </trkpt>
      <trkpt lat="43.23988" lon="2.16707">
        <ele>129</ele>
        <time>2017-08-07T08:45:41Z</time>
      </trkpt>
      <trkpt lat="43.23993" lon="2.16693">
        <ele>129</ele>
        <time>2017-08-07T08:45:45Z</time>
      </trkpt>
      <trkpt lat="43.23999" lon="2.16682">
        <ele>129</ele>
        <time>2017-08-07T08:45:47Z</time>
      </trkpt>
      <trkpt lat="43.24002" lon="2.16669">
        <ele>129</ele>
        <time>2017-08-07T08:45:50Z</time>
      </trkpt>
      <trkpt lat="43.24003" lon="2.16654">
        <ele>129</ele>
        <time>2017-08-07T08:45:53Z</time>
      </trkpt>
      <trkpt lat="43.24007" lon="2.16641">
        <ele>128.899994</ele>
        <time>2017-08-07T08:45:56Z</time>
      </trkpt>
      <trkpt lat="43.24011" lon="2.16629">
        <ele>128.899994</ele>
        <time>2017-08-07T08:45:58Z</time>
      </trkpt>
      <trkpt lat="43.24017" lon="2.16613">
        <ele>128.899994</ele>
        <time>2017-08-07T08:46:01Z</time>
      </trkpt>
      <trkpt lat="43.24023" lon="2.16599">
        <ele>129</ele>
        <time>2017-08-07T08:46:04Z</time>
      </trkpt>
      <trkpt lat="43.24032" lon="2.16586">
        <ele>129.800003</ele>
        <time>2017-08-07T08:46:06Z</time>
      </trkpt>
      <trkpt lat="43.24032" lon="2.16568">
        <ele>130</ele>
        <time>2017-08-07T08:46:09Z</time>
      </trkpt>
      <trkpt lat="43.2404" lon="2.16556">
        <ele>130.199997</ele>
        <time>2017-08-07T08:46:12Z</time>
      </trkpt>
      <trkpt lat="43.24044" lon="2.16541">
        <ele>130.5</ele>
        <time>2017-08-07T08:46:14Z</time>
      </trkpt>
      <trkpt lat="43.2405" lon="2.16525">
        <ele>131.5</ele>
        <time>2017-08-07T08:46:17Z</time>
      </trkpt>
      <trkpt lat="43.24055" lon="2.16514">
        <ele>132.300003</ele>
        <time>2017-08-07T08:46:19Z</time>
      </trkpt>
      <trkpt lat="43.24062" lon="2.16501">
        <ele>133.100006</ele>
        <time>2017-08-07T08:46:21Z</time>
      </trkpt>
      <trkpt lat="43.24067" lon="2.16488">
        <ele>133.600006</ele>
        <time>2017-08-07T08:46:23Z</time>
      </trkpt>
      <trkpt lat="43.24069" lon="2.16471">
        <ele>133.5</ele>
        <time>2017-08-07T08:46:26Z</time>
      </trkpt>
      <trkpt lat="43.24069" lon="2.16457">
        <ele>133.100006</ele>
        <time>2017-08-07T08:46:29Z</time>
      </trkpt>
      <trkpt lat="43.24075" lon="2.16442">
        <ele>133.5</ele>
        <time>2017-08-07T08:46:32Z</time>
      </trkpt>
      <trkpt lat="43.2408" lon="2.16424">
        <ele>132.899994</ele>
        <time>2017-08-07T08:46:35Z</time>
      </trkpt>
      <trkpt lat="43.24082" lon="2.16407">
        <ele>132.699997</ele>
        <time>2017-08-07T08:46:38Z</time>
      </trkpt>
      <trkpt lat="43.24085" lon="2.16393">
        <ele>132.100006</ele>
        <time>2017-08-07T08:46:40Z</time>
      </trkpt>
      <trkpt lat="43.24089" lon="2.16375">
        <ele>131.399994</ele>
        <time>2017-08-07T08:46:43Z</time>
      </trkpt>
      <trkpt lat="43.24092" lon="2.16361">
        <ele>130.699997</ele>
        <time>2017-08-07T08:46:46Z</time>
      </trkpt>
      <trkpt lat="43.24094" lon="2.16347">
        <ele>130.199997</ele>
        <time>2017-08-07T08:46:49Z</time>
      </trkpt>
      <trkpt lat="43.24101" lon="2.16334">
        <ele>130.100006</ele>
        <time>2017-08-07T08:46:52Z</time>
      </trkpt>
      <trkpt lat="43.24101" lon="2.16318">
        <ele>130.199997</ele>
        <time>2017-08-07T08:46:55Z</time>
      </trkpt>
      <trkpt lat="43.24107" lon="2.16306">
        <ele>130.399994</ele>
        <time>2017-08-07T08:46:57Z</time>
      </trkpt>
      <trkpt lat="43.2411" lon="2.16293">
        <ele>130.399994</ele>
        <time>2017-08-07T08:46:59Z</time>
      </trkpt>
      <trkpt lat="43.24115" lon="2.16276">
        <ele>129.800003</ele>
        <time>2017-08-07T08:47:01Z</time>
      </trkpt>
      <trkpt lat="43.24118" lon="2.16263">
        <ele>129.199997</ele>
        <time>2017-08-07T08:47:03Z</time>
      </trkpt>
      <trkpt lat="43.24119" lon="2.1625">
        <ele>128</ele>
        <time>2017-08-07T08:47:05Z</time>
      </trkpt>
      <trkpt lat="43.24125" lon="2.16232">
        <ele>126.900002</ele>
        <time>2017-08-07T08:47:08Z</time>
      </trkpt>
      <trkpt lat="43.24129" lon="2.16217">
        <ele>127.199997</ele>
        <time>2017-08-07T08:47:11Z</time>
      </trkpt>
      <trkpt lat="43.24135" lon="2.16201">
        <ele>128</ele>
        <time>2017-08-07T08:47:14Z</time>
      </trkpt>
      <trkpt lat="43.2414" lon="2.16186">
        <ele>128.600006</ele>
        <time>2017-08-07T08:47:17Z</time>
      </trkpt>
      <trkpt lat="43.24147" lon="2.16172">
        <ele>129.199997</ele>
        <time>2017-08-07T08:47:20Z</time>
      </trkpt>
      <trkpt lat="43.24154" lon="2.16156">
        <ele>129.399994</ele>
        <time>2017-08-07T08:47:23Z</time>
      </trkpt>
      <trkpt lat="43.24161" lon="2.16141">
        <ele>129.100006</ele>
        <time>2017-08-07T08:47:26Z</time>
      </trkpt>
      <trkpt lat="43.24169" lon="2.16129">
        <ele>129.399994</ele>
        <time>2017-08-07T08:47:29Z</time>
      </trkpt>
      <trkpt lat="43.24176" lon="2.16116">
        <ele>129.699997</ele>
        <time>2017-08-07T08:47:32Z</time>
      </trkpt>
      <trkpt lat="43.24184" lon="2.16104">
        <ele>129.899994</ele>
        <time>2017-08-07T08:47:35Z</time>
      </trkpt>
      <trkpt lat="43.24192" lon="2.16089">
        <ele>130.100006</ele>
        <time>2017-08-07T08:47:38Z</time>
      </trkpt>
      <trkpt lat="43.24201" lon="2.16078">
        <ele>130.5</ele>
        <time>2017-08-07T08:47:41Z</time>
      </trkpt>
      <trkpt lat="43.2421" lon="2.16066">
        <ele>130.699997</ele>
        <time>2017-08-07T08:47:44Z</time>
      </trkpt>
      <trkpt lat="43.24216" lon="2.16056">
        <ele>130.399994</ele>
        <time>2017-08-07T08:47:46Z</time>
      </trkpt>
      <trkpt lat="43.24222" lon="2.16047">
        <ele>130.399994</ele>
        <time>2017-08-07T08:47:48Z</time>
      </trkpt>
      <trkpt lat="43.24232" lon="2.16035">
        <ele>130.899994</ele>
        <time>2017-08-07T08:47:51Z</time>
      </trkpt>
      <trkpt lat="43.24241" lon="2.16022">
        <ele>131.399994</ele>
        <time>2017-08-07T08:47:54Z</time>
      </trkpt>
      <trkpt lat="43.24249" lon="2.1601">
        <ele>130.600006</ele>
        <time>2017-08-07T08:47:57Z</time>
      </trkpt>
      <trkpt lat="43.24258" lon="2.15998">
        <ele>129.300003</ele>
        <time>2017-08-07T08:48:00Z</time>
      </trkpt>
      <trkpt lat="43.24266" lon="2.15984">
        <ele>128</ele>
        <time>2017-08-07T08:48:03Z</time>
      </trkpt>
      <trkpt lat="43.24272" lon="2.1597">
        <ele>127.300003</ele>
        <time>2017-08-07T08:48:06Z</time>
      </trkpt>
      <trkpt lat="43.24278" lon="2.15955">
        <ele>126.800003</ele>
        <time>2017-08-07T08:48:09Z</time>
      </trkpt>
      <trkpt lat="43.24281" lon="2.15939">
        <ele>126</ele>
        <time>2017-08-07T08:48:12Z</time>
      </trkpt>
      <trkpt lat="43.2429" lon="2.15931">
        <ele>126.5</ele>
        <time>2017-08-07T08:48:16Z</time>
      </trkpt>
      <trkpt lat="43.24301" lon="2.15927">
        <ele>128.600006</ele>
        <time>2017-08-07T08:48:19Z</time>
      </trkpt>
      <trkpt lat="43.24311" lon="2.15919">
        <ele>130.399994</ele>
        <time>2017-08-07T08:48:22Z</time>
      </trkpt>
      <trkpt lat="43.2432" lon="2.15909">
        <ele>132.199997</ele>
        <time>2017-08-07T08:48:25Z</time>
      </trkpt>
      <trkpt lat="43.24326" lon="2.15895">
        <ele>132.100006</ele>
        <time>2017-08-07T08:48:29Z</time>
      </trkpt>
      <trkpt lat="43.24333" lon="2.15885">
        <ele>132.399994</ele>
        <time>2017-08-07T08:48:32Z</time>
      </trkpt>
      <trkpt lat="43.24337" lon="2.15872">
        <ele>132.699997</ele>
        <time>2017-08-07T08:48:35Z</time>
      </trkpt>
      <trkpt lat="43.24345" lon="2.15861">
        <ele>133</ele>
        <time>2017-08-07T08:48:38Z</time>
      </trkpt>
      <trkpt lat="43.24349" lon="2.15849">
        <ele>132.399994</ele>
        <time>2017-08-07T08:48:41Z</time>
      </trkpt>
      <trkpt lat="43.24354" lon="2.15837">
        <ele>131.800003</ele>
        <time>2017-08-07T08:48:44Z</time>
      </trkpt>
      <trkpt lat="43.24359" lon="2.15825">
        <ele>131.300003</ele>
        <time>2017-08-07T08:48:47Z</time>
      </trkpt>
      <trkpt lat="43.24367" lon="2.15811">
        <ele>131</ele>
        <time>2017-08-07T08:48:49Z</time>
      </trkpt>
      <trkpt lat="43.24374" lon="2.15798">
        <ele>131.100006</ele>
        <time>2017-08-07T08:48:52Z</time>
      </trkpt>
      <trkpt lat="43.24378" lon="2.15787">
        <ele>131.399994</ele>
        <time>2017-08-07T08:48:54Z</time>
      </trkpt>
      <trkpt lat="43.24382" lon="2.15774">
        <ele>131.800003</ele>
        <time>2017-08-07T08:48:57Z</time>
      </trkpt>
      <trkpt lat="43.24389" lon="2.15764">
        <ele>132.399994</ele>
        <time>2017-08-07T08:49:00Z</time>
      </trkpt>
      <trkpt lat="43.24395" lon="2.15753">
        <ele>132.100006</ele>
        <time>2017-08-07T08:49:03Z</time>
      </trkpt>
      <trkpt lat="43.24399" lon="2.15737">
        <ele>131.100006</ele>
        <time>2017-08-07T08:49:06Z</time>
      </trkpt>
      <trkpt lat="43.24399" lon="2.15719">
        <ele>128.800003</ele>
        <time>2017-08-07T08:49:09Z</time>
      </trkpt>
      <trkpt lat="43.244" lon="2.15705">
        <ele>127</ele>
        <time>2017-08-07T08:49:11Z</time>
      </trkpt>
      <trkpt lat="43.24406" lon="2.15693">
        <ele>126</ele>
        <time>2017-08-07T08:49:13Z</time>
      </trkpt>
      <trkpt lat="43.24411" lon="2.15682">
        <ele>125</ele>
        <time>2017-08-07T08:49:15Z</time>
      </trkpt>
      <trkpt lat="43.24416" lon="2.15669">
        <ele>125.099998</ele>
        <time>2017-08-07T08:49:18Z</time>
      </trkpt>
      <trkpt lat="43.24417" lon="2.15652">
        <ele>125.900002</ele>
        <time>2017-08-07T08:49:21Z</time>
      </trkpt>
      <trkpt lat="43.24419" lon="2.15635">
        <ele>127.699997</ele>
        <time>2017-08-07T08:49:24Z</time>
      </trkpt>
      <trkpt lat="43.2442" lon="2.1562">
        <ele>129</ele>
        <time>2017-08-07T08:49:27Z</time>
      </trkpt>
      <trkpt lat="43.24425" lon="2.15605">
        <ele>129.800003</ele>
        <time>2017-08-07T08:49:30Z</time>
      </trkpt>
      <trkpt lat="43.2443" lon="2.15592">
        <ele>130.5</ele>
        <time>2017-08-07T08:49:33Z</time>
      </trkpt>
      <trkpt lat="43.24435" lon="2.15577">
        <ele>130.199997</ele>
        <time>2017-08-07T08:49:36Z</time>
      </trkpt>
      <trkpt lat="43.24437" lon="2.15562">
        <ele>130.100006</ele>
        <time>2017-08-07T08:49:40Z</time>
      </trkpt>
      <trkpt lat="43.2444" lon="2.15544">
        <ele>130.300003</ele>
        <time>2017-08-07T08:49:43Z</time>
      </trkpt>
      <trkpt lat="43.24443" lon="2.15527">
        <ele>130.300003</ele>
        <time>2017-08-07T08:49:46Z</time>
      </trkpt>
      <trkpt lat="43.24447" lon="2.15514">
        <ele>130.5</ele>
        <time>2017-08-07T08:49:48Z</time>
      </trkpt>
      <trkpt lat="43.24449" lon="2.15496">
        <ele>129.899994</ele>
        <time>2017-08-07T08:49:51Z</time>
      </trkpt>
      <trkpt lat="43.2445" lon="2.15484">
        <ele>129.100006</ele>
        <time>2017-08-07T08:49:53Z</time>
      </trkpt>
      <trkpt lat="43.24452" lon="2.15466">
        <ele>128.199997</ele>
        <time>2017-08-07T08:49:56Z</time>
      </trkpt>
      <trkpt lat="43.24453" lon="2.15449">
        <ele>127.599998</ele>
        <time>2017-08-07T08:49:59Z</time>
      </trkpt>
      <trkpt lat="43.24454" lon="2.15436">
        <ele>127.5</ele>
        <time>2017-08-07T08:50:01Z</time>
      </trkpt>
      <trkpt lat="43.24454" lon="2.1542">
        <ele>127.800003</ele>
        <time>2017-08-07T08:50:04Z</time>
      </trkpt>
      <trkpt lat="43.24454" lon="2.15405">
        <ele>128.100006</ele>
        <time>2017-08-07T08:50:07Z</time>
      </trkpt>
      <trkpt lat="43.24453" lon="2.15391">
        <ele>128.100006</ele>
        <time>2017-08-07T08:50:09Z</time>
      </trkpt>
      <trkpt lat="43.24451" lon="2.15377">
        <ele>127.900002</ele>
        <time>2017-08-07T08:50:11Z</time>
      </trkpt>
      <trkpt lat="43.24449" lon="2.15365">
        <ele>127.699997</ele>
        <time>2017-08-07T08:50:13Z</time>
      </trkpt>
      <trkpt lat="43.24447" lon="2.15347">
        <ele>127.400002</ele>
        <time>2017-08-07T08:50:16Z</time>
      </trkpt>
      <trkpt lat="43.24445" lon="2.15334">
        <ele>127.300003</ele>
        <time>2017-08-07T08:50:18Z</time>
      </trkpt>
      <trkpt lat="43.24444" lon="2.15321">
        <ele>127.400002</ele>
        <time>2017-08-07T08:50:20Z</time>
      </trkpt>
      <trkpt lat="43.24443" lon="2.15304">
        <ele>127.599998</ele>
        <time>2017-08-07T08:50:23Z</time>
      </trkpt>
      <trkpt lat="43.24442" lon="2.15286">
        <ele>127.699997</ele>
        <time>2017-08-07T08:50:26Z</time>
      </trkpt>
      <trkpt lat="43.24441" lon="2.15268">
        <ele>128</ele>
        <time>2017-08-07T08:50:29Z</time>
      </trkpt>
      <trkpt lat="43.24442" lon="2.15251">
        <ele>128.199997</ele>
        <time>2017-08-07T08:50:32Z</time>
      </trkpt>
      <trkpt lat="43.24444" lon="2.15233">
        <ele>128.399994</ele>
        <time>2017-08-07T08:50:35Z</time>
      </trkpt>
      <trkpt lat="43.24446" lon="2.15217">
        <ele>128.300003</ele>
        <time>2017-08-07T08:50:38Z</time>
      </trkpt>
      <trkpt lat="43.24446" lon="2.15204">
        <ele>128</ele>
        <time>2017-08-07T08:50:40Z</time>
      </trkpt>
      <trkpt lat="43.24447" lon="2.15191">
        <ele>127.699997</ele>
        <time>2017-08-07T08:50:42Z</time>
      </trkpt>
      <trkpt lat="43.24449" lon="2.15174">
        <ele>127.300003</ele>
        <time>2017-08-07T08:50:45Z</time>
      </trkpt>
      <trkpt lat="43.24449" lon="2.15159">
        <ele>127.099998</ele>
        <time>2017-08-07T08:50:47Z</time>
      </trkpt>
      <trkpt lat="43.24451" lon="2.15142">
        <ele>126.900002</ele>
        <time>2017-08-07T08:50:50Z</time>
      </trkpt>
      <trkpt lat="43.24453" lon="2.15122">
        <ele>126.400002</ele>
        <time>2017-08-07T08:50:53Z</time>
      </trkpt>
      <trkpt lat="43.24454" lon="2.15106">
        <ele>126</ele>
        <time>2017-08-07T08:50:56Z</time>
      </trkpt>
      <trkpt lat="43.24455" lon="2.15093">
        <ele>125.800003</ele>
        <time>2017-08-07T08:50:58Z</time>
      </trkpt>
      <trkpt lat="43.24457" lon="2.15078">
        <ele>125.900002</ele>
        <time>2017-08-07T08:51:01Z</time>
      </trkpt>
      <trkpt lat="43.2446" lon="2.15061">
        <ele>126</ele>
        <time>2017-08-07T08:51:04Z</time>
      </trkpt>
      <trkpt lat="43.2446" lon="2.15044">
        <ele>126.199997</ele>
        <time>2017-08-07T08:51:07Z</time>
      </trkpt>
      <trkpt lat="43.24462" lon="2.15031">
        <ele>126.699997</ele>
        <time>2017-08-07T08:51:09Z</time>
      </trkpt>
      <trkpt lat="43.24466" lon="2.15015">
        <ele>127.699997</ele>
        <time>2017-08-07T08:51:12Z</time>
      </trkpt>
      <trkpt lat="43.24472" lon="2.14999">
        <ele>129.100006</ele>
        <time>2017-08-07T08:51:15Z</time>
      </trkpt>
      <trkpt lat="43.24473" lon="2.14981">
        <ele>130.199997</ele>
        <time>2017-08-07T08:51:18Z</time>
      </trkpt>
      <trkpt lat="43.24474" lon="2.14965">
        <ele>130.899994</ele>
        <time>2017-08-07T08:51:21Z</time>
      </trkpt>
      <trkpt lat="43.24477" lon="2.14954">
        <ele>131.600006</ele>
        <time>2017-08-07T08:51:23Z</time>
      </trkpt>
      <trkpt lat="43.2448" lon="2.14942">
        <ele>132.199997</ele>
        <time>2017-08-07T08:51:25Z</time>
      </trkpt>
      <trkpt lat="43.24484" lon="2.14929">
        <ele>132.699997</ele>
        <time>2017-08-07T08:51:28Z</time>
      </trkpt>
      <trkpt lat="43.2449" lon="2.14917">
        <ele>133.800003</ele>
        <time>2017-08-07T08:51:30Z</time>
      </trkpt>
      <trkpt lat="43.2449" lon="2.14904">
        <ele>134.399994</ele>
        <time>2017-08-07T08:51:33Z</time>
      </trkpt>
      <trkpt lat="43.24494" lon="2.1489">
        <ele>134.300003</ele>
        <time>2017-08-07T08:51:36Z</time>
      </trkpt>
      <trkpt lat="43.24502" lon="2.14879">
        <ele>135.100006</ele>
        <time>2017-08-07T08:51:38Z</time>
      </trkpt>
      <trkpt lat="43.24509" lon="2.14868">
        <ele>135.800003</ele>
        <time>2017-08-07T08:51:40Z</time>
      </trkpt>
      <trkpt lat="43.24515" lon="2.14858">
        <ele>135.800003</ele>
        <time>2017-08-07T08:51:42Z</time>
      </trkpt>
      <trkpt lat="43.2452" lon="2.14848">
        <ele>135.100006</ele>
        <time>2017-08-07T08:51:44Z</time>
      </trkpt>
      <trkpt lat="43.24526" lon="2.14836">
        <ele>134.699997</ele>
        <time>2017-08-07T08:51:47Z</time>
      </trkpt>
      <trkpt lat="43.24534" lon="2.14825">
        <ele>135</ele>
        <time>2017-08-07T08:51:50Z</time>
      </trkpt>
      <trkpt lat="43.24539" lon="2.14814">
        <ele>135.199997</ele>
        <time>2017-08-07T08:51:53Z</time>
      </trkpt>
      <trkpt lat="43.24545" lon="2.14803">
        <ele>135.100006</ele>
        <time>2017-08-07T08:51:56Z</time>
      </trkpt>
      <trkpt lat="43.24552" lon="2.14792">
        <ele>134.800003</ele>
        <time>2017-08-07T08:51:59Z</time>
      </trkpt>
      <trkpt lat="43.24558" lon="2.14782">
        <ele>134.5</ele>
        <time>2017-08-07T08:52:02Z</time>
      </trkpt>
      <trkpt lat="43.24563" lon="2.1477">
        <ele>134</ele>
        <time>2017-08-07T08:52:06Z</time>
      </trkpt>
      <trkpt lat="43.2457" lon="2.14758">
        <ele>133.800003</ele>
        <time>2017-08-07T08:52:10Z</time>
      </trkpt>
      <trkpt lat="43.24578" lon="2.14745">
        <ele>133.699997</ele>
        <time>2017-08-07T08:52:13Z</time>
      </trkpt>
      <trkpt lat="43.24586" lon="2.14731">
        <ele>133.300003</ele>
        <time>2017-08-07T08:52:16Z</time>
      </trkpt>
      <trkpt lat="43.24592" lon="2.14721">
        <ele>133</ele>
        <time>2017-08-07T08:52:18Z</time>
      </trkpt>
      <trkpt lat="43.246" lon="2.14708">
        <ele>133.199997</ele>
        <time>2017-08-07T08:52:21Z</time>
      </trkpt>
      <trkpt lat="43.24607" lon="2.14693">
        <ele>132.399994</ele>
        <time>2017-08-07T08:52:24Z</time>
      </trkpt>
      <trkpt lat="43.24614" lon="2.1468">
        <ele>131.800003</ele>
        <time>2017-08-07T08:52:27Z</time>
      </trkpt>
      <trkpt lat="43.2462" lon="2.14671">
        <ele>131.699997</ele>
        <time>2017-08-07T08:52:29Z</time>
      </trkpt>
      <trkpt lat="43.24629" lon="2.14656">
        <ele>131.699997</ele>
        <time>2017-08-07T08:52:32Z</time>
      </trkpt>
      <trkpt lat="43.24637" lon="2.14642">
        <ele>131.399994</ele>
        <time>2017-08-07T08:52:35Z</time>
      </trkpt>
      <trkpt lat="43.24645" lon="2.14628">
        <ele>131.100006</ele>
        <time>2017-08-07T08:52:38Z</time>
      </trkpt>
      <trkpt lat="43.24653" lon="2.14614">
        <ele>131.5</ele>
        <time>2017-08-07T08:52:41Z</time>
      </trkpt>
      <trkpt lat="43.24661" lon="2.146">
        <ele>132.199997</ele>
        <time>2017-08-07T08:52:44Z</time>
      </trkpt>
      <trkpt lat="43.24669" lon="2.14586">
        <ele>133</ele>
        <time>2017-08-07T08:52:47Z</time>
      </trkpt>
      <trkpt lat="43.24676" lon="2.14572">
        <ele>133.600006</ele>
        <time>2017-08-07T08:52:50Z</time>
      </trkpt>
      <trkpt lat="43.24685" lon="2.1456">
        <ele>134.399994</ele>
        <time>2017-08-07T08:52:53Z</time>
      </trkpt>
      <trkpt lat="43.24691" lon="2.14546">
        <ele>135.100006</ele>
        <time>2017-08-07T08:52:56Z</time>
      </trkpt>
      <trkpt lat="43.24698" lon="2.14536">
        <ele>135.600006</ele>
        <time>2017-08-07T08:52:58Z</time>
      </trkpt>
      <trkpt lat="43.24704" lon="2.14527">
        <ele>136.199997</ele>
        <time>2017-08-07T08:53:00Z</time>
      </trkpt>
      <trkpt lat="43.2471" lon="2.14513">
        <ele>137</ele>
        <time>2017-08-07T08:53:03Z</time>
      </trkpt>
      <trkpt lat="43.24719" lon="2.14499">
        <ele>137.199997</ele>
        <time>2017-08-07T08:53:06Z</time>
      </trkpt>
      <trkpt lat="43.24727" lon="2.14485">
        <ele>137</ele>
        <time>2017-08-07T08:53:09Z</time>
      </trkpt>
      <trkpt lat="43.24733" lon="2.14473">
        <ele>137.300003</ele>
        <time>2017-08-07T08:53:12Z</time>
      </trkpt>
      <trkpt lat="43.2474" lon="2.14459">
        <ele>137.899994</ele>
        <time>2017-08-07T08:53:15Z</time>
      </trkpt>
      <trkpt lat="43.24748" lon="2.14445">
        <ele>138.199997</ele>
        <time>2017-08-07T08:53:18Z</time>
      </trkpt>
      <trkpt lat="43.24757" lon="2.1443">
        <ele>138.199997</ele>
        <time>2017-08-07T08:53:21Z</time>
      </trkpt>
      <trkpt lat="43.24762" lon="2.14418">
        <ele>137.399994</ele>
        <time>2017-08-07T08:53:23Z</time>
      </trkpt>
      <trkpt lat="43.24768" lon="2.14409">
        <ele>136.899994</ele>
        <time>2017-08-07T08:53:25Z</time>
      </trkpt>
      <trkpt lat="43.24774" lon="2.14399">
        <ele>137</ele>
        <time>2017-08-07T08:53:27Z</time>
      </trkpt>
      <trkpt lat="43.24782" lon="2.14385">
        <ele>136.5</ele>
        <time>2017-08-07T08:53:30Z</time>
      </trkpt>
      <trkpt lat="43.2479" lon="2.14371">
        <ele>135.800003</ele>
        <time>2017-08-07T08:53:33Z</time>
      </trkpt>
      <trkpt lat="43.24798" lon="2.14358">
        <ele>135.600006</ele>
        <time>2017-08-07T08:53:36Z</time>
      </trkpt>
      <trkpt lat="43.24804" lon="2.14347">
        <ele>135.399994</ele>
        <time>2017-08-07T08:53:39Z</time>
      </trkpt>
      <trkpt lat="43.2481" lon="2.14337">
        <ele>135.199997</ele>
        <time>2017-08-07T08:53:42Z</time>
      </trkpt>
      <trkpt lat="43.24817" lon="2.14325">
        <ele>135.100006</ele>
        <time>2017-08-07T08:53:45Z</time>
      </trkpt>
      <trkpt lat="43.24824" lon="2.14314">
        <ele>135</ele>
        <time>2017-08-07T08:53:48Z</time>
      </trkpt>
      <trkpt lat="43.2483" lon="2.14302">
        <ele>134.800003</ele>
        <time>2017-08-07T08:53:51Z</time>
      </trkpt>
      <trkpt lat="43.24837" lon="2.14294">
        <ele>134.699997</ele>
        <time>2017-08-07T08:53:53Z</time>
      </trkpt>
      <trkpt lat="43.24843" lon="2.14284">
        <ele>134.300003</ele>
        <time>2017-08-07T08:53:55Z</time>
      </trkpt>
      <trkpt lat="43.24849" lon="2.14272">
        <ele>133.699997</ele>
        <time>2017-08-07T08:53:58Z</time>
      </trkpt>
      <trkpt lat="43.24854" lon="2.1426">
        <ele>133</ele>
        <time>2017-08-07T08:54:01Z</time>
      </trkpt>
      <trkpt lat="43.24859" lon="2.14249">
        <ele>132.399994</ele>
        <time>2017-08-07T08:54:03Z</time>
      </trkpt>
      <trkpt lat="43.24867" lon="2.14236">
        <ele>131.800003</ele>
        <time>2017-08-07T08:54:06Z</time>
      </trkpt>
      <trkpt lat="43.24876" lon="2.14222">
        <ele>131.5</ele>
        <time>2017-08-07T08:54:09Z</time>
      </trkpt>
      <trkpt lat="43.24881" lon="2.14212">
        <ele>131</ele>
        <time>2017-08-07T08:54:11Z</time>
      </trkpt>
      <trkpt lat="43.24887" lon="2.14203">
        <ele>130.199997</ele>
        <time>2017-08-07T08:54:13Z</time>
      </trkpt>
      <trkpt lat="43.24894" lon="2.14189">
        <ele>128.600006</ele>
        <time>2017-08-07T08:54:16Z</time>
      </trkpt>
      <trkpt lat="43.24903" lon="2.14175">
        <ele>126.800003</ele>
        <time>2017-08-07T08:54:19Z</time>
      </trkpt>
      <trkpt lat="43.2491" lon="2.14161">
        <ele>126.099998</ele>
        <time>2017-08-07T08:54:22Z</time>
      </trkpt>
      <trkpt lat="43.24918" lon="2.14147">
        <ele>125.900002</ele>
        <time>2017-08-07T08:54:25Z</time>
      </trkpt>
      <trkpt lat="43.24925" lon="2.14134">
        <ele>125.800003</ele>
        <time>2017-08-07T08:54:28Z</time>
      </trkpt>
      <trkpt lat="43.24934" lon="2.14121">
        <ele>126.099998</ele>
        <time>2017-08-07T08:54:31Z</time>
      </trkpt>
      <trkpt lat="43.24941" lon="2.14109">
        <ele>126.099998</ele>
        <time>2017-08-07T08:54:34Z</time>
      </trkpt>
      <trkpt lat="43.24948" lon="2.14095">
        <ele>125.800003</ele>
        <time>2017-08-07T08:54:37Z</time>
      </trkpt>
      <trkpt lat="43.24955" lon="2.14082">
        <ele>126</ele>
        <time>2017-08-07T08:54:40Z</time>
      </trkpt>
      <trkpt lat="43.24962" lon="2.14069">
        <ele>126.099998</ele>
        <time>2017-08-07T08:54:43Z</time>
      </trkpt>
      <trkpt lat="43.24969" lon="2.14058">
        <ele>126</ele>
        <time>2017-08-07T08:54:46Z</time>
      </trkpt>
      <trkpt lat="43.24976" lon="2.14046">
        <ele>125.800003</ele>
        <time>2017-08-07T08:54:50Z</time>
      </trkpt>
      <trkpt lat="43.24982" lon="2.14036">
        <ele>125.800003</ele>
        <time>2017-08-07T08:54:53Z</time>
      </trkpt>
      <trkpt lat="43.24987" lon="2.14023">
        <ele>126</ele>
        <time>2017-08-07T08:54:56Z</time>
      </trkpt>
      <trkpt lat="43.24992" lon="2.14011">
        <ele>126.599998</ele>
        <time>2017-08-07T08:54:59Z</time>
      </trkpt>
      <trkpt lat="43.24997" lon="2.13998">
        <ele>127.900002</ele>
        <time>2017-08-07T08:55:02Z</time>
      </trkpt>
      <trkpt lat="43.25003" lon="2.13986">
        <ele>129.800003</ele>
        <time>2017-08-07T08:55:05Z</time>
      </trkpt>
      <trkpt lat="43.25008" lon="2.13974">
        <ele>130.600006</ele>
        <time>2017-08-07T08:55:08Z</time>
      </trkpt>
      <trkpt lat="43.25013" lon="2.13961">
        <ele>131.5</ele>
        <time>2017-08-07T08:55:11Z</time>
      </trkpt>
      <trkpt lat="43.25018" lon="2.13949">
        <ele>132.199997</ele>
        <time>2017-08-07T08:55:14Z</time>
      </trkpt>
      <trkpt lat="43.25023" lon="2.13936">
        <ele>133</ele>
        <time>2017-08-07T08:55:17Z</time>
      </trkpt>
      <trkpt lat="43.25029" lon="2.13923">
        <ele>133.699997</ele>
        <time>2017-08-07T08:55:20Z</time>
      </trkpt>
      <trkpt lat="43.25035" lon="2.1391">
        <ele>133.699997</ele>
        <time>2017-08-07T08:55:23Z</time>
      </trkpt>
      <trkpt lat="43.25041" lon="2.13897">
        <ele>133.899994</ele>
        <time>2017-08-07T08:55:26Z</time>
      </trkpt>
      <trkpt lat="43.25047" lon="2.13884">
        <ele>133.399994</ele>
        <time>2017-08-07T08:55:29Z</time>
      </trkpt>
      <trkpt lat="43.25053" lon="2.1387">
        <ele>133.100006</ele>
        <time>2017-08-07T08:55:32Z</time>
      </trkpt>
      <trkpt lat="43.25059" lon="2.13857">
        <ele>132.5</ele>
        <time>2017-08-07T08:55:35Z</time>
      </trkpt>
      <trkpt lat="43.25064" lon="2.13842">
        <ele>132.100006</ele>
        <time>2017-08-07T08:55:38Z</time>
      </trkpt>
      <trkpt lat="43.25071" lon="2.13827">
        <ele>132.699997</ele>
        <time>2017-08-07T08:55:41Z</time>
      </trkpt>
      <trkpt lat="43.25076" lon="2.13813">
        <ele>132.600006</ele>
        <time>2017-08-07T08:55:44Z</time>
      </trkpt>
      <trkpt lat="43.25082" lon="2.138">
        <ele>132.399994</ele>
        <time>2017-08-07T08:55:47Z</time>
      </trkpt>
      <trkpt lat="43.25088" lon="2.13787">
        <ele>132.5</ele>
        <time>2017-08-07T08:55:50Z</time>
      </trkpt>
      <trkpt lat="43.25094" lon="2.13775">
        <ele>133.199997</ele>
        <time>2017-08-07T08:55:54Z</time>
      </trkpt>
      <trkpt lat="43.25098" lon="2.13762">
        <ele>133.899994</ele>
        <time>2017-08-07T08:55:58Z</time>
      </trkpt>
      <trkpt lat="43.25102" lon="2.13748">
        <ele>133.300003</ele>
        <time>2017-08-07T08:56:02Z</time>
      </trkpt>
      <trkpt lat="43.2511" lon="2.13737">
        <ele>133.800003</ele>
        <time>2017-08-07T08:56:06Z</time>
      </trkpt>
      <trkpt lat="43.25116" lon="2.13725">
        <ele>134.399994</ele>
        <time>2017-08-07T08:56:09Z</time>
      </trkpt>
      <trkpt lat="43.25121" lon="2.13713">
        <ele>134.699997</ele>
        <time>2017-08-07T08:56:12Z</time>
      </trkpt>
      <trkpt lat="43.25128" lon="2.13699">
        <ele>135.199997</ele>
        <time>2017-08-07T08:56:15Z</time>
      </trkpt>
      <trkpt lat="43.25134" lon="2.13684">
        <ele>135.899994</ele>
        <time>2017-08-07T08:56:18Z</time>
      </trkpt>
      <trkpt lat="43.25141" lon="2.13671">
        <ele>136.399994</ele>
        <time>2017-08-07T08:56:21Z</time>
      </trkpt>
      <trkpt lat="43.25148" lon="2.13655">
        <ele>137.100006</ele>
        <time>2017-08-07T08:56:24Z</time>
      </trkpt>
      <trkpt lat="43.25154" lon="2.13641">
        <ele>136.800003</ele>
        <time>2017-08-07T08:56:27Z</time>
      </trkpt>
      <trkpt lat="43.25159" lon="2.13626">
        <ele>135.899994</ele>
        <time>2017-08-07T08:56:30Z</time>
      </trkpt>
      <trkpt lat="43.25165" lon="2.13611">
        <ele>135</ele>
        <time>2017-08-07T08:56:33Z</time>
      </trkpt>
      <trkpt lat="43.25172" lon="2.13597">
        <ele>134.100006</ele>
        <time>2017-08-07T08:56:36Z</time>
      </trkpt>
      <trkpt lat="43.25179" lon="2.13583">
        <ele>133.399994</ele>
        <time>2017-08-07T08:56:39Z</time>
      </trkpt>
      <trkpt lat="43.25184" lon="2.13569">
        <ele>132.100006</ele>
        <time>2017-08-07T08:56:42Z</time>
      </trkpt>
      <trkpt lat="43.2519" lon="2.13555">
        <ele>130.899994</ele>
        <time>2017-08-07T08:56:45Z</time>
      </trkpt>
      <trkpt lat="43.25194" lon="2.13544">
        <ele>130.199997</ele>
        <time>2017-08-07T08:56:48Z</time>
      </trkpt>
      <trkpt lat="43.25199" lon="2.13533">
        <ele>129.600006</ele>
        <time>2017-08-07T08:56:51Z</time>
      </trkpt>
      <trkpt lat="43.25204" lon="2.13521">
        <ele>128.699997</ele>
        <time>2017-08-07T08:56:54Z</time>
      </trkpt>
      <trkpt lat="43.25208" lon="2.13507">
        <ele>127.800003</ele>
        <time>2017-08-07T08:56:57Z</time>
      </trkpt>
      <trkpt lat="43.25213" lon="2.13496">
        <ele>127.699997</ele>
        <time>2017-08-07T08:57:00Z</time>
      </trkpt>
      <trkpt lat="43.25218" lon="2.13484">
        <ele>127.699997</ele>
        <time>2017-08-07T08:57:03Z</time>
      </trkpt>
      <trkpt lat="43.25224" lon="2.13472">
        <ele>127.800003</ele>
        <time>2017-08-07T08:57:06Z</time>
      </trkpt>
      <trkpt lat="43.25231" lon="2.13463">
        <ele>127.900002</ele>
        <time>2017-08-07T08:57:09Z</time>
      </trkpt>
      <trkpt lat="43.25241" lon="2.13454">
        <ele>128.399994</ele>
        <time>2017-08-07T08:57:13Z</time>
      </trkpt>
      <trkpt lat="43.25243" lon="2.13439">
        <ele>129.100006</ele>
        <time>2017-08-07T08:57:17Z</time>
      </trkpt>
      <trkpt lat="43.25245" lon="2.13424">
        <ele>129.699997</ele>
        <time>2017-08-07T08:57:20Z</time>
      </trkpt>
      <trkpt lat="43.25252" lon="2.13413">
        <ele>130.699997</ele>
        <time>2017-08-07T08:57:23Z</time>
      </trkpt>
      <trkpt lat="43.25257" lon="2.13399">
        <ele>132</ele>
        <time>2017-08-07T08:57:26Z</time>
      </trkpt>
      <trkpt lat="43.25264" lon="2.13384">
        <ele>133.5</ele>
        <time>2017-08-07T08:57:29Z</time>
      </trkpt>
      <trkpt lat="43.2527" lon="2.13368">
        <ele>133.800003</ele>
        <time>2017-08-07T08:57:32Z</time>
      </trkpt>
      <trkpt lat="43.25277" lon="2.13354">
        <ele>133.600006</ele>
        <time>2017-08-07T08:57:35Z</time>
      </trkpt>
      <trkpt lat="43.25282" lon="2.13344">
        <ele>133.5</ele>
        <time>2017-08-07T08:57:37Z</time>
      </trkpt>
      <trkpt lat="43.25289" lon="2.13328">
        <ele>132.699997</ele>
        <time>2017-08-07T08:57:40Z</time>
      </trkpt>
      <trkpt lat="43.25293" lon="2.13317">
        <ele>132</ele>
        <time>2017-08-07T08:57:42Z</time>
      </trkpt>
      <trkpt lat="43.25297" lon="2.13306">
        <ele>131.5</ele>
        <time>2017-08-07T08:57:44Z</time>
      </trkpt>
      <trkpt lat="43.25301" lon="2.13294">
        <ele>131.199997</ele>
        <time>2017-08-07T08:57:46Z</time>
      </trkpt>
      <trkpt lat="43.25307" lon="2.13278">
        <ele>131</ele>
        <time>2017-08-07T08:57:49Z</time>
      </trkpt>
      <trkpt lat="43.25314" lon="2.13264">
        <ele>130.699997</ele>
        <time>2017-08-07T08:57:52Z</time>
      </trkpt>
      <trkpt lat="43.25318" lon="2.13252">
        <ele>130.899994</ele>
        <time>2017-08-07T08:57:54Z</time>
      </trkpt>
      <trkpt lat="43.25323" lon="2.13241">
        <ele>131.199997</ele>
        <time>2017-08-07T08:57:56Z</time>
      </trkpt>
      <trkpt lat="43.25329" lon="2.1323">
        <ele>131.5</ele>
        <time>2017-08-07T08:57:58Z</time>
      </trkpt>
      <trkpt lat="43.25333" lon="2.13218">
        <ele>131.399994</ele>
        <time>2017-08-07T08:58:00Z</time>
      </trkpt>
      <trkpt lat="43.25339" lon="2.13204">
        <ele>131.399994</ele>
        <time>2017-08-07T08:58:03Z</time>
      </trkpt>
      <trkpt lat="43.25343" lon="2.13192">
        <ele>131.600006</ele>
        <time>2017-08-07T08:58:05Z</time>
      </trkpt>
      <trkpt lat="43.2535" lon="2.13176">
        <ele>132.100006</ele>
        <time>2017-08-07T08:58:08Z</time>
      </trkpt>
      <trkpt lat="43.25355" lon="2.13165">
        <ele>132.300003</ele>
        <time>2017-08-07T08:58:10Z</time>
      </trkpt>
      <trkpt lat="43.25359" lon="2.13153">
        <ele>132.600006</ele>
        <time>2017-08-07T08:58:12Z</time>
      </trkpt>
      <trkpt lat="43.25363" lon="2.13141">
        <ele>132.699997</ele>
        <time>2017-08-07T08:58:14Z</time>
      </trkpt>
      <trkpt lat="43.25368" lon="2.13129">
        <ele>132.899994</ele>
        <time>2017-08-07T08:58:16Z</time>
      </trkpt>
      <trkpt lat="43.25373" lon="2.13119">
        <ele>133.100006</ele>
        <time>2017-08-07T08:58:18Z</time>
      </trkpt>
      <trkpt lat="43.25379" lon="2.13109">
        <ele>133.399994</ele>
        <time>2017-08-07T08:58:20Z</time>
      </trkpt>
      <trkpt lat="43.25384" lon="2.13097">
        <ele>133.300003</ele>
        <time>2017-08-07T08:58:22Z</time>
      </trkpt>
      <trkpt lat="43.25389" lon="2.13085">
        <ele>132.699997</ele>
        <time>2017-08-07T08:58:24Z</time>
      </trkpt>
      <trkpt lat="43.25393" lon="2.13073">
        <ele>132.100006</ele>
        <time>2017-08-07T08:58:26Z</time>
      </trkpt>
      <trkpt lat="43.25399" lon="2.13062">
        <ele>131.399994</ele>
        <time>2017-08-07T08:58:28Z</time>
      </trkpt>
      <trkpt lat="43.25404" lon="2.13049">
        <ele>130.399994</ele>
        <time>2017-08-07T08:58:30Z</time>
      </trkpt>
      <trkpt lat="43.25408" lon="2.13037">
        <ele>129.699997</ele>
        <time>2017-08-07T08:58:32Z</time>
      </trkpt>
      <trkpt lat="43.25413" lon="2.13026">
        <ele>129.699997</ele>
        <time>2017-08-07T08:58:34Z</time>
      </trkpt>
      <trkpt lat="43.25417" lon="2.13015">
        <ele>129.600006</ele>
        <time>2017-08-07T08:58:36Z</time>
      </trkpt>
      <trkpt lat="43.25422" lon="2.13003">
        <ele>129.600006</ele>
        <time>2017-08-07T08:58:38Z</time>
      </trkpt>
      <trkpt lat="43.25428" lon="2.12988">
        <ele>129.600006</ele>
        <time>2017-08-07T08:58:41Z</time>
      </trkpt>
      <trkpt lat="43.25436" lon="2.12973">
        <ele>128.899994</ele>
        <time>2017-08-07T08:58:44Z</time>
      </trkpt>
      <trkpt lat="43.25441" lon="2.12961">
        <ele>128.199997</ele>
        <time>2017-08-07T08:58:46Z</time>
      </trkpt>
      <trkpt lat="43.25446" lon="2.1295">
        <ele>128</ele>
        <time>2017-08-07T08:58:48Z</time>
      </trkpt>
      <trkpt lat="43.25453" lon="2.12935">
        <ele>128</ele>
        <time>2017-08-07T08:58:51Z</time>
      </trkpt>
      <trkpt lat="43.25456" lon="2.12923">
        <ele>127.900002</ele>
        <time>2017-08-07T08:58:53Z</time>
      </trkpt>
      <trkpt lat="43.25459" lon="2.12909">
        <ele>127.599998</ele>
        <time>2017-08-07T08:58:55Z</time>
      </trkpt>
      <trkpt lat="43.25463" lon="2.12898">
        <ele>127.800003</ele>
        <time>2017-08-07T08:58:57Z</time>
      </trkpt>
      <trkpt lat="43.2547" lon="2.12886">
        <ele>128.100006</ele>
        <time>2017-08-07T08:58:59Z</time>
      </trkpt>
      <trkpt lat="43.25477" lon="2.1287">
        <ele>128.100006</ele>
        <time>2017-08-07T08:59:02Z</time>
      </trkpt>
      <trkpt lat="43.25483" lon="2.12854">
        <ele>128.600006</ele>
        <time>2017-08-07T08:59:05Z</time>
      </trkpt>
      <trkpt lat="43.25489" lon="2.12837">
        <ele>129.5</ele>
        <time>2017-08-07T08:59:08Z</time>
      </trkpt>
      <trkpt lat="43.25496" lon="2.12822">
        <ele>130.699997</ele>
        <time>2017-08-07T08:59:11Z</time>
      </trkpt>
      <trkpt lat="43.255" lon="2.12811">
        <ele>130.300003</ele>
        <time>2017-08-07T08:59:13Z</time>
      </trkpt>
      <trkpt lat="43.25504" lon="2.12798">
        <ele>129.199997</ele>
        <time>2017-08-07T08:59:15Z</time>
      </trkpt>
      <trkpt lat="43.25509" lon="2.12788">
        <ele>128.199997</ele>
        <time>2017-08-07T08:59:17Z</time>
      </trkpt>
      <trkpt lat="43.25513" lon="2.12776">
        <ele>126.900002</ele>
        <time>2017-08-07T08:59:19Z</time>
      </trkpt>
      <trkpt lat="43.2552" lon="2.1276">
        <ele>125.400002</ele>
        <time>2017-08-07T08:59:22Z</time>
      </trkpt>
      <trkpt lat="43.25527" lon="2.1275">
        <ele>125.400002</ele>
        <time>2017-08-07T08:59:24Z</time>
      </trkpt>
      <trkpt lat="43.25531" lon="2.12739">
        <ele>125.400002</ele>
        <time>2017-08-07T08:59:26Z</time>
      </trkpt>
      <trkpt lat="43.25536" lon="2.12728">
        <ele>125.400002</ele>
        <time>2017-08-07T08:59:28Z</time>
      </trkpt>
      <trkpt lat="43.25543" lon="2.12715">
        <ele>125.5</ele>
        <time>2017-08-07T08:59:31Z</time>
      </trkpt>
      <trkpt lat="43.25549" lon="2.12701">
        <ele>126.400002</ele>
        <time>2017-08-07T08:59:34Z</time>
      </trkpt>
      <trkpt lat="43.25555" lon="2.12689">
        <ele>128.199997</ele>
        <time>2017-08-07T08:59:37Z</time>
      </trkpt>
      <trkpt lat="43.2556" lon="2.12676">
        <ele>129.600006</ele>
        <time>2017-08-07T08:59:41Z</time>
      </trkpt>
      <trkpt lat="43.25567" lon="2.12665">
        <ele>130.800003</ele>
        <time>2017-08-07T09:00:11Z</time>
      </trkpt>
      <trkpt lat="43.2557" lon="2.1265">
        <ele>130.899994</ele>
        <time>2017-08-07T09:00:16Z</time>
      </trkpt>
      <trkpt lat="43.25576" lon="2.12632">
        <ele>130.300003</ele>
        <time>2017-08-07T09:00:19Z</time>
      </trkpt>
      <trkpt lat="43.25581" lon="2.12618">
        <ele>129.699997</ele>
        <time>2017-08-07T09:00:21Z</time>
      </trkpt>
      <trkpt lat="43.25586" lon="2.12604">
        <ele>129</ele>
        <time>2017-08-07T09:00:23Z</time>
      </trkpt>
      <trkpt lat="43.25591" lon="2.12588">
        <ele>128.5</ele>
        <time>2017-08-07T09:00:25Z</time>
      </trkpt>
      <trkpt lat="43.25597" lon="2.12572">
        <ele>128.199997</ele>
        <time>2017-08-07T09:00:27Z</time>
      </trkpt>
      <trkpt lat="43.25603" lon="2.12558">
        <ele>128.300003</ele>
        <time>2017-08-07T09:00:29Z</time>
      </trkpt>
      <trkpt lat="43.25608" lon="2.12546">
        <ele>128.800003</ele>
        <time>2017-08-07T09:00:31Z</time>
      </trkpt>
      <trkpt lat="43.25613" lon="2.12533">
        <ele>129</ele>
        <time>2017-08-07T09:00:33Z</time>
      </trkpt>
      <trkpt lat="43.25618" lon="2.1252">
        <ele>128.199997</ele>
        <time>2017-08-07T09:00:35Z</time>
      </trkpt>
      <trkpt lat="43.25622" lon="2.12509">
        <ele>127.699997</ele>
        <time>2017-08-07T09:00:37Z</time>
      </trkpt>
      <trkpt lat="43.25627" lon="2.12498">
        <ele>128.199997</ele>
        <time>2017-08-07T09:00:39Z</time>
      </trkpt>
      <trkpt lat="43.25632" lon="2.12485">
        <ele>128.899994</ele>
        <time>2017-08-07T09:00:41Z</time>
      </trkpt>
      <trkpt lat="43.25637" lon="2.12472">
        <ele>129.300003</ele>
        <time>2017-08-07T09:00:43Z</time>
      </trkpt>
      <trkpt lat="43.25643" lon="2.12462">
        <ele>130.100006</ele>
        <time>2017-08-07T09:00:45Z</time>
      </trkpt>
      <trkpt lat="43.25648" lon="2.12449">
        <ele>130.600006</ele>
        <time>2017-08-07T09:00:47Z</time>
      </trkpt>
      <trkpt lat="43.25654" lon="2.12436">
        <ele>130.5</ele>
        <time>2017-08-07T09:00:49Z</time>
      </trkpt>
      <trkpt lat="43.25659" lon="2.12424">
        <ele>130.600006</ele>
        <time>2017-08-07T09:00:51Z</time>
      </trkpt>
      <trkpt lat="43.25663" lon="2.12413">
        <ele>130.600006</ele>
        <time>2017-08-07T09:00:53Z</time>
      </trkpt>
      <trkpt lat="43.25669" lon="2.12401">
        <ele>130.800003</ele>
        <time>2017-08-07T09:00:55Z</time>
      </trkpt>
      <trkpt lat="43.25674" lon="2.12388">
        <ele>131.399994</ele>
        <time>2017-08-07T09:00:57Z</time>
      </trkpt>
      <trkpt lat="43.25681" lon="2.12372">
        <ele>132.5</ele>
        <time>2017-08-07T09:01:00Z</time>
      </trkpt>
      <trkpt lat="43.25687" lon="2.1236">
        <ele>131.100006</ele>
        <time>2017-08-07T09:01:02Z</time>
      </trkpt>
      <trkpt lat="43.25691" lon="2.12347">
        <ele>130</ele>
        <time>2017-08-07T09:01:04Z</time>
      </trkpt>
      <trkpt lat="43.25695" lon="2.12334">
        <ele>129.699997</ele>
        <time>2017-08-07T09:01:06Z</time>
      </trkpt>
      <trkpt lat="43.257" lon="2.12323">
        <ele>129.699997</ele>
        <time>2017-08-07T09:01:08Z</time>
      </trkpt>
      <trkpt lat="43.25705" lon="2.12311">
        <ele>129.5</ele>
        <time>2017-08-07T09:01:10Z</time>
      </trkpt>
      <trkpt lat="43.2571" lon="2.12299">
        <ele>129</ele>
        <time>2017-08-07T09:01:12Z</time>
      </trkpt>
      <trkpt lat="43.25715" lon="2.12288">
        <ele>128.300003</ele>
        <time>2017-08-07T09:01:14Z</time>
      </trkpt>
      <trkpt lat="43.25719" lon="2.12277">
        <ele>127.900002</ele>
        <time>2017-08-07T09:01:16Z</time>
      </trkpt>
      <trkpt lat="43.25724" lon="2.12265">
        <ele>127.699997</ele>
        <time>2017-08-07T09:01:18Z</time>
      </trkpt>
      <trkpt lat="43.25729" lon="2.12252">
        <ele>127.5</ele>
        <time>2017-08-07T09:01:20Z</time>
      </trkpt>
      <trkpt lat="43.25733" lon="2.1224">
        <ele>127.099998</ele>
        <time>2017-08-07T09:01:22Z</time>
      </trkpt>
      <trkpt lat="43.25737" lon="2.12229">
        <ele>126.900002</ele>
        <time>2017-08-07T09:01:24Z</time>
      </trkpt>
      <trkpt lat="43.25743" lon="2.12218">
        <ele>127.199997</ele>
        <time>2017-08-07T09:01:26Z</time>
      </trkpt>
      <trkpt lat="43.25748" lon="2.12207">
        <ele>127.099998</ele>
        <time>2017-08-07T09:01:28Z</time>
      </trkpt>
      <trkpt lat="43.25753" lon="2.12195">
        <ele>126.5</ele>
        <time>2017-08-07T09:01:30Z</time>
      </trkpt>
      <trkpt lat="43.25757" lon="2.12184">
        <ele>125.800003</ele>
        <time>2017-08-07T09:01:32Z</time>
      </trkpt>
      <trkpt lat="43.25762" lon="2.12172">
        <ele>125.300003</ele>
        <time>2017-08-07T09:01:34Z</time>
      </trkpt>
      <trkpt lat="43.25767" lon="2.12161">
        <ele>125</ele>
        <time>2017-08-07T09:01:36Z</time>
      </trkpt>
      <trkpt lat="43.25772" lon="2.12149">
        <ele>124.699997</ele>
        <time>2017-08-07T09:01:38Z</time>
      </trkpt>
      <trkpt lat="43.25776" lon="2.12137">
        <ele>124.599998</ele>
        <time>2017-08-07T09:01:40Z</time>
      </trkpt>
      <trkpt lat="43.25781" lon="2.12126">
        <ele>124.300003</ele>
        <time>2017-08-07T09:01:42Z</time>
      </trkpt>
      <trkpt lat="43.25786" lon="2.12114">
        <ele>123.900002</ele>
        <time>2017-08-07T09:01:44Z</time>
      </trkpt>
      <trkpt lat="43.25791" lon="2.12103">
        <ele>123.400002</ele>
        <time>2017-08-07T09:01:46Z</time>
      </trkpt>
      <trkpt lat="43.25796" lon="2.12092">
        <ele>123.300003</ele>
        <time>2017-08-07T09:01:48Z</time>
      </trkpt>
      <trkpt lat="43.25801" lon="2.1208">
        <ele>123.599998</ele>
        <time>2017-08-07T09:01:50Z</time>
      </trkpt>
      <trkpt lat="43.25806" lon="2.12067">
        <ele>123.900002</ele>
        <time>2017-08-07T09:01:52Z</time>
      </trkpt>
      <trkpt lat="43.25814" lon="2.12054">
        <ele>124.5</ele>
        <time>2017-08-07T09:01:55Z</time>
      </trkpt>
      <trkpt lat="43.25823" lon="2.12052">
        <ele>125.5</ele>
        <time>2017-08-07T09:02:02Z</time>
      </trkpt>
      <trkpt lat="43.25832" lon="2.12044">
        <ele>125.900002</ele>
        <time>2017-08-07T09:02:06Z</time>
      </trkpt>
      <trkpt lat="43.25837" lon="2.12031">
        <ele>125.800003</ele>
        <time>2017-08-07T09:02:09Z</time>
      </trkpt>
      <trkpt lat="43.25841" lon="2.12019">
        <ele>125.599998</ele>
        <time>2017-08-07T09:02:12Z</time>
      </trkpt>
      <trkpt lat="43.25846" lon="2.12006">
        <ele>125.599998</ele>
        <time>2017-08-07T09:02:15Z</time>
      </trkpt>
      <trkpt lat="43.2585" lon="2.11992">
        <ele>125.400002</ele>
        <time>2017-08-07T09:02:18Z</time>
      </trkpt>
      <trkpt lat="43.25849" lon="2.1198">
        <ele>125.099998</ele>
        <time>2017-08-07T09:02:21Z</time>
      </trkpt>
      <trkpt lat="43.2585" lon="2.11965">
        <ele>124.599998</ele>
        <time>2017-08-07T09:02:27Z</time>
      </trkpt>
      <trkpt lat="43.25855" lon="2.11954">
        <ele>124.800003</ele>
        <time>2017-08-07T09:02:31Z</time>
      </trkpt>
      <trkpt lat="43.25861" lon="2.11942">
        <ele>125.699997</ele>
        <time>2017-08-07T09:02:36Z</time>
      </trkpt>
      <trkpt lat="43.25866" lon="2.11928">
        <ele>126.699997</ele>
        <time>2017-08-07T09:02:40Z</time>
      </trkpt>
      <trkpt lat="43.25872" lon="2.11916">
        <ele>127.5</ele>
        <time>2017-08-07T09:02:43Z</time>
      </trkpt>
      <trkpt lat="43.25877" lon="2.11905">
        <ele>128</ele>
        <time>2017-08-07T09:02:46Z</time>
      </trkpt>
      <trkpt lat="43.25882" lon="2.11893">
        <ele>127.900002</ele>
        <time>2017-08-07T09:02:49Z</time>
      </trkpt>
      <trkpt lat="43.25888" lon="2.11882">
        <ele>128</ele>
        <time>2017-08-07T09:02:52Z</time>
      </trkpt>
      <trkpt lat="43.25894" lon="2.11871">
        <ele>128.399994</ele>
        <time>2017-08-07T09:02:55Z</time>
      </trkpt>
      <trkpt lat="43.259" lon="2.1186">
        <ele>128.600006</ele>
        <time>2017-08-07T09:02:58Z</time>
      </trkpt>
      <trkpt lat="43.25907" lon="2.11844">
        <ele>128.199997</ele>
        <time>2017-08-07T09:03:01Z</time>
      </trkpt>
      <trkpt lat="43.25911" lon="2.11828">
        <ele>127.400002</ele>
        <time>2017-08-07T09:03:04Z</time>
      </trkpt>
      <trkpt lat="43.25918" lon="2.11812">
        <ele>126.699997</ele>
        <time>2017-08-07T09:03:07Z</time>
      </trkpt>
      <trkpt lat="43.25924" lon="2.11796">
        <ele>126</ele>
        <time>2017-08-07T09:03:10Z</time>
      </trkpt>
      <trkpt lat="43.2593" lon="2.11782">
        <ele>125.599998</ele>
        <time>2017-08-07T09:03:13Z</time>
      </trkpt>
      <trkpt lat="43.25935" lon="2.11766">
        <ele>126</ele>
        <time>2017-08-07T09:03:16Z</time>
      </trkpt>
      <trkpt lat="43.25942" lon="2.11752">
        <ele>126.599998</ele>
        <time>2017-08-07T09:03:19Z</time>
      </trkpt>
      <trkpt lat="43.25949" lon="2.1174">
        <ele>127.699997</ele>
        <time>2017-08-07T09:03:22Z</time>
      </trkpt>
      <trkpt lat="43.25955" lon="2.11725">
        <ele>127.5</ele>
        <time>2017-08-07T09:03:25Z</time>
      </trkpt>
      <trkpt lat="43.25958" lon="2.11712">
        <ele>125.800003</ele>
        <time>2017-08-07T09:03:27Z</time>
      </trkpt>
      <trkpt lat="43.25961" lon="2.117">
        <ele>125</ele>
        <time>2017-08-07T09:03:29Z</time>
      </trkpt>
      <trkpt lat="43.25969" lon="2.11686">
        <ele>125.400002</ele>
        <time>2017-08-07T09:03:32Z</time>
      </trkpt>
      <trkpt lat="43.25972" lon="2.11666">
        <ele>125.199997</ele>
        <time>2017-08-07T09:03:35Z</time>
      </trkpt>
      <trkpt lat="43.25978" lon="2.11652">
        <ele>125.199997</ele>
        <time>2017-08-07T09:03:38Z</time>
      </trkpt>
      <trkpt lat="43.25986" lon="2.11639">
        <ele>125.400002</ele>
        <time>2017-08-07T09:03:41Z</time>
      </trkpt>
      <trkpt lat="43.25991" lon="2.11628">
        <ele>125</ele>
        <time>2017-08-07T09:03:43Z</time>
      </trkpt>
      <trkpt lat="43.25995" lon="2.11616">
        <ele>125</ele>
        <time>2017-08-07T09:03:45Z</time>
      </trkpt>
      <trkpt lat="43.26" lon="2.11601">
        <ele>125.099998</ele>
        <time>2017-08-07T09:03:48Z</time>
      </trkpt>
      <trkpt lat="43.26007" lon="2.11585">
        <ele>124.800003</ele>
        <time>2017-08-07T09:03:51Z</time>
      </trkpt>
      <trkpt lat="43.26012" lon="2.11575">
        <ele>124.400002</ele>
        <time>2017-08-07T09:03:53Z</time>
      </trkpt>
      <trkpt lat="43.26018" lon="2.1156">
        <ele>124.300003</ele>
        <time>2017-08-07T09:03:56Z</time>
      </trkpt>
      <trkpt lat="43.26024" lon="2.11545">
        <ele>124.5</ele>
        <time>2017-08-07T09:03:59Z</time>
      </trkpt>
      <trkpt lat="43.26031" lon="2.1153">
        <ele>125</ele>
        <time>2017-08-07T09:04:02Z</time>
      </trkpt>
      <trkpt lat="43.26039" lon="2.11516">
        <ele>125.5</ele>
        <time>2017-08-07T09:04:05Z</time>
      </trkpt>
      <trkpt lat="43.26045" lon="2.115">
        <ele>126</ele>
        <time>2017-08-07T09:04:08Z</time>
      </trkpt>
      <trkpt lat="43.2605" lon="2.11486">
        <ele>126.099998</ele>
        <time>2017-08-07T09:04:11Z</time>
      </trkpt>
      <trkpt lat="43.26053" lon="2.11474">
        <ele>125.800003</ele>
        <time>2017-08-07T09:04:13Z</time>
      </trkpt>
      <trkpt lat="43.2606" lon="2.1146">
        <ele>125.800003</ele>
        <time>2017-08-07T09:04:16Z</time>
      </trkpt>
      <trkpt lat="43.26065" lon="2.11448">
        <ele>126.099998</ele>
        <time>2017-08-07T09:04:19Z</time>
      </trkpt>
      <trkpt lat="43.2607" lon="2.11436">
        <ele>126.199997</ele>
        <time>2017-08-07T09:04:21Z</time>
      </trkpt>
      <trkpt lat="43.26077" lon="2.11422">
        <ele>126.099998</ele>
        <time>2017-08-07T09:04:24Z</time>
      </trkpt>
      <trkpt lat="43.26082" lon="2.11405">
        <ele>125.599998</ele>
        <time>2017-08-07T09:04:27Z</time>
      </trkpt>
      <trkpt lat="43.2609" lon="2.11392">
        <ele>126</ele>
        <time>2017-08-07T09:04:30Z</time>
      </trkpt>
      <trkpt lat="43.26097" lon="2.11377">
        <ele>126.800003</ele>
        <time>2017-08-07T09:04:33Z</time>
      </trkpt>
      <trkpt lat="43.26102" lon="2.11361">
        <ele>127</ele>
        <time>2017-08-07T09:04:36Z</time>
      </trkpt>
      <trkpt lat="43.26108" lon="2.11348">
        <ele>127.400002</ele>
        <time>2017-08-07T09:04:39Z</time>
      </trkpt>
      <trkpt lat="43.26113" lon="2.11338">
        <ele>128.300003</ele>
        <time>2017-08-07T09:04:41Z</time>
      </trkpt>
      <trkpt lat="43.26119" lon="2.11323">
        <ele>129.699997</ele>
        <time>2017-08-07T09:04:44Z</time>
      </trkpt>
      <trkpt lat="43.26124" lon="2.11306">
        <ele>130.300003</ele>
        <time>2017-08-07T09:04:47Z</time>
      </trkpt>
      <trkpt lat="43.26128" lon="2.11294">
        <ele>130.699997</ele>
        <time>2017-08-07T09:04:49Z</time>
      </trkpt>
      <trkpt lat="43.26133" lon="2.11284">
        <ele>131.699997</ele>
        <time>2017-08-07T09:04:51Z</time>
      </trkpt>
      <trkpt lat="43.2614" lon="2.11272">
        <ele>133.199997</ele>
        <time>2017-08-07T09:04:54Z</time>
      </trkpt>
      <trkpt lat="43.26144" lon="2.1126">
        <ele>134.300003</ele>
        <time>2017-08-07T09:04:56Z</time>
      </trkpt>
      <trkpt lat="43.2615" lon="2.11246">
        <ele>136</ele>
        <time>2017-08-07T09:04:59Z</time>
      </trkpt>
      <trkpt lat="43.26155" lon="2.11235">
        <ele>137.100006</ele>
        <time>2017-08-07T09:05:01Z</time>
      </trkpt>
      <trkpt lat="43.26161" lon="2.11225">
        <ele>137.100006</ele>
        <time>2017-08-07T09:05:03Z</time>
      </trkpt>
      <trkpt lat="43.26167" lon="2.11216">
        <ele>137.100006</ele>
        <time>2017-08-07T09:05:05Z</time>
      </trkpt>
      <trkpt lat="43.26178" lon="2.11203">
        <ele>137.199997</ele>
        <time>2017-08-07T09:05:08Z</time>
      </trkpt>
      <trkpt lat="43.26188" lon="2.11196">
        <ele>137.100006</ele>
        <time>2017-08-07T09:05:11Z</time>
      </trkpt>
      <trkpt lat="43.26196" lon="2.11189">
        <ele>136.800003</ele>
        <time>2017-08-07T09:05:13Z</time>
      </trkpt>
      <trkpt lat="43.26204" lon="2.11184">
        <ele>136.899994</ele>
        <time>2017-08-07T09:05:15Z</time>
      </trkpt>
      <trkpt lat="43.26213" lon="2.11174">
        <ele>136.399994</ele>
        <time>2017-08-07T09:05:18Z</time>
      </trkpt>
      <trkpt lat="43.26224" lon="2.11165">
        <ele>135.699997</ele>
        <time>2017-08-07T09:05:21Z</time>
      </trkpt>
      <trkpt lat="43.26236" lon="2.11158">
        <ele>135.699997</ele>
        <time>2017-08-07T09:05:24Z</time>
      </trkpt>
      <trkpt lat="43.26244" lon="2.11151">
        <ele>135.600006</ele>
        <time>2017-08-07T09:05:27Z</time>
      </trkpt>
      <trkpt lat="43.26257" lon="2.11143">
        <ele>135.699997</ele>
        <time>2017-08-07T09:05:30Z</time>
      </trkpt>
      <trkpt lat="43.26266" lon="2.11138">
        <ele>136</ele>
        <time>2017-08-07T09:05:32Z</time>
      </trkpt>
      <trkpt lat="43.26278" lon="2.1113">
        <ele>136</ele>
        <time>2017-08-07T09:05:35Z</time>
      </trkpt>
      <trkpt lat="43.2629" lon="2.11123">
        <ele>136.5</ele>
        <time>2017-08-07T09:05:38Z</time>
      </trkpt>
      <trkpt lat="43.26302" lon="2.11115">
        <ele>136.699997</ele>
        <time>2017-08-07T09:05:41Z</time>
      </trkpt>
      <trkpt lat="43.26311" lon="2.1111">
        <ele>136.600006</ele>
        <time>2017-08-07T09:05:43Z</time>
      </trkpt>
      <trkpt lat="43.26323" lon="2.11103">
        <ele>136.300003</ele>
        <time>2017-08-07T09:05:46Z</time>
      </trkpt>
      <trkpt lat="43.26333" lon="2.11098">
        <ele>136.5</ele>
        <time>2017-08-07T09:05:48Z</time>
      </trkpt>
      <trkpt lat="43.26341" lon="2.11093">
        <ele>136.800003</ele>
        <time>2017-08-07T09:05:50Z</time>
      </trkpt>
      <trkpt lat="43.26352" lon="2.11087">
        <ele>136.699997</ele>
        <time>2017-08-07T09:05:53Z</time>
      </trkpt>
      <trkpt lat="43.26363" lon="2.1108">
        <ele>136.199997</ele>
        <time>2017-08-07T09:05:56Z</time>
      </trkpt>
      <trkpt lat="43.26372" lon="2.11075">
        <ele>135.800003</ele>
        <time>2017-08-07T09:05:58Z</time>
      </trkpt>
      <trkpt lat="43.26384" lon="2.11071">
        <ele>136.399994</ele>
        <time>2017-08-07T09:06:01Z</time>
      </trkpt>
      <trkpt lat="43.26395" lon="2.11066">
        <ele>136.800003</ele>
        <time>2017-08-07T09:06:03Z</time>
      </trkpt>
      <trkpt lat="43.26403" lon="2.1106">
        <ele>136.600006</ele>
        <time>2017-08-07T09:06:05Z</time>
      </trkpt>
      <trkpt lat="43.26414" lon="2.11054">
        <ele>136</ele>
        <time>2017-08-07T09:06:08Z</time>
      </trkpt>
      <trkpt lat="43.26426" lon="2.11047">
        <ele>135.5</ele>
        <time>2017-08-07T09:06:11Z</time>
      </trkpt>
      <trkpt lat="43.26437" lon="2.11041">
        <ele>135.199997</ele>
        <time>2017-08-07T09:06:14Z</time>
      </trkpt>
      <trkpt lat="43.26448" lon="2.11034">
        <ele>134.600006</ele>
        <time>2017-08-07T09:06:17Z</time>
      </trkpt>
      <trkpt lat="43.26459" lon="2.11027">
        <ele>134.399994</ele>
        <time>2017-08-07T09:06:20Z</time>
      </trkpt>
      <trkpt lat="43.26472" lon="2.1102">
        <ele>134.199997</ele>
        <time>2017-08-07T09:06:23Z</time>
      </trkpt>
      <trkpt lat="43.26484" lon="2.11013">
        <ele>133.800003</ele>
        <time>2017-08-07T09:06:26Z</time>
      </trkpt>
      <trkpt lat="43.26492" lon="2.11007">
        <ele>133.800003</ele>
        <time>2017-08-07T09:06:28Z</time>
      </trkpt>
      <trkpt lat="43.26503" lon="2.11002">
        <ele>134.199997</ele>
        <time>2017-08-07T09:06:31Z</time>
      </trkpt>
      <trkpt lat="43.26513" lon="2.10997">
        <ele>134.399994</ele>
        <time>2017-08-07T09:06:34Z</time>
      </trkpt>
      <trkpt lat="43.26521" lon="2.10993">
        <ele>134.800003</ele>
        <time>2017-08-07T09:06:37Z</time>
      </trkpt>
      <trkpt lat="43.2653" lon="2.10986">
        <ele>135.199997</ele>
        <time>2017-08-07T09:06:41Z</time>
      </trkpt>
      <trkpt lat="43.26538" lon="2.10978">
        <ele>135</ele>
        <time>2017-08-07T09:06:45Z</time>
      </trkpt>
      <trkpt lat="43.26547" lon="2.10973">
        <ele>135.199997</ele>
        <time>2017-08-07T09:06:50Z</time>
      </trkpt>
      <trkpt lat="43.26556" lon="2.10967">
        <ele>135</ele>
        <time>2017-08-07T09:06:58Z</time>
      </trkpt>
      <trkpt lat="43.26566" lon="2.10966">
        <ele>135.600006</ele>
        <time>2017-08-07T09:07:19Z</time>
      </trkpt>
      <trkpt lat="43.26576" lon="2.10963">
        <ele>137</ele>
        <time>2017-08-07T09:10:01Z</time>
      </trkpt>
      <trkpt lat="43.26584" lon="2.10956">
        <ele>137.800003</ele>
        <time>2017-08-07T09:10:06Z</time>
      </trkpt>
      <trkpt lat="43.26593" lon="2.10951">
        <ele>138.399994</ele>
        <time>2017-08-07T09:10:10Z</time>
      </trkpt>
      <trkpt lat="43.26601" lon="2.10946">
        <ele>138.5</ele>
        <time>2017-08-07T09:10:14Z</time>
      </trkpt>
      <trkpt lat="43.26612" lon="2.10939">
        <ele>138</ele>
        <time>2017-08-07T09:10:18Z</time>
      </trkpt>
      <trkpt lat="43.26621" lon="2.10934">
        <ele>138.600006</ele>
        <time>2017-08-07T09:10:21Z</time>
      </trkpt>
      <trkpt lat="43.2663" lon="2.10929">
        <ele>138.899994</ele>
        <time>2017-08-07T09:10:24Z</time>
      </trkpt>
      <trkpt lat="43.26638" lon="2.10925">
        <ele>138.100006</ele>
        <time>2017-08-07T09:10:27Z</time>
      </trkpt>
      <trkpt lat="43.26648" lon="2.10919">
        <ele>136.699997</ele>
        <time>2017-08-07T09:10:31Z</time>
      </trkpt>
      <trkpt lat="43.26659" lon="2.10913">
        <ele>135.699997</ele>
        <time>2017-08-07T09:10:35Z</time>
      </trkpt>
      <trkpt lat="43.26668" lon="2.10908">
        <ele>135.699997</ele>
        <time>2017-08-07T09:10:38Z</time>
      </trkpt>
      <trkpt lat="43.26677" lon="2.10902">
        <ele>136.199997</ele>
        <time>2017-08-07T09:10:41Z</time>
      </trkpt>
      <trkpt lat="43.26686" lon="2.10897">
        <ele>137.100006</ele>
        <time>2017-08-07T09:10:44Z</time>
      </trkpt>
      <trkpt lat="43.26695" lon="2.10892">
        <ele>138.699997</ele>
        <time>2017-08-07T09:10:47Z</time>
      </trkpt>
      <trkpt lat="43.26705" lon="2.10887">
        <ele>140.600006</ele>
        <time>2017-08-07T09:10:50Z</time>
      </trkpt>
      <trkpt lat="43.26717" lon="2.10881">
        <ele>141.800003</ele>
        <time>2017-08-07T09:10:53Z</time>
      </trkpt>
      <trkpt lat="43.26729" lon="2.10874">
        <ele>142.699997</ele>
        <time>2017-08-07T09:10:56Z</time>
      </trkpt>
      <trkpt lat="43.26741" lon="2.10866">
        <ele>142.800003</ele>
        <time>2017-08-07T09:11:00Z</time>
      </trkpt>
      <trkpt lat="43.26756" lon="2.1086">
        <ele>144.100006</ele>
        <time>2017-08-07T09:11:03Z</time>
      </trkpt>
      <trkpt lat="43.26764" lon="2.10853">
        <ele>145</ele>
        <time>2017-08-07T09:11:07Z</time>
      </trkpt>
      <trkpt lat="43.26773" lon="2.10849">
        <ele>145.199997</ele>
        <time>2017-08-07T09:11:09Z</time>
      </trkpt>
      <trkpt lat="43.26785" lon="2.10842">
        <ele>144.399994</ele>
        <time>2017-08-07T09:11:12Z</time>
      </trkpt>
      <trkpt lat="43.26794" lon="2.10834">
        <ele>143.5</ele>
        <time>2017-08-07T09:11:14Z</time>
      </trkpt>
      <trkpt lat="43.26807" lon="2.10829">
        <ele>141.399994</ele>
        <time>2017-08-07T09:11:16Z</time>
      </trkpt>
      <trkpt lat="43.26816" lon="2.10822">
        <ele>139.800003</ele>
        <time>2017-08-07T09:11:18Z</time>
      </trkpt>
      <trkpt lat="43.26828" lon="2.10811">
        <ele>137.699997</ele>
        <time>2017-08-07T09:11:21Z</time>
      </trkpt>
      <trkpt lat="43.26837" lon="2.10804">
        <ele>136.600006</ele>
        <time>2017-08-07T09:11:24Z</time>
      </trkpt>
      <trkpt lat="43.26845" lon="2.10796">
        <ele>136.199997</ele>
        <time>2017-08-07T09:11:26Z</time>
      </trkpt>
      <trkpt lat="43.26853" lon="2.10785">
        <ele>136.100006</ele>
        <time>2017-08-07T09:11:28Z</time>
      </trkpt>
      <trkpt lat="43.26859" lon="2.10776">
        <ele>136.100006</ele>
        <time>2017-08-07T09:11:30Z</time>
      </trkpt>
      <trkpt lat="43.26864" lon="2.10763">
        <ele>135.5</ele>
        <time>2017-08-07T09:11:32Z</time>
      </trkpt>
      <trkpt lat="43.26869" lon="2.10751">
        <ele>134.800003</ele>
        <time>2017-08-07T09:11:34Z</time>
      </trkpt>
      <trkpt lat="43.26876" lon="2.10738">
        <ele>134.199997</ele>
        <time>2017-08-07T09:11:37Z</time>
      </trkpt>
      <trkpt lat="43.26879" lon="2.10724">
        <ele>133.800003</ele>
        <time>2017-08-07T09:11:39Z</time>
      </trkpt>
      <trkpt lat="43.26885" lon="2.10714">
        <ele>133.800003</ele>
        <time>2017-08-07T09:11:41Z</time>
      </trkpt>
      <trkpt lat="43.26889" lon="2.10702">
        <ele>133.199997</ele>
        <time>2017-08-07T09:11:43Z</time>
      </trkpt>
      <trkpt lat="43.26896" lon="2.10686">
        <ele>132.399994</ele>
        <time>2017-08-07T09:11:46Z</time>
      </trkpt>
      <trkpt lat="43.26902" lon="2.10671">
        <ele>132.199997</ele>
        <time>2017-08-07T09:11:49Z</time>
      </trkpt>
      <trkpt lat="43.26905" lon="2.10659">
        <ele>131.800003</ele>
        <time>2017-08-07T09:11:51Z</time>
      </trkpt>
      <trkpt lat="43.26908" lon="2.10646">
        <ele>131.300003</ele>
        <time>2017-08-07T09:11:53Z</time>
      </trkpt>
      <trkpt lat="43.2691" lon="2.10632">
        <ele>130.199997</ele>
        <time>2017-08-07T09:11:55Z</time>
      </trkpt>
      <trkpt lat="43.26912" lon="2.10616">
        <ele>129.5</ele>
        <time>2017-08-07T09:11:58Z</time>
      </trkpt>
      <trkpt lat="43.26914" lon="2.10597">
        <ele>129.199997</ele>
        <time>2017-08-07T09:12:01Z</time>
      </trkpt>
      <trkpt lat="43.26919" lon="2.10584">
        <ele>129.699997</ele>
        <time>2017-08-07T09:12:04Z</time>
      </trkpt>
      <trkpt lat="43.26922" lon="2.1057">
        <ele>130.100006</ele>
        <time>2017-08-07T09:12:07Z</time>
      </trkpt>
      <trkpt lat="43.26921" lon="2.10557">
        <ele>130.300003</ele>
        <time>2017-08-07T09:12:09Z</time>
      </trkpt>
      <trkpt lat="43.26921" lon="2.10544">
        <ele>130.5</ele>
        <time>2017-08-07T09:12:10Z</time>
      </trkpt>
      <trkpt lat="43.26921" lon="2.10531">
        <ele>130.899994</ele>
        <time>2017-08-07T09:12:12Z</time>
      </trkpt>
      <trkpt lat="43.26921" lon="2.10517">
        <ele>131.199997</ele>
        <time>2017-08-07T09:12:14Z</time>
      </trkpt>
      <trkpt lat="43.26921" lon="2.10499">
        <ele>131.100006</ele>
        <time>2017-08-07T09:12:17Z</time>
      </trkpt>
      <trkpt lat="43.26922" lon="2.10482">
        <ele>131.199997</ele>
        <time>2017-08-07T09:12:20Z</time>
      </trkpt>
      <trkpt lat="43.26922" lon="2.10468">
        <ele>131.100006</ele>
        <time>2017-08-07T09:12:22Z</time>
      </trkpt>
      <trkpt lat="43.26921" lon="2.10454">
        <ele>130.899994</ele>
        <time>2017-08-07T09:12:24Z</time>
      </trkpt>
      <trkpt lat="43.26919" lon="2.1044">
        <ele>130.5</ele>
        <time>2017-08-07T09:12:26Z</time>
      </trkpt>
      <trkpt lat="43.2692" lon="2.10423">
        <ele>130.699997</ele>
        <time>2017-08-07T09:12:29Z</time>
      </trkpt>
      <trkpt lat="43.26922" lon="2.10407">
        <ele>130.800003</ele>
        <time>2017-08-07T09:12:32Z</time>
      </trkpt>
      <trkpt lat="43.26922" lon="2.10393">
        <ele>131.199997</ele>
        <time>2017-08-07T09:12:34Z</time>
      </trkpt>
      <trkpt lat="43.26922" lon="2.10376">
        <ele>132.199997</ele>
        <time>2017-08-07T09:12:37Z</time>
      </trkpt>
      <trkpt lat="43.26919" lon="2.10355">
        <ele>132.100006</ele>
        <time>2017-08-07T09:12:39Z</time>
      </trkpt>
      <trkpt lat="43.26918" lon="2.10339">
        <ele>132.5</ele>
        <time>2017-08-07T09:12:41Z</time>
      </trkpt>
      <trkpt lat="43.26919" lon="2.10325">
        <ele>133.100006</ele>
        <time>2017-08-07T09:12:43Z</time>
      </trkpt>
      <trkpt lat="43.26925" lon="2.10306">
        <ele>133.300003</ele>
        <time>2017-08-07T09:12:46Z</time>
      </trkpt>
      <trkpt lat="43.26929" lon="2.10293">
        <ele>133</ele>
        <time>2017-08-07T09:12:48Z</time>
      </trkpt>
      <trkpt lat="43.26937" lon="2.10279">
        <ele>132.800003</ele>
        <time>2017-08-07T09:12:51Z</time>
      </trkpt>
      <trkpt lat="43.26944" lon="2.10264">
        <ele>132.100006</ele>
        <time>2017-08-07T09:12:54Z</time>
      </trkpt>
      <trkpt lat="43.26954" lon="2.10253">
        <ele>131.899994</ele>
        <time>2017-08-07T09:12:57Z</time>
      </trkpt>
      <trkpt lat="43.2696" lon="2.10242">
        <ele>131.199997</ele>
        <time>2017-08-07T09:12:59Z</time>
      </trkpt>
      <trkpt lat="43.26966" lon="2.10231">
        <ele>130.5</ele>
        <time>2017-08-07T09:13:01Z</time>
      </trkpt>
      <trkpt lat="43.26972" lon="2.1022">
        <ele>130.300003</ele>
        <time>2017-08-07T09:13:03Z</time>
      </trkpt>
      <trkpt lat="43.26976" lon="2.10206">
        <ele>129.899994</ele>
        <time>2017-08-07T09:13:05Z</time>
      </trkpt>
      <trkpt lat="43.26981" lon="2.10194">
        <ele>130</ele>
        <time>2017-08-07T09:13:07Z</time>
      </trkpt>
      <trkpt lat="43.26985" lon="2.10182">
        <ele>130</ele>
        <time>2017-08-07T09:13:09Z</time>
      </trkpt>
      <trkpt lat="43.2699" lon="2.1017">
        <ele>130.600006</ele>
        <time>2017-08-07T09:13:11Z</time>
      </trkpt>
      <trkpt lat="43.26995" lon="2.10158">
        <ele>131.100006</ele>
        <time>2017-08-07T09:13:13Z</time>
      </trkpt>
      <trkpt lat="43.27" lon="2.10146">
        <ele>131.300003</ele>
        <time>2017-08-07T09:13:15Z</time>
      </trkpt>
      <trkpt lat="43.27008" lon="2.10131">
        <ele>131.699997</ele>
        <time>2017-08-07T09:13:18Z</time>
      </trkpt>
      <trkpt lat="43.27013" lon="2.10119">
        <ele>131.399994</ele>
        <time>2017-08-07T09:13:20Z</time>
      </trkpt>
      <trkpt lat="43.27018" lon="2.10107">
        <ele>131</ele>
        <time>2017-08-07T09:13:22Z</time>
      </trkpt>
      <trkpt lat="43.27025" lon="2.10091">
        <ele>131</ele>
        <time>2017-08-07T09:13:25Z</time>
      </trkpt>
      <trkpt lat="43.27029" lon="2.10079">
        <ele>131.199997</ele>
        <time>2017-08-07T09:13:27Z</time>
      </trkpt>
      <trkpt lat="43.27034" lon="2.10068">
        <ele>131.100006</ele>
        <time>2017-08-07T09:13:29Z</time>
      </trkpt>
      <trkpt lat="43.27041" lon="2.10054">
        <ele>130.899994</ele>
        <time>2017-08-07T09:13:32Z</time>
      </trkpt>
      <trkpt lat="43.27045" lon="2.10041">
        <ele>131.100006</ele>
        <time>2017-08-07T09:13:34Z</time>
      </trkpt>
      <trkpt lat="43.27049" lon="2.10028">
        <ele>132.199997</ele>
        <time>2017-08-07T09:13:36Z</time>
      </trkpt>
      <trkpt lat="43.27053" lon="2.10016">
        <ele>132.899994</ele>
        <time>2017-08-07T09:13:38Z</time>
      </trkpt>
      <trkpt lat="43.27056" lon="2.10003">
        <ele>132.699997</ele>
        <time>2017-08-07T09:13:40Z</time>
      </trkpt>
      <trkpt lat="43.2706" lon="2.09992">
        <ele>132.300003</ele>
        <time>2017-08-07T09:13:42Z</time>
      </trkpt>
      <trkpt lat="43.27064" lon="2.0998">
        <ele>131.699997</ele>
        <time>2017-08-07T09:13:44Z</time>
      </trkpt>
      <trkpt lat="43.27068" lon="2.09968">
        <ele>131.100006</ele>
        <time>2017-08-07T09:13:46Z</time>
      </trkpt>
      <trkpt lat="43.27073" lon="2.09957">
        <ele>130.699997</ele>
        <time>2017-08-07T09:13:48Z</time>
      </trkpt>
      <trkpt lat="43.27079" lon="2.09941">
        <ele>131.199997</ele>
        <time>2017-08-07T09:13:51Z</time>
      </trkpt>
      <trkpt lat="43.27083" lon="2.09929">
        <ele>131.300003</ele>
        <time>2017-08-07T09:13:53Z</time>
      </trkpt>
      <trkpt lat="43.27087" lon="2.09917">
        <ele>131.100006</ele>
        <time>2017-08-07T09:13:55Z</time>
      </trkpt>
      <trkpt lat="43.27092" lon="2.09905">
        <ele>130.800003</ele>
        <time>2017-08-07T09:13:57Z</time>
      </trkpt>
      <trkpt lat="43.27096" lon="2.09894">
        <ele>130.600006</ele>
        <time>2017-08-07T09:13:59Z</time>
      </trkpt>
      <trkpt lat="43.271" lon="2.09882">
        <ele>130.800003</ele>
        <time>2017-08-07T09:14:01Z</time>
      </trkpt>
      <trkpt lat="43.27105" lon="2.0987">
        <ele>131.199997</ele>
        <time>2017-08-07T09:14:03Z</time>
      </trkpt>
      <trkpt lat="43.27109" lon="2.09859">
        <ele>131.899994</ele>
        <time>2017-08-07T09:14:05Z</time>
      </trkpt>
      <trkpt lat="43.27113" lon="2.09847">
        <ele>132.699997</ele>
        <time>2017-08-07T09:14:07Z</time>
      </trkpt>
      <trkpt lat="43.27118" lon="2.09835">
        <ele>133.199997</ele>
        <time>2017-08-07T09:14:09Z</time>
      </trkpt>
      <trkpt lat="43.27122" lon="2.09824">
        <ele>133.600006</ele>
        <time>2017-08-07T09:14:11Z</time>
      </trkpt>
      <trkpt lat="43.27127" lon="2.09813">
        <ele>133.800003</ele>
        <time>2017-08-07T09:14:13Z</time>
      </trkpt>
      <trkpt lat="43.27132" lon="2.09801">
        <ele>133.899994</ele>
        <time>2017-08-07T09:14:15Z</time>
      </trkpt>
      <trkpt lat="43.27137" lon="2.09791">
        <ele>134.5</ele>
        <time>2017-08-07T09:14:17Z</time>
      </trkpt>
      <trkpt lat="43.27144" lon="2.09781">
        <ele>135.600006</ele>
        <time>2017-08-07T09:14:19Z</time>
      </trkpt>
      <trkpt lat="43.27151" lon="2.09772">
        <ele>136.699997</ele>
        <time>2017-08-07T09:14:21Z</time>
      </trkpt>
      <trkpt lat="43.27158" lon="2.09762">
        <ele>137.399994</ele>
        <time>2017-08-07T09:14:23Z</time>
      </trkpt>
      <trkpt lat="43.27165" lon="2.09752">
        <ele>137.899994</ele>
        <time>2017-08-07T09:14:25Z</time>
      </trkpt>
      <trkpt lat="43.27172" lon="2.09743">
        <ele>138</ele>
        <time>2017-08-07T09:14:27Z</time>
      </trkpt>
      <trkpt lat="43.27179" lon="2.09733">
        <ele>137.800003</ele>
        <time>2017-08-07T09:14:29Z</time>
      </trkpt>
      <trkpt lat="43.27188" lon="2.0972">
        <ele>137.899994</ele>
        <time>2017-08-07T09:14:32Z</time>
      </trkpt>
      <trkpt lat="43.27195" lon="2.0971">
        <ele>137.699997</ele>
        <time>2017-08-07T09:14:34Z</time>
      </trkpt>
      <trkpt lat="43.27202" lon="2.09701">
        <ele>136.899994</ele>
        <time>2017-08-07T09:14:36Z</time>
      </trkpt>
      <trkpt lat="43.27208" lon="2.09691">
        <ele>136.199997</ele>
        <time>2017-08-07T09:14:38Z</time>
      </trkpt>
      <trkpt lat="43.27216" lon="2.09681">
        <ele>136.100006</ele>
        <time>2017-08-07T09:14:40Z</time>
      </trkpt>
      <trkpt lat="43.27224" lon="2.09672">
        <ele>136.699997</ele>
        <time>2017-08-07T09:14:42Z</time>
      </trkpt>
      <trkpt lat="43.27232" lon="2.09664">
        <ele>136.800003</ele>
        <time>2017-08-07T09:14:44Z</time>
      </trkpt>
      <trkpt lat="43.27239" lon="2.09655">
        <ele>136.5</ele>
        <time>2017-08-07T09:14:46Z</time>
      </trkpt>
      <trkpt lat="43.27245" lon="2.09645">
        <ele>136</ele>
        <time>2017-08-07T09:14:48Z</time>
      </trkpt>
      <trkpt lat="43.27253" lon="2.09636">
        <ele>135.800003</ele>
        <time>2017-08-07T09:14:50Z</time>
      </trkpt>
      <trkpt lat="43.2726" lon="2.09627">
        <ele>135.699997</ele>
        <time>2017-08-07T09:14:52Z</time>
      </trkpt>
      <trkpt lat="43.27267" lon="2.09617">
        <ele>135.600006</ele>
        <time>2017-08-07T09:14:54Z</time>
      </trkpt>
      <trkpt lat="43.27273" lon="2.09607">
        <ele>135.699997</ele>
        <time>2017-08-07T09:14:56Z</time>
      </trkpt>
      <trkpt lat="43.27282" lon="2.09596">
        <ele>136.699997</ele>
        <time>2017-08-07T09:14:59Z</time>
      </trkpt>
      <trkpt lat="43.27289" lon="2.09587">
        <ele>137.100006</ele>
        <time>2017-08-07T09:15:01Z</time>
      </trkpt>
      <trkpt lat="43.27298" lon="2.09579">
        <ele>137</ele>
        <time>2017-08-07T09:15:03Z</time>
      </trkpt>
      <trkpt lat="43.27307" lon="2.09566">
        <ele>136.899994</ele>
        <time>2017-08-07T09:15:06Z</time>
      </trkpt>
      <trkpt lat="43.27316" lon="2.09553">
        <ele>136.899994</ele>
        <time>2017-08-07T09:15:09Z</time>
      </trkpt>
      <trkpt lat="43.27324" lon="2.09539">
        <ele>136.100006</ele>
        <time>2017-08-07T09:15:12Z</time>
      </trkpt>
      <trkpt lat="43.27334" lon="2.09527">
        <ele>135</ele>
        <time>2017-08-07T09:15:15Z</time>
      </trkpt>
      <trkpt lat="43.27344" lon="2.09513">
        <ele>133.800003</ele>
        <time>2017-08-07T09:15:18Z</time>
      </trkpt>
      <trkpt lat="43.27353" lon="2.09505">
        <ele>133.5</ele>
        <time>2017-08-07T09:15:21Z</time>
      </trkpt>
      <trkpt lat="43.27361" lon="2.09499">
        <ele>133.100006</ele>
        <time>2017-08-07T09:17:16Z</time>
      </trkpt>
      <trkpt lat="43.27368" lon="2.09487">
        <ele>132.100006</ele>
        <time>2017-08-07T09:17:25Z</time>
      </trkpt>
      <trkpt lat="43.27375" lon="2.09478">
        <ele>131.199997</ele>
        <time>2017-08-07T09:17:28Z</time>
      </trkpt>
      <trkpt lat="43.27381" lon="2.09469">
        <ele>130.899994</ele>
        <time>2017-08-07T09:17:31Z</time>
      </trkpt>
      <trkpt lat="43.27389" lon="2.09459">
        <ele>131.100006</ele>
        <time>2017-08-07T09:17:35Z</time>
      </trkpt>
      <trkpt lat="43.27396" lon="2.0945">
        <ele>131.399994</ele>
        <time>2017-08-07T09:17:39Z</time>
      </trkpt>
      <trkpt lat="43.27401" lon="2.09438">
        <ele>131.300003</ele>
        <time>2017-08-07T09:17:43Z</time>
      </trkpt>
      <trkpt lat="43.27407" lon="2.09428">
        <ele>131.399994</ele>
        <time>2017-08-07T09:17:47Z</time>
      </trkpt>
      <trkpt lat="43.27413" lon="2.09417">
        <ele>132.100006</ele>
        <time>2017-08-07T09:17:52Z</time>
      </trkpt>
      <trkpt lat="43.27421" lon="2.09409">
        <ele>133.5</ele>
        <time>2017-08-07T09:17:56Z</time>
      </trkpt>
      <trkpt lat="43.2743" lon="2.09401">
        <ele>135.399994</ele>
        <time>2017-08-07T09:18:00Z</time>
      </trkpt>
      <trkpt lat="43.27439" lon="2.09393">
        <ele>134.5</ele>
        <time>2017-08-07T09:18:04Z</time>
      </trkpt>
      <trkpt lat="43.27446" lon="2.09382">
        <ele>133.399994</ele>
        <time>2017-08-07T09:18:08Z</time>
      </trkpt>
      <trkpt lat="43.27451" lon="2.09371">
        <ele>133</ele>
        <time>2017-08-07T09:18:11Z</time>
      </trkpt>
      <trkpt lat="43.2746" lon="2.09359">
        <ele>133</ele>
        <time>2017-08-07T09:18:15Z</time>
      </trkpt>
      <trkpt lat="43.27468" lon="2.09347">
        <ele>133</ele>
        <time>2017-08-07T09:18:18Z</time>
      </trkpt>
      <trkpt lat="43.27476" lon="2.09336">
        <ele>133.199997</ele>
        <time>2017-08-07T09:18:21Z</time>
      </trkpt>
      <trkpt lat="43.27483" lon="2.09324">
        <ele>133.100006</ele>
        <time>2017-08-07T09:18:24Z</time>
      </trkpt>
      <trkpt lat="43.27492" lon="2.09311">
        <ele>133.100006</ele>
        <time>2017-08-07T09:18:27Z</time>
      </trkpt>
      <trkpt lat="43.27499" lon="2.09302">
        <ele>133.300003</ele>
        <time>2017-08-07T09:18:29Z</time>
      </trkpt>
      <trkpt lat="43.27506" lon="2.09294">
        <ele>133.5</ele>
        <time>2017-08-07T09:18:31Z</time>
      </trkpt>
      <trkpt lat="43.27513" lon="2.09285">
        <ele>133.5</ele>
        <time>2017-08-07T09:18:33Z</time>
      </trkpt>
      <trkpt lat="43.27522" lon="2.09273">
        <ele>133.399994</ele>
        <time>2017-08-07T09:18:36Z</time>
      </trkpt>
      <trkpt lat="43.27528" lon="2.09263">
        <ele>133.399994</ele>
        <time>2017-08-07T09:18:38Z</time>
      </trkpt>
      <trkpt lat="43.27536" lon="2.0925">
        <ele>133.399994</ele>
        <time>2017-08-07T09:18:41Z</time>
      </trkpt>
      <trkpt lat="43.27544" lon="2.09238">
        <ele>133.399994</ele>
        <time>2017-08-07T09:18:44Z</time>
      </trkpt>
      <trkpt lat="43.27551" lon="2.09226">
        <ele>133.699997</ele>
        <time>2017-08-07T09:18:47Z</time>
      </trkpt>
      <trkpt lat="43.27557" lon="2.09213">
        <ele>134.300003</ele>
        <time>2017-08-07T09:18:50Z</time>
      </trkpt>
      <trkpt lat="43.27564" lon="2.09201">
        <ele>134.699997</ele>
        <time>2017-08-07T09:18:53Z</time>
      </trkpt>
      <trkpt lat="43.27571" lon="2.09189">
        <ele>134.800003</ele>
        <time>2017-08-07T09:18:56Z</time>
      </trkpt>
      <trkpt lat="43.27575" lon="2.09174">
        <ele>134.399994</ele>
        <time>2017-08-07T09:19:00Z</time>
      </trkpt>
      <trkpt lat="43.2758" lon="2.09162">
        <ele>134.199997</ele>
        <time>2017-08-07T09:19:02Z</time>
      </trkpt>
      <trkpt lat="43.27584" lon="2.09146">
        <ele>133.699997</ele>
        <time>2017-08-07T09:19:05Z</time>
      </trkpt>
      <trkpt lat="43.2759" lon="2.0913">
        <ele>133.800003</ele>
        <time>2017-08-07T09:19:08Z</time>
      </trkpt>
      <trkpt lat="43.27593" lon="2.09114">
        <ele>133.699997</ele>
        <time>2017-08-07T09:19:11Z</time>
      </trkpt>
      <trkpt lat="43.27594" lon="2.091">
        <ele>133.5</ele>
        <time>2017-08-07T09:19:14Z</time>
      </trkpt>
      <trkpt lat="43.27592" lon="2.09086">
        <ele>133.100006</ele>
        <time>2017-08-07T09:19:16Z</time>
      </trkpt>
      <trkpt lat="43.2759" lon="2.09073">
        <ele>132.699997</ele>
        <time>2017-08-07T09:19:18Z</time>
      </trkpt>
      <trkpt lat="43.27587" lon="2.09059">
        <ele>132.699997</ele>
        <time>2017-08-07T09:19:20Z</time>
      </trkpt>
      <trkpt lat="43.27585" lon="2.09044">
        <ele>132.800003</ele>
        <time>2017-08-07T09:19:22Z</time>
      </trkpt>
      <trkpt lat="43.27583" lon="2.0903">
        <ele>132.699997</ele>
        <time>2017-08-07T09:19:24Z</time>
      </trkpt>
      <trkpt lat="43.27583" lon="2.09017">
        <ele>132.800003</ele>
        <time>2017-08-07T09:19:26Z</time>
      </trkpt>
      <trkpt lat="43.27582" lon="2.09001">
        <ele>133.199997</ele>
        <time>2017-08-07T09:19:29Z</time>
      </trkpt>
      <trkpt lat="43.27582" lon="2.08982">
        <ele>133.699997</ele>
        <time>2017-08-07T09:19:32Z</time>
      </trkpt>
      <trkpt lat="43.27583" lon="2.08966">
        <ele>134.300003</ele>
        <time>2017-08-07T09:19:35Z</time>
      </trkpt>
      <trkpt lat="43.27583" lon="2.0895">
        <ele>134.399994</ele>
        <time>2017-08-07T09:19:37Z</time>
      </trkpt>
      <trkpt lat="43.27584" lon="2.08937">
        <ele>134.199997</ele>
        <time>2017-08-07T09:19:39Z</time>
      </trkpt>
      <trkpt lat="43.27582" lon="2.08921">
        <ele>133.699997</ele>
        <time>2017-08-07T09:19:41Z</time>
      </trkpt>
      <trkpt lat="43.27581" lon="2.08907">
        <ele>133.300003</ele>
        <time>2017-08-07T09:19:43Z</time>
      </trkpt>
      <trkpt lat="43.27581" lon="2.0889">
        <ele>133.100006</ele>
        <time>2017-08-07T09:19:46Z</time>
      </trkpt>
      <trkpt lat="43.27582" lon="2.08874">
        <ele>133.300003</ele>
        <time>2017-08-07T09:19:49Z</time>
      </trkpt>
      <trkpt lat="43.27583" lon="2.08861">
        <ele>133.5</ele>
        <time>2017-08-07T09:19:51Z</time>
      </trkpt>
      <trkpt lat="43.27585" lon="2.08844">
        <ele>133.800003</ele>
        <time>2017-08-07T09:19:54Z</time>
      </trkpt>
      <trkpt lat="43.27584" lon="2.08831">
        <ele>134.100006</ele>
        <time>2017-08-07T09:19:56Z</time>
      </trkpt>
      <trkpt lat="43.27585" lon="2.08818">
        <ele>134.699997</ele>
        <time>2017-08-07T09:19:58Z</time>
      </trkpt>
      <trkpt lat="43.27581" lon="2.08799">
        <ele>134.199997</ele>
        <time>2017-08-07T09:20:00Z</time>
      </trkpt>
      <trkpt lat="43.2758" lon="2.08784">
        <ele>134.199997</ele>
        <time>2017-08-07T09:20:02Z</time>
      </trkpt>
      <trkpt lat="43.2758" lon="2.08768">
        <ele>134.399994</ele>
        <time>2017-08-07T09:20:04Z</time>
      </trkpt>
      <trkpt lat="43.2758" lon="2.08754">
        <ele>134.399994</ele>
        <time>2017-08-07T09:20:06Z</time>
      </trkpt>
      <trkpt lat="43.2758" lon="2.08741">
        <ele>134.199997</ele>
        <time>2017-08-07T09:20:08Z</time>
      </trkpt>
      <trkpt lat="43.27581" lon="2.08727">
        <ele>134.600006</ele>
        <time>2017-08-07T09:20:11Z</time>
      </trkpt>
      <trkpt lat="43.27585" lon="2.08711">
        <ele>135.5</ele>
        <time>2017-08-07T09:20:14Z</time>
      </trkpt>
      <trkpt lat="43.27586" lon="2.08694">
        <ele>136.100006</ele>
        <time>2017-08-07T09:20:17Z</time>
      </trkpt>
      <trkpt lat="43.27586" lon="2.08677">
        <ele>136.399994</ele>
        <time>2017-08-07T09:20:19Z</time>
      </trkpt>
      <trkpt lat="43.27587" lon="2.08657">
        <ele>137</ele>
        <time>2017-08-07T09:20:22Z</time>
      </trkpt>
      <trkpt lat="43.27585" lon="2.08641">
        <ele>137.199997</ele>
        <time>2017-08-07T09:20:24Z</time>
      </trkpt>
      <trkpt lat="43.27583" lon="2.08629">
        <ele>137.300003</ele>
        <time>2017-08-07T09:20:26Z</time>
      </trkpt>
      <trkpt lat="43.27585" lon="2.08614">
        <ele>137.899994</ele>
        <time>2017-08-07T09:20:28Z</time>
      </trkpt>
      <trkpt lat="43.27584" lon="2.08601">
        <ele>138</ele>
        <time>2017-08-07T09:20:30Z</time>
      </trkpt>
      <trkpt lat="43.27586" lon="2.08584">
        <ele>138.100006</ele>
        <time>2017-08-07T09:20:33Z</time>
      </trkpt>
      <trkpt lat="43.27586" lon="2.0857">
        <ele>137.699997</ele>
        <time>2017-08-07T09:20:35Z</time>
      </trkpt>
      <trkpt lat="43.27586" lon="2.08556">
        <ele>136.699997</ele>
        <time>2017-08-07T09:20:37Z</time>
      </trkpt>
      <trkpt lat="43.27587" lon="2.08542">
        <ele>135.699997</ele>
        <time>2017-08-07T09:20:40Z</time>
      </trkpt>
      <trkpt lat="43.27586" lon="2.08522">
        <ele>134.300003</ele>
        <time>2017-08-07T09:20:43Z</time>
      </trkpt>
      <trkpt lat="43.27584" lon="2.08507">
        <ele>134</ele>
        <time>2017-08-07T09:20:45Z</time>
      </trkpt>
      <trkpt lat="43.27587" lon="2.08492">
        <ele>135.199997</ele>
        <time>2017-08-07T09:20:48Z</time>
      </trkpt>
      <trkpt lat="43.27588" lon="2.08477">
        <ele>136.100006</ele>
        <time>2017-08-07T09:20:51Z</time>
      </trkpt>
      <trkpt lat="43.27585" lon="2.08464">
        <ele>136.100006</ele>
        <time>2017-08-07T09:20:53Z</time>
      </trkpt>
      <trkpt lat="43.27586" lon="2.08447">
        <ele>136</ele>
        <time>2017-08-07T09:20:55Z</time>
      </trkpt>
      <trkpt lat="43.27586" lon="2.08428">
        <ele>135.800003</ele>
        <time>2017-08-07T09:20:58Z</time>
      </trkpt>
      <trkpt lat="43.27587" lon="2.08415">
        <ele>135.5</ele>
        <time>2017-08-07T09:21:00Z</time>
      </trkpt>
      <trkpt lat="43.27588" lon="2.08397">
        <ele>135.300003</ele>
        <time>2017-08-07T09:21:03Z</time>
      </trkpt>
      <trkpt lat="43.27589" lon="2.0838">
        <ele>135.199997</ele>
        <time>2017-08-07T09:21:06Z</time>
      </trkpt>
      <trkpt lat="43.27587" lon="2.08364">
        <ele>134.399994</ele>
        <time>2017-08-07T09:21:08Z</time>
      </trkpt>
      <trkpt lat="43.27585" lon="2.08349">
        <ele>133.5</ele>
        <time>2017-08-07T09:21:10Z</time>
      </trkpt>
      <trkpt lat="43.27585" lon="2.08335">
        <ele>133.300003</ele>
        <time>2017-08-07T09:21:12Z</time>
      </trkpt>
      <trkpt lat="43.27588" lon="2.08318">
        <ele>133.800003</ele>
        <time>2017-08-07T09:21:15Z</time>
      </trkpt>
      <trkpt lat="43.2759" lon="2.08302">
        <ele>133.199997</ele>
        <time>2017-08-07T09:21:18Z</time>
      </trkpt>
      <trkpt lat="43.2759" lon="2.08286">
        <ele>132.5</ele>
        <time>2017-08-07T09:21:20Z</time>
      </trkpt>
      <trkpt lat="43.2759" lon="2.08273">
        <ele>132.800003</ele>
        <time>2017-08-07T09:21:22Z</time>
      </trkpt>
      <trkpt lat="43.27592" lon="2.0826">
        <ele>133.399994</ele>
        <time>2017-08-07T09:21:24Z</time>
      </trkpt>
      <trkpt lat="43.27593" lon="2.08243">
        <ele>133.699997</ele>
        <time>2017-08-07T09:21:27Z</time>
      </trkpt>
      <trkpt lat="43.27588" lon="2.08224">
        <ele>134.100006</ele>
        <time>2017-08-07T09:21:29Z</time>
      </trkpt>
      <trkpt lat="43.27587" lon="2.08208">
        <ele>135</ele>
        <time>2017-08-07T09:21:31Z</time>
      </trkpt>
      <trkpt lat="43.27585" lon="2.08195">
        <ele>135.5</ele>
        <time>2017-08-07T09:21:33Z</time>
      </trkpt>
      <trkpt lat="43.27587" lon="2.08178">
        <ele>136.800003</ele>
        <time>2017-08-07T09:21:36Z</time>
      </trkpt>
      <trkpt lat="43.27588" lon="2.08165">
        <ele>136.800003</ele>
        <time>2017-08-07T09:21:38Z</time>
      </trkpt>
      <trkpt lat="43.27589" lon="2.08152">
        <ele>136.800003</ele>
        <time>2017-08-07T09:21:40Z</time>
      </trkpt>
      <trkpt lat="43.27591" lon="2.08135">
        <ele>140</ele>
        <time>2017-08-07T09:21:43Z</time>
      </trkpt>
      <trkpt lat="43.27592" lon="2.08117">
        <ele>142.399994</ele>
        <time>2017-08-07T09:21:46Z</time>
      </trkpt>
      <trkpt lat="43.27592" lon="2.08105">
        <ele>142.5</ele>
        <time>2017-08-07T09:21:48Z</time>
      </trkpt>
      <trkpt lat="43.27591" lon="2.08089">
        <ele>142.199997</ele>
        <time>2017-08-07T09:21:50Z</time>
      </trkpt>
      <trkpt lat="43.27591" lon="2.08077">
        <ele>141.699997</ele>
        <time>2017-08-07T09:21:52Z</time>
      </trkpt>
      <trkpt lat="43.27591" lon="2.08063">
        <ele>141.199997</ele>
        <time>2017-08-07T09:21:54Z</time>
      </trkpt>
      <trkpt lat="43.2759" lon="2.0805">
        <ele>140.699997</ele>
        <time>2017-08-07T09:21:56Z</time>
      </trkpt>
      <trkpt lat="43.2759" lon="2.08037">
        <ele>140.399994</ele>
        <time>2017-08-07T09:21:58Z</time>
      </trkpt>
      <trkpt lat="43.2759" lon="2.08024">
        <ele>140.5</ele>
        <time>2017-08-07T09:22:00Z</time>
      </trkpt>
      <trkpt lat="43.2759" lon="2.08011">
        <ele>140.600006</ele>
        <time>2017-08-07T09:22:02Z</time>
      </trkpt>
      <trkpt lat="43.2759" lon="2.07998">
        <ele>140.300003</ele>
        <time>2017-08-07T09:22:04Z</time>
      </trkpt>
      <trkpt lat="43.27592" lon="2.07981">
        <ele>140.199997</ele>
        <time>2017-08-07T09:22:07Z</time>
      </trkpt>
      <trkpt lat="43.27594" lon="2.07967">
        <ele>140.399994</ele>
        <time>2017-08-07T09:22:10Z</time>
      </trkpt>
      <trkpt lat="43.27593" lon="2.0795">
        <ele>139.600006</ele>
        <time>2017-08-07T09:22:13Z</time>
      </trkpt>
      <trkpt lat="43.27594" lon="2.07938">
        <ele>138.5</ele>
        <time>2017-08-07T09:22:15Z</time>
      </trkpt>
      <trkpt lat="43.27595" lon="2.07921">
        <ele>136.699997</ele>
        <time>2017-08-07T09:22:18Z</time>
      </trkpt>
      <trkpt lat="43.27598" lon="2.07904">
        <ele>134.399994</ele>
        <time>2017-08-07T09:22:22Z</time>
      </trkpt>
      <trkpt lat="43.27603" lon="2.07892">
        <ele>133.399994</ele>
        <time>2017-08-07T09:22:28Z</time>
      </trkpt>
      <trkpt lat="43.27601" lon="2.07879">
        <ele>131.899994</ele>
        <time>2017-08-07T09:22:34Z</time>
      </trkpt>
      <trkpt lat="43.27602" lon="2.07865">
        <ele>130.899994</ele>
        <time>2017-08-07T09:22:38Z</time>
      </trkpt>
      <trkpt lat="43.27602" lon="2.0785">
        <ele>129.899994</ele>
        <time>2017-08-07T09:22:42Z</time>
      </trkpt>
      <trkpt lat="43.27601" lon="2.07837">
        <ele>129.300003</ele>
        <time>2017-08-07T09:22:45Z</time>
      </trkpt>
      <trkpt lat="43.27602" lon="2.0782">
        <ele>128.699997</ele>
        <time>2017-08-07T09:22:48Z</time>
      </trkpt>
      <trkpt lat="43.27603" lon="2.07802">
        <ele>128.199997</ele>
        <time>2017-08-07T09:22:51Z</time>
      </trkpt>
      <trkpt lat="43.27604" lon="2.07785">
        <ele>127.900002</ele>
        <time>2017-08-07T09:22:54Z</time>
      </trkpt>
      <trkpt lat="43.27607" lon="2.0777">
        <ele>128.399994</ele>
        <time>2017-08-07T09:22:57Z</time>
      </trkpt>
      <trkpt lat="43.27608" lon="2.07754">
        <ele>128.399994</ele>
        <time>2017-08-07T09:23:00Z</time>
      </trkpt>
      <trkpt lat="43.27609" lon="2.07737">
        <ele>128.300003</ele>
        <time>2017-08-07T09:23:03Z</time>
      </trkpt>
      <trkpt lat="43.27611" lon="2.07722">
        <ele>128.699997</ele>
        <time>2017-08-07T09:23:06Z</time>
      </trkpt>
      <trkpt lat="43.27612" lon="2.07706">
        <ele>129</ele>
        <time>2017-08-07T09:23:09Z</time>
      </trkpt>
      <trkpt lat="43.27613" lon="2.07688">
        <ele>128.600006</ele>
        <time>2017-08-07T09:23:12Z</time>
      </trkpt>
      <trkpt lat="43.27612" lon="2.0767">
        <ele>127.900002</ele>
        <time>2017-08-07T09:23:15Z</time>
      </trkpt>
      <trkpt lat="43.27614" lon="2.07656">
        <ele>127.400002</ele>
        <time>2017-08-07T09:23:18Z</time>
      </trkpt>
      <trkpt lat="43.27614" lon="2.07642">
        <ele>127.099998</ele>
        <time>2017-08-07T09:23:21Z</time>
      </trkpt>
      <trkpt lat="43.2762" lon="2.07628">
        <ele>127.5</ele>
        <time>2017-08-07T09:23:24Z</time>
      </trkpt>
      <trkpt lat="43.27622" lon="2.07614">
        <ele>127.599998</ele>
        <time>2017-08-07T09:23:26Z</time>
      </trkpt>
      <trkpt lat="43.27622" lon="2.07599">
        <ele>127.699997</ele>
        <time>2017-08-07T09:23:28Z</time>
      </trkpt>
      <trkpt lat="43.2762" lon="2.07585">
        <ele>127.599998</ele>
        <time>2017-08-07T09:23:30Z</time>
      </trkpt>
      <trkpt lat="43.27619" lon="2.07572">
        <ele>127.599998</ele>
        <time>2017-08-07T09:23:32Z</time>
      </trkpt>
      <trkpt lat="43.27618" lon="2.07553">
        <ele>128</ele>
        <time>2017-08-07T09:23:35Z</time>
      </trkpt>
      <trkpt lat="43.27618" lon="2.0754">
        <ele>128.399994</ele>
        <time>2017-08-07T09:23:37Z</time>
      </trkpt>
      <trkpt lat="43.27615" lon="2.07527">
        <ele>128</ele>
        <time>2017-08-07T09:23:39Z</time>
      </trkpt>
      <trkpt lat="43.27612" lon="2.07514">
        <ele>127.599998</ele>
        <time>2017-08-07T09:23:41Z</time>
      </trkpt>
      <trkpt lat="43.27608" lon="2.07501">
        <ele>127.699997</ele>
        <time>2017-08-07T09:23:43Z</time>
      </trkpt>
      <trkpt lat="43.27603" lon="2.0749">
        <ele>127.800003</ele>
        <time>2017-08-07T09:23:45Z</time>
      </trkpt>
      <trkpt lat="43.27596" lon="2.07475">
        <ele>128.300003</ele>
        <time>2017-08-07T09:23:48Z</time>
      </trkpt>
      <trkpt lat="43.2759" lon="2.07465">
        <ele>128.699997</ele>
        <time>2017-08-07T09:23:50Z</time>
      </trkpt>
      <trkpt lat="43.27583" lon="2.0745">
        <ele>129.300003</ele>
        <time>2017-08-07T09:23:53Z</time>
      </trkpt>
      <trkpt lat="43.27579" lon="2.07438">
        <ele>129.699997</ele>
        <time>2017-08-07T09:23:56Z</time>
      </trkpt>
      <trkpt lat="43.27573" lon="2.07428">
        <ele>130</ele>
        <time>2017-08-07T09:23:58Z</time>
      </trkpt>
      <trkpt lat="43.27566" lon="2.07413">
        <ele>130.5</ele>
        <time>2017-08-07T09:24:01Z</time>
      </trkpt>
      <trkpt lat="43.27561" lon="2.07403">
        <ele>130.699997</ele>
        <time>2017-08-07T09:24:03Z</time>
      </trkpt>
      <trkpt lat="43.27556" lon="2.07392">
        <ele>130.699997</ele>
        <time>2017-08-07T09:24:05Z</time>
      </trkpt>
      <trkpt lat="43.2755" lon="2.0738">
        <ele>130.899994</ele>
        <time>2017-08-07T09:24:07Z</time>
      </trkpt>
      <trkpt lat="43.27545" lon="2.07368">
        <ele>131.199997</ele>
        <time>2017-08-07T09:24:09Z</time>
      </trkpt>
      <trkpt lat="43.2754" lon="2.07353">
        <ele>131.5</ele>
        <time>2017-08-07T09:24:11Z</time>
      </trkpt>
      <trkpt lat="43.27534" lon="2.07333">
        <ele>130.899994</ele>
        <time>2017-08-07T09:24:14Z</time>
      </trkpt>
      <trkpt lat="43.2753" lon="2.07321">
        <ele>130.399994</ele>
        <time>2017-08-07T09:24:16Z</time>
      </trkpt>
      <trkpt lat="43.27527" lon="2.0731">
        <ele>129.800003</ele>
        <time>2017-08-07T09:24:18Z</time>
      </trkpt>
      <trkpt lat="43.27522" lon="2.07297">
        <ele>129</ele>
        <time>2017-08-07T09:24:20Z</time>
      </trkpt>
      <trkpt lat="43.27519" lon="2.07285">
        <ele>128.600006</ele>
        <time>2017-08-07T09:24:22Z</time>
      </trkpt>
      <trkpt lat="43.27517" lon="2.07273">
        <ele>128.399994</ele>
        <time>2017-08-07T09:24:24Z</time>
      </trkpt>
      <trkpt lat="43.27514" lon="2.07257">
        <ele>128</ele>
        <time>2017-08-07T09:24:27Z</time>
      </trkpt>
      <trkpt lat="43.27513" lon="2.0724">
        <ele>127.900002</ele>
        <time>2017-08-07T09:24:30Z</time>
      </trkpt>
      <trkpt lat="43.27513" lon="2.07222">
        <ele>127.900002</ele>
        <time>2017-08-07T09:24:33Z</time>
      </trkpt>
      <trkpt lat="43.27517" lon="2.07205">
        <ele>128.300003</ele>
        <time>2017-08-07T09:24:36Z</time>
      </trkpt>
      <trkpt lat="43.27521" lon="2.07194">
        <ele>128.300003</ele>
        <time>2017-08-07T09:24:38Z</time>
      </trkpt>
      <trkpt lat="43.27526" lon="2.07183">
        <ele>128.399994</ele>
        <time>2017-08-07T09:24:40Z</time>
      </trkpt>
      <trkpt lat="43.2753" lon="2.07169">
        <ele>128.199997</ele>
        <time>2017-08-07T09:24:43Z</time>
      </trkpt>
      <trkpt lat="43.27535" lon="2.07155">
        <ele>128.199997</ele>
        <time>2017-08-07T09:24:46Z</time>
      </trkpt>
      <trkpt lat="43.27541" lon="2.0714">
        <ele>128.800003</ele>
        <time>2017-08-07T09:24:49Z</time>
      </trkpt>
      <trkpt lat="43.27547" lon="2.07126">
        <ele>129.800003</ele>
        <time>2017-08-07T09:24:52Z</time>
      </trkpt>
      <trkpt lat="43.27553" lon="2.07111">
        <ele>130.300003</ele>
        <time>2017-08-07T09:24:55Z</time>
      </trkpt>
      <trkpt lat="43.27557" lon="2.07099">
        <ele>130.300003</ele>
        <time>2017-08-07T09:24:57Z</time>
      </trkpt>
      <trkpt lat="43.27562" lon="2.07084">
        <ele>130.399994</ele>
        <time>2017-08-07T09:25:00Z</time>
      </trkpt>
      <trkpt lat="43.27568" lon="2.07072">
        <ele>130.100006</ele>
        <time>2017-08-07T09:25:02Z</time>
      </trkpt>
      <trkpt lat="43.27574" lon="2.07062">
        <ele>130.199997</ele>
        <time>2017-08-07T09:25:04Z</time>
      </trkpt>
      <trkpt lat="43.27578" lon="2.07048">
        <ele>130.199997</ele>
        <time>2017-08-07T09:25:07Z</time>
      </trkpt>
      <trkpt lat="43.27582" lon="2.07035">
        <ele>130</ele>
        <time>2017-08-07T09:25:09Z</time>
      </trkpt>
      <trkpt lat="43.27588" lon="2.07025">
        <ele>130.199997</ele>
        <time>2017-08-07T09:25:11Z</time>
      </trkpt>
      <trkpt lat="43.27593" lon="2.07013">
        <ele>130.300003</ele>
        <time>2017-08-07T09:25:13Z</time>
      </trkpt>
      <trkpt lat="43.27598" lon="2.06998">
        <ele>130.5</ele>
        <time>2017-08-07T09:25:16Z</time>
      </trkpt>
      <trkpt lat="43.27603" lon="2.06983">
        <ele>130.699997</ele>
        <time>2017-08-07T09:25:19Z</time>
      </trkpt>
      <trkpt lat="43.27607" lon="2.06968">
        <ele>130.600006</ele>
        <time>2017-08-07T09:25:22Z</time>
      </trkpt>
      <trkpt lat="43.27615" lon="2.06952">
        <ele>130.399994</ele>
        <time>2017-08-07T09:25:25Z</time>
      </trkpt>
      <trkpt lat="43.27621" lon="2.06939">
        <ele>130.100006</ele>
        <time>2017-08-07T09:25:28Z</time>
      </trkpt>
      <trkpt lat="43.27626" lon="2.06924">
        <ele>129.699997</ele>
        <time>2017-08-07T09:25:31Z</time>
      </trkpt>
      <trkpt lat="43.27629" lon="2.06911">
        <ele>129.5</ele>
        <time>2017-08-07T09:25:33Z</time>
      </trkpt>
      <trkpt lat="43.27634" lon="2.06899">
        <ele>130</ele>
        <time>2017-08-07T09:25:35Z</time>
      </trkpt>
      <trkpt lat="43.27638" lon="2.06888">
        <ele>130.600006</ele>
        <time>2017-08-07T09:25:37Z</time>
      </trkpt>
      <trkpt lat="43.27639" lon="2.06873">
        <ele>130.600006</ele>
        <time>2017-08-07T09:25:39Z</time>
      </trkpt>
      <trkpt lat="43.27642" lon="2.06858">
        <ele>130.600006</ele>
        <time>2017-08-07T09:25:41Z</time>
      </trkpt>
      <trkpt lat="43.27643" lon="2.06845">
        <ele>130.600006</ele>
        <time>2017-08-07T09:25:43Z</time>
      </trkpt>
      <trkpt lat="43.27645" lon="2.06833">
        <ele>130.600006</ele>
        <time>2017-08-07T09:25:45Z</time>
      </trkpt>
      <trkpt lat="43.27647" lon="2.06819">
        <ele>130.399994</ele>
        <time>2017-08-07T09:25:47Z</time>
      </trkpt>
      <trkpt lat="43.27649" lon="2.06805">
        <ele>130.600006</ele>
        <time>2017-08-07T09:25:49Z</time>
      </trkpt>
      <trkpt lat="43.27651" lon="2.06791">
        <ele>130.899994</ele>
        <time>2017-08-07T09:25:51Z</time>
      </trkpt>
      <trkpt lat="43.27653" lon="2.06777">
        <ele>131.399994</ele>
        <time>2017-08-07T09:25:53Z</time>
      </trkpt>
      <trkpt lat="43.27654" lon="2.0676">
        <ele>132.199997</ele>
        <time>2017-08-07T09:25:56Z</time>
      </trkpt>
      <trkpt lat="43.27656" lon="2.06748">
        <ele>132.199997</ele>
        <time>2017-08-07T09:25:58Z</time>
      </trkpt>
      <trkpt lat="43.27658" lon="2.06735">
        <ele>132.100006</ele>
        <time>2017-08-07T09:26:00Z</time>
      </trkpt>
      <trkpt lat="43.2766" lon="2.06723">
        <ele>132.199997</ele>
        <time>2017-08-07T09:26:02Z</time>
      </trkpt>
      <trkpt lat="43.27661" lon="2.06704">
        <ele>132.199997</ele>
        <time>2017-08-07T09:26:05Z</time>
      </trkpt>
      <trkpt lat="43.27663" lon="2.06691">
        <ele>132.199997</ele>
        <time>2017-08-07T09:26:07Z</time>
      </trkpt>
      <trkpt lat="43.27665" lon="2.06673">
        <ele>132.399994</ele>
        <time>2017-08-07T09:26:10Z</time>
      </trkpt>
      <trkpt lat="43.27667" lon="2.06661">
        <ele>132.800003</ele>
        <time>2017-08-07T09:26:12Z</time>
      </trkpt>
      <trkpt lat="43.27669" lon="2.06642">
        <ele>132.899994</ele>
        <time>2017-08-07T09:26:15Z</time>
      </trkpt>
      <trkpt lat="43.27671" lon="2.06628">
        <ele>132.699997</ele>
        <time>2017-08-07T09:26:17Z</time>
      </trkpt>
      <trkpt lat="43.27673" lon="2.06614">
        <ele>132.600006</ele>
        <time>2017-08-07T09:26:19Z</time>
      </trkpt>
      <trkpt lat="43.27677" lon="2.06596">
        <ele>132.399994</ele>
        <time>2017-08-07T09:26:22Z</time>
      </trkpt>
      <trkpt lat="43.27678" lon="2.06581">
        <ele>132.100006</ele>
        <time>2017-08-07T09:26:24Z</time>
      </trkpt>
      <trkpt lat="43.27681" lon="2.06569">
        <ele>132</ele>
        <time>2017-08-07T09:26:26Z</time>
      </trkpt>
      <trkpt lat="43.27683" lon="2.06556">
        <ele>131.300003</ele>
        <time>2017-08-07T09:26:28Z</time>
      </trkpt>
      <trkpt lat="43.27686" lon="2.06539">
        <ele>130.300003</ele>
        <time>2017-08-07T09:26:31Z</time>
      </trkpt>
      <trkpt lat="43.27687" lon="2.06522">
        <ele>129.300003</ele>
        <time>2017-08-07T09:26:34Z</time>
      </trkpt>
      <trkpt lat="43.27689" lon="2.06507">
        <ele>128.800003</ele>
        <time>2017-08-07T09:26:37Z</time>
      </trkpt>
      <trkpt lat="43.27691" lon="2.0649">
        <ele>128.800003</ele>
        <time>2017-08-07T09:26:40Z</time>
      </trkpt>
      <trkpt lat="43.27692" lon="2.06476">
        <ele>128.800003</ele>
        <time>2017-08-07T09:26:43Z</time>
      </trkpt>
      <trkpt lat="43.27694" lon="2.06463">
        <ele>128.899994</ele>
        <time>2017-08-07T09:26:46Z</time>
      </trkpt>
      <trkpt lat="43.27696" lon="2.06448">
        <ele>128.5</ele>
        <time>2017-08-07T09:26:50Z</time>
      </trkpt>
      <trkpt lat="43.27698" lon="2.06434">
        <ele>127.599998</ele>
        <time>2017-08-07T09:26:54Z</time>
      </trkpt>
      <trkpt lat="43.27698" lon="2.06418">
        <ele>127.300003</ele>
        <time>2017-08-07T09:26:57Z</time>
      </trkpt>
      <trkpt lat="43.27701" lon="2.06404">
        <ele>127.400002</ele>
        <time>2017-08-07T09:27:00Z</time>
      </trkpt>
      <trkpt lat="43.27703" lon="2.06387">
        <ele>127.599998</ele>
        <time>2017-08-07T09:27:03Z</time>
      </trkpt>
      <trkpt lat="43.27705" lon="2.06373">
        <ele>127.800003</ele>
        <time>2017-08-07T09:27:06Z</time>
      </trkpt>
      <trkpt lat="43.27709" lon="2.06355">
        <ele>128</ele>
        <time>2017-08-07T09:27:09Z</time>
      </trkpt>
      <trkpt lat="43.27711" lon="2.06338">
        <ele>128.300003</ele>
        <time>2017-08-07T09:27:12Z</time>
      </trkpt>
      <trkpt lat="43.27712" lon="2.06326">
        <ele>128.399994</ele>
        <time>2017-08-07T09:27:14Z</time>
      </trkpt>
      <trkpt lat="43.27713" lon="2.06309">
        <ele>128.5</ele>
        <time>2017-08-07T09:27:17Z</time>
      </trkpt>
      <trkpt lat="43.27718" lon="2.06295">
        <ele>128.699997</ele>
        <time>2017-08-07T09:27:20Z</time>
      </trkpt>
      <trkpt lat="43.27721" lon="2.06276">
        <ele>128.399994</ele>
        <time>2017-08-07T09:27:23Z</time>
      </trkpt>
      <trkpt lat="43.27721" lon="2.06263">
        <ele>128</ele>
        <time>2017-08-07T09:27:25Z</time>
      </trkpt>
      <trkpt lat="43.27723" lon="2.06244">
        <ele>127.699997</ele>
        <time>2017-08-07T09:27:28Z</time>
      </trkpt>
      <trkpt lat="43.27725" lon="2.06227">
        <ele>127.300003</ele>
        <time>2017-08-07T09:27:31Z</time>
      </trkpt>
      <trkpt lat="43.27727" lon="2.06214">
        <ele>126.900002</ele>
        <time>2017-08-07T09:27:33Z</time>
      </trkpt>
      <trkpt lat="43.27728" lon="2.062">
        <ele>126.699997</ele>
        <time>2017-08-07T09:27:35Z</time>
      </trkpt>
      <trkpt lat="43.2773" lon="2.06185">
        <ele>126.599998</ele>
        <time>2017-08-07T09:27:38Z</time>
      </trkpt>
      <trkpt lat="43.27734" lon="2.06169">
        <ele>126.5</ele>
        <time>2017-08-07T09:27:41Z</time>
      </trkpt>
      <trkpt lat="43.27737" lon="2.06151">
        <ele>126.099998</ele>
        <time>2017-08-07T09:27:44Z</time>
      </trkpt>
      <trkpt lat="43.27738" lon="2.06139">
        <ele>126.599998</ele>
        <time>2017-08-07T09:27:46Z</time>
      </trkpt>
      <trkpt lat="43.27739" lon="2.06126">
        <ele>127.199997</ele>
        <time>2017-08-07T09:27:48Z</time>
      </trkpt>
      <trkpt lat="43.27741" lon="2.06107">
        <ele>128.100006</ele>
        <time>2017-08-07T09:27:51Z</time>
      </trkpt>
      <trkpt lat="43.27745" lon="2.0609">
        <ele>128.899994</ele>
        <time>2017-08-07T09:27:54Z</time>
      </trkpt>
      <trkpt lat="43.27746" lon="2.06072">
        <ele>129</ele>
        <time>2017-08-07T09:27:57Z</time>
      </trkpt>
      <trkpt lat="43.2775" lon="2.06057">
        <ele>129.199997</ele>
        <time>2017-08-07T09:28:00Z</time>
      </trkpt>
      <trkpt lat="43.27753" lon="2.06039">
        <ele>129.699997</ele>
        <time>2017-08-07T09:28:03Z</time>
      </trkpt>
      <trkpt lat="43.27756" lon="2.06022">
        <ele>129.600006</ele>
        <time>2017-08-07T09:28:06Z</time>
      </trkpt>
      <trkpt lat="43.27758" lon="2.06004">
        <ele>129.399994</ele>
        <time>2017-08-07T09:28:09Z</time>
      </trkpt>
      <trkpt lat="43.27758" lon="2.05987">
        <ele>129.199997</ele>
        <time>2017-08-07T09:28:12Z</time>
      </trkpt>
      <trkpt lat="43.27759" lon="2.05969">
        <ele>128.899994</ele>
        <time>2017-08-07T09:28:15Z</time>
      </trkpt>
      <trkpt lat="43.27763" lon="2.05955">
        <ele>128.899994</ele>
        <time>2017-08-07T09:28:18Z</time>
      </trkpt>
      <trkpt lat="43.27766" lon="2.05939">
        <ele>129.800003</ele>
        <time>2017-08-07T09:28:21Z</time>
      </trkpt>
      <trkpt lat="43.27768" lon="2.05923">
        <ele>130.399994</ele>
        <time>2017-08-07T09:28:24Z</time>
      </trkpt>
      <trkpt lat="43.27769" lon="2.05907">
        <ele>131</ele>
        <time>2017-08-07T09:28:27Z</time>
      </trkpt>
      <trkpt lat="43.2777" lon="2.05891">
        <ele>130.600006</ele>
        <time>2017-08-07T09:28:30Z</time>
      </trkpt>
      <trkpt lat="43.27772" lon="2.05877">
        <ele>129.800003</ele>
        <time>2017-08-07T09:28:32Z</time>
      </trkpt>
      <trkpt lat="43.27774" lon="2.05863">
        <ele>129.699997</ele>
        <time>2017-08-07T09:28:34Z</time>
      </trkpt>
      <trkpt lat="43.27776" lon="2.0585">
        <ele>129.800003</ele>
        <time>2017-08-07T09:28:36Z</time>
      </trkpt>
      <trkpt lat="43.27779" lon="2.05832">
        <ele>130.300003</ele>
        <time>2017-08-07T09:28:39Z</time>
      </trkpt>
      <trkpt lat="43.27782" lon="2.05817">
        <ele>130.600006</ele>
        <time>2017-08-07T09:28:42Z</time>
      </trkpt>
      <trkpt lat="43.27782" lon="2.05817">
        <ele>130.600006</ele>
        <time>2017-08-07T09:28:42Z</time>
      </trkpt>
      <trkpt lat="43.27782" lon="2.05817">
        <ele>130.600006</ele>
        <time>2017-08-07T09:28:42Z</time>
      </trkpt>
      <trkpt lat="43.27784" lon="2.05803">
        <ele>131.199997</ele>
        <time>2017-08-07T09:28:45Z</time>
      </trkpt>
      <trkpt lat="43.27789" lon="2.05789">
        <ele>132.199997</ele>
        <time>2017-08-07T09:28:48Z</time>
      </trkpt>
      <trkpt lat="43.27791" lon="2.05772">
        <ele>131.5</ele>
        <time>2017-08-07T09:28:51Z</time>
      </trkpt>
      <trkpt lat="43.27792" lon="2.05757">
        <ele>130.699997</ele>
        <time>2017-08-07T09:28:54Z</time>
      </trkpt>
      <trkpt lat="43.27795" lon="2.05739">
        <ele>129.699997</ele>
        <time>2017-08-07T09:28:57Z</time>
      </trkpt>
      <trkpt lat="43.27799" lon="2.05725">
        <ele>129.100006</ele>
        <time>2017-08-07T09:28:59Z</time>
      </trkpt>
      <trkpt lat="43.27801" lon="2.05713">
        <ele>128.699997</ele>
        <time>2017-08-07T09:29:01Z</time>
      </trkpt>
      <trkpt lat="43.27804" lon="2.05699">
        <ele>128.300003</ele>
        <time>2017-08-07T09:29:04Z</time>
      </trkpt>
      <trkpt lat="43.27809" lon="2.05684">
        <ele>128.300003</ele>
        <time>2017-08-07T09:29:07Z</time>
      </trkpt>
      <trkpt lat="43.27814" lon="2.0567">
        <ele>128.699997</ele>
        <time>2017-08-07T09:29:10Z</time>
      </trkpt>
      <trkpt lat="43.27817" lon="2.05658">
        <ele>128.800003</ele>
        <time>2017-08-07T09:29:12Z</time>
      </trkpt>
      <trkpt lat="43.27823" lon="2.05642">
        <ele>128.600006</ele>
        <time>2017-08-07T09:29:15Z</time>
      </trkpt>
      <trkpt lat="43.27827" lon="2.05631">
        <ele>128.300003</ele>
        <time>2017-08-07T09:29:17Z</time>
      </trkpt>
      <trkpt lat="43.2783" lon="2.05615">
        <ele>127.599998</ele>
        <time>2017-08-07T09:29:20Z</time>
      </trkpt>
      <trkpt lat="43.27834" lon="2.05601">
        <ele>126.900002</ele>
        <time>2017-08-07T09:29:23Z</time>
      </trkpt>
      <trkpt lat="43.2784" lon="2.05587">
        <ele>126.400002</ele>
        <time>2017-08-07T09:29:26Z</time>
      </trkpt>
      <trkpt lat="43.27843" lon="2.05573">
        <ele>125.900002</ele>
        <time>2017-08-07T09:29:28Z</time>
      </trkpt>
      <trkpt lat="43.27843" lon="2.05561">
        <ele>125.300003</ele>
        <time>2017-08-07T09:29:30Z</time>
      </trkpt>
      <trkpt lat="43.27848" lon="2.05543">
        <ele>125.199997</ele>
        <time>2017-08-07T09:29:33Z</time>
      </trkpt>
      <trkpt lat="43.27855" lon="2.05525">
        <ele>125.5</ele>
        <time>2017-08-07T09:29:36Z</time>
      </trkpt>
      <trkpt lat="43.2786" lon="2.05515">
        <ele>125.800003</ele>
        <time>2017-08-07T09:29:38Z</time>
      </trkpt>
      <trkpt lat="43.27864" lon="2.05503">
        <ele>126.400002</ele>
        <time>2017-08-07T09:29:40Z</time>
      </trkpt>
      <trkpt lat="43.27869" lon="2.05486">
        <ele>127.099998</ele>
        <time>2017-08-07T09:29:43Z</time>
      </trkpt>
      <trkpt lat="43.27872" lon="2.05474">
        <ele>127.099998</ele>
        <time>2017-08-07T09:29:45Z</time>
      </trkpt>
      <trkpt lat="43.27877" lon="2.05458">
        <ele>127.099998</ele>
        <time>2017-08-07T09:29:48Z</time>
      </trkpt>
      <trkpt lat="43.27882" lon="2.05444">
        <ele>126.5</ele>
        <time>2017-08-07T09:29:51Z</time>
      </trkpt>
      <trkpt lat="43.27887" lon="2.05429">
        <ele>126.099998</ele>
        <time>2017-08-07T09:29:54Z</time>
      </trkpt>
      <trkpt lat="43.27892" lon="2.05413">
        <ele>125.900002</ele>
        <time>2017-08-07T09:29:57Z</time>
      </trkpt>
      <trkpt lat="43.27897" lon="2.05401">
        <ele>125.900002</ele>
        <time>2017-08-07T09:30:00Z</time>
      </trkpt>
      <trkpt lat="43.27902" lon="2.05384">
        <ele>125.599998</ele>
        <time>2017-08-07T09:30:03Z</time>
      </trkpt>
      <trkpt lat="43.27906" lon="2.05373">
        <ele>125.400002</ele>
        <time>2017-08-07T09:30:05Z</time>
      </trkpt>
      <trkpt lat="43.27909" lon="2.05361">
        <ele>125.5</ele>
        <time>2017-08-07T09:30:07Z</time>
      </trkpt>
      <trkpt lat="43.27914" lon="2.05343">
        <ele>125.699997</ele>
        <time>2017-08-07T09:30:10Z</time>
      </trkpt>
      <trkpt lat="43.27918" lon="2.05332">
        <ele>125.900002</ele>
        <time>2017-08-07T09:30:12Z</time>
      </trkpt>
      <trkpt lat="43.27922" lon="2.05319">
        <ele>126.099998</ele>
        <time>2017-08-07T09:30:14Z</time>
      </trkpt>
      <trkpt lat="43.27926" lon="2.05307">
        <ele>126.5</ele>
        <time>2017-08-07T09:30:16Z</time>
      </trkpt>
      <trkpt lat="43.27929" lon="2.05295">
        <ele>126.800003</ele>
        <time>2017-08-07T09:30:18Z</time>
      </trkpt>
      <trkpt lat="43.27933" lon="2.05283">
        <ele>126.699997</ele>
        <time>2017-08-07T09:30:20Z</time>
      </trkpt>
      <trkpt lat="43.27937" lon="2.05272">
        <ele>126.5</ele>
        <time>2017-08-07T09:30:22Z</time>
      </trkpt>
      <trkpt lat="43.27941" lon="2.05259">
        <ele>126.199997</ele>
        <time>2017-08-07T09:30:24Z</time>
      </trkpt>
      <trkpt lat="43.27946" lon="2.05242">
        <ele>125.800003</ele>
        <time>2017-08-07T09:30:27Z</time>
      </trkpt>
      <trkpt lat="43.27951" lon="2.05227">
        <ele>125.900002</ele>
        <time>2017-08-07T09:30:30Z</time>
      </trkpt>
      <trkpt lat="43.27957" lon="2.05212">
        <ele>126.699997</ele>
        <time>2017-08-07T09:30:33Z</time>
      </trkpt>
      <trkpt lat="43.27963" lon="2.05198">
        <ele>127</ele>
        <time>2017-08-07T09:30:36Z</time>
      </trkpt>
      <trkpt lat="43.27967" lon="2.05186">
        <ele>126.800003</ele>
        <time>2017-08-07T09:30:38Z</time>
      </trkpt>
      <trkpt lat="43.2797" lon="2.05174">
        <ele>126.900002</ele>
        <time>2017-08-07T09:30:40Z</time>
      </trkpt>
      <trkpt lat="43.27976" lon="2.05157">
        <ele>127.300003</ele>
        <time>2017-08-07T09:30:43Z</time>
      </trkpt>
      <trkpt lat="43.27979" lon="2.05146">
        <ele>127.199997</ele>
        <time>2017-08-07T09:30:45Z</time>
      </trkpt>
      <trkpt lat="43.27983" lon="2.05131">
        <ele>126.400002</ele>
        <time>2017-08-07T09:30:48Z</time>
      </trkpt>
      <trkpt lat="43.27988" lon="2.05119">
        <ele>126.099998</ele>
        <time>2017-08-07T09:30:50Z</time>
      </trkpt>
      <trkpt lat="43.27992" lon="2.05107">
        <ele>126.599998</ele>
        <time>2017-08-07T09:30:52Z</time>
      </trkpt>
      <trkpt lat="43.27997" lon="2.05093">
        <ele>127.099998</ele>
        <time>2017-08-07T09:30:55Z</time>
      </trkpt>
      <trkpt lat="43.28001" lon="2.05081">
        <ele>127.099998</ele>
        <time>2017-08-07T09:30:57Z</time>
      </trkpt>
      <trkpt lat="43.28006" lon="2.05066">
        <ele>126.800003</ele>
        <time>2017-08-07T09:31:00Z</time>
      </trkpt>
      <trkpt lat="43.28012" lon="2.05053">
        <ele>126.699997</ele>
        <time>2017-08-07T09:31:03Z</time>
      </trkpt>
      <trkpt lat="43.28016" lon="2.05041">
        <ele>126.400002</ele>
        <time>2017-08-07T09:31:06Z</time>
      </trkpt>
      <trkpt lat="43.28021" lon="2.05027">
        <ele>126.5</ele>
        <time>2017-08-07T09:31:10Z</time>
      </trkpt>
      <trkpt lat="43.28025" lon="2.05015">
        <ele>126.699997</ele>
        <time>2017-08-07T09:31:16Z</time>
      </trkpt>
      <trkpt lat="43.28036" lon="2.05012">
        <ele>128.100006</ele>
        <time>2017-08-07T09:31:24Z</time>
      </trkpt>
      <trkpt lat="43.28046" lon="2.05007">
        <ele>129.300003</ele>
        <time>2017-08-07T09:31:28Z</time>
      </trkpt>
      <trkpt lat="43.28052" lon="2.04993">
        <ele>130</ele>
        <time>2017-08-07T09:31:32Z</time>
      </trkpt>
      <trkpt lat="43.28054" lon="2.04978">
        <ele>130.300003</ele>
        <time>2017-08-07T09:31:35Z</time>
      </trkpt>
      <trkpt lat="43.28054" lon="2.04961">
        <ele>130.300003</ele>
        <time>2017-08-07T09:31:38Z</time>
      </trkpt>
      <trkpt lat="43.28054" lon="2.04945">
        <ele>130.699997</ele>
        <time>2017-08-07T09:31:41Z</time>
      </trkpt>
      <trkpt lat="43.28055" lon="2.0493">
        <ele>131.399994</ele>
        <time>2017-08-07T09:31:44Z</time>
      </trkpt>
      <trkpt lat="43.28059" lon="2.04917">
        <ele>131.100006</ele>
        <time>2017-08-07T09:31:47Z</time>
      </trkpt>
      <trkpt lat="43.28063" lon="2.04903">
        <ele>130.5</ele>
        <time>2017-08-07T09:31:51Z</time>
      </trkpt>
      <trkpt lat="43.28067" lon="2.04891">
        <ele>130.399994</ele>
        <time>2017-08-07T09:31:54Z</time>
      </trkpt>
      <trkpt lat="43.2807" lon="2.04877">
        <ele>130.300003</ele>
        <time>2017-08-07T09:31:58Z</time>
      </trkpt>
      <trkpt lat="43.28074" lon="2.04866">
        <ele>130.199997</ele>
        <time>2017-08-07T09:32:01Z</time>
      </trkpt>
      <trkpt lat="43.28079" lon="2.04854">
        <ele>130.100006</ele>
        <time>2017-08-07T09:32:04Z</time>
      </trkpt>
      <trkpt lat="43.28084" lon="2.04842">
        <ele>130.199997</ele>
        <time>2017-08-07T09:32:07Z</time>
      </trkpt>
      <trkpt lat="43.28089" lon="2.0483">
        <ele>130.100006</ele>
        <time>2017-08-07T09:32:10Z</time>
      </trkpt>
      <trkpt lat="43.28095" lon="2.0482">
        <ele>129.800003</ele>
        <time>2017-08-07T09:32:13Z</time>
      </trkpt>
      <trkpt lat="43.28098" lon="2.04807">
        <ele>129.300003</ele>
        <time>2017-08-07T09:33:07Z</time>
      </trkpt>
      <trkpt lat="43.28102" lon="2.04795">
        <ele>129.100006</ele>
        <time>2017-08-07T09:33:11Z</time>
      </trkpt>
      <trkpt lat="43.28108" lon="2.04781">
        <ele>129.199997</ele>
        <time>2017-08-07T09:33:15Z</time>
      </trkpt>
      <trkpt lat="43.28112" lon="2.0477">
        <ele>129.100006</ele>
        <time>2017-08-07T09:33:18Z</time>
      </trkpt>
      <trkpt lat="43.28116" lon="2.04755">
        <ele>128.699997</ele>
        <time>2017-08-07T09:33:21Z</time>
      </trkpt>
      <trkpt lat="43.28121" lon="2.0474">
        <ele>128.199997</ele>
        <time>2017-08-07T09:33:24Z</time>
      </trkpt>
      <trkpt lat="43.28127" lon="2.04726">
        <ele>127.900002</ele>
        <time>2017-08-07T09:33:27Z</time>
      </trkpt>
      <trkpt lat="43.28132" lon="2.04712">
        <ele>128.300003</ele>
        <time>2017-08-07T09:33:30Z</time>
      </trkpt>
      <trkpt lat="43.28138" lon="2.04696">
        <ele>128.199997</ele>
        <time>2017-08-07T09:33:33Z</time>
      </trkpt>
      <trkpt lat="43.28144" lon="2.0468">
        <ele>127.800003</ele>
        <time>2017-08-07T09:33:36Z</time>
      </trkpt>
      <trkpt lat="43.28147" lon="2.04668">
        <ele>128.800003</ele>
        <time>2017-08-07T09:33:38Z</time>
      </trkpt>
      <trkpt lat="43.28153" lon="2.04651">
        <ele>130.600006</ele>
        <time>2017-08-07T09:33:41Z</time>
      </trkpt>
      <trkpt lat="43.28157" lon="2.04638">
        <ele>129.800003</ele>
        <time>2017-08-07T09:33:43Z</time>
      </trkpt>
      <trkpt lat="43.28162" lon="2.04625">
        <ele>129.100006</ele>
        <time>2017-08-07T09:33:45Z</time>
      </trkpt>
      <trkpt lat="43.28166" lon="2.04613">
        <ele>129.199997</ele>
        <time>2017-08-07T09:33:47Z</time>
      </trkpt>
      <trkpt lat="43.2817" lon="2.046">
        <ele>129.300003</ele>
        <time>2017-08-07T09:33:49Z</time>
      </trkpt>
      <trkpt lat="43.28175" lon="2.04588">
        <ele>129.399994</ele>
        <time>2017-08-07T09:33:51Z</time>
      </trkpt>
      <trkpt lat="43.28179" lon="2.04576">
        <ele>129.300003</ele>
        <time>2017-08-07T09:33:53Z</time>
      </trkpt>
      <trkpt lat="43.28184" lon="2.04564">
        <ele>129.399994</ele>
        <time>2017-08-07T09:33:55Z</time>
      </trkpt>
      <trkpt lat="43.28188" lon="2.0455">
        <ele>129.600006</ele>
        <time>2017-08-07T09:33:57Z</time>
      </trkpt>
      <trkpt lat="43.28192" lon="2.04537">
        <ele>129.800003</ele>
        <time>2017-08-07T09:33:59Z</time>
      </trkpt>
      <trkpt lat="43.28196" lon="2.04525">
        <ele>129.899994</ele>
        <time>2017-08-07T09:34:01Z</time>
      </trkpt>
      <trkpt lat="43.282" lon="2.04513">
        <ele>130</ele>
        <time>2017-08-07T09:34:03Z</time>
      </trkpt>
      <trkpt lat="43.28205" lon="2.04499">
        <ele>129.800003</ele>
        <time>2017-08-07T09:34:05Z</time>
      </trkpt>
      <trkpt lat="43.28209" lon="2.04485">
        <ele>129.199997</ele>
        <time>2017-08-07T09:34:07Z</time>
      </trkpt>
      <trkpt lat="43.28213" lon="2.04473">
        <ele>128.899994</ele>
        <time>2017-08-07T09:34:09Z</time>
      </trkpt>
      <trkpt lat="43.28217" lon="2.04459">
        <ele>129</ele>
        <time>2017-08-07T09:34:11Z</time>
      </trkpt>
      <trkpt lat="43.28222" lon="2.04446">
        <ele>129</ele>
        <time>2017-08-07T09:34:13Z</time>
      </trkpt>
      <trkpt lat="43.28226" lon="2.04433">
        <ele>129</ele>
        <time>2017-08-07T09:34:15Z</time>
      </trkpt>
      <trkpt lat="43.28231" lon="2.04421">
        <ele>128.899994</ele>
        <time>2017-08-07T09:34:17Z</time>
      </trkpt>
      <trkpt lat="43.28235" lon="2.04408">
        <ele>128.5</ele>
        <time>2017-08-07T09:34:19Z</time>
      </trkpt>
      <trkpt lat="43.2824" lon="2.04395">
        <ele>128.100006</ele>
        <time>2017-08-07T09:34:21Z</time>
      </trkpt>
      <trkpt lat="43.28244" lon="2.04383">
        <ele>128.199997</ele>
        <time>2017-08-07T09:34:23Z</time>
      </trkpt>
      <trkpt lat="43.28249" lon="2.04369">
        <ele>128.199997</ele>
        <time>2017-08-07T09:34:25Z</time>
      </trkpt>
      <trkpt lat="43.28253" lon="2.04356">
        <ele>128.199997</ele>
        <time>2017-08-07T09:34:27Z</time>
      </trkpt>
      <trkpt lat="43.28257" lon="2.04343">
        <ele>128.199997</ele>
        <time>2017-08-07T09:34:29Z</time>
      </trkpt>
      <trkpt lat="43.28261" lon="2.04331">
        <ele>128.300003</ele>
        <time>2017-08-07T09:34:31Z</time>
      </trkpt>
      <trkpt lat="43.28266" lon="2.04318">
        <ele>128.5</ele>
        <time>2017-08-07T09:34:33Z</time>
      </trkpt>
      <trkpt lat="43.28271" lon="2.04306">
        <ele>129.600006</ele>
        <time>2017-08-07T09:34:35Z</time>
      </trkpt>
      <trkpt lat="43.28277" lon="2.04294">
        <ele>131.300003</ele>
        <time>2017-08-07T09:34:37Z</time>
      </trkpt>
      <trkpt lat="43.28279" lon="2.04281">
        <ele>131.5</ele>
        <time>2017-08-07T09:34:39Z</time>
      </trkpt>
      <trkpt lat="43.28283" lon="2.04268">
        <ele>131.399994</ele>
        <time>2017-08-07T09:34:41Z</time>
      </trkpt>
      <trkpt lat="43.28287" lon="2.04254">
        <ele>131.199997</ele>
        <time>2017-08-07T09:34:44Z</time>
      </trkpt>
      <trkpt lat="43.28288" lon="2.04242">
        <ele>130.800003</ele>
        <time>2017-08-07T09:34:46Z</time>
      </trkpt>
      <trkpt lat="43.28293" lon="2.04226">
        <ele>130.5</ele>
        <time>2017-08-07T09:34:49Z</time>
      </trkpt>
      <trkpt lat="43.28298" lon="2.0421">
        <ele>130.5</ele>
        <time>2017-08-07T09:34:52Z</time>
      </trkpt>
      <trkpt lat="43.28304" lon="2.04194">
        <ele>130.800003</ele>
        <time>2017-08-07T09:34:55Z</time>
      </trkpt>
      <trkpt lat="43.28309" lon="2.04179">
        <ele>131</ele>
        <time>2017-08-07T09:34:58Z</time>
      </trkpt>
      <trkpt lat="43.28312" lon="2.04166">
        <ele>131</ele>
        <time>2017-08-07T09:35:00Z</time>
      </trkpt>
      <trkpt lat="43.28316" lon="2.04154">
        <ele>131.199997</ele>
        <time>2017-08-07T09:35:02Z</time>
      </trkpt>
      <trkpt lat="43.28321" lon="2.04143">
        <ele>131.5</ele>
        <time>2017-08-07T09:35:04Z</time>
      </trkpt>
      <trkpt lat="43.28327" lon="2.04127">
        <ele>131.800003</ele>
        <time>2017-08-07T09:35:07Z</time>
      </trkpt>
      <trkpt lat="43.2833" lon="2.04112">
        <ele>131.800003</ele>
        <time>2017-08-07T09:35:10Z</time>
      </trkpt>
      <trkpt lat="43.28333" lon="2.041">
        <ele>132</ele>
        <time>2017-08-07T09:35:13Z</time>
      </trkpt>
      <trkpt lat="43.28339" lon="2.04089">
        <ele>132.399994</ele>
        <time>2017-08-07T09:35:15Z</time>
      </trkpt>
      <trkpt lat="43.28343" lon="2.04074">
        <ele>131.899994</ele>
        <time>2017-08-07T09:35:18Z</time>
      </trkpt>
      <trkpt lat="43.28348" lon="2.04063">
        <ele>131.699997</ele>
        <time>2017-08-07T09:35:20Z</time>
      </trkpt>
      <trkpt lat="43.28351" lon="2.04049">
        <ele>131.300003</ele>
        <time>2017-08-07T09:35:22Z</time>
      </trkpt>
      <trkpt lat="43.28357" lon="2.04033">
        <ele>131.199997</ele>
        <time>2017-08-07T09:35:25Z</time>
      </trkpt>
      <trkpt lat="43.28362" lon="2.04016">
        <ele>131.300003</ele>
        <time>2017-08-07T09:35:28Z</time>
      </trkpt>
      <trkpt lat="43.28367" lon="2.03999">
        <ele>131</ele>
        <time>2017-08-07T09:35:31Z</time>
      </trkpt>
      <trkpt lat="43.28373" lon="2.03983">
        <ele>130.699997</ele>
        <time>2017-08-07T09:35:34Z</time>
      </trkpt>
      <trkpt lat="43.28377" lon="2.03971">
        <ele>130.800003</ele>
        <time>2017-08-07T09:35:36Z</time>
      </trkpt>
      <trkpt lat="43.28383" lon="2.03955">
        <ele>131.199997</ele>
        <time>2017-08-07T09:35:39Z</time>
      </trkpt>
      <trkpt lat="43.28387" lon="2.03943">
        <ele>131.199997</ele>
        <time>2017-08-07T09:35:41Z</time>
      </trkpt>
      <trkpt lat="43.28391" lon="2.0393">
        <ele>131.399994</ele>
        <time>2017-08-07T09:35:43Z</time>
      </trkpt>
      <trkpt lat="43.28395" lon="2.03919">
        <ele>131.800003</ele>
        <time>2017-08-07T09:35:45Z</time>
      </trkpt>
      <trkpt lat="43.284" lon="2.03903">
        <ele>131.800003</ele>
        <time>2017-08-07T09:35:48Z</time>
      </trkpt>
      <trkpt lat="43.28403" lon="2.03891">
        <ele>131.699997</ele>
        <time>2017-08-07T09:35:50Z</time>
      </trkpt>
      <trkpt lat="43.28408" lon="2.03873">
        <ele>131.699997</ele>
        <time>2017-08-07T09:35:53Z</time>
      </trkpt>
      <trkpt lat="43.28413" lon="2.03862">
        <ele>131.800003</ele>
        <time>2017-08-07T09:35:55Z</time>
      </trkpt>
      <trkpt lat="43.28418" lon="2.03846">
        <ele>131.600006</ele>
        <time>2017-08-07T09:35:58Z</time>
      </trkpt>
      <trkpt lat="43.28423" lon="2.03829">
        <ele>131</ele>
        <time>2017-08-07T09:36:01Z</time>
      </trkpt>
      <trkpt lat="43.28427" lon="2.03818">
        <ele>130.600006</ele>
        <time>2017-08-07T09:36:03Z</time>
      </trkpt>
      <trkpt lat="43.28431" lon="2.03806">
        <ele>130.5</ele>
        <time>2017-08-07T09:36:05Z</time>
      </trkpt>
      <trkpt lat="43.28435" lon="2.0379">
        <ele>130.699997</ele>
        <time>2017-08-07T09:36:08Z</time>
      </trkpt>
      <trkpt lat="43.2844" lon="2.03774">
        <ele>130.699997</ele>
        <time>2017-08-07T09:36:11Z</time>
      </trkpt>
      <trkpt lat="43.28445" lon="2.03758">
        <ele>130.899994</ele>
        <time>2017-08-07T09:36:14Z</time>
      </trkpt>
      <trkpt lat="43.2845" lon="2.03743">
        <ele>131.399994</ele>
        <time>2017-08-07T09:36:17Z</time>
      </trkpt>
      <trkpt lat="43.28454" lon="2.03727">
        <ele>131.699997</ele>
        <time>2017-08-07T09:36:20Z</time>
      </trkpt>
      <trkpt lat="43.28459" lon="2.03711">
        <ele>132.100006</ele>
        <time>2017-08-07T09:36:23Z</time>
      </trkpt>
      <trkpt lat="43.28462" lon="2.03699">
        <ele>132.100006</ele>
        <time>2017-08-07T09:36:25Z</time>
      </trkpt>
      <trkpt lat="43.28467" lon="2.03684">
        <ele>132.300003</ele>
        <time>2017-08-07T09:36:28Z</time>
      </trkpt>
      <trkpt lat="43.28472" lon="2.03667">
        <ele>132.600006</ele>
        <time>2017-08-07T09:36:31Z</time>
      </trkpt>
      <trkpt lat="43.28476" lon="2.03651">
        <ele>132.800003</ele>
        <time>2017-08-07T09:36:34Z</time>
      </trkpt>
      <trkpt lat="43.28481" lon="2.03634">
        <ele>132.699997</ele>
        <time>2017-08-07T09:36:37Z</time>
      </trkpt>
      <trkpt lat="43.28487" lon="2.03618">
        <ele>132.600006</ele>
        <time>2017-08-07T09:36:40Z</time>
      </trkpt>
      <trkpt lat="43.28491" lon="2.03603">
        <ele>132.399994</ele>
        <time>2017-08-07T09:36:43Z</time>
      </trkpt>
      <trkpt lat="43.28495" lon="2.03587">
        <ele>132.199997</ele>
        <time>2017-08-07T09:36:46Z</time>
      </trkpt>
      <trkpt lat="43.285" lon="2.03571">
        <ele>132.100006</ele>
        <time>2017-08-07T09:36:49Z</time>
      </trkpt>
      <trkpt lat="43.28504" lon="2.03556">
        <ele>131.699997</ele>
        <time>2017-08-07T09:36:52Z</time>
      </trkpt>
      <trkpt lat="43.28509" lon="2.0354">
        <ele>131</ele>
        <time>2017-08-07T09:36:55Z</time>
      </trkpt>
      <trkpt lat="43.28513" lon="2.03523">
        <ele>130.5</ele>
        <time>2017-08-07T09:36:58Z</time>
      </trkpt>
      <trkpt lat="43.28517" lon="2.03508">
        <ele>130.300003</ele>
        <time>2017-08-07T09:37:01Z</time>
      </trkpt>
      <trkpt lat="43.28522" lon="2.03491">
        <ele>130.399994</ele>
        <time>2017-08-07T09:37:04Z</time>
      </trkpt>
      <trkpt lat="43.28528" lon="2.0348">
        <ele>131.300003</ele>
        <time>2017-08-07T09:37:07Z</time>
      </trkpt>
      <trkpt lat="43.28533" lon="2.03467">
        <ele>131.800003</ele>
        <time>2017-08-07T09:37:10Z</time>
      </trkpt>
      <trkpt lat="43.28534" lon="2.03454">
        <ele>131.699997</ele>
        <time>2017-08-07T09:37:13Z</time>
      </trkpt>
      <trkpt lat="43.28536" lon="2.03442">
        <ele>132</ele>
        <time>2017-08-07T09:37:16Z</time>
      </trkpt>
      <trkpt lat="43.2854" lon="2.03428">
        <ele>132.699997</ele>
        <time>2017-08-07T09:37:21Z</time>
      </trkpt>
      <trkpt lat="43.28544" lon="2.03414">
        <ele>133.899994</ele>
        <time>2017-08-07T09:37:26Z</time>
      </trkpt>
      <trkpt lat="43.28548" lon="2.03402">
        <ele>134.800003</ele>
        <time>2017-08-07T09:37:31Z</time>
      </trkpt>
      <trkpt lat="43.28554" lon="2.03391">
        <ele>135.600006</ele>
        <time>2017-08-07T09:37:35Z</time>
      </trkpt>
      <trkpt lat="43.28559" lon="2.0338">
        <ele>135.899994</ele>
        <time>2017-08-07T09:37:38Z</time>
      </trkpt>
      <trkpt lat="43.28563" lon="2.03367">
        <ele>135.800003</ele>
        <time>2017-08-07T09:37:41Z</time>
      </trkpt>
      <trkpt lat="43.28567" lon="2.03354">
        <ele>135.300003</ele>
        <time>2017-08-07T09:37:44Z</time>
      </trkpt>
      <trkpt lat="43.28571" lon="2.03342">
        <ele>134.899994</ele>
        <time>2017-08-07T09:37:47Z</time>
      </trkpt>
      <trkpt lat="43.28574" lon="2.03329">
        <ele>134.5</ele>
        <time>2017-08-07T09:37:50Z</time>
      </trkpt>
      <trkpt lat="43.28579" lon="2.03313">
        <ele>134.399994</ele>
        <time>2017-08-07T09:37:53Z</time>
      </trkpt>
      <trkpt lat="43.28583" lon="2.03298">
        <ele>134.300003</ele>
        <time>2017-08-07T09:37:56Z</time>
      </trkpt>
      <trkpt lat="43.28587" lon="2.03282">
        <ele>134.399994</ele>
        <time>2017-08-07T09:37:59Z</time>
      </trkpt>
      <trkpt lat="43.28591" lon="2.03266">
        <ele>134.699997</ele>
        <time>2017-08-07T09:38:02Z</time>
      </trkpt>
      <trkpt lat="43.28596" lon="2.03251">
        <ele>134.899994</ele>
        <time>2017-08-07T09:38:05Z</time>
      </trkpt>
      <trkpt lat="43.28599" lon="2.03238">
        <ele>134.5</ele>
        <time>2017-08-07T09:38:07Z</time>
      </trkpt>
      <trkpt lat="43.28602" lon="2.03225">
        <ele>134.699997</ele>
        <time>2017-08-07T09:38:09Z</time>
      </trkpt>
      <trkpt lat="43.28607" lon="2.03211">
        <ele>135.399994</ele>
        <time>2017-08-07T09:38:12Z</time>
      </trkpt>
      <trkpt lat="43.28609" lon="2.03197">
        <ele>135.899994</ele>
        <time>2017-08-07T09:38:14Z</time>
      </trkpt>
      <trkpt lat="43.28614" lon="2.03181">
        <ele>136.5</ele>
        <time>2017-08-07T09:38:17Z</time>
      </trkpt>
      <trkpt lat="43.28616" lon="2.03168">
        <ele>136.5</ele>
        <time>2017-08-07T09:38:19Z</time>
      </trkpt>
      <trkpt lat="43.28619" lon="2.03151">
        <ele>136.699997</ele>
        <time>2017-08-07T09:38:22Z</time>
      </trkpt>
      <trkpt lat="43.28624" lon="2.03136">
        <ele>137.100006</ele>
        <time>2017-08-07T09:38:25Z</time>
      </trkpt>
      <trkpt lat="43.28628" lon="2.03119">
        <ele>137.100006</ele>
        <time>2017-08-07T09:38:28Z</time>
      </trkpt>
      <trkpt lat="43.28631" lon="2.03107">
        <ele>136.899994</ele>
        <time>2017-08-07T09:38:30Z</time>
      </trkpt>
      <trkpt lat="43.28635" lon="2.0309">
        <ele>136.600006</ele>
        <time>2017-08-07T09:38:33Z</time>
      </trkpt>
      <trkpt lat="43.2864" lon="2.03075">
        <ele>137.100006</ele>
        <time>2017-08-07T09:38:36Z</time>
      </trkpt>
      <trkpt lat="43.28645" lon="2.03059">
        <ele>137.600006</ele>
        <time>2017-08-07T09:38:39Z</time>
      </trkpt>
      <trkpt lat="43.28648" lon="2.03043">
        <ele>137.699997</ele>
        <time>2017-08-07T09:38:42Z</time>
      </trkpt>
      <trkpt lat="43.28649" lon="2.0303">
        <ele>137.399994</ele>
        <time>2017-08-07T09:38:44Z</time>
      </trkpt>
      <trkpt lat="43.28652" lon="2.03014">
        <ele>136.800003</ele>
        <time>2017-08-07T09:38:47Z</time>
      </trkpt>
      <trkpt lat="43.28653" lon="2.02998">
        <ele>135.5</ele>
        <time>2017-08-07T09:38:50Z</time>
      </trkpt>
      <trkpt lat="43.28656" lon="2.02982">
        <ele>134.300003</ele>
        <time>2017-08-07T09:38:53Z</time>
      </trkpt>
      <trkpt lat="43.28659" lon="2.02968">
        <ele>133.800003</ele>
        <time>2017-08-07T09:38:56Z</time>
      </trkpt>
      <trkpt lat="43.28661" lon="2.02955">
        <ele>133.399994</ele>
        <time>2017-08-07T09:38:59Z</time>
      </trkpt>
      <trkpt lat="43.28663" lon="2.02939">
        <ele>132.699997</ele>
        <time>2017-08-07T09:39:03Z</time>
      </trkpt>
      <trkpt lat="43.28666" lon="2.02926">
        <ele>132.800003</ele>
        <time>2017-08-07T09:39:06Z</time>
      </trkpt>
      <trkpt lat="43.28671" lon="2.02913">
        <ele>133.600006</ele>
        <time>2017-08-07T09:39:09Z</time>
      </trkpt>
      <trkpt lat="43.28674" lon="2.02899">
        <ele>134.100006</ele>
        <time>2017-08-07T09:39:12Z</time>
      </trkpt>
      <trkpt lat="43.28678" lon="2.02886">
        <ele>135.100006</ele>
        <time>2017-08-07T09:39:15Z</time>
      </trkpt>
      <trkpt lat="43.2868" lon="2.02872">
        <ele>135.800003</ele>
        <time>2017-08-07T09:39:18Z</time>
      </trkpt>
      <trkpt lat="43.28679" lon="2.02857">
        <ele>135.199997</ele>
        <time>2017-08-07T09:39:21Z</time>
      </trkpt>
      <trkpt lat="43.2868" lon="2.02843">
        <ele>135.199997</ele>
        <time>2017-08-07T09:39:24Z</time>
      </trkpt>
      <trkpt lat="43.28682" lon="2.02829">
        <ele>136.5</ele>
        <time>2017-08-07T09:39:27Z</time>
      </trkpt>
      <trkpt lat="43.28686" lon="2.02814">
        <ele>138.100006</ele>
        <time>2017-08-07T09:39:31Z</time>
      </trkpt>
      <trkpt lat="43.28693" lon="2.02804">
        <ele>139.800003</ele>
        <time>2017-08-07T09:39:37Z</time>
      </trkpt>
      <trkpt lat="43.28694" lon="2.02792">
        <ele>140.399994</ele>
        <time>2017-08-07T09:39:41Z</time>
      </trkpt>
      <trkpt lat="43.28697" lon="2.02779">
        <ele>140.899994</ele>
        <time>2017-08-07T09:39:44Z</time>
      </trkpt>
      <trkpt lat="43.28701" lon="2.02764">
        <ele>141.5</ele>
        <time>2017-08-07T09:39:47Z</time>
      </trkpt>
      <trkpt lat="43.28703" lon="2.02748">
        <ele>142.5</ele>
        <time>2017-08-07T09:39:50Z</time>
      </trkpt>
      <trkpt lat="43.28706" lon="2.02733">
        <ele>143.5</ele>
        <time>2017-08-07T09:39:53Z</time>
      </trkpt>
      <trkpt lat="43.28709" lon="2.02717">
        <ele>144.699997</ele>
        <time>2017-08-07T09:39:56Z</time>
      </trkpt>
      <trkpt lat="43.28712" lon="2.02703">
        <ele>145</ele>
        <time>2017-08-07T09:39:59Z</time>
      </trkpt>
      <trkpt lat="43.28716" lon="2.02688">
        <ele>144.199997</ele>
        <time>2017-08-07T09:40:02Z</time>
      </trkpt>
      <trkpt lat="43.28721" lon="2.02672">
        <ele>143</ele>
        <time>2017-08-07T09:40:05Z</time>
      </trkpt>
      <trkpt lat="43.28725" lon="2.02658">
        <ele>141.800003</ele>
        <time>2017-08-07T09:40:08Z</time>
      </trkpt>
      <trkpt lat="43.2873" lon="2.02644">
        <ele>140.699997</ele>
        <time>2017-08-07T09:40:11Z</time>
      </trkpt>
      <trkpt lat="43.28734" lon="2.02632">
        <ele>139.899994</ele>
        <time>2017-08-07T09:40:14Z</time>
      </trkpt>
      <trkpt lat="43.2874" lon="2.02619">
        <ele>138.899994</ele>
        <time>2017-08-07T09:40:17Z</time>
      </trkpt>
      <trkpt lat="43.28745" lon="2.02608">
        <ele>138.300003</ele>
        <time>2017-08-07T09:40:20Z</time>
      </trkpt>
      <trkpt lat="43.28752" lon="2.02595">
        <ele>138.399994</ele>
        <time>2017-08-07T09:40:23Z</time>
      </trkpt>
      <trkpt lat="43.28759" lon="2.02581">
        <ele>140.199997</ele>
        <time>2017-08-07T09:40:26Z</time>
      </trkpt>
      <trkpt lat="43.28766" lon="2.02566">
        <ele>142.100006</ele>
        <time>2017-08-07T09:40:29Z</time>
      </trkpt>
      <trkpt lat="43.28771" lon="2.02555">
        <ele>142.600006</ele>
        <time>2017-08-07T09:40:31Z</time>
      </trkpt>
      <trkpt lat="43.28776" lon="2.02542">
        <ele>143.199997</ele>
        <time>2017-08-07T09:40:33Z</time>
      </trkpt>
      <trkpt lat="43.28781" lon="2.02527">
        <ele>144.100006</ele>
        <time>2017-08-07T09:40:36Z</time>
      </trkpt>
      <trkpt lat="43.28786" lon="2.02512">
        <ele>144.899994</ele>
        <time>2017-08-07T09:40:39Z</time>
      </trkpt>
      <trkpt lat="43.28792" lon="2.02499">
        <ele>145.399994</ele>
        <time>2017-08-07T09:40:42Z</time>
      </trkpt>
      <trkpt lat="43.28793" lon="2.02481">
        <ele>145.199997</ele>
        <time>2017-08-07T09:40:45Z</time>
      </trkpt>
      <trkpt lat="43.28795" lon="2.02463">
        <ele>146</ele>
        <time>2017-08-07T09:40:48Z</time>
      </trkpt>
      <trkpt lat="43.28795" lon="2.02449">
        <ele>146.300003</ele>
        <time>2017-08-07T09:40:51Z</time>
      </trkpt>
      <trkpt lat="43.28798" lon="2.02433">
        <ele>146.600006</ele>
        <time>2017-08-07T09:40:54Z</time>
      </trkpt>
      <trkpt lat="43.28802" lon="2.02417">
        <ele>146.199997</ele>
        <time>2017-08-07T09:40:58Z</time>
      </trkpt>
      <trkpt lat="43.28804" lon="2.02403">
        <ele>145.800003</ele>
        <time>2017-08-07T09:41:00Z</time>
      </trkpt>
      <trkpt lat="43.28805" lon="2.02386">
        <ele>146.5</ele>
        <time>2017-08-07T09:41:03Z</time>
      </trkpt>
      <trkpt lat="43.28808" lon="2.02374">
        <ele>147.100006</ele>
        <time>2017-08-07T09:41:05Z</time>
      </trkpt>
      <trkpt lat="43.28811" lon="2.02359">
        <ele>145.199997</ele>
        <time>2017-08-07T09:41:08Z</time>
      </trkpt>
      <trkpt lat="43.28813" lon="2.02342">
        <ele>143.100006</ele>
        <time>2017-08-07T09:41:11Z</time>
      </trkpt>
      <trkpt lat="43.28815" lon="2.02329">
        <ele>142.800003</ele>
        <time>2017-08-07T09:41:13Z</time>
      </trkpt>
      <trkpt lat="43.28819" lon="2.02313">
        <ele>142.600006</ele>
        <time>2017-08-07T09:41:16Z</time>
      </trkpt>
      <trkpt lat="43.28821" lon="2.02297">
        <ele>142.300003</ele>
        <time>2017-08-07T09:41:19Z</time>
      </trkpt>
      <trkpt lat="43.28824" lon="2.02281">
        <ele>140.600006</ele>
        <time>2017-08-07T09:41:22Z</time>
      </trkpt>
      <trkpt lat="43.2883" lon="2.02264">
        <ele>138.100006</ele>
        <time>2017-08-07T09:41:24Z</time>
      </trkpt>
      <trkpt lat="43.28831" lon="2.02248">
        <ele>137.600006</ele>
        <time>2017-08-07T09:41:27Z</time>
      </trkpt>
      <trkpt lat="43.28835" lon="2.02233">
        <ele>137.699997</ele>
        <time>2017-08-07T09:41:30Z</time>
      </trkpt>
      <trkpt lat="43.28839" lon="2.02216">
        <ele>138.899994</ele>
        <time>2017-08-07T09:41:34Z</time>
      </trkpt>
      <trkpt lat="43.28843" lon="2.02201">
        <ele>139.600006</ele>
        <time>2017-08-07T09:41:37Z</time>
      </trkpt>
      <trkpt lat="43.28847" lon="2.02189">
        <ele>138.600006</ele>
        <time>2017-08-07T09:41:39Z</time>
      </trkpt>
      <trkpt lat="43.28851" lon="2.02172">
        <ele>137.300003</ele>
        <time>2017-08-07T09:41:42Z</time>
      </trkpt>
      <trkpt lat="43.28857" lon="2.02155">
        <ele>137.5</ele>
        <time>2017-08-07T09:41:45Z</time>
      </trkpt>
      <trkpt lat="43.28861" lon="2.02141">
        <ele>136.600006</ele>
        <time>2017-08-07T09:41:48Z</time>
      </trkpt>
      <trkpt lat="43.28866" lon="2.02127">
        <ele>135.699997</ele>
        <time>2017-08-07T09:41:51Z</time>
      </trkpt>
      <trkpt lat="43.28868" lon="2.02108">
        <ele>135.600006</ele>
        <time>2017-08-07T09:41:54Z</time>
      </trkpt>
      <trkpt lat="43.28873" lon="2.02092">
        <ele>135.300003</ele>
        <time>2017-08-07T09:41:57Z</time>
      </trkpt>
      <trkpt lat="43.28878" lon="2.02075">
        <ele>134.5</ele>
        <time>2017-08-07T09:42:01Z</time>
      </trkpt>
      <trkpt lat="43.28882" lon="2.02062">
        <ele>134.899994</ele>
        <time>2017-08-07T09:42:03Z</time>
      </trkpt>
      <trkpt lat="43.28885" lon="2.02051">
        <ele>135.399994</ele>
        <time>2017-08-07T09:42:05Z</time>
      </trkpt>
      <trkpt lat="43.28889" lon="2.02038">
        <ele>136.300003</ele>
        <time>2017-08-07T09:42:07Z</time>
      </trkpt>
      <trkpt lat="43.28892" lon="2.02024">
        <ele>136.699997</ele>
        <time>2017-08-07T09:42:10Z</time>
      </trkpt>
      <trkpt lat="43.28897" lon="2.02007">
        <ele>138</ele>
        <time>2017-08-07T09:42:13Z</time>
      </trkpt>
      <trkpt lat="43.28902" lon="2.01995">
        <ele>140</ele>
        <time>2017-08-07T09:42:15Z</time>
      </trkpt>
      <trkpt lat="43.28905" lon="2.01982">
        <ele>140.699997</ele>
        <time>2017-08-07T09:42:17Z</time>
      </trkpt>
      <trkpt lat="43.28908" lon="2.0197">
        <ele>140.100006</ele>
        <time>2017-08-07T09:42:19Z</time>
      </trkpt>
      <trkpt lat="43.28911" lon="2.01958">
        <ele>139.300003</ele>
        <time>2017-08-07T09:42:21Z</time>
      </trkpt>
      <trkpt lat="43.28914" lon="2.01946">
        <ele>138.399994</ele>
        <time>2017-08-07T09:42:23Z</time>
      </trkpt>
      <trkpt lat="43.28919" lon="2.01932">
        <ele>137.600006</ele>
        <time>2017-08-07T09:42:26Z</time>
      </trkpt>
      <trkpt lat="43.28925" lon="2.01918">
        <ele>136.600006</ele>
        <time>2017-08-07T09:42:28Z</time>
      </trkpt>
      <trkpt lat="43.28928" lon="2.01906">
        <ele>135.800003</ele>
        <time>2017-08-07T09:42:30Z</time>
      </trkpt>
      <trkpt lat="43.28933" lon="2.01891">
        <ele>134.5</ele>
        <time>2017-08-07T09:42:33Z</time>
      </trkpt>
      <trkpt lat="43.2894" lon="2.01872">
        <ele>133.100006</ele>
        <time>2017-08-07T09:42:36Z</time>
      </trkpt>
      <trkpt lat="43.28943" lon="2.01859">
        <ele>132.600006</ele>
        <time>2017-08-07T09:42:38Z</time>
      </trkpt>
      <trkpt lat="43.28947" lon="2.01848">
        <ele>132.100006</ele>
        <time>2017-08-07T09:42:40Z</time>
      </trkpt>
      <trkpt lat="43.28951" lon="2.0183">
        <ele>130.699997</ele>
        <time>2017-08-07T09:42:43Z</time>
      </trkpt>
      <trkpt lat="43.28956" lon="2.01818">
        <ele>129.100006</ele>
        <time>2017-08-07T09:42:45Z</time>
      </trkpt>
      <trkpt lat="43.2896" lon="2.01806">
        <ele>127.5</ele>
        <time>2017-08-07T09:42:47Z</time>
      </trkpt>
      <trkpt lat="43.28963" lon="2.01794">
        <ele>126.599998</ele>
        <time>2017-08-07T09:42:49Z</time>
      </trkpt>
      <trkpt lat="43.28968" lon="2.01779">
        <ele>126.5</ele>
        <time>2017-08-07T09:42:52Z</time>
      </trkpt>
      <trkpt lat="43.28972" lon="2.01767">
        <ele>127</ele>
        <time>2017-08-07T09:42:54Z</time>
      </trkpt>
      <trkpt lat="43.28975" lon="2.01755">
        <ele>128.600006</ele>
        <time>2017-08-07T09:42:56Z</time>
      </trkpt>
      <trkpt lat="43.28981" lon="2.01738">
        <ele>131.399994</ele>
        <time>2017-08-07T09:42:59Z</time>
      </trkpt>
      <trkpt lat="43.28986" lon="2.01721">
        <ele>134</ele>
        <time>2017-08-07T09:43:02Z</time>
      </trkpt>
      <trkpt lat="43.2899" lon="2.0171">
        <ele>136.100006</ele>
        <time>2017-08-07T09:43:04Z</time>
      </trkpt>
      <trkpt lat="43.28995" lon="2.01693">
        <ele>137.800003</ele>
        <time>2017-08-07T09:43:07Z</time>
      </trkpt>
      <trkpt lat="43.28999" lon="2.01677">
        <ele>138.100006</ele>
        <time>2017-08-07T09:43:10Z</time>
      </trkpt>
      <trkpt lat="43.29004" lon="2.01663">
        <ele>138.100006</ele>
        <time>2017-08-07T09:43:13Z</time>
      </trkpt>
      <trkpt lat="43.29008" lon="2.01649">
        <ele>138.100006</ele>
        <time>2017-08-07T09:43:16Z</time>
      </trkpt>
      <trkpt lat="43.29012" lon="2.01635">
        <ele>137.600006</ele>
        <time>2017-08-07T09:43:19Z</time>
      </trkpt>
      <trkpt lat="43.29017" lon="2.01623">
        <ele>137.199997</ele>
        <time>2017-08-07T09:43:24Z</time>
      </trkpt>
      <trkpt lat="43.29018" lon="2.01609">
        <ele>135.899994</ele>
        <time>2017-08-07T09:44:08Z</time>
      </trkpt>
      <trkpt lat="43.2902" lon="2.01595">
        <ele>135</ele>
        <time>2017-08-07T09:44:12Z</time>
      </trkpt>
      <trkpt lat="43.29023" lon="2.01583">
        <ele>135.300003</ele>
        <time>2017-08-07T09:44:15Z</time>
      </trkpt>
      <trkpt lat="43.29027" lon="2.0157">
        <ele>135.899994</ele>
        <time>2017-08-07T09:44:18Z</time>
      </trkpt>
      <trkpt lat="43.29032" lon="2.01558">
        <ele>136.5</ele>
        <time>2017-08-07T09:44:21Z</time>
      </trkpt>
      <trkpt lat="43.29036" lon="2.01546">
        <ele>137.199997</ele>
        <time>2017-08-07T09:44:25Z</time>
      </trkpt>
      <trkpt lat="43.29037" lon="2.01534">
        <ele>137.100006</ele>
        <time>2017-08-07T09:45:25Z</time>
      </trkpt>
      <trkpt lat="43.29043" lon="2.01524">
        <ele>137.5</ele>
        <time>2017-08-07T09:45:52Z</time>
      </trkpt>
      <trkpt lat="43.29046" lon="2.01511">
        <ele>137.699997</ele>
        <time>2017-08-07T09:45:58Z</time>
      </trkpt>
      <trkpt lat="43.29051" lon="2.01496">
        <ele>137.899994</ele>
        <time>2017-08-07T09:46:01Z</time>
      </trkpt>
      <trkpt lat="43.29056" lon="2.01483">
        <ele>138.399994</ele>
        <time>2017-08-07T09:46:04Z</time>
      </trkpt>
      <trkpt lat="43.29061" lon="2.0147">
        <ele>138.5</ele>
        <time>2017-08-07T09:46:08Z</time>
      </trkpt>
      <trkpt lat="43.29065" lon="2.01457">
        <ele>138.300003</ele>
        <time>2017-08-07T09:46:12Z</time>
      </trkpt>
      <trkpt lat="43.29067" lon="2.01444">
        <ele>137.699997</ele>
        <time>2017-08-07T09:46:15Z</time>
      </trkpt>
      <trkpt lat="43.29071" lon="2.01432">
        <ele>137.399994</ele>
        <time>2017-08-07T09:46:18Z</time>
      </trkpt>
      <trkpt lat="43.29076" lon="2.01419">
        <ele>137.300003</ele>
        <time>2017-08-07T09:46:21Z</time>
      </trkpt>
      <trkpt lat="43.29078" lon="2.01407">
        <ele>136.899994</ele>
        <time>2017-08-07T09:46:25Z</time>
      </trkpt>
      <trkpt lat="43.29082" lon="2.01393">
        <ele>136.600006</ele>
        <time>2017-08-07T09:46:28Z</time>
      </trkpt>
      <trkpt lat="43.29085" lon="2.01382">
        <ele>136.399994</ele>
        <time>2017-08-07T09:46:30Z</time>
      </trkpt>
      <trkpt lat="43.2909" lon="2.01366">
        <ele>136.300003</ele>
        <time>2017-08-07T09:46:33Z</time>
      </trkpt>
      <trkpt lat="43.29095" lon="2.01354">
        <ele>136.699997</ele>
        <time>2017-08-07T09:46:35Z</time>
      </trkpt>
      <trkpt lat="43.29099" lon="2.01338">
        <ele>136.600006</ele>
        <time>2017-08-07T09:46:38Z</time>
      </trkpt>
      <trkpt lat="43.29103" lon="2.01325">
        <ele>136.399994</ele>
        <time>2017-08-07T09:46:40Z</time>
      </trkpt>
      <trkpt lat="43.29107" lon="2.0131">
        <ele>136.300003</ele>
        <time>2017-08-07T09:46:43Z</time>
      </trkpt>
      <trkpt lat="43.29111" lon="2.01298">
        <ele>136.300003</ele>
        <time>2017-08-07T09:46:45Z</time>
      </trkpt>
      <trkpt lat="43.29116" lon="2.01283">
        <ele>136.5</ele>
        <time>2017-08-07T09:46:48Z</time>
      </trkpt>
      <trkpt lat="43.2912" lon="2.01264">
        <ele>137.100006</ele>
        <time>2017-08-07T09:46:51Z</time>
      </trkpt>
      <trkpt lat="43.29124" lon="2.01249">
        <ele>137.199997</ele>
        <time>2017-08-07T09:46:54Z</time>
      </trkpt>
      <trkpt lat="43.29126" lon="2.01236">
        <ele>137.100006</ele>
        <time>2017-08-07T09:46:56Z</time>
      </trkpt>
      <trkpt lat="43.29129" lon="2.01223">
        <ele>137.800003</ele>
        <time>2017-08-07T09:46:58Z</time>
      </trkpt>
      <trkpt lat="43.29132" lon="2.01211">
        <ele>138.5</ele>
        <time>2017-08-07T09:47:00Z</time>
      </trkpt>
      <trkpt lat="43.29136" lon="2.01194">
        <ele>139.600006</ele>
        <time>2017-08-07T09:47:03Z</time>
      </trkpt>
      <trkpt lat="43.29139" lon="2.01178">
        <ele>140.600006</ele>
        <time>2017-08-07T09:47:06Z</time>
      </trkpt>
      <trkpt lat="43.29141" lon="2.01163">
        <ele>141.699997</ele>
        <time>2017-08-07T09:47:08Z</time>
      </trkpt>
      <trkpt lat="43.29143" lon="2.01151">
        <ele>142.600006</ele>
        <time>2017-08-07T09:47:10Z</time>
      </trkpt>
      <trkpt lat="43.29147" lon="2.01134">
        <ele>142.899994</ele>
        <time>2017-08-07T09:47:13Z</time>
      </trkpt>
      <trkpt lat="43.29149" lon="2.01121">
        <ele>142.899994</ele>
        <time>2017-08-07T09:47:15Z</time>
      </trkpt>
      <trkpt lat="43.29152" lon="2.01105">
        <ele>142.399994</ele>
        <time>2017-08-07T09:47:18Z</time>
      </trkpt>
      <trkpt lat="43.29155" lon="2.01092">
        <ele>142.199997</ele>
        <time>2017-08-07T09:47:20Z</time>
      </trkpt>
      <trkpt lat="43.2916" lon="2.01074">
        <ele>142.100006</ele>
        <time>2017-08-07T09:47:23Z</time>
      </trkpt>
      <trkpt lat="43.29162" lon="2.01061">
        <ele>142</ele>
        <time>2017-08-07T09:47:25Z</time>
      </trkpt>
      <trkpt lat="43.29165" lon="2.01049">
        <ele>142</ele>
        <time>2017-08-07T09:47:27Z</time>
      </trkpt>
      <trkpt lat="43.29169" lon="2.01032">
        <ele>141.800003</ele>
        <time>2017-08-07T09:47:30Z</time>
      </trkpt>
      <trkpt lat="43.29173" lon="2.01015">
        <ele>141.5</ele>
        <time>2017-08-07T09:47:33Z</time>
      </trkpt>
      <trkpt lat="43.29177" lon="2.00998">
        <ele>141.699997</ele>
        <time>2017-08-07T09:47:36Z</time>
      </trkpt>
      <trkpt lat="43.2918" lon="2.00981">
        <ele>142</ele>
        <time>2017-08-07T09:47:39Z</time>
      </trkpt>
      <trkpt lat="43.29184" lon="2.00964">
        <ele>142.699997</ele>
        <time>2017-08-07T09:47:42Z</time>
      </trkpt>
      <trkpt lat="43.29187" lon="2.00948">
        <ele>142.600006</ele>
        <time>2017-08-07T09:47:45Z</time>
      </trkpt>
      <trkpt lat="43.29193" lon="2.00934">
        <ele>142.5</ele>
        <time>2017-08-07T09:47:48Z</time>
      </trkpt>
      <trkpt lat="43.29197" lon="2.00917">
        <ele>141.600006</ele>
        <time>2017-08-07T09:47:51Z</time>
      </trkpt>
      <trkpt lat="43.29202" lon="2.00901">
        <ele>140.600006</ele>
        <time>2017-08-07T09:47:54Z</time>
      </trkpt>
      <trkpt lat="43.29207" lon="2.00885">
        <ele>140.800003</ele>
        <time>2017-08-07T09:47:57Z</time>
      </trkpt>
      <trkpt lat="43.29212" lon="2.00869">
        <ele>141.199997</ele>
        <time>2017-08-07T09:48:00Z</time>
      </trkpt>
      <trkpt lat="43.29217" lon="2.00853">
        <ele>141.399994</ele>
        <time>2017-08-07T09:48:03Z</time>
      </trkpt>
      <trkpt lat="43.29223" lon="2.00837">
        <ele>141.5</ele>
        <time>2017-08-07T09:48:06Z</time>
      </trkpt>
      <trkpt lat="43.29228" lon="2.00822">
        <ele>141.300003</ele>
        <time>2017-08-07T09:48:09Z</time>
      </trkpt>
      <trkpt lat="43.29234" lon="2.00806">
        <ele>140.899994</ele>
        <time>2017-08-07T09:48:12Z</time>
      </trkpt>
      <trkpt lat="43.2924" lon="2.0079">
        <ele>140.100006</ele>
        <time>2017-08-07T09:48:15Z</time>
      </trkpt>
      <trkpt lat="43.29246" lon="2.00775">
        <ele>139.399994</ele>
        <time>2017-08-07T09:48:18Z</time>
      </trkpt>
      <trkpt lat="43.2925" lon="2.00763">
        <ele>139</ele>
        <time>2017-08-07T09:48:20Z</time>
      </trkpt>
      <trkpt lat="43.29254" lon="2.00752">
        <ele>139</ele>
        <time>2017-08-07T09:48:22Z</time>
      </trkpt>
      <trkpt lat="43.29259" lon="2.0074">
        <ele>139</ele>
        <time>2017-08-07T09:48:24Z</time>
      </trkpt>
      <trkpt lat="43.29263" lon="2.00729">
        <ele>139.300003</ele>
        <time>2017-08-07T09:48:26Z</time>
      </trkpt>
      <trkpt lat="43.29268" lon="2.00712">
        <ele>140.800003</ele>
        <time>2017-08-07T09:48:29Z</time>
      </trkpt>
      <trkpt lat="43.29275" lon="2.00696">
        <ele>140.699997</ele>
        <time>2017-08-07T09:48:32Z</time>
      </trkpt>
      <trkpt lat="43.29279" lon="2.00679">
        <ele>140.699997</ele>
        <time>2017-08-07T09:48:35Z</time>
      </trkpt>
      <trkpt lat="43.29283" lon="2.00667">
        <ele>141.100006</ele>
        <time>2017-08-07T09:48:37Z</time>
      </trkpt>
      <trkpt lat="43.29288" lon="2.00651">
        <ele>141.5</ele>
        <time>2017-08-07T09:48:40Z</time>
      </trkpt>
      <trkpt lat="43.29294" lon="2.00635">
        <ele>143</ele>
        <time>2017-08-07T09:48:43Z</time>
      </trkpt>
      <trkpt lat="43.29298" lon="2.00624">
        <ele>144.399994</ele>
        <time>2017-08-07T09:48:45Z</time>
      </trkpt>
      <trkpt lat="43.29303" lon="2.00608">
        <ele>145.899994</ele>
        <time>2017-08-07T09:48:48Z</time>
      </trkpt>
      <trkpt lat="43.29309" lon="2.00593">
        <ele>147</ele>
        <time>2017-08-07T09:48:51Z</time>
      </trkpt>
      <trkpt lat="43.29316" lon="2.0058">
        <ele>147.5</ele>
        <time>2017-08-07T09:48:54Z</time>
      </trkpt>
      <trkpt lat="43.29321" lon="2.00568">
        <ele>147.300003</ele>
        <time>2017-08-07T09:48:57Z</time>
      </trkpt>
      <trkpt lat="43.29326" lon="2.00554">
        <ele>147.899994</ele>
        <time>2017-08-07T09:49:01Z</time>
      </trkpt>
      <trkpt lat="43.29329" lon="2.00541">
        <ele>148.399994</ele>
        <time>2017-08-07T09:49:08Z</time>
      </trkpt>
      <trkpt lat="43.29327" lon="2.00529">
        <ele>148</ele>
        <time>2017-08-07T09:49:12Z</time>
      </trkpt>
      <trkpt lat="43.29331" lon="2.00515">
        <ele>148.199997</ele>
        <time>2017-08-07T09:49:16Z</time>
      </trkpt>
      <trkpt lat="43.29336" lon="2.00501">
        <ele>147.600006</ele>
        <time>2017-08-07T09:49:20Z</time>
      </trkpt>
      <trkpt lat="43.29343" lon="2.0049">
        <ele>147.100006</ele>
        <time>2017-08-07T09:49:23Z</time>
      </trkpt>
      <trkpt lat="43.29349" lon="2.00478">
        <ele>146.800003</ele>
        <time>2017-08-07T09:49:27Z</time>
      </trkpt>
      <trkpt lat="43.29354" lon="2.00465">
        <ele>146.699997</ele>
        <time>2017-08-07T09:49:31Z</time>
      </trkpt>
      <trkpt lat="43.29358" lon="2.00453">
        <ele>146.199997</ele>
        <time>2017-08-07T09:49:34Z</time>
      </trkpt>
      <trkpt lat="43.29364" lon="2.00439">
        <ele>145</ele>
        <time>2017-08-07T09:49:38Z</time>
      </trkpt>
      <trkpt lat="43.29369" lon="2.00429">
        <ele>144.199997</ele>
        <time>2017-08-07T09:49:41Z</time>
      </trkpt>
      <trkpt lat="43.29376" lon="2.00418">
        <ele>144.199997</ele>
        <time>2017-08-07T09:49:44Z</time>
      </trkpt>
      <trkpt lat="43.29384" lon="2.00409">
        <ele>143.899994</ele>
        <time>2017-08-07T09:49:47Z</time>
      </trkpt>
      <trkpt lat="43.29392" lon="2.004">
        <ele>143.300003</ele>
        <time>2017-08-07T09:49:51Z</time>
      </trkpt>
      <trkpt lat="43.29397" lon="2.00389">
        <ele>141.800003</ele>
        <time>2017-08-07T09:50:13Z</time>
      </trkpt>
      <trkpt lat="43.29404" lon="2.00381">
        <ele>141</ele>
        <time>2017-08-07T09:50:38Z</time>
      </trkpt>
      <trkpt lat="43.29413" lon="2.00375">
        <ele>141</ele>
        <time>2017-08-07T09:50:41Z</time>
      </trkpt>
      <trkpt lat="43.29422" lon="2.00366">
        <ele>141</ele>
        <time>2017-08-07T09:50:44Z</time>
      </trkpt>
      <trkpt lat="43.2943" lon="2.00356">
        <ele>140.300003</ele>
        <time>2017-08-07T09:50:47Z</time>
      </trkpt>
      <trkpt lat="43.29439" lon="2.00345">
        <ele>140</ele>
        <time>2017-08-07T09:50:50Z</time>
      </trkpt>
      <trkpt lat="43.29448" lon="2.00333">
        <ele>139.800003</ele>
        <time>2017-08-07T09:50:53Z</time>
      </trkpt>
      <trkpt lat="43.29454" lon="2.00323">
        <ele>139.300003</ele>
        <time>2017-08-07T09:50:55Z</time>
      </trkpt>
      <trkpt lat="43.29462" lon="2.00314">
        <ele>139.300003</ele>
        <time>2017-08-07T09:50:58Z</time>
      </trkpt>
      <trkpt lat="43.2947" lon="2.00305">
        <ele>140.199997</ele>
        <time>2017-08-07T09:51:01Z</time>
      </trkpt>
      <trkpt lat="43.29479" lon="2.00295">
        <ele>140.899994</ele>
        <time>2017-08-07T09:51:04Z</time>
      </trkpt>
      <trkpt lat="43.29488" lon="2.00285">
        <ele>141.399994</ele>
        <time>2017-08-07T09:51:07Z</time>
      </trkpt>
      <trkpt lat="43.29497" lon="2.00275">
        <ele>140.699997</ele>
        <time>2017-08-07T09:51:10Z</time>
      </trkpt>
      <trkpt lat="43.29507" lon="2.00265">
        <ele>139.899994</ele>
        <time>2017-08-07T09:51:13Z</time>
      </trkpt>
      <trkpt lat="43.29515" lon="2.00255">
        <ele>138.899994</ele>
        <time>2017-08-07T09:51:16Z</time>
      </trkpt>
      <trkpt lat="43.29524" lon="2.00243">
        <ele>137.899994</ele>
        <time>2017-08-07T09:51:19Z</time>
      </trkpt>
      <trkpt lat="43.29534" lon="2.00233">
        <ele>137.300003</ele>
        <time>2017-08-07T09:51:22Z</time>
      </trkpt>
      <trkpt lat="43.29544" lon="2.00222">
        <ele>137.699997</ele>
        <time>2017-08-07T09:51:25Z</time>
      </trkpt>
      <trkpt lat="43.29552" lon="2.00209">
        <ele>138.5</ele>
        <time>2017-08-07T09:51:28Z</time>
      </trkpt>
      <trkpt lat="43.29559" lon="2.00194">
        <ele>138.5</ele>
        <time>2017-08-07T09:51:31Z</time>
      </trkpt>
      <trkpt lat="43.29566" lon="2.00179">
        <ele>138.5</ele>
        <time>2017-08-07T09:51:34Z</time>
      </trkpt>
      <trkpt lat="43.29571" lon="2.00164">
        <ele>138.600006</ele>
        <time>2017-08-07T09:51:37Z</time>
      </trkpt>
      <trkpt lat="43.29576" lon="2.00151">
        <ele>138.899994</ele>
        <time>2017-08-07T09:51:40Z</time>
      </trkpt>
      <trkpt lat="43.2958" lon="2.00136">
        <ele>138.899994</ele>
        <time>2017-08-07T09:51:43Z</time>
      </trkpt>
      <trkpt lat="43.29585" lon="2.00122">
        <ele>139.199997</ele>
        <time>2017-08-07T09:51:46Z</time>
      </trkpt>
      <trkpt lat="43.2959" lon="2.00105">
        <ele>139.399994</ele>
        <time>2017-08-07T09:51:49Z</time>
      </trkpt>
      <trkpt lat="43.29593" lon="2.00093">
        <ele>139.399994</ele>
        <time>2017-08-07T09:51:51Z</time>
      </trkpt>
      <trkpt lat="43.29597" lon="2.00078">
        <ele>139.300003</ele>
        <time>2017-08-07T09:51:54Z</time>
      </trkpt>
      <trkpt lat="43.29601" lon="2.00066">
        <ele>139.300003</ele>
        <time>2017-08-07T09:51:56Z</time>
      </trkpt>
      <trkpt lat="43.29604" lon="2.0005">
        <ele>139.699997</ele>
        <time>2017-08-07T09:51:59Z</time>
      </trkpt>
      <trkpt lat="43.29609" lon="2.00034">
        <ele>140.199997</ele>
        <time>2017-08-07T09:52:02Z</time>
      </trkpt>
      <trkpt lat="43.29613" lon="2.0002">
        <ele>140.699997</ele>
        <time>2017-08-07T09:52:05Z</time>
      </trkpt>
      <trkpt lat="43.29616" lon="2.00004">
        <ele>140.699997</ele>
        <time>2017-08-07T09:52:08Z</time>
      </trkpt>
      <trkpt lat="43.2962" lon="1.99988">
        <ele>140.600006</ele>
        <time>2017-08-07T09:52:11Z</time>
      </trkpt>
      <trkpt lat="43.29622" lon="1.99973">
        <ele>140.600006</ele>
        <time>2017-08-07T09:52:14Z</time>
      </trkpt>
      <trkpt lat="43.29625" lon="1.99959">
        <ele>141</ele>
        <time>2017-08-07T09:52:17Z</time>
      </trkpt>
      <trkpt lat="43.29629" lon="1.99945">
        <ele>142.100006</ele>
        <time>2017-08-07T09:52:21Z</time>
      </trkpt>
      <trkpt lat="43.29633" lon="1.99929">
        <ele>143.600006</ele>
        <time>2017-08-07T09:52:25Z</time>
      </trkpt>
      <trkpt lat="43.29636" lon="1.99916">
        <ele>144.300003</ele>
        <time>2017-08-07T09:52:28Z</time>
      </trkpt>
      <trkpt lat="43.29641" lon="1.99904">
        <ele>145.399994</ele>
        <time>2017-08-07T09:52:31Z</time>
      </trkpt>
      <trkpt lat="43.29646" lon="1.99891">
        <ele>146.199997</ele>
        <time>2017-08-07T09:52:34Z</time>
      </trkpt>
      <trkpt lat="43.2965" lon="1.99878">
        <ele>147.199997</ele>
        <time>2017-08-07T09:52:37Z</time>
      </trkpt>
      <trkpt lat="43.29654" lon="1.99864">
        <ele>147.800003</ele>
        <time>2017-08-07T09:52:40Z</time>
      </trkpt>
      <trkpt lat="43.29658" lon="1.9985">
        <ele>148.199997</ele>
        <time>2017-08-07T09:52:43Z</time>
      </trkpt>
      <trkpt lat="43.29662" lon="1.99834">
        <ele>148.199997</ele>
        <time>2017-08-07T09:52:46Z</time>
      </trkpt>
      <trkpt lat="43.29666" lon="1.99817">
        <ele>148.199997</ele>
        <time>2017-08-07T09:52:49Z</time>
      </trkpt>
      <trkpt lat="43.29671" lon="1.99801">
        <ele>148.100006</ele>
        <time>2017-08-07T09:52:52Z</time>
      </trkpt>
      <trkpt lat="43.29674" lon="1.99784">
        <ele>148.100006</ele>
        <time>2017-08-07T09:52:55Z</time>
      </trkpt>
      <trkpt lat="43.29678" lon="1.99768">
        <ele>148.5</ele>
        <time>2017-08-07T09:52:58Z</time>
      </trkpt>
      <trkpt lat="43.29683" lon="1.99753">
        <ele>149.300003</ele>
        <time>2017-08-07T09:53:01Z</time>
      </trkpt>
      <trkpt lat="43.29686" lon="1.99737">
        <ele>150</ele>
        <time>2017-08-07T09:53:04Z</time>
      </trkpt>
      <trkpt lat="43.2969" lon="1.9972">
        <ele>149.100006</ele>
        <time>2017-08-07T09:53:07Z</time>
      </trkpt>
      <trkpt lat="43.29694" lon="1.99704">
        <ele>148.699997</ele>
        <time>2017-08-07T09:53:10Z</time>
      </trkpt>
      <trkpt lat="43.29698" lon="1.99687">
        <ele>149</ele>
        <time>2017-08-07T09:53:13Z</time>
      </trkpt>
      <trkpt lat="43.29702" lon="1.9967">
        <ele>149</ele>
        <time>2017-08-07T09:53:16Z</time>
      </trkpt>
      <trkpt lat="43.29706" lon="1.99653">
        <ele>148.5</ele>
        <time>2017-08-07T09:53:19Z</time>
      </trkpt>
      <trkpt lat="43.29711" lon="1.99636">
        <ele>148.300003</ele>
        <time>2017-08-07T09:53:22Z</time>
      </trkpt>
      <trkpt lat="43.29715" lon="1.99619">
        <ele>148.100006</ele>
        <time>2017-08-07T09:53:25Z</time>
      </trkpt>
      <trkpt lat="43.29718" lon="1.99607">
        <ele>148</ele>
        <time>2017-08-07T09:53:27Z</time>
      </trkpt>
      <trkpt lat="43.29721" lon="1.99595">
        <ele>148.100006</ele>
        <time>2017-08-07T09:53:29Z</time>
      </trkpt>
      <trkpt lat="43.29725" lon="1.99578">
        <ele>147.5</ele>
        <time>2017-08-07T09:53:32Z</time>
      </trkpt>
      <trkpt lat="43.2973" lon="1.99563">
        <ele>147</ele>
        <time>2017-08-07T09:53:35Z</time>
      </trkpt>
      <trkpt lat="43.29734" lon="1.99547">
        <ele>146.300003</ele>
        <time>2017-08-07T09:53:38Z</time>
      </trkpt>
      <trkpt lat="43.29738" lon="1.99532">
        <ele>145.300003</ele>
        <time>2017-08-07T09:53:41Z</time>
      </trkpt>
      <trkpt lat="43.29742" lon="1.99518">
        <ele>144.399994</ele>
        <time>2017-08-07T09:53:44Z</time>
      </trkpt>
      <trkpt lat="43.29745" lon="1.99506">
        <ele>144</ele>
        <time>2017-08-07T09:53:47Z</time>
      </trkpt>
      <trkpt lat="43.29748" lon="1.9949">
        <ele>143.899994</ele>
        <time>2017-08-07T09:53:51Z</time>
      </trkpt>
      <trkpt lat="43.2975" lon="1.99478">
        <ele>144.300003</ele>
        <time>2017-08-07T09:53:57Z</time>
      </trkpt>
      <trkpt lat="43.29753" lon="1.99466">
        <ele>145</ele>
        <time>2017-08-07T09:54:02Z</time>
      </trkpt>
      <trkpt lat="43.29754" lon="1.99452">
        <ele>145.5</ele>
        <time>2017-08-07T09:54:08Z</time>
      </trkpt>
      <trkpt lat="43.29758" lon="1.99438">
        <ele>146</ele>
        <time>2017-08-07T09:54:13Z</time>
      </trkpt>
      <trkpt lat="43.29762" lon="1.99424">
        <ele>146.300003</ele>
        <time>2017-08-07T09:54:18Z</time>
      </trkpt>
      <trkpt lat="43.29764" lon="1.99409">
        <ele>146.800003</ele>
        <time>2017-08-07T09:54:23Z</time>
      </trkpt>
      <trkpt lat="43.29766" lon="1.99396">
        <ele>147.199997</ele>
        <time>2017-08-07T09:54:28Z</time>
      </trkpt>
      <trkpt lat="43.2977" lon="1.99383">
        <ele>147.899994</ele>
        <time>2017-08-07T09:54:34Z</time>
      </trkpt>
      <trkpt lat="43.29774" lon="1.99372">
        <ele>148.899994</ele>
        <time>2017-08-07T09:54:39Z</time>
      </trkpt>
      <trkpt lat="43.29778" lon="1.99358">
        <ele>150.399994</ele>
        <time>2017-08-07T09:54:44Z</time>
      </trkpt>
      <trkpt lat="43.29785" lon="1.99348">
        <ele>151.399994</ele>
        <time>2017-08-07T09:54:48Z</time>
      </trkpt>
      <trkpt lat="43.29788" lon="1.99333">
        <ele>152</ele>
        <time>2017-08-07T09:54:52Z</time>
      </trkpt>
      <trkpt lat="43.29791" lon="1.99319">
        <ele>152.800003</ele>
        <time>2017-08-07T09:54:55Z</time>
      </trkpt>
      <trkpt lat="43.29794" lon="1.99305">
        <ele>152.600006</ele>
        <time>2017-08-07T09:54:58Z</time>
      </trkpt>
      <trkpt lat="43.29798" lon="1.99291">
        <ele>152.600006</ele>
        <time>2017-08-07T09:55:01Z</time>
      </trkpt>
      <trkpt lat="43.29801" lon="1.99276">
        <ele>153</ele>
        <time>2017-08-07T09:55:04Z</time>
      </trkpt>
      <trkpt lat="43.29805" lon="1.99261">
        <ele>153.399994</ele>
        <time>2017-08-07T09:55:07Z</time>
      </trkpt>
      <trkpt lat="43.2981" lon="1.99246">
        <ele>153.600006</ele>
        <time>2017-08-07T09:55:10Z</time>
      </trkpt>
      <trkpt lat="43.29815" lon="1.99231">
        <ele>153.300003</ele>
        <time>2017-08-07T09:55:13Z</time>
      </trkpt>
      <trkpt lat="43.29821" lon="1.99218">
        <ele>152.300003</ele>
        <time>2017-08-07T09:55:16Z</time>
      </trkpt>
      <trkpt lat="43.29828" lon="1.99204">
        <ele>152.199997</ele>
        <time>2017-08-07T09:55:19Z</time>
      </trkpt>
      <trkpt lat="43.29834" lon="1.9919">
        <ele>152.199997</ele>
        <time>2017-08-07T09:55:22Z</time>
      </trkpt>
      <trkpt lat="43.29839" lon="1.99176">
        <ele>151.899994</ele>
        <time>2017-08-07T09:55:25Z</time>
      </trkpt>
      <trkpt lat="43.29844" lon="1.99163">
        <ele>151.600006</ele>
        <time>2017-08-07T09:55:28Z</time>
      </trkpt>
      <trkpt lat="43.29849" lon="1.99149">
        <ele>151.5</ele>
        <time>2017-08-07T09:55:31Z</time>
      </trkpt>
      <trkpt lat="43.29854" lon="1.99135">
        <ele>152.600006</ele>
        <time>2017-08-07T09:55:34Z</time>
      </trkpt>
      <trkpt lat="43.29859" lon="1.9912">
        <ele>153.899994</ele>
        <time>2017-08-07T09:55:37Z</time>
      </trkpt>
      <trkpt lat="43.29862" lon="1.99104">
        <ele>155.199997</ele>
        <time>2017-08-07T09:55:40Z</time>
      </trkpt>
      <trkpt lat="43.29863" lon="1.99088">
        <ele>156.199997</ele>
        <time>2017-08-07T09:55:43Z</time>
      </trkpt>
      <trkpt lat="43.29865" lon="1.99074">
        <ele>156.699997</ele>
        <time>2017-08-07T09:55:46Z</time>
      </trkpt>
      <trkpt lat="43.29865" lon="1.9906">
        <ele>156.899994</ele>
        <time>2017-08-07T09:55:49Z</time>
      </trkpt>
      <trkpt lat="43.29866" lon="1.99048">
        <ele>157</ele>
        <time>2017-08-07T09:55:51Z</time>
      </trkpt>
      <trkpt lat="43.2987" lon="1.99032">
        <ele>157.5</ele>
        <time>2017-08-07T09:55:54Z</time>
      </trkpt>
      <trkpt lat="43.2987" lon="1.99019">
        <ele>157.199997</ele>
        <time>2017-08-07T09:55:56Z</time>
      </trkpt>
      <trkpt lat="43.29868" lon="1.99004">
        <ele>156.5</ele>
        <time>2017-08-07T09:55:59Z</time>
      </trkpt>
      <trkpt lat="43.29871" lon="1.98987">
        <ele>156.300003</ele>
        <time>2017-08-07T09:56:02Z</time>
      </trkpt>
      <trkpt lat="43.29873" lon="1.9897">
        <ele>155.100006</ele>
        <time>2017-08-07T09:56:05Z</time>
      </trkpt>
      <trkpt lat="43.29877" lon="1.98956">
        <ele>154.199997</ele>
        <time>2017-08-07T09:56:08Z</time>
      </trkpt>
      <trkpt lat="43.29881" lon="1.98945">
        <ele>153.800003</ele>
        <time>2017-08-07T09:56:11Z</time>
      </trkpt>
      <trkpt lat="43.29889" lon="1.98931">
        <ele>154</ele>
        <time>2017-08-07T09:56:14Z</time>
      </trkpt>
      <trkpt lat="43.29895" lon="1.98921">
        <ele>154.300003</ele>
        <time>2017-08-07T09:56:16Z</time>
      </trkpt>
      <trkpt lat="43.29901" lon="1.98911">
        <ele>154.399994</ele>
        <time>2017-08-07T09:56:18Z</time>
      </trkpt>
      <trkpt lat="43.29907" lon="1.98899">
        <ele>154.300003</ele>
        <time>2017-08-07T09:56:20Z</time>
      </trkpt>
      <trkpt lat="43.29913" lon="1.98887">
        <ele>154.100006</ele>
        <time>2017-08-07T09:56:23Z</time>
      </trkpt>
      <trkpt lat="43.29921" lon="1.98873">
        <ele>154.100006</ele>
        <time>2017-08-07T09:56:26Z</time>
      </trkpt>
      <trkpt lat="43.29927" lon="1.98863">
        <ele>154.399994</ele>
        <time>2017-08-07T09:56:28Z</time>
      </trkpt>
      <trkpt lat="43.29934" lon="1.98852">
        <ele>154.800003</ele>
        <time>2017-08-07T09:56:31Z</time>
      </trkpt>
      <trkpt lat="43.29939" lon="1.98841">
        <ele>154.699997</ele>
        <time>2017-08-07T09:56:33Z</time>
      </trkpt>
      <trkpt lat="43.29947" lon="1.98831">
        <ele>154.5</ele>
        <time>2017-08-07T09:56:36Z</time>
      </trkpt>
      <trkpt lat="43.29953" lon="1.98822">
        <ele>154.5</ele>
        <time>2017-08-07T09:56:38Z</time>
      </trkpt>
      <trkpt lat="43.29962" lon="1.98807">
        <ele>153.800003</ele>
        <time>2017-08-07T09:56:41Z</time>
      </trkpt>
      <trkpt lat="43.29969" lon="1.98799">
        <ele>153.600006</ele>
        <time>2017-08-07T09:56:44Z</time>
      </trkpt>
      <trkpt lat="43.29978" lon="1.98791">
        <ele>153.699997</ele>
        <time>2017-08-07T09:56:47Z</time>
      </trkpt>
      <trkpt lat="43.29984" lon="1.98782">
        <ele>153.399994</ele>
        <time>2017-08-07T09:56:49Z</time>
      </trkpt>
      <trkpt lat="43.29991" lon="1.98775">
        <ele>153.699997</ele>
        <time>2017-08-07T09:56:51Z</time>
      </trkpt>
      <trkpt lat="43.29997" lon="1.98765">
        <ele>153.600006</ele>
        <time>2017-08-07T09:56:53Z</time>
      </trkpt>
      <trkpt lat="43.30004" lon="1.9875">
        <ele>152.699997</ele>
        <time>2017-08-07T09:56:56Z</time>
      </trkpt>
      <trkpt lat="43.30012" lon="1.98737">
        <ele>151.300003</ele>
        <time>2017-08-07T09:56:59Z</time>
      </trkpt>
      <trkpt lat="43.30019" lon="1.98726">
        <ele>151.100006</ele>
        <time>2017-08-07T09:57:01Z</time>
      </trkpt>
      <trkpt lat="43.30026" lon="1.98712">
        <ele>150.899994</ele>
        <time>2017-08-07T09:57:04Z</time>
      </trkpt>
      <trkpt lat="43.30035" lon="1.98699">
        <ele>149.800003</ele>
        <time>2017-08-07T09:57:07Z</time>
      </trkpt>
      <trkpt lat="43.3004" lon="1.98689">
        <ele>148.199997</ele>
        <time>2017-08-07T09:57:09Z</time>
      </trkpt>
      <trkpt lat="43.30046" lon="1.98679">
        <ele>147.399994</ele>
        <time>2017-08-07T09:57:11Z</time>
      </trkpt>
      <trkpt lat="43.30054" lon="1.98666">
        <ele>148.899994</ele>
        <time>2017-08-07T09:57:14Z</time>
      </trkpt>
      <trkpt lat="43.30061" lon="1.98655">
        <ele>149.600006</ele>
        <time>2017-08-07T09:57:16Z</time>
      </trkpt>
      <trkpt lat="43.30069" lon="1.98642">
        <ele>150.300003</ele>
        <time>2017-08-07T09:57:19Z</time>
      </trkpt>
      <trkpt lat="43.30076" lon="1.9863">
        <ele>151.800003</ele>
        <time>2017-08-07T09:57:22Z</time>
      </trkpt>
      <trkpt lat="43.30083" lon="1.98618">
        <ele>153</ele>
        <time>2017-08-07T09:57:24Z</time>
      </trkpt>
      <trkpt lat="43.30088" lon="1.98603">
        <ele>154.100006</ele>
        <time>2017-08-07T09:57:27Z</time>
      </trkpt>
      <trkpt lat="43.30094" lon="1.98591">
        <ele>154.899994</ele>
        <time>2017-08-07T09:57:29Z</time>
      </trkpt>
      <trkpt lat="43.30099" lon="1.98579">
        <ele>155.5</ele>
        <time>2017-08-07T09:57:31Z</time>
      </trkpt>
      <trkpt lat="43.30104" lon="1.98562">
        <ele>155.5</ele>
        <time>2017-08-07T09:57:34Z</time>
      </trkpt>
      <trkpt lat="43.3011" lon="1.9855">
        <ele>155.899994</ele>
        <time>2017-08-07T09:57:37Z</time>
      </trkpt>
      <trkpt lat="43.30116" lon="1.98538">
        <ele>156.399994</ele>
        <time>2017-08-07T09:57:40Z</time>
      </trkpt>
      <trkpt lat="43.30119" lon="1.98526">
        <ele>156.399994</ele>
        <time>2017-08-07T09:57:42Z</time>
      </trkpt>
      <trkpt lat="43.30122" lon="1.98515">
        <ele>156.5</ele>
        <time>2017-08-07T09:57:44Z</time>
      </trkpt>
      <trkpt lat="43.30127" lon="1.98501">
        <ele>156.399994</ele>
        <time>2017-08-07T09:57:46Z</time>
      </trkpt>
      <trkpt lat="43.3013" lon="1.98488">
        <ele>155.899994</ele>
        <time>2017-08-07T09:57:49Z</time>
      </trkpt>
      <trkpt lat="43.30135" lon="1.98478">
        <ele>156.199997</ele>
        <time>2017-08-07T09:57:51Z</time>
      </trkpt>
      <trkpt lat="43.30141" lon="1.98464">
        <ele>156.899994</ele>
        <time>2017-08-07T09:57:54Z</time>
      </trkpt>
      <trkpt lat="43.30147" lon="1.98451">
        <ele>157.300003</ele>
        <time>2017-08-07T09:57:57Z</time>
      </trkpt>
      <trkpt lat="43.30153" lon="1.98435">
        <ele>157.300003</ele>
        <time>2017-08-07T09:58:00Z</time>
      </trkpt>
      <trkpt lat="43.30159" lon="1.98423">
        <ele>156.600006</ele>
        <time>2017-08-07T09:58:02Z</time>
      </trkpt>
      <trkpt lat="43.30168" lon="1.98411">
        <ele>156</ele>
        <time>2017-08-07T09:58:05Z</time>
      </trkpt>
      <trkpt lat="43.30178" lon="1.984">
        <ele>157</ele>
        <time>2017-08-07T09:58:08Z</time>
      </trkpt>
      <trkpt lat="43.30187" lon="1.98386">
        <ele>157.800003</ele>
        <time>2017-08-07T09:58:11Z</time>
      </trkpt>
      <trkpt lat="43.30195" lon="1.98372">
        <ele>158.300003</ele>
        <time>2017-08-07T09:58:14Z</time>
      </trkpt>
      <trkpt lat="43.30203" lon="1.98356">
        <ele>158.699997</ele>
        <time>2017-08-07T09:58:17Z</time>
      </trkpt>
      <trkpt lat="43.30212" lon="1.98341">
        <ele>159.100006</ele>
        <time>2017-08-07T09:58:20Z</time>
      </trkpt>
      <trkpt lat="43.30221" lon="1.98327">
        <ele>160</ele>
        <time>2017-08-07T09:58:23Z</time>
      </trkpt>
      <trkpt lat="43.30227" lon="1.98317">
        <ele>160.800003</ele>
        <time>2017-08-07T09:58:25Z</time>
      </trkpt>
      <trkpt lat="43.30234" lon="1.98308">
        <ele>161.300003</ele>
        <time>2017-08-07T09:58:28Z</time>
      </trkpt>
      <trkpt lat="43.30241" lon="1.98297">
        <ele>161</ele>
        <time>2017-08-07T09:58:31Z</time>
      </trkpt>
      <trkpt lat="43.30248" lon="1.98285">
        <ele>160.699997</ele>
        <time>2017-08-07T09:58:33Z</time>
      </trkpt>
      <trkpt lat="43.30256" lon="1.98273">
        <ele>160.5</ele>
        <time>2017-08-07T09:58:36Z</time>
      </trkpt>
      <trkpt lat="43.30262" lon="1.98263">
        <ele>160.100006</ele>
        <time>2017-08-07T09:58:38Z</time>
      </trkpt>
      <trkpt lat="43.30268" lon="1.98251">
        <ele>161.300003</ele>
        <time>2017-08-07T09:58:40Z</time>
      </trkpt>
      <trkpt lat="43.30276" lon="1.9824">
        <ele>163.699997</ele>
        <time>2017-08-07T09:58:43Z</time>
      </trkpt>
      <trkpt lat="43.30284" lon="1.98227">
        <ele>163.600006</ele>
        <time>2017-08-07T09:58:46Z</time>
      </trkpt>
      <trkpt lat="43.30291" lon="1.98214">
        <ele>162.600006</ele>
        <time>2017-08-07T09:58:49Z</time>
      </trkpt>
      <trkpt lat="43.30299" lon="1.98203">
        <ele>160.800003</ele>
        <time>2017-08-07T09:58:52Z</time>
      </trkpt>
      <trkpt lat="43.30305" lon="1.98193">
        <ele>159.600006</ele>
        <time>2017-08-07T09:58:54Z</time>
      </trkpt>
      <trkpt lat="43.3031" lon="1.98182">
        <ele>158.100006</ele>
        <time>2017-08-07T09:58:56Z</time>
      </trkpt>
      <trkpt lat="43.30319" lon="1.98171">
        <ele>158.399994</ele>
        <time>2017-08-07T09:58:59Z</time>
      </trkpt>
      <trkpt lat="43.30326" lon="1.98161">
        <ele>158.5</ele>
        <time>2017-08-07T09:59:01Z</time>
      </trkpt>
      <trkpt lat="43.30333" lon="1.98151">
        <ele>158.399994</ele>
        <time>2017-08-07T09:59:03Z</time>
      </trkpt>
      <trkpt lat="43.30341" lon="1.98136">
        <ele>158.199997</ele>
        <time>2017-08-07T09:59:06Z</time>
      </trkpt>
      <trkpt lat="43.30348" lon="1.98128">
        <ele>158.100006</ele>
        <time>2017-08-07T09:59:08Z</time>
      </trkpt>
      <trkpt lat="43.30355" lon="1.98114">
        <ele>157.899994</ele>
        <time>2017-08-07T09:59:11Z</time>
      </trkpt>
      <trkpt lat="43.30363" lon="1.981">
        <ele>157.899994</ele>
        <time>2017-08-07T09:59:14Z</time>
      </trkpt>
      <trkpt lat="43.30372" lon="1.98085">
        <ele>158.100006</ele>
        <time>2017-08-07T09:59:17Z</time>
      </trkpt>
      <trkpt lat="43.3038" lon="1.98072">
        <ele>158.899994</ele>
        <time>2017-08-07T09:59:20Z</time>
      </trkpt>
      <trkpt lat="43.30389" lon="1.9806">
        <ele>159.699997</ele>
        <time>2017-08-07T09:59:23Z</time>
      </trkpt>
      <trkpt lat="43.30398" lon="1.98047">
        <ele>159.899994</ele>
        <time>2017-08-07T09:59:26Z</time>
      </trkpt>
      <trkpt lat="43.30406" lon="1.98033">
        <ele>159.399994</ele>
        <time>2017-08-07T09:59:29Z</time>
      </trkpt>
      <trkpt lat="43.30412" lon="1.98023">
        <ele>158.899994</ele>
        <time>2017-08-07T09:59:31Z</time>
      </trkpt>
      <trkpt lat="43.30421" lon="1.9801">
        <ele>158.800003</ele>
        <time>2017-08-07T09:59:34Z</time>
      </trkpt>
      <trkpt lat="43.3043" lon="1.97996">
        <ele>159.699997</ele>
        <time>2017-08-07T09:59:37Z</time>
      </trkpt>
      <trkpt lat="43.30438" lon="1.97982">
        <ele>160.800003</ele>
        <time>2017-08-07T09:59:40Z</time>
      </trkpt>
      <trkpt lat="43.30444" lon="1.97967">
        <ele>161.199997</ele>
        <time>2017-08-07T09:59:43Z</time>
      </trkpt>
      <trkpt lat="43.30451" lon="1.97953">
        <ele>161.600006</ele>
        <time>2017-08-07T09:59:46Z</time>
      </trkpt>
      <trkpt lat="43.30457" lon="1.97938">
        <ele>161.5</ele>
        <time>2017-08-07T09:59:49Z</time>
      </trkpt>
      <trkpt lat="43.30465" lon="1.97924">
        <ele>160.399994</ele>
        <time>2017-08-07T09:59:52Z</time>
      </trkpt>
      <trkpt lat="43.30471" lon="1.97908">
        <ele>158.800003</ele>
        <time>2017-08-07T09:59:55Z</time>
      </trkpt>
      <trkpt lat="43.30478" lon="1.97896">
        <ele>157</ele>
        <time>2017-08-07T09:59:58Z</time>
      </trkpt>
      <trkpt lat="43.30484" lon="1.97887">
        <ele>155.5</ele>
        <time>2017-08-07T10:00:01Z</time>
      </trkpt>
      <trkpt lat="43.3049" lon="1.97875">
        <ele>154.199997</ele>
        <time>2017-08-07T10:00:04Z</time>
      </trkpt>
      <trkpt lat="43.30495" lon="1.97863">
        <ele>153.199997</ele>
        <time>2017-08-07T10:00:07Z</time>
      </trkpt>
      <trkpt lat="43.30501" lon="1.9785">
        <ele>152.399994</ele>
        <time>2017-08-07T10:00:11Z</time>
      </trkpt>
      <trkpt lat="43.30505" lon="1.97839">
        <ele>151.800003</ele>
        <time>2017-08-07T10:00:14Z</time>
      </trkpt>
      <trkpt lat="43.30511" lon="1.97827">
        <ele>151.399994</ele>
        <time>2017-08-07T10:00:17Z</time>
      </trkpt>
      <trkpt lat="43.30517" lon="1.97817">
        <ele>151.300003</ele>
        <time>2017-08-07T10:00:20Z</time>
      </trkpt>
      <trkpt lat="43.30523" lon="1.97803">
        <ele>152</ele>
        <time>2017-08-07T10:00:24Z</time>
      </trkpt>
      <trkpt lat="43.30528" lon="1.97791">
        <ele>152.5</ele>
        <time>2017-08-07T10:00:28Z</time>
      </trkpt>
      <trkpt lat="43.30535" lon="1.9778">
        <ele>153</ele>
        <time>2017-08-07T10:00:32Z</time>
      </trkpt>
      <trkpt lat="43.30541" lon="1.97768">
        <ele>153.800003</ele>
        <time>2017-08-07T10:00:36Z</time>
      </trkpt>
      <trkpt lat="43.30545" lon="1.97757">
        <ele>154.100006</ele>
        <time>2017-08-07T10:00:41Z</time>
      </trkpt>
      <trkpt lat="43.30547" lon="1.97744">
        <ele>153.899994</ele>
        <time>2017-08-07T10:00:48Z</time>
      </trkpt>
      <trkpt lat="43.30553" lon="1.97735">
        <ele>154.600006</ele>
        <time>2017-08-07T10:00:55Z</time>
      </trkpt>
      <trkpt lat="43.30549" lon="1.97747">
        <ele>154.300003</ele>
        <time>2017-08-07T10:01:05Z</time>
      </trkpt>
      <trkpt lat="43.30554" lon="1.97736">
        <ele>154.699997</ele>
        <time>2017-08-07T10:03:23Z</time>
      </trkpt>
      <trkpt lat="43.30562" lon="1.97724">
        <ele>155.899994</ele>
        <time>2017-08-07T10:03:27Z</time>
      </trkpt>
      <trkpt lat="43.30568" lon="1.97714">
        <ele>156.800003</ele>
        <time>2017-08-07T10:03:30Z</time>
      </trkpt>
      <trkpt lat="43.30574" lon="1.97703">
        <ele>157.600006</ele>
        <time>2017-08-07T10:03:33Z</time>
      </trkpt>
      <trkpt lat="43.3058" lon="1.9769">
        <ele>158.399994</ele>
        <time>2017-08-07T10:03:36Z</time>
      </trkpt>
      <trkpt lat="43.30586" lon="1.97676">
        <ele>159.100006</ele>
        <time>2017-08-07T10:03:39Z</time>
      </trkpt>
      <trkpt lat="43.30592" lon="1.97662">
        <ele>159.5</ele>
        <time>2017-08-07T10:03:42Z</time>
      </trkpt>
      <trkpt lat="43.30597" lon="1.97647">
        <ele>159.800003</ele>
        <time>2017-08-07T10:03:45Z</time>
      </trkpt>
      <trkpt lat="43.30603" lon="1.97632">
        <ele>160.100006</ele>
        <time>2017-08-07T10:03:48Z</time>
      </trkpt>
      <trkpt lat="43.3061" lon="1.97617">
        <ele>160.199997</ele>
        <time>2017-08-07T10:03:51Z</time>
      </trkpt>
      <trkpt lat="43.30614" lon="1.97606">
        <ele>160</ele>
        <time>2017-08-07T10:03:53Z</time>
      </trkpt>
      <trkpt lat="43.3062" lon="1.9759">
        <ele>159.800003</ele>
        <time>2017-08-07T10:03:56Z</time>
      </trkpt>
      <trkpt lat="43.30627" lon="1.97576">
        <ele>159.699997</ele>
        <time>2017-08-07T10:03:59Z</time>
      </trkpt>
      <trkpt lat="43.30632" lon="1.97565">
        <ele>160.100006</ele>
        <time>2017-08-07T10:04:01Z</time>
      </trkpt>
      <trkpt lat="43.30639" lon="1.9755">
        <ele>161</ele>
        <time>2017-08-07T10:04:04Z</time>
      </trkpt>
      <trkpt lat="43.30645" lon="1.97537">
        <ele>161.699997</ele>
        <time>2017-08-07T10:04:07Z</time>
      </trkpt>
      <trkpt lat="43.30651" lon="1.97525">
        <ele>161.399994</ele>
        <time>2017-08-07T10:04:10Z</time>
      </trkpt>
      <trkpt lat="43.30655" lon="1.97514">
        <ele>160.300003</ele>
        <time>2017-08-07T10:04:12Z</time>
      </trkpt>
      <trkpt lat="43.30662" lon="1.97498">
        <ele>158.600006</ele>
        <time>2017-08-07T10:04:15Z</time>
      </trkpt>
      <trkpt lat="43.30667" lon="1.97487">
        <ele>157.800003</ele>
        <time>2017-08-07T10:04:17Z</time>
      </trkpt>
      <trkpt lat="43.30674" lon="1.97477">
        <ele>157.5</ele>
        <time>2017-08-07T10:04:19Z</time>
      </trkpt>
      <trkpt lat="43.3068" lon="1.97468">
        <ele>157.600006</ele>
        <time>2017-08-07T10:04:21Z</time>
      </trkpt>
      <trkpt lat="43.30686" lon="1.97455">
        <ele>157.800003</ele>
        <time>2017-08-07T10:04:23Z</time>
      </trkpt>
      <trkpt lat="43.30692" lon="1.97444">
        <ele>158.100006</ele>
        <time>2017-08-07T10:04:25Z</time>
      </trkpt>
      <trkpt lat="43.30699" lon="1.97432">
        <ele>159</ele>
        <time>2017-08-07T10:04:28Z</time>
      </trkpt>
      <trkpt lat="43.30707" lon="1.97417">
        <ele>159.699997</ele>
        <time>2017-08-07T10:04:31Z</time>
      </trkpt>
      <trkpt lat="43.30714" lon="1.97403">
        <ele>159.899994</ele>
        <time>2017-08-07T10:04:34Z</time>
      </trkpt>
      <trkpt lat="43.3072" lon="1.97393">
        <ele>160</ele>
        <time>2017-08-07T10:04:36Z</time>
      </trkpt>
      <trkpt lat="43.30725" lon="1.97383">
        <ele>160.300003</ele>
        <time>2017-08-07T10:04:38Z</time>
      </trkpt>
      <trkpt lat="43.3073" lon="1.97369">
        <ele>160.899994</ele>
        <time>2017-08-07T10:04:41Z</time>
      </trkpt>
      <trkpt lat="43.30734" lon="1.97355">
        <ele>161.5</ele>
        <time>2017-08-07T10:04:43Z</time>
      </trkpt>
      <trkpt lat="43.30736" lon="1.97341">
        <ele>161.800003</ele>
        <time>2017-08-07T10:04:45Z</time>
      </trkpt>
      <trkpt lat="43.30741" lon="1.97325">
        <ele>161.699997</ele>
        <time>2017-08-07T10:04:47Z</time>
      </trkpt>
      <trkpt lat="43.30746" lon="1.97307">
        <ele>162.399994</ele>
        <time>2017-08-07T10:04:49Z</time>
      </trkpt>
      <trkpt lat="43.30749" lon="1.97295">
        <ele>163.199997</ele>
        <time>2017-08-07T10:04:51Z</time>
      </trkpt>
      <trkpt lat="43.30753" lon="1.97274">
        <ele>164.100006</ele>
        <time>2017-08-07T10:04:54Z</time>
      </trkpt>
      <trkpt lat="43.30752" lon="1.9726">
        <ele>164.399994</ele>
        <time>2017-08-07T10:04:56Z</time>
      </trkpt>
      <trkpt lat="43.30756" lon="1.97246">
        <ele>164.100006</ele>
        <time>2017-08-07T10:05:00Z</time>
      </trkpt>
      <trkpt lat="43.30758" lon="1.97228">
        <ele>163.5</ele>
        <time>2017-08-07T10:05:03Z</time>
      </trkpt>
      <trkpt lat="43.3076" lon="1.97213">
        <ele>162.899994</ele>
        <time>2017-08-07T10:05:06Z</time>
      </trkpt>
      <trkpt lat="43.30765" lon="1.97191">
        <ele>163</ele>
        <time>2017-08-07T10:05:09Z</time>
      </trkpt>
      <trkpt lat="43.30768" lon="1.97178">
        <ele>163.100006</ele>
        <time>2017-08-07T10:05:11Z</time>
      </trkpt>
      <trkpt lat="43.30773" lon="1.97162">
        <ele>162.800003</ele>
        <time>2017-08-07T10:05:13Z</time>
      </trkpt>
      <trkpt lat="43.30776" lon="1.97147">
        <ele>162.600006</ele>
        <time>2017-08-07T10:05:15Z</time>
      </trkpt>
      <trkpt lat="43.30781" lon="1.97133">
        <ele>162.600006</ele>
        <time>2017-08-07T10:05:18Z</time>
      </trkpt>
      <trkpt lat="43.30786" lon="1.97116">
        <ele>162.699997</ele>
        <time>2017-08-07T10:05:21Z</time>
      </trkpt>
      <trkpt lat="43.30789" lon="1.97104">
        <ele>162.300003</ele>
        <time>2017-08-07T10:05:23Z</time>
      </trkpt>
      <trkpt lat="43.30794" lon="1.97087">
        <ele>161.600006</ele>
        <time>2017-08-07T10:05:26Z</time>
      </trkpt>
      <trkpt lat="43.30796" lon="1.97073">
        <ele>161</ele>
        <time>2017-08-07T10:05:28Z</time>
      </trkpt>
      <trkpt lat="43.308" lon="1.9706">
        <ele>161</ele>
        <time>2017-08-07T10:05:30Z</time>
      </trkpt>
      <trkpt lat="43.30802" lon="1.97048">
        <ele>161.199997</ele>
        <time>2017-08-07T10:05:32Z</time>
      </trkpt>
      <trkpt lat="43.30806" lon="1.97036">
        <ele>161.5</ele>
        <time>2017-08-07T10:05:34Z</time>
      </trkpt>
      <trkpt lat="43.30811" lon="1.97023">
        <ele>162</ele>
        <time>2017-08-07T10:05:36Z</time>
      </trkpt>
      <trkpt lat="43.30814" lon="1.97005">
        <ele>162.199997</ele>
        <time>2017-08-07T10:05:39Z</time>
      </trkpt>
      <trkpt lat="43.30818" lon="1.9699">
        <ele>162</ele>
        <time>2017-08-07T10:05:42Z</time>
      </trkpt>
      <trkpt lat="43.30825" lon="1.96972">
        <ele>162.800003</ele>
        <time>2017-08-07T10:05:45Z</time>
      </trkpt>
      <trkpt lat="43.30832" lon="1.96955">
        <ele>163.199997</ele>
        <time>2017-08-07T10:05:48Z</time>
      </trkpt>
      <trkpt lat="43.30834" lon="1.96943">
        <ele>162.300003</ele>
        <time>2017-08-07T10:05:50Z</time>
      </trkpt>
      <trkpt lat="43.30838" lon="1.96929">
        <ele>161.300003</ele>
        <time>2017-08-07T10:05:52Z</time>
      </trkpt>
      <trkpt lat="43.30842" lon="1.96916">
        <ele>160.600006</ele>
        <time>2017-08-07T10:05:54Z</time>
      </trkpt>
      <trkpt lat="43.30846" lon="1.96905">
        <ele>160.100006</ele>
        <time>2017-08-07T10:05:56Z</time>
      </trkpt>
      <trkpt lat="43.30853" lon="1.96893">
        <ele>159.899994</ele>
        <time>2017-08-07T10:05:58Z</time>
      </trkpt>
      <trkpt lat="43.3086" lon="1.96885">
        <ele>160.100006</ele>
        <time>2017-08-07T10:06:00Z</time>
      </trkpt>
      <trkpt lat="43.30871" lon="1.96875">
        <ele>161.100006</ele>
        <time>2017-08-07T10:06:03Z</time>
      </trkpt>
      <trkpt lat="43.30879" lon="1.96868">
        <ele>161.399994</ele>
        <time>2017-08-07T10:06:05Z</time>
      </trkpt>
      <trkpt lat="43.30887" lon="1.96859">
        <ele>161.199997</ele>
        <time>2017-08-07T10:06:07Z</time>
      </trkpt>
      <trkpt lat="43.30893" lon="1.9685">
        <ele>161.100006</ele>
        <time>2017-08-07T10:06:09Z</time>
      </trkpt>
      <trkpt lat="43.309" lon="1.96841">
        <ele>161</ele>
        <time>2017-08-07T10:06:11Z</time>
      </trkpt>
      <trkpt lat="43.30907" lon="1.96834">
        <ele>160.800003</ele>
        <time>2017-08-07T10:06:13Z</time>
      </trkpt>
      <trkpt lat="43.30915" lon="1.96824">
        <ele>160.399994</ele>
        <time>2017-08-07T10:06:15Z</time>
      </trkpt>
      <trkpt lat="43.30923" lon="1.96816">
        <ele>159.800003</ele>
        <time>2017-08-07T10:06:17Z</time>
      </trkpt>
      <trkpt lat="43.3093" lon="1.96808">
        <ele>158.600006</ele>
        <time>2017-08-07T10:06:19Z</time>
      </trkpt>
      <trkpt lat="43.30939" lon="1.96799">
        <ele>157.600006</ele>
        <time>2017-08-07T10:06:21Z</time>
      </trkpt>
      <trkpt lat="43.30947" lon="1.96789">
        <ele>157.100006</ele>
        <time>2017-08-07T10:06:23Z</time>
      </trkpt>
      <trkpt lat="43.30955" lon="1.96779">
        <ele>157.100006</ele>
        <time>2017-08-07T10:06:25Z</time>
      </trkpt>
      <trkpt lat="43.30963" lon="1.96772">
        <ele>157.5</ele>
        <time>2017-08-07T10:06:27Z</time>
      </trkpt>
      <trkpt lat="43.30971" lon="1.96765">
        <ele>157.800003</ele>
        <time>2017-08-07T10:06:29Z</time>
      </trkpt>
      <trkpt lat="43.30979" lon="1.96755">
        <ele>158.600006</ele>
        <time>2017-08-07T10:06:31Z</time>
      </trkpt>
      <trkpt lat="43.30987" lon="1.96745">
        <ele>159.300003</ele>
        <time>2017-08-07T10:06:33Z</time>
      </trkpt>
      <trkpt lat="43.30994" lon="1.96736">
        <ele>159.600006</ele>
        <time>2017-08-07T10:06:35Z</time>
      </trkpt>
      <trkpt lat="43.31002" lon="1.96728">
        <ele>159.699997</ele>
        <time>2017-08-07T10:06:37Z</time>
      </trkpt>
      <trkpt lat="43.3101" lon="1.96718">
        <ele>159.899994</ele>
        <time>2017-08-07T10:06:39Z</time>
      </trkpt>
      <trkpt lat="43.31017" lon="1.9671">
        <ele>160.100006</ele>
        <time>2017-08-07T10:06:41Z</time>
      </trkpt>
      <trkpt lat="43.31024" lon="1.96701">
        <ele>159.699997</ele>
        <time>2017-08-07T10:06:43Z</time>
      </trkpt>
      <trkpt lat="43.31031" lon="1.96692">
        <ele>159.600006</ele>
        <time>2017-08-07T10:06:45Z</time>
      </trkpt>
      <trkpt lat="43.3104" lon="1.96683">
        <ele>159.800003</ele>
        <time>2017-08-07T10:06:47Z</time>
      </trkpt>
      <trkpt lat="43.31048" lon="1.96674">
        <ele>160</ele>
        <time>2017-08-07T10:06:49Z</time>
      </trkpt>
      <trkpt lat="43.31056" lon="1.96665">
        <ele>160.199997</ele>
        <time>2017-08-07T10:06:51Z</time>
      </trkpt>
      <trkpt lat="43.31064" lon="1.96655">
        <ele>160.600006</ele>
        <time>2017-08-07T10:06:53Z</time>
      </trkpt>
      <trkpt lat="43.31071" lon="1.96645">
        <ele>161</ele>
        <time>2017-08-07T10:06:55Z</time>
      </trkpt>
      <trkpt lat="43.31077" lon="1.96633">
        <ele>161.399994</ele>
        <time>2017-08-07T10:06:57Z</time>
      </trkpt>
      <trkpt lat="43.31082" lon="1.96621">
        <ele>161.800003</ele>
        <time>2017-08-07T10:06:59Z</time>
      </trkpt>
      <trkpt lat="43.31087" lon="1.9661">
        <ele>162</ele>
        <time>2017-08-07T10:07:01Z</time>
      </trkpt>
      <trkpt lat="43.3109" lon="1.96597">
        <ele>162.100006</ele>
        <time>2017-08-07T10:07:03Z</time>
      </trkpt>
      <trkpt lat="43.31093" lon="1.96583">
        <ele>161.300003</ele>
        <time>2017-08-07T10:07:05Z</time>
      </trkpt>
      <trkpt lat="43.31096" lon="1.96569">
        <ele>160.100006</ele>
        <time>2017-08-07T10:07:07Z</time>
      </trkpt>
      <trkpt lat="43.311" lon="1.96556">
        <ele>158.899994</ele>
        <time>2017-08-07T10:07:09Z</time>
      </trkpt>
      <trkpt lat="43.31105" lon="1.96542">
        <ele>158</ele>
        <time>2017-08-07T10:07:11Z</time>
      </trkpt>
      <trkpt lat="43.31108" lon="1.96528">
        <ele>157</ele>
        <time>2017-08-07T10:07:13Z</time>
      </trkpt>
      <trkpt lat="43.31112" lon="1.96515">
        <ele>156.399994</ele>
        <time>2017-08-07T10:07:15Z</time>
      </trkpt>
      <trkpt lat="43.31116" lon="1.96502">
        <ele>156.100006</ele>
        <time>2017-08-07T10:07:17Z</time>
      </trkpt>
      <trkpt lat="43.31119" lon="1.96489">
        <ele>156.100006</ele>
        <time>2017-08-07T10:07:19Z</time>
      </trkpt>
      <trkpt lat="43.31122" lon="1.96475">
        <ele>156.5</ele>
        <time>2017-08-07T10:07:21Z</time>
      </trkpt>
      <trkpt lat="43.31126" lon="1.96462">
        <ele>157</ele>
        <time>2017-08-07T10:07:23Z</time>
      </trkpt>
      <trkpt lat="43.3113" lon="1.96449">
        <ele>157.600006</ele>
        <time>2017-08-07T10:07:25Z</time>
      </trkpt>
      <trkpt lat="43.31133" lon="1.96435">
        <ele>158.5</ele>
        <time>2017-08-07T10:07:27Z</time>
      </trkpt>
      <trkpt lat="43.31136" lon="1.96423">
        <ele>159.600006</ele>
        <time>2017-08-07T10:07:29Z</time>
      </trkpt>
      <trkpt lat="43.31139" lon="1.9641">
        <ele>160.800003</ele>
        <time>2017-08-07T10:07:31Z</time>
      </trkpt>
      <trkpt lat="43.31142" lon="1.96397">
        <ele>161.899994</ele>
        <time>2017-08-07T10:07:33Z</time>
      </trkpt>
      <trkpt lat="43.31145" lon="1.96384">
        <ele>162.699997</ele>
        <time>2017-08-07T10:07:35Z</time>
      </trkpt>
      <trkpt lat="43.31147" lon="1.9637">
        <ele>163.100006</ele>
        <time>2017-08-07T10:07:37Z</time>
      </trkpt>
      <trkpt lat="43.31149" lon="1.96357">
        <ele>162.899994</ele>
        <time>2017-08-07T10:07:39Z</time>
      </trkpt>
      <trkpt lat="43.31151" lon="1.96345">
        <ele>162.600006</ele>
        <time>2017-08-07T10:07:41Z</time>
      </trkpt>
      <trkpt lat="43.31152" lon="1.96331">
        <ele>161.899994</ele>
        <time>2017-08-07T10:07:44Z</time>
      </trkpt>
      <trkpt lat="43.31157" lon="1.96319">
        <ele>161.699997</ele>
        <time>2017-08-07T10:08:53Z</time>
      </trkpt>
      <trkpt lat="43.3116" lon="1.96304">
        <ele>161.300003</ele>
        <time>2017-08-07T10:09:00Z</time>
      </trkpt>
      <trkpt lat="43.31166" lon="1.96289">
        <ele>161.199997</ele>
        <time>2017-08-07T10:09:04Z</time>
      </trkpt>
      <trkpt lat="43.31169" lon="1.96275">
        <ele>161.300003</ele>
        <time>2017-08-07T10:09:07Z</time>
      </trkpt>
      <trkpt lat="43.31171" lon="1.9626">
        <ele>161.199997</ele>
        <time>2017-08-07T10:09:10Z</time>
      </trkpt>
      <trkpt lat="43.31174" lon="1.96246">
        <ele>161.800003</ele>
        <time>2017-08-07T10:09:13Z</time>
      </trkpt>
      <trkpt lat="43.31176" lon="1.96231">
        <ele>163.100006</ele>
        <time>2017-08-07T10:09:16Z</time>
      </trkpt>
      <trkpt lat="43.31178" lon="1.96215">
        <ele>167.199997</ele>
        <time>2017-08-07T10:09:19Z</time>
      </trkpt>
      <trkpt lat="43.31181" lon="1.962">
        <ele>171.800003</ele>
        <time>2017-08-07T10:09:22Z</time>
      </trkpt>
      <trkpt lat="43.31184" lon="1.96185">
        <ele>176.100006</ele>
        <time>2017-08-07T10:09:25Z</time>
      </trkpt>
      <trkpt lat="43.31187" lon="1.96171">
        <ele>177.699997</ele>
        <time>2017-08-07T10:09:28Z</time>
      </trkpt>
      <trkpt lat="43.31188" lon="1.96157">
        <ele>177.199997</ele>
        <time>2017-08-07T10:09:31Z</time>
      </trkpt>
      <trkpt lat="43.31192" lon="1.96143">
        <ele>177.800003</ele>
        <time>2017-08-07T10:09:34Z</time>
      </trkpt>
      <trkpt lat="43.31195" lon="1.96129">
        <ele>179.5</ele>
        <time>2017-08-07T10:09:37Z</time>
      </trkpt>
      <trkpt lat="43.31197" lon="1.96116">
        <ele>180.199997</ele>
        <time>2017-08-07T10:09:40Z</time>
      </trkpt>
      <trkpt lat="43.31201" lon="1.96103">
        <ele>179.899994</ele>
        <time>2017-08-07T10:09:44Z</time>
      </trkpt>
      <trkpt lat="43.31206" lon="1.96089">
        <ele>178.100006</ele>
        <time>2017-08-07T10:09:49Z</time>
      </trkpt>
      <trkpt lat="43.31208" lon="1.96075">
        <ele>174.800003</ele>
        <time>2017-08-07T10:09:52Z</time>
      </trkpt>
      <trkpt lat="43.31212" lon="1.96062">
        <ele>171.600006</ele>
        <time>2017-08-07T10:09:55Z</time>
      </trkpt>
      <trkpt lat="43.31214" lon="1.96049">
        <ele>169</ele>
        <time>2017-08-07T10:09:59Z</time>
      </trkpt>
      <trkpt lat="43.31217" lon="1.96035">
        <ele>167.300003</ele>
        <time>2017-08-07T10:10:03Z</time>
      </trkpt>
      <trkpt lat="43.31222" lon="1.96022">
        <ele>166.5</ele>
        <time>2017-08-07T10:10:07Z</time>
      </trkpt>
      <trkpt lat="43.31227" lon="1.96008">
        <ele>166</ele>
        <time>2017-08-07T10:10:12Z</time>
      </trkpt>
      <trkpt lat="43.31217" lon="1.96014">
        <ele>165.600006</ele>
        <time>2017-08-07T10:10:21Z</time>
      </trkpt>
      <trkpt lat="43.31213" lon="1.96025">
        <ele>166.300003</ele>
        <time>2017-08-07T10:11:52Z</time>
      </trkpt>
      <trkpt lat="43.31214" lon="1.96012">
        <ele>165.399994</ele>
        <time>2017-08-07T10:15:07Z</time>
      </trkpt>
      <trkpt lat="43.31222" lon="1.96002">
        <ele>165.300003</ele>
        <time>2017-08-07T10:15:14Z</time>
      </trkpt>
      <trkpt lat="43.31228" lon="1.95991">
        <ele>165.100006</ele>
        <time>2017-08-07T10:15:19Z</time>
      </trkpt>
      <trkpt lat="43.31233" lon="1.95979">
        <ele>164.600006</ele>
        <time>2017-08-07T10:15:23Z</time>
      </trkpt>
      <trkpt lat="43.31237" lon="1.95967">
        <ele>164.399994</ele>
        <time>2017-08-07T10:15:27Z</time>
      </trkpt>
      <trkpt lat="43.31239" lon="1.95952">
        <ele>164.699997</ele>
        <time>2017-08-07T10:15:32Z</time>
      </trkpt>
      <trkpt lat="43.31241" lon="1.95939">
        <ele>165.100006</ele>
        <time>2017-08-07T10:15:36Z</time>
      </trkpt>
      <trkpt lat="43.3125" lon="1.95929">
        <ele>166.800003</ele>
        <time>2017-08-07T10:15:41Z</time>
      </trkpt>
      <trkpt lat="43.31259" lon="1.95928">
        <ele>168.899994</ele>
        <time>2017-08-07T10:15:44Z</time>
      </trkpt>
      <trkpt lat="43.3127" lon="1.95925">
        <ele>169.899994</ele>
        <time>2017-08-07T10:15:47Z</time>
      </trkpt>
      <trkpt lat="43.31282" lon="1.95924">
        <ele>169</ele>
        <time>2017-08-07T10:15:50Z</time>
      </trkpt>
      <trkpt lat="43.31294" lon="1.95922">
        <ele>167.800003</ele>
        <time>2017-08-07T10:15:53Z</time>
      </trkpt>
      <trkpt lat="43.31305" lon="1.9592">
        <ele>165.600006</ele>
        <time>2017-08-07T10:15:56Z</time>
      </trkpt>
      <trkpt lat="43.31318" lon="1.95916">
        <ele>162.699997</ele>
        <time>2017-08-07T10:15:59Z</time>
      </trkpt>
      <trkpt lat="43.3133" lon="1.95912">
        <ele>162.899994</ele>
        <time>2017-08-07T10:16:02Z</time>
      </trkpt>
      <trkpt lat="43.31343" lon="1.95909">
        <ele>164.800003</ele>
        <time>2017-08-07T10:16:05Z</time>
      </trkpt>
      <trkpt lat="43.31355" lon="1.95904">
        <ele>166</ele>
        <time>2017-08-07T10:16:08Z</time>
      </trkpt>
      <trkpt lat="43.31366" lon="1.95902">
        <ele>165.899994</ele>
        <time>2017-08-07T10:16:11Z</time>
      </trkpt>
      <trkpt lat="43.31375" lon="1.95901">
        <ele>165.800003</ele>
        <time>2017-08-07T10:16:17Z</time>
      </trkpt>
      <trkpt lat="43.31384" lon="1.959">
        <ele>166</ele>
        <time>2017-08-07T10:17:00Z</time>
      </trkpt>
      <trkpt lat="43.31393" lon="1.95896">
        <ele>166</ele>
        <time>2017-08-07T10:17:03Z</time>
      </trkpt>
      <trkpt lat="43.31403" lon="1.95888">
        <ele>166</ele>
        <time>2017-08-07T10:17:06Z</time>
      </trkpt>
      <trkpt lat="43.31412" lon="1.95881">
        <ele>165.800003</ele>
        <time>2017-08-07T10:17:08Z</time>
      </trkpt>
      <trkpt lat="43.31424" lon="1.95873">
        <ele>165.5</ele>
        <time>2017-08-07T10:17:11Z</time>
      </trkpt>
      <trkpt lat="43.31436" lon="1.95866">
        <ele>165.199997</ele>
        <time>2017-08-07T10:17:14Z</time>
      </trkpt>
      <trkpt lat="43.31446" lon="1.9586">
        <ele>165.300003</ele>
        <time>2017-08-07T10:17:16Z</time>
      </trkpt>
      <trkpt lat="43.31454" lon="1.95853">
        <ele>165.199997</ele>
        <time>2017-08-07T10:17:18Z</time>
      </trkpt>
      <trkpt lat="43.31462" lon="1.95846">
        <ele>165</ele>
        <time>2017-08-07T10:17:20Z</time>
      </trkpt>
      <trkpt lat="43.31471" lon="1.9584">
        <ele>164.199997</ele>
        <time>2017-08-07T10:17:22Z</time>
      </trkpt>
      <trkpt lat="43.31479" lon="1.95833">
        <ele>163.399994</ele>
        <time>2017-08-07T10:17:24Z</time>
      </trkpt>
      <trkpt lat="43.31488" lon="1.95827">
        <ele>163</ele>
        <time>2017-08-07T10:17:26Z</time>
      </trkpt>
      <trkpt lat="43.31496" lon="1.9582">
        <ele>162.800003</ele>
        <time>2017-08-07T10:17:28Z</time>
      </trkpt>
      <trkpt lat="43.31504" lon="1.95811">
        <ele>162.600006</ele>
        <time>2017-08-07T10:17:30Z</time>
      </trkpt>
      <trkpt lat="43.31511" lon="1.95802">
        <ele>162.600006</ele>
        <time>2017-08-07T10:17:32Z</time>
      </trkpt>
      <trkpt lat="43.31517" lon="1.95792">
        <ele>162.5</ele>
        <time>2017-08-07T10:17:34Z</time>
      </trkpt>
      <trkpt lat="43.31522" lon="1.95781">
        <ele>162.600006</ele>
        <time>2017-08-07T10:17:36Z</time>
      </trkpt>
      <trkpt lat="43.31526" lon="1.95768">
        <ele>162.800003</ele>
        <time>2017-08-07T10:17:38Z</time>
      </trkpt>
      <trkpt lat="43.3153" lon="1.95756">
        <ele>163.199997</ele>
        <time>2017-08-07T10:17:40Z</time>
      </trkpt>
      <trkpt lat="43.31533" lon="1.95744">
        <ele>163.600006</ele>
        <time>2017-08-07T10:17:42Z</time>
      </trkpt>
      <trkpt lat="43.31539" lon="1.95728">
        <ele>164.199997</ele>
        <time>2017-08-07T10:17:45Z</time>
      </trkpt>
      <trkpt lat="43.31545" lon="1.95712">
        <ele>164.899994</ele>
        <time>2017-08-07T10:17:48Z</time>
      </trkpt>
      <trkpt lat="43.31549" lon="1.957">
        <ele>165.800003</ele>
        <time>2017-08-07T10:17:50Z</time>
      </trkpt>
      <trkpt lat="43.31553" lon="1.95689">
        <ele>166.5</ele>
        <time>2017-08-07T10:17:52Z</time>
      </trkpt>
      <trkpt lat="43.31559" lon="1.95673">
        <ele>167.5</ele>
        <time>2017-08-07T10:17:55Z</time>
      </trkpt>
      <trkpt lat="43.31563" lon="1.95662">
        <ele>167.899994</ele>
        <time>2017-08-07T10:17:57Z</time>
      </trkpt>
      <trkpt lat="43.31568" lon="1.95651">
        <ele>168.5</ele>
        <time>2017-08-07T10:17:59Z</time>
      </trkpt>
      <trkpt lat="43.31575" lon="1.95635">
        <ele>169.899994</ele>
        <time>2017-08-07T10:18:02Z</time>
      </trkpt>
      <trkpt lat="43.31582" lon="1.95623">
        <ele>170</ele>
        <time>2017-08-07T10:18:05Z</time>
      </trkpt>
      <trkpt lat="43.3159" lon="1.95613">
        <ele>169.800003</ele>
        <time>2017-08-07T10:18:09Z</time>
      </trkpt>
      <trkpt lat="43.31598" lon="1.95603">
        <ele>169.399994</ele>
        <time>2017-08-07T10:18:47Z</time>
      </trkpt>
      <trkpt lat="43.31607" lon="1.95598">
        <ele>170.899994</ele>
        <time>2017-08-07T10:18:50Z</time>
      </trkpt>
      <trkpt lat="43.31618" lon="1.95595">
        <ele>173.100006</ele>
        <time>2017-08-07T10:18:53Z</time>
      </trkpt>
      <trkpt lat="43.3163" lon="1.95593">
        <ele>175.100006</ele>
        <time>2017-08-07T10:18:56Z</time>
      </trkpt>
      <trkpt lat="43.31643" lon="1.9559">
        <ele>176.699997</ele>
        <time>2017-08-07T10:18:59Z</time>
      </trkpt>
      <trkpt lat="43.31651" lon="1.95585">
        <ele>177.399994</ele>
        <time>2017-08-07T10:19:01Z</time>
      </trkpt>
      <trkpt lat="43.3166" lon="1.9558">
        <ele>177.5</ele>
        <time>2017-08-07T10:19:03Z</time>
      </trkpt>
      <trkpt lat="43.31666" lon="1.9557">
        <ele>177</ele>
        <time>2017-08-07T10:19:05Z</time>
      </trkpt>
      <trkpt lat="43.31671" lon="1.9556">
        <ele>176.399994</ele>
        <time>2017-08-07T10:19:07Z</time>
      </trkpt>
      <trkpt lat="43.31679" lon="1.95552">
        <ele>176</ele>
        <time>2017-08-07T10:19:09Z</time>
      </trkpt>
      <trkpt lat="43.31687" lon="1.95545">
        <ele>175.800003</ele>
        <time>2017-08-07T10:19:11Z</time>
      </trkpt>
      <trkpt lat="43.31695" lon="1.95539">
        <ele>175.699997</ele>
        <time>2017-08-07T10:19:13Z</time>
      </trkpt>
      <trkpt lat="43.31703" lon="1.95533">
        <ele>175.699997</ele>
        <time>2017-08-07T10:19:15Z</time>
      </trkpt>
      <trkpt lat="43.31712" lon="1.95527">
        <ele>175.600006</ele>
        <time>2017-08-07T10:19:17Z</time>
      </trkpt>
      <trkpt lat="43.3172" lon="1.9552">
        <ele>175.300003</ele>
        <time>2017-08-07T10:19:19Z</time>
      </trkpt>
      <trkpt lat="43.31728" lon="1.95515">
        <ele>174.899994</ele>
        <time>2017-08-07T10:19:21Z</time>
      </trkpt>
      <trkpt lat="43.31737" lon="1.9551">
        <ele>174.899994</ele>
        <time>2017-08-07T10:19:23Z</time>
      </trkpt>
      <trkpt lat="43.31746" lon="1.95505">
        <ele>175.5</ele>
        <time>2017-08-07T10:19:25Z</time>
      </trkpt>
      <trkpt lat="43.31754" lon="1.95499">
        <ele>176</ele>
        <time>2017-08-07T10:19:27Z</time>
      </trkpt>
      <trkpt lat="43.31763" lon="1.95494">
        <ele>176.5</ele>
        <time>2017-08-07T10:19:29Z</time>
      </trkpt>
      <trkpt lat="43.31772" lon="1.9549">
        <ele>177.100006</ele>
        <time>2017-08-07T10:19:31Z</time>
      </trkpt>
      <trkpt lat="43.31781" lon="1.95486">
        <ele>177.800003</ele>
        <time>2017-08-07T10:19:33Z</time>
      </trkpt>
      <trkpt lat="43.3179" lon="1.95482">
        <ele>178.800003</ele>
        <time>2017-08-07T10:19:35Z</time>
      </trkpt>
      <trkpt lat="43.31799" lon="1.95477">
        <ele>179.300003</ele>
        <time>2017-08-07T10:19:37Z</time>
      </trkpt>
      <trkpt lat="43.31808" lon="1.95473">
        <ele>179.199997</ele>
        <time>2017-08-07T10:19:39Z</time>
      </trkpt>
      <trkpt lat="43.31817" lon="1.9547">
        <ele>178.899994</ele>
        <time>2017-08-07T10:19:41Z</time>
      </trkpt>
      <trkpt lat="43.31827" lon="1.95459">
        <ele>178.399994</ele>
        <time>2017-08-07T10:19:44Z</time>
      </trkpt>
      <trkpt lat="43.31835" lon="1.95451">
        <ele>178.5</ele>
        <time>2017-08-07T10:19:46Z</time>
      </trkpt>
      <trkpt lat="43.31842" lon="1.95442">
        <ele>178.5</ele>
        <time>2017-08-07T10:19:48Z</time>
      </trkpt>
      <trkpt lat="43.31849" lon="1.95434">
        <ele>178.300003</ele>
        <time>2017-08-07T10:19:50Z</time>
      </trkpt>
      <trkpt lat="43.31859" lon="1.95423">
        <ele>178.800003</ele>
        <time>2017-08-07T10:19:53Z</time>
      </trkpt>
      <trkpt lat="43.31868" lon="1.95413">
        <ele>179.100006</ele>
        <time>2017-08-07T10:19:56Z</time>
      </trkpt>
      <trkpt lat="43.31874" lon="1.95403">
        <ele>179</ele>
        <time>2017-08-07T10:19:59Z</time>
      </trkpt>
      <trkpt lat="43.31882" lon="1.95396">
        <ele>180.100006</ele>
        <time>2017-08-07T10:20:05Z</time>
      </trkpt>
      <trkpt lat="43.31891" lon="1.95388">
        <ele>181.100006</ele>
        <time>2017-08-07T10:20:09Z</time>
      </trkpt>
      <trkpt lat="43.319" lon="1.95381">
        <ele>181.899994</ele>
        <time>2017-08-07T10:20:12Z</time>
      </trkpt>
      <trkpt lat="43.3191" lon="1.95376">
        <ele>182</ele>
        <time>2017-08-07T10:20:15Z</time>
      </trkpt>
      <trkpt lat="43.3192" lon="1.9537">
        <ele>182</ele>
        <time>2017-08-07T10:20:18Z</time>
      </trkpt>
      <trkpt lat="43.3193" lon="1.95361">
        <ele>182.399994</ele>
        <time>2017-08-07T10:20:21Z</time>
      </trkpt>
      <trkpt lat="43.31939" lon="1.95355">
        <ele>182.399994</ele>
        <time>2017-08-07T10:20:24Z</time>
      </trkpt>
      <trkpt lat="43.31949" lon="1.95349">
        <ele>182.300003</ele>
        <time>2017-08-07T10:20:27Z</time>
      </trkpt>
      <trkpt lat="43.31958" lon="1.95342">
        <ele>182.199997</ele>
        <time>2017-08-07T10:20:30Z</time>
      </trkpt>
      <trkpt lat="43.31967" lon="1.95351">
        <ele>182.699997</ele>
        <time>2017-08-07T10:20:34Z</time>
      </trkpt>
      <trkpt lat="43.31971" lon="1.95364">
        <ele>182.300003</ele>
        <time>2017-08-07T10:20:38Z</time>
      </trkpt>
      <trkpt lat="43.31974" lon="1.95376">
        <ele>181.600006</ele>
        <time>2017-08-07T10:20:44Z</time>
      </trkpt>
      <trkpt lat="43.31973" lon="1.9539">
        <ele>182</ele>
        <time>2017-08-07T10:22:15Z</time>
      </trkpt>
      <trkpt lat="43.31967" lon="1.95401">
        <ele>182.199997</ele>
        <time>2017-08-07T10:22:18Z</time>
      </trkpt>
      <trkpt lat="43.31962" lon="1.95414">
        <ele>183.199997</ele>
        <time>2017-08-07T10:22:21Z</time>
      </trkpt>
      <trkpt lat="43.31953" lon="1.95425">
        <ele>184.300003</ele>
        <time>2017-08-07T10:22:24Z</time>
      </trkpt>
      <trkpt lat="43.31946" lon="1.95436">
        <ele>185.100006</ele>
        <time>2017-08-07T10:22:27Z</time>
      </trkpt>
      <trkpt lat="43.31939" lon="1.95444">
        <ele>185.199997</ele>
        <time>2017-08-07T10:22:30Z</time>
      </trkpt>
      <trkpt lat="43.31934" lon="1.95454">
        <ele>185.100006</ele>
        <time>2017-08-07T10:22:33Z</time>
      </trkpt>
      <trkpt lat="43.31928" lon="1.95465">
        <ele>185.199997</ele>
        <time>2017-08-07T10:22:37Z</time>
      </trkpt>
      <trkpt lat="43.31918" lon="1.95462">
        <ele>185.100006</ele>
        <time>2017-08-07T10:28:46Z</time>
      </trkpt>
      <trkpt lat="43.31911" lon="1.95471">
        <ele>185.5</ele>
        <time>2017-08-07T10:28:53Z</time>
      </trkpt>
      <trkpt lat="43.31905" lon="1.95482">
        <ele>185.800003</ele>
        <time>2017-08-07T10:28:59Z</time>
      </trkpt>
      <trkpt lat="43.31908" lon="1.95493">
        <ele>186.300003</ele>
        <time>2017-08-07T10:29:14Z</time>
      </trkpt>
      <trkpt lat="43.31913" lon="1.95504">
        <ele>186.800003</ele>
        <time>2017-08-07T10:29:20Z</time>
      </trkpt>
      <trkpt lat="43.31919" lon="1.95514">
        <ele>187.5</ele>
        <time>2017-08-07T10:30:33Z</time>
      </trkpt>
      <trkpt lat="43.31919" lon="1.95501">
        <ele>186.899994</ele>
        <time>2017-08-07T11:49:47Z</time>
      </trkpt>
      <trkpt lat="43.31909" lon="1.95497">
        <ele>186.5</ele>
        <time>2017-08-07T11:52:47Z</time>
      </trkpt>
      <trkpt lat="43.31904" lon="1.95484">
        <ele>186</ele>
        <time>2017-08-07T11:52:56Z</time>
      </trkpt>
      <trkpt lat="43.31908" lon="1.95471">
        <ele>185.5</ele>
        <time>2017-08-07T11:53:00Z</time>
      </trkpt>
      <trkpt lat="43.31909" lon="1.95458">
        <ele>185</ele>
        <time>2017-08-07T11:53:08Z</time>
      </trkpt>
      <trkpt lat="43.31903" lon="1.95448">
        <ele>185</ele>
        <time>2017-08-07T11:53:11Z</time>
      </trkpt>
      <trkpt lat="43.31896" lon="1.95435">
        <ele>183.899994</ele>
        <time>2017-08-07T11:53:14Z</time>
      </trkpt>
      <trkpt lat="43.31887" lon="1.95424">
        <ele>182.100006</ele>
        <time>2017-08-07T11:53:17Z</time>
      </trkpt>
      <trkpt lat="43.31882" lon="1.95411">
        <ele>180.5</ele>
        <time>2017-08-07T11:53:21Z</time>
      </trkpt>
      <trkpt lat="43.31874" lon="1.95402">
        <ele>179.100006</ele>
        <time>2017-08-07T11:53:27Z</time>
      </trkpt>
      <trkpt lat="43.31866" lon="1.95391">
        <ele>179.399994</ele>
        <time>2017-08-07T11:53:32Z</time>
      </trkpt>
      <trkpt lat="43.31868" lon="1.95377">
        <ele>179.899994</ele>
        <time>2017-08-07T11:53:39Z</time>
      </trkpt>
      <trkpt lat="43.31874" lon="1.95367">
        <ele>180.699997</ele>
        <time>2017-08-07T11:53:43Z</time>
      </trkpt>
      <trkpt lat="43.31881" lon="1.95358">
        <ele>181.699997</ele>
        <time>2017-08-07T11:57:29Z</time>
      </trkpt>
      <trkpt lat="43.31884" lon="1.95345">
        <ele>182.5</ele>
        <time>2017-08-07T11:57:33Z</time>
      </trkpt>
      <trkpt lat="43.31891" lon="1.95334">
        <ele>183.199997</ele>
        <time>2017-08-07T11:57:37Z</time>
      </trkpt>
      <trkpt lat="43.31897" lon="1.95322">
        <ele>184</ele>
        <time>2017-08-07T11:57:40Z</time>
      </trkpt>
      <trkpt lat="43.31903" lon="1.95312">
        <ele>184.100006</ele>
        <time>2017-08-07T11:57:43Z</time>
      </trkpt>
      <trkpt lat="43.31909" lon="1.953">
        <ele>184.199997</ele>
        <time>2017-08-07T11:57:47Z</time>
      </trkpt>
      <trkpt lat="43.31904" lon="1.95288">
        <ele>184</ele>
        <time>2017-08-07T11:57:50Z</time>
      </trkpt>
      <trkpt lat="43.31896" lon="1.95278">
        <ele>183.800003</ele>
        <time>2017-08-07T11:57:53Z</time>
      </trkpt>
      <trkpt lat="43.31887" lon="1.95272">
        <ele>183.600006</ele>
        <time>2017-08-07T11:57:55Z</time>
      </trkpt>
      <trkpt lat="43.31876" lon="1.95262">
        <ele>183</ele>
        <time>2017-08-07T11:57:58Z</time>
      </trkpt>
      <trkpt lat="43.31867" lon="1.9525">
        <ele>182.300003</ele>
        <time>2017-08-07T11:58:01Z</time>
      </trkpt>
      <trkpt lat="43.31856" lon="1.9524">
        <ele>182.399994</ele>
        <time>2017-08-07T11:58:04Z</time>
      </trkpt>
      <trkpt lat="43.31846" lon="1.95229">
        <ele>182.600006</ele>
        <time>2017-08-07T11:58:07Z</time>
      </trkpt>
      <trkpt lat="43.31837" lon="1.95221">
        <ele>181.5</ele>
        <time>2017-08-07T11:58:09Z</time>
      </trkpt>
      <trkpt lat="43.31828" lon="1.95212">
        <ele>180.300003</ele>
        <time>2017-08-07T11:58:11Z</time>
      </trkpt>
      <trkpt lat="43.3182" lon="1.95204">
        <ele>178.899994</ele>
        <time>2017-08-07T11:58:13Z</time>
      </trkpt>
      <trkpt lat="43.31811" lon="1.95197">
        <ele>177.199997</ele>
        <time>2017-08-07T11:58:15Z</time>
      </trkpt>
      <trkpt lat="43.31802" lon="1.95188">
        <ele>175.600006</ele>
        <time>2017-08-07T11:58:17Z</time>
      </trkpt>
      <trkpt lat="43.31791" lon="1.95175">
        <ele>174.100006</ele>
        <time>2017-08-07T11:58:19Z</time>
      </trkpt>
      <trkpt lat="43.31779" lon="1.95166">
        <ele>173</ele>
        <time>2017-08-07T11:58:21Z</time>
      </trkpt>
      <trkpt lat="43.3177" lon="1.95158">
        <ele>172</ele>
        <time>2017-08-07T11:58:23Z</time>
      </trkpt>
      <trkpt lat="43.31761" lon="1.95149">
        <ele>170.800003</ele>
        <time>2017-08-07T11:58:25Z</time>
      </trkpt>
      <trkpt lat="43.3175" lon="1.95139">
        <ele>169.699997</ele>
        <time>2017-08-07T11:58:27Z</time>
      </trkpt>
      <trkpt lat="43.31743" lon="1.95129">
        <ele>169.100006</ele>
        <time>2017-08-07T11:58:29Z</time>
      </trkpt>
      <trkpt lat="43.31735" lon="1.95122">
        <ele>168.800003</ele>
        <time>2017-08-07T11:58:31Z</time>
      </trkpt>
      <trkpt lat="43.31727" lon="1.95115">
        <ele>168.199997</ele>
        <time>2017-08-07T11:58:34Z</time>
      </trkpt>
      <trkpt lat="43.31716" lon="1.95113">
        <ele>167.899994</ele>
        <time>2017-08-07T11:58:36Z</time>
      </trkpt>
      <trkpt lat="43.31706" lon="1.95112">
        <ele>167.600006</ele>
        <time>2017-08-07T11:58:38Z</time>
      </trkpt>
      <trkpt lat="43.31697" lon="1.9511">
        <ele>167.600006</ele>
        <time>2017-08-07T11:58:40Z</time>
      </trkpt>
      <trkpt lat="43.31685" lon="1.95104">
        <ele>167.399994</ele>
        <time>2017-08-07T11:58:43Z</time>
      </trkpt>
      <trkpt lat="43.31675" lon="1.95097">
        <ele>166.899994</ele>
        <time>2017-08-07T11:58:46Z</time>
      </trkpt>
      <trkpt lat="43.31669" lon="1.95087">
        <ele>166</ele>
        <time>2017-08-07T11:58:52Z</time>
      </trkpt>
      <trkpt lat="43.31663" lon="1.95077">
        <ele>165.399994</ele>
        <time>2017-08-07T11:58:55Z</time>
      </trkpt>
      <trkpt lat="43.31657" lon="1.95066">
        <ele>165</ele>
        <time>2017-08-07T11:58:58Z</time>
      </trkpt>
      <trkpt lat="43.31651" lon="1.95056">
        <ele>165.100006</ele>
        <time>2017-08-07T11:59:01Z</time>
      </trkpt>
      <trkpt lat="43.31644" lon="1.95044">
        <ele>165.100006</ele>
        <time>2017-08-07T11:59:04Z</time>
      </trkpt>
      <trkpt lat="43.31639" lon="1.95033">
        <ele>165</ele>
        <time>2017-08-07T11:59:07Z</time>
      </trkpt>
      <trkpt lat="43.31633" lon="1.95022">
        <ele>165</ele>
        <time>2017-08-07T11:59:10Z</time>
      </trkpt>
      <trkpt lat="43.31623" lon="1.95029">
        <ele>164.899994</ele>
        <time>2017-08-07T11:59:14Z</time>
      </trkpt>
      <trkpt lat="43.31618" lon="1.95039">
        <ele>164.5</ele>
        <time>2017-08-07T11:59:17Z</time>
      </trkpt>
      <trkpt lat="43.31613" lon="1.9505">
        <ele>164.800003</ele>
        <time>2017-08-07T11:59:20Z</time>
      </trkpt>
      <trkpt lat="43.31608" lon="1.95063">
        <ele>165.5</ele>
        <time>2017-08-07T11:59:24Z</time>
      </trkpt>
      <trkpt lat="43.31602" lon="1.95077">
        <ele>166.100006</ele>
        <time>2017-08-07T11:59:28Z</time>
      </trkpt>
      <trkpt lat="43.31598" lon="1.95088">
        <ele>166.899994</ele>
        <time>2017-08-07T11:59:32Z</time>
      </trkpt>
      <trkpt lat="43.3159" lon="1.95097">
        <ele>167.300003</ele>
        <time>2017-08-07T11:59:37Z</time>
      </trkpt>
      <trkpt lat="43.31581" lon="1.95096">
        <ele>166.199997</ele>
        <time>2017-08-07T11:59:42Z</time>
      </trkpt>
      <trkpt lat="43.31573" lon="1.9509">
        <ele>164.699997</ele>
        <time>2017-08-07T11:59:46Z</time>
      </trkpt>
      <trkpt lat="43.31564" lon="1.95081">
        <ele>163.899994</ele>
        <time>2017-08-07T11:59:50Z</time>
      </trkpt>
      <trkpt lat="43.31558" lon="1.9507">
        <ele>163.800003</ele>
        <time>2017-08-07T11:59:54Z</time>
      </trkpt>
      <trkpt lat="43.31554" lon="1.95058">
        <ele>164.399994</ele>
        <time>2017-08-07T11:59:59Z</time>
      </trkpt>
      <trkpt lat="43.3156" lon="1.95047">
        <ele>163.699997</ele>
        <time>2017-08-07T12:00:25Z</time>
      </trkpt>
      <trkpt lat="43.31564" lon="1.95034">
        <ele>163.300003</ele>
        <time>2017-08-07T12:00:28Z</time>
      </trkpt>
      <trkpt lat="43.31567" lon="1.95021">
        <ele>163.300003</ele>
        <time>2017-08-07T12:00:30Z</time>
      </trkpt>
      <trkpt lat="43.31574" lon="1.95006">
        <ele>163.300003</ele>
        <time>2017-08-07T12:00:32Z</time>
      </trkpt>
      <trkpt lat="43.31576" lon="1.94989">
        <ele>164</ele>
        <time>2017-08-07T12:00:34Z</time>
      </trkpt>
      <trkpt lat="43.31575" lon="1.94975">
        <ele>164.5</ele>
        <time>2017-08-07T12:00:36Z</time>
      </trkpt>
      <trkpt lat="43.31573" lon="1.9496">
        <ele>165</ele>
        <time>2017-08-07T12:00:38Z</time>
      </trkpt>
      <trkpt lat="43.31569" lon="1.94946">
        <ele>165.800003</ele>
        <time>2017-08-07T12:00:40Z</time>
      </trkpt>
      <trkpt lat="43.31562" lon="1.94931">
        <ele>167.800003</ele>
        <time>2017-08-07T12:00:43Z</time>
      </trkpt>
      <trkpt lat="43.31557" lon="1.94921">
        <ele>169.399994</ele>
        <time>2017-08-07T12:00:46Z</time>
      </trkpt>
      <trkpt lat="43.3155" lon="1.94908">
        <ele>171.300003</ele>
        <time>2017-08-07T12:00:50Z</time>
      </trkpt>
      <trkpt lat="43.31542" lon="1.94899">
        <ele>172.800003</ele>
        <time>2017-08-07T12:00:53Z</time>
      </trkpt>
      <trkpt lat="43.31534" lon="1.9489">
        <ele>173</ele>
        <time>2017-08-07T12:00:56Z</time>
      </trkpt>
      <trkpt lat="43.31526" lon="1.94879">
        <ele>173.399994</ele>
        <time>2017-08-07T12:01:00Z</time>
      </trkpt>
      <trkpt lat="43.31517" lon="1.94873">
        <ele>173.699997</ele>
        <time>2017-08-07T12:01:02Z</time>
      </trkpt>
      <trkpt lat="43.31508" lon="1.94868">
        <ele>172.199997</ele>
        <time>2017-08-07T12:01:05Z</time>
      </trkpt>
      <trkpt lat="43.31496" lon="1.94863">
        <ele>169.300003</ele>
        <time>2017-08-07T12:01:09Z</time>
      </trkpt>
      <trkpt lat="43.31486" lon="1.94857">
        <ele>167.199997</ele>
        <time>2017-08-07T12:01:12Z</time>
      </trkpt>
      <trkpt lat="43.31475" lon="1.94853">
        <ele>168.800003</ele>
        <time>2017-08-07T12:01:15Z</time>
      </trkpt>
      <trkpt lat="43.31463" lon="1.94847">
        <ele>170.899994</ele>
        <time>2017-08-07T12:01:18Z</time>
      </trkpt>
      <trkpt lat="43.31452" lon="1.94842">
        <ele>170.800003</ele>
        <time>2017-08-07T12:01:21Z</time>
      </trkpt>
      <trkpt lat="43.31441" lon="1.94839">
        <ele>169.800003</ele>
        <time>2017-08-07T12:01:24Z</time>
      </trkpt>
      <trkpt lat="43.3143" lon="1.9484">
        <ele>169.300003</ele>
        <time>2017-08-07T12:01:28Z</time>
      </trkpt>
      <trkpt lat="43.31419" lon="1.9484">
        <ele>170.100006</ele>
        <time>2017-08-07T12:01:30Z</time>
      </trkpt>
      <trkpt lat="43.3141" lon="1.9484">
        <ele>171</ele>
        <time>2017-08-07T12:01:32Z</time>
      </trkpt>
      <trkpt lat="43.31397" lon="1.9484">
        <ele>171.800003</ele>
        <time>2017-08-07T12:01:35Z</time>
      </trkpt>
      <trkpt lat="43.31387" lon="1.94841">
        <ele>172</ele>
        <time>2017-08-07T12:01:38Z</time>
      </trkpt>
      <trkpt lat="43.31378" lon="1.94839">
        <ele>172.199997</ele>
        <time>2017-08-07T12:01:40Z</time>
      </trkpt>
      <trkpt lat="43.31368" lon="1.94835">
        <ele>172</ele>
        <time>2017-08-07T12:01:43Z</time>
      </trkpt>
      <trkpt lat="43.31358" lon="1.9483">
        <ele>171.5</ele>
        <time>2017-08-07T12:01:46Z</time>
      </trkpt>
      <trkpt lat="43.31349" lon="1.94824">
        <ele>171.600006</ele>
        <time>2017-08-07T12:01:49Z</time>
      </trkpt>
      <trkpt lat="43.31339" lon="1.94814">
        <ele>171.600006</ele>
        <time>2017-08-07T12:01:52Z</time>
      </trkpt>
      <trkpt lat="43.31331" lon="1.94802">
        <ele>171.600006</ele>
        <time>2017-08-07T12:01:55Z</time>
      </trkpt>
      <trkpt lat="43.31323" lon="1.9479">
        <ele>172</ele>
        <time>2017-08-07T12:01:58Z</time>
      </trkpt>
      <trkpt lat="43.31317" lon="1.94778">
        <ele>172.100006</ele>
        <time>2017-08-07T12:02:01Z</time>
      </trkpt>
      <trkpt lat="43.3131" lon="1.94765">
        <ele>171.600006</ele>
        <time>2017-08-07T12:02:04Z</time>
      </trkpt>
      <trkpt lat="43.31304" lon="1.94754">
        <ele>171.600006</ele>
        <time>2017-08-07T12:02:07Z</time>
      </trkpt>
      <trkpt lat="43.31298" lon="1.94743">
        <ele>172.100006</ele>
        <time>2017-08-07T12:02:10Z</time>
      </trkpt>
      <trkpt lat="43.31294" lon="1.94732">
        <ele>173.100006</ele>
        <time>2017-08-07T12:02:12Z</time>
      </trkpt>
      <trkpt lat="43.31291" lon="1.94719">
        <ele>174</ele>
        <time>2017-08-07T12:02:15Z</time>
      </trkpt>
      <trkpt lat="43.31285" lon="1.94702">
        <ele>174</ele>
        <time>2017-08-07T12:02:18Z</time>
      </trkpt>
      <trkpt lat="43.31278" lon="1.94687">
        <ele>173.699997</ele>
        <time>2017-08-07T12:02:21Z</time>
      </trkpt>
      <trkpt lat="43.31274" lon="1.94672">
        <ele>173.600006</ele>
        <time>2017-08-07T12:02:24Z</time>
      </trkpt>
      <trkpt lat="43.31271" lon="1.94657">
        <ele>173.300003</ele>
        <time>2017-08-07T12:02:27Z</time>
      </trkpt>
      <trkpt lat="43.31271" lon="1.94643">
        <ele>173.199997</ele>
        <time>2017-08-07T12:02:30Z</time>
      </trkpt>
      <trkpt lat="43.31273" lon="1.94629">
        <ele>173.300003</ele>
        <time>2017-08-07T12:02:35Z</time>
      </trkpt>
      <trkpt lat="43.31276" lon="1.94617">
        <ele>173.899994</ele>
        <time>2017-08-07T12:02:38Z</time>
      </trkpt>
      <trkpt lat="43.31278" lon="1.94602">
        <ele>174</ele>
        <time>2017-08-07T12:02:41Z</time>
      </trkpt>
      <trkpt lat="43.31281" lon="1.94588">
        <ele>174.5</ele>
        <time>2017-08-07T12:02:44Z</time>
      </trkpt>
      <trkpt lat="43.31281" lon="1.94574">
        <ele>174.100006</ele>
        <time>2017-08-07T12:02:46Z</time>
      </trkpt>
      <trkpt lat="43.31282" lon="1.94559">
        <ele>173.100006</ele>
        <time>2017-08-07T12:02:48Z</time>
      </trkpt>
      <trkpt lat="43.31286" lon="1.94541">
        <ele>172.300003</ele>
        <time>2017-08-07T12:02:51Z</time>
      </trkpt>
      <trkpt lat="43.3129" lon="1.94526">
        <ele>171.800003</ele>
        <time>2017-08-07T12:02:54Z</time>
      </trkpt>
      <trkpt lat="43.31295" lon="1.94511">
        <ele>170.300003</ele>
        <time>2017-08-07T12:02:57Z</time>
      </trkpt>
      <trkpt lat="43.31298" lon="1.94497">
        <ele>168.199997</ele>
        <time>2017-08-07T12:03:00Z</time>
      </trkpt>
      <trkpt lat="43.31304" lon="1.94484">
        <ele>167.300003</ele>
        <time>2017-08-07T12:03:03Z</time>
      </trkpt>
      <trkpt lat="43.31308" lon="1.94472">
        <ele>166.800003</ele>
        <time>2017-08-07T12:03:06Z</time>
      </trkpt>
      <trkpt lat="43.31321" lon="1.94459">
        <ele>169</ele>
        <time>2017-08-07T12:03:09Z</time>
      </trkpt>
      <trkpt lat="43.31328" lon="1.94446">
        <ele>169.899994</ele>
        <time>2017-08-07T12:03:12Z</time>
      </trkpt>
      <trkpt lat="43.31337" lon="1.94433">
        <ele>172.399994</ele>
        <time>2017-08-07T12:03:15Z</time>
      </trkpt>
      <trkpt lat="43.31343" lon="1.94416">
        <ele>174.199997</ele>
        <time>2017-08-07T12:03:18Z</time>
      </trkpt>
      <trkpt lat="43.31349" lon="1.94401">
        <ele>176</ele>
        <time>2017-08-07T12:03:21Z</time>
      </trkpt>
      <trkpt lat="43.31353" lon="1.94386">
        <ele>174.300003</ele>
        <time>2017-08-07T12:03:24Z</time>
      </trkpt>
      <trkpt lat="43.31357" lon="1.94372">
        <ele>172.800003</ele>
        <time>2017-08-07T12:03:27Z</time>
      </trkpt>
      <trkpt lat="43.31359" lon="1.9436">
        <ele>170.800003</ele>
        <time>2017-08-07T12:03:29Z</time>
      </trkpt>
      <trkpt lat="43.31361" lon="1.94348">
        <ele>169</ele>
        <time>2017-08-07T12:03:31Z</time>
      </trkpt>
      <trkpt lat="43.31365" lon="1.94332">
        <ele>167</ele>
        <time>2017-08-07T12:03:34Z</time>
      </trkpt>
      <trkpt lat="43.31371" lon="1.94318">
        <ele>165</ele>
        <time>2017-08-07T12:03:37Z</time>
      </trkpt>
      <trkpt lat="43.31377" lon="1.94303">
        <ele>163.600006</ele>
        <time>2017-08-07T12:03:40Z</time>
      </trkpt>
      <trkpt lat="43.31381" lon="1.9429">
        <ele>162.300003</ele>
        <time>2017-08-07T12:03:43Z</time>
      </trkpt>
      <trkpt lat="43.31388" lon="1.94275">
        <ele>160.800003</ele>
        <time>2017-08-07T12:03:46Z</time>
      </trkpt>
      <trkpt lat="43.31394" lon="1.94264">
        <ele>159.699997</ele>
        <time>2017-08-07T12:03:48Z</time>
      </trkpt>
      <trkpt lat="43.314" lon="1.94254">
        <ele>159.300003</ele>
        <time>2017-08-07T12:03:50Z</time>
      </trkpt>
      <trkpt lat="43.31407" lon="1.94243">
        <ele>159.899994</ele>
        <time>2017-08-07T12:03:52Z</time>
      </trkpt>
      <trkpt lat="43.31414" lon="1.94234">
        <ele>161.100006</ele>
        <time>2017-08-07T12:03:54Z</time>
      </trkpt>
      <trkpt lat="43.31421" lon="1.9422">
        <ele>161.199997</ele>
        <time>2017-08-07T12:03:57Z</time>
      </trkpt>
      <trkpt lat="43.31429" lon="1.94206">
        <ele>161.199997</ele>
        <time>2017-08-07T12:04:00Z</time>
      </trkpt>
      <trkpt lat="43.31438" lon="1.94193">
        <ele>161.899994</ele>
        <time>2017-08-07T12:04:03Z</time>
      </trkpt>
      <trkpt lat="43.31445" lon="1.94179">
        <ele>163</ele>
        <time>2017-08-07T12:04:06Z</time>
      </trkpt>
      <trkpt lat="43.31451" lon="1.9417">
        <ele>164.5</ele>
        <time>2017-08-07T12:04:08Z</time>
      </trkpt>
      <trkpt lat="43.31457" lon="1.9416">
        <ele>166.100006</ele>
        <time>2017-08-07T12:04:10Z</time>
      </trkpt>
      <trkpt lat="43.31465" lon="1.94147">
        <ele>167.300003</ele>
        <time>2017-08-07T12:04:13Z</time>
      </trkpt>
      <trkpt lat="43.31471" lon="1.94132">
        <ele>167.600006</ele>
        <time>2017-08-07T12:04:16Z</time>
      </trkpt>
      <trkpt lat="43.31475" lon="1.9412">
        <ele>167.600006</ele>
        <time>2017-08-07T12:04:19Z</time>
      </trkpt>
      <trkpt lat="43.3148" lon="1.94108">
        <ele>166.699997</ele>
        <time>2017-08-07T12:04:22Z</time>
      </trkpt>
      <trkpt lat="43.31484" lon="1.94092">
        <ele>164.800003</ele>
        <time>2017-08-07T12:04:26Z</time>
      </trkpt>
      <trkpt lat="43.31492" lon="1.9408">
        <ele>164.300003</ele>
        <time>2017-08-07T12:04:29Z</time>
      </trkpt>
      <trkpt lat="43.315" lon="1.94071">
        <ele>164.699997</ele>
        <time>2017-08-07T12:04:32Z</time>
      </trkpt>
      <trkpt lat="43.31511" lon="1.94063">
        <ele>166.100006</ele>
        <time>2017-08-07T12:04:35Z</time>
      </trkpt>
      <trkpt lat="43.31521" lon="1.9406">
        <ele>167.399994</ele>
        <time>2017-08-07T12:04:37Z</time>
      </trkpt>
      <trkpt lat="43.31531" lon="1.94054">
        <ele>168.199997</ele>
        <time>2017-08-07T12:04:39Z</time>
      </trkpt>
      <trkpt lat="43.3154" lon="1.94049">
        <ele>169</ele>
        <time>2017-08-07T12:04:41Z</time>
      </trkpt>
      <trkpt lat="43.31553" lon="1.94045">
        <ele>170</ele>
        <time>2017-08-07T12:04:43Z</time>
      </trkpt>
      <trkpt lat="43.31564" lon="1.94041">
        <ele>170.899994</ele>
        <time>2017-08-07T12:04:45Z</time>
      </trkpt>
      <trkpt lat="43.31573" lon="1.94033">
        <ele>171.199997</ele>
        <time>2017-08-07T12:04:47Z</time>
      </trkpt>
      <trkpt lat="43.31581" lon="1.94022">
        <ele>171.399994</ele>
        <time>2017-08-07T12:04:50Z</time>
      </trkpt>
      <trkpt lat="43.31588" lon="1.94011">
        <ele>171.5</ele>
        <time>2017-08-07T12:04:53Z</time>
      </trkpt>
      <trkpt lat="43.316" lon="1.94003">
        <ele>171.600006</ele>
        <time>2017-08-07T12:04:56Z</time>
      </trkpt>
      <trkpt lat="43.31608" lon="1.93991">
        <ele>170.300003</ele>
        <time>2017-08-07T12:04:59Z</time>
      </trkpt>
      <trkpt lat="43.31617" lon="1.93984">
        <ele>172</ele>
        <time>2017-08-07T12:05:02Z</time>
      </trkpt>
      <trkpt lat="43.31626" lon="1.93972">
        <ele>171.199997</ele>
        <time>2017-08-07T12:05:05Z</time>
      </trkpt>
      <trkpt lat="43.31634" lon="1.93966">
        <ele>170.100006</ele>
        <time>2017-08-07T12:05:07Z</time>
      </trkpt>
      <trkpt lat="43.31642" lon="1.93954">
        <ele>168.300003</ele>
        <time>2017-08-07T12:05:10Z</time>
      </trkpt>
      <trkpt lat="43.3165" lon="1.93946">
        <ele>168.199997</ele>
        <time>2017-08-07T12:05:13Z</time>
      </trkpt>
      <trkpt lat="43.31655" lon="1.93933">
        <ele>166.600006</ele>
        <time>2017-08-07T12:05:17Z</time>
      </trkpt>
      <trkpt lat="43.31666" lon="1.93921">
        <ele>165</ele>
        <time>2017-08-07T12:05:20Z</time>
      </trkpt>
      <trkpt lat="43.31677" lon="1.93912">
        <ele>163.800003</ele>
        <time>2017-08-07T12:05:22Z</time>
      </trkpt>
      <trkpt lat="43.31687" lon="1.939">
        <ele>162.399994</ele>
        <time>2017-08-07T12:05:25Z</time>
      </trkpt>
      <trkpt lat="43.31696" lon="1.93891">
        <ele>162.399994</ele>
        <time>2017-08-07T12:05:27Z</time>
      </trkpt>
      <trkpt lat="43.31706" lon="1.93882">
        <ele>163</ele>
        <time>2017-08-07T12:05:29Z</time>
      </trkpt>
      <trkpt lat="43.31713" lon="1.93873">
        <ele>163.5</ele>
        <time>2017-08-07T12:05:31Z</time>
      </trkpt>
      <trkpt lat="43.3172" lon="1.93863">
        <ele>163.699997</ele>
        <time>2017-08-07T12:05:33Z</time>
      </trkpt>
      <trkpt lat="43.3173" lon="1.93854">
        <ele>164.800003</ele>
        <time>2017-08-07T12:05:35Z</time>
      </trkpt>
      <trkpt lat="43.31735" lon="1.93843">
        <ele>165.600006</ele>
        <time>2017-08-07T12:05:37Z</time>
      </trkpt>
      <trkpt lat="43.31739" lon="1.93829">
        <ele>166.399994</ele>
        <time>2017-08-07T12:05:39Z</time>
      </trkpt>
      <trkpt lat="43.31743" lon="1.93817">
        <ele>167.199997</ele>
        <time>2017-08-07T12:05:41Z</time>
      </trkpt>
      <trkpt lat="43.31746" lon="1.93805">
        <ele>167.899994</ele>
        <time>2017-08-07T12:05:43Z</time>
      </trkpt>
      <trkpt lat="43.31746" lon="1.93792">
        <ele>168.5</ele>
        <time>2017-08-07T12:05:45Z</time>
      </trkpt>
      <trkpt lat="43.31753" lon="1.93776">
        <ele>170.600006</ele>
        <time>2017-08-07T12:05:48Z</time>
      </trkpt>
      <trkpt lat="43.31755" lon="1.93756">
        <ele>171.899994</ele>
        <time>2017-08-07T12:05:51Z</time>
      </trkpt>
      <trkpt lat="43.31757" lon="1.93744">
        <ele>173.100006</ele>
        <time>2017-08-07T12:05:53Z</time>
      </trkpt>
      <trkpt lat="43.3176" lon="1.9373">
        <ele>174.600006</ele>
        <time>2017-08-07T12:05:56Z</time>
      </trkpt>
      <trkpt lat="43.31765" lon="1.93713">
        <ele>175.899994</ele>
        <time>2017-08-07T12:05:59Z</time>
      </trkpt>
      <trkpt lat="43.31768" lon="1.93701">
        <ele>176.800003</ele>
        <time>2017-08-07T12:06:01Z</time>
      </trkpt>
      <trkpt lat="43.31774" lon="1.93686">
        <ele>177.399994</ele>
        <time>2017-08-07T12:06:04Z</time>
      </trkpt>
      <trkpt lat="43.31777" lon="1.93674">
        <ele>176.800003</ele>
        <time>2017-08-07T12:06:06Z</time>
      </trkpt>
      <trkpt lat="43.31781" lon="1.93662">
        <ele>175.600006</ele>
        <time>2017-08-07T12:06:08Z</time>
      </trkpt>
      <trkpt lat="43.31784" lon="1.93648">
        <ele>174.300003</ele>
        <time>2017-08-07T12:06:11Z</time>
      </trkpt>
      <trkpt lat="43.31789" lon="1.93632">
        <ele>173.199997</ele>
        <time>2017-08-07T12:06:13Z</time>
      </trkpt>
      <trkpt lat="43.31792" lon="1.93619">
        <ele>172.5</ele>
        <time>2017-08-07T12:06:15Z</time>
      </trkpt>
      <trkpt lat="43.31799" lon="1.93604">
        <ele>171.399994</ele>
        <time>2017-08-07T12:06:18Z</time>
      </trkpt>
      <trkpt lat="43.318" lon="1.93592">
        <ele>170.800003</ele>
        <time>2017-08-07T12:06:20Z</time>
      </trkpt>
      <trkpt lat="43.31801" lon="1.93578">
        <ele>171.300003</ele>
        <time>2017-08-07T12:06:22Z</time>
      </trkpt>
      <trkpt lat="43.318" lon="1.93564">
        <ele>171.800003</ele>
        <time>2017-08-07T12:06:24Z</time>
      </trkpt>
      <trkpt lat="43.31798" lon="1.93549">
        <ele>172.699997</ele>
        <time>2017-08-07T12:06:27Z</time>
      </trkpt>
      <trkpt lat="43.31794" lon="1.93533">
        <ele>173.600006</ele>
        <time>2017-08-07T12:06:30Z</time>
      </trkpt>
      <trkpt lat="43.31791" lon="1.9352">
        <ele>174.199997</ele>
        <time>2017-08-07T12:06:32Z</time>
      </trkpt>
      <trkpt lat="43.31788" lon="1.93507">
        <ele>173.899994</ele>
        <time>2017-08-07T12:06:34Z</time>
      </trkpt>
      <trkpt lat="43.31784" lon="1.93489">
        <ele>173</ele>
        <time>2017-08-07T12:06:37Z</time>
      </trkpt>
      <trkpt lat="43.31782" lon="1.9347">
        <ele>171.300003</ele>
        <time>2017-08-07T12:06:40Z</time>
      </trkpt>
      <trkpt lat="43.31783" lon="1.93452">
        <ele>170.300003</ele>
        <time>2017-08-07T12:06:43Z</time>
      </trkpt>
      <trkpt lat="43.31787" lon="1.93436">
        <ele>170.300003</ele>
        <time>2017-08-07T12:06:46Z</time>
      </trkpt>
      <trkpt lat="43.31793" lon="1.93424">
        <ele>170.800003</ele>
        <time>2017-08-07T12:06:49Z</time>
      </trkpt>
      <trkpt lat="43.31801" lon="1.93414">
        <ele>169.899994</ele>
        <time>2017-08-07T12:06:52Z</time>
      </trkpt>
      <trkpt lat="43.31807" lon="1.93401">
        <ele>168.699997</ele>
        <time>2017-08-07T12:06:54Z</time>
      </trkpt>
      <trkpt lat="43.31813" lon="1.93391">
        <ele>167.899994</ele>
        <time>2017-08-07T12:06:56Z</time>
      </trkpt>
      <trkpt lat="43.3182" lon="1.93381">
        <ele>167.199997</ele>
        <time>2017-08-07T12:06:58Z</time>
      </trkpt>
      <trkpt lat="43.31827" lon="1.93367">
        <ele>166.699997</ele>
        <time>2017-08-07T12:07:01Z</time>
      </trkpt>
      <trkpt lat="43.3183" lon="1.93352">
        <ele>166.699997</ele>
        <time>2017-08-07T12:07:04Z</time>
      </trkpt>
      <trkpt lat="43.31837" lon="1.9334">
        <ele>168.399994</ele>
        <time>2017-08-07T12:07:07Z</time>
      </trkpt>
      <trkpt lat="43.31844" lon="1.93327">
        <ele>170.5</ele>
        <time>2017-08-07T12:07:10Z</time>
      </trkpt>
      <trkpt lat="43.31852" lon="1.93316">
        <ele>172.800003</ele>
        <time>2017-08-07T12:07:13Z</time>
      </trkpt>
      <trkpt lat="43.31856" lon="1.93303">
        <ele>173.100006</ele>
        <time>2017-08-07T12:07:16Z</time>
      </trkpt>
      <trkpt lat="43.31866" lon="1.93291">
        <ele>174.300003</ele>
        <time>2017-08-07T12:07:19Z</time>
      </trkpt>
      <trkpt lat="43.31873" lon="1.93282">
        <ele>174.699997</ele>
        <time>2017-08-07T12:07:21Z</time>
      </trkpt>
      <trkpt lat="43.31881" lon="1.93275">
        <ele>174.5</ele>
        <time>2017-08-07T12:07:23Z</time>
      </trkpt>
      <trkpt lat="43.31888" lon="1.93267">
        <ele>173.899994</ele>
        <time>2017-08-07T12:07:25Z</time>
      </trkpt>
      <trkpt lat="43.31896" lon="1.93258">
        <ele>172.899994</ele>
        <time>2017-08-07T12:07:27Z</time>
      </trkpt>
      <trkpt lat="43.31903" lon="1.93246">
        <ele>172.399994</ele>
        <time>2017-08-07T12:07:29Z</time>
      </trkpt>
      <trkpt lat="43.31907" lon="1.93235">
        <ele>171.399994</ele>
        <time>2017-08-07T12:07:31Z</time>
      </trkpt>
      <trkpt lat="43.31913" lon="1.93224">
        <ele>169.899994</ele>
        <time>2017-08-07T12:07:33Z</time>
      </trkpt>
      <trkpt lat="43.31919" lon="1.93213">
        <ele>169.300003</ele>
        <time>2017-08-07T12:07:35Z</time>
      </trkpt>
      <trkpt lat="43.31924" lon="1.93201">
        <ele>169</ele>
        <time>2017-08-07T12:07:37Z</time>
      </trkpt>
      <trkpt lat="43.31929" lon="1.9319">
        <ele>168.199997</ele>
        <time>2017-08-07T12:07:39Z</time>
      </trkpt>
      <trkpt lat="43.31933" lon="1.93179">
        <ele>166.600006</ele>
        <time>2017-08-07T12:07:41Z</time>
      </trkpt>
      <trkpt lat="43.31937" lon="1.93167">
        <ele>165.699997</ele>
        <time>2017-08-07T12:07:43Z</time>
      </trkpt>
      <trkpt lat="43.3194" lon="1.93155">
        <ele>164.5</ele>
        <time>2017-08-07T12:07:45Z</time>
      </trkpt>
      <trkpt lat="43.31944" lon="1.93143">
        <ele>164.100006</ele>
        <time>2017-08-07T12:07:47Z</time>
      </trkpt>
      <trkpt lat="43.31947" lon="1.9313">
        <ele>164.100006</ele>
        <time>2017-08-07T12:07:49Z</time>
      </trkpt>
      <trkpt lat="43.3195" lon="1.93118">
        <ele>162.5</ele>
        <time>2017-08-07T12:07:51Z</time>
      </trkpt>
      <trkpt lat="43.31954" lon="1.93106">
        <ele>157.800003</ele>
        <time>2017-08-07T12:07:53Z</time>
      </trkpt>
      <trkpt lat="43.31958" lon="1.93089">
        <ele>152.899994</ele>
        <time>2017-08-07T12:07:56Z</time>
      </trkpt>
      <trkpt lat="43.31962" lon="1.93072">
        <ele>156.199997</ele>
        <time>2017-08-07T12:07:59Z</time>
      </trkpt>
      <trkpt lat="43.31966" lon="1.93054">
        <ele>158</ele>
        <time>2017-08-07T12:08:02Z</time>
      </trkpt>
      <trkpt lat="43.3197" lon="1.93042">
        <ele>159.300003</ele>
        <time>2017-08-07T12:08:04Z</time>
      </trkpt>
      <trkpt lat="43.31974" lon="1.93026">
        <ele>160.899994</ele>
        <time>2017-08-07T12:08:07Z</time>
      </trkpt>
      <trkpt lat="43.31976" lon="1.93012">
        <ele>161.199997</ele>
        <time>2017-08-07T12:08:10Z</time>
      </trkpt>
      <trkpt lat="43.31978" lon="1.92997">
        <ele>161.199997</ele>
        <time>2017-08-07T12:08:13Z</time>
      </trkpt>
      <trkpt lat="43.31982" lon="1.9298">
        <ele>161.699997</ele>
        <time>2017-08-07T12:08:16Z</time>
      </trkpt>
      <trkpt lat="43.31984" lon="1.92965">
        <ele>164.300003</ele>
        <time>2017-08-07T12:08:19Z</time>
      </trkpt>
      <trkpt lat="43.31986" lon="1.92951">
        <ele>167.300003</ele>
        <time>2017-08-07T12:08:22Z</time>
      </trkpt>
      <trkpt lat="43.31992" lon="1.9294">
        <ele>171</ele>
        <time>2017-08-07T12:08:25Z</time>
      </trkpt>
      <trkpt lat="43.31997" lon="1.92928">
        <ele>173.600006</ele>
        <time>2017-08-07T12:08:28Z</time>
      </trkpt>
      <trkpt lat="43.32" lon="1.9291">
        <ele>173.699997</ele>
        <time>2017-08-07T12:08:32Z</time>
      </trkpt>
      <trkpt lat="43.32002" lon="1.92894">
        <ele>174</ele>
        <time>2017-08-07T12:08:35Z</time>
      </trkpt>
      <trkpt lat="43.32004" lon="1.92876">
        <ele>173.899994</ele>
        <time>2017-08-07T12:08:38Z</time>
      </trkpt>
      <trkpt lat="43.32004" lon="1.9286">
        <ele>173.300003</ele>
        <time>2017-08-07T12:08:41Z</time>
      </trkpt>
      <trkpt lat="43.32006" lon="1.92847">
        <ele>173</ele>
        <time>2017-08-07T12:08:44Z</time>
      </trkpt>
      <trkpt lat="43.32008" lon="1.92834">
        <ele>170</ele>
        <time>2017-08-07T12:08:47Z</time>
      </trkpt>
      <trkpt lat="43.3201" lon="1.92817">
        <ele>165.300003</ele>
        <time>2017-08-07T12:08:50Z</time>
      </trkpt>
      <trkpt lat="43.32012" lon="1.92802">
        <ele>163.300003</ele>
        <time>2017-08-07T12:08:53Z</time>
      </trkpt>
      <trkpt lat="43.32015" lon="1.92789">
        <ele>162.100006</ele>
        <time>2017-08-07T12:08:56Z</time>
      </trkpt>
      <trkpt lat="43.32018" lon="1.92772">
        <ele>160.899994</ele>
        <time>2017-08-07T12:08:59Z</time>
      </trkpt>
      <trkpt lat="43.32021" lon="1.92755">
        <ele>160.5</ele>
        <time>2017-08-07T12:09:02Z</time>
      </trkpt>
      <trkpt lat="43.32026" lon="1.92742">
        <ele>161.5</ele>
        <time>2017-08-07T12:09:05Z</time>
      </trkpt>
      <trkpt lat="43.32028" lon="1.92725">
        <ele>162.5</ele>
        <time>2017-08-07T12:09:08Z</time>
      </trkpt>
      <trkpt lat="43.32027" lon="1.92713">
        <ele>163.5</ele>
        <time>2017-08-07T12:09:10Z</time>
      </trkpt>
      <trkpt lat="43.32028" lon="1.92697">
        <ele>165.100006</ele>
        <time>2017-08-07T12:09:12Z</time>
      </trkpt>
      <trkpt lat="43.32028" lon="1.92679">
        <ele>167.100006</ele>
        <time>2017-08-07T12:09:15Z</time>
      </trkpt>
      <trkpt lat="43.32031" lon="1.92665">
        <ele>168.5</ele>
        <time>2017-08-07T12:09:17Z</time>
      </trkpt>
      <trkpt lat="43.32032" lon="1.92647">
        <ele>170</ele>
        <time>2017-08-07T12:09:20Z</time>
      </trkpt>
      <trkpt lat="43.32033" lon="1.92633">
        <ele>170.600006</ele>
        <time>2017-08-07T12:09:22Z</time>
      </trkpt>
      <trkpt lat="43.32033" lon="1.92619">
        <ele>170.600006</ele>
        <time>2017-08-07T12:09:24Z</time>
      </trkpt>
      <trkpt lat="43.32035" lon="1.92606">
        <ele>169.899994</ele>
        <time>2017-08-07T12:09:26Z</time>
      </trkpt>
      <trkpt lat="43.32037" lon="1.92593">
        <ele>169.5</ele>
        <time>2017-08-07T12:09:28Z</time>
      </trkpt>
      <trkpt lat="43.32039" lon="1.92581">
        <ele>169.800003</ele>
        <time>2017-08-07T12:09:31Z</time>
      </trkpt>
      <trkpt lat="43.3204" lon="1.92568">
        <ele>169.600006</ele>
        <time>2017-08-07T12:09:33Z</time>
      </trkpt>
      <trkpt lat="43.32041" lon="1.92555">
        <ele>169.699997</ele>
        <time>2017-08-07T12:09:35Z</time>
      </trkpt>
      <trkpt lat="43.32041" lon="1.9254">
        <ele>169.699997</ele>
        <time>2017-08-07T12:09:38Z</time>
      </trkpt>
      <trkpt lat="43.32045" lon="1.92527">
        <ele>170.300003</ele>
        <time>2017-08-07T12:09:41Z</time>
      </trkpt>
      <trkpt lat="43.32048" lon="1.92515">
        <ele>170.399994</ele>
        <time>2017-08-07T12:09:44Z</time>
      </trkpt>
      <trkpt lat="43.32049" lon="1.92503">
        <ele>170.100006</ele>
        <time>2017-08-07T12:09:46Z</time>
      </trkpt>
      <trkpt lat="43.32052" lon="1.92487">
        <ele>169.5</ele>
        <time>2017-08-07T12:09:49Z</time>
      </trkpt>
      <trkpt lat="43.32054" lon="1.92474">
        <ele>170.100006</ele>
        <time>2017-08-07T12:09:52Z</time>
      </trkpt>
      <trkpt lat="43.32058" lon="1.92463">
        <ele>170.600006</ele>
        <time>2017-08-07T12:09:55Z</time>
      </trkpt>
      <trkpt lat="43.3206" lon="1.92446">
        <ele>171.5</ele>
        <time>2017-08-07T12:09:58Z</time>
      </trkpt>
      <trkpt lat="43.32065" lon="1.92432">
        <ele>172.199997</ele>
        <time>2017-08-07T12:10:01Z</time>
      </trkpt>
      <trkpt lat="43.32067" lon="1.9242">
        <ele>170.399994</ele>
        <time>2017-08-07T12:10:03Z</time>
      </trkpt>
      <trkpt lat="43.32069" lon="1.92403">
        <ele>167.300003</ele>
        <time>2017-08-07T12:10:06Z</time>
      </trkpt>
      <trkpt lat="43.32073" lon="1.92391">
        <ele>166.699997</ele>
        <time>2017-08-07T12:10:08Z</time>
      </trkpt>
      <trkpt lat="43.32078" lon="1.92374">
        <ele>166</ele>
        <time>2017-08-07T12:10:11Z</time>
      </trkpt>
      <trkpt lat="43.32082" lon="1.92357">
        <ele>165.100006</ele>
        <time>2017-08-07T12:10:14Z</time>
      </trkpt>
      <trkpt lat="43.32086" lon="1.92345">
        <ele>164.5</ele>
        <time>2017-08-07T12:10:16Z</time>
      </trkpt>
      <trkpt lat="43.32089" lon="1.92329">
        <ele>163.300003</ele>
        <time>2017-08-07T12:10:19Z</time>
      </trkpt>
      <trkpt lat="43.32092" lon="1.92316">
        <ele>162.600006</ele>
        <time>2017-08-07T12:10:21Z</time>
      </trkpt>
      <trkpt lat="43.32097" lon="1.923">
        <ele>163.100006</ele>
        <time>2017-08-07T12:10:24Z</time>
      </trkpt>
      <trkpt lat="43.32097" lon="1.92286">
        <ele>163.199997</ele>
        <time>2017-08-07T12:10:26Z</time>
      </trkpt>
      <trkpt lat="43.32098" lon="1.92274">
        <ele>164.300003</ele>
        <time>2017-08-07T12:10:28Z</time>
      </trkpt>
      <trkpt lat="43.32101" lon="1.92262">
        <ele>165.699997</ele>
        <time>2017-08-07T12:10:30Z</time>
      </trkpt>
      <trkpt lat="43.32102" lon="1.92247">
        <ele>166.899994</ele>
        <time>2017-08-07T12:10:32Z</time>
      </trkpt>
      <trkpt lat="43.32101" lon="1.92232">
        <ele>168</ele>
        <time>2017-08-07T12:10:34Z</time>
      </trkpt>
      <trkpt lat="43.32099" lon="1.9222">
        <ele>169.399994</ele>
        <time>2017-08-07T12:10:36Z</time>
      </trkpt>
      <trkpt lat="43.32095" lon="1.92203">
        <ele>170.699997</ele>
        <time>2017-08-07T12:10:39Z</time>
      </trkpt>
      <trkpt lat="43.32093" lon="1.9219">
        <ele>170.800003</ele>
        <time>2017-08-07T12:10:41Z</time>
      </trkpt>
      <trkpt lat="43.32092" lon="1.92177">
        <ele>170.899994</ele>
        <time>2017-08-07T12:10:43Z</time>
      </trkpt>
      <trkpt lat="43.32089" lon="1.92159">
        <ele>171.300003</ele>
        <time>2017-08-07T12:10:46Z</time>
      </trkpt>
      <trkpt lat="43.32085" lon="1.92142">
        <ele>170.899994</ele>
        <time>2017-08-07T12:10:49Z</time>
      </trkpt>
      <trkpt lat="43.32083" lon="1.92129">
        <ele>170.699997</ele>
        <time>2017-08-07T12:10:52Z</time>
      </trkpt>
      <trkpt lat="43.3208" lon="1.92117">
        <ele>170.5</ele>
        <time>2017-08-07T12:10:54Z</time>
      </trkpt>
      <trkpt lat="43.32077" lon="1.92103">
        <ele>170.199997</ele>
        <time>2017-08-07T12:10:57Z</time>
      </trkpt>
      <trkpt lat="43.32076" lon="1.9209">
        <ele>170.199997</ele>
        <time>2017-08-07T12:11:00Z</time>
      </trkpt>
      <trkpt lat="43.32076" lon="1.92077">
        <ele>170.399994</ele>
        <time>2017-08-07T12:11:04Z</time>
      </trkpt>
      <trkpt lat="43.32076" lon="1.92063">
        <ele>170.600006</ele>
        <time>2017-08-07T12:11:07Z</time>
      </trkpt>
      <trkpt lat="43.32074" lon="1.92048">
        <ele>170.5</ele>
        <time>2017-08-07T12:11:09Z</time>
      </trkpt>
      <trkpt lat="43.32071" lon="1.92034">
        <ele>170.600006</ele>
        <time>2017-08-07T12:11:11Z</time>
      </trkpt>
      <trkpt lat="43.3207" lon="1.92017">
        <ele>170.899994</ele>
        <time>2017-08-07T12:11:14Z</time>
      </trkpt>
      <trkpt lat="43.3207" lon="1.92003">
        <ele>171.399994</ele>
        <time>2017-08-07T12:11:17Z</time>
      </trkpt>
      <trkpt lat="43.3207" lon="1.91987">
        <ele>172</ele>
        <time>2017-08-07T12:11:20Z</time>
      </trkpt>
      <trkpt lat="43.32074" lon="1.91974">
        <ele>173.699997</ele>
        <time>2017-08-07T12:11:23Z</time>
      </trkpt>
      <trkpt lat="43.32074" lon="1.91961">
        <ele>174.899994</ele>
        <time>2017-08-07T12:11:25Z</time>
      </trkpt>
      <trkpt lat="43.32073" lon="1.91946">
        <ele>174.600006</ele>
        <time>2017-08-07T12:11:27Z</time>
      </trkpt>
      <trkpt lat="43.32074" lon="1.91933">
        <ele>174</ele>
        <time>2017-08-07T12:11:29Z</time>
      </trkpt>
      <trkpt lat="43.32074" lon="1.9192">
        <ele>172.699997</ele>
        <time>2017-08-07T12:11:31Z</time>
      </trkpt>
      <trkpt lat="43.32075" lon="1.91906">
        <ele>170.899994</ele>
        <time>2017-08-07T12:11:33Z</time>
      </trkpt>
      <trkpt lat="43.32076" lon="1.91893">
        <ele>169.300003</ele>
        <time>2017-08-07T12:11:35Z</time>
      </trkpt>
      <trkpt lat="43.32076" lon="1.91879">
        <ele>167.399994</ele>
        <time>2017-08-07T12:11:37Z</time>
      </trkpt>
      <trkpt lat="43.32078" lon="1.91867">
        <ele>166.199997</ele>
        <time>2017-08-07T12:11:39Z</time>
      </trkpt>
      <trkpt lat="43.32081" lon="1.91855">
        <ele>165.5</ele>
        <time>2017-08-07T12:11:41Z</time>
      </trkpt>
      <trkpt lat="43.32082" lon="1.91843">
        <ele>164.600006</ele>
        <time>2017-08-07T12:11:43Z</time>
      </trkpt>
      <trkpt lat="43.32084" lon="1.9183">
        <ele>164.300003</ele>
        <time>2017-08-07T12:11:45Z</time>
      </trkpt>
      <trkpt lat="43.32088" lon="1.91814">
        <ele>164.399994</ele>
        <time>2017-08-07T12:11:48Z</time>
      </trkpt>
      <trkpt lat="43.32092" lon="1.91796">
        <ele>164.800003</ele>
        <time>2017-08-07T12:11:51Z</time>
      </trkpt>
      <trkpt lat="43.32095" lon="1.91784">
        <ele>165.199997</ele>
        <time>2017-08-07T12:11:53Z</time>
      </trkpt>
      <trkpt lat="43.32099" lon="1.91769">
        <ele>165.600006</ele>
        <time>2017-08-07T12:11:56Z</time>
      </trkpt>
      <trkpt lat="43.32102" lon="1.91756">
        <ele>166.600006</ele>
        <time>2017-08-07T12:11:59Z</time>
      </trkpt>
      <trkpt lat="43.32106" lon="1.91742">
        <ele>168</ele>
        <time>2017-08-07T12:12:01Z</time>
      </trkpt>
      <trkpt lat="43.32111" lon="1.91724">
        <ele>169.399994</ele>
        <time>2017-08-07T12:12:04Z</time>
      </trkpt>
      <trkpt lat="43.32114" lon="1.91711">
        <ele>169.800003</ele>
        <time>2017-08-07T12:12:06Z</time>
      </trkpt>
      <trkpt lat="43.32117" lon="1.91699">
        <ele>169.800003</ele>
        <time>2017-08-07T12:12:08Z</time>
      </trkpt>
      <trkpt lat="43.32119" lon="1.91686">
        <ele>169.199997</ele>
        <time>2017-08-07T12:12:10Z</time>
      </trkpt>
      <trkpt lat="43.32124" lon="1.91672">
        <ele>169.199997</ele>
        <time>2017-08-07T12:12:12Z</time>
      </trkpt>
      <trkpt lat="43.32127" lon="1.91659">
        <ele>169.5</ele>
        <time>2017-08-07T12:12:14Z</time>
      </trkpt>
      <trkpt lat="43.3213" lon="1.91642">
        <ele>169</ele>
        <time>2017-08-07T12:12:17Z</time>
      </trkpt>
      <trkpt lat="43.3213" lon="1.91629">
        <ele>168.199997</ele>
        <time>2017-08-07T12:12:19Z</time>
      </trkpt>
      <trkpt lat="43.3213" lon="1.91616">
        <ele>167.800003</ele>
        <time>2017-08-07T12:12:21Z</time>
      </trkpt>
      <trkpt lat="43.3213" lon="1.91601">
        <ele>167.800003</ele>
        <time>2017-08-07T12:12:24Z</time>
      </trkpt>
      <trkpt lat="43.32128" lon="1.91585">
        <ele>168.199997</ele>
        <time>2017-08-07T12:12:27Z</time>
      </trkpt>
      <trkpt lat="43.32125" lon="1.91571">
        <ele>168.800003</ele>
        <time>2017-08-07T12:12:30Z</time>
      </trkpt>
      <trkpt lat="43.32121" lon="1.91555">
        <ele>169.5</ele>
        <time>2017-08-07T12:12:33Z</time>
      </trkpt>
      <trkpt lat="43.32116" lon="1.91539">
        <ele>170.100006</ele>
        <time>2017-08-07T12:12:36Z</time>
      </trkpt>
      <trkpt lat="43.32111" lon="1.91522">
        <ele>170.800003</ele>
        <time>2017-08-07T12:12:39Z</time>
      </trkpt>
      <trkpt lat="43.32106" lon="1.91507">
        <ele>171.600006</ele>
        <time>2017-08-07T12:12:42Z</time>
      </trkpt>
      <trkpt lat="43.32101" lon="1.91489">
        <ele>172.100006</ele>
        <time>2017-08-07T12:12:45Z</time>
      </trkpt>
      <trkpt lat="43.32096" lon="1.91473">
        <ele>171.899994</ele>
        <time>2017-08-07T12:12:48Z</time>
      </trkpt>
      <trkpt lat="43.32093" lon="1.91461">
        <ele>171.199997</ele>
        <time>2017-08-07T12:12:50Z</time>
      </trkpt>
      <trkpt lat="43.32091" lon="1.91446">
        <ele>170.5</ele>
        <time>2017-08-07T12:12:53Z</time>
      </trkpt>
      <trkpt lat="43.32087" lon="1.91431">
        <ele>169.800003</ele>
        <time>2017-08-07T12:12:56Z</time>
      </trkpt>
      <trkpt lat="43.32086" lon="1.91417">
        <ele>169.699997</ele>
        <time>2017-08-07T12:12:59Z</time>
      </trkpt>
      <trkpt lat="43.32083" lon="1.91403">
        <ele>169.5</ele>
        <time>2017-08-07T12:13:02Z</time>
      </trkpt>
      <trkpt lat="43.32083" lon="1.91391">
        <ele>170.800003</ele>
        <time>2017-08-07T12:13:05Z</time>
      </trkpt>
      <trkpt lat="43.32083" lon="1.91375">
        <ele>172.899994</ele>
        <time>2017-08-07T12:13:09Z</time>
      </trkpt>
      <trkpt lat="43.32085" lon="1.91361">
        <ele>174.699997</ele>
        <time>2017-08-07T12:13:13Z</time>
      </trkpt>
      <trkpt lat="43.32084" lon="1.91349">
        <ele>176.199997</ele>
        <time>2017-08-07T12:13:16Z</time>
      </trkpt>
      <trkpt lat="43.32082" lon="1.91334">
        <ele>177.600006</ele>
        <time>2017-08-07T12:13:20Z</time>
      </trkpt>
      <trkpt lat="43.32078" lon="1.91323">
        <ele>178.5</ele>
        <time>2017-08-07T12:13:24Z</time>
      </trkpt>
      <trkpt lat="43.32078" lon="1.91309">
        <ele>179.800003</ele>
        <time>2017-08-07T12:13:33Z</time>
      </trkpt>
      <trkpt lat="43.32077" lon="1.91294">
        <ele>181.100006</ele>
        <time>2017-08-07T12:13:40Z</time>
      </trkpt>
      <trkpt lat="43.32077" lon="1.91278">
        <ele>183.100006</ele>
        <time>2017-08-07T12:13:44Z</time>
      </trkpt>
      <trkpt lat="43.32073" lon="1.91264">
        <ele>185.199997</ele>
        <time>2017-08-07T12:13:47Z</time>
      </trkpt>
      <trkpt lat="43.32073" lon="1.91246">
        <ele>187.199997</ele>
        <time>2017-08-07T12:13:51Z</time>
      </trkpt>
      <trkpt lat="43.32073" lon="1.91233">
        <ele>188.399994</ele>
        <time>2017-08-07T12:13:54Z</time>
      </trkpt>
      <trkpt lat="43.32073" lon="1.91218">
        <ele>187.800003</ele>
        <time>2017-08-07T12:13:58Z</time>
      </trkpt>
      <trkpt lat="43.3207" lon="1.91203">
        <ele>187.899994</ele>
        <time>2017-08-07T12:14:01Z</time>
      </trkpt>
      <trkpt lat="43.32069" lon="1.91189">
        <ele>188</ele>
        <time>2017-08-07T12:14:04Z</time>
      </trkpt>
      <trkpt lat="43.32068" lon="1.91172">
        <ele>188</ele>
        <time>2017-08-07T12:14:07Z</time>
      </trkpt>
      <trkpt lat="43.32067" lon="1.91154">
        <ele>188</ele>
        <time>2017-08-07T12:14:10Z</time>
      </trkpt>
      <trkpt lat="43.32067" lon="1.91139">
        <ele>187.399994</ele>
        <time>2017-08-07T12:14:13Z</time>
      </trkpt>
      <trkpt lat="43.3207" lon="1.91123">
        <ele>186.699997</ele>
        <time>2017-08-07T12:14:16Z</time>
      </trkpt>
      <trkpt lat="43.32071" lon="1.91111">
        <ele>184.600006</ele>
        <time>2017-08-07T12:14:18Z</time>
      </trkpt>
      <trkpt lat="43.32074" lon="1.91095">
        <ele>182.199997</ele>
        <time>2017-08-07T12:14:21Z</time>
      </trkpt>
      <trkpt lat="43.32078" lon="1.9108">
        <ele>181.600006</ele>
        <time>2017-08-07T12:14:24Z</time>
      </trkpt>
      <trkpt lat="43.32083" lon="1.91065">
        <ele>181.100006</ele>
        <time>2017-08-07T12:14:27Z</time>
      </trkpt>
      <trkpt lat="43.32088" lon="1.91051">
        <ele>181</ele>
        <time>2017-08-07T12:14:31Z</time>
      </trkpt>
      <trkpt lat="43.32092" lon="1.91036">
        <ele>180.699997</ele>
        <time>2017-08-07T12:14:34Z</time>
      </trkpt>
      <trkpt lat="43.32097" lon="1.91019">
        <ele>181</ele>
        <time>2017-08-07T12:14:36Z</time>
      </trkpt>
      <trkpt lat="43.32103" lon="1.91002">
        <ele>179.100006</ele>
        <time>2017-08-07T12:14:39Z</time>
      </trkpt>
      <trkpt lat="43.32109" lon="1.90989">
        <ele>177.300003</ele>
        <time>2017-08-07T12:14:42Z</time>
      </trkpt>
      <trkpt lat="43.32116" lon="1.90973">
        <ele>176.199997</ele>
        <time>2017-08-07T12:14:45Z</time>
      </trkpt>
      <trkpt lat="43.32121" lon="1.90959">
        <ele>176.5</ele>
        <time>2017-08-07T12:14:47Z</time>
      </trkpt>
      <trkpt lat="43.32125" lon="1.90948">
        <ele>177.600006</ele>
        <time>2017-08-07T12:14:49Z</time>
      </trkpt>
      <trkpt lat="43.32128" lon="1.90934">
        <ele>177.199997</ele>
        <time>2017-08-07T12:14:52Z</time>
      </trkpt>
      <trkpt lat="43.3213" lon="1.90919">
        <ele>176</ele>
        <time>2017-08-07T12:14:55Z</time>
      </trkpt>
      <trkpt lat="43.3213" lon="1.90904">
        <ele>174.699997</ele>
        <time>2017-08-07T12:14:57Z</time>
      </trkpt>
      <trkpt lat="43.32131" lon="1.90892">
        <ele>173.100006</ele>
        <time>2017-08-07T12:14:59Z</time>
      </trkpt>
      <trkpt lat="43.32135" lon="1.90878">
        <ele>171.699997</ele>
        <time>2017-08-07T12:15:02Z</time>
      </trkpt>
      <trkpt lat="43.32139" lon="1.90864">
        <ele>172.300003</ele>
        <time>2017-08-07T12:15:05Z</time>
      </trkpt>
      <trkpt lat="43.32144" lon="1.90847">
        <ele>173.899994</ele>
        <time>2017-08-07T12:15:09Z</time>
      </trkpt>
      <trkpt lat="43.32147" lon="1.9083">
        <ele>175.300003</ele>
        <time>2017-08-07T12:15:11Z</time>
      </trkpt>
      <trkpt lat="43.32148" lon="1.90812">
        <ele>176.199997</ele>
        <time>2017-08-07T12:15:14Z</time>
      </trkpt>
      <trkpt lat="43.3215" lon="1.90799">
        <ele>176.899994</ele>
        <time>2017-08-07T12:15:16Z</time>
      </trkpt>
      <trkpt lat="43.32153" lon="1.90783">
        <ele>178.199997</ele>
        <time>2017-08-07T12:15:19Z</time>
      </trkpt>
      <trkpt lat="43.32156" lon="1.90768">
        <ele>179.300003</ele>
        <time>2017-08-07T12:15:22Z</time>
      </trkpt>
      <trkpt lat="43.32158" lon="1.90751">
        <ele>179.300003</ele>
        <time>2017-08-07T12:15:25Z</time>
      </trkpt>
      <trkpt lat="43.32162" lon="1.90737">
        <ele>179.399994</ele>
        <time>2017-08-07T12:15:28Z</time>
      </trkpt>
      <trkpt lat="43.32163" lon="1.9072">
        <ele>177.600006</ele>
        <time>2017-08-07T12:15:30Z</time>
      </trkpt>
      <trkpt lat="43.32169" lon="1.90707">
        <ele>176.699997</ele>
        <time>2017-08-07T12:15:33Z</time>
      </trkpt>
      <trkpt lat="43.32175" lon="1.90692">
        <ele>174.899994</ele>
        <time>2017-08-07T12:15:36Z</time>
      </trkpt>
      <trkpt lat="43.32178" lon="1.90678">
        <ele>172.399994</ele>
        <time>2017-08-07T12:15:39Z</time>
      </trkpt>
      <trkpt lat="43.32184" lon="1.90663">
        <ele>170.699997</ele>
        <time>2017-08-07T12:15:43Z</time>
      </trkpt>
      <trkpt lat="43.32187" lon="1.90647">
        <ele>168.899994</ele>
        <time>2017-08-07T12:15:47Z</time>
      </trkpt>
      <trkpt lat="43.32189" lon="1.90631">
        <ele>168</ele>
        <time>2017-08-07T12:15:50Z</time>
      </trkpt>
      <trkpt lat="43.32194" lon="1.90616">
        <ele>167.899994</ele>
        <time>2017-08-07T12:15:53Z</time>
      </trkpt>
      <trkpt lat="43.32196" lon="1.90604">
        <ele>167.300003</ele>
        <time>2017-08-07T12:15:55Z</time>
      </trkpt>
      <trkpt lat="43.32199" lon="1.90587">
        <ele>167.300003</ele>
        <time>2017-08-07T12:15:58Z</time>
      </trkpt>
      <trkpt lat="43.32201" lon="1.90574">
        <ele>167.899994</ele>
        <time>2017-08-07T12:16:00Z</time>
      </trkpt>
      <trkpt lat="43.32204" lon="1.90556">
        <ele>167.699997</ele>
        <time>2017-08-07T12:16:03Z</time>
      </trkpt>
      <trkpt lat="43.32207" lon="1.90544">
        <ele>167.100006</ele>
        <time>2017-08-07T12:16:05Z</time>
      </trkpt>
      <trkpt lat="43.32205" lon="1.9053">
        <ele>166.699997</ele>
        <time>2017-08-07T12:16:07Z</time>
      </trkpt>
      <trkpt lat="43.32203" lon="1.90514">
        <ele>166.300003</ele>
        <time>2017-08-07T12:16:09Z</time>
      </trkpt>
      <trkpt lat="43.32205" lon="1.90502">
        <ele>166.5</ele>
        <time>2017-08-07T12:16:11Z</time>
      </trkpt>
      <trkpt lat="43.32209" lon="1.90488">
        <ele>166.899994</ele>
        <time>2017-08-07T12:16:13Z</time>
      </trkpt>
      <trkpt lat="43.3221" lon="1.9047">
        <ele>168.600006</ele>
        <time>2017-08-07T12:16:16Z</time>
      </trkpt>
      <trkpt lat="43.32213" lon="1.90458">
        <ele>169.800003</ele>
        <time>2017-08-07T12:16:18Z</time>
      </trkpt>
      <trkpt lat="43.32216" lon="1.90441">
        <ele>170.399994</ele>
        <time>2017-08-07T12:16:21Z</time>
      </trkpt>
      <trkpt lat="43.32218" lon="1.90424">
        <ele>171.5</ele>
        <time>2017-08-07T12:16:24Z</time>
      </trkpt>
      <trkpt lat="43.32219" lon="1.90411">
        <ele>172.800003</ele>
        <time>2017-08-07T12:16:26Z</time>
      </trkpt>
      <trkpt lat="43.32218" lon="1.90394">
        <ele>173.899994</ele>
        <time>2017-08-07T12:16:29Z</time>
      </trkpt>
      <trkpt lat="43.32218" lon="1.9038">
        <ele>174.600006</ele>
        <time>2017-08-07T12:16:32Z</time>
      </trkpt>
      <trkpt lat="43.32221" lon="1.90362">
        <ele>175</ele>
        <time>2017-08-07T12:16:36Z</time>
      </trkpt>
      <trkpt lat="43.32221" lon="1.90344">
        <ele>173.399994</ele>
        <time>2017-08-07T12:16:39Z</time>
      </trkpt>
      <trkpt lat="43.32221" lon="1.90327">
        <ele>172.5</ele>
        <time>2017-08-07T12:16:42Z</time>
      </trkpt>
      <trkpt lat="43.32221" lon="1.90311">
        <ele>171.199997</ele>
        <time>2017-08-07T12:16:45Z</time>
      </trkpt>
      <trkpt lat="43.3222" lon="1.90299">
        <ele>169.300003</ele>
        <time>2017-08-07T12:16:47Z</time>
      </trkpt>
      <trkpt lat="43.32221" lon="1.9028">
        <ele>168.199997</ele>
        <time>2017-08-07T12:16:50Z</time>
      </trkpt>
      <trkpt lat="43.3222" lon="1.90263">
        <ele>167.5</ele>
        <time>2017-08-07T12:16:53Z</time>
      </trkpt>
      <trkpt lat="43.32218" lon="1.9025">
        <ele>166.699997</ele>
        <time>2017-08-07T12:16:55Z</time>
      </trkpt>
      <trkpt lat="43.32219" lon="1.90237">
        <ele>166.300003</ele>
        <time>2017-08-07T12:16:57Z</time>
      </trkpt>
      <trkpt lat="43.32218" lon="1.90224">
        <ele>166.600006</ele>
        <time>2017-08-07T12:16:59Z</time>
      </trkpt>
      <trkpt lat="43.32219" lon="1.90212">
        <ele>167.100006</ele>
        <time>2017-08-07T12:17:01Z</time>
      </trkpt>
      <trkpt lat="43.3222" lon="1.90195">
        <ele>167</ele>
        <time>2017-08-07T12:17:04Z</time>
      </trkpt>
      <trkpt lat="43.32223" lon="1.90179">
        <ele>166.600006</ele>
        <time>2017-08-07T12:17:07Z</time>
      </trkpt>
      <trkpt lat="43.32226" lon="1.90163">
        <ele>166.100006</ele>
        <time>2017-08-07T12:17:10Z</time>
      </trkpt>
      <trkpt lat="43.32226" lon="1.90149">
        <ele>165.600006</ele>
        <time>2017-08-07T12:17:12Z</time>
      </trkpt>
      <trkpt lat="43.32229" lon="1.90133">
        <ele>165.5</ele>
        <time>2017-08-07T12:17:15Z</time>
      </trkpt>
      <trkpt lat="43.32234" lon="1.90116">
        <ele>166.100006</ele>
        <time>2017-08-07T12:17:18Z</time>
      </trkpt>
      <trkpt lat="43.32237" lon="1.90101">
        <ele>167.899994</ele>
        <time>2017-08-07T12:17:21Z</time>
      </trkpt>
      <trkpt lat="43.32242" lon="1.90085">
        <ele>168</ele>
        <time>2017-08-07T12:17:24Z</time>
      </trkpt>
      <trkpt lat="43.32247" lon="1.9007">
        <ele>167.100006</ele>
        <time>2017-08-07T12:17:27Z</time>
      </trkpt>
      <trkpt lat="43.3225" lon="1.90054">
        <ele>165.699997</ele>
        <time>2017-08-07T12:17:30Z</time>
      </trkpt>
      <trkpt lat="43.32254" lon="1.90038">
        <ele>164.699997</ele>
        <time>2017-08-07T12:17:33Z</time>
      </trkpt>
      <trkpt lat="43.32259" lon="1.90024">
        <ele>165.199997</ele>
        <time>2017-08-07T12:17:36Z</time>
      </trkpt>
      <trkpt lat="43.32264" lon="1.90011">
        <ele>165.600006</ele>
        <time>2017-08-07T12:17:39Z</time>
      </trkpt>
      <trkpt lat="43.32268" lon="1.89997">
        <ele>165.199997</ele>
        <time>2017-08-07T12:17:42Z</time>
      </trkpt>
      <trkpt lat="43.32272" lon="1.8998">
        <ele>164.800003</ele>
        <time>2017-08-07T12:17:45Z</time>
      </trkpt>
      <trkpt lat="43.32277" lon="1.89966">
        <ele>165</ele>
        <time>2017-08-07T12:17:48Z</time>
      </trkpt>
      <trkpt lat="43.32283" lon="1.89954">
        <ele>165</ele>
        <time>2017-08-07T12:17:51Z</time>
      </trkpt>
      <trkpt lat="43.32286" lon="1.8994">
        <ele>163.800003</ele>
        <time>2017-08-07T12:17:54Z</time>
      </trkpt>
      <trkpt lat="43.32291" lon="1.89925">
        <ele>162.800003</ele>
        <time>2017-08-07T12:17:57Z</time>
      </trkpt>
      <trkpt lat="43.32296" lon="1.89911">
        <ele>162.899994</ele>
        <time>2017-08-07T12:18:00Z</time>
      </trkpt>
      <trkpt lat="43.323" lon="1.89897">
        <ele>163</ele>
        <time>2017-08-07T12:18:03Z</time>
      </trkpt>
      <trkpt lat="43.32303" lon="1.89885">
        <ele>163.100006</ele>
        <time>2017-08-07T12:18:08Z</time>
      </trkpt>
      <trkpt lat="43.32305" lon="1.8987">
        <ele>162.899994</ele>
        <time>2017-08-07T12:18:12Z</time>
      </trkpt>
      <trkpt lat="43.32306" lon="1.89854">
        <ele>163.100006</ele>
        <time>2017-08-07T12:18:16Z</time>
      </trkpt>
      <trkpt lat="43.32308" lon="1.89841">
        <ele>163.399994</ele>
        <time>2017-08-07T12:18:19Z</time>
      </trkpt>
      <trkpt lat="43.32315" lon="1.89829">
        <ele>164.300003</ele>
        <time>2017-08-07T12:18:23Z</time>
      </trkpt>
      <trkpt lat="43.3232" lon="1.89816">
        <ele>165.199997</ele>
        <time>2017-08-07T12:18:26Z</time>
      </trkpt>
      <trkpt lat="43.32326" lon="1.89804">
        <ele>166.899994</ele>
        <time>2017-08-07T12:18:29Z</time>
      </trkpt>
      <trkpt lat="43.32331" lon="1.89789">
        <ele>167.699997</ele>
        <time>2017-08-07T12:18:32Z</time>
      </trkpt>
      <trkpt lat="43.32339" lon="1.89779">
        <ele>168</ele>
        <time>2017-08-07T12:18:35Z</time>
      </trkpt>
      <trkpt lat="43.32344" lon="1.89767">
        <ele>167.699997</ele>
        <time>2017-08-07T12:18:38Z</time>
      </trkpt>
      <trkpt lat="43.32348" lon="1.89751">
        <ele>166.100006</ele>
        <time>2017-08-07T12:18:41Z</time>
      </trkpt>
      <trkpt lat="43.3235" lon="1.89737">
        <ele>163.800003</ele>
        <time>2017-08-07T12:18:43Z</time>
      </trkpt>
      <trkpt lat="43.32353" lon="1.89718">
        <ele>161.199997</ele>
        <time>2017-08-07T12:18:46Z</time>
      </trkpt>
      <trkpt lat="43.32353" lon="1.89705">
        <ele>159.300003</ele>
        <time>2017-08-07T12:18:48Z</time>
      </trkpt>
      <trkpt lat="43.32353" lon="1.89689">
        <ele>158.199997</ele>
        <time>2017-08-07T12:18:51Z</time>
      </trkpt>
      <trkpt lat="43.32355" lon="1.89672">
        <ele>159</ele>
        <time>2017-08-07T12:18:54Z</time>
      </trkpt>
      <trkpt lat="43.32359" lon="1.89656">
        <ele>160.199997</ele>
        <time>2017-08-07T12:18:57Z</time>
      </trkpt>
      <trkpt lat="43.32361" lon="1.89643">
        <ele>160.300003</ele>
        <time>2017-08-07T12:18:59Z</time>
      </trkpt>
      <trkpt lat="43.32368" lon="1.89629">
        <ele>159.800003</ele>
        <time>2017-08-07T12:19:02Z</time>
      </trkpt>
      <trkpt lat="43.32374" lon="1.89614">
        <ele>160.5</ele>
        <time>2017-08-07T12:19:05Z</time>
      </trkpt>
      <trkpt lat="43.3238" lon="1.89596">
        <ele>163.800003</ele>
        <time>2017-08-07T12:19:08Z</time>
      </trkpt>
      <trkpt lat="43.32382" lon="1.89583">
        <ele>163.899994</ele>
        <time>2017-08-07T12:19:11Z</time>
      </trkpt>
      <trkpt lat="43.32385" lon="1.89567">
        <ele>163.899994</ele>
        <time>2017-08-07T12:19:14Z</time>
      </trkpt>
      <trkpt lat="43.32389" lon="1.89549">
        <ele>164.600006</ele>
        <time>2017-08-07T12:19:17Z</time>
      </trkpt>
      <trkpt lat="43.3239" lon="1.89533">
        <ele>164.699997</ele>
        <time>2017-08-07T12:19:20Z</time>
      </trkpt>
      <trkpt lat="43.32392" lon="1.89517">
        <ele>165.199997</ele>
        <time>2017-08-07T12:19:23Z</time>
      </trkpt>
      <trkpt lat="43.32396" lon="1.89503">
        <ele>164.800003</ele>
        <time>2017-08-07T12:19:26Z</time>
      </trkpt>
      <trkpt lat="43.324" lon="1.89486">
        <ele>163.899994</ele>
        <time>2017-08-07T12:19:29Z</time>
      </trkpt>
      <trkpt lat="43.32403" lon="1.89469">
        <ele>163</ele>
        <time>2017-08-07T12:19:32Z</time>
      </trkpt>
      <trkpt lat="43.32407" lon="1.89455">
        <ele>162.899994</ele>
        <time>2017-08-07T12:19:35Z</time>
      </trkpt>
      <trkpt lat="43.32407" lon="1.89442">
        <ele>162.899994</ele>
        <time>2017-08-07T12:19:37Z</time>
      </trkpt>
      <trkpt lat="43.32409" lon="1.89429">
        <ele>163.100006</ele>
        <time>2017-08-07T12:19:39Z</time>
      </trkpt>
      <trkpt lat="43.32409" lon="1.89417">
        <ele>163.300003</ele>
        <time>2017-08-07T12:19:41Z</time>
      </trkpt>
      <trkpt lat="43.32411" lon="1.89399">
        <ele>163.699997</ele>
        <time>2017-08-07T12:19:44Z</time>
      </trkpt>
      <trkpt lat="43.32413" lon="1.89383">
        <ele>164.199997</ele>
        <time>2017-08-07T12:19:47Z</time>
      </trkpt>
      <trkpt lat="43.32417" lon="1.89366">
        <ele>165</ele>
        <time>2017-08-07T12:19:50Z</time>
      </trkpt>
      <trkpt lat="43.32418" lon="1.89349">
        <ele>165.300003</ele>
        <time>2017-08-07T12:19:53Z</time>
      </trkpt>
      <trkpt lat="43.3242" lon="1.89336">
        <ele>165.199997</ele>
        <time>2017-08-07T12:19:55Z</time>
      </trkpt>
      <trkpt lat="43.32427" lon="1.89323">
        <ele>165.699997</ele>
        <time>2017-08-07T12:19:58Z</time>
      </trkpt>
      <trkpt lat="43.32426" lon="1.89306">
        <ele>164.800003</ele>
        <time>2017-08-07T12:20:01Z</time>
      </trkpt>
      <trkpt lat="43.32429" lon="1.89294">
        <ele>164.800003</ele>
        <time>2017-08-07T12:20:03Z</time>
      </trkpt>
      <trkpt lat="43.32431" lon="1.89282">
        <ele>163.800003</ele>
        <time>2017-08-07T12:20:05Z</time>
      </trkpt>
      <trkpt lat="43.32432" lon="1.89268">
        <ele>162.199997</ele>
        <time>2017-08-07T12:20:07Z</time>
      </trkpt>
      <trkpt lat="43.32436" lon="1.89253">
        <ele>161.600006</ele>
        <time>2017-08-07T12:20:10Z</time>
      </trkpt>
      <trkpt lat="43.32436" lon="1.89237">
        <ele>161</ele>
        <time>2017-08-07T12:20:13Z</time>
      </trkpt>
      <trkpt lat="43.32439" lon="1.89223">
        <ele>162.199997</ele>
        <time>2017-08-07T12:20:16Z</time>
      </trkpt>
      <trkpt lat="43.32439" lon="1.8921">
        <ele>163.300003</ele>
        <time>2017-08-07T12:20:18Z</time>
      </trkpt>
      <trkpt lat="43.32442" lon="1.89195">
        <ele>164.100006</ele>
        <time>2017-08-07T12:20:21Z</time>
      </trkpt>
      <trkpt lat="43.32445" lon="1.89179">
        <ele>164.399994</ele>
        <time>2017-08-07T12:20:24Z</time>
      </trkpt>
      <trkpt lat="43.32447" lon="1.89162">
        <ele>164</ele>
        <time>2017-08-07T12:20:27Z</time>
      </trkpt>
      <trkpt lat="43.32449" lon="1.8915">
        <ele>163.5</ele>
        <time>2017-08-07T12:20:29Z</time>
      </trkpt>
      <trkpt lat="43.32453" lon="1.89138">
        <ele>162.800003</ele>
        <time>2017-08-07T12:20:31Z</time>
      </trkpt>
      <trkpt lat="43.32455" lon="1.89125">
        <ele>162</ele>
        <time>2017-08-07T12:20:33Z</time>
      </trkpt>
      <trkpt lat="43.32459" lon="1.89109">
        <ele>161.600006</ele>
        <time>2017-08-07T12:20:36Z</time>
      </trkpt>
      <trkpt lat="43.32463" lon="1.89093">
        <ele>161.800003</ele>
        <time>2017-08-07T12:20:39Z</time>
      </trkpt>
      <trkpt lat="43.32467" lon="1.89077">
        <ele>162.800003</ele>
        <time>2017-08-07T12:20:42Z</time>
      </trkpt>
      <trkpt lat="43.32471" lon="1.8906">
        <ele>163.199997</ele>
        <time>2017-08-07T12:20:45Z</time>
      </trkpt>
      <trkpt lat="43.32474" lon="1.89045">
        <ele>163.300003</ele>
        <time>2017-08-07T12:20:48Z</time>
      </trkpt>
      <trkpt lat="43.32475" lon="1.89028">
        <ele>163.600006</ele>
        <time>2017-08-07T12:20:52Z</time>
      </trkpt>
      <trkpt lat="43.32477" lon="1.89015">
        <ele>164</ele>
        <time>2017-08-07T12:20:55Z</time>
      </trkpt>
      <trkpt lat="43.3248" lon="1.88999">
        <ele>165.300003</ele>
        <time>2017-08-07T12:20:58Z</time>
      </trkpt>
      <trkpt lat="43.32483" lon="1.88985">
        <ele>166.5</ele>
        <time>2017-08-07T12:21:01Z</time>
      </trkpt>
      <trkpt lat="43.32489" lon="1.8897">
        <ele>167</ele>
        <time>2017-08-07T12:21:04Z</time>
      </trkpt>
      <trkpt lat="43.32495" lon="1.88956">
        <ele>167.399994</ele>
        <time>2017-08-07T12:21:07Z</time>
      </trkpt>
      <trkpt lat="43.32498" lon="1.88941">
        <ele>168.800003</ele>
        <time>2017-08-07T12:21:10Z</time>
      </trkpt>
      <trkpt lat="43.32502" lon="1.88929">
        <ele>170</ele>
        <time>2017-08-07T12:21:12Z</time>
      </trkpt>
      <trkpt lat="43.32507" lon="1.88918">
        <ele>170.899994</ele>
        <time>2017-08-07T12:21:15Z</time>
      </trkpt>
      <trkpt lat="43.3251" lon="1.88902">
        <ele>171.600006</ele>
        <time>2017-08-07T12:21:18Z</time>
      </trkpt>
      <trkpt lat="43.3251" lon="1.88889">
        <ele>171.699997</ele>
        <time>2017-08-07T12:21:20Z</time>
      </trkpt>
      <trkpt lat="43.32515" lon="1.88879">
        <ele>172.100006</ele>
        <time>2017-08-07T12:21:23Z</time>
      </trkpt>
      <trkpt lat="43.32515" lon="1.88862">
        <ele>172.899994</ele>
        <time>2017-08-07T12:21:26Z</time>
      </trkpt>
      <trkpt lat="43.32515" lon="1.88847">
        <ele>173.899994</ele>
        <time>2017-08-07T12:21:29Z</time>
      </trkpt>
      <trkpt lat="43.32515" lon="1.88833">
        <ele>173.199997</ele>
        <time>2017-08-07T12:21:32Z</time>
      </trkpt>
      <trkpt lat="43.32518" lon="1.88817">
        <ele>172.399994</ele>
        <time>2017-08-07T12:21:36Z</time>
      </trkpt>
      <trkpt lat="43.32521" lon="1.88802">
        <ele>172.5</ele>
        <time>2017-08-07T12:21:39Z</time>
      </trkpt>
      <trkpt lat="43.3252" lon="1.88789">
        <ele>172.399994</ele>
        <time>2017-08-07T12:21:41Z</time>
      </trkpt>
      <trkpt lat="43.3252" lon="1.88771">
        <ele>171.899994</ele>
        <time>2017-08-07T12:21:44Z</time>
      </trkpt>
      <trkpt lat="43.32521" lon="1.88758">
        <ele>171.899994</ele>
        <time>2017-08-07T12:21:46Z</time>
      </trkpt>
      <trkpt lat="43.3252" lon="1.88744">
        <ele>171.899994</ele>
        <time>2017-08-07T12:21:48Z</time>
      </trkpt>
      <trkpt lat="43.32519" lon="1.88726">
        <ele>172</ele>
        <time>2017-08-07T12:21:51Z</time>
      </trkpt>
      <trkpt lat="43.32518" lon="1.88707">
        <ele>172.600006</ele>
        <time>2017-08-07T12:21:54Z</time>
      </trkpt>
      <trkpt lat="43.32517" lon="1.88693">
        <ele>172.899994</ele>
        <time>2017-08-07T12:21:56Z</time>
      </trkpt>
      <trkpt lat="43.32516" lon="1.88679">
        <ele>173.300003</ele>
        <time>2017-08-07T12:21:58Z</time>
      </trkpt>
      <trkpt lat="43.32516" lon="1.88662">
        <ele>173.300003</ele>
        <time>2017-08-07T12:22:01Z</time>
      </trkpt>
      <trkpt lat="43.32515" lon="1.88648">
        <ele>173.100006</ele>
        <time>2017-08-07T12:22:04Z</time>
      </trkpt>
      <trkpt lat="43.32514" lon="1.8863">
        <ele>172.300003</ele>
        <time>2017-08-07T12:22:07Z</time>
      </trkpt>
      <trkpt lat="43.32514" lon="1.88613">
        <ele>171.300003</ele>
        <time>2017-08-07T12:22:10Z</time>
      </trkpt>
      <trkpt lat="43.32517" lon="1.886">
        <ele>170.800003</ele>
        <time>2017-08-07T12:22:13Z</time>
      </trkpt>
      <trkpt lat="43.32517" lon="1.88588">
        <ele>170.699997</ele>
        <time>2017-08-07T12:22:16Z</time>
      </trkpt>
      <trkpt lat="43.32518" lon="1.88573">
        <ele>170.600006</ele>
        <time>2017-08-07T12:22:19Z</time>
      </trkpt>
      <trkpt lat="43.32517" lon="1.88556">
        <ele>170.5</ele>
        <time>2017-08-07T12:22:23Z</time>
      </trkpt>
      <trkpt lat="43.32517" lon="1.88541">
        <ele>170.5</ele>
        <time>2017-08-07T12:22:27Z</time>
      </trkpt>
      <trkpt lat="43.32518" lon="1.88527">
        <ele>171.100006</ele>
        <time>2017-08-07T12:22:31Z</time>
      </trkpt>
      <trkpt lat="43.32519" lon="1.88511">
        <ele>172</ele>
        <time>2017-08-07T12:22:35Z</time>
      </trkpt>
      <trkpt lat="43.32518" lon="1.88499">
        <ele>173.199997</ele>
        <time>2017-08-07T12:22:38Z</time>
      </trkpt>
      <trkpt lat="43.3252" lon="1.88483">
        <ele>175</ele>
        <time>2017-08-07T12:22:42Z</time>
      </trkpt>
      <trkpt lat="43.3252" lon="1.88468">
        <ele>176.600006</ele>
        <time>2017-08-07T12:22:46Z</time>
      </trkpt>
      <trkpt lat="43.32519" lon="1.88454">
        <ele>178</ele>
        <time>2017-08-07T12:22:50Z</time>
      </trkpt>
      <trkpt lat="43.3252" lon="1.8844">
        <ele>179.5</ele>
        <time>2017-08-07T12:22:55Z</time>
      </trkpt>
      <trkpt lat="43.32519" lon="1.88426">
        <ele>180.199997</ele>
        <time>2017-08-07T12:23:00Z</time>
      </trkpt>
      <trkpt lat="43.32518" lon="1.88412">
        <ele>179.199997</ele>
        <time>2017-08-07T12:23:06Z</time>
      </trkpt>
      <trkpt lat="43.32518" lon="1.88399">
        <ele>178.399994</ele>
        <time>2017-08-07T12:23:11Z</time>
      </trkpt>
      <trkpt lat="43.32517" lon="1.88387">
        <ele>178.300003</ele>
        <time>2017-08-07T12:23:15Z</time>
      </trkpt>
      <trkpt lat="43.32519" lon="1.88373">
        <ele>178.300003</ele>
        <time>2017-08-07T12:23:21Z</time>
      </trkpt>
      <trkpt lat="43.3252" lon="1.88357">
        <ele>178.399994</ele>
        <time>2017-08-07T12:23:25Z</time>
      </trkpt>
      <trkpt lat="43.32519" lon="1.88344">
        <ele>178.300003</ele>
        <time>2017-08-07T12:23:29Z</time>
      </trkpt>
      <trkpt lat="43.32517" lon="1.88328">
        <ele>177.800003</ele>
        <time>2017-08-07T12:23:33Z</time>
      </trkpt>
      <trkpt lat="43.32517" lon="1.88313">
        <ele>177</ele>
        <time>2017-08-07T12:23:37Z</time>
      </trkpt>
      <trkpt lat="43.32518" lon="1.88296">
        <ele>176.100006</ele>
        <time>2017-08-07T12:23:41Z</time>
      </trkpt>
      <trkpt lat="43.32519" lon="1.88278">
        <ele>174.600006</ele>
        <time>2017-08-07T12:23:44Z</time>
      </trkpt>
      <trkpt lat="43.32521" lon="1.8826">
        <ele>173.199997</ele>
        <time>2017-08-07T12:23:47Z</time>
      </trkpt>
      <trkpt lat="43.32523" lon="1.88244">
        <ele>173.399994</ele>
        <time>2017-08-07T12:23:50Z</time>
      </trkpt>
      <trkpt lat="43.32529" lon="1.88231">
        <ele>174.399994</ele>
        <time>2017-08-07T12:23:53Z</time>
      </trkpt>
      <trkpt lat="43.32534" lon="1.88218">
        <ele>174.699997</ele>
        <time>2017-08-07T12:23:56Z</time>
      </trkpt>
      <trkpt lat="43.32541" lon="1.88207">
        <ele>175.600006</ele>
        <time>2017-08-07T12:23:59Z</time>
      </trkpt>
      <trkpt lat="43.32549" lon="1.88194">
        <ele>176.899994</ele>
        <time>2017-08-07T12:24:02Z</time>
      </trkpt>
      <trkpt lat="43.32555" lon="1.88182">
        <ele>177.699997</ele>
        <time>2017-08-07T12:24:04Z</time>
      </trkpt>
      <trkpt lat="43.32562" lon="1.8817">
        <ele>179.399994</ele>
        <time>2017-08-07T12:24:07Z</time>
      </trkpt>
      <trkpt lat="43.3257" lon="1.88156">
        <ele>181.699997</ele>
        <time>2017-08-07T12:24:10Z</time>
      </trkpt>
      <trkpt lat="43.32576" lon="1.88146">
        <ele>183.5</ele>
        <time>2017-08-07T12:24:12Z</time>
      </trkpt>
      <trkpt lat="43.32583" lon="1.88129">
        <ele>186.5</ele>
        <time>2017-08-07T12:24:15Z</time>
      </trkpt>
      <trkpt lat="43.32592" lon="1.88117">
        <ele>189.300003</ele>
        <time>2017-08-07T12:24:19Z</time>
      </trkpt>
      <trkpt lat="43.32598" lon="1.88102">
        <ele>191.399994</ele>
        <time>2017-08-07T12:24:22Z</time>
      </trkpt>
      <trkpt lat="43.32602" lon="1.8809">
        <ele>191.600006</ele>
        <time>2017-08-07T12:24:25Z</time>
      </trkpt>
      <trkpt lat="43.32609" lon="1.88075">
        <ele>191.100006</ele>
        <time>2017-08-07T12:24:28Z</time>
      </trkpt>
      <trkpt lat="43.32614" lon="1.88059">
        <ele>190.699997</ele>
        <time>2017-08-07T12:24:31Z</time>
      </trkpt>
      <trkpt lat="43.32619" lon="1.88045">
        <ele>191.199997</ele>
        <time>2017-08-07T12:24:34Z</time>
      </trkpt>
      <trkpt lat="43.32624" lon="1.88033">
        <ele>192.199997</ele>
        <time>2017-08-07T12:24:37Z</time>
      </trkpt>
      <trkpt lat="43.3263" lon="1.88019">
        <ele>193</ele>
        <time>2017-08-07T12:24:40Z</time>
      </trkpt>
      <trkpt lat="43.32637" lon="1.88008">
        <ele>193</ele>
        <time>2017-08-07T12:24:43Z</time>
      </trkpt>
      <trkpt lat="43.32645" lon="1.87996">
        <ele>192.699997</ele>
        <time>2017-08-07T12:24:46Z</time>
      </trkpt>
      <trkpt lat="43.3265" lon="1.87983">
        <ele>192.399994</ele>
        <time>2017-08-07T12:24:49Z</time>
      </trkpt>
      <trkpt lat="43.32657" lon="1.87966">
        <ele>191.699997</ele>
        <time>2017-08-07T12:24:52Z</time>
      </trkpt>
      <trkpt lat="43.3266" lon="1.87949">
        <ele>189.300003</ele>
        <time>2017-08-07T12:24:55Z</time>
      </trkpt>
      <trkpt lat="43.32667" lon="1.87939">
        <ele>186.899994</ele>
        <time>2017-08-07T12:24:58Z</time>
      </trkpt>
      <trkpt lat="43.32676" lon="1.87925">
        <ele>185</ele>
        <time>2017-08-07T12:25:01Z</time>
      </trkpt>
      <trkpt lat="43.32685" lon="1.87911">
        <ele>185.300003</ele>
        <time>2017-08-07T12:25:04Z</time>
      </trkpt>
      <trkpt lat="43.32691" lon="1.87895">
        <ele>185.399994</ele>
        <time>2017-08-07T12:25:07Z</time>
      </trkpt>
      <trkpt lat="43.32695" lon="1.87884">
        <ele>184.600006</ele>
        <time>2017-08-07T12:25:09Z</time>
      </trkpt>
      <trkpt lat="43.32698" lon="1.87871">
        <ele>183.5</ele>
        <time>2017-08-07T12:25:12Z</time>
      </trkpt>
      <trkpt lat="43.327" lon="1.87858">
        <ele>182.399994</ele>
        <time>2017-08-07T12:25:15Z</time>
      </trkpt>
      <trkpt lat="43.32705" lon="1.87843">
        <ele>181.399994</ele>
        <time>2017-08-07T12:25:18Z</time>
      </trkpt>
      <trkpt lat="43.32706" lon="1.87825">
        <ele>177.800003</ele>
        <time>2017-08-07T12:25:21Z</time>
      </trkpt>
      <trkpt lat="43.32709" lon="1.87813">
        <ele>176.100006</ele>
        <time>2017-08-07T12:25:23Z</time>
      </trkpt>
      <trkpt lat="43.32708" lon="1.87799">
        <ele>175.399994</ele>
        <time>2017-08-07T12:25:25Z</time>
      </trkpt>
      <trkpt lat="43.32712" lon="1.87782">
        <ele>176.300003</ele>
        <time>2017-08-07T12:25:28Z</time>
      </trkpt>
      <trkpt lat="43.32713" lon="1.87769">
        <ele>177</ele>
        <time>2017-08-07T12:25:31Z</time>
      </trkpt>
      <trkpt lat="43.32715" lon="1.87752">
        <ele>180.100006</ele>
        <time>2017-08-07T12:25:34Z</time>
      </trkpt>
      <trkpt lat="43.32716" lon="1.87738">
        <ele>183.199997</ele>
        <time>2017-08-07T12:25:37Z</time>
      </trkpt>
      <trkpt lat="43.32717" lon="1.87722">
        <ele>184.100006</ele>
        <time>2017-08-07T12:25:40Z</time>
      </trkpt>
      <trkpt lat="43.32717" lon="1.87707">
        <ele>183.800003</ele>
        <time>2017-08-07T12:25:43Z</time>
      </trkpt>
      <trkpt lat="43.32716" lon="1.87692">
        <ele>183.199997</ele>
        <time>2017-08-07T12:25:46Z</time>
      </trkpt>
      <trkpt lat="43.32719" lon="1.87677">
        <ele>183</ele>
        <time>2017-08-07T12:25:49Z</time>
      </trkpt>
      <trkpt lat="43.3272" lon="1.87661">
        <ele>181.899994</ele>
        <time>2017-08-07T12:25:52Z</time>
      </trkpt>
      <trkpt lat="43.32722" lon="1.87644">
        <ele>180.899994</ele>
        <time>2017-08-07T12:25:55Z</time>
      </trkpt>
      <trkpt lat="43.32722" lon="1.87628">
        <ele>179.800003</ele>
        <time>2017-08-07T12:25:58Z</time>
      </trkpt>
      <trkpt lat="43.32724" lon="1.87612">
        <ele>179.5</ele>
        <time>2017-08-07T12:26:01Z</time>
      </trkpt>
      <trkpt lat="43.32724" lon="1.876">
        <ele>179.399994</ele>
        <time>2017-08-07T12:26:03Z</time>
      </trkpt>
      <trkpt lat="43.32725" lon="1.87582">
        <ele>178.699997</ele>
        <time>2017-08-07T12:26:06Z</time>
      </trkpt>
      <trkpt lat="43.32725" lon="1.87565">
        <ele>177.899994</ele>
        <time>2017-08-07T12:26:09Z</time>
      </trkpt>
      <trkpt lat="43.32729" lon="1.87551">
        <ele>177.899994</ele>
        <time>2017-08-07T12:26:12Z</time>
      </trkpt>
      <trkpt lat="43.32731" lon="1.87533">
        <ele>177.600006</ele>
        <time>2017-08-07T12:26:15Z</time>
      </trkpt>
      <trkpt lat="43.32732" lon="1.8752">
        <ele>177.199997</ele>
        <time>2017-08-07T12:26:17Z</time>
      </trkpt>
      <trkpt lat="43.32733" lon="1.87508">
        <ele>177.300003</ele>
        <time>2017-08-07T12:26:19Z</time>
      </trkpt>
      <trkpt lat="43.32734" lon="1.87495">
        <ele>178.100006</ele>
        <time>2017-08-07T12:26:21Z</time>
      </trkpt>
      <trkpt lat="43.32738" lon="1.8748">
        <ele>179.300003</ele>
        <time>2017-08-07T12:26:24Z</time>
      </trkpt>
      <trkpt lat="43.32737" lon="1.87464">
        <ele>179.199997</ele>
        <time>2017-08-07T12:26:27Z</time>
      </trkpt>
      <trkpt lat="43.32737" lon="1.87447">
        <ele>178.5</ele>
        <time>2017-08-07T12:26:30Z</time>
      </trkpt>
      <trkpt lat="43.32736" lon="1.87434">
        <ele>177.399994</ele>
        <time>2017-08-07T12:26:32Z</time>
      </trkpt>
      <trkpt lat="43.32739" lon="1.87421">
        <ele>176.899994</ele>
        <time>2017-08-07T12:26:35Z</time>
      </trkpt>
      <trkpt lat="43.32744" lon="1.87405">
        <ele>177.199997</ele>
        <time>2017-08-07T12:26:38Z</time>
      </trkpt>
      <trkpt lat="43.3275" lon="1.87394">
        <ele>177.600006</ele>
        <time>2017-08-07T12:26:39Z</time>
      </trkpt>
      <trkpt lat="43.32753" lon="1.87379">
        <ele>177.399994</ele>
        <time>2017-08-07T12:26:42Z</time>
      </trkpt>
      <trkpt lat="43.32758" lon="1.87364">
        <ele>177.199997</ele>
        <time>2017-08-07T12:26:44Z</time>
      </trkpt>
      <trkpt lat="43.32759" lon="1.87349">
        <ele>176.399994</ele>
        <time>2017-08-07T12:26:47Z</time>
      </trkpt>
      <trkpt lat="43.32762" lon="1.87335">
        <ele>175.800003</ele>
        <time>2017-08-07T12:26:50Z</time>
      </trkpt>
      <trkpt lat="43.32767" lon="1.87321">
        <ele>175.600006</ele>
        <time>2017-08-07T12:26:53Z</time>
      </trkpt>
      <trkpt lat="43.32771" lon="1.87309">
        <ele>175.600006</ele>
        <time>2017-08-07T12:26:56Z</time>
      </trkpt>
      <trkpt lat="43.32777" lon="1.87295">
        <ele>175.600006</ele>
        <time>2017-08-07T12:26:59Z</time>
      </trkpt>
      <trkpt lat="43.32784" lon="1.87279">
        <ele>175.699997</ele>
        <time>2017-08-07T12:27:02Z</time>
      </trkpt>
      <trkpt lat="43.3279" lon="1.87266">
        <ele>175.199997</ele>
        <time>2017-08-07T12:27:05Z</time>
      </trkpt>
      <trkpt lat="43.32795" lon="1.87253">
        <ele>174.100006</ele>
        <time>2017-08-07T12:27:08Z</time>
      </trkpt>
      <trkpt lat="43.32799" lon="1.87239">
        <ele>173</ele>
        <time>2017-08-07T12:27:11Z</time>
      </trkpt>
      <trkpt lat="43.32803" lon="1.87227">
        <ele>172.300003</ele>
        <time>2017-08-07T12:27:14Z</time>
      </trkpt>
      <trkpt lat="43.32807" lon="1.87216">
        <ele>172</ele>
        <time>2017-08-07T12:27:17Z</time>
      </trkpt>
      <trkpt lat="43.32812" lon="1.87202">
        <ele>171.699997</ele>
        <time>2017-08-07T12:27:21Z</time>
      </trkpt>
      <trkpt lat="43.32819" lon="1.8719">
        <ele>172.199997</ele>
        <time>2017-08-07T12:27:24Z</time>
      </trkpt>
      <trkpt lat="43.32823" lon="1.87174">
        <ele>172.800003</ele>
        <time>2017-08-07T12:27:27Z</time>
      </trkpt>
      <trkpt lat="43.32829" lon="1.8716">
        <ele>174.300003</ele>
        <time>2017-08-07T12:27:30Z</time>
      </trkpt>
      <trkpt lat="43.32832" lon="1.87145">
        <ele>175.100006</ele>
        <time>2017-08-07T12:27:33Z</time>
      </trkpt>
      <trkpt lat="43.32835" lon="1.87127">
        <ele>175.5</ele>
        <time>2017-08-07T12:27:36Z</time>
      </trkpt>
      <trkpt lat="43.32839" lon="1.87115">
        <ele>175.600006</ele>
        <time>2017-08-07T12:27:39Z</time>
      </trkpt>
      <trkpt lat="43.32846" lon="1.87103">
        <ele>176.100006</ele>
        <time>2017-08-07T12:27:42Z</time>
      </trkpt>
      <trkpt lat="43.32854" lon="1.87093">
        <ele>176.5</ele>
        <time>2017-08-07T12:27:46Z</time>
      </trkpt>
      <trkpt lat="43.32853" lon="1.87079">
        <ele>175.899994</ele>
        <time>2017-08-07T12:28:35Z</time>
      </trkpt>
      <trkpt lat="43.32857" lon="1.87064">
        <ele>175.600006</ele>
        <time>2017-08-07T12:28:40Z</time>
      </trkpt>
      <trkpt lat="43.3286" lon="1.87049">
        <ele>175.899994</ele>
        <time>2017-08-07T12:28:44Z</time>
      </trkpt>
      <trkpt lat="43.32864" lon="1.87035">
        <ele>175.899994</ele>
        <time>2017-08-07T12:28:48Z</time>
      </trkpt>
      <trkpt lat="43.32868" lon="1.87023">
        <ele>175.600006</ele>
        <time>2017-08-07T12:28:53Z</time>
      </trkpt>
      <trkpt lat="43.32871" lon="1.8701">
        <ele>175.300003</ele>
        <time>2017-08-07T12:28:58Z</time>
      </trkpt>
      <trkpt lat="43.32874" lon="1.86997">
        <ele>175.800003</ele>
        <time>2017-08-07T12:29:03Z</time>
      </trkpt>
      <trkpt lat="43.32875" lon="1.86984">
        <ele>175.899994</ele>
        <time>2017-08-07T12:29:07Z</time>
      </trkpt>
      <trkpt lat="43.32878" lon="1.8697">
        <ele>175.699997</ele>
        <time>2017-08-07T12:29:12Z</time>
      </trkpt>
      <trkpt lat="43.32883" lon="1.86958">
        <ele>176.5</ele>
        <time>2017-08-07T12:29:16Z</time>
      </trkpt>
      <trkpt lat="43.32886" lon="1.86944">
        <ele>176.899994</ele>
        <time>2017-08-07T12:29:19Z</time>
      </trkpt>
      <trkpt lat="43.32889" lon="1.86931">
        <ele>177</ele>
        <time>2017-08-07T12:29:22Z</time>
      </trkpt>
      <trkpt lat="43.32894" lon="1.86919">
        <ele>178.100006</ele>
        <time>2017-08-07T12:29:25Z</time>
      </trkpt>
      <trkpt lat="43.32898" lon="1.86904">
        <ele>178.699997</ele>
        <time>2017-08-07T12:29:28Z</time>
      </trkpt>
      <trkpt lat="43.32904" lon="1.8689">
        <ele>180.300003</ele>
        <time>2017-08-07T12:29:31Z</time>
      </trkpt>
      <trkpt lat="43.32909" lon="1.86874">
        <ele>181.399994</ele>
        <time>2017-08-07T12:29:34Z</time>
      </trkpt>
      <trkpt lat="43.3291" lon="1.8686">
        <ele>181.699997</ele>
        <time>2017-08-07T12:29:37Z</time>
      </trkpt>
      <trkpt lat="43.32911" lon="1.86846">
        <ele>181.899994</ele>
        <time>2017-08-07T12:29:40Z</time>
      </trkpt>
      <trkpt lat="43.32911" lon="1.86829">
        <ele>181.899994</ele>
        <time>2017-08-07T12:29:43Z</time>
      </trkpt>
      <trkpt lat="43.3291" lon="1.86812">
        <ele>181.699997</ele>
        <time>2017-08-07T12:29:46Z</time>
      </trkpt>
      <trkpt lat="43.3291" lon="1.86796">
        <ele>182.100006</ele>
        <time>2017-08-07T12:29:49Z</time>
      </trkpt>
      <trkpt lat="43.32908" lon="1.86778">
        <ele>182.300003</ele>
        <time>2017-08-07T12:29:52Z</time>
      </trkpt>
      <trkpt lat="43.32907" lon="1.86765">
        <ele>182.5</ele>
        <time>2017-08-07T12:29:54Z</time>
      </trkpt>
      <trkpt lat="43.32904" lon="1.86749">
        <ele>181.800003</ele>
        <time>2017-08-07T12:29:57Z</time>
      </trkpt>
      <trkpt lat="43.32904" lon="1.86732">
        <ele>181.199997</ele>
        <time>2017-08-07T12:30:00Z</time>
      </trkpt>
      <trkpt lat="43.32904" lon="1.8672">
        <ele>181.100006</ele>
        <time>2017-08-07T12:30:02Z</time>
      </trkpt>
      <trkpt lat="43.32902" lon="1.86701">
        <ele>180.699997</ele>
        <time>2017-08-07T12:30:05Z</time>
      </trkpt>
      <trkpt lat="43.32902" lon="1.86683">
        <ele>180.100006</ele>
        <time>2017-08-07T12:30:08Z</time>
      </trkpt>
      <trkpt lat="43.32902" lon="1.86666">
        <ele>179.5</ele>
        <time>2017-08-07T12:30:11Z</time>
      </trkpt>
      <trkpt lat="43.32904" lon="1.86654">
        <ele>179.300003</ele>
        <time>2017-08-07T12:30:13Z</time>
      </trkpt>
      <trkpt lat="43.32906" lon="1.86641">
        <ele>178.800003</ele>
        <time>2017-08-07T12:30:15Z</time>
      </trkpt>
      <trkpt lat="43.32908" lon="1.86625">
        <ele>177.899994</ele>
        <time>2017-08-07T12:30:18Z</time>
      </trkpt>
      <trkpt lat="43.3291" lon="1.8661">
        <ele>177.399994</ele>
        <time>2017-08-07T12:30:21Z</time>
      </trkpt>
      <trkpt lat="43.32912" lon="1.86593">
        <ele>176.899994</ele>
        <time>2017-08-07T12:30:24Z</time>
      </trkpt>
      <trkpt lat="43.32916" lon="1.86578">
        <ele>176.5</ele>
        <time>2017-08-07T12:30:27Z</time>
      </trkpt>
      <trkpt lat="43.3292" lon="1.86561">
        <ele>176.199997</ele>
        <time>2017-08-07T12:30:30Z</time>
      </trkpt>
      <trkpt lat="43.32923" lon="1.86544">
        <ele>176.399994</ele>
        <time>2017-08-07T12:30:33Z</time>
      </trkpt>
      <trkpt lat="43.32926" lon="1.86529">
        <ele>176.5</ele>
        <time>2017-08-07T12:30:36Z</time>
      </trkpt>
      <trkpt lat="43.32927" lon="1.86512">
        <ele>176.600006</ele>
        <time>2017-08-07T12:30:39Z</time>
      </trkpt>
      <trkpt lat="43.3293" lon="1.86494">
        <ele>176.899994</ele>
        <time>2017-08-07T12:30:42Z</time>
      </trkpt>
      <trkpt lat="43.32934" lon="1.86478">
        <ele>177.199997</ele>
        <time>2017-08-07T12:30:45Z</time>
      </trkpt>
      <trkpt lat="43.32937" lon="1.86462">
        <ele>177.100006</ele>
        <time>2017-08-07T12:30:48Z</time>
      </trkpt>
      <trkpt lat="43.32939" lon="1.86445">
        <ele>176.699997</ele>
        <time>2017-08-07T12:30:51Z</time>
      </trkpt>
      <trkpt lat="43.32943" lon="1.86434">
        <ele>176.899994</ele>
        <time>2017-08-07T12:30:53Z</time>
      </trkpt>
      <trkpt lat="43.32946" lon="1.86416">
        <ele>176.5</ele>
        <time>2017-08-07T12:30:56Z</time>
      </trkpt>
      <trkpt lat="43.3295" lon="1.864">
        <ele>176.199997</ele>
        <time>2017-08-07T12:30:59Z</time>
      </trkpt>
      <trkpt lat="43.32954" lon="1.86384">
        <ele>177</ele>
        <time>2017-08-07T12:31:02Z</time>
      </trkpt>
      <trkpt lat="43.32958" lon="1.86368">
        <ele>177.800003</ele>
        <time>2017-08-07T12:31:05Z</time>
      </trkpt>
      <trkpt lat="43.32961" lon="1.86353">
        <ele>178.399994</ele>
        <time>2017-08-07T12:31:08Z</time>
      </trkpt>
      <trkpt lat="43.32964" lon="1.86336">
        <ele>178.899994</ele>
        <time>2017-08-07T12:31:11Z</time>
      </trkpt>
      <trkpt lat="43.32965" lon="1.8632">
        <ele>179</ele>
        <time>2017-08-07T12:31:15Z</time>
      </trkpt>
      <trkpt lat="43.32971" lon="1.86305">
        <ele>180</ele>
        <time>2017-08-07T12:31:18Z</time>
      </trkpt>
      <trkpt lat="43.32972" lon="1.86292">
        <ele>180.399994</ele>
        <time>2017-08-07T12:31:20Z</time>
      </trkpt>
      <trkpt lat="43.32975" lon="1.86279">
        <ele>180.699997</ele>
        <time>2017-08-07T12:31:22Z</time>
      </trkpt>
      <trkpt lat="43.32979" lon="1.86262">
        <ele>181.199997</ele>
        <time>2017-08-07T12:31:25Z</time>
      </trkpt>
      <trkpt lat="43.32982" lon="1.8625">
        <ele>181.300003</ele>
        <time>2017-08-07T12:31:27Z</time>
      </trkpt>
      <trkpt lat="43.32988" lon="1.86237">
        <ele>181.300003</ele>
        <time>2017-08-07T12:31:30Z</time>
      </trkpt>
      <trkpt lat="43.32994" lon="1.86222">
        <ele>181.5</ele>
        <time>2017-08-07T12:31:33Z</time>
      </trkpt>
      <trkpt lat="43.33" lon="1.86207">
        <ele>182</ele>
        <time>2017-08-07T12:31:36Z</time>
      </trkpt>
      <trkpt lat="43.33005" lon="1.86195">
        <ele>182.600006</ele>
        <time>2017-08-07T12:31:38Z</time>
      </trkpt>
      <trkpt lat="43.33006" lon="1.86176">
        <ele>183</ele>
        <time>2017-08-07T12:31:42Z</time>
      </trkpt>
      <trkpt lat="43.3301" lon="1.86163">
        <ele>184.5</ele>
        <time>2017-08-07T12:31:46Z</time>
      </trkpt>
      <trkpt lat="43.33012" lon="1.8615">
        <ele>185.699997</ele>
        <time>2017-08-07T12:31:53Z</time>
      </trkpt>
      <trkpt lat="43.33015" lon="1.86136">
        <ele>186.600006</ele>
        <time>2017-08-07T12:31:58Z</time>
      </trkpt>
      <trkpt lat="43.33021" lon="1.86122">
        <ele>186.800003</ele>
        <time>2017-08-07T12:32:03Z</time>
      </trkpt>
      <trkpt lat="43.33025" lon="1.86109">
        <ele>185.800003</ele>
        <time>2017-08-07T12:32:08Z</time>
      </trkpt>
      <trkpt lat="43.33025" lon="1.86096">
        <ele>184.800003</ele>
        <time>2017-08-07T12:32:12Z</time>
      </trkpt>
      <trkpt lat="43.3303" lon="1.86083">
        <ele>183.5</ele>
        <time>2017-08-07T12:32:17Z</time>
      </trkpt>
      <trkpt lat="43.33035" lon="1.86067">
        <ele>182.100006</ele>
        <time>2017-08-07T12:32:21Z</time>
      </trkpt>
      <trkpt lat="43.33039" lon="1.86055">
        <ele>180.699997</ele>
        <time>2017-08-07T12:32:24Z</time>
      </trkpt>
      <trkpt lat="43.33044" lon="1.86041">
        <ele>179.600006</ele>
        <time>2017-08-07T12:32:27Z</time>
      </trkpt>
      <trkpt lat="43.33048" lon="1.86029">
        <ele>178.100006</ele>
        <time>2017-08-07T12:32:30Z</time>
      </trkpt>
      <trkpt lat="43.33051" lon="1.86015">
        <ele>176.699997</ele>
        <time>2017-08-07T12:32:33Z</time>
      </trkpt>
      <trkpt lat="43.33052" lon="1.85999">
        <ele>175.5</ele>
        <time>2017-08-07T12:32:37Z</time>
      </trkpt>
      <trkpt lat="43.33057" lon="1.85988">
        <ele>175.5</ele>
        <time>2017-08-07T12:32:41Z</time>
      </trkpt>
      <trkpt lat="43.33062" lon="1.85973">
        <ele>174.899994</ele>
        <time>2017-08-07T12:32:45Z</time>
      </trkpt>
      <trkpt lat="43.33065" lon="1.85959">
        <ele>173.800003</ele>
        <time>2017-08-07T12:32:49Z</time>
      </trkpt>
      <trkpt lat="43.33069" lon="1.85945">
        <ele>172.600006</ele>
        <time>2017-08-07T12:32:53Z</time>
      </trkpt>
      <trkpt lat="43.33073" lon="1.85932">
        <ele>172.100006</ele>
        <time>2017-08-07T12:32:56Z</time>
      </trkpt>
      <trkpt lat="43.33078" lon="1.85916">
        <ele>171.399994</ele>
        <time>2017-08-07T12:32:59Z</time>
      </trkpt>
      <trkpt lat="43.33082" lon="1.85901">
        <ele>170.600006</ele>
        <time>2017-08-07T12:33:02Z</time>
      </trkpt>
      <trkpt lat="43.33084" lon="1.85886">
        <ele>170.600006</ele>
        <time>2017-08-07T12:33:05Z</time>
      </trkpt>
      <trkpt lat="43.33091" lon="1.8587">
        <ele>171.399994</ele>
        <time>2017-08-07T12:33:09Z</time>
      </trkpt>
      <trkpt lat="43.33096" lon="1.85854">
        <ele>171.5</ele>
        <time>2017-08-07T12:33:12Z</time>
      </trkpt>
      <trkpt lat="43.33103" lon="1.85841">
        <ele>172.300003</ele>
        <time>2017-08-07T12:33:15Z</time>
      </trkpt>
      <trkpt lat="43.33111" lon="1.85827">
        <ele>173.600006</ele>
        <time>2017-08-07T12:33:18Z</time>
      </trkpt>
      <trkpt lat="43.33117" lon="1.85812">
        <ele>174.699997</ele>
        <time>2017-08-07T12:33:21Z</time>
      </trkpt>
      <trkpt lat="43.33123" lon="1.85798">
        <ele>175.699997</ele>
        <time>2017-08-07T12:33:24Z</time>
      </trkpt>
      <trkpt lat="43.33128" lon="1.85783">
        <ele>175.800003</ele>
        <time>2017-08-07T12:33:27Z</time>
      </trkpt>
      <trkpt lat="43.33134" lon="1.85769">
        <ele>175.699997</ele>
        <time>2017-08-07T12:33:30Z</time>
      </trkpt>
      <trkpt lat="43.33142" lon="1.85755">
        <ele>176.199997</ele>
        <time>2017-08-07T12:33:33Z</time>
      </trkpt>
      <trkpt lat="43.33148" lon="1.8574">
        <ele>176.300003</ele>
        <time>2017-08-07T12:33:36Z</time>
      </trkpt>
      <trkpt lat="43.33155" lon="1.85731">
        <ele>176.600006</ele>
        <time>2017-08-07T12:33:38Z</time>
      </trkpt>
      <trkpt lat="43.3316" lon="1.8572">
        <ele>176.199997</ele>
        <time>2017-08-07T12:33:40Z</time>
      </trkpt>
      <trkpt lat="43.33165" lon="1.85706">
        <ele>175.199997</ele>
        <time>2017-08-07T12:33:43Z</time>
      </trkpt>
      <trkpt lat="43.33171" lon="1.85694">
        <ele>175</ele>
        <time>2017-08-07T12:33:46Z</time>
      </trkpt>
      <trkpt lat="43.33175" lon="1.85682">
        <ele>174.199997</ele>
        <time>2017-08-07T12:33:48Z</time>
      </trkpt>
      <trkpt lat="43.33182" lon="1.85669">
        <ele>174</ele>
        <time>2017-08-07T12:33:51Z</time>
      </trkpt>
      <trkpt lat="43.33185" lon="1.85656">
        <ele>174.100006</ele>
        <time>2017-08-07T12:33:53Z</time>
      </trkpt>
      <trkpt lat="43.33188" lon="1.85641">
        <ele>175.300003</ele>
        <time>2017-08-07T12:33:56Z</time>
      </trkpt>
      <trkpt lat="43.33191" lon="1.85624">
        <ele>176.399994</ele>
        <time>2017-08-07T12:33:59Z</time>
      </trkpt>
      <trkpt lat="43.33192" lon="1.85609">
        <ele>177.300003</ele>
        <time>2017-08-07T12:34:02Z</time>
      </trkpt>
      <trkpt lat="43.33192" lon="1.85593">
        <ele>178.100006</ele>
        <time>2017-08-07T12:34:05Z</time>
      </trkpt>
      <trkpt lat="43.33193" lon="1.85577">
        <ele>178.800003</ele>
        <time>2017-08-07T12:34:09Z</time>
      </trkpt>
      <trkpt lat="43.33194" lon="1.8556">
        <ele>179.300003</ele>
        <time>2017-08-07T12:34:13Z</time>
      </trkpt>
      <trkpt lat="43.33194" lon="1.85546">
        <ele>179.399994</ele>
        <time>2017-08-07T12:34:16Z</time>
      </trkpt>
      <trkpt lat="43.33195" lon="1.8553">
        <ele>179.399994</ele>
        <time>2017-08-07T12:34:19Z</time>
      </trkpt>
      <trkpt lat="43.33196" lon="1.85515">
        <ele>179.199997</ele>
        <time>2017-08-07T12:34:22Z</time>
      </trkpt>
      <trkpt lat="43.33196" lon="1.85502">
        <ele>179.100006</ele>
        <time>2017-08-07T12:34:25Z</time>
      </trkpt>
      <trkpt lat="43.33195" lon="1.85486">
        <ele>178.699997</ele>
        <time>2017-08-07T12:34:29Z</time>
      </trkpt>
      <trkpt lat="43.33195" lon="1.85473">
        <ele>178.699997</ele>
        <time>2017-08-07T12:34:32Z</time>
      </trkpt>
      <trkpt lat="43.33196" lon="1.8546">
        <ele>178.699997</ele>
        <time>2017-08-07T12:34:34Z</time>
      </trkpt>
      <trkpt lat="43.33198" lon="1.85443">
        <ele>177.800003</ele>
        <time>2017-08-07T12:34:37Z</time>
      </trkpt>
      <trkpt lat="43.33199" lon="1.85427">
        <ele>176.5</ele>
        <time>2017-08-07T12:34:40Z</time>
      </trkpt>
      <trkpt lat="43.33198" lon="1.85415">
        <ele>175.399994</ele>
        <time>2017-08-07T12:34:44Z</time>
      </trkpt>
      <trkpt lat="43.33203" lon="1.854">
        <ele>174.100006</ele>
        <time>2017-08-07T12:34:48Z</time>
      </trkpt>
      <trkpt lat="43.33207" lon="1.85387">
        <ele>173</ele>
        <time>2017-08-07T12:34:51Z</time>
      </trkpt>
      <trkpt lat="43.33211" lon="1.85372">
        <ele>172.399994</ele>
        <time>2017-08-07T12:34:54Z</time>
      </trkpt>
      <trkpt lat="43.33217" lon="1.85357">
        <ele>172.800003</ele>
        <time>2017-08-07T12:34:57Z</time>
      </trkpt>
      <trkpt lat="43.33223" lon="1.85341">
        <ele>172.899994</ele>
        <time>2017-08-07T12:35:01Z</time>
      </trkpt>
      <trkpt lat="43.33229" lon="1.85324">
        <ele>172.899994</ele>
        <time>2017-08-07T12:35:04Z</time>
      </trkpt>
      <trkpt lat="43.33236" lon="1.85311">
        <ele>173.199997</ele>
        <time>2017-08-07T12:35:07Z</time>
      </trkpt>
      <trkpt lat="43.33241" lon="1.85296">
        <ele>174.300003</ele>
        <time>2017-08-07T12:35:11Z</time>
      </trkpt>
      <trkpt lat="43.33246" lon="1.85282">
        <ele>174.899994</ele>
        <time>2017-08-07T12:35:14Z</time>
      </trkpt>
      <trkpt lat="43.33251" lon="1.85266">
        <ele>175.100006</ele>
        <time>2017-08-07T12:35:17Z</time>
      </trkpt>
      <trkpt lat="43.33256" lon="1.85253">
        <ele>175</ele>
        <time>2017-08-07T12:35:20Z</time>
      </trkpt>
      <trkpt lat="43.33262" lon="1.85239">
        <ele>174.899994</ele>
        <time>2017-08-07T12:35:23Z</time>
      </trkpt>
      <trkpt lat="43.33269" lon="1.85226">
        <ele>175.899994</ele>
        <time>2017-08-07T12:35:26Z</time>
      </trkpt>
      <trkpt lat="43.33275" lon="1.85212">
        <ele>177</ele>
        <time>2017-08-07T12:35:30Z</time>
      </trkpt>
      <trkpt lat="43.33281" lon="1.85199">
        <ele>177.800003</ele>
        <time>2017-08-07T12:35:33Z</time>
      </trkpt>
      <trkpt lat="43.33286" lon="1.85184">
        <ele>178.199997</ele>
        <time>2017-08-07T12:35:36Z</time>
      </trkpt>
      <trkpt lat="43.33292" lon="1.85169">
        <ele>179.300003</ele>
        <time>2017-08-07T12:35:40Z</time>
      </trkpt>
      <trkpt lat="43.33293" lon="1.85153">
        <ele>180.100006</ele>
        <time>2017-08-07T12:35:43Z</time>
      </trkpt>
      <trkpt lat="43.33295" lon="1.85141">
        <ele>180.699997</ele>
        <time>2017-08-07T12:35:45Z</time>
      </trkpt>
      <trkpt lat="43.33296" lon="1.85123">
        <ele>181.300003</ele>
        <time>2017-08-07T12:35:48Z</time>
      </trkpt>
      <trkpt lat="43.33296" lon="1.85109">
        <ele>180.899994</ele>
        <time>2017-08-07T12:35:51Z</time>
      </trkpt>
      <trkpt lat="43.33297" lon="1.85094">
        <ele>180.399994</ele>
        <time>2017-08-07T12:35:54Z</time>
      </trkpt>
      <trkpt lat="43.33299" lon="1.8508">
        <ele>180.5</ele>
        <time>2017-08-07T12:35:57Z</time>
      </trkpt>
      <trkpt lat="43.33299" lon="1.85064">
        <ele>180.399994</ele>
        <time>2017-08-07T12:36:00Z</time>
      </trkpt>
      <trkpt lat="43.333" lon="1.85051">
        <ele>180</ele>
        <time>2017-08-07T12:36:02Z</time>
      </trkpt>
      <trkpt lat="43.333" lon="1.85039">
        <ele>179.600006</ele>
        <time>2017-08-07T12:36:04Z</time>
      </trkpt>
      <trkpt lat="43.33303" lon="1.85024">
        <ele>179.600006</ele>
        <time>2017-08-07T12:36:07Z</time>
      </trkpt>
      <trkpt lat="43.33304" lon="1.85007">
        <ele>179.399994</ele>
        <time>2017-08-07T12:36:10Z</time>
      </trkpt>
      <trkpt lat="43.33304" lon="1.84991">
        <ele>179.100006</ele>
        <time>2017-08-07T12:36:13Z</time>
      </trkpt>
      <trkpt lat="43.33306" lon="1.84975">
        <ele>178.699997</ele>
        <time>2017-08-07T12:36:16Z</time>
      </trkpt>
      <trkpt lat="43.33311" lon="1.84963">
        <ele>178.199997</ele>
        <time>2017-08-07T12:36:19Z</time>
      </trkpt>
      <trkpt lat="43.33316" lon="1.84949">
        <ele>178.199997</ele>
        <time>2017-08-07T12:36:22Z</time>
      </trkpt>
      <trkpt lat="43.33325" lon="1.84937">
        <ele>178.899994</ele>
        <time>2017-08-07T12:36:25Z</time>
      </trkpt>
      <trkpt lat="43.3333" lon="1.84923">
        <ele>178.300003</ele>
        <time>2017-08-07T12:36:28Z</time>
      </trkpt>
      <trkpt lat="43.33333" lon="1.8491">
        <ele>177</ele>
        <time>2017-08-07T12:36:31Z</time>
      </trkpt>
      <trkpt lat="43.3334" lon="1.849">
        <ele>175.899994</ele>
        <time>2017-08-07T12:36:35Z</time>
      </trkpt>
      <trkpt lat="43.33351" lon="1.84896">
        <ele>175.699997</ele>
        <time>2017-08-07T12:36:38Z</time>
      </trkpt>
      <trkpt lat="43.3336" lon="1.84885">
        <ele>175.100006</ele>
        <time>2017-08-07T12:36:41Z</time>
      </trkpt>
      <trkpt lat="43.33369" lon="1.84874">
        <ele>174</ele>
        <time>2017-08-07T12:36:44Z</time>
      </trkpt>
      <trkpt lat="43.33375" lon="1.84864">
        <ele>172.5</ele>
        <time>2017-08-07T12:36:47Z</time>
      </trkpt>
      <trkpt lat="43.33383" lon="1.84855">
        <ele>172.199997</ele>
        <time>2017-08-07T12:36:50Z</time>
      </trkpt>
      <trkpt lat="43.3339" lon="1.84848">
        <ele>171.800003</ele>
        <time>2017-08-07T12:36:52Z</time>
      </trkpt>
      <trkpt lat="43.33398" lon="1.84837">
        <ele>171</ele>
        <time>2017-08-07T12:36:55Z</time>
      </trkpt>
      <trkpt lat="43.33407" lon="1.84826">
        <ele>170.300003</ele>
        <time>2017-08-07T12:36:58Z</time>
      </trkpt>
      <trkpt lat="43.33414" lon="1.84813">
        <ele>170.699997</ele>
        <time>2017-08-07T12:37:01Z</time>
      </trkpt>
      <trkpt lat="43.33422" lon="1.848">
        <ele>171.600006</ele>
        <time>2017-08-07T12:37:04Z</time>
      </trkpt>
      <trkpt lat="43.33431" lon="1.84787">
        <ele>172.899994</ele>
        <time>2017-08-07T12:37:07Z</time>
      </trkpt>
      <trkpt lat="43.33439" lon="1.84779">
        <ele>174.199997</ele>
        <time>2017-08-07T12:37:09Z</time>
      </trkpt>
      <trkpt lat="43.33446" lon="1.8477">
        <ele>175.199997</ele>
        <time>2017-08-07T12:37:11Z</time>
      </trkpt>
      <trkpt lat="43.33452" lon="1.8476">
        <ele>175.600006</ele>
        <time>2017-08-07T12:37:13Z</time>
      </trkpt>
      <trkpt lat="43.33457" lon="1.84743">
        <ele>174.800003</ele>
        <time>2017-08-07T12:37:16Z</time>
      </trkpt>
      <trkpt lat="43.33464" lon="1.84728">
        <ele>174.300003</ele>
        <time>2017-08-07T12:37:19Z</time>
      </trkpt>
      <trkpt lat="43.3347" lon="1.84716">
        <ele>174.600006</ele>
        <time>2017-08-07T12:37:22Z</time>
      </trkpt>
      <trkpt lat="43.33476" lon="1.84704">
        <ele>175.199997</ele>
        <time>2017-08-07T12:37:25Z</time>
      </trkpt>
      <trkpt lat="43.33478" lon="1.84691">
        <ele>175.600006</ele>
        <time>2017-08-07T12:37:29Z</time>
      </trkpt>
      <trkpt lat="43.33484" lon="1.84678">
        <ele>176.5</ele>
        <time>2017-08-07T12:37:33Z</time>
      </trkpt>
      <trkpt lat="43.33488" lon="1.84665">
        <ele>176.699997</ele>
        <time>2017-08-07T12:37:38Z</time>
      </trkpt>
      <trkpt lat="43.33494" lon="1.84652">
        <ele>177.300003</ele>
        <time>2017-08-07T12:37:42Z</time>
      </trkpt>
      <trkpt lat="43.33498" lon="1.8464">
        <ele>177.800003</ele>
        <time>2017-08-07T12:37:45Z</time>
      </trkpt>
      <trkpt lat="43.33502" lon="1.84627">
        <ele>177.899994</ele>
        <time>2017-08-07T12:37:48Z</time>
      </trkpt>
      <trkpt lat="43.33505" lon="1.84615">
        <ele>178.300003</ele>
        <time>2017-08-07T12:37:51Z</time>
      </trkpt>
      <trkpt lat="43.3351" lon="1.84603">
        <ele>179.100006</ele>
        <time>2017-08-07T12:37:54Z</time>
      </trkpt>
      <trkpt lat="43.33513" lon="1.8459">
        <ele>179.5</ele>
        <time>2017-08-07T12:37:57Z</time>
      </trkpt>
      <trkpt lat="43.33518" lon="1.84577">
        <ele>179.600006</ele>
        <time>2017-08-07T12:38:01Z</time>
      </trkpt>
      <trkpt lat="43.33522" lon="1.84564">
        <ele>179.399994</ele>
        <time>2017-08-07T12:38:06Z</time>
      </trkpt>
      <trkpt lat="43.33527" lon="1.84551">
        <ele>179.199997</ele>
        <time>2017-08-07T12:38:11Z</time>
      </trkpt>
      <trkpt lat="43.33531" lon="1.84539">
        <ele>179.100006</ele>
        <time>2017-08-07T12:38:15Z</time>
      </trkpt>
      <trkpt lat="43.33537" lon="1.84526">
        <ele>179</ele>
        <time>2017-08-07T12:38:20Z</time>
      </trkpt>
      <trkpt lat="43.33539" lon="1.84512">
        <ele>178.600006</ele>
        <time>2017-08-07T12:39:41Z</time>
      </trkpt>
      <trkpt lat="43.33545" lon="1.84498">
        <ele>178.899994</ele>
        <time>2017-08-07T12:39:48Z</time>
      </trkpt>
      <trkpt lat="43.33549" lon="1.84483">
        <ele>179</ele>
        <time>2017-08-07T12:39:52Z</time>
      </trkpt>
      <trkpt lat="43.33553" lon="1.84472">
        <ele>179.199997</ele>
        <time>2017-08-07T12:39:55Z</time>
      </trkpt>
      <trkpt lat="43.33556" lon="1.84458">
        <ele>179.399994</ele>
        <time>2017-08-07T12:39:58Z</time>
      </trkpt>
      <trkpt lat="43.33559" lon="1.84443">
        <ele>179.5</ele>
        <time>2017-08-07T12:40:01Z</time>
      </trkpt>
      <trkpt lat="43.33563" lon="1.8443">
        <ele>179.800003</ele>
        <time>2017-08-07T12:40:05Z</time>
      </trkpt>
      <trkpt lat="43.33566" lon="1.84417">
        <ele>180.100006</ele>
        <time>2017-08-07T12:40:08Z</time>
      </trkpt>
      <trkpt lat="43.33571" lon="1.84402">
        <ele>180.100006</ele>
        <time>2017-08-07T12:40:11Z</time>
      </trkpt>
      <trkpt lat="43.33575" lon="1.84387">
        <ele>179.699997</ele>
        <time>2017-08-07T12:40:14Z</time>
      </trkpt>
      <trkpt lat="43.33581" lon="1.84375">
        <ele>179.699997</ele>
        <time>2017-08-07T12:40:18Z</time>
      </trkpt>
      <trkpt lat="43.33585" lon="1.8436">
        <ele>178.699997</ele>
        <time>2017-08-07T12:40:21Z</time>
      </trkpt>
      <trkpt lat="43.33588" lon="1.84346">
        <ele>177.5</ele>
        <time>2017-08-07T12:40:24Z</time>
      </trkpt>
      <trkpt lat="43.33593" lon="1.84329">
        <ele>176.300003</ele>
        <time>2017-08-07T12:40:27Z</time>
      </trkpt>
      <trkpt lat="43.33601" lon="1.84318">
        <ele>175.600006</ele>
        <time>2017-08-07T12:40:30Z</time>
      </trkpt>
      <trkpt lat="43.33609" lon="1.8431">
        <ele>176.699997</ele>
        <time>2017-08-07T12:40:33Z</time>
      </trkpt>
      <trkpt lat="43.33615" lon="1.84297">
        <ele>176.699997</ele>
        <time>2017-08-07T12:40:36Z</time>
      </trkpt>
      <trkpt lat="43.33621" lon="1.84286">
        <ele>176.5</ele>
        <time>2017-08-07T12:40:39Z</time>
      </trkpt>
      <trkpt lat="43.33627" lon="1.84276">
        <ele>176.199997</ele>
        <time>2017-08-07T12:40:42Z</time>
      </trkpt>
      <trkpt lat="43.33632" lon="1.84265">
        <ele>176.100006</ele>
        <time>2017-08-07T12:40:45Z</time>
      </trkpt>
      <trkpt lat="43.33641" lon="1.84254">
        <ele>176.699997</ele>
        <time>2017-08-07T12:40:48Z</time>
      </trkpt>
      <trkpt lat="43.3365" lon="1.84249">
        <ele>177.100006</ele>
        <time>2017-08-07T12:40:50Z</time>
      </trkpt>
      <trkpt lat="43.33659" lon="1.84241">
        <ele>176.399994</ele>
        <time>2017-08-07T12:40:52Z</time>
      </trkpt>
      <trkpt lat="43.33669" lon="1.84235">
        <ele>174.899994</ele>
        <time>2017-08-07T12:40:55Z</time>
      </trkpt>
      <trkpt lat="43.33678" lon="1.84227">
        <ele>173.899994</ele>
        <time>2017-08-07T12:40:59Z</time>
      </trkpt>
      <trkpt lat="43.33686" lon="1.84215">
        <ele>173</ele>
        <time>2017-08-07T12:41:03Z</time>
      </trkpt>
      <trkpt lat="43.33698" lon="1.84211">
        <ele>172</ele>
        <time>2017-08-07T12:41:06Z</time>
      </trkpt>
      <trkpt lat="43.33709" lon="1.84204">
        <ele>171.300003</ele>
        <time>2017-08-07T12:41:09Z</time>
      </trkpt>
      <trkpt lat="43.33722" lon="1.84202">
        <ele>171.300003</ele>
        <time>2017-08-07T12:41:12Z</time>
      </trkpt>
      <trkpt lat="43.33731" lon="1.84202">
        <ele>171.100006</ele>
        <time>2017-08-07T12:41:14Z</time>
      </trkpt>
      <trkpt lat="43.33743" lon="1.84201">
        <ele>171</ele>
        <time>2017-08-07T12:41:17Z</time>
      </trkpt>
      <trkpt lat="43.33756" lon="1.84204">
        <ele>171</ele>
        <time>2017-08-07T12:41:20Z</time>
      </trkpt>
      <trkpt lat="43.33767" lon="1.84205">
        <ele>171.5</ele>
        <time>2017-08-07T12:41:23Z</time>
      </trkpt>
      <trkpt lat="43.33777" lon="1.84208">
        <ele>173.5</ele>
        <time>2017-08-07T12:41:26Z</time>
      </trkpt>
      <trkpt lat="43.33786" lon="1.84215">
        <ele>176.199997</ele>
        <time>2017-08-07T12:41:28Z</time>
      </trkpt>
      <trkpt lat="43.33796" lon="1.84224">
        <ele>179.800003</ele>
        <time>2017-08-07T12:41:31Z</time>
      </trkpt>
      <trkpt lat="43.33805" lon="1.84235">
        <ele>183</ele>
        <time>2017-08-07T12:41:34Z</time>
      </trkpt>
      <trkpt lat="43.33813" lon="1.84248">
        <ele>185.399994</ele>
        <time>2017-08-07T12:41:37Z</time>
      </trkpt>
      <trkpt lat="43.3382" lon="1.84261">
        <ele>186.800003</ele>
        <time>2017-08-07T12:41:40Z</time>
      </trkpt>
      <trkpt lat="43.33829" lon="1.84272">
        <ele>188.199997</ele>
        <time>2017-08-07T12:41:43Z</time>
      </trkpt>
      <trkpt lat="43.33835" lon="1.84283">
        <ele>188.699997</ele>
        <time>2017-08-07T12:41:45Z</time>
      </trkpt>
      <trkpt lat="43.33842" lon="1.84293">
        <ele>188.800003</ele>
        <time>2017-08-07T12:41:48Z</time>
      </trkpt>
      <trkpt lat="43.33851" lon="1.84304">
        <ele>189.199997</ele>
        <time>2017-08-07T12:41:51Z</time>
      </trkpt>
      <trkpt lat="43.33858" lon="1.84315">
        <ele>189.699997</ele>
        <time>2017-08-07T12:41:54Z</time>
      </trkpt>
      <trkpt lat="43.33863" lon="1.84328">
        <ele>190</ele>
        <time>2017-08-07T12:41:57Z</time>
      </trkpt>
      <trkpt lat="43.33873" lon="1.84341">
        <ele>190.100006</ele>
        <time>2017-08-07T12:42:00Z</time>
      </trkpt>
      <trkpt lat="43.33879" lon="1.84352">
        <ele>189.399994</ele>
        <time>2017-08-07T12:42:02Z</time>
      </trkpt>
      <trkpt lat="43.33888" lon="1.84363">
        <ele>187.899994</ele>
        <time>2017-08-07T12:42:06Z</time>
      </trkpt>
      <trkpt lat="43.33898" lon="1.84368">
        <ele>186</ele>
        <time>2017-08-07T12:42:09Z</time>
      </trkpt>
      <trkpt lat="43.33908" lon="1.84368">
        <ele>184.199997</ele>
        <time>2017-08-07T12:42:12Z</time>
      </trkpt>
      <trkpt lat="43.33919" lon="1.84363">
        <ele>182.699997</ele>
        <time>2017-08-07T12:42:15Z</time>
      </trkpt>
      <trkpt lat="43.33929" lon="1.84354">
        <ele>181.399994</ele>
        <time>2017-08-07T12:42:18Z</time>
      </trkpt>
      <trkpt lat="43.33938" lon="1.84347">
        <ele>180.600006</ele>
        <time>2017-08-07T12:42:21Z</time>
      </trkpt>
      <trkpt lat="43.33947" lon="1.84338">
        <ele>179.300003</ele>
        <time>2017-08-07T12:42:24Z</time>
      </trkpt>
      <trkpt lat="43.33957" lon="1.84331">
        <ele>177.600006</ele>
        <time>2017-08-07T12:42:27Z</time>
      </trkpt>
      <trkpt lat="43.33966" lon="1.84321">
        <ele>177</ele>
        <time>2017-08-07T12:42:30Z</time>
      </trkpt>
      <trkpt lat="43.33973" lon="1.84308">
        <ele>177.199997</ele>
        <time>2017-08-07T12:42:33Z</time>
      </trkpt>
      <trkpt lat="43.3398" lon="1.84297">
        <ele>177.100006</ele>
        <time>2017-08-07T12:42:35Z</time>
      </trkpt>
      <trkpt lat="43.33987" lon="1.84286">
        <ele>177.100006</ele>
        <time>2017-08-07T12:42:37Z</time>
      </trkpt>
      <trkpt lat="43.33995" lon="1.84271">
        <ele>177.899994</ele>
        <time>2017-08-07T12:42:40Z</time>
      </trkpt>
      <trkpt lat="43.34003" lon="1.84259">
        <ele>178.800003</ele>
        <time>2017-08-07T12:42:43Z</time>
      </trkpt>
      <trkpt lat="43.34007" lon="1.84247">
        <ele>179.300003</ele>
        <time>2017-08-07T12:42:45Z</time>
      </trkpt>
      <trkpt lat="43.34011" lon="1.84231">
        <ele>179.800003</ele>
        <time>2017-08-07T12:42:48Z</time>
      </trkpt>
      <trkpt lat="43.34014" lon="1.84216">
        <ele>180</ele>
        <time>2017-08-07T12:42:51Z</time>
      </trkpt>
      <trkpt lat="43.34017" lon="1.84198">
        <ele>180.699997</ele>
        <time>2017-08-07T12:42:54Z</time>
      </trkpt>
      <trkpt lat="43.34022" lon="1.84187">
        <ele>181.699997</ele>
        <time>2017-08-07T12:42:57Z</time>
      </trkpt>
      <trkpt lat="43.34023" lon="1.84174">
        <ele>182.300003</ele>
        <time>2017-08-07T12:42:59Z</time>
      </trkpt>
      <trkpt lat="43.34025" lon="1.84159">
        <ele>183.399994</ele>
        <time>2017-08-07T12:43:02Z</time>
      </trkpt>
      <trkpt lat="43.3403" lon="1.84146">
        <ele>184.199997</ele>
        <time>2017-08-07T12:43:06Z</time>
      </trkpt>
      <trkpt lat="43.34031" lon="1.84132">
        <ele>184.600006</ele>
        <time>2017-08-07T12:43:08Z</time>
      </trkpt>
      <trkpt lat="43.34031" lon="1.84118">
        <ele>185</ele>
        <time>2017-08-07T12:43:10Z</time>
      </trkpt>
      <trkpt lat="43.34033" lon="1.84104">
        <ele>185.5</ele>
        <time>2017-08-07T12:43:14Z</time>
      </trkpt>
      <trkpt lat="43.34035" lon="1.84089">
        <ele>186.199997</ele>
        <time>2017-08-07T12:43:17Z</time>
      </trkpt>
      <trkpt lat="43.34033" lon="1.8407">
        <ele>186.399994</ele>
        <time>2017-08-07T12:43:20Z</time>
      </trkpt>
      <trkpt lat="43.34031" lon="1.84056">
        <ele>186</ele>
        <time>2017-08-07T12:43:22Z</time>
      </trkpt>
      <trkpt lat="43.34032" lon="1.84044">
        <ele>186</ele>
        <time>2017-08-07T12:43:24Z</time>
      </trkpt>
      <trkpt lat="43.34036" lon="1.84032">
        <ele>186.699997</ele>
        <time>2017-08-07T12:43:27Z</time>
      </trkpt>
      <trkpt lat="43.34038" lon="1.8402">
        <ele>187.199997</ele>
        <time>2017-08-07T12:43:30Z</time>
      </trkpt>
      <trkpt lat="43.34039" lon="1.84006">
        <ele>187.5</ele>
        <time>2017-08-07T12:43:33Z</time>
      </trkpt>
      <trkpt lat="43.3404" lon="1.83987">
        <ele>187.600006</ele>
        <time>2017-08-07T12:43:36Z</time>
      </trkpt>
      <trkpt lat="43.3404" lon="1.83972">
        <ele>188.5</ele>
        <time>2017-08-07T12:43:39Z</time>
      </trkpt>
      <trkpt lat="43.34041" lon="1.83954">
        <ele>189.899994</ele>
        <time>2017-08-07T12:43:42Z</time>
      </trkpt>
      <trkpt lat="43.34042" lon="1.8394">
        <ele>191.199997</ele>
        <time>2017-08-07T12:43:44Z</time>
      </trkpt>
      <trkpt lat="43.34041" lon="1.83925">
        <ele>192</ele>
        <time>2017-08-07T12:43:46Z</time>
      </trkpt>
      <trkpt lat="43.34039" lon="1.83907">
        <ele>192.199997</ele>
        <time>2017-08-07T12:43:48Z</time>
      </trkpt>
      <trkpt lat="43.34038" lon="1.83894">
        <ele>192.5</ele>
        <time>2017-08-07T12:43:50Z</time>
      </trkpt>
      <trkpt lat="43.3404" lon="1.8388">
        <ele>193.5</ele>
        <time>2017-08-07T12:43:54Z</time>
      </trkpt>
      <trkpt lat="43.34042" lon="1.83868">
        <ele>194.199997</ele>
        <time>2017-08-07T12:43:58Z</time>
      </trkpt>
      <trkpt lat="43.34042" lon="1.83854">
        <ele>194.699997</ele>
        <time>2017-08-07T12:44:00Z</time>
      </trkpt>
      <trkpt lat="43.3404" lon="1.83839">
        <ele>194.699997</ele>
        <time>2017-08-07T12:44:02Z</time>
      </trkpt>
      <trkpt lat="43.3404" lon="1.83827">
        <ele>194.600006</ele>
        <time>2017-08-07T12:44:05Z</time>
      </trkpt>
      <trkpt lat="43.3404" lon="1.83814">
        <ele>194.600006</ele>
        <time>2017-08-07T12:44:09Z</time>
      </trkpt>
      <trkpt lat="43.34039" lon="1.83798">
        <ele>194.300003</ele>
        <time>2017-08-07T12:44:14Z</time>
      </trkpt>
      <trkpt lat="43.34043" lon="1.83785">
        <ele>194.600006</ele>
        <time>2017-08-07T12:44:18Z</time>
      </trkpt>
      <trkpt lat="43.34043" lon="1.83771">
        <ele>193.699997</ele>
        <time>2017-08-07T12:44:23Z</time>
      </trkpt>
      <trkpt lat="43.34043" lon="1.83758">
        <ele>192.699997</ele>
        <time>2017-08-07T12:44:27Z</time>
      </trkpt>
      <trkpt lat="43.34045" lon="1.83745">
        <ele>191.899994</ele>
        <time>2017-08-07T12:44:33Z</time>
      </trkpt>
      <trkpt lat="43.34045" lon="1.83732">
        <ele>190.800003</ele>
        <time>2017-08-07T12:44:38Z</time>
      </trkpt>
      <trkpt lat="43.34047" lon="1.83717">
        <ele>188.800003</ele>
        <time>2017-08-07T12:44:44Z</time>
      </trkpt>
      <trkpt lat="43.34053" lon="1.83705">
        <ele>187.5</ele>
        <time>2017-08-07T12:44:49Z</time>
      </trkpt>
      <trkpt lat="43.34056" lon="1.8369">
        <ele>185.600006</ele>
        <time>2017-08-07T12:44:53Z</time>
      </trkpt>
      <trkpt lat="43.34059" lon="1.83678">
        <ele>183.899994</ele>
        <time>2017-08-07T12:44:58Z</time>
      </trkpt>
      <trkpt lat="43.34062" lon="1.83663">
        <ele>182.300003</ele>
        <time>2017-08-07T12:45:02Z</time>
      </trkpt>
      <trkpt lat="43.34061" lon="1.83648">
        <ele>180.899994</ele>
        <time>2017-08-07T12:45:06Z</time>
      </trkpt>
      <trkpt lat="43.34063" lon="1.83635">
        <ele>179.800003</ele>
        <time>2017-08-07T12:45:10Z</time>
      </trkpt>
      <trkpt lat="43.3406" lon="1.83621">
        <ele>179.899994</ele>
        <time>2017-08-07T12:45:15Z</time>
      </trkpt>
      <trkpt lat="43.3406" lon="1.83607">
        <ele>180.199997</ele>
        <time>2017-08-07T12:46:18Z</time>
      </trkpt>
      <trkpt lat="43.34065" lon="1.83594">
        <ele>179.199997</ele>
        <time>2017-08-07T12:46:22Z</time>
      </trkpt>
      <trkpt lat="43.3407" lon="1.83579">
        <ele>178.5</ele>
        <time>2017-08-07T12:46:26Z</time>
      </trkpt>
      <trkpt lat="43.34074" lon="1.83566">
        <ele>178.100006</ele>
        <time>2017-08-07T12:46:30Z</time>
      </trkpt>
      <trkpt lat="43.34079" lon="1.83552">
        <ele>177.600006</ele>
        <time>2017-08-07T12:46:35Z</time>
      </trkpt>
      <trkpt lat="43.34085" lon="1.83541">
        <ele>176.800003</ele>
        <time>2017-08-07T12:46:39Z</time>
      </trkpt>
      <trkpt lat="43.34091" lon="1.83532">
        <ele>176.100006</ele>
        <time>2017-08-07T12:46:42Z</time>
      </trkpt>
      <trkpt lat="43.34097" lon="1.83521">
        <ele>175.600006</ele>
        <time>2017-08-07T12:46:45Z</time>
      </trkpt>
      <trkpt lat="43.34105" lon="1.83509">
        <ele>176.5</ele>
        <time>2017-08-07T12:46:48Z</time>
      </trkpt>
      <trkpt lat="43.34111" lon="1.83495">
        <ele>177.199997</ele>
        <time>2017-08-07T12:46:51Z</time>
      </trkpt>
      <trkpt lat="43.34118" lon="1.8348">
        <ele>177.100006</ele>
        <time>2017-08-07T12:46:54Z</time>
      </trkpt>
      <trkpt lat="43.34123" lon="1.83465">
        <ele>177</ele>
        <time>2017-08-07T12:46:57Z</time>
      </trkpt>
      <trkpt lat="43.34128" lon="1.8345">
        <ele>177.899994</ele>
        <time>2017-08-07T12:47:00Z</time>
      </trkpt>
      <trkpt lat="43.34132" lon="1.83439">
        <ele>179.199997</ele>
        <time>2017-08-07T12:47:03Z</time>
      </trkpt>
      <trkpt lat="43.34137" lon="1.83426">
        <ele>180.199997</ele>
        <time>2017-08-07T12:47:07Z</time>
      </trkpt>
      <trkpt lat="43.3414" lon="1.83414">
        <ele>180.300003</ele>
        <time>2017-08-07T12:47:10Z</time>
      </trkpt>
      <trkpt lat="43.34144" lon="1.83398">
        <ele>180.100006</ele>
        <time>2017-08-07T12:47:13Z</time>
      </trkpt>
      <trkpt lat="43.34149" lon="1.83383">
        <ele>179.5</ele>
        <time>2017-08-07T12:47:16Z</time>
      </trkpt>
      <trkpt lat="43.34154" lon="1.83368">
        <ele>178.899994</ele>
        <time>2017-08-07T12:47:19Z</time>
      </trkpt>
      <trkpt lat="43.34161" lon="1.83355">
        <ele>179</ele>
        <time>2017-08-07T12:47:22Z</time>
      </trkpt>
      <trkpt lat="43.34163" lon="1.83342">
        <ele>178.899994</ele>
        <time>2017-08-07T12:47:25Z</time>
      </trkpt>
      <trkpt lat="43.3417" lon="1.83331">
        <ele>179.5</ele>
        <time>2017-08-07T12:47:28Z</time>
      </trkpt>
      <trkpt lat="43.34175" lon="1.83318">
        <ele>179.600006</ele>
        <time>2017-08-07T12:47:31Z</time>
      </trkpt>
      <trkpt lat="43.3418" lon="1.83304">
        <ele>179.399994</ele>
        <time>2017-08-07T12:47:34Z</time>
      </trkpt>
      <trkpt lat="43.34185" lon="1.83287">
        <ele>179.300003</ele>
        <time>2017-08-07T12:47:37Z</time>
      </trkpt>
      <trkpt lat="43.34191" lon="1.83274">
        <ele>179.199997</ele>
        <time>2017-08-07T12:47:40Z</time>
      </trkpt>
      <trkpt lat="43.34196" lon="1.83258">
        <ele>178.899994</ele>
        <time>2017-08-07T12:47:43Z</time>
      </trkpt>
      <trkpt lat="43.34203" lon="1.83244">
        <ele>178.899994</ele>
        <time>2017-08-07T12:47:46Z</time>
      </trkpt>
      <trkpt lat="43.34207" lon="1.83227">
        <ele>178.600006</ele>
        <time>2017-08-07T12:47:49Z</time>
      </trkpt>
      <trkpt lat="43.34214" lon="1.83212">
        <ele>179</ele>
        <time>2017-08-07T12:47:52Z</time>
      </trkpt>
      <trkpt lat="43.34219" lon="1.83197">
        <ele>179.300003</ele>
        <time>2017-08-07T12:47:55Z</time>
      </trkpt>
      <trkpt lat="43.34224" lon="1.83183">
        <ele>179.300003</ele>
        <time>2017-08-07T12:47:58Z</time>
      </trkpt>
      <trkpt lat="43.34229" lon="1.83169">
        <ele>179.100006</ele>
        <time>2017-08-07T12:48:01Z</time>
      </trkpt>
      <trkpt lat="43.34234" lon="1.83154">
        <ele>178.100006</ele>
        <time>2017-08-07T12:48:04Z</time>
      </trkpt>
      <trkpt lat="43.34238" lon="1.83141">
        <ele>177.800003</ele>
        <time>2017-08-07T12:48:07Z</time>
      </trkpt>
      <trkpt lat="43.34244" lon="1.83128">
        <ele>178</ele>
        <time>2017-08-07T12:48:10Z</time>
      </trkpt>
      <trkpt lat="43.3425" lon="1.83112">
        <ele>178</ele>
        <time>2017-08-07T12:48:13Z</time>
      </trkpt>
      <trkpt lat="43.34254" lon="1.83101">
        <ele>177.899994</ele>
        <time>2017-08-07T12:48:15Z</time>
      </trkpt>
      <trkpt lat="43.34258" lon="1.83088">
        <ele>177.600006</ele>
        <time>2017-08-07T12:48:17Z</time>
      </trkpt>
      <trkpt lat="43.34263" lon="1.83077">
        <ele>176.899994</ele>
        <time>2017-08-07T12:48:19Z</time>
      </trkpt>
      <trkpt lat="43.34267" lon="1.83064">
        <ele>176.399994</ele>
        <time>2017-08-07T12:48:21Z</time>
      </trkpt>
      <trkpt lat="43.34272" lon="1.83048">
        <ele>176.399994</ele>
        <time>2017-08-07T12:48:24Z</time>
      </trkpt>
      <trkpt lat="43.34277" lon="1.83032">
        <ele>176.399994</ele>
        <time>2017-08-07T12:48:27Z</time>
      </trkpt>
      <trkpt lat="43.34282" lon="1.83019">
        <ele>176.5</ele>
        <time>2017-08-07T12:48:29Z</time>
      </trkpt>
      <trkpt lat="43.34286" lon="1.83004">
        <ele>176.399994</ele>
        <time>2017-08-07T12:48:32Z</time>
      </trkpt>
      <trkpt lat="43.34291" lon="1.82993">
        <ele>176.399994</ele>
        <time>2017-08-07T12:48:34Z</time>
      </trkpt>
      <trkpt lat="43.34298" lon="1.82978">
        <ele>176.100006</ele>
        <time>2017-08-07T12:48:37Z</time>
      </trkpt>
      <trkpt lat="43.34304" lon="1.82962">
        <ele>175.899994</ele>
        <time>2017-08-07T12:48:40Z</time>
      </trkpt>
      <trkpt lat="43.34307" lon="1.8295">
        <ele>175.699997</ele>
        <time>2017-08-07T12:48:42Z</time>
      </trkpt>
      <trkpt lat="43.34315" lon="1.82933">
        <ele>175</ele>
        <time>2017-08-07T12:48:45Z</time>
      </trkpt>
      <trkpt lat="43.34318" lon="1.82922">
        <ele>174.600006</ele>
        <time>2017-08-07T12:48:47Z</time>
      </trkpt>
      <trkpt lat="43.34321" lon="1.8291">
        <ele>174.5</ele>
        <time>2017-08-07T12:48:49Z</time>
      </trkpt>
      <trkpt lat="43.34328" lon="1.82895">
        <ele>174.899994</ele>
        <time>2017-08-07T12:48:52Z</time>
      </trkpt>
      <trkpt lat="43.34335" lon="1.8288">
        <ele>175.600006</ele>
        <time>2017-08-07T12:48:55Z</time>
      </trkpt>
      <trkpt lat="43.3434" lon="1.82864">
        <ele>176</ele>
        <time>2017-08-07T12:48:58Z</time>
      </trkpt>
      <trkpt lat="43.34346" lon="1.82847">
        <ele>176</ele>
        <time>2017-08-07T12:49:01Z</time>
      </trkpt>
      <trkpt lat="43.34351" lon="1.82837">
        <ele>176</ele>
        <time>2017-08-07T12:49:03Z</time>
      </trkpt>
      <trkpt lat="43.34357" lon="1.82821">
        <ele>175.800003</ele>
        <time>2017-08-07T12:49:06Z</time>
      </trkpt>
      <trkpt lat="43.34365" lon="1.82809">
        <ele>176.199997</ele>
        <time>2017-08-07T12:49:09Z</time>
      </trkpt>
      <trkpt lat="43.34372" lon="1.82795">
        <ele>176.699997</ele>
        <time>2017-08-07T12:49:12Z</time>
      </trkpt>
      <trkpt lat="43.34379" lon="1.82784">
        <ele>178.300003</ele>
        <time>2017-08-07T12:49:15Z</time>
      </trkpt>
      <trkpt lat="43.34383" lon="1.8277">
        <ele>179.600006</ele>
        <time>2017-08-07T12:49:18Z</time>
      </trkpt>
      <trkpt lat="43.34388" lon="1.82754">
        <ele>181.100006</ele>
        <time>2017-08-07T12:49:21Z</time>
      </trkpt>
      <trkpt lat="43.34394" lon="1.82741">
        <ele>182.199997</ele>
        <time>2017-08-07T12:49:24Z</time>
      </trkpt>
      <trkpt lat="43.344" lon="1.82729">
        <ele>183.199997</ele>
        <time>2017-08-07T12:49:26Z</time>
      </trkpt>
      <trkpt lat="43.34404" lon="1.82713">
        <ele>184.699997</ele>
        <time>2017-08-07T12:49:29Z</time>
      </trkpt>
      <trkpt lat="43.34409" lon="1.82699">
        <ele>186</ele>
        <time>2017-08-07T12:49:31Z</time>
      </trkpt>
      <trkpt lat="43.34413" lon="1.82688">
        <ele>186.899994</ele>
        <time>2017-08-07T12:49:33Z</time>
      </trkpt>
      <trkpt lat="43.34419" lon="1.82678">
        <ele>187.800003</ele>
        <time>2017-08-07T12:49:35Z</time>
      </trkpt>
      <trkpt lat="43.34425" lon="1.82668">
        <ele>188</ele>
        <time>2017-08-07T12:49:37Z</time>
      </trkpt>
      <trkpt lat="43.34431" lon="1.82652">
        <ele>186.300003</ele>
        <time>2017-08-07T12:49:40Z</time>
      </trkpt>
      <trkpt lat="43.34435" lon="1.8264">
        <ele>184.699997</ele>
        <time>2017-08-07T12:49:42Z</time>
      </trkpt>
      <trkpt lat="43.3444" lon="1.82629">
        <ele>183.100006</ele>
        <time>2017-08-07T12:49:44Z</time>
      </trkpt>
      <trkpt lat="43.34449" lon="1.82617">
        <ele>182.199997</ele>
        <time>2017-08-07T12:49:47Z</time>
      </trkpt>
      <trkpt lat="43.34457" lon="1.82606">
        <ele>181</ele>
        <time>2017-08-07T12:49:50Z</time>
      </trkpt>
      <trkpt lat="43.34464" lon="1.82591">
        <ele>178.100006</ele>
        <time>2017-08-07T12:49:53Z</time>
      </trkpt>
      <trkpt lat="43.34473" lon="1.8258">
        <ele>177.399994</ele>
        <time>2017-08-07T12:49:56Z</time>
      </trkpt>
      <trkpt lat="43.34483" lon="1.82569">
        <ele>176.800003</ele>
        <time>2017-08-07T12:49:59Z</time>
      </trkpt>
      <trkpt lat="43.34492" lon="1.82558">
        <ele>177.100006</ele>
        <time>2017-08-07T12:50:02Z</time>
      </trkpt>
      <trkpt lat="43.345" lon="1.82543">
        <ele>177.199997</ele>
        <time>2017-08-07T12:50:05Z</time>
      </trkpt>
      <trkpt lat="43.34509" lon="1.82531">
        <ele>177.699997</ele>
        <time>2017-08-07T12:50:08Z</time>
      </trkpt>
      <trkpt lat="43.34515" lon="1.8252">
        <ele>177.100006</ele>
        <time>2017-08-07T12:50:10Z</time>
      </trkpt>
      <trkpt lat="43.34523" lon="1.82512">
        <ele>176.100006</ele>
        <time>2017-08-07T12:50:12Z</time>
      </trkpt>
      <trkpt lat="43.3453" lon="1.82501">
        <ele>175.600006</ele>
        <time>2017-08-07T12:50:15Z</time>
      </trkpt>
      <trkpt lat="43.34537" lon="1.82491">
        <ele>174.699997</ele>
        <time>2017-08-07T12:50:18Z</time>
      </trkpt>
      <trkpt lat="43.34546" lon="1.82479">
        <ele>174.100006</ele>
        <time>2017-08-07T12:50:21Z</time>
      </trkpt>
      <trkpt lat="43.34552" lon="1.8247">
        <ele>174.100006</ele>
        <time>2017-08-07T12:50:23Z</time>
      </trkpt>
      <trkpt lat="43.34558" lon="1.8246">
        <ele>173.800003</ele>
        <time>2017-08-07T12:50:25Z</time>
      </trkpt>
      <trkpt lat="43.34566" lon="1.82449">
        <ele>173.399994</ele>
        <time>2017-08-07T12:50:28Z</time>
      </trkpt>
      <trkpt lat="43.34576" lon="1.82442">
        <ele>174.199997</ele>
        <time>2017-08-07T12:50:31Z</time>
      </trkpt>
      <trkpt lat="43.34584" lon="1.82428">
        <ele>174.899994</ele>
        <time>2017-08-07T12:50:34Z</time>
      </trkpt>
      <trkpt lat="43.3459" lon="1.82417">
        <ele>175</ele>
        <time>2017-08-07T12:50:36Z</time>
      </trkpt>
      <trkpt lat="43.34595" lon="1.82406">
        <ele>174.5</ele>
        <time>2017-08-07T12:50:38Z</time>
      </trkpt>
      <trkpt lat="43.34603" lon="1.82392">
        <ele>174.5</ele>
        <time>2017-08-07T12:50:41Z</time>
      </trkpt>
      <trkpt lat="43.34608" lon="1.82381">
        <ele>174.5</ele>
        <time>2017-08-07T12:50:43Z</time>
      </trkpt>
      <trkpt lat="43.34615" lon="1.82368">
        <ele>174.600006</ele>
        <time>2017-08-07T12:50:46Z</time>
      </trkpt>
      <trkpt lat="43.34623" lon="1.82356">
        <ele>174.199997</ele>
        <time>2017-08-07T12:50:49Z</time>
      </trkpt>
      <trkpt lat="43.34631" lon="1.82342">
        <ele>174.199997</ele>
        <time>2017-08-07T12:50:52Z</time>
      </trkpt>
      <trkpt lat="43.34637" lon="1.82332">
        <ele>174.699997</ele>
        <time>2017-08-07T12:50:54Z</time>
      </trkpt>
      <trkpt lat="43.34646" lon="1.82319">
        <ele>175</ele>
        <time>2017-08-07T12:50:57Z</time>
      </trkpt>
      <trkpt lat="43.34654" lon="1.82305">
        <ele>174.699997</ele>
        <time>2017-08-07T12:51:00Z</time>
      </trkpt>
      <trkpt lat="43.34662" lon="1.82291">
        <ele>175.199997</ele>
        <time>2017-08-07T12:51:03Z</time>
      </trkpt>
      <trkpt lat="43.34669" lon="1.82275">
        <ele>175.699997</ele>
        <time>2017-08-07T12:51:06Z</time>
      </trkpt>
      <trkpt lat="43.34675" lon="1.82264">
        <ele>175.5</ele>
        <time>2017-08-07T12:51:08Z</time>
      </trkpt>
      <trkpt lat="43.34681" lon="1.82253">
        <ele>175</ele>
        <time>2017-08-07T12:51:10Z</time>
      </trkpt>
      <trkpt lat="43.34689" lon="1.82238">
        <ele>174.899994</ele>
        <time>2017-08-07T12:51:13Z</time>
      </trkpt>
      <trkpt lat="43.34695" lon="1.82223">
        <ele>175.600006</ele>
        <time>2017-08-07T12:51:16Z</time>
      </trkpt>
      <trkpt lat="43.34701" lon="1.82213">
        <ele>175.800003</ele>
        <time>2017-08-07T12:51:18Z</time>
      </trkpt>
      <trkpt lat="43.34709" lon="1.82199">
        <ele>175.5</ele>
        <time>2017-08-07T12:51:21Z</time>
      </trkpt>
      <trkpt lat="43.34716" lon="1.82185">
        <ele>175.5</ele>
        <time>2017-08-07T12:51:24Z</time>
      </trkpt>
      <trkpt lat="43.34722" lon="1.82169">
        <ele>175.5</ele>
        <time>2017-08-07T12:51:27Z</time>
      </trkpt>
      <trkpt lat="43.34726" lon="1.82154">
        <ele>175.399994</ele>
        <time>2017-08-07T12:51:30Z</time>
      </trkpt>
      <trkpt lat="43.34731" lon="1.82143">
        <ele>175.5</ele>
        <time>2017-08-07T12:51:32Z</time>
      </trkpt>
      <trkpt lat="43.34738" lon="1.82131">
        <ele>175.300003</ele>
        <time>2017-08-07T12:51:34Z</time>
      </trkpt>
      <trkpt lat="43.34747" lon="1.82121">
        <ele>175.399994</ele>
        <time>2017-08-07T12:51:37Z</time>
      </trkpt>
      <trkpt lat="43.34757" lon="1.82116">
        <ele>175.600006</ele>
        <time>2017-08-07T12:51:41Z</time>
      </trkpt>
      <trkpt lat="43.34764" lon="1.82106">
        <ele>175.399994</ele>
        <time>2017-08-07T12:51:45Z</time>
      </trkpt>
      <trkpt lat="43.3477" lon="1.82093">
        <ele>175.699997</ele>
        <time>2017-08-07T12:51:48Z</time>
      </trkpt>
      <trkpt lat="43.34776" lon="1.82082">
        <ele>176.300003</ele>
        <time>2017-08-07T12:51:52Z</time>
      </trkpt>
      <trkpt lat="43.34781" lon="1.82071">
        <ele>176.600006</ele>
        <time>2017-08-07T12:51:56Z</time>
      </trkpt>
      <trkpt lat="43.34788" lon="1.8206">
        <ele>176.600006</ele>
        <time>2017-08-07T12:52:01Z</time>
      </trkpt>
      <trkpt lat="43.34796" lon="1.82051">
        <ele>176.699997</ele>
        <time>2017-08-07T12:52:08Z</time>
      </trkpt>
      <trkpt lat="43.34805" lon="1.82037">
        <ele>176.800003</ele>
        <time>2017-08-07T12:52:12Z</time>
      </trkpt>
      <trkpt lat="43.3481" lon="1.82026">
        <ele>177</ele>
        <time>2017-08-07T12:52:15Z</time>
      </trkpt>
      <trkpt lat="43.34818" lon="1.82014">
        <ele>177</ele>
        <time>2017-08-07T12:52:18Z</time>
      </trkpt>
      <trkpt lat="43.34824" lon="1.82002">
        <ele>177.300003</ele>
        <time>2017-08-07T12:52:21Z</time>
      </trkpt>
      <trkpt lat="43.3483" lon="1.8199">
        <ele>177.300003</ele>
        <time>2017-08-07T12:52:24Z</time>
      </trkpt>
      <trkpt lat="43.34836" lon="1.81981">
        <ele>176.699997</ele>
        <time>2017-08-07T12:52:27Z</time>
      </trkpt>
      <trkpt lat="43.34842" lon="1.8197">
        <ele>175.899994</ele>
        <time>2017-08-07T12:52:30Z</time>
      </trkpt>
      <trkpt lat="43.34849" lon="1.8196">
        <ele>175.100006</ele>
        <time>2017-08-07T12:52:33Z</time>
      </trkpt>
      <trkpt lat="43.34856" lon="1.81949">
        <ele>175.300003</ele>
        <time>2017-08-07T12:52:37Z</time>
      </trkpt>
      <trkpt lat="43.34863" lon="1.8194">
        <ele>174.899994</ele>
        <time>2017-08-07T12:52:40Z</time>
      </trkpt>
      <trkpt lat="43.34869" lon="1.8193">
        <ele>174.100006</ele>
        <time>2017-08-07T12:52:42Z</time>
      </trkpt>
      <trkpt lat="43.34878" lon="1.81918">
        <ele>173.800003</ele>
        <time>2017-08-07T12:52:45Z</time>
      </trkpt>
      <trkpt lat="43.34885" lon="1.81906">
        <ele>174.199997</ele>
        <time>2017-08-07T12:52:49Z</time>
      </trkpt>
      <trkpt lat="43.34895" lon="1.81897">
        <ele>173.600006</ele>
        <time>2017-08-07T12:52:53Z</time>
      </trkpt>
      <trkpt lat="43.34905" lon="1.81887">
        <ele>173.100006</ele>
        <time>2017-08-07T12:52:56Z</time>
      </trkpt>
      <trkpt lat="43.34915" lon="1.8188">
        <ele>172.600006</ele>
        <time>2017-08-07T12:52:59Z</time>
      </trkpt>
      <trkpt lat="43.34922" lon="1.81873">
        <ele>171.800003</ele>
        <time>2017-08-07T12:53:02Z</time>
      </trkpt>
      <trkpt lat="43.3493" lon="1.81863">
        <ele>171.899994</ele>
        <time>2017-08-07T12:53:05Z</time>
      </trkpt>
      <trkpt lat="43.34936" lon="1.81854">
        <ele>172.5</ele>
        <time>2017-08-07T12:53:08Z</time>
      </trkpt>
      <trkpt lat="43.34944" lon="1.81846">
        <ele>172.600006</ele>
        <time>2017-08-07T12:53:11Z</time>
      </trkpt>
      <trkpt lat="43.34955" lon="1.81839">
        <ele>173</ele>
        <time>2017-08-07T12:53:14Z</time>
      </trkpt>
      <trkpt lat="43.34964" lon="1.81829">
        <ele>173.600006</ele>
        <time>2017-08-07T12:53:17Z</time>
      </trkpt>
      <trkpt lat="43.34975" lon="1.81822">
        <ele>173.600006</ele>
        <time>2017-08-07T12:53:20Z</time>
      </trkpt>
      <trkpt lat="43.34985" lon="1.81815">
        <ele>174.100006</ele>
        <time>2017-08-07T12:53:23Z</time>
      </trkpt>
      <trkpt lat="43.34997" lon="1.81813">
        <ele>175.699997</ele>
        <time>2017-08-07T12:53:26Z</time>
      </trkpt>
      <trkpt lat="43.35006" lon="1.81813">
        <ele>177</ele>
        <time>2017-08-07T12:53:28Z</time>
      </trkpt>
      <trkpt lat="43.35015" lon="1.81813">
        <ele>178</ele>
        <time>2017-08-07T12:53:30Z</time>
      </trkpt>
      <trkpt lat="43.35027" lon="1.81817">
        <ele>176.800003</ele>
        <time>2017-08-07T12:53:33Z</time>
      </trkpt>
      <trkpt lat="43.35038" lon="1.81821">
        <ele>175.5</ele>
        <time>2017-08-07T12:53:36Z</time>
      </trkpt>
      <trkpt lat="43.35048" lon="1.81824">
        <ele>175.600006</ele>
        <time>2017-08-07T12:53:39Z</time>
      </trkpt>
      <trkpt lat="43.35059" lon="1.81828">
        <ele>176.800003</ele>
        <time>2017-08-07T12:53:44Z</time>
      </trkpt>
      <trkpt lat="43.35069" lon="1.81828">
        <ele>177.899994</ele>
        <time>2017-08-07T12:53:52Z</time>
      </trkpt>
      <trkpt lat="43.35079" lon="1.81829">
        <ele>179.199997</ele>
        <time>2017-08-07T12:55:47Z</time>
      </trkpt>
      <trkpt lat="43.3509" lon="1.81829">
        <ele>180.399994</ele>
        <time>2017-08-07T12:55:53Z</time>
      </trkpt>
      <trkpt lat="43.351" lon="1.81828">
        <ele>181</ele>
        <time>2017-08-07T12:55:57Z</time>
      </trkpt>
      <trkpt lat="43.3511" lon="1.81833">
        <ele>182.399994</ele>
        <time>2017-08-07T12:56:00Z</time>
      </trkpt>
      <trkpt lat="43.35122" lon="1.81834">
        <ele>182.199997</ele>
        <time>2017-08-07T12:56:03Z</time>
      </trkpt>
      <trkpt lat="43.35134" lon="1.81837">
        <ele>182.600006</ele>
        <time>2017-08-07T12:56:06Z</time>
      </trkpt>
      <trkpt lat="43.35145" lon="1.8184">
        <ele>183.100006</ele>
        <time>2017-08-07T12:56:09Z</time>
      </trkpt>
      <trkpt lat="43.35156" lon="1.81842">
        <ele>183.5</ele>
        <time>2017-08-07T12:56:12Z</time>
      </trkpt>
      <trkpt lat="43.35166" lon="1.81845">
        <ele>184.5</ele>
        <time>2017-08-07T12:56:15Z</time>
      </trkpt>
      <trkpt lat="43.35179" lon="1.81848">
        <ele>185.699997</ele>
        <time>2017-08-07T12:56:18Z</time>
      </trkpt>
      <trkpt lat="43.35192" lon="1.81849">
        <ele>184.600006</ele>
        <time>2017-08-07T12:56:22Z</time>
      </trkpt>
      <trkpt lat="43.35204" lon="1.81853">
        <ele>183.600006</ele>
        <time>2017-08-07T12:56:25Z</time>
      </trkpt>
      <trkpt lat="43.35213" lon="1.81855">
        <ele>185</ele>
        <time>2017-08-07T12:56:27Z</time>
      </trkpt>
      <trkpt lat="43.35226" lon="1.81858">
        <ele>190.5</ele>
        <time>2017-08-07T12:56:30Z</time>
      </trkpt>
      <trkpt lat="43.35241" lon="1.81861">
        <ele>194.699997</ele>
        <time>2017-08-07T12:56:33Z</time>
      </trkpt>
      <trkpt lat="43.35255" lon="1.81865">
        <ele>195.100006</ele>
        <time>2017-08-07T12:56:36Z</time>
      </trkpt>
      <trkpt lat="43.35265" lon="1.81867">
        <ele>195.399994</ele>
        <time>2017-08-07T12:56:39Z</time>
      </trkpt>
      <trkpt lat="43.35277" lon="1.8187">
        <ele>195.300003</ele>
        <time>2017-08-07T12:56:41Z</time>
      </trkpt>
      <trkpt lat="43.35288" lon="1.81874">
        <ele>195.100006</ele>
        <time>2017-08-07T12:56:44Z</time>
      </trkpt>
      <trkpt lat="43.35301" lon="1.81875">
        <ele>195.300003</ele>
        <time>2017-08-07T12:56:47Z</time>
      </trkpt>
      <trkpt lat="43.35314" lon="1.81876">
        <ele>195.800003</ele>
        <time>2017-08-07T12:56:50Z</time>
      </trkpt>
      <trkpt lat="43.35327" lon="1.81878">
        <ele>196.399994</ele>
        <time>2017-08-07T12:56:53Z</time>
      </trkpt>
      <trkpt lat="43.3534" lon="1.8188">
        <ele>197</ele>
        <time>2017-08-07T12:56:56Z</time>
      </trkpt>
      <trkpt lat="43.35349" lon="1.81883">
        <ele>197.300003</ele>
        <time>2017-08-07T12:56:58Z</time>
      </trkpt>
      <trkpt lat="43.35358" lon="1.81884">
        <ele>196.600006</ele>
        <time>2017-08-07T12:57:00Z</time>
      </trkpt>
      <trkpt lat="43.35369" lon="1.81883">
        <ele>195.399994</ele>
        <time>2017-08-07T12:57:03Z</time>
      </trkpt>
      <trkpt lat="43.35379" lon="1.81884">
        <ele>193.899994</ele>
        <time>2017-08-07T12:57:06Z</time>
      </trkpt>
      <trkpt lat="43.35391" lon="1.81888">
        <ele>190.800003</ele>
        <time>2017-08-07T12:57:09Z</time>
      </trkpt>
      <trkpt lat="43.35402" lon="1.81887">
        <ele>187.5</ele>
        <time>2017-08-07T12:57:12Z</time>
      </trkpt>
      <trkpt lat="43.35413" lon="1.81888">
        <ele>184.100006</ele>
        <time>2017-08-07T12:57:15Z</time>
      </trkpt>
      <trkpt lat="43.35423" lon="1.81885">
        <ele>180.600006</ele>
        <time>2017-08-07T12:57:18Z</time>
      </trkpt>
      <trkpt lat="43.35433" lon="1.8188">
        <ele>177.199997</ele>
        <time>2017-08-07T12:57:21Z</time>
      </trkpt>
      <trkpt lat="43.35445" lon="1.81871">
        <ele>175</ele>
        <time>2017-08-07T12:57:24Z</time>
      </trkpt>
      <trkpt lat="43.35452" lon="1.81863">
        <ele>174.199997</ele>
        <time>2017-08-07T12:57:26Z</time>
      </trkpt>
      <trkpt lat="43.35461" lon="1.81857">
        <ele>173.300003</ele>
        <time>2017-08-07T12:57:33Z</time>
      </trkpt>
      <trkpt lat="43.3547" lon="1.81847">
        <ele>173.600006</ele>
        <time>2017-08-07T12:57:37Z</time>
      </trkpt>
      <trkpt lat="43.3548" lon="1.81838">
        <ele>173.399994</ele>
        <time>2017-08-07T12:57:40Z</time>
      </trkpt>
      <trkpt lat="43.35489" lon="1.81833">
        <ele>173.100006</ele>
        <time>2017-08-07T12:57:43Z</time>
      </trkpt>
      <trkpt lat="43.355" lon="1.81824">
        <ele>172.800003</ele>
        <time>2017-08-07T12:57:46Z</time>
      </trkpt>
      <trkpt lat="43.35506" lon="1.81814">
        <ele>172.800003</ele>
        <time>2017-08-07T12:57:49Z</time>
      </trkpt>
      <trkpt lat="43.35516" lon="1.81809">
        <ele>173.199997</ele>
        <time>2017-08-07T12:57:52Z</time>
      </trkpt>
      <trkpt lat="43.35526" lon="1.81815">
        <ele>173.5</ele>
        <time>2017-08-07T12:57:56Z</time>
      </trkpt>
      <trkpt lat="43.35533" lon="1.81828">
        <ele>174.800003</ele>
        <time>2017-08-07T12:58:00Z</time>
      </trkpt>
      <trkpt lat="43.3554" lon="1.81837">
        <ele>176.600006</ele>
        <time>2017-08-07T12:58:03Z</time>
      </trkpt>
      <trkpt lat="43.35549" lon="1.81829">
        <ele>177.600006</ele>
        <time>2017-08-07T12:58:08Z</time>
      </trkpt>
      <trkpt lat="43.35557" lon="1.8182">
        <ele>178.800003</ele>
        <time>2017-08-07T12:58:11Z</time>
      </trkpt>
      <trkpt lat="43.35565" lon="1.81808">
        <ele>179.800003</ele>
        <time>2017-08-07T12:58:14Z</time>
      </trkpt>
      <trkpt lat="43.35575" lon="1.818">
        <ele>181</ele>
        <time>2017-08-07T12:58:17Z</time>
      </trkpt>
      <trkpt lat="43.35581" lon="1.81789">
        <ele>182.5</ele>
        <time>2017-08-07T12:58:19Z</time>
      </trkpt>
      <trkpt lat="43.3559" lon="1.81783">
        <ele>185.399994</ele>
        <time>2017-08-07T12:58:21Z</time>
      </trkpt>
      <trkpt lat="43.356" lon="1.81772">
        <ele>188.899994</ele>
        <time>2017-08-07T12:58:24Z</time>
      </trkpt>
      <trkpt lat="43.35609" lon="1.81759">
        <ele>191</ele>
        <time>2017-08-07T12:58:27Z</time>
      </trkpt>
      <trkpt lat="43.35616" lon="1.8175">
        <ele>192.199997</ele>
        <time>2017-08-07T12:58:29Z</time>
      </trkpt>
      <trkpt lat="43.35622" lon="1.81737">
        <ele>192.800003</ele>
        <time>2017-08-07T12:58:33Z</time>
      </trkpt>
      <trkpt lat="43.35629" lon="1.81728">
        <ele>192.899994</ele>
        <time>2017-08-07T12:58:36Z</time>
      </trkpt>
      <trkpt lat="43.35635" lon="1.81717">
        <ele>192.5</ele>
        <time>2017-08-07T12:58:40Z</time>
      </trkpt>
      <trkpt lat="43.35641" lon="1.81706">
        <ele>191.800003</ele>
        <time>2017-08-07T12:58:44Z</time>
      </trkpt>
      <trkpt lat="43.35646" lon="1.81694">
        <ele>190.800003</ele>
        <time>2017-08-07T12:58:47Z</time>
      </trkpt>
      <trkpt lat="43.35652" lon="1.81681">
        <ele>190</ele>
        <time>2017-08-07T12:58:50Z</time>
      </trkpt>
      <trkpt lat="43.35658" lon="1.81671">
        <ele>189.300003</ele>
        <time>2017-08-07T12:58:53Z</time>
      </trkpt>
      <trkpt lat="43.35664" lon="1.81659">
        <ele>188.300003</ele>
        <time>2017-08-07T12:58:56Z</time>
      </trkpt>
      <trkpt lat="43.35667" lon="1.81647">
        <ele>187.600006</ele>
        <time>2017-08-07T12:58:59Z</time>
      </trkpt>
      <trkpt lat="43.35674" lon="1.81634">
        <ele>187.699997</ele>
        <time>2017-08-07T12:59:02Z</time>
      </trkpt>
      <trkpt lat="43.3568" lon="1.81617">
        <ele>185.600006</ele>
        <time>2017-08-07T12:59:05Z</time>
      </trkpt>
      <trkpt lat="43.35686" lon="1.81607">
        <ele>181.100006</ele>
        <time>2017-08-07T12:59:08Z</time>
      </trkpt>
      <trkpt lat="43.35691" lon="1.81595">
        <ele>177.899994</ele>
        <time>2017-08-07T12:59:11Z</time>
      </trkpt>
      <trkpt lat="43.35696" lon="1.81582">
        <ele>177.600006</ele>
        <time>2017-08-07T12:59:15Z</time>
      </trkpt>
      <trkpt lat="43.35701" lon="1.81571">
        <ele>177.100006</ele>
        <time>2017-08-07T12:59:19Z</time>
      </trkpt>
      <trkpt lat="43.35704" lon="1.81558">
        <ele>177.699997</ele>
        <time>2017-08-07T12:59:24Z</time>
      </trkpt>
      <trkpt lat="43.35711" lon="1.81547">
        <ele>178.699997</ele>
        <time>2017-08-07T12:59:28Z</time>
      </trkpt>
      <trkpt lat="43.35714" lon="1.81534">
        <ele>180.199997</ele>
        <time>2017-08-07T12:59:32Z</time>
      </trkpt>
      <trkpt lat="43.35719" lon="1.81523">
        <ele>182.199997</ele>
        <time>2017-08-07T12:59:36Z</time>
      </trkpt>
      <trkpt lat="43.35722" lon="1.81508">
        <ele>183.800003</ele>
        <time>2017-08-07T12:59:40Z</time>
      </trkpt>
      <trkpt lat="43.35726" lon="1.81495">
        <ele>184</ele>
        <time>2017-08-07T12:59:43Z</time>
      </trkpt>
      <trkpt lat="43.35731" lon="1.81482">
        <ele>184.600006</ele>
        <time>2017-08-07T12:59:46Z</time>
      </trkpt>
      <trkpt lat="43.35734" lon="1.8147">
        <ele>185.600006</ele>
        <time>2017-08-07T12:59:48Z</time>
      </trkpt>
      <trkpt lat="43.35738" lon="1.81458">
        <ele>186.800003</ele>
        <time>2017-08-07T12:59:50Z</time>
      </trkpt>
      <trkpt lat="43.3574" lon="1.81445">
        <ele>186.800003</ele>
        <time>2017-08-07T12:59:53Z</time>
      </trkpt>
      <trkpt lat="43.35741" lon="1.81428">
        <ele>186.699997</ele>
        <time>2017-08-07T12:59:56Z</time>
      </trkpt>
      <trkpt lat="43.35743" lon="1.81413">
        <ele>186</ele>
        <time>2017-08-07T12:59:59Z</time>
      </trkpt>
      <trkpt lat="43.35748" lon="1.81398">
        <ele>185.600006</ele>
        <time>2017-08-07T13:00:03Z</time>
      </trkpt>
      <trkpt lat="43.35752" lon="1.8138">
        <ele>185.199997</ele>
        <time>2017-08-07T13:00:06Z</time>
      </trkpt>
      <trkpt lat="43.35755" lon="1.81367">
        <ele>185.300003</ele>
        <time>2017-08-07T13:00:08Z</time>
      </trkpt>
      <trkpt lat="43.35758" lon="1.81355">
        <ele>185.300003</ele>
        <time>2017-08-07T13:00:10Z</time>
      </trkpt>
      <trkpt lat="43.35763" lon="1.81342">
        <ele>185.699997</ele>
        <time>2017-08-07T13:00:13Z</time>
      </trkpt>
      <trkpt lat="43.35768" lon="1.81328">
        <ele>185.399994</ele>
        <time>2017-08-07T13:00:16Z</time>
      </trkpt>
      <trkpt lat="43.35772" lon="1.81314">
        <ele>184.899994</ele>
        <time>2017-08-07T13:00:19Z</time>
      </trkpt>
      <trkpt lat="43.35774" lon="1.813">
        <ele>183.699997</ele>
        <time>2017-08-07T13:00:22Z</time>
      </trkpt>
      <trkpt lat="43.35778" lon="1.81285">
        <ele>183</ele>
        <time>2017-08-07T13:00:25Z</time>
      </trkpt>
      <trkpt lat="43.35782" lon="1.81272">
        <ele>183.300003</ele>
        <time>2017-08-07T13:00:28Z</time>
      </trkpt>
      <trkpt lat="43.35787" lon="1.8126">
        <ele>183.399994</ele>
        <time>2017-08-07T13:00:31Z</time>
      </trkpt>
      <trkpt lat="43.3579" lon="1.81247">
        <ele>182.800003</ele>
        <time>2017-08-07T13:00:34Z</time>
      </trkpt>
      <trkpt lat="43.3579" lon="1.81235">
        <ele>182.100006</ele>
        <time>2017-08-07T13:00:36Z</time>
      </trkpt>
      <trkpt lat="43.35789" lon="1.81216">
        <ele>181.399994</ele>
        <time>2017-08-07T13:00:39Z</time>
      </trkpt>
      <trkpt lat="43.35791" lon="1.812">
        <ele>181.5</ele>
        <time>2017-08-07T13:00:42Z</time>
      </trkpt>
      <trkpt lat="43.35795" lon="1.81185">
        <ele>182.600006</ele>
        <time>2017-08-07T13:00:45Z</time>
      </trkpt>
      <trkpt lat="43.35793" lon="1.81166">
        <ele>183.399994</ele>
        <time>2017-08-07T13:00:49Z</time>
      </trkpt>
      <trkpt lat="43.35796" lon="1.81151">
        <ele>183.800003</ele>
        <time>2017-08-07T13:00:52Z</time>
      </trkpt>
      <trkpt lat="43.358" lon="1.81138">
        <ele>183.5</ele>
        <time>2017-08-07T13:00:55Z</time>
      </trkpt>
      <trkpt lat="43.35799" lon="1.81124">
        <ele>183.300003</ele>
        <time>2017-08-07T13:00:58Z</time>
      </trkpt>
      <trkpt lat="43.35798" lon="1.8111">
        <ele>183.800003</ele>
        <time>2017-08-07T13:01:01Z</time>
      </trkpt>
      <trkpt lat="43.35798" lon="1.81097">
        <ele>184.399994</ele>
        <time>2017-08-07T13:01:04Z</time>
      </trkpt>
      <trkpt lat="43.35797" lon="1.81084">
        <ele>184.5</ele>
        <time>2017-08-07T13:01:07Z</time>
      </trkpt>
      <trkpt lat="43.35799" lon="1.81068">
        <ele>184.899994</ele>
        <time>2017-08-07T13:01:11Z</time>
      </trkpt>
      <trkpt lat="43.35796" lon="1.81052">
        <ele>185.199997</ele>
        <time>2017-08-07T13:01:13Z</time>
      </trkpt>
      <trkpt lat="43.35794" lon="1.81035">
        <ele>185.300003</ele>
        <time>2017-08-07T13:01:15Z</time>
      </trkpt>
      <trkpt lat="43.35792" lon="1.8102">
        <ele>185.100006</ele>
        <time>2017-08-07T13:01:17Z</time>
      </trkpt>
      <trkpt lat="43.3579" lon="1.81008">
        <ele>184.899994</ele>
        <time>2017-08-07T13:01:19Z</time>
      </trkpt>
      <trkpt lat="43.3579" lon="1.80991">
        <ele>184.899994</ele>
        <time>2017-08-07T13:01:22Z</time>
      </trkpt>
      <trkpt lat="43.35788" lon="1.80973">
        <ele>184.699997</ele>
        <time>2017-08-07T13:01:25Z</time>
      </trkpt>
      <trkpt lat="43.35785" lon="1.8096">
        <ele>184.5</ele>
        <time>2017-08-07T13:01:27Z</time>
      </trkpt>
      <trkpt lat="43.35783" lon="1.80943">
        <ele>184.600006</ele>
        <time>2017-08-07T13:01:30Z</time>
      </trkpt>
      <trkpt lat="43.35784" lon="1.80928">
        <ele>184.699997</ele>
        <time>2017-08-07T13:01:33Z</time>
      </trkpt>
      <trkpt lat="43.35784" lon="1.80916">
        <ele>184.5</ele>
        <time>2017-08-07T13:01:35Z</time>
      </trkpt>
      <trkpt lat="43.35781" lon="1.80904">
        <ele>184.399994</ele>
        <time>2017-08-07T13:01:37Z</time>
      </trkpt>
      <trkpt lat="43.3578" lon="1.80889">
        <ele>184.899994</ele>
        <time>2017-08-07T13:01:39Z</time>
      </trkpt>
      <trkpt lat="43.35775" lon="1.80873">
        <ele>185.5</ele>
        <time>2017-08-07T13:01:41Z</time>
      </trkpt>
      <trkpt lat="43.35772" lon="1.80858">
        <ele>186.5</ele>
        <time>2017-08-07T13:01:44Z</time>
      </trkpt>
      <trkpt lat="43.35772" lon="1.80842">
        <ele>187.600006</ele>
        <time>2017-08-07T13:01:48Z</time>
      </trkpt>
      <trkpt lat="43.35769" lon="1.80829">
        <ele>187.699997</ele>
        <time>2017-08-07T13:01:51Z</time>
      </trkpt>
      <trkpt lat="43.35765" lon="1.80814">
        <ele>187.300003</ele>
        <time>2017-08-07T13:01:54Z</time>
      </trkpt>
      <trkpt lat="43.35762" lon="1.80799">
        <ele>186.899994</ele>
        <time>2017-08-07T13:01:57Z</time>
      </trkpt>
      <trkpt lat="43.35759" lon="1.80783">
        <ele>186.899994</ele>
        <time>2017-08-07T13:02:00Z</time>
      </trkpt>
      <trkpt lat="43.35756" lon="1.8077">
        <ele>187</ele>
        <time>2017-08-07T13:02:03Z</time>
      </trkpt>
      <trkpt lat="43.35753" lon="1.80753">
        <ele>187.5</ele>
        <time>2017-08-07T13:02:06Z</time>
      </trkpt>
      <trkpt lat="43.35752" lon="1.80739">
        <ele>188.199997</ele>
        <time>2017-08-07T13:02:09Z</time>
      </trkpt>
      <trkpt lat="43.35747" lon="1.80722">
        <ele>188</ele>
        <time>2017-08-07T13:02:12Z</time>
      </trkpt>
      <trkpt lat="43.35743" lon="1.80711">
        <ele>188</ele>
        <time>2017-08-07T13:02:15Z</time>
      </trkpt>
      <trkpt lat="43.35739" lon="1.80698">
        <ele>188</ele>
        <time>2017-08-07T13:02:17Z</time>
      </trkpt>
      <trkpt lat="43.35735" lon="1.80686">
        <ele>188.300003</ele>
        <time>2017-08-07T13:02:19Z</time>
      </trkpt>
      <trkpt lat="43.35727" lon="1.80672">
        <ele>187</ele>
        <time>2017-08-07T13:02:22Z</time>
      </trkpt>
      <trkpt lat="43.3572" lon="1.80657">
        <ele>185.5</ele>
        <time>2017-08-07T13:02:25Z</time>
      </trkpt>
      <trkpt lat="43.35713" lon="1.80642">
        <ele>184.800003</ele>
        <time>2017-08-07T13:02:28Z</time>
      </trkpt>
      <trkpt lat="43.35709" lon="1.80625">
        <ele>185</ele>
        <time>2017-08-07T13:02:32Z</time>
      </trkpt>
      <trkpt lat="43.35704" lon="1.80612">
        <ele>185.800003</ele>
        <time>2017-08-07T13:02:35Z</time>
      </trkpt>
      <trkpt lat="43.35704" lon="1.806">
        <ele>186.399994</ele>
        <time>2017-08-07T13:02:38Z</time>
      </trkpt>
      <trkpt lat="43.35702" lon="1.80587">
        <ele>186.5</ele>
        <time>2017-08-07T13:02:41Z</time>
      </trkpt>
      <trkpt lat="43.357" lon="1.80574">
        <ele>186.5</ele>
        <time>2017-08-07T13:02:44Z</time>
      </trkpt>
      <trkpt lat="43.35695" lon="1.80558">
        <ele>186.899994</ele>
        <time>2017-08-07T13:02:47Z</time>
      </trkpt>
      <trkpt lat="43.35688" lon="1.80544">
        <ele>188.100006</ele>
        <time>2017-08-07T13:02:50Z</time>
      </trkpt>
      <trkpt lat="43.35677" lon="1.80533">
        <ele>190.300003</ele>
        <time>2017-08-07T13:02:53Z</time>
      </trkpt>
      <trkpt lat="43.35671" lon="1.80523">
        <ele>191.5</ele>
        <time>2017-08-07T13:02:56Z</time>
      </trkpt>
      <trkpt lat="43.35665" lon="1.8051">
        <ele>192.899994</ele>
        <time>2017-08-07T13:02:59Z</time>
      </trkpt>
      <trkpt lat="43.35657" lon="1.805">
        <ele>195</ele>
        <time>2017-08-07T13:03:02Z</time>
      </trkpt>
      <trkpt lat="43.35652" lon="1.80487">
        <ele>196.699997</ele>
        <time>2017-08-07T13:03:05Z</time>
      </trkpt>
      <trkpt lat="43.35644" lon="1.80471">
        <ele>196.199997</ele>
        <time>2017-08-07T13:03:08Z</time>
      </trkpt>
      <trkpt lat="43.35637" lon="1.8046">
        <ele>196.100006</ele>
        <time>2017-08-07T13:03:10Z</time>
      </trkpt>
      <trkpt lat="43.3563" lon="1.80448">
        <ele>196.300003</ele>
        <time>2017-08-07T13:03:13Z</time>
      </trkpt>
      <trkpt lat="43.35624" lon="1.80437">
        <ele>196.199997</ele>
        <time>2017-08-07T13:03:15Z</time>
      </trkpt>
      <trkpt lat="43.35615" lon="1.80424">
        <ele>195.199997</ele>
        <time>2017-08-07T13:03:18Z</time>
      </trkpt>
      <trkpt lat="43.35607" lon="1.80411">
        <ele>193.899994</ele>
        <time>2017-08-07T13:03:21Z</time>
      </trkpt>
      <trkpt lat="43.356" lon="1.804">
        <ele>192.600006</ele>
        <time>2017-08-07T13:03:24Z</time>
      </trkpt>
      <trkpt lat="43.35592" lon="1.8039">
        <ele>192.5</ele>
        <time>2017-08-07T13:03:26Z</time>
      </trkpt>
      <trkpt lat="43.35585" lon="1.80378">
        <ele>193.199997</ele>
        <time>2017-08-07T13:03:29Z</time>
      </trkpt>
      <trkpt lat="43.35579" lon="1.80367">
        <ele>193</ele>
        <time>2017-08-07T13:03:31Z</time>
      </trkpt>
      <trkpt lat="43.35572" lon="1.80358">
        <ele>192.199997</ele>
        <time>2017-08-07T13:03:33Z</time>
      </trkpt>
      <trkpt lat="43.35565" lon="1.8035">
        <ele>191.199997</ele>
        <time>2017-08-07T13:03:35Z</time>
      </trkpt>
      <trkpt lat="43.35556" lon="1.80343">
        <ele>190</ele>
        <time>2017-08-07T13:03:38Z</time>
      </trkpt>
      <trkpt lat="43.35546" lon="1.80341">
        <ele>189</ele>
        <time>2017-08-07T13:03:41Z</time>
      </trkpt>
      <trkpt lat="43.35536" lon="1.80331">
        <ele>186.699997</ele>
        <time>2017-08-07T13:03:44Z</time>
      </trkpt>
      <trkpt lat="43.35528" lon="1.80319">
        <ele>183.899994</ele>
        <time>2017-08-07T13:03:47Z</time>
      </trkpt>
      <trkpt lat="43.3552" lon="1.80314">
        <ele>181.5</ele>
        <time>2017-08-07T13:03:51Z</time>
      </trkpt>
      <trkpt lat="43.35512" lon="1.80303">
        <ele>180.100006</ele>
        <time>2017-08-07T13:03:54Z</time>
      </trkpt>
      <trkpt lat="43.35506" lon="1.80293">
        <ele>180.399994</ele>
        <time>2017-08-07T13:03:56Z</time>
      </trkpt>
      <trkpt lat="43.35498" lon="1.80283">
        <ele>181.600006</ele>
        <time>2017-08-07T13:03:58Z</time>
      </trkpt>
      <trkpt lat="43.35492" lon="1.80272">
        <ele>183.199997</ele>
        <time>2017-08-07T13:04:00Z</time>
      </trkpt>
      <trkpt lat="43.35488" lon="1.80256">
        <ele>184.5</ele>
        <time>2017-08-07T13:04:03Z</time>
      </trkpt>
      <trkpt lat="43.3548" lon="1.80242">
        <ele>184.800003</ele>
        <time>2017-08-07T13:04:06Z</time>
      </trkpt>
      <trkpt lat="43.35474" lon="1.80233">
        <ele>185.199997</ele>
        <time>2017-08-07T13:04:08Z</time>
      </trkpt>
      <trkpt lat="43.35466" lon="1.80222">
        <ele>186.300003</ele>
        <time>2017-08-07T13:04:11Z</time>
      </trkpt>
      <trkpt lat="43.35458" lon="1.80211">
        <ele>187.699997</ele>
        <time>2017-08-07T13:04:14Z</time>
      </trkpt>
      <trkpt lat="43.35451" lon="1.80198">
        <ele>187.300003</ele>
        <time>2017-08-07T13:04:17Z</time>
      </trkpt>
      <trkpt lat="43.35445" lon="1.80188">
        <ele>186.699997</ele>
        <time>2017-08-07T13:04:19Z</time>
      </trkpt>
      <trkpt lat="43.35439" lon="1.80179">
        <ele>186.300003</ele>
        <time>2017-08-07T13:04:21Z</time>
      </trkpt>
      <trkpt lat="43.35433" lon="1.80163">
        <ele>185.600006</ele>
        <time>2017-08-07T13:04:24Z</time>
      </trkpt>
      <trkpt lat="43.35428" lon="1.80146">
        <ele>184.600006</ele>
        <time>2017-08-07T13:04:27Z</time>
      </trkpt>
      <trkpt lat="43.35423" lon="1.80128">
        <ele>183.199997</ele>
        <time>2017-08-07T13:04:30Z</time>
      </trkpt>
      <trkpt lat="43.35419" lon="1.80116">
        <ele>182</ele>
        <time>2017-08-07T13:04:32Z</time>
      </trkpt>
      <trkpt lat="43.35415" lon="1.80104">
        <ele>180.800003</ele>
        <time>2017-08-07T13:04:34Z</time>
      </trkpt>
      <trkpt lat="43.35413" lon="1.80091">
        <ele>179.899994</ele>
        <time>2017-08-07T13:04:36Z</time>
      </trkpt>
      <trkpt lat="43.35411" lon="1.80078">
        <ele>179.300003</ele>
        <time>2017-08-07T13:04:38Z</time>
      </trkpt>
      <trkpt lat="43.35409" lon="1.80064">
        <ele>179.199997</ele>
        <time>2017-08-07T13:04:40Z</time>
      </trkpt>
      <trkpt lat="43.35408" lon="1.8005">
        <ele>179.899994</ele>
        <time>2017-08-07T13:04:42Z</time>
      </trkpt>
      <trkpt lat="43.35408" lon="1.80036">
        <ele>180.800003</ele>
        <time>2017-08-07T13:04:44Z</time>
      </trkpt>
      <trkpt lat="43.35409" lon="1.80018">
        <ele>181.899994</ele>
        <time>2017-08-07T13:04:47Z</time>
      </trkpt>
      <trkpt lat="43.35409" lon="1.80005">
        <ele>182.300003</ele>
        <time>2017-08-07T13:04:49Z</time>
      </trkpt>
      <trkpt lat="43.3541" lon="1.79992">
        <ele>182.399994</ele>
        <time>2017-08-07T13:04:51Z</time>
      </trkpt>
      <trkpt lat="43.35407" lon="1.79978">
        <ele>182.5</ele>
        <time>2017-08-07T13:04:54Z</time>
      </trkpt>
      <trkpt lat="43.35405" lon="1.79964">
        <ele>182.899994</ele>
        <time>2017-08-07T13:04:57Z</time>
      </trkpt>
      <trkpt lat="43.35405" lon="1.79951">
        <ele>183.399994</ele>
        <time>2017-08-07T13:04:59Z</time>
      </trkpt>
      <trkpt lat="43.3541" lon="1.79935">
        <ele>184.199997</ele>
        <time>2017-08-07T13:05:02Z</time>
      </trkpt>
      <trkpt lat="43.35416" lon="1.79923">
        <ele>184.300003</ele>
        <time>2017-08-07T13:05:05Z</time>
      </trkpt>
      <trkpt lat="43.35421" lon="1.79911">
        <ele>184.399994</ele>
        <time>2017-08-07T13:05:07Z</time>
      </trkpt>
      <trkpt lat="43.35426" lon="1.79894">
        <ele>185.100006</ele>
        <time>2017-08-07T13:05:10Z</time>
      </trkpt>
      <trkpt lat="43.35433" lon="1.79882">
        <ele>185.5</ele>
        <time>2017-08-07T13:05:13Z</time>
      </trkpt>
      <trkpt lat="43.35439" lon="1.79871">
        <ele>184.800003</ele>
        <time>2017-08-07T13:05:15Z</time>
      </trkpt>
      <trkpt lat="43.35444" lon="1.79856">
        <ele>183.899994</ele>
        <time>2017-08-07T13:05:18Z</time>
      </trkpt>
      <trkpt lat="43.35448" lon="1.79844">
        <ele>183.699997</ele>
        <time>2017-08-07T13:05:20Z</time>
      </trkpt>
      <trkpt lat="43.35452" lon="1.79832">
        <ele>182.899994</ele>
        <time>2017-08-07T13:05:22Z</time>
      </trkpt>
      <trkpt lat="43.35456" lon="1.7982">
        <ele>182.399994</ele>
        <time>2017-08-07T13:05:24Z</time>
      </trkpt>
      <trkpt lat="43.35461" lon="1.79803">
        <ele>181.300003</ele>
        <time>2017-08-07T13:05:27Z</time>
      </trkpt>
      <trkpt lat="43.35468" lon="1.79788">
        <ele>180.300003</ele>
        <time>2017-08-07T13:05:30Z</time>
      </trkpt>
      <trkpt lat="43.35473" lon="1.79778">
        <ele>179.300003</ele>
        <time>2017-08-07T13:05:32Z</time>
      </trkpt>
      <trkpt lat="43.35477" lon="1.79766">
        <ele>178.600006</ele>
        <time>2017-08-07T13:05:34Z</time>
      </trkpt>
      <trkpt lat="43.35485" lon="1.79751">
        <ele>177.199997</ele>
        <time>2017-08-07T13:05:37Z</time>
      </trkpt>
      <trkpt lat="43.35494" lon="1.79737">
        <ele>176.699997</ele>
        <time>2017-08-07T13:05:40Z</time>
      </trkpt>
      <trkpt lat="43.35499" lon="1.79726">
        <ele>176.399994</ele>
        <time>2017-08-07T13:05:42Z</time>
      </trkpt>
      <trkpt lat="43.35506" lon="1.79712">
        <ele>176.300003</ele>
        <time>2017-08-07T13:05:45Z</time>
      </trkpt>
      <trkpt lat="43.35514" lon="1.797">
        <ele>176.600006</ele>
        <time>2017-08-07T13:05:48Z</time>
      </trkpt>
      <trkpt lat="43.35522" lon="1.79691">
        <ele>177.300003</ele>
        <time>2017-08-07T13:05:51Z</time>
      </trkpt>
      <trkpt lat="43.35531" lon="1.79677">
        <ele>178.100006</ele>
        <time>2017-08-07T13:05:54Z</time>
      </trkpt>
      <trkpt lat="43.35538" lon="1.79662">
        <ele>178.100006</ele>
        <time>2017-08-07T13:05:57Z</time>
      </trkpt>
      <trkpt lat="43.35544" lon="1.79646">
        <ele>177.800003</ele>
        <time>2017-08-07T13:06:00Z</time>
      </trkpt>
      <trkpt lat="43.35549" lon="1.79635">
        <ele>177.800003</ele>
        <time>2017-08-07T13:06:02Z</time>
      </trkpt>
      <trkpt lat="43.35553" lon="1.79624">
        <ele>178.199997</ele>
        <time>2017-08-07T13:06:04Z</time>
      </trkpt>
      <trkpt lat="43.35559" lon="1.79614">
        <ele>178.699997</ele>
        <time>2017-08-07T13:06:06Z</time>
      </trkpt>
      <trkpt lat="43.35564" lon="1.79603">
        <ele>178.699997</ele>
        <time>2017-08-07T13:06:08Z</time>
      </trkpt>
      <trkpt lat="43.35572" lon="1.79589">
        <ele>178.699997</ele>
        <time>2017-08-07T13:06:11Z</time>
      </trkpt>
      <trkpt lat="43.35576" lon="1.79575">
        <ele>178.300003</ele>
        <time>2017-08-07T13:06:14Z</time>
      </trkpt>
      <trkpt lat="43.3558" lon="1.79561">
        <ele>178.300003</ele>
        <time>2017-08-07T13:06:18Z</time>
      </trkpt>
      <trkpt lat="43.35584" lon="1.79546">
        <ele>178.199997</ele>
        <time>2017-08-07T13:06:23Z</time>
      </trkpt>
      <trkpt lat="43.35587" lon="1.79532">
        <ele>178.199997</ele>
        <time>2017-08-07T13:06:26Z</time>
      </trkpt>
      <trkpt lat="43.35593" lon="1.79516">
        <ele>178.399994</ele>
        <time>2017-08-07T13:06:29Z</time>
      </trkpt>
      <trkpt lat="43.35595" lon="1.79501">
        <ele>178.300003</ele>
        <time>2017-08-07T13:06:32Z</time>
      </trkpt>
      <trkpt lat="43.35597" lon="1.79486">
        <ele>178</ele>
        <time>2017-08-07T13:06:35Z</time>
      </trkpt>
      <trkpt lat="43.356" lon="1.79468">
        <ele>177.600006</ele>
        <time>2017-08-07T13:06:38Z</time>
      </trkpt>
      <trkpt lat="43.35603" lon="1.79451">
        <ele>177.300003</ele>
        <time>2017-08-07T13:06:41Z</time>
      </trkpt>
      <trkpt lat="43.35604" lon="1.79439">
        <ele>177.199997</ele>
        <time>2017-08-07T13:06:43Z</time>
      </trkpt>
      <trkpt lat="43.35607" lon="1.79422">
        <ele>177.399994</ele>
        <time>2017-08-07T13:06:46Z</time>
      </trkpt>
      <trkpt lat="43.35611" lon="1.79407">
        <ele>177.899994</ele>
        <time>2017-08-07T13:06:49Z</time>
      </trkpt>
      <trkpt lat="43.35613" lon="1.7939">
        <ele>178.600006</ele>
        <time>2017-08-07T13:06:52Z</time>
      </trkpt>
      <trkpt lat="43.35615" lon="1.79377">
        <ele>179.300003</ele>
        <time>2017-08-07T13:06:54Z</time>
      </trkpt>
      <trkpt lat="43.35617" lon="1.79365">
        <ele>179.800003</ele>
        <time>2017-08-07T13:06:56Z</time>
      </trkpt>
      <trkpt lat="43.35619" lon="1.79349">
        <ele>180.100006</ele>
        <time>2017-08-07T13:06:58Z</time>
      </trkpt>
      <trkpt lat="43.35621" lon="1.79336">
        <ele>180.399994</ele>
        <time>2017-08-07T13:07:00Z</time>
      </trkpt>
      <trkpt lat="43.35625" lon="1.79322">
        <ele>181</ele>
        <time>2017-08-07T13:07:03Z</time>
      </trkpt>
      <trkpt lat="43.3563" lon="1.79306">
        <ele>181.399994</ele>
        <time>2017-08-07T13:07:06Z</time>
      </trkpt>
      <trkpt lat="43.35631" lon="1.79291">
        <ele>181.600006</ele>
        <time>2017-08-07T13:07:08Z</time>
      </trkpt>
      <trkpt lat="43.35635" lon="1.79278">
        <ele>181.800003</ele>
        <time>2017-08-07T13:07:10Z</time>
      </trkpt>
      <trkpt lat="43.35637" lon="1.79262">
        <ele>181.899994</ele>
        <time>2017-08-07T13:07:12Z</time>
      </trkpt>
      <trkpt lat="43.35641" lon="1.79249">
        <ele>182.100006</ele>
        <time>2017-08-07T13:07:14Z</time>
      </trkpt>
      <trkpt lat="43.35643" lon="1.79233">
        <ele>182.100006</ele>
        <time>2017-08-07T13:07:16Z</time>
      </trkpt>
      <trkpt lat="43.35647" lon="1.7922">
        <ele>181.600006</ele>
        <time>2017-08-07T13:07:18Z</time>
      </trkpt>
      <trkpt lat="43.3565" lon="1.79204">
        <ele>180.699997</ele>
        <time>2017-08-07T13:07:20Z</time>
      </trkpt>
      <trkpt lat="43.35653" lon="1.79189">
        <ele>180.399994</ele>
        <time>2017-08-07T13:07:22Z</time>
      </trkpt>
      <trkpt lat="43.35657" lon="1.79174">
        <ele>180.100006</ele>
        <time>2017-08-07T13:07:24Z</time>
      </trkpt>
      <trkpt lat="43.35659" lon="1.7916">
        <ele>179.800003</ele>
        <time>2017-08-07T13:07:26Z</time>
      </trkpt>
      <trkpt lat="43.35663" lon="1.79147">
        <ele>179.399994</ele>
        <time>2017-08-07T13:07:28Z</time>
      </trkpt>
      <trkpt lat="43.35667" lon="1.79134">
        <ele>178.800003</ele>
        <time>2017-08-07T13:07:30Z</time>
      </trkpt>
      <trkpt lat="43.35666" lon="1.79122">
        <ele>178</ele>
        <time>2017-08-07T13:07:32Z</time>
      </trkpt>
      <trkpt lat="43.35671" lon="1.79105">
        <ele>178.300003</ele>
        <time>2017-08-07T13:07:35Z</time>
      </trkpt>
      <trkpt lat="43.35674" lon="1.79091">
        <ele>178.600006</ele>
        <time>2017-08-07T13:07:38Z</time>
      </trkpt>
      <trkpt lat="43.35679" lon="1.79078">
        <ele>178.899994</ele>
        <time>2017-08-07T13:07:41Z</time>
      </trkpt>
      <trkpt lat="43.35681" lon="1.79066">
        <ele>178.899994</ele>
        <time>2017-08-07T13:07:44Z</time>
      </trkpt>
      <trkpt lat="43.35685" lon="1.79051">
        <ele>178.300003</ele>
        <time>2017-08-07T13:07:47Z</time>
      </trkpt>
      <trkpt lat="43.35689" lon="1.79035">
        <ele>178</ele>
        <time>2017-08-07T13:07:50Z</time>
      </trkpt>
      <trkpt lat="43.35694" lon="1.79018">
        <ele>178</ele>
        <time>2017-08-07T13:07:53Z</time>
      </trkpt>
      <trkpt lat="43.35698" lon="1.79005">
        <ele>178</ele>
        <time>2017-08-07T13:07:55Z</time>
      </trkpt>
      <trkpt lat="43.35702" lon="1.78993">
        <ele>178</ele>
        <time>2017-08-07T13:07:57Z</time>
      </trkpt>
      <trkpt lat="43.35706" lon="1.78981">
        <ele>178</ele>
        <time>2017-08-07T13:07:59Z</time>
      </trkpt>
      <trkpt lat="43.35713" lon="1.78965">
        <ele>177.699997</ele>
        <time>2017-08-07T13:08:02Z</time>
      </trkpt>
      <trkpt lat="43.35717" lon="1.78952">
        <ele>177.699997</ele>
        <time>2017-08-07T13:08:04Z</time>
      </trkpt>
      <trkpt lat="43.35721" lon="1.78938">
        <ele>178.100006</ele>
        <time>2017-08-07T13:08:06Z</time>
      </trkpt>
      <trkpt lat="43.35725" lon="1.78924">
        <ele>178.600006</ele>
        <time>2017-08-07T13:08:08Z</time>
      </trkpt>
      <trkpt lat="43.35728" lon="1.78909">
        <ele>179.300003</ele>
        <time>2017-08-07T13:08:10Z</time>
      </trkpt>
      <trkpt lat="43.3573" lon="1.78893">
        <ele>179.600006</ele>
        <time>2017-08-07T13:08:12Z</time>
      </trkpt>
      <trkpt lat="43.35735" lon="1.78881">
        <ele>179.399994</ele>
        <time>2017-08-07T13:08:14Z</time>
      </trkpt>
      <trkpt lat="43.35739" lon="1.78868">
        <ele>178.899994</ele>
        <time>2017-08-07T13:08:16Z</time>
      </trkpt>
      <trkpt lat="43.35742" lon="1.78856">
        <ele>178.600006</ele>
        <time>2017-08-07T13:08:18Z</time>
      </trkpt>
      <trkpt lat="43.35744" lon="1.78843">
        <ele>178.5</ele>
        <time>2017-08-07T13:08:20Z</time>
      </trkpt>
      <trkpt lat="43.35748" lon="1.78829">
        <ele>178.399994</ele>
        <time>2017-08-07T13:08:22Z</time>
      </trkpt>
      <trkpt lat="43.35752" lon="1.78817">
        <ele>178.5</ele>
        <time>2017-08-07T13:08:24Z</time>
      </trkpt>
      <trkpt lat="43.35755" lon="1.78802">
        <ele>178.899994</ele>
        <time>2017-08-07T13:08:26Z</time>
      </trkpt>
      <trkpt lat="43.35757" lon="1.78787">
        <ele>179.199997</ele>
        <time>2017-08-07T13:08:28Z</time>
      </trkpt>
      <trkpt lat="43.3576" lon="1.78773">
        <ele>179.300003</ele>
        <time>2017-08-07T13:08:30Z</time>
      </trkpt>
      <trkpt lat="43.35764" lon="1.78758">
        <ele>179.199997</ele>
        <time>2017-08-07T13:08:32Z</time>
      </trkpt>
      <trkpt lat="43.35769" lon="1.78745">
        <ele>179.199997</ele>
        <time>2017-08-07T13:08:34Z</time>
      </trkpt>
      <trkpt lat="43.35773" lon="1.78732">
        <ele>179.399994</ele>
        <time>2017-08-07T13:08:36Z</time>
      </trkpt>
      <trkpt lat="43.35777" lon="1.7872">
        <ele>180</ele>
        <time>2017-08-07T13:08:38Z</time>
      </trkpt>
      <trkpt lat="43.35781" lon="1.78707">
        <ele>180.399994</ele>
        <time>2017-08-07T13:08:40Z</time>
      </trkpt>
      <trkpt lat="43.35784" lon="1.78694">
        <ele>179.899994</ele>
        <time>2017-08-07T13:08:42Z</time>
      </trkpt>
      <trkpt lat="43.35787" lon="1.78681">
        <ele>179.399994</ele>
        <time>2017-08-07T13:08:44Z</time>
      </trkpt>
      <trkpt lat="43.35791" lon="1.78669">
        <ele>179.100006</ele>
        <time>2017-08-07T13:08:46Z</time>
      </trkpt>
      <trkpt lat="43.35796" lon="1.78657">
        <ele>178.899994</ele>
        <time>2017-08-07T13:08:48Z</time>
      </trkpt>
      <trkpt lat="43.35801" lon="1.78641">
        <ele>179.100006</ele>
        <time>2017-08-07T13:08:51Z</time>
      </trkpt>
      <trkpt lat="43.35804" lon="1.78626">
        <ele>179.399994</ele>
        <time>2017-08-07T13:08:53Z</time>
      </trkpt>
      <trkpt lat="43.35806" lon="1.78612">
        <ele>179.300003</ele>
        <time>2017-08-07T13:08:55Z</time>
      </trkpt>
      <trkpt lat="43.35811" lon="1.78598">
        <ele>179.399994</ele>
        <time>2017-08-07T13:08:57Z</time>
      </trkpt>
      <trkpt lat="43.35814" lon="1.78584">
        <ele>179.600006</ele>
        <time>2017-08-07T13:08:59Z</time>
      </trkpt>
      <trkpt lat="43.35818" lon="1.7857">
        <ele>179.899994</ele>
        <time>2017-08-07T13:09:01Z</time>
      </trkpt>
      <trkpt lat="43.35821" lon="1.78555">
        <ele>180</ele>
        <time>2017-08-07T13:09:03Z</time>
      </trkpt>
      <trkpt lat="43.35825" lon="1.7854">
        <ele>180</ele>
        <time>2017-08-07T13:09:05Z</time>
      </trkpt>
      <trkpt lat="43.35831" lon="1.78527">
        <ele>180.199997</ele>
        <time>2017-08-07T13:09:07Z</time>
      </trkpt>
      <trkpt lat="43.35835" lon="1.78512">
        <ele>180.5</ele>
        <time>2017-08-07T13:09:09Z</time>
      </trkpt>
      <trkpt lat="43.35839" lon="1.78499">
        <ele>180.5</ele>
        <time>2017-08-07T13:09:11Z</time>
      </trkpt>
      <trkpt lat="43.35843" lon="1.78486">
        <ele>180.199997</ele>
        <time>2017-08-07T13:09:13Z</time>
      </trkpt>
      <trkpt lat="43.35846" lon="1.78473">
        <ele>180.5</ele>
        <time>2017-08-07T13:09:15Z</time>
      </trkpt>
      <trkpt lat="43.35849" lon="1.78461">
        <ele>180.800003</ele>
        <time>2017-08-07T13:09:17Z</time>
      </trkpt>
      <trkpt lat="43.3585" lon="1.78447">
        <ele>180.899994</ele>
        <time>2017-08-07T13:09:19Z</time>
      </trkpt>
      <trkpt lat="43.35853" lon="1.78434">
        <ele>180.800003</ele>
        <time>2017-08-07T13:09:21Z</time>
      </trkpt>
      <trkpt lat="43.35858" lon="1.78419">
        <ele>180.600006</ele>
        <time>2017-08-07T13:09:23Z</time>
      </trkpt>
      <trkpt lat="43.35861" lon="1.78404">
        <ele>180.5</ele>
        <time>2017-08-07T13:09:25Z</time>
      </trkpt>
      <trkpt lat="43.35866" lon="1.78391">
        <ele>180.600006</ele>
        <time>2017-08-07T13:09:27Z</time>
      </trkpt>
      <trkpt lat="43.3587" lon="1.78379">
        <ele>180.800003</ele>
        <time>2017-08-07T13:09:29Z</time>
      </trkpt>
      <trkpt lat="43.35875" lon="1.78367">
        <ele>180.699997</ele>
        <time>2017-08-07T13:09:31Z</time>
      </trkpt>
      <trkpt lat="43.35881" lon="1.78355">
        <ele>180.199997</ele>
        <time>2017-08-07T13:09:33Z</time>
      </trkpt>
      <trkpt lat="43.35885" lon="1.78343">
        <ele>179.899994</ele>
        <time>2017-08-07T13:09:35Z</time>
      </trkpt>
      <trkpt lat="43.35889" lon="1.78331">
        <ele>179.699997</ele>
        <time>2017-08-07T13:09:37Z</time>
      </trkpt>
      <trkpt lat="43.35896" lon="1.78316">
        <ele>179.600006</ele>
        <time>2017-08-07T13:09:40Z</time>
      </trkpt>
      <trkpt lat="43.359" lon="1.78304">
        <ele>179.399994</ele>
        <time>2017-08-07T13:09:42Z</time>
      </trkpt>
      <trkpt lat="43.35906" lon="1.78294">
        <ele>179</ele>
        <time>2017-08-07T13:09:44Z</time>
      </trkpt>
      <trkpt lat="43.35914" lon="1.78283">
        <ele>178.600006</ele>
        <time>2017-08-07T13:09:47Z</time>
      </trkpt>
      <trkpt lat="43.35919" lon="1.7827">
        <ele>178.5</ele>
        <time>2017-08-07T13:09:50Z</time>
      </trkpt>
      <trkpt lat="43.35927" lon="1.78258">
        <ele>178.699997</ele>
        <time>2017-08-07T13:09:53Z</time>
      </trkpt>
      <trkpt lat="43.35935" lon="1.78244">
        <ele>178.300003</ele>
        <time>2017-08-07T13:09:56Z</time>
      </trkpt>
      <trkpt lat="43.35943" lon="1.78231">
        <ele>177.899994</ele>
        <time>2017-08-07T13:09:58Z</time>
      </trkpt>
      <trkpt lat="43.3595" lon="1.7822">
        <ele>177.5</ele>
        <time>2017-08-07T13:10:00Z</time>
      </trkpt>
      <trkpt lat="43.35959" lon="1.78205">
        <ele>176.899994</ele>
        <time>2017-08-07T13:10:03Z</time>
      </trkpt>
      <trkpt lat="43.35965" lon="1.78195">
        <ele>176.300003</ele>
        <time>2017-08-07T13:10:05Z</time>
      </trkpt>
      <trkpt lat="43.35972" lon="1.78183">
        <ele>176</ele>
        <time>2017-08-07T13:10:07Z</time>
      </trkpt>
      <trkpt lat="43.35978" lon="1.78171">
        <ele>175.899994</ele>
        <time>2017-08-07T13:10:09Z</time>
      </trkpt>
      <trkpt lat="43.35983" lon="1.78161">
        <ele>175.899994</ele>
        <time>2017-08-07T13:10:11Z</time>
      </trkpt>
      <trkpt lat="43.35987" lon="1.78149">
        <ele>175.899994</ele>
        <time>2017-08-07T13:10:13Z</time>
      </trkpt>
      <trkpt lat="43.35994" lon="1.78138">
        <ele>175.5</ele>
        <time>2017-08-07T13:10:15Z</time>
      </trkpt>
      <trkpt lat="43.35999" lon="1.78126">
        <ele>175.5</ele>
        <time>2017-08-07T13:10:17Z</time>
      </trkpt>
      <trkpt lat="43.36004" lon="1.78115">
        <ele>175.800003</ele>
        <time>2017-08-07T13:10:19Z</time>
      </trkpt>
      <trkpt lat="43.3601" lon="1.78103">
        <ele>176.399994</ele>
        <time>2017-08-07T13:10:21Z</time>
      </trkpt>
      <trkpt lat="43.36015" lon="1.78091">
        <ele>176.899994</ele>
        <time>2017-08-07T13:10:23Z</time>
      </trkpt>
      <trkpt lat="43.36021" lon="1.78079">
        <ele>176.800003</ele>
        <time>2017-08-07T13:10:25Z</time>
      </trkpt>
      <trkpt lat="43.36025" lon="1.78068">
        <ele>177</ele>
        <time>2017-08-07T13:10:27Z</time>
      </trkpt>
      <trkpt lat="43.36032" lon="1.78057">
        <ele>177.199997</ele>
        <time>2017-08-07T13:10:29Z</time>
      </trkpt>
      <trkpt lat="43.36037" lon="1.78041">
        <ele>177.800003</ele>
        <time>2017-08-07T13:10:32Z</time>
      </trkpt>
      <trkpt lat="43.36042" lon="1.78025">
        <ele>178</ele>
        <time>2017-08-07T13:10:34Z</time>
      </trkpt>
      <trkpt lat="43.36046" lon="1.78012">
        <ele>177.899994</ele>
        <time>2017-08-07T13:10:36Z</time>
      </trkpt>
      <trkpt lat="43.36049" lon="1.78">
        <ele>178</ele>
        <time>2017-08-07T13:10:38Z</time>
      </trkpt>
      <trkpt lat="43.36053" lon="1.77983">
        <ele>178.300003</ele>
        <time>2017-08-07T13:10:41Z</time>
      </trkpt>
      <trkpt lat="43.36055" lon="1.77971">
        <ele>178.399994</ele>
        <time>2017-08-07T13:10:43Z</time>
      </trkpt>
      <trkpt lat="43.36059" lon="1.77959">
        <ele>178.800003</ele>
        <time>2017-08-07T13:10:45Z</time>
      </trkpt>
      <trkpt lat="43.36061" lon="1.77946">
        <ele>179</ele>
        <time>2017-08-07T13:10:47Z</time>
      </trkpt>
      <trkpt lat="43.36065" lon="1.77933">
        <ele>179.399994</ele>
        <time>2017-08-07T13:10:49Z</time>
      </trkpt>
      <trkpt lat="43.36068" lon="1.77919">
        <ele>179.5</ele>
        <time>2017-08-07T13:10:51Z</time>
      </trkpt>
      <trkpt lat="43.36072" lon="1.77901">
        <ele>179.199997</ele>
        <time>2017-08-07T13:10:54Z</time>
      </trkpt>
      <trkpt lat="43.36077" lon="1.77889">
        <ele>179.199997</ele>
        <time>2017-08-07T13:10:56Z</time>
      </trkpt>
      <trkpt lat="43.36082" lon="1.77877">
        <ele>179.300003</ele>
        <time>2017-08-07T13:10:58Z</time>
      </trkpt>
      <trkpt lat="43.36087" lon="1.77866">
        <ele>179</ele>
        <time>2017-08-07T13:11:00Z</time>
      </trkpt>
      <trkpt lat="43.36092" lon="1.77854">
        <ele>178</ele>
        <time>2017-08-07T13:11:02Z</time>
      </trkpt>
      <trkpt lat="43.36098" lon="1.77843">
        <ele>176.899994</ele>
        <time>2017-08-07T13:11:04Z</time>
      </trkpt>
      <trkpt lat="43.36106" lon="1.77829">
        <ele>176.300003</ele>
        <time>2017-08-07T13:11:07Z</time>
      </trkpt>
      <trkpt lat="43.36115" lon="1.77818">
        <ele>176.199997</ele>
        <time>2017-08-07T13:11:10Z</time>
      </trkpt>
      <trkpt lat="43.36122" lon="1.77807">
        <ele>175.600006</ele>
        <time>2017-08-07T13:11:12Z</time>
      </trkpt>
      <trkpt lat="43.36128" lon="1.77789">
        <ele>174.199997</ele>
        <time>2017-08-07T13:11:15Z</time>
      </trkpt>
      <trkpt lat="43.36134" lon="1.77779">
        <ele>173.899994</ele>
        <time>2017-08-07T13:11:17Z</time>
      </trkpt>
      <trkpt lat="43.36143" lon="1.77764">
        <ele>174.199997</ele>
        <time>2017-08-07T13:11:20Z</time>
      </trkpt>
      <trkpt lat="43.36152" lon="1.77754">
        <ele>174.699997</ele>
        <time>2017-08-07T13:11:23Z</time>
      </trkpt>
      <trkpt lat="43.36158" lon="1.77744">
        <ele>174.5</ele>
        <time>2017-08-07T13:11:25Z</time>
      </trkpt>
      <trkpt lat="43.36167" lon="1.77729">
        <ele>174.600006</ele>
        <time>2017-08-07T13:11:28Z</time>
      </trkpt>
      <trkpt lat="43.36176" lon="1.77719">
        <ele>175.600006</ele>
        <time>2017-08-07T13:11:31Z</time>
      </trkpt>
      <trkpt lat="43.36185" lon="1.77706">
        <ele>176.100006</ele>
        <time>2017-08-07T13:11:34Z</time>
      </trkpt>
      <trkpt lat="43.36194" lon="1.77693">
        <ele>175.899994</ele>
        <time>2017-08-07T13:11:37Z</time>
      </trkpt>
      <trkpt lat="43.36199" lon="1.77683">
        <ele>175.800003</ele>
        <time>2017-08-07T13:11:39Z</time>
      </trkpt>
      <trkpt lat="43.36206" lon="1.77672">
        <ele>175.600006</ele>
        <time>2017-08-07T13:11:41Z</time>
      </trkpt>
      <trkpt lat="43.36212" lon="1.77663">
        <ele>175.699997</ele>
        <time>2017-08-07T13:11:43Z</time>
      </trkpt>
      <trkpt lat="43.36219" lon="1.77653">
        <ele>176</ele>
        <time>2017-08-07T13:11:45Z</time>
      </trkpt>
      <trkpt lat="43.36226" lon="1.77639">
        <ele>176.399994</ele>
        <time>2017-08-07T13:11:47Z</time>
      </trkpt>
      <trkpt lat="43.36231" lon="1.77622">
        <ele>176.300003</ele>
        <time>2017-08-07T13:11:49Z</time>
      </trkpt>
      <trkpt lat="43.36237" lon="1.77606">
        <ele>175.800003</ele>
        <time>2017-08-07T13:11:51Z</time>
      </trkpt>
      <trkpt lat="43.36244" lon="1.77593">
        <ele>175.699997</ele>
        <time>2017-08-07T13:11:53Z</time>
      </trkpt>
      <trkpt lat="43.36249" lon="1.77577">
        <ele>175.699997</ele>
        <time>2017-08-07T13:11:55Z</time>
      </trkpt>
      <trkpt lat="43.36255" lon="1.77562">
        <ele>175.899994</ele>
        <time>2017-08-07T13:11:57Z</time>
      </trkpt>
      <trkpt lat="43.3626" lon="1.77547">
        <ele>176.399994</ele>
        <time>2017-08-07T13:11:59Z</time>
      </trkpt>
      <trkpt lat="43.36266" lon="1.77532">
        <ele>176.800003</ele>
        <time>2017-08-07T13:12:01Z</time>
      </trkpt>
      <trkpt lat="43.36272" lon="1.77518">
        <ele>176.899994</ele>
        <time>2017-08-07T13:12:03Z</time>
      </trkpt>
      <trkpt lat="43.36276" lon="1.77503">
        <ele>177</ele>
        <time>2017-08-07T13:12:05Z</time>
      </trkpt>
      <trkpt lat="43.3628" lon="1.7749">
        <ele>177.300003</ele>
        <time>2017-08-07T13:12:07Z</time>
      </trkpt>
      <trkpt lat="43.36284" lon="1.77475">
        <ele>177.5</ele>
        <time>2017-08-07T13:12:09Z</time>
      </trkpt>
      <trkpt lat="43.3629" lon="1.77463">
        <ele>177.899994</ele>
        <time>2017-08-07T13:12:11Z</time>
      </trkpt>
      <trkpt lat="43.36294" lon="1.77449">
        <ele>177.699997</ele>
        <time>2017-08-07T13:12:13Z</time>
      </trkpt>
      <trkpt lat="43.36299" lon="1.77435">
        <ele>177.199997</ele>
        <time>2017-08-07T13:12:15Z</time>
      </trkpt>
      <trkpt lat="43.36305" lon="1.77422">
        <ele>176.5</ele>
        <time>2017-08-07T13:12:17Z</time>
      </trkpt>
      <trkpt lat="43.3631" lon="1.77407">
        <ele>175.100006</ele>
        <time>2017-08-07T13:12:19Z</time>
      </trkpt>
      <trkpt lat="43.36315" lon="1.77394">
        <ele>174.100006</ele>
        <time>2017-08-07T13:12:21Z</time>
      </trkpt>
      <trkpt lat="43.36318" lon="1.77377">
        <ele>172.600006</ele>
        <time>2017-08-07T13:12:24Z</time>
      </trkpt>
      <trkpt lat="43.3632" lon="1.77364">
        <ele>172.399994</ele>
        <time>2017-08-07T13:12:28Z</time>
      </trkpt>
      <trkpt lat="43.36321" lon="1.77351">
        <ele>173</ele>
        <time>2017-08-07T13:12:31Z</time>
      </trkpt>
      <trkpt lat="43.36324" lon="1.77338">
        <ele>173.699997</ele>
        <time>2017-08-07T13:12:34Z</time>
      </trkpt>
      <trkpt lat="43.36329" lon="1.77328">
        <ele>174.600006</ele>
        <time>2017-08-07T13:12:37Z</time>
      </trkpt>
      <trkpt lat="43.36334" lon="1.77316">
        <ele>175.5</ele>
        <time>2017-08-07T13:12:40Z</time>
      </trkpt>
      <trkpt lat="43.3634" lon="1.77306">
        <ele>176.199997</ele>
        <time>2017-08-07T13:13:05Z</time>
      </trkpt>
      <trkpt lat="43.36343" lon="1.77292">
        <ele>176.5</ele>
        <time>2017-08-07T13:13:10Z</time>
      </trkpt>
      <trkpt lat="43.36347" lon="1.7728">
        <ele>176.199997</ele>
        <time>2017-08-07T13:13:13Z</time>
      </trkpt>
      <trkpt lat="43.3635" lon="1.77267">
        <ele>175.5</ele>
        <time>2017-08-07T13:13:15Z</time>
      </trkpt>
      <trkpt lat="43.36353" lon="1.77253">
        <ele>175</ele>
        <time>2017-08-07T13:13:17Z</time>
      </trkpt>
      <trkpt lat="43.36358" lon="1.77238">
        <ele>174.800003</ele>
        <time>2017-08-07T13:13:19Z</time>
      </trkpt>
      <trkpt lat="43.36363" lon="1.77223">
        <ele>174.699997</ele>
        <time>2017-08-07T13:13:21Z</time>
      </trkpt>
      <trkpt lat="43.36368" lon="1.77206">
        <ele>174.600006</ele>
        <time>2017-08-07T13:13:23Z</time>
      </trkpt>
      <trkpt lat="43.36372" lon="1.77188">
        <ele>175.699997</ele>
        <time>2017-08-07T13:13:25Z</time>
      </trkpt>
      <trkpt lat="43.36375" lon="1.77174">
        <ele>176.800003</ele>
        <time>2017-08-07T13:13:27Z</time>
      </trkpt>
      <trkpt lat="43.36377" lon="1.77159">
        <ele>176.800003</ele>
        <time>2017-08-07T13:13:29Z</time>
      </trkpt>
      <trkpt lat="43.36378" lon="1.77145">
        <ele>176.300003</ele>
        <time>2017-08-07T13:13:31Z</time>
      </trkpt>
      <trkpt lat="43.3638" lon="1.77129">
        <ele>175.5</ele>
        <time>2017-08-07T13:13:33Z</time>
      </trkpt>
      <trkpt lat="43.36382" lon="1.77112">
        <ele>175.300003</ele>
        <time>2017-08-07T13:13:35Z</time>
      </trkpt>
      <trkpt lat="43.36386" lon="1.77097">
        <ele>175.399994</ele>
        <time>2017-08-07T13:13:37Z</time>
      </trkpt>
      <trkpt lat="43.36388" lon="1.77081">
        <ele>175.699997</ele>
        <time>2017-08-07T13:13:39Z</time>
      </trkpt>
      <trkpt lat="43.36392" lon="1.77063">
        <ele>176.399994</ele>
        <time>2017-08-07T13:13:42Z</time>
      </trkpt>
      <trkpt lat="43.36394" lon="1.77049">
        <ele>177.300003</ele>
        <time>2017-08-07T13:13:44Z</time>
      </trkpt>
      <trkpt lat="43.36395" lon="1.77034">
        <ele>177.699997</ele>
        <time>2017-08-07T13:13:46Z</time>
      </trkpt>
      <trkpt lat="43.36397" lon="1.7702">
        <ele>177.699997</ele>
        <time>2017-08-07T13:13:48Z</time>
      </trkpt>
      <trkpt lat="43.36399" lon="1.77007">
        <ele>177.800003</ele>
        <time>2017-08-07T13:13:50Z</time>
      </trkpt>
      <trkpt lat="43.36401" lon="1.76987">
        <ele>178.5</ele>
        <time>2017-08-07T13:13:53Z</time>
      </trkpt>
      <trkpt lat="43.36402" lon="1.76971">
        <ele>178.899994</ele>
        <time>2017-08-07T13:13:55Z</time>
      </trkpt>
      <trkpt lat="43.36402" lon="1.76955">
        <ele>179.100006</ele>
        <time>2017-08-07T13:13:57Z</time>
      </trkpt>
      <trkpt lat="43.36403" lon="1.7694">
        <ele>180.100006</ele>
        <time>2017-08-07T13:13:59Z</time>
      </trkpt>
      <trkpt lat="43.36404" lon="1.76926">
        <ele>180.699997</ele>
        <time>2017-08-07T13:14:01Z</time>
      </trkpt>
      <trkpt lat="43.36404" lon="1.76912">
        <ele>180.399994</ele>
        <time>2017-08-07T13:14:03Z</time>
      </trkpt>
      <trkpt lat="43.36404" lon="1.76898">
        <ele>180</ele>
        <time>2017-08-07T13:14:05Z</time>
      </trkpt>
      <trkpt lat="43.36404" lon="1.76883">
        <ele>179.5</ele>
        <time>2017-08-07T13:14:07Z</time>
      </trkpt>
      <trkpt lat="43.36407" lon="1.76869">
        <ele>179.199997</ele>
        <time>2017-08-07T13:14:09Z</time>
      </trkpt>
      <trkpt lat="43.36409" lon="1.76856">
        <ele>179.100006</ele>
        <time>2017-08-07T13:14:11Z</time>
      </trkpt>
      <trkpt lat="43.36411" lon="1.76842">
        <ele>179</ele>
        <time>2017-08-07T13:14:13Z</time>
      </trkpt>
      <trkpt lat="43.36413" lon="1.76829">
        <ele>178.800003</ele>
        <time>2017-08-07T13:14:15Z</time>
      </trkpt>
      <trkpt lat="43.36416" lon="1.76815">
        <ele>178.699997</ele>
        <time>2017-08-07T13:14:17Z</time>
      </trkpt>
      <trkpt lat="43.36419" lon="1.76802">
        <ele>178.399994</ele>
        <time>2017-08-07T13:14:19Z</time>
      </trkpt>
      <trkpt lat="43.36422" lon="1.76787">
        <ele>178.399994</ele>
        <time>2017-08-07T13:14:21Z</time>
      </trkpt>
      <trkpt lat="43.36427" lon="1.76774">
        <ele>179.100006</ele>
        <time>2017-08-07T13:14:23Z</time>
      </trkpt>
      <trkpt lat="43.36431" lon="1.7676">
        <ele>179.699997</ele>
        <time>2017-08-07T13:14:25Z</time>
      </trkpt>
      <trkpt lat="43.36435" lon="1.76746">
        <ele>179.100006</ele>
        <time>2017-08-07T13:14:27Z</time>
      </trkpt>
      <trkpt lat="43.36439" lon="1.76733">
        <ele>178.5</ele>
        <time>2017-08-07T13:14:29Z</time>
      </trkpt>
      <trkpt lat="43.36445" lon="1.76716">
        <ele>178.300003</ele>
        <time>2017-08-07T13:14:32Z</time>
      </trkpt>
      <trkpt lat="43.36449" lon="1.76704">
        <ele>178.5</ele>
        <time>2017-08-07T13:14:34Z</time>
      </trkpt>
      <trkpt lat="43.36453" lon="1.7669">
        <ele>178.699997</ele>
        <time>2017-08-07T13:14:36Z</time>
      </trkpt>
      <trkpt lat="43.36457" lon="1.76678">
        <ele>178.800003</ele>
        <time>2017-08-07T13:14:38Z</time>
      </trkpt>
      <trkpt lat="43.36462" lon="1.76664">
        <ele>179.199997</ele>
        <time>2017-08-07T13:14:40Z</time>
      </trkpt>
      <trkpt lat="43.36467" lon="1.76651">
        <ele>179.699997</ele>
        <time>2017-08-07T13:14:42Z</time>
      </trkpt>
      <trkpt lat="43.36471" lon="1.76637">
        <ele>179.800003</ele>
        <time>2017-08-07T13:14:44Z</time>
      </trkpt>
      <trkpt lat="43.36476" lon="1.76623">
        <ele>179.800003</ele>
        <time>2017-08-07T13:14:46Z</time>
      </trkpt>
      <trkpt lat="43.3648" lon="1.76609">
        <ele>180.100006</ele>
        <time>2017-08-07T13:14:48Z</time>
      </trkpt>
      <trkpt lat="43.36486" lon="1.76595">
        <ele>180</ele>
        <time>2017-08-07T13:14:50Z</time>
      </trkpt>
      <trkpt lat="43.36491" lon="1.76583">
        <ele>180.5</ele>
        <time>2017-08-07T13:14:52Z</time>
      </trkpt>
      <trkpt lat="43.36496" lon="1.7657">
        <ele>181</ele>
        <time>2017-08-07T13:14:54Z</time>
      </trkpt>
      <trkpt lat="43.365" lon="1.76555">
        <ele>180.800003</ele>
        <time>2017-08-07T13:14:56Z</time>
      </trkpt>
      <trkpt lat="43.36505" lon="1.76543">
        <ele>180.5</ele>
        <time>2017-08-07T13:14:58Z</time>
      </trkpt>
      <trkpt lat="43.36511" lon="1.76532">
        <ele>179.899994</ele>
        <time>2017-08-07T13:15:00Z</time>
      </trkpt>
      <trkpt lat="43.36516" lon="1.7652">
        <ele>179</ele>
        <time>2017-08-07T13:15:02Z</time>
      </trkpt>
      <trkpt lat="43.36521" lon="1.76506">
        <ele>178.600006</ele>
        <time>2017-08-07T13:15:04Z</time>
      </trkpt>
      <trkpt lat="43.36527" lon="1.76494">
        <ele>178.5</ele>
        <time>2017-08-07T13:15:06Z</time>
      </trkpt>
      <trkpt lat="43.36533" lon="1.76483">
        <ele>178.699997</ele>
        <time>2017-08-07T13:15:08Z</time>
      </trkpt>
      <trkpt lat="43.36539" lon="1.76471">
        <ele>179</ele>
        <time>2017-08-07T13:15:10Z</time>
      </trkpt>
      <trkpt lat="43.36546" lon="1.76457">
        <ele>179.600006</ele>
        <time>2017-08-07T13:15:13Z</time>
      </trkpt>
      <trkpt lat="43.36554" lon="1.76444">
        <ele>179.899994</ele>
        <time>2017-08-07T13:15:16Z</time>
      </trkpt>
      <trkpt lat="43.36561" lon="1.76431">
        <ele>180.5</ele>
        <time>2017-08-07T13:15:19Z</time>
      </trkpt>
      <trkpt lat="43.36566" lon="1.76414">
        <ele>180.899994</ele>
        <time>2017-08-07T13:15:22Z</time>
      </trkpt>
      <trkpt lat="43.3657" lon="1.76397">
        <ele>180.800003</ele>
        <time>2017-08-07T13:15:25Z</time>
      </trkpt>
      <trkpt lat="43.36573" lon="1.76385">
        <ele>180.300003</ele>
        <time>2017-08-07T13:15:27Z</time>
      </trkpt>
      <trkpt lat="43.36575" lon="1.76372">
        <ele>180</ele>
        <time>2017-08-07T13:15:29Z</time>
      </trkpt>
      <trkpt lat="43.36578" lon="1.76359">
        <ele>180</ele>
        <time>2017-08-07T13:15:31Z</time>
      </trkpt>
      <trkpt lat="43.3658" lon="1.76346">
        <ele>180.199997</ele>
        <time>2017-08-07T13:15:33Z</time>
      </trkpt>
      <trkpt lat="43.36582" lon="1.76332">
        <ele>180.600006</ele>
        <time>2017-08-07T13:15:35Z</time>
      </trkpt>
      <trkpt lat="43.36583" lon="1.76319">
        <ele>180.899994</ele>
        <time>2017-08-07T13:15:37Z</time>
      </trkpt>
      <trkpt lat="43.36584" lon="1.76304">
        <ele>181.100006</ele>
        <time>2017-08-07T13:15:39Z</time>
      </trkpt>
      <trkpt lat="43.36586" lon="1.76287">
        <ele>181.199997</ele>
        <time>2017-08-07T13:15:41Z</time>
      </trkpt>
      <trkpt lat="43.36588" lon="1.7627">
        <ele>180.899994</ele>
        <time>2017-08-07T13:15:43Z</time>
      </trkpt>
      <trkpt lat="43.3659" lon="1.76255">
        <ele>180.800003</ele>
        <time>2017-08-07T13:15:45Z</time>
      </trkpt>
      <trkpt lat="43.36591" lon="1.76238">
        <ele>180.600006</ele>
        <time>2017-08-07T13:15:47Z</time>
      </trkpt>
      <trkpt lat="43.36595" lon="1.76222">
        <ele>180.5</ele>
        <time>2017-08-07T13:15:49Z</time>
      </trkpt>
      <trkpt lat="43.36597" lon="1.76208">
        <ele>180.100006</ele>
        <time>2017-08-07T13:15:51Z</time>
      </trkpt>
      <trkpt lat="43.36601" lon="1.76196">
        <ele>180.300003</ele>
        <time>2017-08-07T13:15:53Z</time>
      </trkpt>
      <trkpt lat="43.36603" lon="1.76184">
        <ele>180.600006</ele>
        <time>2017-08-07T13:15:55Z</time>
      </trkpt>
      <trkpt lat="43.36607" lon="1.76167">
        <ele>180.899994</ele>
        <time>2017-08-07T13:15:58Z</time>
      </trkpt>
      <trkpt lat="43.36611" lon="1.7615">
        <ele>180.899994</ele>
        <time>2017-08-07T13:16:01Z</time>
      </trkpt>
      <trkpt lat="43.36614" lon="1.76137">
        <ele>180.399994</ele>
        <time>2017-08-07T13:16:03Z</time>
      </trkpt>
      <trkpt lat="43.36617" lon="1.76124">
        <ele>179.800003</ele>
        <time>2017-08-07T13:16:05Z</time>
      </trkpt>
      <trkpt lat="43.36621" lon="1.7611">
        <ele>178.899994</ele>
        <time>2017-08-07T13:16:07Z</time>
      </trkpt>
      <trkpt lat="43.36625" lon="1.76097">
        <ele>178.100006</ele>
        <time>2017-08-07T13:16:09Z</time>
      </trkpt>
      <trkpt lat="43.3663" lon="1.76086">
        <ele>178.399994</ele>
        <time>2017-08-07T13:16:11Z</time>
      </trkpt>
      <trkpt lat="43.36634" lon="1.76075">
        <ele>178.899994</ele>
        <time>2017-08-07T13:16:13Z</time>
      </trkpt>
      <trkpt lat="43.3664" lon="1.76059">
        <ele>179.5</ele>
        <time>2017-08-07T13:16:16Z</time>
      </trkpt>
      <trkpt lat="43.36646" lon="1.76045">
        <ele>180</ele>
        <time>2017-08-07T13:16:19Z</time>
      </trkpt>
      <trkpt lat="43.36653" lon="1.76029">
        <ele>179.800003</ele>
        <time>2017-08-07T13:16:22Z</time>
      </trkpt>
      <trkpt lat="43.36659" lon="1.76012">
        <ele>178.899994</ele>
        <time>2017-08-07T13:16:25Z</time>
      </trkpt>
      <trkpt lat="43.36664" lon="1.75999">
        <ele>178.899994</ele>
        <time>2017-08-07T13:16:27Z</time>
      </trkpt>
      <trkpt lat="43.3667" lon="1.75985">
        <ele>178.899994</ele>
        <time>2017-08-07T13:16:29Z</time>
      </trkpt>
      <trkpt lat="43.36675" lon="1.75973">
        <ele>179</ele>
        <time>2017-08-07T13:16:31Z</time>
      </trkpt>
      <trkpt lat="43.3668" lon="1.75962">
        <ele>179.100006</ele>
        <time>2017-08-07T13:16:33Z</time>
      </trkpt>
      <trkpt lat="43.36687" lon="1.75946">
        <ele>179.399994</ele>
        <time>2017-08-07T13:16:36Z</time>
      </trkpt>
      <trkpt lat="43.36691" lon="1.75934">
        <ele>179.600006</ele>
        <time>2017-08-07T13:16:38Z</time>
      </trkpt>
      <trkpt lat="43.36697" lon="1.75918">
        <ele>180.100006</ele>
        <time>2017-08-07T13:16:41Z</time>
      </trkpt>
      <trkpt lat="43.36701" lon="1.75906">
        <ele>180.300003</ele>
        <time>2017-08-07T13:16:43Z</time>
      </trkpt>
      <trkpt lat="43.36709" lon="1.75891">
        <ele>180.199997</ele>
        <time>2017-08-07T13:16:46Z</time>
      </trkpt>
      <trkpt lat="43.36716" lon="1.75875">
        <ele>179.899994</ele>
        <time>2017-08-07T13:16:49Z</time>
      </trkpt>
      <trkpt lat="43.36721" lon="1.75863">
        <ele>179.800003</ele>
        <time>2017-08-07T13:16:51Z</time>
      </trkpt>
      <trkpt lat="43.36727" lon="1.75849">
        <ele>179.5</ele>
        <time>2017-08-07T13:16:53Z</time>
      </trkpt>
      <trkpt lat="43.36734" lon="1.75837">
        <ele>179.300003</ele>
        <time>2017-08-07T13:16:55Z</time>
      </trkpt>
      <trkpt lat="43.3674" lon="1.75825">
        <ele>178.699997</ele>
        <time>2017-08-07T13:16:57Z</time>
      </trkpt>
      <trkpt lat="43.36747" lon="1.75815">
        <ele>178.5</ele>
        <time>2017-08-07T13:16:59Z</time>
      </trkpt>
      <trkpt lat="43.36754" lon="1.75805">
        <ele>178.600006</ele>
        <time>2017-08-07T13:17:01Z</time>
      </trkpt>
      <trkpt lat="43.36762" lon="1.75791">
        <ele>178.800003</ele>
        <time>2017-08-07T13:17:04Z</time>
      </trkpt>
      <trkpt lat="43.36772" lon="1.75778">
        <ele>178.600006</ele>
        <time>2017-08-07T13:17:07Z</time>
      </trkpt>
      <trkpt lat="43.36781" lon="1.75763">
        <ele>178.199997</ele>
        <time>2017-08-07T13:17:10Z</time>
      </trkpt>
      <trkpt lat="43.36789" lon="1.75753">
        <ele>178.199997</ele>
        <time>2017-08-07T13:17:12Z</time>
      </trkpt>
      <trkpt lat="43.36796" lon="1.75744">
        <ele>177.899994</ele>
        <time>2017-08-07T13:17:14Z</time>
      </trkpt>
      <trkpt lat="43.36806" lon="1.75732">
        <ele>177.800003</ele>
        <time>2017-08-07T13:17:17Z</time>
      </trkpt>
      <trkpt lat="43.36815" lon="1.75718">
        <ele>177.100006</ele>
        <time>2017-08-07T13:17:20Z</time>
      </trkpt>
      <trkpt lat="43.36823" lon="1.75707">
        <ele>176.199997</ele>
        <time>2017-08-07T13:17:22Z</time>
      </trkpt>
      <trkpt lat="43.36829" lon="1.75698">
        <ele>175.600006</ele>
        <time>2017-08-07T13:17:24Z</time>
      </trkpt>
      <trkpt lat="43.36836" lon="1.75687">
        <ele>174.699997</ele>
        <time>2017-08-07T13:17:27Z</time>
      </trkpt>
      <trkpt lat="43.36844" lon="1.75677">
        <ele>173.899994</ele>
        <time>2017-08-07T13:17:33Z</time>
      </trkpt>
      <trkpt lat="43.36851" lon="1.75666">
        <ele>174</ele>
        <time>2017-08-07T13:17:38Z</time>
      </trkpt>
      <trkpt lat="43.36858" lon="1.75657">
        <ele>175</ele>
        <time>2017-08-07T13:17:43Z</time>
      </trkpt>
      <trkpt lat="43.36867" lon="1.75649">
        <ele>176.300003</ele>
        <time>2017-08-07T13:17:48Z</time>
      </trkpt>
      <trkpt lat="43.36873" lon="1.7564">
        <ele>176.899994</ele>
        <time>2017-08-07T13:17:52Z</time>
      </trkpt>
      <trkpt lat="43.36881" lon="1.75632">
        <ele>177.100006</ele>
        <time>2017-08-07T13:17:56Z</time>
      </trkpt>
      <trkpt lat="43.36888" lon="1.75624">
        <ele>177.399994</ele>
        <time>2017-08-07T13:17:59Z</time>
      </trkpt>
      <trkpt lat="43.36897" lon="1.75616">
        <ele>177.600006</ele>
        <time>2017-08-07T13:18:02Z</time>
      </trkpt>
      <trkpt lat="43.36907" lon="1.7561">
        <ele>177</ele>
        <time>2017-08-07T13:18:05Z</time>
      </trkpt>
      <trkpt lat="43.36919" lon="1.75605">
        <ele>176.5</ele>
        <time>2017-08-07T13:18:08Z</time>
      </trkpt>
      <trkpt lat="43.36926" lon="1.75597">
        <ele>175.199997</ele>
        <time>2017-08-07T13:18:10Z</time>
      </trkpt>
      <trkpt lat="43.36933" lon="1.75589">
        <ele>174.899994</ele>
        <time>2017-08-07T13:18:12Z</time>
      </trkpt>
      <trkpt lat="43.36941" lon="1.75581">
        <ele>175.100006</ele>
        <time>2017-08-07T13:18:14Z</time>
      </trkpt>
      <trkpt lat="43.36949" lon="1.7557">
        <ele>175.300003</ele>
        <time>2017-08-07T13:18:17Z</time>
      </trkpt>
      <trkpt lat="43.3696" lon="1.75561">
        <ele>175.100006</ele>
        <time>2017-08-07T13:18:20Z</time>
      </trkpt>
      <trkpt lat="43.36971" lon="1.75551">
        <ele>174</ele>
        <time>2017-08-07T13:18:23Z</time>
      </trkpt>
      <trkpt lat="43.36982" lon="1.75544">
        <ele>173.300003</ele>
        <time>2017-08-07T13:18:26Z</time>
      </trkpt>
      <trkpt lat="43.36991" lon="1.75536">
        <ele>172.600006</ele>
        <time>2017-08-07T13:18:28Z</time>
      </trkpt>
      <trkpt lat="43.36999" lon="1.75527">
        <ele>172</ele>
        <time>2017-08-07T13:18:30Z</time>
      </trkpt>
      <trkpt lat="43.37007" lon="1.7552">
        <ele>171.800003</ele>
        <time>2017-08-07T13:18:32Z</time>
      </trkpt>
      <trkpt lat="43.37015" lon="1.75512">
        <ele>171.699997</ele>
        <time>2017-08-07T13:18:34Z</time>
      </trkpt>
      <trkpt lat="43.37023" lon="1.75503">
        <ele>170.800003</ele>
        <time>2017-08-07T13:18:36Z</time>
      </trkpt>
      <trkpt lat="43.37031" lon="1.75494">
        <ele>170.699997</ele>
        <time>2017-08-07T13:18:38Z</time>
      </trkpt>
      <trkpt lat="43.3704" lon="1.75488">
        <ele>171.5</ele>
        <time>2017-08-07T13:18:40Z</time>
      </trkpt>
      <trkpt lat="43.37048" lon="1.75476">
        <ele>170.699997</ele>
        <time>2017-08-07T13:18:43Z</time>
      </trkpt>
      <trkpt lat="43.37058" lon="1.75465">
        <ele>169.800003</ele>
        <time>2017-08-07T13:18:46Z</time>
      </trkpt>
      <trkpt lat="43.37066" lon="1.75458">
        <ele>169.600006</ele>
        <time>2017-08-07T13:18:48Z</time>
      </trkpt>
      <trkpt lat="43.37076" lon="1.75447">
        <ele>167.800003</ele>
        <time>2017-08-07T13:18:51Z</time>
      </trkpt>
      <trkpt lat="43.37084" lon="1.75439">
        <ele>166.600006</ele>
        <time>2017-08-07T13:18:53Z</time>
      </trkpt>
      <trkpt lat="43.37093" lon="1.75434">
        <ele>166.100006</ele>
        <time>2017-08-07T13:18:55Z</time>
      </trkpt>
      <trkpt lat="43.371" lon="1.75426">
        <ele>165.699997</ele>
        <time>2017-08-07T13:18:57Z</time>
      </trkpt>
      <trkpt lat="43.37107" lon="1.75417">
        <ele>165.399994</ele>
        <time>2017-08-07T13:18:59Z</time>
      </trkpt>
      <trkpt lat="43.37115" lon="1.75409">
        <ele>165.399994</ele>
        <time>2017-08-07T13:19:01Z</time>
      </trkpt>
      <trkpt lat="43.37123" lon="1.75397">
        <ele>165.899994</ele>
        <time>2017-08-07T13:19:03Z</time>
      </trkpt>
      <trkpt lat="43.37134" lon="1.75382">
        <ele>167.300003</ele>
        <time>2017-08-07T13:19:06Z</time>
      </trkpt>
      <trkpt lat="43.37143" lon="1.75372">
        <ele>168.100006</ele>
        <time>2017-08-07T13:19:08Z</time>
      </trkpt>
      <trkpt lat="43.3715" lon="1.75359">
        <ele>168.699997</ele>
        <time>2017-08-07T13:19:10Z</time>
      </trkpt>
      <trkpt lat="43.37157" lon="1.75347">
        <ele>169</ele>
        <time>2017-08-07T13:19:12Z</time>
      </trkpt>
      <trkpt lat="43.37163" lon="1.75335">
        <ele>169.300003</ele>
        <time>2017-08-07T13:19:14Z</time>
      </trkpt>
      <trkpt lat="43.37169" lon="1.75325">
        <ele>169.800003</ele>
        <time>2017-08-07T13:19:16Z</time>
      </trkpt>
      <trkpt lat="43.37173" lon="1.75313">
        <ele>170.5</ele>
        <time>2017-08-07T13:19:18Z</time>
      </trkpt>
      <trkpt lat="43.37178" lon="1.75301">
        <ele>171.300003</ele>
        <time>2017-08-07T13:19:20Z</time>
      </trkpt>
      <trkpt lat="43.37182" lon="1.75289">
        <ele>171.899994</ele>
        <time>2017-08-07T13:19:22Z</time>
      </trkpt>
      <trkpt lat="43.37186" lon="1.75275">
        <ele>172.399994</ele>
        <time>2017-08-07T13:19:24Z</time>
      </trkpt>
      <trkpt lat="43.3719" lon="1.75262">
        <ele>172.899994</ele>
        <time>2017-08-07T13:19:26Z</time>
      </trkpt>
      <trkpt lat="43.37196" lon="1.75248">
        <ele>172.800003</ele>
        <time>2017-08-07T13:19:28Z</time>
      </trkpt>
      <trkpt lat="43.37201" lon="1.75236">
        <ele>172.699997</ele>
        <time>2017-08-07T13:19:30Z</time>
      </trkpt>
      <trkpt lat="43.37206" lon="1.75223">
        <ele>172.800003</ele>
        <time>2017-08-07T13:19:32Z</time>
      </trkpt>
      <trkpt lat="43.3721" lon="1.75211">
        <ele>173</ele>
        <time>2017-08-07T13:19:34Z</time>
      </trkpt>
      <trkpt lat="43.37214" lon="1.75199">
        <ele>172.600006</ele>
        <time>2017-08-07T13:19:36Z</time>
      </trkpt>
      <trkpt lat="43.37219" lon="1.75188">
        <ele>172.100006</ele>
        <time>2017-08-07T13:19:38Z</time>
      </trkpt>
      <trkpt lat="43.37222" lon="1.75175">
        <ele>172</ele>
        <time>2017-08-07T13:19:40Z</time>
      </trkpt>
      <trkpt lat="43.37226" lon="1.75163">
        <ele>172.199997</ele>
        <time>2017-08-07T13:19:42Z</time>
      </trkpt>
      <trkpt lat="43.37228" lon="1.7515">
        <ele>172.399994</ele>
        <time>2017-08-07T13:19:44Z</time>
      </trkpt>
      <trkpt lat="43.37233" lon="1.7514">
        <ele>173</ele>
        <time>2017-08-07T13:19:46Z</time>
      </trkpt>
      <trkpt lat="43.37238" lon="1.75127">
        <ele>173.800003</ele>
        <time>2017-08-07T13:19:48Z</time>
      </trkpt>
      <trkpt lat="43.37242" lon="1.75113">
        <ele>173.5</ele>
        <time>2017-08-07T13:19:50Z</time>
      </trkpt>
      <trkpt lat="43.37247" lon="1.75101">
        <ele>173.5</ele>
        <time>2017-08-07T13:19:52Z</time>
      </trkpt>
      <trkpt lat="43.37252" lon="1.75089">
        <ele>173.899994</ele>
        <time>2017-08-07T13:19:54Z</time>
      </trkpt>
      <trkpt lat="43.37257" lon="1.75076">
        <ele>174.5</ele>
        <time>2017-08-07T13:19:56Z</time>
      </trkpt>
      <trkpt lat="43.37262" lon="1.75065">
        <ele>175.300003</ele>
        <time>2017-08-07T13:19:58Z</time>
      </trkpt>
      <trkpt lat="43.37269" lon="1.75054">
        <ele>175.399994</ele>
        <time>2017-08-07T13:20:00Z</time>
      </trkpt>
      <trkpt lat="43.37274" lon="1.75041">
        <ele>175.300003</ele>
        <time>2017-08-07T13:20:02Z</time>
      </trkpt>
      <trkpt lat="43.37279" lon="1.75029">
        <ele>175.100006</ele>
        <time>2017-08-07T13:20:04Z</time>
      </trkpt>
      <trkpt lat="43.37287" lon="1.75011">
        <ele>175.199997</ele>
        <time>2017-08-07T13:20:07Z</time>
      </trkpt>
      <trkpt lat="43.37293" lon="1.75">
        <ele>174.699997</ele>
        <time>2017-08-07T13:20:09Z</time>
      </trkpt>
      <trkpt lat="43.37299" lon="1.74989">
        <ele>174.300003</ele>
        <time>2017-08-07T13:20:11Z</time>
      </trkpt>
      <trkpt lat="43.37305" lon="1.74979">
        <ele>174.300003</ele>
        <time>2017-08-07T13:20:13Z</time>
      </trkpt>
      <trkpt lat="43.37312" lon="1.74969">
        <ele>174.300003</ele>
        <time>2017-08-07T13:20:15Z</time>
      </trkpt>
      <trkpt lat="43.37319" lon="1.74958">
        <ele>174</ele>
        <time>2017-08-07T13:20:17Z</time>
      </trkpt>
      <trkpt lat="43.37326" lon="1.7495">
        <ele>173.300003</ele>
        <time>2017-08-07T13:20:19Z</time>
      </trkpt>
      <trkpt lat="43.37332" lon="1.74939">
        <ele>172.399994</ele>
        <time>2017-08-07T13:20:21Z</time>
      </trkpt>
      <trkpt lat="43.37338" lon="1.74929">
        <ele>171.899994</ele>
        <time>2017-08-07T13:20:23Z</time>
      </trkpt>
      <trkpt lat="43.37346" lon="1.74922">
        <ele>172.199997</ele>
        <time>2017-08-07T13:20:25Z</time>
      </trkpt>
      <trkpt lat="43.37354" lon="1.7491">
        <ele>172.100006</ele>
        <time>2017-08-07T13:20:27Z</time>
      </trkpt>
      <trkpt lat="43.37362" lon="1.74902">
        <ele>172.5</ele>
        <time>2017-08-07T13:20:29Z</time>
      </trkpt>
      <trkpt lat="43.37372" lon="1.74889">
        <ele>172.699997</ele>
        <time>2017-08-07T13:20:32Z</time>
      </trkpt>
      <trkpt lat="43.3738" lon="1.7488">
        <ele>172.600006</ele>
        <time>2017-08-07T13:20:34Z</time>
      </trkpt>
      <trkpt lat="43.37386" lon="1.74869">
        <ele>172.399994</ele>
        <time>2017-08-07T13:20:36Z</time>
      </trkpt>
      <trkpt lat="43.37393" lon="1.74859">
        <ele>172.300003</ele>
        <time>2017-08-07T13:20:38Z</time>
      </trkpt>
      <trkpt lat="43.37401" lon="1.74847">
        <ele>172.699997</ele>
        <time>2017-08-07T13:20:40Z</time>
      </trkpt>
      <trkpt lat="43.3741" lon="1.74832">
        <ele>171.899994</ele>
        <time>2017-08-07T13:20:43Z</time>
      </trkpt>
      <trkpt lat="43.37417" lon="1.74822">
        <ele>171.600006</ele>
        <time>2017-08-07T13:20:45Z</time>
      </trkpt>
      <trkpt lat="43.37424" lon="1.74813">
        <ele>171.600006</ele>
        <time>2017-08-07T13:20:47Z</time>
      </trkpt>
      <trkpt lat="43.37432" lon="1.74803">
        <ele>172</ele>
        <time>2017-08-07T13:20:49Z</time>
      </trkpt>
      <trkpt lat="43.37439" lon="1.74795">
        <ele>172.5</ele>
        <time>2017-08-07T13:20:51Z</time>
      </trkpt>
      <trkpt lat="43.37446" lon="1.74783">
        <ele>173.100006</ele>
        <time>2017-08-07T13:20:53Z</time>
      </trkpt>
      <trkpt lat="43.3745" lon="1.74772">
        <ele>173.800003</ele>
        <time>2017-08-07T13:20:55Z</time>
      </trkpt>
      <trkpt lat="43.37456" lon="1.74762">
        <ele>174.5</ele>
        <time>2017-08-07T13:20:57Z</time>
      </trkpt>
      <trkpt lat="43.37464" lon="1.74751">
        <ele>173.800003</ele>
        <time>2017-08-07T13:20:59Z</time>
      </trkpt>
      <trkpt lat="43.37468" lon="1.74738">
        <ele>172.899994</ele>
        <time>2017-08-07T13:21:01Z</time>
      </trkpt>
      <trkpt lat="43.37475" lon="1.74724">
        <ele>172.800003</ele>
        <time>2017-08-07T13:21:03Z</time>
      </trkpt>
      <trkpt lat="43.3748" lon="1.74712">
        <ele>172.699997</ele>
        <time>2017-08-07T13:21:05Z</time>
      </trkpt>
      <trkpt lat="43.37485" lon="1.74698">
        <ele>172.899994</ele>
        <time>2017-08-07T13:21:07Z</time>
      </trkpt>
      <trkpt lat="43.37491" lon="1.74687">
        <ele>173</ele>
        <time>2017-08-07T13:21:09Z</time>
      </trkpt>
      <trkpt lat="43.37496" lon="1.74676">
        <ele>172.899994</ele>
        <time>2017-08-07T13:21:11Z</time>
      </trkpt>
      <trkpt lat="43.37502" lon="1.74663">
        <ele>172.699997</ele>
        <time>2017-08-07T13:21:13Z</time>
      </trkpt>
      <trkpt lat="43.37507" lon="1.74649">
        <ele>172.699997</ele>
        <time>2017-08-07T13:21:15Z</time>
      </trkpt>
      <trkpt lat="43.37513" lon="1.74634">
        <ele>172.899994</ele>
        <time>2017-08-07T13:21:18Z</time>
      </trkpt>
      <trkpt lat="43.37518" lon="1.74618">
        <ele>173</ele>
        <time>2017-08-07T13:21:21Z</time>
      </trkpt>
      <trkpt lat="43.37523" lon="1.74607">
        <ele>173</ele>
        <time>2017-08-07T13:21:23Z</time>
      </trkpt>
      <trkpt lat="43.37527" lon="1.74595">
        <ele>173</ele>
        <time>2017-08-07T13:21:25Z</time>
      </trkpt>
      <trkpt lat="43.37533" lon="1.74579">
        <ele>173.600006</ele>
        <time>2017-08-07T13:21:28Z</time>
      </trkpt>
      <trkpt lat="43.37538" lon="1.74568">
        <ele>174.399994</ele>
        <time>2017-08-07T13:21:30Z</time>
      </trkpt>
      <trkpt lat="43.37543" lon="1.74556">
        <ele>174.100006</ele>
        <time>2017-08-07T13:21:32Z</time>
      </trkpt>
      <trkpt lat="43.37547" lon="1.74543">
        <ele>173.399994</ele>
        <time>2017-08-07T13:21:34Z</time>
      </trkpt>
      <trkpt lat="43.37551" lon="1.74525">
        <ele>174.199997</ele>
        <time>2017-08-07T13:21:37Z</time>
      </trkpt>
      <trkpt lat="43.37556" lon="1.74513">
        <ele>174.899994</ele>
        <time>2017-08-07T13:21:39Z</time>
      </trkpt>
      <trkpt lat="43.3756" lon="1.745">
        <ele>175.100006</ele>
        <time>2017-08-07T13:21:41Z</time>
      </trkpt>
      <trkpt lat="43.37563" lon="1.74487">
        <ele>175.399994</ele>
        <time>2017-08-07T13:21:43Z</time>
      </trkpt>
      <trkpt lat="43.37568" lon="1.74472">
        <ele>176.199997</ele>
        <time>2017-08-07T13:21:46Z</time>
      </trkpt>
      <trkpt lat="43.37572" lon="1.7446">
        <ele>176.600006</ele>
        <time>2017-08-07T13:21:48Z</time>
      </trkpt>
      <trkpt lat="43.37575" lon="1.74448">
        <ele>176</ele>
        <time>2017-08-07T13:21:50Z</time>
      </trkpt>
      <trkpt lat="43.37578" lon="1.74436">
        <ele>175.300003</ele>
        <time>2017-08-07T13:21:52Z</time>
      </trkpt>
      <trkpt lat="43.37581" lon="1.74424">
        <ele>174.600006</ele>
        <time>2017-08-07T13:21:54Z</time>
      </trkpt>
      <trkpt lat="43.37585" lon="1.74411">
        <ele>173.800003</ele>
        <time>2017-08-07T13:21:56Z</time>
      </trkpt>
      <trkpt lat="43.37588" lon="1.74399">
        <ele>173.5</ele>
        <time>2017-08-07T13:21:58Z</time>
      </trkpt>
      <trkpt lat="43.37591" lon="1.74385">
        <ele>174.399994</ele>
        <time>2017-08-07T13:22:00Z</time>
      </trkpt>
      <trkpt lat="43.37595" lon="1.74372">
        <ele>175.5</ele>
        <time>2017-08-07T13:22:02Z</time>
      </trkpt>
      <trkpt lat="43.37597" lon="1.74357">
        <ele>175.899994</ele>
        <time>2017-08-07T13:22:04Z</time>
      </trkpt>
      <trkpt lat="43.37599" lon="1.74345">
        <ele>175.800003</ele>
        <time>2017-08-07T13:22:06Z</time>
      </trkpt>
      <trkpt lat="43.37604" lon="1.74332">
        <ele>175.100006</ele>
        <time>2017-08-07T13:22:08Z</time>
      </trkpt>
      <trkpt lat="43.37607" lon="1.7432">
        <ele>174.800003</ele>
        <time>2017-08-07T13:22:10Z</time>
      </trkpt>
      <trkpt lat="43.37612" lon="1.74306">
        <ele>174.800003</ele>
        <time>2017-08-07T13:22:12Z</time>
      </trkpt>
      <trkpt lat="43.37617" lon="1.74291">
        <ele>175.100006</ele>
        <time>2017-08-07T13:22:14Z</time>
      </trkpt>
      <trkpt lat="43.37621" lon="1.74279">
        <ele>175.199997</ele>
        <time>2017-08-07T13:22:16Z</time>
      </trkpt>
      <trkpt lat="43.37626" lon="1.74266">
        <ele>175.100006</ele>
        <time>2017-08-07T13:22:18Z</time>
      </trkpt>
      <trkpt lat="43.3763" lon="1.74252">
        <ele>174.600006</ele>
        <time>2017-08-07T13:22:20Z</time>
      </trkpt>
      <trkpt lat="43.37635" lon="1.74239">
        <ele>174.5</ele>
        <time>2017-08-07T13:22:22Z</time>
      </trkpt>
      <trkpt lat="43.37639" lon="1.74225">
        <ele>174.5</ele>
        <time>2017-08-07T13:22:24Z</time>
      </trkpt>
      <trkpt lat="43.37643" lon="1.74213">
        <ele>174.5</ele>
        <time>2017-08-07T13:22:26Z</time>
      </trkpt>
      <trkpt lat="43.37647" lon="1.74201">
        <ele>174.300003</ele>
        <time>2017-08-07T13:22:28Z</time>
      </trkpt>
      <trkpt lat="43.37652" lon="1.74184">
        <ele>173.399994</ele>
        <time>2017-08-07T13:22:31Z</time>
      </trkpt>
      <trkpt lat="43.37655" lon="1.74171">
        <ele>172.399994</ele>
        <time>2017-08-07T13:22:33Z</time>
      </trkpt>
      <trkpt lat="43.3766" lon="1.74158">
        <ele>171.600006</ele>
        <time>2017-08-07T13:22:35Z</time>
      </trkpt>
      <trkpt lat="43.37666" lon="1.74143">
        <ele>171.100006</ele>
        <time>2017-08-07T13:22:38Z</time>
      </trkpt>
      <trkpt lat="43.37672" lon="1.74132">
        <ele>171.100006</ele>
        <time>2017-08-07T13:22:40Z</time>
      </trkpt>
      <trkpt lat="43.37681" lon="1.74118">
        <ele>171.300003</ele>
        <time>2017-08-07T13:22:43Z</time>
      </trkpt>
      <trkpt lat="43.37688" lon="1.7411">
        <ele>170.899994</ele>
        <time>2017-08-07T13:22:45Z</time>
      </trkpt>
      <trkpt lat="43.37695" lon="1.74101">
        <ele>170.399994</ele>
        <time>2017-08-07T13:22:47Z</time>
      </trkpt>
      <trkpt lat="43.37704" lon="1.74092">
        <ele>170.5</ele>
        <time>2017-08-07T13:22:49Z</time>
      </trkpt>
      <trkpt lat="43.37711" lon="1.74083">
        <ele>170.699997</ele>
        <time>2017-08-07T13:22:51Z</time>
      </trkpt>
      <trkpt lat="43.37718" lon="1.74074">
        <ele>171</ele>
        <time>2017-08-07T13:22:53Z</time>
      </trkpt>
      <trkpt lat="43.37727" lon="1.74066">
        <ele>171.600006</ele>
        <time>2017-08-07T13:22:55Z</time>
      </trkpt>
      <trkpt lat="43.37739" lon="1.74055">
        <ele>171.399994</ele>
        <time>2017-08-07T13:22:58Z</time>
      </trkpt>
      <trkpt lat="43.37747" lon="1.74046">
        <ele>170.399994</ele>
        <time>2017-08-07T13:23:00Z</time>
      </trkpt>
      <trkpt lat="43.37754" lon="1.74037">
        <ele>169.899994</ele>
        <time>2017-08-07T13:23:02Z</time>
      </trkpt>
      <trkpt lat="43.37762" lon="1.74029">
        <ele>169.600006</ele>
        <time>2017-08-07T13:23:04Z</time>
      </trkpt>
      <trkpt lat="43.37769" lon="1.74021">
        <ele>169.399994</ele>
        <time>2017-08-07T13:23:06Z</time>
      </trkpt>
      <trkpt lat="43.37777" lon="1.74015">
        <ele>169.5</ele>
        <time>2017-08-07T13:23:08Z</time>
      </trkpt>
      <trkpt lat="43.37785" lon="1.74006">
        <ele>169.100006</ele>
        <time>2017-08-07T13:23:10Z</time>
      </trkpt>
      <trkpt lat="43.37793" lon="1.73998">
        <ele>168.800003</ele>
        <time>2017-08-07T13:23:12Z</time>
      </trkpt>
      <trkpt lat="43.37801" lon="1.73989">
        <ele>168</ele>
        <time>2017-08-07T13:23:14Z</time>
      </trkpt>
      <trkpt lat="43.37808" lon="1.7398">
        <ele>167.100006</ele>
        <time>2017-08-07T13:23:16Z</time>
      </trkpt>
      <trkpt lat="43.37817" lon="1.73971">
        <ele>166.5</ele>
        <time>2017-08-07T13:23:18Z</time>
      </trkpt>
      <trkpt lat="43.37822" lon="1.7396">
        <ele>166.100006</ele>
        <time>2017-08-07T13:23:20Z</time>
      </trkpt>
      <trkpt lat="43.37831" lon="1.73951">
        <ele>165.800003</ele>
        <time>2017-08-07T13:23:22Z</time>
      </trkpt>
      <trkpt lat="43.37839" lon="1.73942">
        <ele>165.699997</ele>
        <time>2017-08-07T13:23:24Z</time>
      </trkpt>
      <trkpt lat="43.37848" lon="1.73934">
        <ele>166</ele>
        <time>2017-08-07T13:23:26Z</time>
      </trkpt>
      <trkpt lat="43.37857" lon="1.73921">
        <ele>166.300003</ele>
        <time>2017-08-07T13:23:29Z</time>
      </trkpt>
      <trkpt lat="43.37863" lon="1.73911">
        <ele>166.5</ele>
        <time>2017-08-07T13:23:31Z</time>
      </trkpt>
      <trkpt lat="43.37869" lon="1.73901">
        <ele>167</ele>
        <time>2017-08-07T13:23:33Z</time>
      </trkpt>
      <trkpt lat="43.37876" lon="1.7389">
        <ele>167.5</ele>
        <time>2017-08-07T13:23:35Z</time>
      </trkpt>
      <trkpt lat="43.37881" lon="1.7388">
        <ele>167.699997</ele>
        <time>2017-08-07T13:23:37Z</time>
      </trkpt>
      <trkpt lat="43.37887" lon="1.7387">
        <ele>168.199997</ele>
        <time>2017-08-07T13:23:39Z</time>
      </trkpt>
      <trkpt lat="43.37896" lon="1.73855">
        <ele>169.100006</ele>
        <time>2017-08-07T13:23:42Z</time>
      </trkpt>
      <trkpt lat="43.37902" lon="1.73845">
        <ele>169.699997</ele>
        <time>2017-08-07T13:23:44Z</time>
      </trkpt>
      <trkpt lat="43.37907" lon="1.73833">
        <ele>169.699997</ele>
        <time>2017-08-07T13:23:46Z</time>
      </trkpt>
      <trkpt lat="43.37912" lon="1.7382">
        <ele>169.699997</ele>
        <time>2017-08-07T13:23:48Z</time>
      </trkpt>
      <trkpt lat="43.3792" lon="1.73804">
        <ele>170</ele>
        <time>2017-08-07T13:23:51Z</time>
      </trkpt>
      <trkpt lat="43.37927" lon="1.73792">
        <ele>170.5</ele>
        <time>2017-08-07T13:23:53Z</time>
      </trkpt>
      <trkpt lat="43.37933" lon="1.7378">
        <ele>171</ele>
        <time>2017-08-07T13:23:55Z</time>
      </trkpt>
      <trkpt lat="43.37937" lon="1.73769">
        <ele>171.300003</ele>
        <time>2017-08-07T13:23:57Z</time>
      </trkpt>
      <trkpt lat="43.37945" lon="1.73754">
        <ele>171.899994</ele>
        <time>2017-08-07T13:24:00Z</time>
      </trkpt>
      <trkpt lat="43.3795" lon="1.73737">
        <ele>172.699997</ele>
        <time>2017-08-07T13:24:03Z</time>
      </trkpt>
      <trkpt lat="43.37954" lon="1.73723">
        <ele>172.600006</ele>
        <time>2017-08-07T13:24:05Z</time>
      </trkpt>
      <trkpt lat="43.37959" lon="1.7371">
        <ele>172.199997</ele>
        <time>2017-08-07T13:24:07Z</time>
      </trkpt>
      <trkpt lat="43.37967" lon="1.73696">
        <ele>171.899994</ele>
        <time>2017-08-07T13:24:10Z</time>
      </trkpt>
      <trkpt lat="43.37971" lon="1.73684">
        <ele>171.600006</ele>
        <time>2017-08-07T13:24:12Z</time>
      </trkpt>
      <trkpt lat="43.37976" lon="1.73673">
        <ele>171.5</ele>
        <time>2017-08-07T13:24:14Z</time>
      </trkpt>
      <trkpt lat="43.37981" lon="1.73662">
        <ele>171.600006</ele>
        <time>2017-08-07T13:24:16Z</time>
      </trkpt>
      <trkpt lat="43.37988" lon="1.73646">
        <ele>171.699997</ele>
        <time>2017-08-07T13:24:19Z</time>
      </trkpt>
      <trkpt lat="43.37993" lon="1.73632">
        <ele>171.300003</ele>
        <time>2017-08-07T13:24:22Z</time>
      </trkpt>
      <trkpt lat="43.38" lon="1.73617">
        <ele>171.300003</ele>
        <time>2017-08-07T13:24:25Z</time>
      </trkpt>
      <trkpt lat="43.38004" lon="1.73602">
        <ele>171.399994</ele>
        <time>2017-08-07T13:24:28Z</time>
      </trkpt>
      <trkpt lat="43.3801" lon="1.73588">
        <ele>171.600006</ele>
        <time>2017-08-07T13:24:31Z</time>
      </trkpt>
      <trkpt lat="43.38013" lon="1.73576">
        <ele>171.899994</ele>
        <time>2017-08-07T13:24:33Z</time>
      </trkpt>
      <trkpt lat="43.38018" lon="1.73561">
        <ele>172.300003</ele>
        <time>2017-08-07T13:24:36Z</time>
      </trkpt>
      <trkpt lat="43.38022" lon="1.73547">
        <ele>173</ele>
        <time>2017-08-07T13:24:39Z</time>
      </trkpt>
      <trkpt lat="43.38028" lon="1.73532">
        <ele>173.5</ele>
        <time>2017-08-07T13:24:42Z</time>
      </trkpt>
      <trkpt lat="43.38033" lon="1.73516">
        <ele>173.199997</ele>
        <time>2017-08-07T13:24:45Z</time>
      </trkpt>
      <trkpt lat="43.38037" lon="1.735">
        <ele>172.699997</ele>
        <time>2017-08-07T13:24:48Z</time>
      </trkpt>
      <trkpt lat="43.38045" lon="1.73487">
        <ele>172.399994</ele>
        <time>2017-08-07T13:24:51Z</time>
      </trkpt>
      <trkpt lat="43.38052" lon="1.73473">
        <ele>172.899994</ele>
        <time>2017-08-07T13:24:54Z</time>
      </trkpt>
      <trkpt lat="43.38056" lon="1.7346">
        <ele>173.399994</ele>
        <time>2017-08-07T13:24:56Z</time>
      </trkpt>
      <trkpt lat="43.38061" lon="1.73449">
        <ele>174</ele>
        <time>2017-08-07T13:24:58Z</time>
      </trkpt>
      <trkpt lat="43.38065" lon="1.73437">
        <ele>174.300003</ele>
        <time>2017-08-07T13:25:00Z</time>
      </trkpt>
      <trkpt lat="43.38069" lon="1.73426">
        <ele>174.699997</ele>
        <time>2017-08-07T13:25:02Z</time>
      </trkpt>
      <trkpt lat="43.38072" lon="1.73413">
        <ele>174.600006</ele>
        <time>2017-08-07T13:25:04Z</time>
      </trkpt>
      <trkpt lat="43.38077" lon="1.73401">
        <ele>174.899994</ele>
        <time>2017-08-07T13:25:06Z</time>
      </trkpt>
      <trkpt lat="43.38081" lon="1.73388">
        <ele>175.100006</ele>
        <time>2017-08-07T13:25:08Z</time>
      </trkpt>
      <trkpt lat="43.38084" lon="1.73375">
        <ele>175.100006</ele>
        <time>2017-08-07T13:25:10Z</time>
      </trkpt>
      <trkpt lat="43.38087" lon="1.73364">
        <ele>175.5</ele>
        <time>2017-08-07T13:25:12Z</time>
      </trkpt>
      <trkpt lat="43.38089" lon="1.73351">
        <ele>176</ele>
        <time>2017-08-07T13:25:14Z</time>
      </trkpt>
      <trkpt lat="43.38092" lon="1.73336">
        <ele>176.399994</ele>
        <time>2017-08-07T13:25:16Z</time>
      </trkpt>
      <trkpt lat="43.38096" lon="1.73319">
        <ele>176.800003</ele>
        <time>2017-08-07T13:25:19Z</time>
      </trkpt>
      <trkpt lat="43.38099" lon="1.73306">
        <ele>176.600006</ele>
        <time>2017-08-07T13:25:21Z</time>
      </trkpt>
      <trkpt lat="43.38101" lon="1.73293">
        <ele>176.399994</ele>
        <time>2017-08-07T13:25:23Z</time>
      </trkpt>
      <trkpt lat="43.38105" lon="1.7328">
        <ele>176.100006</ele>
        <time>2017-08-07T13:25:25Z</time>
      </trkpt>
      <trkpt lat="43.38106" lon="1.73266">
        <ele>175.699997</ele>
        <time>2017-08-07T13:25:27Z</time>
      </trkpt>
      <trkpt lat="43.38109" lon="1.73251">
        <ele>175.800003</ele>
        <time>2017-08-07T13:25:29Z</time>
      </trkpt>
      <trkpt lat="43.38112" lon="1.73238">
        <ele>176.100006</ele>
        <time>2017-08-07T13:25:31Z</time>
      </trkpt>
      <trkpt lat="43.38115" lon="1.73225">
        <ele>176.300003</ele>
        <time>2017-08-07T13:25:33Z</time>
      </trkpt>
      <trkpt lat="43.38118" lon="1.73214">
        <ele>176.300003</ele>
        <time>2017-08-07T13:25:35Z</time>
      </trkpt>
      <trkpt lat="43.38121" lon="1.73201">
        <ele>176.199997</ele>
        <time>2017-08-07T13:25:37Z</time>
      </trkpt>
      <trkpt lat="43.38126" lon="1.73188">
        <ele>176.300003</ele>
        <time>2017-08-07T13:25:39Z</time>
      </trkpt>
      <trkpt lat="43.38131" lon="1.73174">
        <ele>176.199997</ele>
        <time>2017-08-07T13:25:41Z</time>
      </trkpt>
      <trkpt lat="43.38134" lon="1.73161">
        <ele>175.899994</ele>
        <time>2017-08-07T13:25:43Z</time>
      </trkpt>
      <trkpt lat="43.38137" lon="1.73147">
        <ele>175.600006</ele>
        <time>2017-08-07T13:25:45Z</time>
      </trkpt>
      <trkpt lat="43.38142" lon="1.73133">
        <ele>175.699997</ele>
        <time>2017-08-07T13:25:47Z</time>
      </trkpt>
      <trkpt lat="43.38147" lon="1.7312">
        <ele>175.899994</ele>
        <time>2017-08-07T13:25:49Z</time>
      </trkpt>
      <trkpt lat="43.38151" lon="1.73109">
        <ele>176.199997</ele>
        <time>2017-08-07T13:25:51Z</time>
      </trkpt>
      <trkpt lat="43.38156" lon="1.73096">
        <ele>176.100006</ele>
        <time>2017-08-07T13:25:54Z</time>
      </trkpt>
      <trkpt lat="43.38161" lon="1.73084">
        <ele>176</ele>
        <time>2017-08-07T13:25:56Z</time>
      </trkpt>
      <trkpt lat="43.38166" lon="1.73068">
        <ele>175.899994</ele>
        <time>2017-08-07T13:25:59Z</time>
      </trkpt>
      <trkpt lat="43.3817" lon="1.73056">
        <ele>175.800003</ele>
        <time>2017-08-07T13:26:01Z</time>
      </trkpt>
      <trkpt lat="43.38174" lon="1.73045">
        <ele>175.600006</ele>
        <time>2017-08-07T13:26:03Z</time>
      </trkpt>
      <trkpt lat="43.38182" lon="1.73031">
        <ele>175.800003</ele>
        <time>2017-08-07T13:26:06Z</time>
      </trkpt>
      <trkpt lat="43.38188" lon="1.73015">
        <ele>175.899994</ele>
        <time>2017-08-07T13:26:09Z</time>
      </trkpt>
      <trkpt lat="43.38194" lon="1.72999">
        <ele>175.699997</ele>
        <time>2017-08-07T13:26:12Z</time>
      </trkpt>
      <trkpt lat="43.38201" lon="1.72985">
        <ele>175.5</ele>
        <time>2017-08-07T13:26:15Z</time>
      </trkpt>
      <trkpt lat="43.3821" lon="1.72969">
        <ele>175.600006</ele>
        <time>2017-08-07T13:26:18Z</time>
      </trkpt>
      <trkpt lat="43.38215" lon="1.72957">
        <ele>175.800003</ele>
        <time>2017-08-07T13:26:20Z</time>
      </trkpt>
      <trkpt lat="43.3822" lon="1.72947">
        <ele>176.300003</ele>
        <time>2017-08-07T13:26:22Z</time>
      </trkpt>
      <trkpt lat="43.38227" lon="1.72933">
        <ele>176.399994</ele>
        <time>2017-08-07T13:26:25Z</time>
      </trkpt>
      <trkpt lat="43.38233" lon="1.7292">
        <ele>176.100006</ele>
        <time>2017-08-07T13:26:28Z</time>
      </trkpt>
      <trkpt lat="43.38239" lon="1.72906">
        <ele>175.600006</ele>
        <time>2017-08-07T13:26:31Z</time>
      </trkpt>
      <trkpt lat="43.38246" lon="1.72892">
        <ele>175.100006</ele>
        <time>2017-08-07T13:26:34Z</time>
      </trkpt>
      <trkpt lat="43.38256" lon="1.72879">
        <ele>174.300003</ele>
        <time>2017-08-07T13:26:37Z</time>
      </trkpt>
      <trkpt lat="43.38262" lon="1.72868">
        <ele>173.600006</ele>
        <time>2017-08-07T13:26:39Z</time>
      </trkpt>
      <trkpt lat="43.38269" lon="1.72855">
        <ele>172.899994</ele>
        <time>2017-08-07T13:26:42Z</time>
      </trkpt>
      <trkpt lat="43.38276" lon="1.72846">
        <ele>172.800003</ele>
        <time>2017-08-07T13:26:44Z</time>
      </trkpt>
      <trkpt lat="43.38282" lon="1.72828">
        <ele>172.399994</ele>
        <time>2017-08-07T13:26:47Z</time>
      </trkpt>
      <trkpt lat="43.38287" lon="1.72813">
        <ele>172.300003</ele>
        <time>2017-08-07T13:26:49Z</time>
      </trkpt>
      <trkpt lat="43.38296" lon="1.72802">
        <ele>172.600006</ele>
        <time>2017-08-07T13:26:51Z</time>
      </trkpt>
      <trkpt lat="43.38304" lon="1.72789">
        <ele>173.199997</ele>
        <time>2017-08-07T13:26:53Z</time>
      </trkpt>
      <trkpt lat="43.3831" lon="1.72778">
        <ele>173.399994</ele>
        <time>2017-08-07T13:26:55Z</time>
      </trkpt>
      <trkpt lat="43.38316" lon="1.72768">
        <ele>172.699997</ele>
        <time>2017-08-07T13:26:57Z</time>
      </trkpt>
      <trkpt lat="43.38325" lon="1.7276">
        <ele>172.199997</ele>
        <time>2017-08-07T13:27:00Z</time>
      </trkpt>
      <trkpt lat="43.38334" lon="1.72751">
        <ele>172.5</ele>
        <time>2017-08-07T13:27:03Z</time>
      </trkpt>
      <trkpt lat="43.38341" lon="1.72743">
        <ele>172.600006</ele>
        <time>2017-08-07T13:27:05Z</time>
      </trkpt>
      <trkpt lat="43.38347" lon="1.72732">
        <ele>172.5</ele>
        <time>2017-08-07T13:27:07Z</time>
      </trkpt>
      <trkpt lat="43.38352" lon="1.7272">
        <ele>171.699997</ele>
        <time>2017-08-07T13:27:09Z</time>
      </trkpt>
      <trkpt lat="43.38356" lon="1.72708">
        <ele>171.300003</ele>
        <time>2017-08-07T13:27:11Z</time>
      </trkpt>
      <trkpt lat="43.3836" lon="1.72695">
        <ele>171.300003</ele>
        <time>2017-08-07T13:27:13Z</time>
      </trkpt>
      <trkpt lat="43.38365" lon="1.72682">
        <ele>171.800003</ele>
        <time>2017-08-07T13:27:15Z</time>
      </trkpt>
      <trkpt lat="43.3837" lon="1.72671">
        <ele>172.699997</ele>
        <time>2017-08-07T13:27:17Z</time>
      </trkpt>
      <trkpt lat="43.38375" lon="1.7266">
        <ele>173.800003</ele>
        <time>2017-08-07T13:27:19Z</time>
      </trkpt>
      <trkpt lat="43.38382" lon="1.72646">
        <ele>175.300003</ele>
        <time>2017-08-07T13:27:22Z</time>
      </trkpt>
      <trkpt lat="43.38387" lon="1.72634">
        <ele>176.5</ele>
        <time>2017-08-07T13:27:27Z</time>
      </trkpt>
      <trkpt lat="43.3839" lon="1.7262">
        <ele>176.800003</ele>
        <time>2017-08-07T13:31:57Z</time>
      </trkpt>
      <trkpt lat="43.38397" lon="1.72608">
        <ele>177</ele>
        <time>2017-08-07T13:32:01Z</time>
      </trkpt>
      <trkpt lat="43.38403" lon="1.72597">
        <ele>176.899994</ele>
        <time>2017-08-07T13:32:04Z</time>
      </trkpt>
      <trkpt lat="43.38408" lon="1.72585">
        <ele>176.699997</ele>
        <time>2017-08-07T13:32:07Z</time>
      </trkpt>
      <trkpt lat="43.38413" lon="1.72574">
        <ele>176.899994</ele>
        <time>2017-08-07T13:32:10Z</time>
      </trkpt>
      <trkpt lat="43.38418" lon="1.72559">
        <ele>176.600006</ele>
        <time>2017-08-07T13:32:14Z</time>
      </trkpt>
      <trkpt lat="43.38422" lon="1.72546">
        <ele>176.300003</ele>
        <time>2017-08-07T13:32:17Z</time>
      </trkpt>
      <trkpt lat="43.38427" lon="1.72535">
        <ele>176.5</ele>
        <time>2017-08-07T13:32:20Z</time>
      </trkpt>
      <trkpt lat="43.38433" lon="1.72523">
        <ele>176.5</ele>
        <time>2017-08-07T13:32:23Z</time>
      </trkpt>
      <trkpt lat="43.38439" lon="1.72508">
        <ele>176.100006</ele>
        <time>2017-08-07T13:32:26Z</time>
      </trkpt>
      <trkpt lat="43.38446" lon="1.72494">
        <ele>175.800003</ele>
        <time>2017-08-07T13:32:29Z</time>
      </trkpt>
      <trkpt lat="43.38453" lon="1.72484">
        <ele>175.800003</ele>
        <time>2017-08-07T13:32:32Z</time>
      </trkpt>
      <trkpt lat="43.38459" lon="1.7247">
        <ele>175.899994</ele>
        <time>2017-08-07T13:32:35Z</time>
      </trkpt>
      <trkpt lat="43.38466" lon="1.72458">
        <ele>176.399994</ele>
        <time>2017-08-07T13:32:38Z</time>
      </trkpt>
      <trkpt lat="43.3847" lon="1.72445">
        <ele>176.199997</ele>
        <time>2017-08-07T13:32:41Z</time>
      </trkpt>
      <trkpt lat="43.38477" lon="1.72434">
        <ele>176.300003</ele>
        <time>2017-08-07T13:32:43Z</time>
      </trkpt>
      <trkpt lat="43.38484" lon="1.7242">
        <ele>176.800003</ele>
        <time>2017-08-07T13:32:46Z</time>
      </trkpt>
      <trkpt lat="43.3849" lon="1.72409">
        <ele>176.899994</ele>
        <time>2017-08-07T13:32:48Z</time>
      </trkpt>
      <trkpt lat="43.38496" lon="1.72399">
        <ele>176.600006</ele>
        <time>2017-08-07T13:32:50Z</time>
      </trkpt>
      <trkpt lat="43.385" lon="1.72387">
        <ele>175.699997</ele>
        <time>2017-08-07T13:32:52Z</time>
      </trkpt>
      <trkpt lat="43.38509" lon="1.72374">
        <ele>175.300003</ele>
        <time>2017-08-07T13:32:55Z</time>
      </trkpt>
      <trkpt lat="43.38513" lon="1.72361">
        <ele>175.399994</ele>
        <time>2017-08-07T13:32:58Z</time>
      </trkpt>
      <trkpt lat="43.3852" lon="1.72347">
        <ele>175.899994</ele>
        <time>2017-08-07T13:33:01Z</time>
      </trkpt>
      <trkpt lat="43.38528" lon="1.72335">
        <ele>175.600006</ele>
        <time>2017-08-07T13:33:04Z</time>
      </trkpt>
      <trkpt lat="43.38534" lon="1.72326">
        <ele>175.399994</ele>
        <time>2017-08-07T13:33:06Z</time>
      </trkpt>
      <trkpt lat="43.38541" lon="1.72316">
        <ele>175.399994</ele>
        <time>2017-08-07T13:33:08Z</time>
      </trkpt>
      <trkpt lat="43.38547" lon="1.72306">
        <ele>175.5</ele>
        <time>2017-08-07T13:33:10Z</time>
      </trkpt>
      <trkpt lat="43.38554" lon="1.72294">
        <ele>175.800003</ele>
        <time>2017-08-07T13:33:13Z</time>
      </trkpt>
      <trkpt lat="43.38561" lon="1.72279">
        <ele>175.800003</ele>
        <time>2017-08-07T13:33:16Z</time>
      </trkpt>
      <trkpt lat="43.38571" lon="1.72268">
        <ele>176.699997</ele>
        <time>2017-08-07T13:33:19Z</time>
      </trkpt>
      <trkpt lat="43.38578" lon="1.7226">
        <ele>176.899994</ele>
        <time>2017-08-07T13:33:21Z</time>
      </trkpt>
      <trkpt lat="43.38583" lon="1.72246">
        <ele>176</ele>
        <time>2017-08-07T13:33:24Z</time>
      </trkpt>
      <trkpt lat="43.38588" lon="1.72235">
        <ele>175.199997</ele>
        <time>2017-08-07T13:33:26Z</time>
      </trkpt>
      <trkpt lat="43.38595" lon="1.7222">
        <ele>174.800003</ele>
        <time>2017-08-07T13:33:29Z</time>
      </trkpt>
      <trkpt lat="43.38603" lon="1.72206">
        <ele>174.5</ele>
        <time>2017-08-07T13:33:32Z</time>
      </trkpt>
      <trkpt lat="43.38609" lon="1.72195">
        <ele>174</ele>
        <time>2017-08-07T13:33:34Z</time>
      </trkpt>
      <trkpt lat="43.38615" lon="1.72185">
        <ele>173.899994</ele>
        <time>2017-08-07T13:33:36Z</time>
      </trkpt>
      <trkpt lat="43.38623" lon="1.72174">
        <ele>173.899994</ele>
        <time>2017-08-07T13:33:39Z</time>
      </trkpt>
      <trkpt lat="43.3863" lon="1.72159">
        <ele>173.600006</ele>
        <time>2017-08-07T13:33:42Z</time>
      </trkpt>
      <trkpt lat="43.38635" lon="1.72149">
        <ele>173.399994</ele>
        <time>2017-08-07T13:33:44Z</time>
      </trkpt>
      <trkpt lat="43.38642" lon="1.72138">
        <ele>173.399994</ele>
        <time>2017-08-07T13:33:46Z</time>
      </trkpt>
      <trkpt lat="43.38648" lon="1.72127">
        <ele>173.399994</ele>
        <time>2017-08-07T13:33:48Z</time>
      </trkpt>
      <trkpt lat="43.38654" lon="1.72115">
        <ele>173.199997</ele>
        <time>2017-08-07T13:33:50Z</time>
      </trkpt>
      <trkpt lat="43.38663" lon="1.72102">
        <ele>173.199997</ele>
        <time>2017-08-07T13:33:53Z</time>
      </trkpt>
      <trkpt lat="43.3867" lon="1.72091">
        <ele>173.300003</ele>
        <time>2017-08-07T13:33:55Z</time>
      </trkpt>
      <trkpt lat="43.3868" lon="1.72079">
        <ele>173.899994</ele>
        <time>2017-08-07T13:33:58Z</time>
      </trkpt>
      <trkpt lat="43.38691" lon="1.7207">
        <ele>174.100006</ele>
        <time>2017-08-07T13:34:01Z</time>
      </trkpt>
      <trkpt lat="43.38702" lon="1.72061">
        <ele>173.899994</ele>
        <time>2017-08-07T13:34:04Z</time>
      </trkpt>
      <trkpt lat="43.38711" lon="1.72053">
        <ele>172.699997</ele>
        <time>2017-08-07T13:34:06Z</time>
      </trkpt>
      <trkpt lat="43.38722" lon="1.72046">
        <ele>168.600006</ele>
        <time>2017-08-07T13:34:09Z</time>
      </trkpt>
      <trkpt lat="43.38735" lon="1.72041">
        <ele>164.800003</ele>
        <time>2017-08-07T13:34:12Z</time>
      </trkpt>
      <trkpt lat="43.38744" lon="1.72037">
        <ele>163.899994</ele>
        <time>2017-08-07T13:34:14Z</time>
      </trkpt>
      <trkpt lat="43.38755" lon="1.72032">
        <ele>163.199997</ele>
        <time>2017-08-07T13:34:17Z</time>
      </trkpt>
      <trkpt lat="43.38769" lon="1.72028">
        <ele>162.600006</ele>
        <time>2017-08-07T13:34:20Z</time>
      </trkpt>
      <trkpt lat="43.38779" lon="1.72026">
        <ele>161.800003</ele>
        <time>2017-08-07T13:34:22Z</time>
      </trkpt>
      <trkpt lat="43.3879" lon="1.72025">
        <ele>160.699997</ele>
        <time>2017-08-07T13:34:25Z</time>
      </trkpt>
      <trkpt lat="43.388" lon="1.72023">
        <ele>159.5</ele>
        <time>2017-08-07T13:34:27Z</time>
      </trkpt>
      <trkpt lat="43.38809" lon="1.72021">
        <ele>158.100006</ele>
        <time>2017-08-07T13:34:29Z</time>
      </trkpt>
      <trkpt lat="43.3882" lon="1.7202">
        <ele>156.199997</ele>
        <time>2017-08-07T13:34:32Z</time>
      </trkpt>
      <trkpt lat="43.3883" lon="1.7202">
        <ele>155.399994</ele>
        <time>2017-08-07T13:34:34Z</time>
      </trkpt>
      <trkpt lat="43.3884" lon="1.72018">
        <ele>154.600006</ele>
        <time>2017-08-07T13:34:36Z</time>
      </trkpt>
      <trkpt lat="43.38849" lon="1.72015">
        <ele>154.5</ele>
        <time>2017-08-07T13:34:38Z</time>
      </trkpt>
      <trkpt lat="43.38862" lon="1.7201">
        <ele>157.600006</ele>
        <time>2017-08-07T13:34:41Z</time>
      </trkpt>
      <trkpt lat="43.38872" lon="1.72009">
        <ele>160.100006</ele>
        <time>2017-08-07T13:34:43Z</time>
      </trkpt>
      <trkpt lat="43.38883" lon="1.72007">
        <ele>161.899994</ele>
        <time>2017-08-07T13:34:45Z</time>
      </trkpt>
      <trkpt lat="43.38893" lon="1.72004">
        <ele>163.100006</ele>
        <time>2017-08-07T13:34:47Z</time>
      </trkpt>
      <trkpt lat="43.38903" lon="1.72001">
        <ele>164.399994</ele>
        <time>2017-08-07T13:34:49Z</time>
      </trkpt>
      <trkpt lat="43.38913" lon="1.71997">
        <ele>166.600006</ele>
        <time>2017-08-07T13:34:51Z</time>
      </trkpt>
      <trkpt lat="43.38921" lon="1.71991">
        <ele>168.300003</ele>
        <time>2017-08-07T13:34:53Z</time>
      </trkpt>
      <trkpt lat="43.38933" lon="1.71982">
        <ele>169.800003</ele>
        <time>2017-08-07T13:34:56Z</time>
      </trkpt>
      <trkpt lat="43.38943" lon="1.71976">
        <ele>170.5</ele>
        <time>2017-08-07T13:34:58Z</time>
      </trkpt>
      <trkpt lat="43.38951" lon="1.7197">
        <ele>170.899994</ele>
        <time>2017-08-07T13:35:00Z</time>
      </trkpt>
      <trkpt lat="43.38958" lon="1.71962">
        <ele>171.300003</ele>
        <time>2017-08-07T13:35:02Z</time>
      </trkpt>
      <trkpt lat="43.38968" lon="1.71953">
        <ele>171.100006</ele>
        <time>2017-08-07T13:35:05Z</time>
      </trkpt>
      <trkpt lat="43.38975" lon="1.71943">
        <ele>171</ele>
        <time>2017-08-07T13:35:07Z</time>
      </trkpt>
      <trkpt lat="43.38982" lon="1.71934">
        <ele>171.300003</ele>
        <time>2017-08-07T13:35:09Z</time>
      </trkpt>
      <trkpt lat="43.38988" lon="1.71922">
        <ele>171.399994</ele>
        <time>2017-08-07T13:35:11Z</time>
      </trkpt>
      <trkpt lat="43.38994" lon="1.71909">
        <ele>171.100006</ele>
        <time>2017-08-07T13:35:13Z</time>
      </trkpt>
      <trkpt lat="43.38999" lon="1.71897">
        <ele>171.300003</ele>
        <time>2017-08-07T13:35:15Z</time>
      </trkpt>
      <trkpt lat="43.39005" lon="1.71886">
        <ele>171.699997</ele>
        <time>2017-08-07T13:35:17Z</time>
      </trkpt>
      <trkpt lat="43.39009" lon="1.71874">
        <ele>172.199997</ele>
        <time>2017-08-07T13:35:19Z</time>
      </trkpt>
      <trkpt lat="43.39013" lon="1.71862">
        <ele>172.399994</ele>
        <time>2017-08-07T13:35:21Z</time>
      </trkpt>
      <trkpt lat="43.39019" lon="1.71845">
        <ele>172.399994</ele>
        <time>2017-08-07T13:35:24Z</time>
      </trkpt>
      <trkpt lat="43.39024" lon="1.71833">
        <ele>172.800003</ele>
        <time>2017-08-07T13:35:26Z</time>
      </trkpt>
      <trkpt lat="43.39028" lon="1.7182">
        <ele>173.899994</ele>
        <time>2017-08-07T13:35:28Z</time>
      </trkpt>
      <trkpt lat="43.39031" lon="1.71808">
        <ele>174.699997</ele>
        <time>2017-08-07T13:35:30Z</time>
      </trkpt>
      <trkpt lat="43.39035" lon="1.71793">
        <ele>175.699997</ele>
        <time>2017-08-07T13:35:33Z</time>
      </trkpt>
      <trkpt lat="43.39037" lon="1.71781">
        <ele>176.199997</ele>
        <time>2017-08-07T13:35:35Z</time>
      </trkpt>
      <trkpt lat="43.39039" lon="1.71768">
        <ele>176.600006</ele>
        <time>2017-08-07T13:35:37Z</time>
      </trkpt>
      <trkpt lat="43.39042" lon="1.71755">
        <ele>177</ele>
        <time>2017-08-07T13:35:39Z</time>
      </trkpt>
      <trkpt lat="43.39044" lon="1.71738">
        <ele>177.100006</ele>
        <time>2017-08-07T13:35:42Z</time>
      </trkpt>
      <trkpt lat="43.39046" lon="1.71719">
        <ele>176.300003</ele>
        <time>2017-08-07T13:35:45Z</time>
      </trkpt>
      <trkpt lat="43.39048" lon="1.71706">
        <ele>175.699997</ele>
        <time>2017-08-07T13:35:47Z</time>
      </trkpt>
      <trkpt lat="43.39049" lon="1.71688">
        <ele>174.899994</ele>
        <time>2017-08-07T13:35:50Z</time>
      </trkpt>
      <trkpt lat="43.3905" lon="1.71674">
        <ele>174.399994</ele>
        <time>2017-08-07T13:35:52Z</time>
      </trkpt>
      <trkpt lat="43.39051" lon="1.7166">
        <ele>173.800003</ele>
        <time>2017-08-07T13:35:54Z</time>
      </trkpt>
      <trkpt lat="43.39053" lon="1.71646">
        <ele>173.5</ele>
        <time>2017-08-07T13:35:56Z</time>
      </trkpt>
      <trkpt lat="43.39055" lon="1.71633">
        <ele>173.800003</ele>
        <time>2017-08-07T13:35:58Z</time>
      </trkpt>
      <trkpt lat="43.39056" lon="1.71617">
        <ele>173.899994</ele>
        <time>2017-08-07T13:36:00Z</time>
      </trkpt>
      <trkpt lat="43.39058" lon="1.71604">
        <ele>173.899994</ele>
        <time>2017-08-07T13:36:02Z</time>
      </trkpt>
      <trkpt lat="43.39058" lon="1.71591">
        <ele>173.699997</ele>
        <time>2017-08-07T13:36:04Z</time>
      </trkpt>
      <trkpt lat="43.39062" lon="1.71572">
        <ele>173.399994</ele>
        <time>2017-08-07T13:36:07Z</time>
      </trkpt>
      <trkpt lat="43.39064" lon="1.71558">
        <ele>172.800003</ele>
        <time>2017-08-07T13:36:09Z</time>
      </trkpt>
      <trkpt lat="43.39066" lon="1.71545">
        <ele>172.100006</ele>
        <time>2017-08-07T13:36:11Z</time>
      </trkpt>
      <trkpt lat="43.39068" lon="1.71532">
        <ele>171.600006</ele>
        <time>2017-08-07T13:36:13Z</time>
      </trkpt>
      <trkpt lat="43.3907" lon="1.71519">
        <ele>171.300003</ele>
        <time>2017-08-07T13:36:15Z</time>
      </trkpt>
      <trkpt lat="43.39073" lon="1.71506">
        <ele>171.199997</ele>
        <time>2017-08-07T13:36:17Z</time>
      </trkpt>
      <trkpt lat="43.39075" lon="1.71494">
        <ele>170.899994</ele>
        <time>2017-08-07T13:36:19Z</time>
      </trkpt>
      <trkpt lat="43.39077" lon="1.71481">
        <ele>170.800003</ele>
        <time>2017-08-07T13:36:21Z</time>
      </trkpt>
      <trkpt lat="43.39078" lon="1.71468">
        <ele>170.899994</ele>
        <time>2017-08-07T13:36:23Z</time>
      </trkpt>
      <trkpt lat="43.3908" lon="1.71454">
        <ele>171.100006</ele>
        <time>2017-08-07T13:36:25Z</time>
      </trkpt>
      <trkpt lat="43.39083" lon="1.71439">
        <ele>171.399994</ele>
        <time>2017-08-07T13:36:27Z</time>
      </trkpt>
      <trkpt lat="43.39086" lon="1.71426">
        <ele>171.699997</ele>
        <time>2017-08-07T13:36:29Z</time>
      </trkpt>
      <trkpt lat="43.39089" lon="1.71413">
        <ele>172.199997</ele>
        <time>2017-08-07T13:36:31Z</time>
      </trkpt>
      <trkpt lat="43.39092" lon="1.714">
        <ele>172.600006</ele>
        <time>2017-08-07T13:36:33Z</time>
      </trkpt>
      <trkpt lat="43.39094" lon="1.71388">
        <ele>173.100006</ele>
        <time>2017-08-07T13:36:35Z</time>
      </trkpt>
      <trkpt lat="43.39094" lon="1.71375">
        <ele>173.600006</ele>
        <time>2017-08-07T13:36:37Z</time>
      </trkpt>
      <trkpt lat="43.39095" lon="1.71358">
        <ele>174.899994</ele>
        <time>2017-08-07T13:36:40Z</time>
      </trkpt>
      <trkpt lat="43.39094" lon="1.71343">
        <ele>175.899994</ele>
        <time>2017-08-07T13:36:43Z</time>
      </trkpt>
      <trkpt lat="43.39092" lon="1.7133">
        <ele>176.399994</ele>
        <time>2017-08-07T13:36:45Z</time>
      </trkpt>
      <trkpt lat="43.39087" lon="1.71316">
        <ele>177.100006</ele>
        <time>2017-08-07T13:36:47Z</time>
      </trkpt>
      <trkpt lat="43.39083" lon="1.71301">
        <ele>177.800003</ele>
        <time>2017-08-07T13:36:49Z</time>
      </trkpt>
      <trkpt lat="43.39076" lon="1.71286">
        <ele>178.5</ele>
        <time>2017-08-07T13:36:52Z</time>
      </trkpt>
      <trkpt lat="43.39069" lon="1.71277">
        <ele>179</ele>
        <time>2017-08-07T13:36:54Z</time>
      </trkpt>
      <trkpt lat="43.39063" lon="1.71267">
        <ele>179.699997</ele>
        <time>2017-08-07T13:36:56Z</time>
      </trkpt>
      <trkpt lat="43.39057" lon="1.71257">
        <ele>180</ele>
        <time>2017-08-07T13:36:58Z</time>
      </trkpt>
      <trkpt lat="43.39052" lon="1.71246">
        <ele>180.600006</ele>
        <time>2017-08-07T13:37:00Z</time>
      </trkpt>
      <trkpt lat="43.39045" lon="1.71236">
        <ele>182.100006</ele>
        <time>2017-08-07T13:37:02Z</time>
      </trkpt>
      <trkpt lat="43.39037" lon="1.71228">
        <ele>182.399994</ele>
        <time>2017-08-07T13:37:04Z</time>
      </trkpt>
      <trkpt lat="43.3903" lon="1.71221">
        <ele>180.800003</ele>
        <time>2017-08-07T13:37:06Z</time>
      </trkpt>
      <trkpt lat="43.39021" lon="1.71213">
        <ele>178.199997</ele>
        <time>2017-08-07T13:37:08Z</time>
      </trkpt>
      <trkpt lat="43.39014" lon="1.71204">
        <ele>175.899994</ele>
        <time>2017-08-07T13:37:10Z</time>
      </trkpt>
      <trkpt lat="43.39006" lon="1.71198">
        <ele>174.5</ele>
        <time>2017-08-07T13:37:12Z</time>
      </trkpt>
      <trkpt lat="43.38995" lon="1.71189">
        <ele>172.5</ele>
        <time>2017-08-07T13:37:15Z</time>
      </trkpt>
      <trkpt lat="43.38984" lon="1.71181">
        <ele>170.699997</ele>
        <time>2017-08-07T13:37:18Z</time>
      </trkpt>
      <trkpt lat="43.38977" lon="1.71171">
        <ele>172.199997</ele>
        <time>2017-08-07T13:37:21Z</time>
      </trkpt>
      <trkpt lat="43.38982" lon="1.71155">
        <ele>178.699997</ele>
        <time>2017-08-07T13:37:24Z</time>
      </trkpt>
      <trkpt lat="43.38986" lon="1.71142">
        <ele>180.699997</ele>
        <time>2017-08-07T13:37:26Z</time>
      </trkpt>
      <trkpt lat="43.38983" lon="1.71127">
        <ele>179.399994</ele>
        <time>2017-08-07T13:37:29Z</time>
      </trkpt>
      <trkpt lat="43.38972" lon="1.71124">
        <ele>179.399994</ele>
        <time>2017-08-07T13:37:32Z</time>
      </trkpt>
      <trkpt lat="43.38962" lon="1.71119">
        <ele>179.199997</ele>
        <time>2017-08-07T13:37:35Z</time>
      </trkpt>
      <trkpt lat="43.38952" lon="1.71116">
        <ele>178.300003</ele>
        <time>2017-08-07T13:37:38Z</time>
      </trkpt>
      <trkpt lat="43.38942" lon="1.71111">
        <ele>176.800003</ele>
        <time>2017-08-07T13:37:41Z</time>
      </trkpt>
      <trkpt lat="43.38931" lon="1.71106">
        <ele>176.100006</ele>
        <time>2017-08-07T13:37:44Z</time>
      </trkpt>
      <trkpt lat="43.38923" lon="1.71101">
        <ele>175.5</ele>
        <time>2017-08-07T13:37:46Z</time>
      </trkpt>
      <trkpt lat="43.38912" lon="1.71094">
        <ele>173.600006</ele>
        <time>2017-08-07T13:37:49Z</time>
      </trkpt>
      <trkpt lat="43.389" lon="1.71089">
        <ele>171.5</ele>
        <time>2017-08-07T13:37:52Z</time>
      </trkpt>
      <trkpt lat="43.38887" lon="1.71082">
        <ele>170.699997</ele>
        <time>2017-08-07T13:37:55Z</time>
      </trkpt>
      <trkpt lat="43.38875" lon="1.71076">
        <ele>169.800003</ele>
        <time>2017-08-07T13:37:58Z</time>
      </trkpt>
      <trkpt lat="43.38865" lon="1.71069">
        <ele>169.399994</ele>
        <time>2017-08-07T13:38:01Z</time>
      </trkpt>
      <trkpt lat="43.38855" lon="1.71065">
        <ele>169.600006</ele>
        <time>2017-08-07T13:38:04Z</time>
      </trkpt>
      <trkpt lat="43.38846" lon="1.71059">
        <ele>169.899994</ele>
        <time>2017-08-07T13:38:07Z</time>
      </trkpt>
      <trkpt lat="43.38837" lon="1.71053">
        <ele>171.600006</ele>
        <time>2017-08-07T13:38:10Z</time>
      </trkpt>
      <trkpt lat="43.38827" lon="1.71048">
        <ele>173.199997</ele>
        <time>2017-08-07T13:38:13Z</time>
      </trkpt>
      <trkpt lat="43.38819" lon="1.71039">
        <ele>173.699997</ele>
        <time>2017-08-07T13:38:16Z</time>
      </trkpt>
      <trkpt lat="43.3881" lon="1.7103">
        <ele>171.800003</ele>
        <time>2017-08-07T13:38:19Z</time>
      </trkpt>
      <trkpt lat="43.38802" lon="1.71024">
        <ele>169.800003</ele>
        <time>2017-08-07T13:38:21Z</time>
      </trkpt>
      <trkpt lat="43.38794" lon="1.71018">
        <ele>167.399994</ele>
        <time>2017-08-07T13:38:23Z</time>
      </trkpt>
      <trkpt lat="43.38785" lon="1.71012">
        <ele>166.899994</ele>
        <time>2017-08-07T13:38:25Z</time>
      </trkpt>
      <trkpt lat="43.38773" lon="1.71003">
        <ele>170.100006</ele>
        <time>2017-08-07T13:38:28Z</time>
      </trkpt>
      <trkpt lat="43.38762" lon="1.70994">
        <ele>174.100006</ele>
        <time>2017-08-07T13:38:31Z</time>
      </trkpt>
      <trkpt lat="43.38753" lon="1.70988">
        <ele>177.300003</ele>
        <time>2017-08-07T13:38:33Z</time>
      </trkpt>
      <trkpt lat="43.38742" lon="1.7098">
        <ele>180</ele>
        <time>2017-08-07T13:38:36Z</time>
      </trkpt>
      <trkpt lat="43.3873" lon="1.70975">
        <ele>181</ele>
        <time>2017-08-07T13:38:39Z</time>
      </trkpt>
      <trkpt lat="43.38717" lon="1.70971">
        <ele>180.699997</ele>
        <time>2017-08-07T13:38:42Z</time>
      </trkpt>
      <trkpt lat="43.38705" lon="1.70967">
        <ele>180.800003</ele>
        <time>2017-08-07T13:38:45Z</time>
      </trkpt>
      <trkpt lat="43.38694" lon="1.7096">
        <ele>181.399994</ele>
        <time>2017-08-07T13:38:48Z</time>
      </trkpt>
      <trkpt lat="43.38686" lon="1.70953">
        <ele>181.600006</ele>
        <time>2017-08-07T13:38:50Z</time>
      </trkpt>
      <trkpt lat="43.38678" lon="1.70945">
        <ele>181.300003</ele>
        <time>2017-08-07T13:38:52Z</time>
      </trkpt>
      <trkpt lat="43.38671" lon="1.70936">
        <ele>180.5</ele>
        <time>2017-08-07T13:38:54Z</time>
      </trkpt>
      <trkpt lat="43.3866" lon="1.70929">
        <ele>179.600006</ele>
        <time>2017-08-07T13:38:57Z</time>
      </trkpt>
      <trkpt lat="43.3865" lon="1.70922">
        <ele>179.300003</ele>
        <time>2017-08-07T13:39:00Z</time>
      </trkpt>
      <trkpt lat="43.38642" lon="1.70916">
        <ele>179.100006</ele>
        <time>2017-08-07T13:39:03Z</time>
      </trkpt>
      <trkpt lat="43.38635" lon="1.70902">
        <ele>178.800003</ele>
        <time>2017-08-07T13:39:07Z</time>
      </trkpt>
      <trkpt lat="43.38626" lon="1.70891">
        <ele>178.800003</ele>
        <time>2017-08-07T13:39:11Z</time>
      </trkpt>
      <trkpt lat="43.3862" lon="1.7088">
        <ele>179.300003</ele>
        <time>2017-08-07T13:39:15Z</time>
      </trkpt>
      <trkpt lat="43.38618" lon="1.70867">
        <ele>180</ele>
        <time>2017-08-07T13:39:19Z</time>
      </trkpt>
      <trkpt lat="43.38616" lon="1.70855">
        <ele>181</ele>
        <time>2017-08-07T13:39:23Z</time>
      </trkpt>
      <trkpt lat="43.38613" lon="1.70839">
        <ele>182.5</ele>
        <time>2017-08-07T13:39:27Z</time>
      </trkpt>
      <trkpt lat="43.38608" lon="1.70825">
        <ele>184.399994</ele>
        <time>2017-08-07T13:39:31Z</time>
      </trkpt>
      <trkpt lat="43.38604" lon="1.70811">
        <ele>185.800003</ele>
        <time>2017-08-07T13:39:35Z</time>
      </trkpt>
      <trkpt lat="43.38602" lon="1.70798">
        <ele>186.600006</ele>
        <time>2017-08-07T13:39:38Z</time>
      </trkpt>
      <trkpt lat="43.38597" lon="1.70786">
        <ele>187.100006</ele>
        <time>2017-08-07T13:39:41Z</time>
      </trkpt>
      <trkpt lat="43.3859" lon="1.70771">
        <ele>187.199997</ele>
        <time>2017-08-07T13:39:45Z</time>
      </trkpt>
      <trkpt lat="43.38585" lon="1.70758">
        <ele>187.199997</ele>
        <time>2017-08-07T13:39:48Z</time>
      </trkpt>
      <trkpt lat="43.38579" lon="1.70743">
        <ele>187.199997</ele>
        <time>2017-08-07T13:39:52Z</time>
      </trkpt>
      <trkpt lat="43.38574" lon="1.70728">
        <ele>187.100006</ele>
        <time>2017-08-07T13:39:55Z</time>
      </trkpt>
      <trkpt lat="43.38569" lon="1.7071">
        <ele>187</ele>
        <time>2017-08-07T13:39:58Z</time>
      </trkpt>
      <trkpt lat="43.38565" lon="1.70699">
        <ele>185.899994</ele>
        <time>2017-08-07T13:40:00Z</time>
      </trkpt>
      <trkpt lat="43.3856" lon="1.70683">
        <ele>184.600006</ele>
        <time>2017-08-07T13:40:03Z</time>
      </trkpt>
      <trkpt lat="43.38555" lon="1.70667">
        <ele>184</ele>
        <time>2017-08-07T13:40:06Z</time>
      </trkpt>
      <trkpt lat="43.38549" lon="1.70651">
        <ele>184</ele>
        <time>2017-08-07T13:40:09Z</time>
      </trkpt>
      <trkpt lat="43.38545" lon="1.70639">
        <ele>184.300003</ele>
        <time>2017-08-07T13:40:11Z</time>
      </trkpt>
      <trkpt lat="43.38541" lon="1.70627">
        <ele>184.800003</ele>
        <time>2017-08-07T13:40:13Z</time>
      </trkpt>
      <trkpt lat="43.38536" lon="1.70616">
        <ele>184.899994</ele>
        <time>2017-08-07T13:40:15Z</time>
      </trkpt>
      <trkpt lat="43.3853" lon="1.70602">
        <ele>185.199997</ele>
        <time>2017-08-07T13:40:17Z</time>
      </trkpt>
      <trkpt lat="43.38525" lon="1.7059">
        <ele>185.600006</ele>
        <time>2017-08-07T13:40:19Z</time>
      </trkpt>
      <trkpt lat="43.38522" lon="1.70579">
        <ele>185.899994</ele>
        <time>2017-08-07T13:40:21Z</time>
      </trkpt>
      <trkpt lat="43.38517" lon="1.70563">
        <ele>186.600006</ele>
        <time>2017-08-07T13:40:24Z</time>
      </trkpt>
      <trkpt lat="43.38512" lon="1.7055">
        <ele>187</ele>
        <time>2017-08-07T13:40:27Z</time>
      </trkpt>
      <trkpt lat="43.38506" lon="1.70534">
        <ele>186.800003</ele>
        <time>2017-08-07T13:40:30Z</time>
      </trkpt>
      <trkpt lat="43.38503" lon="1.7052">
        <ele>186.600006</ele>
        <time>2017-08-07T13:40:33Z</time>
      </trkpt>
      <trkpt lat="43.385" lon="1.70506">
        <ele>186.199997</ele>
        <time>2017-08-07T13:40:36Z</time>
      </trkpt>
      <trkpt lat="43.38496" lon="1.70494">
        <ele>186</ele>
        <time>2017-08-07T13:40:38Z</time>
      </trkpt>
      <trkpt lat="43.38491" lon="1.70477">
        <ele>185.300003</ele>
        <time>2017-08-07T13:40:41Z</time>
      </trkpt>
      <trkpt lat="43.38489" lon="1.70464">
        <ele>184.600006</ele>
        <time>2017-08-07T13:40:43Z</time>
      </trkpt>
      <trkpt lat="43.38491" lon="1.70449">
        <ele>183.600006</ele>
        <time>2017-08-07T13:40:46Z</time>
      </trkpt>
      <trkpt lat="43.38495" lon="1.70436">
        <ele>182.899994</ele>
        <time>2017-08-07T13:40:48Z</time>
      </trkpt>
      <trkpt lat="43.385" lon="1.70425">
        <ele>181.800003</ele>
        <time>2017-08-07T13:40:50Z</time>
      </trkpt>
      <trkpt lat="43.38506" lon="1.70409">
        <ele>180</ele>
        <time>2017-08-07T13:40:53Z</time>
      </trkpt>
      <trkpt lat="43.38512" lon="1.70399">
        <ele>179.199997</ele>
        <time>2017-08-07T13:40:55Z</time>
      </trkpt>
      <trkpt lat="43.38519" lon="1.70387">
        <ele>178</ele>
        <time>2017-08-07T13:40:57Z</time>
      </trkpt>
      <trkpt lat="43.38525" lon="1.70374">
        <ele>176.899994</ele>
        <time>2017-08-07T13:41:00Z</time>
      </trkpt>
      <trkpt lat="43.38532" lon="1.70364">
        <ele>177</ele>
        <time>2017-08-07T13:41:02Z</time>
      </trkpt>
      <trkpt lat="43.3854" lon="1.70351">
        <ele>177.199997</ele>
        <time>2017-08-07T13:41:04Z</time>
      </trkpt>
      <trkpt lat="43.38545" lon="1.70339">
        <ele>176.699997</ele>
        <time>2017-08-07T13:41:06Z</time>
      </trkpt>
      <trkpt lat="43.38549" lon="1.70326">
        <ele>175.899994</ele>
        <time>2017-08-07T13:41:08Z</time>
      </trkpt>
      <trkpt lat="43.38555" lon="1.70309">
        <ele>175.100006</ele>
        <time>2017-08-07T13:41:11Z</time>
      </trkpt>
      <trkpt lat="43.38561" lon="1.70299">
        <ele>175.199997</ele>
        <time>2017-08-07T13:41:13Z</time>
      </trkpt>
      <trkpt lat="43.38566" lon="1.70288">
        <ele>175.5</ele>
        <time>2017-08-07T13:41:15Z</time>
      </trkpt>
      <trkpt lat="43.38573" lon="1.70278">
        <ele>175.199997</ele>
        <time>2017-08-07T13:41:17Z</time>
      </trkpt>
      <trkpt lat="43.38581" lon="1.70267">
        <ele>174.399994</ele>
        <time>2017-08-07T13:41:19Z</time>
      </trkpt>
      <trkpt lat="43.38587" lon="1.70257">
        <ele>173.699997</ele>
        <time>2017-08-07T13:41:21Z</time>
      </trkpt>
      <trkpt lat="43.38594" lon="1.70246">
        <ele>173.199997</ele>
        <time>2017-08-07T13:41:23Z</time>
      </trkpt>
      <trkpt lat="43.38601" lon="1.70235">
        <ele>172.5</ele>
        <time>2017-08-07T13:41:25Z</time>
      </trkpt>
      <trkpt lat="43.38609" lon="1.70226">
        <ele>172.199997</ele>
        <time>2017-08-07T13:41:27Z</time>
      </trkpt>
      <trkpt lat="43.38615" lon="1.70215">
        <ele>171.600006</ele>
        <time>2017-08-07T13:41:29Z</time>
      </trkpt>
      <trkpt lat="43.3862" lon="1.70204">
        <ele>170.899994</ele>
        <time>2017-08-07T13:41:31Z</time>
      </trkpt>
      <trkpt lat="43.38628" lon="1.70194">
        <ele>170.5</ele>
        <time>2017-08-07T13:41:33Z</time>
      </trkpt>
      <trkpt lat="43.38636" lon="1.70179">
        <ele>170.300003</ele>
        <time>2017-08-07T13:41:36Z</time>
      </trkpt>
      <trkpt lat="43.38644" lon="1.7017">
        <ele>170.800003</ele>
        <time>2017-08-07T13:41:38Z</time>
      </trkpt>
      <trkpt lat="43.38652" lon="1.70157">
        <ele>171.199997</ele>
        <time>2017-08-07T13:41:41Z</time>
      </trkpt>
      <trkpt lat="43.38662" lon="1.70144">
        <ele>170.899994</ele>
        <time>2017-08-07T13:41:44Z</time>
      </trkpt>
      <trkpt lat="43.38669" lon="1.70136">
        <ele>170.399994</ele>
        <time>2017-08-07T13:41:46Z</time>
      </trkpt>
      <trkpt lat="43.38677" lon="1.70129">
        <ele>169.600006</ele>
        <time>2017-08-07T13:41:48Z</time>
      </trkpt>
      <trkpt lat="43.38685" lon="1.7012">
        <ele>169</ele>
        <time>2017-08-07T13:41:50Z</time>
      </trkpt>
      <trkpt lat="43.38694" lon="1.70112">
        <ele>169.199997</ele>
        <time>2017-08-07T13:41:52Z</time>
      </trkpt>
      <trkpt lat="43.38703" lon="1.70106">
        <ele>169.600006</ele>
        <time>2017-08-07T13:41:54Z</time>
      </trkpt>
      <trkpt lat="43.38713" lon="1.70098">
        <ele>170</ele>
        <time>2017-08-07T13:41:56Z</time>
      </trkpt>
      <trkpt lat="43.38722" lon="1.70092">
        <ele>170.899994</ele>
        <time>2017-08-07T13:41:58Z</time>
      </trkpt>
      <trkpt lat="43.38732" lon="1.70083">
        <ele>171.399994</ele>
        <time>2017-08-07T13:42:01Z</time>
      </trkpt>
      <trkpt lat="43.38743" lon="1.70076">
        <ele>171.800003</ele>
        <time>2017-08-07T13:42:04Z</time>
      </trkpt>
      <trkpt lat="43.38752" lon="1.70069">
        <ele>172.199997</ele>
        <time>2017-08-07T13:42:06Z</time>
      </trkpt>
      <trkpt lat="43.3876" lon="1.70061">
        <ele>172.100006</ele>
        <time>2017-08-07T13:42:08Z</time>
      </trkpt>
      <trkpt lat="43.38767" lon="1.70053">
        <ele>171.399994</ele>
        <time>2017-08-07T13:42:10Z</time>
      </trkpt>
      <trkpt lat="43.38779" lon="1.70043">
        <ele>171.100006</ele>
        <time>2017-08-07T13:42:13Z</time>
      </trkpt>
      <trkpt lat="43.38789" lon="1.70031">
        <ele>171</ele>
        <time>2017-08-07T13:42:16Z</time>
      </trkpt>
      <trkpt lat="43.38799" lon="1.70022">
        <ele>170.800003</ele>
        <time>2017-08-07T13:42:18Z</time>
      </trkpt>
      <trkpt lat="43.38807" lon="1.70016">
        <ele>170.399994</ele>
        <time>2017-08-07T13:42:20Z</time>
      </trkpt>
      <trkpt lat="43.38816" lon="1.70008">
        <ele>169.699997</ele>
        <time>2017-08-07T13:42:22Z</time>
      </trkpt>
      <trkpt lat="43.38824" lon="1.70001">
        <ele>169.199997</ele>
        <time>2017-08-07T13:42:24Z</time>
      </trkpt>
      <trkpt lat="43.38833" lon="1.69994">
        <ele>169</ele>
        <time>2017-08-07T13:42:26Z</time>
      </trkpt>
      <trkpt lat="43.38841" lon="1.69988">
        <ele>168.699997</ele>
        <time>2017-08-07T13:42:28Z</time>
      </trkpt>
      <trkpt lat="43.3885" lon="1.69981">
        <ele>167.699997</ele>
        <time>2017-08-07T13:42:30Z</time>
      </trkpt>
      <trkpt lat="43.38861" lon="1.69979">
        <ele>165.199997</ele>
        <time>2017-08-07T13:42:33Z</time>
      </trkpt>
      <trkpt lat="43.38871" lon="1.69974">
        <ele>163.899994</ele>
        <time>2017-08-07T13:42:35Z</time>
      </trkpt>
      <trkpt lat="43.38881" lon="1.69973">
        <ele>164.199997</ele>
        <time>2017-08-07T13:42:37Z</time>
      </trkpt>
      <trkpt lat="43.3889" lon="1.69971">
        <ele>166.300003</ele>
        <time>2017-08-07T13:42:39Z</time>
      </trkpt>
      <trkpt lat="43.389" lon="1.69971">
        <ele>168.199997</ele>
        <time>2017-08-07T13:42:41Z</time>
      </trkpt>
      <trkpt lat="43.38909" lon="1.69973">
        <ele>169.899994</ele>
        <time>2017-08-07T13:42:43Z</time>
      </trkpt>
      <trkpt lat="43.38919" lon="1.69975">
        <ele>172.300003</ele>
        <time>2017-08-07T13:42:45Z</time>
      </trkpt>
      <trkpt lat="43.38929" lon="1.69973">
        <ele>174.600006</ele>
        <time>2017-08-07T13:42:47Z</time>
      </trkpt>
      <trkpt lat="43.38938" lon="1.69975">
        <ele>175.100006</ele>
        <time>2017-08-07T13:42:49Z</time>
      </trkpt>
      <trkpt lat="43.38948" lon="1.69976">
        <ele>174.5</ele>
        <time>2017-08-07T13:42:51Z</time>
      </trkpt>
      <trkpt lat="43.38959" lon="1.69978">
        <ele>173.800003</ele>
        <time>2017-08-07T13:42:53Z</time>
      </trkpt>
      <trkpt lat="43.38969" lon="1.69978">
        <ele>173.399994</ele>
        <time>2017-08-07T13:42:55Z</time>
      </trkpt>
      <trkpt lat="43.38981" lon="1.69977">
        <ele>173</ele>
        <time>2017-08-07T13:42:57Z</time>
      </trkpt>
      <trkpt lat="43.38991" lon="1.69971">
        <ele>172.5</ele>
        <time>2017-08-07T13:42:59Z</time>
      </trkpt>
      <trkpt lat="43.39001" lon="1.69961">
        <ele>172.100006</ele>
        <time>2017-08-07T13:43:01Z</time>
      </trkpt>
      <trkpt lat="43.39009" lon="1.69952">
        <ele>171.800003</ele>
        <time>2017-08-07T13:43:03Z</time>
      </trkpt>
      <trkpt lat="43.39016" lon="1.69943">
        <ele>171.699997</ele>
        <time>2017-08-07T13:43:05Z</time>
      </trkpt>
      <trkpt lat="43.39024" lon="1.6993">
        <ele>172.300003</ele>
        <time>2017-08-07T13:43:07Z</time>
      </trkpt>
      <trkpt lat="43.39028" lon="1.69917">
        <ele>172.5</ele>
        <time>2017-08-07T13:43:09Z</time>
      </trkpt>
      <trkpt lat="43.39032" lon="1.69904">
        <ele>172.600006</ele>
        <time>2017-08-07T13:43:11Z</time>
      </trkpt>
      <trkpt lat="43.39035" lon="1.69891">
        <ele>172.899994</ele>
        <time>2017-08-07T13:43:13Z</time>
      </trkpt>
      <trkpt lat="43.39036" lon="1.69878">
        <ele>173</ele>
        <time>2017-08-07T13:43:15Z</time>
      </trkpt>
      <trkpt lat="43.39039" lon="1.69864">
        <ele>173.100006</ele>
        <time>2017-08-07T13:43:17Z</time>
      </trkpt>
      <trkpt lat="43.39041" lon="1.69849">
        <ele>173</ele>
        <time>2017-08-07T13:43:19Z</time>
      </trkpt>
      <trkpt lat="43.39041" lon="1.69835">
        <ele>172.899994</ele>
        <time>2017-08-07T13:43:21Z</time>
      </trkpt>
      <trkpt lat="43.39041" lon="1.69821">
        <ele>172.899994</ele>
        <time>2017-08-07T13:43:23Z</time>
      </trkpt>
      <trkpt lat="43.39042" lon="1.69808">
        <ele>172.699997</ele>
        <time>2017-08-07T13:43:25Z</time>
      </trkpt>
      <trkpt lat="43.39044" lon="1.69795">
        <ele>172.399994</ele>
        <time>2017-08-07T13:43:27Z</time>
      </trkpt>
      <trkpt lat="43.39046" lon="1.69782">
        <ele>172.800003</ele>
        <time>2017-08-07T13:43:29Z</time>
      </trkpt>
      <trkpt lat="43.39048" lon="1.69765">
        <ele>173.600006</ele>
        <time>2017-08-07T13:43:32Z</time>
      </trkpt>
      <trkpt lat="43.39049" lon="1.6975">
        <ele>174.300003</ele>
        <time>2017-08-07T13:43:34Z</time>
      </trkpt>
      <trkpt lat="43.39049" lon="1.69736">
        <ele>175.100006</ele>
        <time>2017-08-07T13:43:36Z</time>
      </trkpt>
      <trkpt lat="43.39047" lon="1.69722">
        <ele>176.199997</ele>
        <time>2017-08-07T13:43:38Z</time>
      </trkpt>
      <trkpt lat="43.39044" lon="1.6971">
        <ele>177.5</ele>
        <time>2017-08-07T13:43:40Z</time>
      </trkpt>
      <trkpt lat="43.39038" lon="1.69694">
        <ele>179.199997</ele>
        <time>2017-08-07T13:43:43Z</time>
      </trkpt>
      <trkpt lat="43.39032" lon="1.69684">
        <ele>180.100006</ele>
        <time>2017-08-07T13:43:45Z</time>
      </trkpt>
      <trkpt lat="43.39024" lon="1.69668">
        <ele>181.699997</ele>
        <time>2017-08-07T13:43:48Z</time>
      </trkpt>
      <trkpt lat="43.39016" lon="1.69655">
        <ele>184.100006</ele>
        <time>2017-08-07T13:43:51Z</time>
      </trkpt>
      <trkpt lat="43.39008" lon="1.69641">
        <ele>184.600006</ele>
        <time>2017-08-07T13:43:54Z</time>
      </trkpt>
      <trkpt lat="43.38999" lon="1.69627">
        <ele>184</ele>
        <time>2017-08-07T13:43:57Z</time>
      </trkpt>
      <trkpt lat="43.38993" lon="1.69617">
        <ele>182.600006</ele>
        <time>2017-08-07T13:43:59Z</time>
      </trkpt>
      <trkpt lat="43.38988" lon="1.69607">
        <ele>180.300003</ele>
        <time>2017-08-07T13:44:01Z</time>
      </trkpt>
      <trkpt lat="43.38982" lon="1.69591">
        <ele>177.199997</ele>
        <time>2017-08-07T13:44:04Z</time>
      </trkpt>
      <trkpt lat="43.38979" lon="1.69575">
        <ele>175.300003</ele>
        <time>2017-08-07T13:44:07Z</time>
      </trkpt>
      <trkpt lat="43.38978" lon="1.6956">
        <ele>173.899994</ele>
        <time>2017-08-07T13:44:10Z</time>
      </trkpt>
      <trkpt lat="43.38979" lon="1.69541">
        <ele>172.800003</ele>
        <time>2017-08-07T13:44:13Z</time>
      </trkpt>
      <trkpt lat="43.38981" lon="1.69527">
        <ele>172.300003</ele>
        <time>2017-08-07T13:44:15Z</time>
      </trkpt>
      <trkpt lat="43.38982" lon="1.69514">
        <ele>171.699997</ele>
        <time>2017-08-07T13:44:17Z</time>
      </trkpt>
      <trkpt lat="43.38989" lon="1.69497">
        <ele>171.600006</ele>
        <time>2017-08-07T13:44:20Z</time>
      </trkpt>
      <trkpt lat="43.3899" lon="1.69485">
        <ele>171.5</ele>
        <time>2017-08-07T13:44:22Z</time>
      </trkpt>
      <trkpt lat="43.38994" lon="1.69468">
        <ele>171.699997</ele>
        <time>2017-08-07T13:44:25Z</time>
      </trkpt>
      <trkpt lat="43.38999" lon="1.69452">
        <ele>171.699997</ele>
        <time>2017-08-07T13:44:28Z</time>
      </trkpt>
      <trkpt lat="43.39005" lon="1.69436">
        <ele>171.600006</ele>
        <time>2017-08-07T13:44:31Z</time>
      </trkpt>
      <trkpt lat="43.39007" lon="1.69423">
        <ele>171.100006</ele>
        <time>2017-08-07T13:44:33Z</time>
      </trkpt>
      <trkpt lat="43.39013" lon="1.69407">
        <ele>170.300003</ele>
        <time>2017-08-07T13:44:36Z</time>
      </trkpt>
      <trkpt lat="43.39016" lon="1.69393">
        <ele>169.600006</ele>
        <time>2017-08-07T13:44:39Z</time>
      </trkpt>
      <trkpt lat="43.39024" lon="1.69378">
        <ele>169.199997</ele>
        <time>2017-08-07T13:44:42Z</time>
      </trkpt>
      <trkpt lat="43.39032" lon="1.69367">
        <ele>168.600006</ele>
        <time>2017-08-07T13:44:44Z</time>
      </trkpt>
      <trkpt lat="43.3904" lon="1.69357">
        <ele>168.5</ele>
        <time>2017-08-07T13:44:46Z</time>
      </trkpt>
      <trkpt lat="43.39048" lon="1.69348">
        <ele>168.899994</ele>
        <time>2017-08-07T13:44:48Z</time>
      </trkpt>
      <trkpt lat="43.39056" lon="1.69341">
        <ele>169.300003</ele>
        <time>2017-08-07T13:44:50Z</time>
      </trkpt>
      <trkpt lat="43.39062" lon="1.69332">
        <ele>169.199997</ele>
        <time>2017-08-07T13:44:52Z</time>
      </trkpt>
      <trkpt lat="43.39071" lon="1.69321">
        <ele>168.399994</ele>
        <time>2017-08-07T13:44:55Z</time>
      </trkpt>
      <trkpt lat="43.3908" lon="1.69309">
        <ele>168.699997</ele>
        <time>2017-08-07T13:44:58Z</time>
      </trkpt>
      <trkpt lat="43.3909" lon="1.69303">
        <ele>169.100006</ele>
        <time>2017-08-07T13:45:01Z</time>
      </trkpt>
      <trkpt lat="43.39098" lon="1.69294">
        <ele>168.5</ele>
        <time>2017-08-07T13:45:04Z</time>
      </trkpt>
      <trkpt lat="43.39107" lon="1.69285">
        <ele>167.800003</ele>
        <time>2017-08-07T13:45:07Z</time>
      </trkpt>
      <trkpt lat="43.39115" lon="1.69274">
        <ele>167</ele>
        <time>2017-08-07T13:45:10Z</time>
      </trkpt>
      <trkpt lat="43.39124" lon="1.69262">
        <ele>166.600006</ele>
        <time>2017-08-07T13:45:13Z</time>
      </trkpt>
      <trkpt lat="43.3913" lon="1.69252">
        <ele>166.399994</ele>
        <time>2017-08-07T13:45:15Z</time>
      </trkpt>
      <trkpt lat="43.39135" lon="1.69242">
        <ele>166.199997</ele>
        <time>2017-08-07T13:45:17Z</time>
      </trkpt>
      <trkpt lat="43.39144" lon="1.69234">
        <ele>167.399994</ele>
        <time>2017-08-07T13:45:20Z</time>
      </trkpt>
      <trkpt lat="43.39152" lon="1.69222">
        <ele>168.899994</ele>
        <time>2017-08-07T13:45:23Z</time>
      </trkpt>
      <trkpt lat="43.3916" lon="1.69211">
        <ele>169.699997</ele>
        <time>2017-08-07T13:45:26Z</time>
      </trkpt>
      <trkpt lat="43.39168" lon="1.69202">
        <ele>170.899994</ele>
        <time>2017-08-07T13:45:30Z</time>
      </trkpt>
      <trkpt lat="43.39175" lon="1.69193">
        <ele>171.5</ele>
        <time>2017-08-07T13:45:35Z</time>
      </trkpt>
      <trkpt lat="43.39167" lon="1.69202">
        <ele>171</ele>
        <time>2017-08-07T13:45:53Z</time>
      </trkpt>
      <trkpt lat="43.3916" lon="1.6921">
        <ele>169.899994</ele>
        <time>2017-08-07T13:46:27Z</time>
      </trkpt>
      <trkpt lat="43.39154" lon="1.69221">
        <ele>169.199997</ele>
        <time>2017-08-07T13:46:33Z</time>
      </trkpt>
      <trkpt lat="43.39155" lon="1.69233">
        <ele>169.399994</ele>
        <time>2017-08-07T13:46:47Z</time>
      </trkpt>
      <trkpt lat="43.39151" lon="1.69221">
        <ele>168.899994</ele>
        <time>2017-08-07T14:03:34Z</time>
      </trkpt>
      <trkpt lat="43.39154" lon="1.69208">
        <ele>169.100006</ele>
        <time>2017-08-07T14:03:40Z</time>
      </trkpt>
      <trkpt lat="43.39163" lon="1.692">
        <ele>170.899994</ele>
        <time>2017-08-07T14:03:45Z</time>
      </trkpt>
      <trkpt lat="43.39171" lon="1.69193">
        <ele>171.5</ele>
        <time>2017-08-07T14:03:49Z</time>
      </trkpt>
      <trkpt lat="43.3918" lon="1.69189">
        <ele>171.399994</ele>
        <time>2017-08-07T14:03:56Z</time>
      </trkpt>
      <trkpt lat="43.39186" lon="1.69179">
        <ele>171.899994</ele>
        <time>2017-08-07T14:05:15Z</time>
      </trkpt>
      <trkpt lat="43.39195" lon="1.69174">
        <ele>173.100006</ele>
        <time>2017-08-07T14:05:28Z</time>
      </trkpt>
      <trkpt lat="43.39201" lon="1.69165">
        <ele>173.100006</ele>
        <time>2017-08-07T14:05:31Z</time>
      </trkpt>
      <trkpt lat="43.39208" lon="1.69156">
        <ele>172.600006</ele>
        <time>2017-08-07T14:05:33Z</time>
      </trkpt>
      <trkpt lat="43.39216" lon="1.69145">
        <ele>173</ele>
        <time>2017-08-07T14:05:35Z</time>
      </trkpt>
      <trkpt lat="43.39224" lon="1.69134">
        <ele>173.600006</ele>
        <time>2017-08-07T14:05:37Z</time>
      </trkpt>
      <trkpt lat="43.3923" lon="1.69124">
        <ele>174.100006</ele>
        <time>2017-08-07T14:05:39Z</time>
      </trkpt>
      <trkpt lat="43.39236" lon="1.69112">
        <ele>173.699997</ele>
        <time>2017-08-07T14:05:41Z</time>
      </trkpt>
      <trkpt lat="43.39238" lon="1.691">
        <ele>172.600006</ele>
        <time>2017-08-07T14:05:43Z</time>
      </trkpt>
      <trkpt lat="43.39244" lon="1.69087">
        <ele>172.100006</ele>
        <time>2017-08-07T14:05:45Z</time>
      </trkpt>
      <trkpt lat="43.39248" lon="1.69074">
        <ele>171.300003</ele>
        <time>2017-08-07T14:05:47Z</time>
      </trkpt>
      <trkpt lat="43.39253" lon="1.69063">
        <ele>171.199997</ele>
        <time>2017-08-07T14:05:49Z</time>
      </trkpt>
      <trkpt lat="43.39257" lon="1.69051">
        <ele>171.300003</ele>
        <time>2017-08-07T14:05:51Z</time>
      </trkpt>
      <trkpt lat="43.39261" lon="1.6904">
        <ele>171.5</ele>
        <time>2017-08-07T14:05:53Z</time>
      </trkpt>
      <trkpt lat="43.39266" lon="1.69023">
        <ele>171.5</ele>
        <time>2017-08-07T14:05:56Z</time>
      </trkpt>
      <trkpt lat="43.3927" lon="1.69011">
        <ele>171.600006</ele>
        <time>2017-08-07T14:05:58Z</time>
      </trkpt>
      <trkpt lat="43.39275" lon="1.69">
        <ele>171.699997</ele>
        <time>2017-08-07T14:06:00Z</time>
      </trkpt>
      <trkpt lat="43.3928" lon="1.68988">
        <ele>171.800003</ele>
        <time>2017-08-07T14:06:02Z</time>
      </trkpt>
      <trkpt lat="43.39284" lon="1.68976">
        <ele>171.899994</ele>
        <time>2017-08-07T14:06:04Z</time>
      </trkpt>
      <trkpt lat="43.39291" lon="1.68961">
        <ele>172.100006</ele>
        <time>2017-08-07T14:06:07Z</time>
      </trkpt>
      <trkpt lat="43.39294" lon="1.6895">
        <ele>172.399994</ele>
        <time>2017-08-07T14:06:09Z</time>
      </trkpt>
      <trkpt lat="43.39298" lon="1.68933">
        <ele>172.600006</ele>
        <time>2017-08-07T14:06:12Z</time>
      </trkpt>
      <trkpt lat="43.39302" lon="1.68922">
        <ele>172.399994</ele>
        <time>2017-08-07T14:06:14Z</time>
      </trkpt>
      <trkpt lat="43.39307" lon="1.68911">
        <ele>171.899994</ele>
        <time>2017-08-07T14:06:16Z</time>
      </trkpt>
      <trkpt lat="43.39313" lon="1.68901">
        <ele>171.5</ele>
        <time>2017-08-07T14:06:18Z</time>
      </trkpt>
      <trkpt lat="43.39321" lon="1.68888">
        <ele>171.100006</ele>
        <time>2017-08-07T14:06:21Z</time>
      </trkpt>
      <trkpt lat="43.39328" lon="1.68876">
        <ele>171</ele>
        <time>2017-08-07T14:06:23Z</time>
      </trkpt>
      <trkpt lat="43.39334" lon="1.68866">
        <ele>171</ele>
        <time>2017-08-07T14:06:25Z</time>
      </trkpt>
      <trkpt lat="43.3934" lon="1.68856">
        <ele>170.600006</ele>
        <time>2017-08-07T14:06:27Z</time>
      </trkpt>
      <trkpt lat="43.39349" lon="1.68845">
        <ele>170</ele>
        <time>2017-08-07T14:06:30Z</time>
      </trkpt>
      <trkpt lat="43.39356" lon="1.6883">
        <ele>169.5</ele>
        <time>2017-08-07T14:06:33Z</time>
      </trkpt>
      <trkpt lat="43.39362" lon="1.68814">
        <ele>168.899994</ele>
        <time>2017-08-07T14:06:35Z</time>
      </trkpt>
      <trkpt lat="43.3937" lon="1.68804">
        <ele>169.100006</ele>
        <time>2017-08-07T14:06:37Z</time>
      </trkpt>
      <trkpt lat="43.39381" lon="1.68803">
        <ele>169.800003</ele>
        <time>2017-08-07T14:06:39Z</time>
      </trkpt>
      <trkpt lat="43.39392" lon="1.68807">
        <ele>171.100006</ele>
        <time>2017-08-07T14:06:41Z</time>
      </trkpt>
      <trkpt lat="43.39403" lon="1.68812">
        <ele>173</ele>
        <time>2017-08-07T14:06:44Z</time>
      </trkpt>
      <trkpt lat="43.39413" lon="1.68816">
        <ele>173.699997</ele>
        <time>2017-08-07T14:06:47Z</time>
      </trkpt>
      <trkpt lat="43.39425" lon="1.68817">
        <ele>173.899994</ele>
        <time>2017-08-07T14:06:50Z</time>
      </trkpt>
      <trkpt lat="43.39437" lon="1.68819">
        <ele>174.699997</ele>
        <time>2017-08-07T14:06:53Z</time>
      </trkpt>
      <trkpt lat="43.39446" lon="1.68822">
        <ele>175.899994</ele>
        <time>2017-08-07T14:06:55Z</time>
      </trkpt>
      <trkpt lat="43.39457" lon="1.68825">
        <ele>176.899994</ele>
        <time>2017-08-07T14:06:57Z</time>
      </trkpt>
      <trkpt lat="43.39467" lon="1.68827">
        <ele>175.199997</ele>
        <time>2017-08-07T14:06:59Z</time>
      </trkpt>
      <trkpt lat="43.39477" lon="1.68829">
        <ele>172.899994</ele>
        <time>2017-08-07T14:07:01Z</time>
      </trkpt>
      <trkpt lat="43.39487" lon="1.6883">
        <ele>171.100006</ele>
        <time>2017-08-07T14:07:03Z</time>
      </trkpt>
      <trkpt lat="43.395" lon="1.68831">
        <ele>171</ele>
        <time>2017-08-07T14:07:06Z</time>
      </trkpt>
      <trkpt lat="43.3951" lon="1.6883">
        <ele>171.100006</ele>
        <time>2017-08-07T14:07:08Z</time>
      </trkpt>
      <trkpt lat="43.39519" lon="1.68827">
        <ele>171</ele>
        <time>2017-08-07T14:07:10Z</time>
      </trkpt>
      <trkpt lat="43.39528" lon="1.68821">
        <ele>170.600006</ele>
        <time>2017-08-07T14:07:12Z</time>
      </trkpt>
      <trkpt lat="43.39536" lon="1.68813">
        <ele>170.800003</ele>
        <time>2017-08-07T14:07:14Z</time>
      </trkpt>
      <trkpt lat="43.39543" lon="1.68804">
        <ele>171</ele>
        <time>2017-08-07T14:07:16Z</time>
      </trkpt>
      <trkpt lat="43.39549" lon="1.68794">
        <ele>171.399994</ele>
        <time>2017-08-07T14:07:18Z</time>
      </trkpt>
      <trkpt lat="43.39557" lon="1.6878">
        <ele>172.600006</ele>
        <time>2017-08-07T14:07:21Z</time>
      </trkpt>
      <trkpt lat="43.39561" lon="1.68768">
        <ele>173.399994</ele>
        <time>2017-08-07T14:07:23Z</time>
      </trkpt>
      <trkpt lat="43.39565" lon="1.68752">
        <ele>173.899994</ele>
        <time>2017-08-07T14:07:26Z</time>
      </trkpt>
      <trkpt lat="43.39569" lon="1.68735">
        <ele>174</ele>
        <time>2017-08-07T14:07:29Z</time>
      </trkpt>
      <trkpt lat="43.39572" lon="1.68718">
        <ele>173.699997</ele>
        <time>2017-08-07T14:07:32Z</time>
      </trkpt>
      <trkpt lat="43.39574" lon="1.68706">
        <ele>173.5</ele>
        <time>2017-08-07T14:07:34Z</time>
      </trkpt>
      <trkpt lat="43.39574" lon="1.68693">
        <ele>173.800003</ele>
        <time>2017-08-07T14:07:36Z</time>
      </trkpt>
      <trkpt lat="43.39575" lon="1.68681">
        <ele>174.100006</ele>
        <time>2017-08-07T14:07:38Z</time>
      </trkpt>
      <trkpt lat="43.39575" lon="1.68668">
        <ele>173.899994</ele>
        <time>2017-08-07T14:07:40Z</time>
      </trkpt>
      <trkpt lat="43.39578" lon="1.68652">
        <ele>173.600006</ele>
        <time>2017-08-07T14:07:43Z</time>
      </trkpt>
      <trkpt lat="43.3958" lon="1.68639">
        <ele>174</ele>
        <time>2017-08-07T14:07:45Z</time>
      </trkpt>
      <trkpt lat="43.3958" lon="1.68626">
        <ele>174.300003</ele>
        <time>2017-08-07T14:07:47Z</time>
      </trkpt>
      <trkpt lat="43.3958" lon="1.68613">
        <ele>174.199997</ele>
        <time>2017-08-07T14:07:49Z</time>
      </trkpt>
      <trkpt lat="43.39578" lon="1.68595">
        <ele>174.100006</ele>
        <time>2017-08-07T14:07:52Z</time>
      </trkpt>
      <trkpt lat="43.39577" lon="1.68582">
        <ele>174.399994</ele>
        <time>2017-08-07T14:07:54Z</time>
      </trkpt>
      <trkpt lat="43.39575" lon="1.68567">
        <ele>174.699997</ele>
        <time>2017-08-07T14:07:56Z</time>
      </trkpt>
      <trkpt lat="43.39575" lon="1.68553">
        <ele>174.600006</ele>
        <time>2017-08-07T14:07:58Z</time>
      </trkpt>
      <trkpt lat="43.39573" lon="1.68539">
        <ele>174.600006</ele>
        <time>2017-08-07T14:08:00Z</time>
      </trkpt>
      <trkpt lat="43.39572" lon="1.68525">
        <ele>174.800003</ele>
        <time>2017-08-07T14:08:02Z</time>
      </trkpt>
      <trkpt lat="43.39568" lon="1.68509">
        <ele>174.600006</ele>
        <time>2017-08-07T14:08:04Z</time>
      </trkpt>
      <trkpt lat="43.39568" lon="1.68496">
        <ele>173.699997</ele>
        <time>2017-08-07T14:08:06Z</time>
      </trkpt>
      <trkpt lat="43.39565" lon="1.68483">
        <ele>172.5</ele>
        <time>2017-08-07T14:08:08Z</time>
      </trkpt>
      <trkpt lat="43.39565" lon="1.68469">
        <ele>171.5</ele>
        <time>2017-08-07T14:08:10Z</time>
      </trkpt>
      <trkpt lat="43.39565" lon="1.68456">
        <ele>170.5</ele>
        <time>2017-08-07T14:08:12Z</time>
      </trkpt>
      <trkpt lat="43.39568" lon="1.68442">
        <ele>169.300003</ele>
        <time>2017-08-07T14:08:14Z</time>
      </trkpt>
      <trkpt lat="43.39572" lon="1.68429">
        <ele>168.300003</ele>
        <time>2017-08-07T14:08:16Z</time>
      </trkpt>
      <trkpt lat="43.39576" lon="1.68417">
        <ele>167.399994</ele>
        <time>2017-08-07T14:08:18Z</time>
      </trkpt>
      <trkpt lat="43.39583" lon="1.68405">
        <ele>166.800003</ele>
        <time>2017-08-07T14:08:20Z</time>
      </trkpt>
      <trkpt lat="43.3959" lon="1.68394">
        <ele>166.300003</ele>
        <time>2017-08-07T14:08:22Z</time>
      </trkpt>
      <trkpt lat="43.39599" lon="1.68386">
        <ele>165.800003</ele>
        <time>2017-08-07T14:08:24Z</time>
      </trkpt>
      <trkpt lat="43.39608" lon="1.68379">
        <ele>165.399994</ele>
        <time>2017-08-07T14:08:26Z</time>
      </trkpt>
      <trkpt lat="43.39617" lon="1.68374">
        <ele>165.199997</ele>
        <time>2017-08-07T14:08:28Z</time>
      </trkpt>
      <trkpt lat="43.39626" lon="1.68367">
        <ele>164.800003</ele>
        <time>2017-08-07T14:08:30Z</time>
      </trkpt>
      <trkpt lat="43.39635" lon="1.68361">
        <ele>164.199997</ele>
        <time>2017-08-07T14:08:32Z</time>
      </trkpt>
      <trkpt lat="43.39645" lon="1.68355">
        <ele>163.399994</ele>
        <time>2017-08-07T14:08:34Z</time>
      </trkpt>
      <trkpt lat="43.39654" lon="1.68347">
        <ele>162.399994</ele>
        <time>2017-08-07T14:08:36Z</time>
      </trkpt>
      <trkpt lat="43.39663" lon="1.68342">
        <ele>162.600006</ele>
        <time>2017-08-07T14:08:38Z</time>
      </trkpt>
      <trkpt lat="43.39672" lon="1.68335">
        <ele>163.100006</ele>
        <time>2017-08-07T14:08:40Z</time>
      </trkpt>
      <trkpt lat="43.39684" lon="1.68326">
        <ele>163.899994</ele>
        <time>2017-08-07T14:08:43Z</time>
      </trkpt>
      <trkpt lat="43.39696" lon="1.68316">
        <ele>165.399994</ele>
        <time>2017-08-07T14:08:46Z</time>
      </trkpt>
      <trkpt lat="43.39705" lon="1.68308">
        <ele>166.800003</ele>
        <time>2017-08-07T14:08:48Z</time>
      </trkpt>
      <trkpt lat="43.39713" lon="1.683">
        <ele>167.899994</ele>
        <time>2017-08-07T14:08:50Z</time>
      </trkpt>
      <trkpt lat="43.39719" lon="1.68291">
        <ele>168.800003</ele>
        <time>2017-08-07T14:08:52Z</time>
      </trkpt>
      <trkpt lat="43.39728" lon="1.68277">
        <ele>169.5</ele>
        <time>2017-08-07T14:08:55Z</time>
      </trkpt>
      <trkpt lat="43.39734" lon="1.68268">
        <ele>170.5</ele>
        <time>2017-08-07T14:08:57Z</time>
      </trkpt>
      <trkpt lat="43.39741" lon="1.68258">
        <ele>170.399994</ele>
        <time>2017-08-07T14:08:59Z</time>
      </trkpt>
      <trkpt lat="43.39747" lon="1.68243">
        <ele>169.300003</ele>
        <time>2017-08-07T14:09:02Z</time>
      </trkpt>
      <trkpt lat="43.39751" lon="1.6823">
        <ele>168.800003</ele>
        <time>2017-08-07T14:09:05Z</time>
      </trkpt>
      <trkpt lat="43.39754" lon="1.68217">
        <ele>168.600006</ele>
        <time>2017-08-07T14:09:08Z</time>
      </trkpt>
      <trkpt lat="43.39759" lon="1.68204">
        <ele>168.899994</ele>
        <time>2017-08-07T14:09:11Z</time>
      </trkpt>
      <trkpt lat="43.39763" lon="1.6819">
        <ele>169.199997</ele>
        <time>2017-08-07T14:09:14Z</time>
      </trkpt>
      <trkpt lat="43.39767" lon="1.68174">
        <ele>169.300003</ele>
        <time>2017-08-07T14:09:17Z</time>
      </trkpt>
      <trkpt lat="43.39771" lon="1.68158">
        <ele>170</ele>
        <time>2017-08-07T14:09:20Z</time>
      </trkpt>
      <trkpt lat="43.39774" lon="1.68143">
        <ele>170.399994</ele>
        <time>2017-08-07T14:09:23Z</time>
      </trkpt>
      <trkpt lat="43.39777" lon="1.68126">
        <ele>170.300003</ele>
        <time>2017-08-07T14:09:26Z</time>
      </trkpt>
      <trkpt lat="43.39783" lon="1.68108">
        <ele>170.5</ele>
        <time>2017-08-07T14:09:29Z</time>
      </trkpt>
      <trkpt lat="43.39785" lon="1.68096">
        <ele>170.5</ele>
        <time>2017-08-07T14:09:31Z</time>
      </trkpt>
      <trkpt lat="43.39788" lon="1.68084">
        <ele>170.100006</ele>
        <time>2017-08-07T14:09:33Z</time>
      </trkpt>
      <trkpt lat="43.39793" lon="1.68066">
        <ele>168.899994</ele>
        <time>2017-08-07T14:09:36Z</time>
      </trkpt>
      <trkpt lat="43.39799" lon="1.68054">
        <ele>168.399994</ele>
        <time>2017-08-07T14:09:38Z</time>
      </trkpt>
      <trkpt lat="43.39805" lon="1.68041">
        <ele>167.899994</ele>
        <time>2017-08-07T14:09:41Z</time>
      </trkpt>
      <trkpt lat="43.39811" lon="1.6803">
        <ele>167.199997</ele>
        <time>2017-08-07T14:09:43Z</time>
      </trkpt>
      <trkpt lat="43.39818" lon="1.68013">
        <ele>165.899994</ele>
        <time>2017-08-07T14:09:46Z</time>
      </trkpt>
      <trkpt lat="43.39826" lon="1.68002">
        <ele>165.5</ele>
        <time>2017-08-07T14:09:48Z</time>
      </trkpt>
      <trkpt lat="43.39836" lon="1.67992">
        <ele>164.899994</ele>
        <time>2017-08-07T14:09:50Z</time>
      </trkpt>
      <trkpt lat="43.3985" lon="1.67983">
        <ele>163.800003</ele>
        <time>2017-08-07T14:09:52Z</time>
      </trkpt>
      <trkpt lat="43.39859" lon="1.67976">
        <ele>162.399994</ele>
        <time>2017-08-07T14:09:54Z</time>
      </trkpt>
      <trkpt lat="43.39868" lon="1.6797">
        <ele>160.899994</ele>
        <time>2017-08-07T14:09:56Z</time>
      </trkpt>
      <trkpt lat="43.39877" lon="1.67963">
        <ele>159.199997</ele>
        <time>2017-08-07T14:09:58Z</time>
      </trkpt>
      <trkpt lat="43.39887" lon="1.67959">
        <ele>158.5</ele>
        <time>2017-08-07T14:10:02Z</time>
      </trkpt>
      <trkpt lat="43.39892" lon="1.67948">
        <ele>157</ele>
        <time>2017-08-07T14:10:05Z</time>
      </trkpt>
      <trkpt lat="43.39889" lon="1.67932">
        <ele>154.399994</ele>
        <time>2017-08-07T14:10:09Z</time>
      </trkpt>
      <trkpt lat="43.39883" lon="1.6792">
        <ele>154.300003</ele>
        <time>2017-08-07T14:10:13Z</time>
      </trkpt>
      <trkpt lat="43.39875" lon="1.6791">
        <ele>155.300003</ele>
        <time>2017-08-07T14:10:17Z</time>
      </trkpt>
      <trkpt lat="43.39868" lon="1.67902">
        <ele>157.600006</ele>
        <time>2017-08-07T14:10:21Z</time>
      </trkpt>
      <trkpt lat="43.39861" lon="1.67892">
        <ele>161.399994</ele>
        <time>2017-08-07T14:10:27Z</time>
      </trkpt>
      <trkpt lat="43.39866" lon="1.67904">
        <ele>158.199997</ele>
        <time>2017-08-07T14:10:37Z</time>
      </trkpt>
      <trkpt lat="43.39875" lon="1.67911">
        <ele>155.5</ele>
        <time>2017-08-07T14:10:42Z</time>
      </trkpt>
      <trkpt lat="43.39883" lon="1.6792">
        <ele>154.399994</ele>
        <time>2017-08-07T14:10:47Z</time>
      </trkpt>
      <trkpt lat="43.39889" lon="1.67931">
        <ele>154.100006</ele>
        <time>2017-08-07T14:10:53Z</time>
      </trkpt>
      <trkpt lat="43.39893" lon="1.67944">
        <ele>156</ele>
        <time>2017-08-07T14:10:58Z</time>
      </trkpt>
      <trkpt lat="43.39896" lon="1.67955">
        <ele>158.199997</ele>
        <time>2017-08-07T14:11:04Z</time>
      </trkpt>
      <trkpt lat="43.39902" lon="1.67967">
        <ele>159.600006</ele>
        <time>2017-08-07T14:11:10Z</time>
      </trkpt>
      <trkpt lat="43.39897" lon="1.67953">
        <ele>158.100006</ele>
        <time>2017-08-07T14:11:17Z</time>
      </trkpt>
      <trkpt lat="43.39892" lon="1.67943">
        <ele>156.199997</ele>
        <time>2017-08-07T14:11:21Z</time>
      </trkpt>
      <trkpt lat="43.39888" lon="1.67928">
        <ele>154.100006</ele>
        <time>2017-08-07T14:11:25Z</time>
      </trkpt>
      <trkpt lat="43.3988" lon="1.67915">
        <ele>154.600006</ele>
        <time>2017-08-07T14:11:29Z</time>
      </trkpt>
      <trkpt lat="43.39871" lon="1.67905">
        <ele>156.5</ele>
        <time>2017-08-07T14:11:33Z</time>
      </trkpt>
      <trkpt lat="43.39862" lon="1.67895">
        <ele>160.5</ele>
        <time>2017-08-07T14:11:37Z</time>
      </trkpt>
      <trkpt lat="43.39853" lon="1.67887">
        <ele>164.300003</ele>
        <time>2017-08-07T14:11:41Z</time>
      </trkpt>
      <trkpt lat="43.39845" lon="1.67877">
        <ele>167.5</ele>
        <time>2017-08-07T14:11:45Z</time>
      </trkpt>
      <trkpt lat="43.39837" lon="1.67868">
        <ele>169.300003</ele>
        <time>2017-08-07T14:11:49Z</time>
      </trkpt>
      <trkpt lat="43.39831" lon="1.67858">
        <ele>170.699997</ele>
        <time>2017-08-07T14:11:54Z</time>
      </trkpt>
      <trkpt lat="43.39836" lon="1.67871">
        <ele>169.199997</ele>
        <time>2017-08-07T14:12:10Z</time>
      </trkpt>
      <trkpt lat="43.39844" lon="1.67881">
        <ele>167.300003</ele>
        <time>2017-08-07T14:12:13Z</time>
      </trkpt>
      <trkpt lat="43.39854" lon="1.67892">
        <ele>163.699997</ele>
        <time>2017-08-07T14:12:16Z</time>
      </trkpt>
      <trkpt lat="43.39866" lon="1.67902">
        <ele>159.100006</ele>
        <time>2017-08-07T14:12:19Z</time>
      </trkpt>
      <trkpt lat="43.39876" lon="1.67913">
        <ele>155.5</ele>
        <time>2017-08-07T14:12:22Z</time>
      </trkpt>
      <trkpt lat="43.39886" lon="1.67925">
        <ele>154.199997</ele>
        <time>2017-08-07T14:12:25Z</time>
      </trkpt>
      <trkpt lat="43.39891" lon="1.67939">
        <ele>155.100006</ele>
        <time>2017-08-07T14:12:28Z</time>
      </trkpt>
      <trkpt lat="43.39896" lon="1.67952">
        <ele>157.399994</ele>
        <time>2017-08-07T14:12:31Z</time>
      </trkpt>
      <trkpt lat="43.39905" lon="1.67959">
        <ele>159.300003</ele>
        <time>2017-08-07T14:12:34Z</time>
      </trkpt>
      <trkpt lat="43.39916" lon="1.67953">
        <ele>160.100006</ele>
        <time>2017-08-07T14:12:37Z</time>
      </trkpt>
      <trkpt lat="43.39928" lon="1.67945">
        <ele>161.100006</ele>
        <time>2017-08-07T14:12:40Z</time>
      </trkpt>
      <trkpt lat="43.39938" lon="1.6794">
        <ele>161.800003</ele>
        <time>2017-08-07T14:12:42Z</time>
      </trkpt>
      <trkpt lat="43.39946" lon="1.67933">
        <ele>162.300003</ele>
        <time>2017-08-07T14:12:44Z</time>
      </trkpt>
      <trkpt lat="43.39956" lon="1.67926">
        <ele>163.100006</ele>
        <time>2017-08-07T14:12:46Z</time>
      </trkpt>
      <trkpt lat="43.39965" lon="1.67917">
        <ele>163.600006</ele>
        <time>2017-08-07T14:12:48Z</time>
      </trkpt>
      <trkpt lat="43.39974" lon="1.67908">
        <ele>164.199997</ele>
        <time>2017-08-07T14:12:50Z</time>
      </trkpt>
      <trkpt lat="43.39983" lon="1.67895">
        <ele>164.600006</ele>
        <time>2017-08-07T14:12:52Z</time>
      </trkpt>
      <trkpt lat="43.3999" lon="1.67883">
        <ele>164.399994</ele>
        <time>2017-08-07T14:12:54Z</time>
      </trkpt>
      <trkpt lat="43.39996" lon="1.6787">
        <ele>164.100006</ele>
        <time>2017-08-07T14:12:56Z</time>
      </trkpt>
      <trkpt lat="43.40002" lon="1.67856">
        <ele>164</ele>
        <time>2017-08-07T14:12:58Z</time>
      </trkpt>
      <trkpt lat="43.40008" lon="1.67844">
        <ele>164</ele>
        <time>2017-08-07T14:13:00Z</time>
      </trkpt>
      <trkpt lat="43.40013" lon="1.67832">
        <ele>164.300003</ele>
        <time>2017-08-07T14:13:02Z</time>
      </trkpt>
      <trkpt lat="43.40018" lon="1.67819">
        <ele>164.699997</ele>
        <time>2017-08-07T14:13:04Z</time>
      </trkpt>
      <trkpt lat="43.40023" lon="1.67808">
        <ele>165.399994</ele>
        <time>2017-08-07T14:13:06Z</time>
      </trkpt>
      <trkpt lat="43.40028" lon="1.67796">
        <ele>166.100006</ele>
        <time>2017-08-07T14:13:08Z</time>
      </trkpt>
      <trkpt lat="43.40034" lon="1.67785">
        <ele>166.300003</ele>
        <time>2017-08-07T14:13:10Z</time>
      </trkpt>
      <trkpt lat="43.4004" lon="1.67772">
        <ele>165.800003</ele>
        <time>2017-08-07T14:13:12Z</time>
      </trkpt>
      <trkpt lat="43.40046" lon="1.67759">
        <ele>164.800003</ele>
        <time>2017-08-07T14:13:14Z</time>
      </trkpt>
      <trkpt lat="43.40052" lon="1.67745">
        <ele>164</ele>
        <time>2017-08-07T14:13:16Z</time>
      </trkpt>
      <trkpt lat="43.40058" lon="1.67732">
        <ele>163.5</ele>
        <time>2017-08-07T14:13:18Z</time>
      </trkpt>
      <trkpt lat="43.40064" lon="1.67719">
        <ele>163.199997</ele>
        <time>2017-08-07T14:13:20Z</time>
      </trkpt>
      <trkpt lat="43.4007" lon="1.67705">
        <ele>162.899994</ele>
        <time>2017-08-07T14:13:22Z</time>
      </trkpt>
      <trkpt lat="43.40077" lon="1.67693">
        <ele>162.699997</ele>
        <time>2017-08-07T14:13:24Z</time>
      </trkpt>
      <trkpt lat="43.40084" lon="1.67683">
        <ele>163.100006</ele>
        <time>2017-08-07T14:13:26Z</time>
      </trkpt>
      <trkpt lat="43.4009" lon="1.67671">
        <ele>163.899994</ele>
        <time>2017-08-07T14:13:28Z</time>
      </trkpt>
      <trkpt lat="43.40096" lon="1.67659">
        <ele>164.800003</ele>
        <time>2017-08-07T14:13:30Z</time>
      </trkpt>
      <trkpt lat="43.40102" lon="1.67646">
        <ele>164.899994</ele>
        <time>2017-08-07T14:13:32Z</time>
      </trkpt>
      <trkpt lat="43.40107" lon="1.67633">
        <ele>164.5</ele>
        <time>2017-08-07T14:13:34Z</time>
      </trkpt>
      <trkpt lat="43.40114" lon="1.67619">
        <ele>164.5</ele>
        <time>2017-08-07T14:13:36Z</time>
      </trkpt>
      <trkpt lat="43.40119" lon="1.67605">
        <ele>163.899994</ele>
        <time>2017-08-07T14:13:38Z</time>
      </trkpt>
      <trkpt lat="43.40126" lon="1.67592">
        <ele>163.600006</ele>
        <time>2017-08-07T14:13:40Z</time>
      </trkpt>
      <trkpt lat="43.40132" lon="1.6758">
        <ele>163.399994</ele>
        <time>2017-08-07T14:13:42Z</time>
      </trkpt>
      <trkpt lat="43.40139" lon="1.67566">
        <ele>163.199997</ele>
        <time>2017-08-07T14:13:44Z</time>
      </trkpt>
      <trkpt lat="43.40146" lon="1.67553">
        <ele>163</ele>
        <time>2017-08-07T14:13:46Z</time>
      </trkpt>
      <trkpt lat="43.40153" lon="1.6754">
        <ele>162.800003</ele>
        <time>2017-08-07T14:13:48Z</time>
      </trkpt>
      <trkpt lat="43.4016" lon="1.67527">
        <ele>163</ele>
        <time>2017-08-07T14:13:50Z</time>
      </trkpt>
      <trkpt lat="43.40166" lon="1.67514">
        <ele>163.300003</ele>
        <time>2017-08-07T14:13:52Z</time>
      </trkpt>
      <trkpt lat="43.40171" lon="1.67502">
        <ele>163.699997</ele>
        <time>2017-08-07T14:13:54Z</time>
      </trkpt>
      <trkpt lat="43.40177" lon="1.67489">
        <ele>164.300003</ele>
        <time>2017-08-07T14:13:56Z</time>
      </trkpt>
      <trkpt lat="43.40183" lon="1.67476">
        <ele>164.800003</ele>
        <time>2017-08-07T14:13:58Z</time>
      </trkpt>
      <trkpt lat="43.40187" lon="1.67464">
        <ele>165</ele>
        <time>2017-08-07T14:14:00Z</time>
      </trkpt>
      <trkpt lat="43.40194" lon="1.67447">
        <ele>165</ele>
        <time>2017-08-07T14:14:03Z</time>
      </trkpt>
      <trkpt lat="43.40198" lon="1.67435">
        <ele>165</ele>
        <time>2017-08-07T14:14:05Z</time>
      </trkpt>
      <trkpt lat="43.40202" lon="1.67422">
        <ele>164.699997</ele>
        <time>2017-08-07T14:14:07Z</time>
      </trkpt>
      <trkpt lat="43.40207" lon="1.6741">
        <ele>164.399994</ele>
        <time>2017-08-07T14:14:09Z</time>
      </trkpt>
      <trkpt lat="43.4021" lon="1.67395">
        <ele>163.899994</ele>
        <time>2017-08-07T14:14:11Z</time>
      </trkpt>
      <trkpt lat="43.40213" lon="1.67382">
        <ele>163.899994</ele>
        <time>2017-08-07T14:14:13Z</time>
      </trkpt>
      <trkpt lat="43.40217" lon="1.67369">
        <ele>163.899994</ele>
        <time>2017-08-07T14:14:15Z</time>
      </trkpt>
      <trkpt lat="43.40221" lon="1.67356">
        <ele>163.800003</ele>
        <time>2017-08-07T14:14:17Z</time>
      </trkpt>
      <trkpt lat="43.40226" lon="1.67343">
        <ele>163.899994</ele>
        <time>2017-08-07T14:14:19Z</time>
      </trkpt>
      <trkpt lat="43.40231" lon="1.67329">
        <ele>163.899994</ele>
        <time>2017-08-07T14:14:21Z</time>
      </trkpt>
      <trkpt lat="43.40234" lon="1.67316">
        <ele>163.600006</ele>
        <time>2017-08-07T14:14:23Z</time>
      </trkpt>
      <trkpt lat="43.40238" lon="1.67302">
        <ele>163.5</ele>
        <time>2017-08-07T14:14:25Z</time>
      </trkpt>
      <trkpt lat="43.40241" lon="1.67289">
        <ele>163.300003</ele>
        <time>2017-08-07T14:14:27Z</time>
      </trkpt>
      <trkpt lat="43.40245" lon="1.67277">
        <ele>162.800003</ele>
        <time>2017-08-07T14:14:29Z</time>
      </trkpt>
      <trkpt lat="43.40247" lon="1.67265">
        <ele>162.300003</ele>
        <time>2017-08-07T14:14:31Z</time>
      </trkpt>
      <trkpt lat="43.40253" lon="1.67249">
        <ele>162</ele>
        <time>2017-08-07T14:14:34Z</time>
      </trkpt>
      <trkpt lat="43.40257" lon="1.67233">
        <ele>162</ele>
        <time>2017-08-07T14:14:37Z</time>
      </trkpt>
      <trkpt lat="43.40261" lon="1.67219">
        <ele>162.399994</ele>
        <time>2017-08-07T14:14:40Z</time>
      </trkpt>
      <trkpt lat="43.40267" lon="1.67211">
        <ele>163</ele>
        <time>2017-08-07T14:14:43Z</time>
      </trkpt>
      <trkpt lat="43.40278" lon="1.67217">
        <ele>163.100006</ele>
        <time>2017-08-07T14:14:48Z</time>
      </trkpt>
      <trkpt lat="43.40286" lon="1.67224">
        <ele>163.399994</ele>
        <time>2017-08-07T14:14:52Z</time>
      </trkpt>
      <trkpt lat="43.40295" lon="1.67229">
        <ele>163.5</ele>
        <time>2017-08-07T14:14:58Z</time>
      </trkpt>
      <trkpt lat="43.40306" lon="1.67234">
        <ele>163</ele>
        <time>2017-08-07T14:15:03Z</time>
      </trkpt>
      <trkpt lat="43.40313" lon="1.67228">
        <ele>162.199997</ele>
        <time>2017-08-07T14:15:09Z</time>
      </trkpt>
      <trkpt lat="43.40314" lon="1.67214">
        <ele>161.699997</ele>
        <time>2017-08-07T14:15:16Z</time>
      </trkpt>
      <trkpt lat="43.40311" lon="1.67213">
        <ele>161.699997</ele>
        <time>2017-08-07T14:15:25Z</time>
      </trkpt>
    </trkseg>
  </trk>
</gpx>